<?xml version="1.0" encoding="UTF-8" standalone="no" ?>
<gpx xmlns="http://www.topografix.com/GPX/1/1" xmlns:xsi="http://www.w3.org/2001/XMLSchema-instance" xsi:schemaLocation="http://www.topografix.com/GPX/1/1 http://www.topografix.com/GPX/1/1/gpx.xsd" version="1.1" creator="VisuGPX - https://www.visugpx.com">
  <metadata>
    <name>Pic du Grabié de Bresoul Randonnée</name>
  </metadata>
  <trk>
    <name><![CDATA[Pic du Grabié de Bresoul Randonnée]]></name>
    <trkseg>
      <trkpt lat="42.77056" lon="1.54645">
        <ele>1125.4</ele>
        <time>2021-09-19T07:31:35Z</time>
      </trkpt>
      <trkpt lat="42.77056" lon="1.54644">
        <ele>1125.4</ele>
        <time>2021-09-19T07:31:36Z</time>
      </trkpt>
      <trkpt lat="42.77053" lon="1.54637">
        <ele>1125.2</ele>
        <time>2021-09-19T07:31:42Z</time>
      </trkpt>
      <trkpt lat="42.77051" lon="1.54633">
        <ele>1125.2</ele>
        <time>2021-09-19T07:31:47Z</time>
      </trkpt>
      <trkpt lat="42.77049" lon="1.54631">
        <ele>1125.2</ele>
        <time>2021-09-19T07:31:51Z</time>
      </trkpt>
      <trkpt lat="42.77047" lon="1.54629">
        <ele>1125.4</ele>
        <time>2021-09-19T07:31:54Z</time>
      </trkpt>
      <trkpt lat="42.77046" lon="1.54626">
        <ele>1125.4</ele>
        <time>2021-09-19T07:31:56Z</time>
      </trkpt>
      <trkpt lat="42.77045" lon="1.54625">
        <ele>1125.4</ele>
        <time>2021-09-19T07:31:58Z</time>
      </trkpt>
      <trkpt lat="42.77044" lon="1.54624">
        <ele>1125.4</ele>
        <time>2021-09-19T07:32:06Z</time>
      </trkpt>
      <trkpt lat="42.77045" lon="1.54623">
        <ele>1125.8</ele>
        <time>2021-09-19T07:32:13Z</time>
      </trkpt>
      <trkpt lat="42.77045" lon="1.54621">
        <ele>1127</ele>
        <time>2021-09-19T07:32:17Z</time>
      </trkpt>
      <trkpt lat="42.77045" lon="1.5462">
        <ele>1127.6</ele>
        <time>2021-09-19T07:32:21Z</time>
      </trkpt>
      <trkpt lat="42.77046" lon="1.54619">
        <ele>1127.6</ele>
        <time>2021-09-19T07:32:23Z</time>
      </trkpt>
      <trkpt lat="42.77047" lon="1.54618">
        <ele>1128</ele>
        <time>2021-09-19T07:32:25Z</time>
      </trkpt>
      <trkpt lat="42.77047" lon="1.54615">
        <ele>1128.6</ele>
        <time>2021-09-19T07:32:28Z</time>
      </trkpt>
      <trkpt lat="42.77048" lon="1.54613">
        <ele>1129.2</ele>
        <time>2021-09-19T07:32:31Z</time>
      </trkpt>
      <trkpt lat="42.77052" lon="1.54615">
        <ele>1129.6</ele>
        <time>2021-09-19T07:32:37Z</time>
      </trkpt>
      <trkpt lat="42.77052" lon="1.54613">
        <ele>1130.2</ele>
        <time>2021-09-19T07:32:42Z</time>
      </trkpt>
      <trkpt lat="42.77052" lon="1.54614">
        <ele>1130.4</ele>
        <time>2021-09-19T07:32:44Z</time>
      </trkpt>
      <trkpt lat="42.77053" lon="1.54614">
        <ele>1130.8</ele>
        <time>2021-09-19T07:32:50Z</time>
      </trkpt>
      <trkpt lat="42.77056" lon="1.54612">
        <ele>1131.4</ele>
        <time>2021-09-19T07:32:53Z</time>
      </trkpt>
      <trkpt lat="42.77059" lon="1.54613">
        <ele>1132.4</ele>
        <time>2021-09-19T07:32:56Z</time>
      </trkpt>
      <trkpt lat="42.77059" lon="1.54613">
        <ele>1132.6</ele>
        <time>2021-09-19T07:32:57Z</time>
      </trkpt>
      <trkpt lat="42.77061" lon="1.54615">
        <ele>1132.8</ele>
        <time>2021-09-19T07:33:01Z</time>
      </trkpt>
      <trkpt lat="42.77062" lon="1.54614">
        <ele>1133</ele>
        <time>2021-09-19T07:33:04Z</time>
      </trkpt>
      <trkpt lat="42.77064" lon="1.54614">
        <ele>1133.6</ele>
        <time>2021-09-19T07:33:07Z</time>
      </trkpt>
      <trkpt lat="42.77068" lon="1.54613">
        <ele>1134.4</ele>
        <time>2021-09-19T07:33:13Z</time>
      </trkpt>
      <trkpt lat="42.77069" lon="1.54613">
        <ele>1134.6</ele>
        <time>2021-09-19T07:33:14Z</time>
      </trkpt>
      <trkpt lat="42.77071" lon="1.54617">
        <ele>1135.2</ele>
        <time>2021-09-19T07:33:18Z</time>
      </trkpt>
      <trkpt lat="42.77074" lon="1.54622">
        <ele>1135.2</ele>
        <time>2021-09-19T07:33:22Z</time>
      </trkpt>
      <trkpt lat="42.77075" lon="1.54623">
        <ele>1135.2</ele>
        <time>2021-09-19T07:33:23Z</time>
      </trkpt>
      <trkpt lat="42.77077" lon="1.54624">
        <ele>1135.2</ele>
        <time>2021-09-19T07:33:24Z</time>
      </trkpt>
      <trkpt lat="42.77081" lon="1.5463">
        <ele>1135.4</ele>
        <time>2021-09-19T07:33:29Z</time>
      </trkpt>
      <trkpt lat="42.77084" lon="1.54637">
        <ele>1135.6</ele>
        <time>2021-09-19T07:33:35Z</time>
      </trkpt>
      <trkpt lat="42.77084" lon="1.54639">
        <ele>1135.4</ele>
        <time>2021-09-19T07:33:36Z</time>
      </trkpt>
      <trkpt lat="42.77086" lon="1.54647">
        <ele>1135.2</ele>
        <time>2021-09-19T07:33:41Z</time>
      </trkpt>
      <trkpt lat="42.77087" lon="1.54649">
        <ele>1135.2</ele>
        <time>2021-09-19T07:33:43Z</time>
      </trkpt>
      <trkpt lat="42.77089" lon="1.54655">
        <ele>1135</ele>
        <time>2021-09-19T07:33:47Z</time>
      </trkpt>
      <trkpt lat="42.7709" lon="1.5466">
        <ele>1134.8</ele>
        <time>2021-09-19T07:33:51Z</time>
      </trkpt>
      <trkpt lat="42.77091" lon="1.54668">
        <ele>1134.8</ele>
        <time>2021-09-19T07:33:58Z</time>
      </trkpt>
      <trkpt lat="42.77088" lon="1.54664">
        <ele>1134.8</ele>
        <time>2021-09-19T07:34:01Z</time>
      </trkpt>
      <trkpt lat="42.77087" lon="1.54662">
        <ele>1135</ele>
        <time>2021-09-19T07:34:03Z</time>
      </trkpt>
      <trkpt lat="42.77087" lon="1.54657">
        <ele>1134.8</ele>
        <time>2021-09-19T07:34:08Z</time>
      </trkpt>
      <trkpt lat="42.77087" lon="1.54653">
        <ele>1134.8</ele>
        <time>2021-09-19T07:34:11Z</time>
      </trkpt>
      <trkpt lat="42.77088" lon="1.54646">
        <ele>1135.2</ele>
        <time>2021-09-19T07:34:18Z</time>
      </trkpt>
      <trkpt lat="42.77088" lon="1.54637">
        <ele>1136.2</ele>
        <time>2021-09-19T07:34:24Z</time>
      </trkpt>
      <trkpt lat="42.77088" lon="1.54634">
        <ele>1136.4</ele>
        <time>2021-09-19T07:34:26Z</time>
      </trkpt>
      <trkpt lat="42.77086" lon="1.54632">
        <ele>1136.4</ele>
        <time>2021-09-19T07:34:29Z</time>
      </trkpt>
      <trkpt lat="42.77084" lon="1.54628">
        <ele>1136.8</ele>
        <time>2021-09-19T07:34:33Z</time>
      </trkpt>
      <trkpt lat="42.77083" lon="1.54619">
        <ele>1137.4</ele>
        <time>2021-09-19T07:34:41Z</time>
      </trkpt>
      <trkpt lat="42.77083" lon="1.54617">
        <ele>1137.4</ele>
        <time>2021-09-19T07:34:43Z</time>
      </trkpt>
      <trkpt lat="42.77083" lon="1.54611">
        <ele>1137.4</ele>
        <time>2021-09-19T07:34:47Z</time>
      </trkpt>
      <trkpt lat="42.77083" lon="1.5461">
        <ele>1137.4</ele>
        <time>2021-09-19T07:34:48Z</time>
      </trkpt>
      <trkpt lat="42.77083" lon="1.54604">
        <ele>1137.4</ele>
        <time>2021-09-19T07:34:51Z</time>
      </trkpt>
      <trkpt lat="42.77083" lon="1.54601">
        <ele>1137.8</ele>
        <time>2021-09-19T07:34:53Z</time>
      </trkpt>
      <trkpt lat="42.77082" lon="1.54598">
        <ele>1138.4</ele>
        <time>2021-09-19T07:34:55Z</time>
      </trkpt>
      <trkpt lat="42.77082" lon="1.54593">
        <ele>1138.8</ele>
        <time>2021-09-19T07:34:58Z</time>
      </trkpt>
      <trkpt lat="42.77082" lon="1.5459">
        <ele>1139.2</ele>
        <time>2021-09-19T07:35:00Z</time>
      </trkpt>
      <trkpt lat="42.77081" lon="1.54588">
        <ele>1139.6</ele>
        <time>2021-09-19T07:35:02Z</time>
      </trkpt>
      <trkpt lat="42.7708" lon="1.54581">
        <ele>1140.2</ele>
        <time>2021-09-19T07:35:10Z</time>
      </trkpt>
      <trkpt lat="42.7708" lon="1.5458">
        <ele>1140.2</ele>
        <time>2021-09-19T07:35:11Z</time>
      </trkpt>
      <trkpt lat="42.77078" lon="1.54574">
        <ele>1140.4</ele>
        <time>2021-09-19T07:35:18Z</time>
      </trkpt>
      <trkpt lat="42.77074" lon="1.54567">
        <ele>1141.2</ele>
        <time>2021-09-19T07:35:26Z</time>
      </trkpt>
      <trkpt lat="42.77073" lon="1.54565">
        <ele>1141.4</ele>
        <time>2021-09-19T07:35:27Z</time>
      </trkpt>
      <trkpt lat="42.7707" lon="1.54557">
        <ele>1141.8</ele>
        <time>2021-09-19T07:35:34Z</time>
      </trkpt>
      <trkpt lat="42.77069" lon="1.54556">
        <ele>1141.8</ele>
        <time>2021-09-19T07:35:35Z</time>
      </trkpt>
      <trkpt lat="42.77065" lon="1.54546">
        <ele>1142.2</ele>
        <time>2021-09-19T07:35:44Z</time>
      </trkpt>
      <trkpt lat="42.77065" lon="1.54545">
        <ele>1142.4</ele>
        <time>2021-09-19T07:35:45Z</time>
      </trkpt>
      <trkpt lat="42.77061" lon="1.54536">
        <ele>1143.2</ele>
        <time>2021-09-19T07:35:53Z</time>
      </trkpt>
      <trkpt lat="42.7706" lon="1.54535">
        <ele>1143.4</ele>
        <time>2021-09-19T07:35:54Z</time>
      </trkpt>
      <trkpt lat="42.77054" lon="1.54526">
        <ele>1144.4</ele>
        <time>2021-09-19T07:36:01Z</time>
      </trkpt>
      <trkpt lat="42.77049" lon="1.54516">
        <ele>1145</ele>
        <time>2021-09-19T07:36:10Z</time>
      </trkpt>
      <trkpt lat="42.77048" lon="1.54515">
        <ele>1145.2</ele>
        <time>2021-09-19T07:36:11Z</time>
      </trkpt>
      <trkpt lat="42.77048" lon="1.54512">
        <ele>1145.4</ele>
        <time>2021-09-19T07:36:13Z</time>
      </trkpt>
      <trkpt lat="42.77045" lon="1.54506">
        <ele>1146</ele>
        <time>2021-09-19T07:36:18Z</time>
      </trkpt>
      <trkpt lat="42.77043" lon="1.54502">
        <ele>1146.6</ele>
        <time>2021-09-19T07:36:21Z</time>
      </trkpt>
      <trkpt lat="42.7704" lon="1.54493">
        <ele>1147.2</ele>
        <time>2021-09-19T07:36:29Z</time>
      </trkpt>
      <trkpt lat="42.77039" lon="1.5449">
        <ele>1147.4</ele>
        <time>2021-09-19T07:36:32Z</time>
      </trkpt>
      <trkpt lat="42.77037" lon="1.54486">
        <ele>1147.6</ele>
        <time>2021-09-19T07:36:35Z</time>
      </trkpt>
      <trkpt lat="42.77036" lon="1.54479">
        <ele>1148.2</ele>
        <time>2021-09-19T07:36:39Z</time>
      </trkpt>
      <trkpt lat="42.77038" lon="1.54476">
        <ele>1148.2</ele>
        <time>2021-09-19T07:36:41Z</time>
      </trkpt>
      <trkpt lat="42.77041" lon="1.54475">
        <ele>1148.4</ele>
        <time>2021-09-19T07:36:45Z</time>
      </trkpt>
      <trkpt lat="42.77042" lon="1.54475">
        <ele>1148.6</ele>
        <time>2021-09-19T07:36:46Z</time>
      </trkpt>
      <trkpt lat="42.77045" lon="1.54476">
        <ele>1149.2</ele>
        <time>2021-09-19T07:36:52Z</time>
      </trkpt>
      <trkpt lat="42.77048" lon="1.54474">
        <ele>1149.8</ele>
        <time>2021-09-19T07:36:57Z</time>
      </trkpt>
      <trkpt lat="42.77049" lon="1.54475">
        <ele>1149.8</ele>
        <time>2021-09-19T07:36:58Z</time>
      </trkpt>
      <trkpt lat="42.77054" lon="1.54476">
        <ele>1150.8</ele>
        <time>2021-09-19T07:37:06Z</time>
      </trkpt>
      <trkpt lat="42.77055" lon="1.54476">
        <ele>1151.2</ele>
        <time>2021-09-19T07:37:08Z</time>
      </trkpt>
      <trkpt lat="42.77057" lon="1.54477">
        <ele>1151.8</ele>
        <time>2021-09-19T07:37:11Z</time>
      </trkpt>
      <trkpt lat="42.77059" lon="1.54479">
        <ele>1152</ele>
        <time>2021-09-19T07:37:13Z</time>
      </trkpt>
      <trkpt lat="42.77061" lon="1.54483">
        <ele>1152.6</ele>
        <time>2021-09-19T07:37:17Z</time>
      </trkpt>
      <trkpt lat="42.77062" lon="1.54484">
        <ele>1153</ele>
        <time>2021-09-19T07:37:19Z</time>
      </trkpt>
      <trkpt lat="42.77063" lon="1.54484">
        <ele>1153</ele>
        <time>2021-09-19T07:37:20Z</time>
      </trkpt>
      <trkpt lat="42.77067" lon="1.54486">
        <ele>1154</ele>
        <time>2021-09-19T07:37:25Z</time>
      </trkpt>
      <trkpt lat="42.77068" lon="1.54487">
        <ele>1154.2</ele>
        <time>2021-09-19T07:37:26Z</time>
      </trkpt>
      <trkpt lat="42.77068" lon="1.54487">
        <ele>1154.4</ele>
        <time>2021-09-19T07:37:27Z</time>
      </trkpt>
      <trkpt lat="42.77069" lon="1.54488">
        <ele>1154.4</ele>
        <time>2021-09-19T07:37:28Z</time>
      </trkpt>
      <trkpt lat="42.77071" lon="1.54492">
        <ele>1154.8</ele>
        <time>2021-09-19T07:37:33Z</time>
      </trkpt>
      <trkpt lat="42.77073" lon="1.54492">
        <ele>1155</ele>
        <time>2021-09-19T07:37:36Z</time>
      </trkpt>
      <trkpt lat="42.77074" lon="1.54492">
        <ele>1155.2</ele>
        <time>2021-09-19T07:37:37Z</time>
      </trkpt>
      <trkpt lat="42.77079" lon="1.54495">
        <ele>1156</ele>
        <time>2021-09-19T07:37:43Z</time>
      </trkpt>
      <trkpt lat="42.7708" lon="1.54495">
        <ele>1156.2</ele>
        <time>2021-09-19T07:37:44Z</time>
      </trkpt>
      <trkpt lat="42.77082" lon="1.54496">
        <ele>1157.4</ele>
        <time>2021-09-19T07:37:49Z</time>
      </trkpt>
      <trkpt lat="42.77082" lon="1.54497">
        <ele>1157.8</ele>
        <time>2021-09-19T07:37:51Z</time>
      </trkpt>
      <trkpt lat="42.77083" lon="1.54497">
        <ele>1158</ele>
        <time>2021-09-19T07:37:53Z</time>
      </trkpt>
      <trkpt lat="42.77083" lon="1.54497">
        <ele>1158.2</ele>
        <time>2021-09-19T07:37:54Z</time>
      </trkpt>
      <trkpt lat="42.77083" lon="1.54496">
        <ele>1158.4</ele>
        <time>2021-09-19T07:37:55Z</time>
      </trkpt>
      <trkpt lat="42.77082" lon="1.5449">
        <ele>1158.8</ele>
        <time>2021-09-19T07:37:59Z</time>
      </trkpt>
      <trkpt lat="42.77082" lon="1.54488">
        <ele>1159</ele>
        <time>2021-09-19T07:38:00Z</time>
      </trkpt>
      <trkpt lat="42.77082" lon="1.54486">
        <ele>1159.2</ele>
        <time>2021-09-19T07:38:02Z</time>
      </trkpt>
      <trkpt lat="42.77082" lon="1.54484">
        <ele>1159.6</ele>
        <time>2021-09-19T07:38:04Z</time>
      </trkpt>
      <trkpt lat="42.77082" lon="1.54482">
        <ele>1160</ele>
        <time>2021-09-19T07:38:08Z</time>
      </trkpt>
      <trkpt lat="42.77083" lon="1.54479">
        <ele>1160.6</ele>
        <time>2021-09-19T07:38:11Z</time>
      </trkpt>
      <trkpt lat="42.77083" lon="1.54476">
        <ele>1160.8</ele>
        <time>2021-09-19T07:38:13Z</time>
      </trkpt>
      <trkpt lat="42.77082" lon="1.54475">
        <ele>1161</ele>
        <time>2021-09-19T07:38:14Z</time>
      </trkpt>
      <trkpt lat="42.77081" lon="1.54473">
        <ele>1161.6</ele>
        <time>2021-09-19T07:38:17Z</time>
      </trkpt>
      <trkpt lat="42.77084" lon="1.5447">
        <ele>1162.6</ele>
        <time>2021-09-19T07:38:24Z</time>
      </trkpt>
      <trkpt lat="42.77084" lon="1.54469">
        <ele>1162.8</ele>
        <time>2021-09-19T07:38:25Z</time>
      </trkpt>
      <trkpt lat="42.77084" lon="1.54465">
        <ele>1163</ele>
        <time>2021-09-19T07:38:29Z</time>
      </trkpt>
      <trkpt lat="42.77085" lon="1.54462">
        <ele>1163</ele>
        <time>2021-09-19T07:38:32Z</time>
      </trkpt>
      <trkpt lat="42.77086" lon="1.54461">
        <ele>1163.8</ele>
        <time>2021-09-19T07:38:34Z</time>
      </trkpt>
      <trkpt lat="42.77088" lon="1.54458">
        <ele>1164.2</ele>
        <time>2021-09-19T07:38:39Z</time>
      </trkpt>
      <trkpt lat="42.77089" lon="1.54456">
        <ele>1164.4</ele>
        <time>2021-09-19T07:38:41Z</time>
      </trkpt>
      <trkpt lat="42.77089" lon="1.54453">
        <ele>1164.8</ele>
        <time>2021-09-19T07:38:44Z</time>
      </trkpt>
      <trkpt lat="42.77091" lon="1.5445">
        <ele>1165.8</ele>
        <time>2021-09-19T07:38:48Z</time>
      </trkpt>
      <trkpt lat="42.77092" lon="1.54449">
        <ele>1166</ele>
        <time>2021-09-19T07:38:49Z</time>
      </trkpt>
      <trkpt lat="42.77092" lon="1.54443">
        <ele>1166.2</ele>
        <time>2021-09-19T07:38:56Z</time>
      </trkpt>
      <trkpt lat="42.77092" lon="1.54441">
        <ele>1167</ele>
        <time>2021-09-19T07:38:58Z</time>
      </trkpt>
      <trkpt lat="42.77093" lon="1.5444">
        <ele>1168</ele>
        <time>2021-09-19T07:39:02Z</time>
      </trkpt>
      <trkpt lat="42.77093" lon="1.54439">
        <ele>1168.2</ele>
        <time>2021-09-19T07:39:03Z</time>
      </trkpt>
      <trkpt lat="42.77095" lon="1.54434">
        <ele>1169.2</ele>
        <time>2021-09-19T07:39:11Z</time>
      </trkpt>
      <trkpt lat="42.77096" lon="1.54432">
        <ele>1169.8</ele>
        <time>2021-09-19T07:39:17Z</time>
      </trkpt>
      <trkpt lat="42.77096" lon="1.54431">
        <ele>1170</ele>
        <time>2021-09-19T07:39:18Z</time>
      </trkpt>
      <trkpt lat="42.77097" lon="1.54427">
        <ele>1170.4</ele>
        <time>2021-09-19T07:39:22Z</time>
      </trkpt>
      <trkpt lat="42.77097" lon="1.54425">
        <ele>1171.4</ele>
        <time>2021-09-19T07:39:26Z</time>
      </trkpt>
      <trkpt lat="42.77097" lon="1.54425">
        <ele>1171.8</ele>
        <time>2021-09-19T07:39:28Z</time>
      </trkpt>
      <trkpt lat="42.77097" lon="1.54424">
        <ele>1171.8</ele>
        <time>2021-09-19T07:39:30Z</time>
      </trkpt>
      <trkpt lat="42.77098" lon="1.54423">
        <ele>1172.2</ele>
        <time>2021-09-19T07:39:32Z</time>
      </trkpt>
      <trkpt lat="42.77098" lon="1.54422">
        <ele>1172.4</ele>
        <time>2021-09-19T07:39:33Z</time>
      </trkpt>
      <trkpt lat="42.77098" lon="1.5442">
        <ele>1173.2</ele>
        <time>2021-09-19T07:39:37Z</time>
      </trkpt>
      <trkpt lat="42.77098" lon="1.54419">
        <ele>1173.6</ele>
        <time>2021-09-19T07:39:39Z</time>
      </trkpt>
      <trkpt lat="42.77098" lon="1.54418">
        <ele>1173.6</ele>
        <time>2021-09-19T07:39:40Z</time>
      </trkpt>
      <trkpt lat="42.77098" lon="1.54414">
        <ele>1174.4</ele>
        <time>2021-09-19T07:39:45Z</time>
      </trkpt>
      <trkpt lat="42.77098" lon="1.54414">
        <ele>1174.6</ele>
        <time>2021-09-19T07:39:46Z</time>
      </trkpt>
      <trkpt lat="42.77097" lon="1.54411">
        <ele>1175</ele>
        <time>2021-09-19T07:39:50Z</time>
      </trkpt>
      <trkpt lat="42.77095" lon="1.5441">
        <ele>1175.2</ele>
        <time>2021-09-19T07:39:53Z</time>
      </trkpt>
      <trkpt lat="42.77093" lon="1.54401">
        <ele>1175.2</ele>
        <time>2021-09-19T07:40:02Z</time>
      </trkpt>
      <trkpt lat="42.77092" lon="1.54399">
        <ele>1175.8</ele>
        <time>2021-09-19T07:40:04Z</time>
      </trkpt>
      <trkpt lat="42.77088" lon="1.54395">
        <ele>1176.8</ele>
        <time>2021-09-19T07:40:11Z</time>
      </trkpt>
      <trkpt lat="42.77087" lon="1.54394">
        <ele>1177</ele>
        <time>2021-09-19T07:40:12Z</time>
      </trkpt>
      <trkpt lat="42.77087" lon="1.54388">
        <ele>1178</ele>
        <time>2021-09-19T07:40:17Z</time>
      </trkpt>
      <trkpt lat="42.77085" lon="1.54385">
        <ele>1178</ele>
        <time>2021-09-19T07:40:20Z</time>
      </trkpt>
      <trkpt lat="42.77086" lon="1.54378">
        <ele>1178.6</ele>
        <time>2021-09-19T07:40:26Z</time>
      </trkpt>
      <trkpt lat="42.77086" lon="1.54377">
        <ele>1179</ele>
        <time>2021-09-19T07:40:28Z</time>
      </trkpt>
      <trkpt lat="42.77085" lon="1.5437">
        <ele>1179.4</ele>
        <time>2021-09-19T07:40:33Z</time>
      </trkpt>
      <trkpt lat="42.77083" lon="1.54368">
        <ele>1180</ele>
        <time>2021-09-19T07:40:38Z</time>
      </trkpt>
      <trkpt lat="42.77082" lon="1.54367">
        <ele>1180.2</ele>
        <time>2021-09-19T07:40:40Z</time>
      </trkpt>
      <trkpt lat="42.7708" lon="1.54363">
        <ele>1181</ele>
        <time>2021-09-19T07:40:45Z</time>
      </trkpt>
      <trkpt lat="42.7708" lon="1.54362">
        <ele>1181.2</ele>
        <time>2021-09-19T07:40:46Z</time>
      </trkpt>
      <trkpt lat="42.77079" lon="1.54361">
        <ele>1181.4</ele>
        <time>2021-09-19T07:40:48Z</time>
      </trkpt>
      <trkpt lat="42.77079" lon="1.54356">
        <ele>1182</ele>
        <time>2021-09-19T07:40:53Z</time>
      </trkpt>
      <trkpt lat="42.77078" lon="1.54355">
        <ele>1182.2</ele>
        <time>2021-09-19T07:40:54Z</time>
      </trkpt>
      <trkpt lat="42.77077" lon="1.54347">
        <ele>1183.2</ele>
        <time>2021-09-19T07:41:01Z</time>
      </trkpt>
      <trkpt lat="42.77078" lon="1.54345">
        <ele>1183.6</ele>
        <time>2021-09-19T07:41:04Z</time>
      </trkpt>
      <trkpt lat="42.77077" lon="1.54343">
        <ele>1184</ele>
        <time>2021-09-19T07:41:07Z</time>
      </trkpt>
      <trkpt lat="42.77077" lon="1.54342">
        <ele>1184.2</ele>
        <time>2021-09-19T07:41:08Z</time>
      </trkpt>
      <trkpt lat="42.77075" lon="1.54336">
        <ele>1185.2</ele>
        <time>2021-09-19T07:41:13Z</time>
      </trkpt>
      <trkpt lat="42.77075" lon="1.54334">
        <ele>1185.6</ele>
        <time>2021-09-19T07:41:15Z</time>
      </trkpt>
      <trkpt lat="42.77073" lon="1.54332">
        <ele>1186.4</ele>
        <time>2021-09-19T07:41:19Z</time>
      </trkpt>
      <trkpt lat="42.77072" lon="1.54332">
        <ele>1186.6</ele>
        <time>2021-09-19T07:41:20Z</time>
      </trkpt>
      <trkpt lat="42.77072" lon="1.54332">
        <ele>1186.8</ele>
        <time>2021-09-19T07:41:21Z</time>
      </trkpt>
      <trkpt lat="42.77071" lon="1.54335">
        <ele>1187.2</ele>
        <time>2021-09-19T07:41:23Z</time>
      </trkpt>
      <trkpt lat="42.7707" lon="1.54336">
        <ele>1187.4</ele>
        <time>2021-09-19T07:41:24Z</time>
      </trkpt>
      <trkpt lat="42.77069" lon="1.54336">
        <ele>1187.6</ele>
        <time>2021-09-19T07:41:25Z</time>
      </trkpt>
      <trkpt lat="42.77067" lon="1.54336">
        <ele>1188.2</ele>
        <time>2021-09-19T07:41:28Z</time>
      </trkpt>
      <trkpt lat="42.77061" lon="1.54331">
        <ele>1188.6</ele>
        <time>2021-09-19T07:41:36Z</time>
      </trkpt>
      <trkpt lat="42.7706" lon="1.54331">
        <ele>1189</ele>
        <time>2021-09-19T07:41:38Z</time>
      </trkpt>
      <trkpt lat="42.77058" lon="1.5433">
        <ele>1189.4</ele>
        <time>2021-09-19T07:41:41Z</time>
      </trkpt>
      <trkpt lat="42.77056" lon="1.54329">
        <ele>1189.8</ele>
        <time>2021-09-19T07:41:43Z</time>
      </trkpt>
      <trkpt lat="42.77055" lon="1.54329">
        <ele>1190.2</ele>
        <time>2021-09-19T07:41:45Z</time>
      </trkpt>
      <trkpt lat="42.77054" lon="1.54328">
        <ele>1190.4</ele>
        <time>2021-09-19T07:41:47Z</time>
      </trkpt>
      <trkpt lat="42.77051" lon="1.54329">
        <ele>1190.8</ele>
        <time>2021-09-19T07:41:51Z</time>
      </trkpt>
      <trkpt lat="42.77049" lon="1.5433">
        <ele>1191.2</ele>
        <time>2021-09-19T07:41:55Z</time>
      </trkpt>
      <trkpt lat="42.77049" lon="1.5433">
        <ele>1191.4</ele>
        <time>2021-09-19T07:41:56Z</time>
      </trkpt>
      <trkpt lat="42.77048" lon="1.5433">
        <ele>1191.4</ele>
        <time>2021-09-19T07:41:57Z</time>
      </trkpt>
      <trkpt lat="42.77047" lon="1.54328">
        <ele>1191.8</ele>
        <time>2021-09-19T07:42:00Z</time>
      </trkpt>
      <trkpt lat="42.77045" lon="1.54326">
        <ele>1192.2</ele>
        <time>2021-09-19T07:42:03Z</time>
      </trkpt>
      <trkpt lat="42.77039" lon="1.54326">
        <ele>1193</ele>
        <time>2021-09-19T07:42:08Z</time>
      </trkpt>
      <trkpt lat="42.77038" lon="1.54326">
        <ele>1193</ele>
        <time>2021-09-19T07:42:09Z</time>
      </trkpt>
      <trkpt lat="42.77034" lon="1.54325">
        <ele>1193.6</ele>
        <time>2021-09-19T07:42:14Z</time>
      </trkpt>
      <trkpt lat="42.77033" lon="1.54325">
        <ele>1193.6</ele>
        <time>2021-09-19T07:42:15Z</time>
      </trkpt>
      <trkpt lat="42.77031" lon="1.54325">
        <ele>1194</ele>
        <time>2021-09-19T07:42:17Z</time>
      </trkpt>
      <trkpt lat="42.77027" lon="1.54323">
        <ele>1194.6</ele>
        <time>2021-09-19T07:42:23Z</time>
      </trkpt>
      <trkpt lat="42.77025" lon="1.54322">
        <ele>1195</ele>
        <time>2021-09-19T07:42:26Z</time>
      </trkpt>
      <trkpt lat="42.77022" lon="1.54319">
        <ele>1195.6</ele>
        <time>2021-09-19T07:42:29Z</time>
      </trkpt>
      <trkpt lat="42.77019" lon="1.54318">
        <ele>1196.2</ele>
        <time>2021-09-19T07:42:33Z</time>
      </trkpt>
      <trkpt lat="42.77017" lon="1.54318">
        <ele>1196.4</ele>
        <time>2021-09-19T07:42:35Z</time>
      </trkpt>
      <trkpt lat="42.77017" lon="1.54318">
        <ele>1196.6</ele>
        <time>2021-09-19T07:42:36Z</time>
      </trkpt>
      <trkpt lat="42.77016" lon="1.54318">
        <ele>1197</ele>
        <time>2021-09-19T07:42:38Z</time>
      </trkpt>
      <trkpt lat="42.77015" lon="1.54319">
        <ele>1197.2</ele>
        <time>2021-09-19T07:42:40Z</time>
      </trkpt>
      <trkpt lat="42.77013" lon="1.54318">
        <ele>1197.6</ele>
        <time>2021-09-19T07:42:43Z</time>
      </trkpt>
      <trkpt lat="42.77012" lon="1.54317">
        <ele>1197.6</ele>
        <time>2021-09-19T07:42:44Z</time>
      </trkpt>
      <trkpt lat="42.77009" lon="1.54315">
        <ele>1198</ele>
        <time>2021-09-19T07:42:48Z</time>
      </trkpt>
      <trkpt lat="42.77007" lon="1.54314">
        <ele>1198.2</ele>
        <time>2021-09-19T07:42:50Z</time>
      </trkpt>
      <trkpt lat="42.77005" lon="1.54313">
        <ele>1198.4</ele>
        <time>2021-09-19T07:42:53Z</time>
      </trkpt>
      <trkpt lat="42.77004" lon="1.54312">
        <ele>1199.2</ele>
        <time>2021-09-19T07:42:57Z</time>
      </trkpt>
      <trkpt lat="42.77003" lon="1.54312">
        <ele>1199.4</ele>
        <time>2021-09-19T07:42:58Z</time>
      </trkpt>
      <trkpt lat="42.77002" lon="1.54309">
        <ele>1199.8</ele>
        <time>2021-09-19T07:43:01Z</time>
      </trkpt>
      <trkpt lat="42.76999" lon="1.54307">
        <ele>1200.2</ele>
        <time>2021-09-19T07:43:04Z</time>
      </trkpt>
      <trkpt lat="42.76998" lon="1.54306">
        <ele>1200.4</ele>
        <time>2021-09-19T07:43:05Z</time>
      </trkpt>
      <trkpt lat="42.76995" lon="1.54305">
        <ele>1200.8</ele>
        <time>2021-09-19T07:43:08Z</time>
      </trkpt>
      <trkpt lat="42.76994" lon="1.54305">
        <ele>1201</ele>
        <time>2021-09-19T07:43:10Z</time>
      </trkpt>
      <trkpt lat="42.76993" lon="1.54303">
        <ele>1201.4</ele>
        <time>2021-09-19T07:43:12Z</time>
      </trkpt>
      <trkpt lat="42.76992" lon="1.54302">
        <ele>1201.6</ele>
        <time>2021-09-19T07:43:13Z</time>
      </trkpt>
      <trkpt lat="42.7699" lon="1.54298">
        <ele>1202</ele>
        <time>2021-09-19T07:43:17Z</time>
      </trkpt>
      <trkpt lat="42.76989" lon="1.54296">
        <ele>1202.6</ele>
        <time>2021-09-19T07:43:21Z</time>
      </trkpt>
      <trkpt lat="42.7699" lon="1.54292">
        <ele>1203</ele>
        <time>2021-09-19T07:43:24Z</time>
      </trkpt>
      <trkpt lat="42.76991" lon="1.54287">
        <ele>1203.8</ele>
        <time>2021-09-19T07:43:28Z</time>
      </trkpt>
      <trkpt lat="42.76992" lon="1.54284">
        <ele>1204.4</ele>
        <time>2021-09-19T07:43:31Z</time>
      </trkpt>
      <trkpt lat="42.76992" lon="1.54282">
        <ele>1204.8</ele>
        <time>2021-09-19T07:43:33Z</time>
      </trkpt>
      <trkpt lat="42.76992" lon="1.54281">
        <ele>1204.8</ele>
        <time>2021-09-19T07:43:34Z</time>
      </trkpt>
      <trkpt lat="42.76994" lon="1.54279">
        <ele>1205.4</ele>
        <time>2021-09-19T07:43:37Z</time>
      </trkpt>
      <trkpt lat="42.76994" lon="1.54277">
        <ele>1205.8</ele>
        <time>2021-09-19T07:43:39Z</time>
      </trkpt>
      <trkpt lat="42.76995" lon="1.54276">
        <ele>1205.8</ele>
        <time>2021-09-19T07:43:41Z</time>
      </trkpt>
      <trkpt lat="42.76995" lon="1.54276">
        <ele>1206.2</ele>
        <time>2021-09-19T07:43:42Z</time>
      </trkpt>
      <trkpt lat="42.76995" lon="1.54275">
        <ele>1206.4</ele>
        <time>2021-09-19T07:43:43Z</time>
      </trkpt>
      <trkpt lat="42.76996" lon="1.54273">
        <ele>1207</ele>
        <time>2021-09-19T07:43:46Z</time>
      </trkpt>
      <trkpt lat="42.76996" lon="1.54272">
        <ele>1207</ele>
        <time>2021-09-19T07:43:48Z</time>
      </trkpt>
      <trkpt lat="42.76996" lon="1.54271">
        <ele>1207</ele>
        <time>2021-09-19T07:43:49Z</time>
      </trkpt>
      <trkpt lat="42.76997" lon="1.54268">
        <ele>1207.4</ele>
        <time>2021-09-19T07:43:52Z</time>
      </trkpt>
      <trkpt lat="42.76998" lon="1.54266">
        <ele>1207.8</ele>
        <time>2021-09-19T07:43:54Z</time>
      </trkpt>
      <trkpt lat="42.76998" lon="1.54265">
        <ele>1208</ele>
        <time>2021-09-19T07:43:55Z</time>
      </trkpt>
      <trkpt lat="42.76998" lon="1.54264">
        <ele>1208.6</ele>
        <time>2021-09-19T07:43:57Z</time>
      </trkpt>
      <trkpt lat="42.77" lon="1.54263">
        <ele>1209.8</ele>
        <time>2021-09-19T07:44:00Z</time>
      </trkpt>
      <trkpt lat="42.77001" lon="1.54261">
        <ele>1210.4</ele>
        <time>2021-09-19T07:44:03Z</time>
      </trkpt>
      <trkpt lat="42.77002" lon="1.5426">
        <ele>1210.8</ele>
        <time>2021-09-19T07:44:05Z</time>
      </trkpt>
      <trkpt lat="42.77003" lon="1.54258">
        <ele>1211.2</ele>
        <time>2021-09-19T07:44:07Z</time>
      </trkpt>
      <trkpt lat="42.77003" lon="1.54256">
        <ele>1211.6</ele>
        <time>2021-09-19T07:44:10Z</time>
      </trkpt>
      <trkpt lat="42.77003" lon="1.54256">
        <ele>1211.6</ele>
        <time>2021-09-19T07:44:11Z</time>
      </trkpt>
      <trkpt lat="42.77003" lon="1.54255">
        <ele>1211.8</ele>
        <time>2021-09-19T07:44:12Z</time>
      </trkpt>
      <trkpt lat="42.77003" lon="1.54255">
        <ele>1212</ele>
        <time>2021-09-19T07:44:13Z</time>
      </trkpt>
      <trkpt lat="42.77004" lon="1.54254">
        <ele>1212.2</ele>
        <time>2021-09-19T07:44:15Z</time>
      </trkpt>
      <trkpt lat="42.77004" lon="1.54254">
        <ele>1212.4</ele>
        <time>2021-09-19T07:44:17Z</time>
      </trkpt>
      <trkpt lat="42.77005" lon="1.54252">
        <ele>1212.8</ele>
        <time>2021-09-19T07:44:20Z</time>
      </trkpt>
      <trkpt lat="42.77005" lon="1.54251">
        <ele>1213</ele>
        <time>2021-09-19T07:44:21Z</time>
      </trkpt>
      <trkpt lat="42.77005" lon="1.54251">
        <ele>1213.2</ele>
        <time>2021-09-19T07:44:22Z</time>
      </trkpt>
      <trkpt lat="42.77006" lon="1.5425">
        <ele>1213.4</ele>
        <time>2021-09-19T07:44:24Z</time>
      </trkpt>
      <trkpt lat="42.77007" lon="1.54248">
        <ele>1214</ele>
        <time>2021-09-19T07:44:28Z</time>
      </trkpt>
      <trkpt lat="42.77009" lon="1.54245">
        <ele>1214.6</ele>
        <time>2021-09-19T07:44:31Z</time>
      </trkpt>
      <trkpt lat="42.77009" lon="1.54244">
        <ele>1214.8</ele>
        <time>2021-09-19T07:44:32Z</time>
      </trkpt>
      <trkpt lat="42.7701" lon="1.54243">
        <ele>1215</ele>
        <time>2021-09-19T07:44:33Z</time>
      </trkpt>
      <trkpt lat="42.77012" lon="1.5424">
        <ele>1215.8</ele>
        <time>2021-09-19T07:44:37Z</time>
      </trkpt>
      <trkpt lat="42.77012" lon="1.54239">
        <ele>1216</ele>
        <time>2021-09-19T07:44:38Z</time>
      </trkpt>
      <trkpt lat="42.77013" lon="1.54238">
        <ele>1216.2</ele>
        <time>2021-09-19T07:44:39Z</time>
      </trkpt>
      <trkpt lat="42.77014" lon="1.54238">
        <ele>1216.4</ele>
        <time>2021-09-19T07:44:40Z</time>
      </trkpt>
      <trkpt lat="42.77015" lon="1.54236">
        <ele>1217</ele>
        <time>2021-09-19T07:44:42Z</time>
      </trkpt>
      <trkpt lat="42.77016" lon="1.54235">
        <ele>1217.4</ele>
        <time>2021-09-19T07:44:44Z</time>
      </trkpt>
      <trkpt lat="42.77017" lon="1.54234">
        <ele>1217.6</ele>
        <time>2021-09-19T07:44:46Z</time>
      </trkpt>
      <trkpt lat="42.77018" lon="1.54232">
        <ele>1218</ele>
        <time>2021-09-19T07:44:50Z</time>
      </trkpt>
      <trkpt lat="42.77019" lon="1.54233">
        <ele>1218.6</ele>
        <time>2021-09-19T07:44:54Z</time>
      </trkpt>
      <trkpt lat="42.77019" lon="1.5423">
        <ele>1219.2</ele>
        <time>2021-09-19T07:44:59Z</time>
      </trkpt>
      <trkpt lat="42.77019" lon="1.54229">
        <ele>1219.6</ele>
        <time>2021-09-19T07:45:01Z</time>
      </trkpt>
      <trkpt lat="42.77019" lon="1.54228">
        <ele>1219.8</ele>
        <time>2021-09-19T07:45:02Z</time>
      </trkpt>
      <trkpt lat="42.77019" lon="1.54227">
        <ele>1220</ele>
        <time>2021-09-19T07:45:03Z</time>
      </trkpt>
      <trkpt lat="42.77019" lon="1.54226">
        <ele>1220</ele>
        <time>2021-09-19T07:45:04Z</time>
      </trkpt>
      <trkpt lat="42.77019" lon="1.54225">
        <ele>1220.2</ele>
        <time>2021-09-19T07:45:06Z</time>
      </trkpt>
      <trkpt lat="42.77022" lon="1.54223">
        <ele>1220.8</ele>
        <time>2021-09-19T07:45:11Z</time>
      </trkpt>
      <trkpt lat="42.77022" lon="1.54223">
        <ele>1221</ele>
        <time>2021-09-19T07:45:13Z</time>
      </trkpt>
      <trkpt lat="42.77024" lon="1.54219">
        <ele>1221.6</ele>
        <time>2021-09-19T07:45:20Z</time>
      </trkpt>
      <trkpt lat="42.77027" lon="1.54217">
        <ele>1222.2</ele>
        <time>2021-09-19T07:45:23Z</time>
      </trkpt>
      <trkpt lat="42.7703" lon="1.54216">
        <ele>1222.8</ele>
        <time>2021-09-19T07:45:27Z</time>
      </trkpt>
      <trkpt lat="42.77031" lon="1.54215">
        <ele>1223.6</ele>
        <time>2021-09-19T07:45:29Z</time>
      </trkpt>
      <trkpt lat="42.77034" lon="1.54213">
        <ele>1224</ele>
        <time>2021-09-19T07:45:32Z</time>
      </trkpt>
      <trkpt lat="42.77036" lon="1.54212">
        <ele>1224.4</ele>
        <time>2021-09-19T07:45:34Z</time>
      </trkpt>
      <trkpt lat="42.77037" lon="1.54212">
        <ele>1224.6</ele>
        <time>2021-09-19T07:45:35Z</time>
      </trkpt>
      <trkpt lat="42.77045" lon="1.54208">
        <ele>1224.8</ele>
        <time>2021-09-19T07:45:43Z</time>
      </trkpt>
      <trkpt lat="42.77049" lon="1.54207">
        <ele>1225</ele>
        <time>2021-09-19T07:45:47Z</time>
      </trkpt>
      <trkpt lat="42.77051" lon="1.54207">
        <ele>1225.6</ele>
        <time>2021-09-19T07:45:50Z</time>
      </trkpt>
      <trkpt lat="42.77052" lon="1.54207">
        <ele>1225.8</ele>
        <time>2021-09-19T07:45:51Z</time>
      </trkpt>
      <trkpt lat="42.77054" lon="1.54208">
        <ele>1226</ele>
        <time>2021-09-19T07:45:52Z</time>
      </trkpt>
      <trkpt lat="42.77056" lon="1.54208">
        <ele>1226.2</ele>
        <time>2021-09-19T07:45:56Z</time>
      </trkpt>
      <trkpt lat="42.77058" lon="1.54207">
        <ele>1226.8</ele>
        <time>2021-09-19T07:45:59Z</time>
      </trkpt>
      <trkpt lat="42.77059" lon="1.54205">
        <ele>1227.2</ele>
        <time>2021-09-19T07:46:01Z</time>
      </trkpt>
      <trkpt lat="42.77063" lon="1.54205">
        <ele>1227.8</ele>
        <time>2021-09-19T07:46:04Z</time>
      </trkpt>
      <trkpt lat="42.77064" lon="1.54205">
        <ele>1228</ele>
        <time>2021-09-19T07:46:05Z</time>
      </trkpt>
      <trkpt lat="42.77066" lon="1.54203">
        <ele>1229</ele>
        <time>2021-09-19T07:46:10Z</time>
      </trkpt>
      <trkpt lat="42.77069" lon="1.54201">
        <ele>1229.4</ele>
        <time>2021-09-19T07:46:13Z</time>
      </trkpt>
      <trkpt lat="42.7707" lon="1.542">
        <ele>1229.8</ele>
        <time>2021-09-19T07:46:15Z</time>
      </trkpt>
      <trkpt lat="42.77071" lon="1.542">
        <ele>1230</ele>
        <time>2021-09-19T07:46:17Z</time>
      </trkpt>
      <trkpt lat="42.77071" lon="1.542">
        <ele>1230</ele>
        <time>2021-09-19T07:46:18Z</time>
      </trkpt>
      <trkpt lat="42.77073" lon="1.542">
        <ele>1230.2</ele>
        <time>2021-09-19T07:46:21Z</time>
      </trkpt>
      <trkpt lat="42.77075" lon="1.54197">
        <ele>1231</ele>
        <time>2021-09-19T07:46:26Z</time>
      </trkpt>
      <trkpt lat="42.77075" lon="1.54196">
        <ele>1231.2</ele>
        <time>2021-09-19T07:46:28Z</time>
      </trkpt>
      <trkpt lat="42.77078" lon="1.54193">
        <ele>1232.2</ele>
        <time>2021-09-19T07:46:32Z</time>
      </trkpt>
      <trkpt lat="42.7708" lon="1.54191">
        <ele>1232.4</ele>
        <time>2021-09-19T07:46:35Z</time>
      </trkpt>
      <trkpt lat="42.77083" lon="1.54183">
        <ele>1233.2</ele>
        <time>2021-09-19T07:46:42Z</time>
      </trkpt>
      <trkpt lat="42.77083" lon="1.54182">
        <ele>1233.4</ele>
        <time>2021-09-19T07:46:43Z</time>
      </trkpt>
      <trkpt lat="42.77085" lon="1.5418">
        <ele>1234.2</ele>
        <time>2021-09-19T07:46:47Z</time>
      </trkpt>
      <trkpt lat="42.77086" lon="1.54179">
        <ele>1234.4</ele>
        <time>2021-09-19T07:46:49Z</time>
      </trkpt>
      <trkpt lat="42.77088" lon="1.54178">
        <ele>1235</ele>
        <time>2021-09-19T07:46:53Z</time>
      </trkpt>
      <trkpt lat="42.77089" lon="1.54178">
        <ele>1235.4</ele>
        <time>2021-09-19T07:46:55Z</time>
      </trkpt>
      <trkpt lat="42.77092" lon="1.54179">
        <ele>1235.8</ele>
        <time>2021-09-19T07:46:59Z</time>
      </trkpt>
      <trkpt lat="42.77094" lon="1.54179">
        <ele>1236.4</ele>
        <time>2021-09-19T07:47:01Z</time>
      </trkpt>
      <trkpt lat="42.77097" lon="1.54178">
        <ele>1237.4</ele>
        <time>2021-09-19T07:47:07Z</time>
      </trkpt>
      <trkpt lat="42.77097" lon="1.54179">
        <ele>1237.8</ele>
        <time>2021-09-19T07:47:08Z</time>
      </trkpt>
      <trkpt lat="42.77099" lon="1.54178">
        <ele>1238.4</ele>
        <time>2021-09-19T07:47:12Z</time>
      </trkpt>
      <trkpt lat="42.77101" lon="1.54179">
        <ele>1239.2</ele>
        <time>2021-09-19T07:47:16Z</time>
      </trkpt>
      <trkpt lat="42.77102" lon="1.54179">
        <ele>1239.6</ele>
        <time>2021-09-19T07:47:18Z</time>
      </trkpt>
      <trkpt lat="42.77105" lon="1.54179">
        <ele>1240.4</ele>
        <time>2021-09-19T07:47:22Z</time>
      </trkpt>
      <trkpt lat="42.77106" lon="1.54178">
        <ele>1240.6</ele>
        <time>2021-09-19T07:47:23Z</time>
      </trkpt>
      <trkpt lat="42.77108" lon="1.54177">
        <ele>1241.6</ele>
        <time>2021-09-19T07:47:29Z</time>
      </trkpt>
      <trkpt lat="42.77112" lon="1.54181">
        <ele>1242.2</ele>
        <time>2021-09-19T07:47:36Z</time>
      </trkpt>
      <trkpt lat="42.77115" lon="1.54183">
        <ele>1242.8</ele>
        <time>2021-09-19T07:47:41Z</time>
      </trkpt>
      <trkpt lat="42.77117" lon="1.54184">
        <ele>1243.2</ele>
        <time>2021-09-19T07:47:45Z</time>
      </trkpt>
      <trkpt lat="42.77122" lon="1.54186">
        <ele>1243.8</ele>
        <time>2021-09-19T07:47:50Z</time>
      </trkpt>
      <trkpt lat="42.77124" lon="1.54185">
        <ele>1243.8</ele>
        <time>2021-09-19T07:47:52Z</time>
      </trkpt>
      <trkpt lat="42.77125" lon="1.54186">
        <ele>1244</ele>
        <time>2021-09-19T07:47:54Z</time>
      </trkpt>
      <trkpt lat="42.77128" lon="1.54187">
        <ele>1244.2</ele>
        <time>2021-09-19T07:47:58Z</time>
      </trkpt>
      <trkpt lat="42.77129" lon="1.54187">
        <ele>1244.4</ele>
        <time>2021-09-19T07:48:00Z</time>
      </trkpt>
      <trkpt lat="42.77129" lon="1.54187">
        <ele>1244.4</ele>
        <time>2021-09-19T07:48:01Z</time>
      </trkpt>
      <trkpt lat="42.77131" lon="1.54186">
        <ele>1244.8</ele>
        <time>2021-09-19T07:48:03Z</time>
      </trkpt>
      <trkpt lat="42.77133" lon="1.54185">
        <ele>1245.8</ele>
        <time>2021-09-19T07:48:10Z</time>
      </trkpt>
      <trkpt lat="42.77133" lon="1.54185">
        <ele>1246.2</ele>
        <time>2021-09-19T07:48:11Z</time>
      </trkpt>
      <trkpt lat="42.77136" lon="1.54184">
        <ele>1247.2</ele>
        <time>2021-09-19T07:48:17Z</time>
      </trkpt>
      <trkpt lat="42.77136" lon="1.54183">
        <ele>1247.4</ele>
        <time>2021-09-19T07:48:18Z</time>
      </trkpt>
      <trkpt lat="42.77138" lon="1.54179">
        <ele>1248.2</ele>
        <time>2021-09-19T07:48:25Z</time>
      </trkpt>
      <trkpt lat="42.77139" lon="1.54179">
        <ele>1248.4</ele>
        <time>2021-09-19T07:48:27Z</time>
      </trkpt>
      <trkpt lat="42.7714" lon="1.54174">
        <ele>1248.8</ele>
        <time>2021-09-19T07:48:35Z</time>
      </trkpt>
      <trkpt lat="42.7714" lon="1.54173">
        <ele>1249.2</ele>
        <time>2021-09-19T07:48:37Z</time>
      </trkpt>
      <trkpt lat="42.77142" lon="1.54173">
        <ele>1249.2</ele>
        <time>2021-09-19T07:48:41Z</time>
      </trkpt>
      <trkpt lat="42.77144" lon="1.54173">
        <ele>1250</ele>
        <time>2021-09-19T07:48:45Z</time>
      </trkpt>
      <trkpt lat="42.77148" lon="1.54173">
        <ele>1250.2</ele>
        <time>2021-09-19T07:48:50Z</time>
      </trkpt>
      <trkpt lat="42.77152" lon="1.54173">
        <ele>1251</ele>
        <time>2021-09-19T07:48:53Z</time>
      </trkpt>
      <trkpt lat="42.77153" lon="1.54173">
        <ele>1251.2</ele>
        <time>2021-09-19T07:48:54Z</time>
      </trkpt>
      <trkpt lat="42.77153" lon="1.54173">
        <ele>1251.4</ele>
        <time>2021-09-19T07:48:55Z</time>
      </trkpt>
      <trkpt lat="42.77158" lon="1.5417">
        <ele>1252.6</ele>
        <time>2021-09-19T07:49:02Z</time>
      </trkpt>
      <trkpt lat="42.77158" lon="1.54169">
        <ele>1252.6</ele>
        <time>2021-09-19T07:49:03Z</time>
      </trkpt>
      <trkpt lat="42.77161" lon="1.54168">
        <ele>1253.6</ele>
        <time>2021-09-19T07:49:07Z</time>
      </trkpt>
      <trkpt lat="42.77163" lon="1.54168">
        <ele>1253.8</ele>
        <time>2021-09-19T07:49:10Z</time>
      </trkpt>
      <trkpt lat="42.77164" lon="1.54167">
        <ele>1254</ele>
        <time>2021-09-19T07:49:11Z</time>
      </trkpt>
      <trkpt lat="42.77165" lon="1.54167">
        <ele>1254</ele>
        <time>2021-09-19T07:49:12Z</time>
      </trkpt>
      <trkpt lat="42.77168" lon="1.54167">
        <ele>1254.6</ele>
        <time>2021-09-19T07:49:15Z</time>
      </trkpt>
      <trkpt lat="42.77174" lon="1.54164">
        <ele>1255.4</ele>
        <time>2021-09-19T07:49:22Z</time>
      </trkpt>
      <trkpt lat="42.77176" lon="1.54163">
        <ele>1256</ele>
        <time>2021-09-19T07:49:25Z</time>
      </trkpt>
      <trkpt lat="42.77179" lon="1.54161">
        <ele>1256.6</ele>
        <time>2021-09-19T07:49:29Z</time>
      </trkpt>
      <trkpt lat="42.77179" lon="1.5416">
        <ele>1256.8</ele>
        <time>2021-09-19T07:49:30Z</time>
      </trkpt>
      <trkpt lat="42.7718" lon="1.54159">
        <ele>1257</ele>
        <time>2021-09-19T07:49:32Z</time>
      </trkpt>
      <trkpt lat="42.77181" lon="1.54157">
        <ele>1257.2</ele>
        <time>2021-09-19T07:49:35Z</time>
      </trkpt>
      <trkpt lat="42.77182" lon="1.54156">
        <ele>1257.4</ele>
        <time>2021-09-19T07:49:38Z</time>
      </trkpt>
      <trkpt lat="42.77188" lon="1.54158">
        <ele>1258</ele>
        <time>2021-09-19T07:49:44Z</time>
      </trkpt>
      <trkpt lat="42.77189" lon="1.54159">
        <ele>1258</ele>
        <time>2021-09-19T07:49:45Z</time>
      </trkpt>
      <trkpt lat="42.77195" lon="1.54162">
        <ele>1259</ele>
        <time>2021-09-19T07:49:53Z</time>
      </trkpt>
      <trkpt lat="42.77197" lon="1.54162">
        <ele>1259.4</ele>
        <time>2021-09-19T07:49:56Z</time>
      </trkpt>
      <trkpt lat="42.77203" lon="1.54163">
        <ele>1260</ele>
        <time>2021-09-19T07:50:01Z</time>
      </trkpt>
      <trkpt lat="42.77204" lon="1.54163">
        <ele>1260</ele>
        <time>2021-09-19T07:50:02Z</time>
      </trkpt>
      <trkpt lat="42.77208" lon="1.54164">
        <ele>1260.8</ele>
        <time>2021-09-19T07:50:08Z</time>
      </trkpt>
      <trkpt lat="42.77209" lon="1.54163">
        <ele>1261.2</ele>
        <time>2021-09-19T07:50:10Z</time>
      </trkpt>
      <trkpt lat="42.77213" lon="1.54163">
        <ele>1261.8</ele>
        <time>2021-09-19T07:50:15Z</time>
      </trkpt>
      <trkpt lat="42.77217" lon="1.54164">
        <ele>1262.4</ele>
        <time>2021-09-19T07:50:19Z</time>
      </trkpt>
      <trkpt lat="42.77217" lon="1.54164">
        <ele>1262.4</ele>
        <time>2021-09-19T07:50:20Z</time>
      </trkpt>
      <trkpt lat="42.7722" lon="1.54165">
        <ele>1263.6</ele>
        <time>2021-09-19T07:50:28Z</time>
      </trkpt>
      <trkpt lat="42.77223" lon="1.54166">
        <ele>1264.2</ele>
        <time>2021-09-19T07:50:32Z</time>
      </trkpt>
      <trkpt lat="42.77225" lon="1.54166">
        <ele>1264.6</ele>
        <time>2021-09-19T07:50:34Z</time>
      </trkpt>
      <trkpt lat="42.77226" lon="1.54166">
        <ele>1264.6</ele>
        <time>2021-09-19T07:50:35Z</time>
      </trkpt>
      <trkpt lat="42.77228" lon="1.54165">
        <ele>1264.8</ele>
        <time>2021-09-19T07:50:37Z</time>
      </trkpt>
      <trkpt lat="42.77232" lon="1.54166">
        <ele>1265.6</ele>
        <time>2021-09-19T07:50:42Z</time>
      </trkpt>
      <trkpt lat="42.77233" lon="1.54166">
        <ele>1265.6</ele>
        <time>2021-09-19T07:50:43Z</time>
      </trkpt>
      <trkpt lat="42.77234" lon="1.54167">
        <ele>1265.6</ele>
        <time>2021-09-19T07:50:44Z</time>
      </trkpt>
      <trkpt lat="42.77236" lon="1.54168">
        <ele>1265.8</ele>
        <time>2021-09-19T07:50:45Z</time>
      </trkpt>
      <trkpt lat="42.77238" lon="1.54169">
        <ele>1266</ele>
        <time>2021-09-19T07:50:47Z</time>
      </trkpt>
      <trkpt lat="42.77238" lon="1.54169">
        <ele>1266.2</ele>
        <time>2021-09-19T07:50:48Z</time>
      </trkpt>
      <trkpt lat="42.77239" lon="1.5417">
        <ele>1266.2</ele>
        <time>2021-09-19T07:50:49Z</time>
      </trkpt>
      <trkpt lat="42.77242" lon="1.54171">
        <ele>1266.4</ele>
        <time>2021-09-19T07:50:52Z</time>
      </trkpt>
      <trkpt lat="42.77244" lon="1.54173">
        <ele>1266.6</ele>
        <time>2021-09-19T07:50:54Z</time>
      </trkpt>
      <trkpt lat="42.77245" lon="1.54174">
        <ele>1266.8</ele>
        <time>2021-09-19T07:50:56Z</time>
      </trkpt>
      <trkpt lat="42.77246" lon="1.54175">
        <ele>1268</ele>
        <time>2021-09-19T07:50:59Z</time>
      </trkpt>
      <trkpt lat="42.77246" lon="1.54175">
        <ele>1268.2</ele>
        <time>2021-09-19T07:51:00Z</time>
      </trkpt>
      <trkpt lat="42.77246" lon="1.54175">
        <ele>1268.4</ele>
        <time>2021-09-19T07:51:01Z</time>
      </trkpt>
      <trkpt lat="42.77246" lon="1.54174">
        <ele>1268.4</ele>
        <time>2021-09-19T07:51:02Z</time>
      </trkpt>
      <trkpt lat="42.77248" lon="1.54172">
        <ele>1268.8</ele>
        <time>2021-09-19T07:51:05Z</time>
      </trkpt>
      <trkpt lat="42.77249" lon="1.54172">
        <ele>1269</ele>
        <time>2021-09-19T07:51:06Z</time>
      </trkpt>
      <trkpt lat="42.7725" lon="1.54171">
        <ele>1269.4</ele>
        <time>2021-09-19T07:51:08Z</time>
      </trkpt>
      <trkpt lat="42.77254" lon="1.54171">
        <ele>1270.2</ele>
        <time>2021-09-19T07:51:14Z</time>
      </trkpt>
      <trkpt lat="42.77255" lon="1.5417">
        <ele>1270.8</ele>
        <time>2021-09-19T07:51:16Z</time>
      </trkpt>
      <trkpt lat="42.77256" lon="1.5417">
        <ele>1271.2</ele>
        <time>2021-09-19T07:51:17Z</time>
      </trkpt>
      <trkpt lat="42.77257" lon="1.5417">
        <ele>1271.4</ele>
        <time>2021-09-19T07:51:18Z</time>
      </trkpt>
      <trkpt lat="42.77258" lon="1.54169">
        <ele>1271.6</ele>
        <time>2021-09-19T07:51:19Z</time>
      </trkpt>
      <trkpt lat="42.77259" lon="1.54169">
        <ele>1272</ele>
        <time>2021-09-19T07:51:21Z</time>
      </trkpt>
      <trkpt lat="42.7726" lon="1.54169">
        <ele>1272.6</ele>
        <time>2021-09-19T07:51:22Z</time>
      </trkpt>
      <trkpt lat="42.77264" lon="1.54168">
        <ele>1273</ele>
        <time>2021-09-19T07:51:25Z</time>
      </trkpt>
      <trkpt lat="42.77265" lon="1.54168">
        <ele>1273</ele>
        <time>2021-09-19T07:51:26Z</time>
      </trkpt>
      <trkpt lat="42.77268" lon="1.54167">
        <ele>1272.6</ele>
        <time>2021-09-19T07:51:29Z</time>
      </trkpt>
      <trkpt lat="42.77269" lon="1.54166">
        <ele>1272.8</ele>
        <time>2021-09-19T07:51:31Z</time>
      </trkpt>
      <trkpt lat="42.77273" lon="1.54164">
        <ele>1273.2</ele>
        <time>2021-09-19T07:51:37Z</time>
      </trkpt>
      <trkpt lat="42.77273" lon="1.54164">
        <ele>1273.2</ele>
        <time>2021-09-19T07:51:38Z</time>
      </trkpt>
      <trkpt lat="42.77274" lon="1.54165">
        <ele>1273.6</ele>
        <time>2021-09-19T07:51:40Z</time>
      </trkpt>
      <trkpt lat="42.77279" lon="1.54167">
        <ele>1274</ele>
        <time>2021-09-19T07:51:46Z</time>
      </trkpt>
      <trkpt lat="42.7728" lon="1.54169">
        <ele>1274.8</ele>
        <time>2021-09-19T07:51:49Z</time>
      </trkpt>
      <trkpt lat="42.77282" lon="1.54171">
        <ele>1275.4</ele>
        <time>2021-09-19T07:51:52Z</time>
      </trkpt>
      <trkpt lat="42.77284" lon="1.54172">
        <ele>1275.6</ele>
        <time>2021-09-19T07:51:54Z</time>
      </trkpt>
      <trkpt lat="42.77285" lon="1.54171">
        <ele>1275.6</ele>
        <time>2021-09-19T07:51:55Z</time>
      </trkpt>
      <trkpt lat="42.77286" lon="1.54171">
        <ele>1275.8</ele>
        <time>2021-09-19T07:51:56Z</time>
      </trkpt>
      <trkpt lat="42.77289" lon="1.54173">
        <ele>1276.4</ele>
        <time>2021-09-19T07:52:01Z</time>
      </trkpt>
      <trkpt lat="42.77292" lon="1.54175">
        <ele>1276.8</ele>
        <time>2021-09-19T07:52:06Z</time>
      </trkpt>
      <trkpt lat="42.77293" lon="1.54178">
        <ele>1277.2</ele>
        <time>2021-09-19T07:52:09Z</time>
      </trkpt>
      <trkpt lat="42.77294" lon="1.54183">
        <ele>1277.8</ele>
        <time>2021-09-19T07:52:14Z</time>
      </trkpt>
      <trkpt lat="42.77298" lon="1.54187">
        <ele>1278.6</ele>
        <time>2021-09-19T07:52:19Z</time>
      </trkpt>
      <trkpt lat="42.77301" lon="1.54188">
        <ele>1278.8</ele>
        <time>2021-09-19T07:52:23Z</time>
      </trkpt>
      <trkpt lat="42.77302" lon="1.5419">
        <ele>1279</ele>
        <time>2021-09-19T07:52:25Z</time>
      </trkpt>
      <trkpt lat="42.77302" lon="1.54191">
        <ele>1279.4</ele>
        <time>2021-09-19T07:52:27Z</time>
      </trkpt>
      <trkpt lat="42.77302" lon="1.54192">
        <ele>1279.6</ele>
        <time>2021-09-19T07:52:28Z</time>
      </trkpt>
      <trkpt lat="42.77302" lon="1.54192">
        <ele>1279.8</ele>
        <time>2021-09-19T07:52:29Z</time>
      </trkpt>
      <trkpt lat="42.77302" lon="1.54193">
        <ele>1279.8</ele>
        <time>2021-09-19T07:52:31Z</time>
      </trkpt>
      <trkpt lat="42.77303" lon="1.54193">
        <ele>1280</ele>
        <time>2021-09-19T07:52:32Z</time>
      </trkpt>
      <trkpt lat="42.77303" lon="1.54193">
        <ele>1280.2</ele>
        <time>2021-09-19T07:52:34Z</time>
      </trkpt>
      <trkpt lat="42.77304" lon="1.54193">
        <ele>1280.4</ele>
        <time>2021-09-19T07:52:35Z</time>
      </trkpt>
      <trkpt lat="42.77305" lon="1.54194">
        <ele>1281</ele>
        <time>2021-09-19T07:52:37Z</time>
      </trkpt>
      <trkpt lat="42.77308" lon="1.54193">
        <ele>1281.6</ele>
        <time>2021-09-19T07:52:41Z</time>
      </trkpt>
      <trkpt lat="42.77309" lon="1.54193">
        <ele>1281.8</ele>
        <time>2021-09-19T07:52:43Z</time>
      </trkpt>
      <trkpt lat="42.7731" lon="1.54193">
        <ele>1281.8</ele>
        <time>2021-09-19T07:52:44Z</time>
      </trkpt>
      <trkpt lat="42.77311" lon="1.54193">
        <ele>1282</ele>
        <time>2021-09-19T07:52:46Z</time>
      </trkpt>
      <trkpt lat="42.77311" lon="1.54192">
        <ele>1282.2</ele>
        <time>2021-09-19T07:52:47Z</time>
      </trkpt>
      <trkpt lat="42.77312" lon="1.54192">
        <ele>1282.2</ele>
        <time>2021-09-19T07:52:48Z</time>
      </trkpt>
      <trkpt lat="42.77314" lon="1.54189">
        <ele>1282.6</ele>
        <time>2021-09-19T07:52:52Z</time>
      </trkpt>
      <trkpt lat="42.77315" lon="1.54185">
        <ele>1283</ele>
        <time>2021-09-19T07:52:55Z</time>
      </trkpt>
      <trkpt lat="42.77318" lon="1.54183">
        <ele>1283.4</ele>
        <time>2021-09-19T07:52:59Z</time>
      </trkpt>
      <trkpt lat="42.77319" lon="1.54182">
        <ele>1283.4</ele>
        <time>2021-09-19T07:53:01Z</time>
      </trkpt>
      <trkpt lat="42.77321" lon="1.54181">
        <ele>1283.4</ele>
        <time>2021-09-19T07:53:03Z</time>
      </trkpt>
      <trkpt lat="42.77325" lon="1.54181">
        <ele>1284</ele>
        <time>2021-09-19T07:53:07Z</time>
      </trkpt>
      <trkpt lat="42.77326" lon="1.54181">
        <ele>1284</ele>
        <time>2021-09-19T07:53:08Z</time>
      </trkpt>
      <trkpt lat="42.77328" lon="1.54182">
        <ele>1284.4</ele>
        <time>2021-09-19T07:53:11Z</time>
      </trkpt>
      <trkpt lat="42.77329" lon="1.54182">
        <ele>1284.4</ele>
        <time>2021-09-19T07:53:12Z</time>
      </trkpt>
      <trkpt lat="42.7733" lon="1.54183">
        <ele>1284.8</ele>
        <time>2021-09-19T07:53:14Z</time>
      </trkpt>
      <trkpt lat="42.77331" lon="1.54184">
        <ele>1284.8</ele>
        <time>2021-09-19T07:53:15Z</time>
      </trkpt>
      <trkpt lat="42.77332" lon="1.54187">
        <ele>1285.2</ele>
        <time>2021-09-19T07:53:17Z</time>
      </trkpt>
      <trkpt lat="42.77332" lon="1.54194">
        <ele>1286</ele>
        <time>2021-09-19T07:53:23Z</time>
      </trkpt>
      <trkpt lat="42.77332" lon="1.54196">
        <ele>1286.2</ele>
        <time>2021-09-19T07:53:25Z</time>
      </trkpt>
      <trkpt lat="42.77333" lon="1.54201">
        <ele>1287</ele>
        <time>2021-09-19T07:53:32Z</time>
      </trkpt>
      <trkpt lat="42.77331" lon="1.54202">
        <ele>1287.2</ele>
        <time>2021-09-19T07:53:38Z</time>
      </trkpt>
      <trkpt lat="42.77331" lon="1.54203">
        <ele>1287.4</ele>
        <time>2021-09-19T07:53:39Z</time>
      </trkpt>
      <trkpt lat="42.77331" lon="1.54203">
        <ele>1287.6</ele>
        <time>2021-09-19T07:53:40Z</time>
      </trkpt>
      <trkpt lat="42.77331" lon="1.54203">
        <ele>1287.8</ele>
        <time>2021-09-19T07:53:41Z</time>
      </trkpt>
      <trkpt lat="42.77331" lon="1.54204">
        <ele>1288</ele>
        <time>2021-09-19T07:53:43Z</time>
      </trkpt>
      <trkpt lat="42.77331" lon="1.54205">
        <ele>1288.2</ele>
        <time>2021-09-19T07:53:44Z</time>
      </trkpt>
      <trkpt lat="42.77331" lon="1.54204">
        <ele>1288.4</ele>
        <time>2021-09-19T07:53:47Z</time>
      </trkpt>
      <trkpt lat="42.7733" lon="1.54203">
        <ele>1288.6</ele>
        <time>2021-09-19T07:53:51Z</time>
      </trkpt>
      <trkpt lat="42.77328" lon="1.5421">
        <ele>1288.8</ele>
        <time>2021-09-19T07:53:59Z</time>
      </trkpt>
      <trkpt lat="42.77328" lon="1.54208">
        <ele>1289.4</ele>
        <time>2021-09-19T07:54:03Z</time>
      </trkpt>
      <trkpt lat="42.77329" lon="1.54206">
        <ele>1289.4</ele>
        <time>2021-09-19T07:54:05Z</time>
      </trkpt>
      <trkpt lat="42.77329" lon="1.54198">
        <ele>1288.2</ele>
        <time>2021-09-19T07:54:11Z</time>
      </trkpt>
      <trkpt lat="42.77329" lon="1.54193">
        <ele>1290.2</ele>
        <time>2021-09-19T07:54:14Z</time>
      </trkpt>
      <trkpt lat="42.77328" lon="1.5419">
        <ele>1288.4</ele>
        <time>2021-09-19T07:54:18Z</time>
      </trkpt>
      <trkpt lat="42.77328" lon="1.5419">
        <ele>1287.2</ele>
        <time>2021-09-19T07:54:19Z</time>
      </trkpt>
      <trkpt lat="42.77329" lon="1.5419">
        <ele>1286.2</ele>
        <time>2021-09-19T07:54:21Z</time>
      </trkpt>
      <trkpt lat="42.77329" lon="1.54187">
        <ele>1285.2</ele>
        <time>2021-09-19T07:54:30Z</time>
      </trkpt>
      <trkpt lat="42.77329" lon="1.54186">
        <ele>1285.2</ele>
        <time>2021-09-19T07:54:31Z</time>
      </trkpt>
      <trkpt lat="42.77329" lon="1.54182">
        <ele>1284.8</ele>
        <time>2021-09-19T07:54:35Z</time>
      </trkpt>
      <trkpt lat="42.77328" lon="1.54179">
        <ele>1284.2</ele>
        <time>2021-09-19T07:54:38Z</time>
      </trkpt>
      <trkpt lat="42.77328" lon="1.54179">
        <ele>1284.2</ele>
        <time>2021-09-19T07:54:39Z</time>
      </trkpt>
      <trkpt lat="42.77324" lon="1.54175">
        <ele>1283.6</ele>
        <time>2021-09-19T07:54:46Z</time>
      </trkpt>
      <trkpt lat="42.7732" lon="1.54172">
        <ele>1283.2</ele>
        <time>2021-09-19T07:54:49Z</time>
      </trkpt>
      <trkpt lat="42.77319" lon="1.54172">
        <ele>1283.2</ele>
        <time>2021-09-19T07:54:50Z</time>
      </trkpt>
      <trkpt lat="42.77318" lon="1.54172">
        <ele>1282.8</ele>
        <time>2021-09-19T07:54:52Z</time>
      </trkpt>
      <trkpt lat="42.77317" lon="1.54173">
        <ele>1282.4</ele>
        <time>2021-09-19T07:54:55Z</time>
      </trkpt>
      <trkpt lat="42.77318" lon="1.5417">
        <ele>1282</ele>
        <time>2021-09-19T07:55:01Z</time>
      </trkpt>
      <trkpt lat="42.77319" lon="1.54169">
        <ele>1281.6</ele>
        <time>2021-09-19T07:55:05Z</time>
      </trkpt>
      <trkpt lat="42.77317" lon="1.54166">
        <ele>1281.4</ele>
        <time>2021-09-19T07:55:08Z</time>
      </trkpt>
      <trkpt lat="42.77313" lon="1.54161">
        <ele>1281.2</ele>
        <time>2021-09-19T07:55:14Z</time>
      </trkpt>
      <trkpt lat="42.77313" lon="1.54162">
        <ele>1281.2</ele>
        <time>2021-09-19T07:55:15Z</time>
      </trkpt>
      <trkpt lat="42.77313" lon="1.54162">
        <ele>1281</ele>
        <time>2021-09-19T07:55:17Z</time>
      </trkpt>
      <trkpt lat="42.77313" lon="1.54162">
        <ele>1281</ele>
        <time>2021-09-19T07:55:18Z</time>
      </trkpt>
      <trkpt lat="42.77311" lon="1.54158">
        <ele>1280.8</ele>
        <time>2021-09-19T07:55:23Z</time>
      </trkpt>
      <trkpt lat="42.7731" lon="1.54157">
        <ele>1280.8</ele>
        <time>2021-09-19T07:55:24Z</time>
      </trkpt>
      <trkpt lat="42.77307" lon="1.54156">
        <ele>1280.4</ele>
        <time>2021-09-19T07:55:34Z</time>
      </trkpt>
      <trkpt lat="42.77302" lon="1.54154">
        <ele>1280.4</ele>
        <time>2021-09-19T07:55:41Z</time>
      </trkpt>
      <trkpt lat="42.77298" lon="1.5415">
        <ele>1280</ele>
        <time>2021-09-19T07:55:47Z</time>
      </trkpt>
      <trkpt lat="42.77294" lon="1.54147">
        <ele>1280</ele>
        <time>2021-09-19T07:55:51Z</time>
      </trkpt>
      <trkpt lat="42.77292" lon="1.54146">
        <ele>1279.8</ele>
        <time>2021-09-19T07:55:53Z</time>
      </trkpt>
      <trkpt lat="42.77289" lon="1.5414">
        <ele>1279.8</ele>
        <time>2021-09-19T07:55:58Z</time>
      </trkpt>
      <trkpt lat="42.77288" lon="1.54139">
        <ele>1280</ele>
        <time>2021-09-19T07:55:59Z</time>
      </trkpt>
      <trkpt lat="42.77287" lon="1.54138">
        <ele>1280</ele>
        <time>2021-09-19T07:56:00Z</time>
      </trkpt>
      <trkpt lat="42.77286" lon="1.54137">
        <ele>1280.4</ele>
        <time>2021-09-19T07:56:02Z</time>
      </trkpt>
      <trkpt lat="42.77284" lon="1.54136">
        <ele>1280.6</ele>
        <time>2021-09-19T07:56:05Z</time>
      </trkpt>
      <trkpt lat="42.77283" lon="1.54134">
        <ele>1280.8</ele>
        <time>2021-09-19T07:56:07Z</time>
      </trkpt>
      <trkpt lat="42.77282" lon="1.54133">
        <ele>1281</ele>
        <time>2021-09-19T07:56:09Z</time>
      </trkpt>
      <trkpt lat="42.77281" lon="1.54132">
        <ele>1281</ele>
        <time>2021-09-19T07:56:11Z</time>
      </trkpt>
      <trkpt lat="42.77279" lon="1.5413">
        <ele>1281.4</ele>
        <time>2021-09-19T07:56:14Z</time>
      </trkpt>
      <trkpt lat="42.77277" lon="1.54129">
        <ele>1281.6</ele>
        <time>2021-09-19T07:56:16Z</time>
      </trkpt>
      <trkpt lat="42.77276" lon="1.54128">
        <ele>1281.8</ele>
        <time>2021-09-19T07:56:18Z</time>
      </trkpt>
      <trkpt lat="42.77275" lon="1.54128">
        <ele>1282.2</ele>
        <time>2021-09-19T07:56:19Z</time>
      </trkpt>
      <trkpt lat="42.77274" lon="1.54128">
        <ele>1282.2</ele>
        <time>2021-09-19T07:56:21Z</time>
      </trkpt>
      <trkpt lat="42.77273" lon="1.54127">
        <ele>1282.4</ele>
        <time>2021-09-19T07:56:23Z</time>
      </trkpt>
      <trkpt lat="42.7727" lon="1.54124">
        <ele>1283.2</ele>
        <time>2021-09-19T07:56:28Z</time>
      </trkpt>
      <trkpt lat="42.77269" lon="1.54124">
        <ele>1283.4</ele>
        <time>2021-09-19T07:56:29Z</time>
      </trkpt>
      <trkpt lat="42.77267" lon="1.54121">
        <ele>1284.4</ele>
        <time>2021-09-19T07:56:34Z</time>
      </trkpt>
      <trkpt lat="42.77265" lon="1.54119">
        <ele>1284.6</ele>
        <time>2021-09-19T07:56:37Z</time>
      </trkpt>
      <trkpt lat="42.77264" lon="1.54118">
        <ele>1285.2</ele>
        <time>2021-09-19T07:56:40Z</time>
      </trkpt>
      <trkpt lat="42.77263" lon="1.54118">
        <ele>1285.4</ele>
        <time>2021-09-19T07:56:42Z</time>
      </trkpt>
      <trkpt lat="42.77262" lon="1.54118">
        <ele>1285.8</ele>
        <time>2021-09-19T07:56:44Z</time>
      </trkpt>
      <trkpt lat="42.77261" lon="1.54117">
        <ele>1286.4</ele>
        <time>2021-09-19T07:56:48Z</time>
      </trkpt>
      <trkpt lat="42.7726" lon="1.54117">
        <ele>1286.8</ele>
        <time>2021-09-19T07:56:53Z</time>
      </trkpt>
      <trkpt lat="42.77261" lon="1.54115">
        <ele>1286.8</ele>
        <time>2021-09-19T07:57:03Z</time>
      </trkpt>
      <trkpt lat="42.77263" lon="1.54117">
        <ele>1286.8</ele>
        <time>2021-09-19T07:57:11Z</time>
      </trkpt>
      <trkpt lat="42.77263" lon="1.54116">
        <ele>1286.8</ele>
        <time>2021-09-19T07:57:13Z</time>
      </trkpt>
      <trkpt lat="42.77262" lon="1.54116">
        <ele>1286.8</ele>
        <time>2021-09-19T07:57:16Z</time>
      </trkpt>
      <trkpt lat="42.77259" lon="1.54116">
        <ele>1286.6</ele>
        <time>2021-09-19T07:57:20Z</time>
      </trkpt>
      <trkpt lat="42.77254" lon="1.54115">
        <ele>1287.6</ele>
        <time>2021-09-19T07:57:28Z</time>
      </trkpt>
      <trkpt lat="42.77252" lon="1.54115">
        <ele>1288.6</ele>
        <time>2021-09-19T07:57:31Z</time>
      </trkpt>
      <trkpt lat="42.77251" lon="1.54115">
        <ele>1288.8</ele>
        <time>2021-09-19T07:57:32Z</time>
      </trkpt>
      <trkpt lat="42.77247" lon="1.54113">
        <ele>1289.2</ele>
        <time>2021-09-19T07:57:36Z</time>
      </trkpt>
      <trkpt lat="42.77244" lon="1.5411">
        <ele>1289.6</ele>
        <time>2021-09-19T07:57:42Z</time>
      </trkpt>
      <trkpt lat="42.77244" lon="1.54109">
        <ele>1289.8</ele>
        <time>2021-09-19T07:57:44Z</time>
      </trkpt>
      <trkpt lat="42.7724" lon="1.54106">
        <ele>1290.4</ele>
        <time>2021-09-19T07:57:51Z</time>
      </trkpt>
      <trkpt lat="42.7724" lon="1.54106">
        <ele>1290.6</ele>
        <time>2021-09-19T07:57:52Z</time>
      </trkpt>
      <trkpt lat="42.77238" lon="1.54106">
        <ele>1290.6</ele>
        <time>2021-09-19T07:57:55Z</time>
      </trkpt>
      <trkpt lat="42.77236" lon="1.54106">
        <ele>1291</ele>
        <time>2021-09-19T07:57:58Z</time>
      </trkpt>
      <trkpt lat="42.77235" lon="1.54105">
        <ele>1291.2</ele>
        <time>2021-09-19T07:58:00Z</time>
      </trkpt>
      <trkpt lat="42.77227" lon="1.54098">
        <ele>1292</ele>
        <time>2021-09-19T07:58:08Z</time>
      </trkpt>
      <trkpt lat="42.77227" lon="1.54098">
        <ele>1292.2</ele>
        <time>2021-09-19T07:58:09Z</time>
      </trkpt>
      <trkpt lat="42.77224" lon="1.54096">
        <ele>1292.8</ele>
        <time>2021-09-19T07:58:14Z</time>
      </trkpt>
      <trkpt lat="42.77223" lon="1.54094">
        <ele>1293</ele>
        <time>2021-09-19T07:58:16Z</time>
      </trkpt>
      <trkpt lat="42.77222" lon="1.54094">
        <ele>1293</ele>
        <time>2021-09-19T07:58:17Z</time>
      </trkpt>
      <trkpt lat="42.77214" lon="1.54087">
        <ele>1294</ele>
        <time>2021-09-19T07:58:27Z</time>
      </trkpt>
      <trkpt lat="42.77213" lon="1.54086">
        <ele>1294</ele>
        <time>2021-09-19T07:58:29Z</time>
      </trkpt>
      <trkpt lat="42.77212" lon="1.54085">
        <ele>1294</ele>
        <time>2021-09-19T07:58:31Z</time>
      </trkpt>
      <trkpt lat="42.77208" lon="1.54083">
        <ele>1294.2</ele>
        <time>2021-09-19T07:58:35Z</time>
      </trkpt>
      <trkpt lat="42.77203" lon="1.54081">
        <ele>1294.4</ele>
        <time>2021-09-19T07:58:42Z</time>
      </trkpt>
      <trkpt lat="42.77201" lon="1.54078">
        <ele>1294.8</ele>
        <time>2021-09-19T07:58:45Z</time>
      </trkpt>
      <trkpt lat="42.77198" lon="1.54077">
        <ele>1295</ele>
        <time>2021-09-19T07:58:49Z</time>
      </trkpt>
      <trkpt lat="42.77197" lon="1.54077">
        <ele>1295.2</ele>
        <time>2021-09-19T07:58:51Z</time>
      </trkpt>
      <trkpt lat="42.77192" lon="1.54073">
        <ele>1295.6</ele>
        <time>2021-09-19T07:58:56Z</time>
      </trkpt>
      <trkpt lat="42.77192" lon="1.54072">
        <ele>1295.6</ele>
        <time>2021-09-19T07:58:58Z</time>
      </trkpt>
      <trkpt lat="42.7719" lon="1.54068">
        <ele>1296</ele>
        <time>2021-09-19T07:59:02Z</time>
      </trkpt>
      <trkpt lat="42.77189" lon="1.54068">
        <ele>1296.2</ele>
        <time>2021-09-19T07:59:03Z</time>
      </trkpt>
      <trkpt lat="42.77189" lon="1.54067">
        <ele>1296.4</ele>
        <time>2021-09-19T07:59:04Z</time>
      </trkpt>
      <trkpt lat="42.77185" lon="1.54064">
        <ele>1297.2</ele>
        <time>2021-09-19T07:59:12Z</time>
      </trkpt>
      <trkpt lat="42.77184" lon="1.54063">
        <ele>1297.2</ele>
        <time>2021-09-19T07:59:13Z</time>
      </trkpt>
      <trkpt lat="42.77179" lon="1.54059">
        <ele>1297.2</ele>
        <time>2021-09-19T07:59:18Z</time>
      </trkpt>
      <trkpt lat="42.77174" lon="1.54053">
        <ele>1298</ele>
        <time>2021-09-19T07:59:23Z</time>
      </trkpt>
      <trkpt lat="42.77173" lon="1.54052">
        <ele>1298</ele>
        <time>2021-09-19T07:59:24Z</time>
      </trkpt>
      <trkpt lat="42.77172" lon="1.5405">
        <ele>1298</ele>
        <time>2021-09-19T07:59:26Z</time>
      </trkpt>
      <trkpt lat="42.77172" lon="1.54048">
        <ele>1298</ele>
        <time>2021-09-19T07:59:28Z</time>
      </trkpt>
      <trkpt lat="42.77173" lon="1.54044">
        <ele>1298.2</ele>
        <time>2021-09-19T07:59:32Z</time>
      </trkpt>
      <trkpt lat="42.77173" lon="1.54041">
        <ele>1298.4</ele>
        <time>2021-09-19T07:59:35Z</time>
      </trkpt>
      <trkpt lat="42.77173" lon="1.5404">
        <ele>1298.8</ele>
        <time>2021-09-19T07:59:37Z</time>
      </trkpt>
      <trkpt lat="42.77174" lon="1.5403">
        <ele>1299</ele>
        <time>2021-09-19T07:59:44Z</time>
      </trkpt>
      <trkpt lat="42.77174" lon="1.54025">
        <ele>1299.4</ele>
        <time>2021-09-19T07:59:48Z</time>
      </trkpt>
      <trkpt lat="42.77174" lon="1.54022">
        <ele>1299.4</ele>
        <time>2021-09-19T07:59:50Z</time>
      </trkpt>
      <trkpt lat="42.77174" lon="1.5402">
        <ele>1299.6</ele>
        <time>2021-09-19T07:59:52Z</time>
      </trkpt>
      <trkpt lat="42.77174" lon="1.54014">
        <ele>1299.8</ele>
        <time>2021-09-19T07:59:57Z</time>
      </trkpt>
      <trkpt lat="42.77174" lon="1.54012">
        <ele>1300</ele>
        <time>2021-09-19T08:00:00Z</time>
      </trkpt>
      <trkpt lat="42.77174" lon="1.54012">
        <ele>1300.4</ele>
        <time>2021-09-19T08:00:03Z</time>
      </trkpt>
      <trkpt lat="42.77175" lon="1.54011">
        <ele>1300.2</ele>
        <time>2021-09-19T08:00:09Z</time>
      </trkpt>
      <trkpt lat="42.77175" lon="1.54011">
        <ele>1300.2</ele>
        <time>2021-09-19T08:00:11Z</time>
      </trkpt>
      <trkpt lat="42.77175" lon="1.5401">
        <ele>1300.2</ele>
        <time>2021-09-19T08:00:13Z</time>
      </trkpt>
      <trkpt lat="42.77174" lon="1.54008">
        <ele>1300.6</ele>
        <time>2021-09-19T08:00:16Z</time>
      </trkpt>
      <trkpt lat="42.77173" lon="1.54001">
        <ele>1301</ele>
        <time>2021-09-19T08:00:22Z</time>
      </trkpt>
      <trkpt lat="42.77173" lon="1.54">
        <ele>1301</ele>
        <time>2021-09-19T08:00:23Z</time>
      </trkpt>
      <trkpt lat="42.77173" lon="1.53998">
        <ele>1301</ele>
        <time>2021-09-19T08:00:24Z</time>
      </trkpt>
      <trkpt lat="42.77173" lon="1.53992">
        <ele>1301.4</ele>
        <time>2021-09-19T08:00:31Z</time>
      </trkpt>
      <trkpt lat="42.77172" lon="1.53987">
        <ele>1301.6</ele>
        <time>2021-09-19T08:00:35Z</time>
      </trkpt>
      <trkpt lat="42.7717" lon="1.53981">
        <ele>1302.4</ele>
        <time>2021-09-19T08:00:41Z</time>
      </trkpt>
      <trkpt lat="42.7717" lon="1.53979">
        <ele>1302.4</ele>
        <time>2021-09-19T08:00:43Z</time>
      </trkpt>
      <trkpt lat="42.77168" lon="1.53967">
        <ele>1302.8</ele>
        <time>2021-09-19T08:00:52Z</time>
      </trkpt>
      <trkpt lat="42.77168" lon="1.53966">
        <ele>1302.6</ele>
        <time>2021-09-19T08:00:53Z</time>
      </trkpt>
      <trkpt lat="42.77167" lon="1.53956">
        <ele>1303</ele>
        <time>2021-09-19T08:01:00Z</time>
      </trkpt>
      <trkpt lat="42.77165" lon="1.53953">
        <ele>1303.6</ele>
        <time>2021-09-19T08:01:05Z</time>
      </trkpt>
      <trkpt lat="42.77164" lon="1.5395">
        <ele>1303.8</ele>
        <time>2021-09-19T08:01:07Z</time>
      </trkpt>
      <trkpt lat="42.77162" lon="1.53946">
        <ele>1304</ele>
        <time>2021-09-19T08:01:10Z</time>
      </trkpt>
      <trkpt lat="42.77162" lon="1.53945">
        <ele>1304.2</ele>
        <time>2021-09-19T08:01:11Z</time>
      </trkpt>
      <trkpt lat="42.77162" lon="1.53944">
        <ele>1304.2</ele>
        <time>2021-09-19T08:01:12Z</time>
      </trkpt>
      <trkpt lat="42.77162" lon="1.53943">
        <ele>1304.2</ele>
        <time>2021-09-19T08:01:14Z</time>
      </trkpt>
      <trkpt lat="42.77162" lon="1.5394">
        <ele>1304.6</ele>
        <time>2021-09-19T08:01:19Z</time>
      </trkpt>
      <trkpt lat="42.77162" lon="1.5394">
        <ele>1304.6</ele>
        <time>2021-09-19T08:01:20Z</time>
      </trkpt>
      <trkpt lat="42.77162" lon="1.53939">
        <ele>1304.6</ele>
        <time>2021-09-19T08:01:21Z</time>
      </trkpt>
      <trkpt lat="42.77164" lon="1.53935">
        <ele>1305.2</ele>
        <time>2021-09-19T08:01:26Z</time>
      </trkpt>
      <trkpt lat="42.77164" lon="1.53933">
        <ele>1305.2</ele>
        <time>2021-09-19T08:01:28Z</time>
      </trkpt>
      <trkpt lat="42.77164" lon="1.53931">
        <ele>1305.2</ele>
        <time>2021-09-19T08:01:32Z</time>
      </trkpt>
      <trkpt lat="42.77166" lon="1.53929">
        <ele>1305.6</ele>
        <time>2021-09-19T08:01:36Z</time>
      </trkpt>
      <trkpt lat="42.77169" lon="1.53934">
        <ele>1305.8</ele>
        <time>2021-09-19T08:01:44Z</time>
      </trkpt>
      <trkpt lat="42.77171" lon="1.53935">
        <ele>1305.8</ele>
        <time>2021-09-19T08:01:47Z</time>
      </trkpt>
      <trkpt lat="42.77172" lon="1.53936">
        <ele>1305.6</ele>
        <time>2021-09-19T08:01:50Z</time>
      </trkpt>
      <trkpt lat="42.77172" lon="1.53936">
        <ele>1305.6</ele>
        <time>2021-09-19T08:01:51Z</time>
      </trkpt>
      <trkpt lat="42.77172" lon="1.53937">
        <ele>1305.4</ele>
        <time>2021-09-19T08:01:55Z</time>
      </trkpt>
      <trkpt lat="42.7717" lon="1.53938">
        <ele>1305.4</ele>
        <time>2021-09-19T08:02:00Z</time>
      </trkpt>
      <trkpt lat="42.7717" lon="1.53936">
        <ele>1305.6</ele>
        <time>2021-09-19T08:02:06Z</time>
      </trkpt>
      <trkpt lat="42.77164" lon="1.53937">
        <ele>1305.8</ele>
        <time>2021-09-19T08:02:13Z</time>
      </trkpt>
      <trkpt lat="42.77161" lon="1.53938">
        <ele>1305.4</ele>
        <time>2021-09-19T08:02:20Z</time>
      </trkpt>
      <trkpt lat="42.77157" lon="1.5394">
        <ele>1304.8</ele>
        <time>2021-09-19T08:02:27Z</time>
      </trkpt>
      <trkpt lat="42.77151" lon="1.53947">
        <ele>1305.2</ele>
        <time>2021-09-19T08:02:35Z</time>
      </trkpt>
      <trkpt lat="42.77144" lon="1.53952">
        <ele>1305</ele>
        <time>2021-09-19T08:02:42Z</time>
      </trkpt>
      <trkpt lat="42.77137" lon="1.53955">
        <ele>1304.6</ele>
        <time>2021-09-19T08:02:49Z</time>
      </trkpt>
      <trkpt lat="42.77136" lon="1.53955">
        <ele>1304.4</ele>
        <time>2021-09-19T08:02:50Z</time>
      </trkpt>
      <trkpt lat="42.77133" lon="1.53956">
        <ele>1304.4</ele>
        <time>2021-09-19T08:02:53Z</time>
      </trkpt>
      <trkpt lat="42.77128" lon="1.53958">
        <ele>1304.6</ele>
        <time>2021-09-19T08:02:58Z</time>
      </trkpt>
      <trkpt lat="42.77123" lon="1.53961">
        <ele>1304.8</ele>
        <time>2021-09-19T08:03:04Z</time>
      </trkpt>
      <trkpt lat="42.77122" lon="1.53962">
        <ele>1304.8</ele>
        <time>2021-09-19T08:03:06Z</time>
      </trkpt>
      <trkpt lat="42.77121" lon="1.53962">
        <ele>1304.8</ele>
        <time>2021-09-19T08:03:07Z</time>
      </trkpt>
      <trkpt lat="42.7712" lon="1.53962">
        <ele>1304.8</ele>
        <time>2021-09-19T08:03:08Z</time>
      </trkpt>
      <trkpt lat="42.77119" lon="1.53962">
        <ele>1304.8</ele>
        <time>2021-09-19T08:03:09Z</time>
      </trkpt>
      <trkpt lat="42.77117" lon="1.53962">
        <ele>1304.8</ele>
        <time>2021-09-19T08:03:11Z</time>
      </trkpt>
      <trkpt lat="42.77116" lon="1.53963">
        <ele>1304.8</ele>
        <time>2021-09-19T08:03:12Z</time>
      </trkpt>
      <trkpt lat="42.77113" lon="1.53964">
        <ele>1304.8</ele>
        <time>2021-09-19T08:03:16Z</time>
      </trkpt>
      <trkpt lat="42.77107" lon="1.53965">
        <ele>1304.8</ele>
        <time>2021-09-19T08:03:23Z</time>
      </trkpt>
      <trkpt lat="42.77105" lon="1.53965">
        <ele>1304.8</ele>
        <time>2021-09-19T08:03:25Z</time>
      </trkpt>
      <trkpt lat="42.77097" lon="1.53968">
        <ele>1305.2</ele>
        <time>2021-09-19T08:03:33Z</time>
      </trkpt>
      <trkpt lat="42.77093" lon="1.53969">
        <ele>1305.6</ele>
        <time>2021-09-19T08:03:36Z</time>
      </trkpt>
      <trkpt lat="42.77086" lon="1.53972">
        <ele>1305.8</ele>
        <time>2021-09-19T08:03:44Z</time>
      </trkpt>
      <trkpt lat="42.77078" lon="1.53973">
        <ele>1306</ele>
        <time>2021-09-19T08:03:51Z</time>
      </trkpt>
      <trkpt lat="42.77069" lon="1.53974">
        <ele>1306.6</ele>
        <time>2021-09-19T08:03:59Z</time>
      </trkpt>
      <trkpt lat="42.77069" lon="1.53975">
        <ele>1306.6</ele>
        <time>2021-09-19T08:04:00Z</time>
      </trkpt>
      <trkpt lat="42.77066" lon="1.53978">
        <ele>1306.8</ele>
        <time>2021-09-19T08:04:03Z</time>
      </trkpt>
      <trkpt lat="42.77063" lon="1.5398">
        <ele>1307.2</ele>
        <time>2021-09-19T08:04:07Z</time>
      </trkpt>
      <trkpt lat="42.77055" lon="1.53984">
        <ele>1307.4</ele>
        <time>2021-09-19T08:04:14Z</time>
      </trkpt>
      <trkpt lat="42.77053" lon="1.53985">
        <ele>1307.8</ele>
        <time>2021-09-19T08:04:16Z</time>
      </trkpt>
      <trkpt lat="42.77046" lon="1.53985">
        <ele>1308.4</ele>
        <time>2021-09-19T08:04:24Z</time>
      </trkpt>
      <trkpt lat="42.77039" lon="1.53989">
        <ele>1308.4</ele>
        <time>2021-09-19T08:04:32Z</time>
      </trkpt>
      <trkpt lat="42.77029" lon="1.53995">
        <ele>1308.6</ele>
        <time>2021-09-19T08:04:42Z</time>
      </trkpt>
      <trkpt lat="42.77025" lon="1.53995">
        <ele>1308.6</ele>
        <time>2021-09-19T08:04:46Z</time>
      </trkpt>
      <trkpt lat="42.77023" lon="1.53996">
        <ele>1308.6</ele>
        <time>2021-09-19T08:04:48Z</time>
      </trkpt>
      <trkpt lat="42.77021" lon="1.53996">
        <ele>1308.6</ele>
        <time>2021-09-19T08:04:49Z</time>
      </trkpt>
      <trkpt lat="42.77019" lon="1.53998">
        <ele>1308.8</ele>
        <time>2021-09-19T08:04:51Z</time>
      </trkpt>
      <trkpt lat="42.77014" lon="1.54002">
        <ele>1309.2</ele>
        <time>2021-09-19T08:04:56Z</time>
      </trkpt>
      <trkpt lat="42.77006" lon="1.54007">
        <ele>1309.4</ele>
        <time>2021-09-19T08:05:05Z</time>
      </trkpt>
      <trkpt lat="42.77003" lon="1.54008">
        <ele>1309.8</ele>
        <time>2021-09-19T08:05:08Z</time>
      </trkpt>
      <trkpt lat="42.76998" lon="1.54008">
        <ele>1310.2</ele>
        <time>2021-09-19T08:05:13Z</time>
      </trkpt>
      <trkpt lat="42.76989" lon="1.54008">
        <ele>1310.2</ele>
        <time>2021-09-19T08:05:21Z</time>
      </trkpt>
      <trkpt lat="42.76982" lon="1.54006">
        <ele>1311</ele>
        <time>2021-09-19T08:05:30Z</time>
      </trkpt>
      <trkpt lat="42.76981" lon="1.54005">
        <ele>1311.6</ele>
        <time>2021-09-19T08:05:33Z</time>
      </trkpt>
      <trkpt lat="42.76981" lon="1.54005">
        <ele>1312</ele>
        <time>2021-09-19T08:05:35Z</time>
      </trkpt>
      <trkpt lat="42.76981" lon="1.54004">
        <ele>1312.2</ele>
        <time>2021-09-19T08:05:36Z</time>
      </trkpt>
      <trkpt lat="42.7698" lon="1.54001">
        <ele>1313.2</ele>
        <time>2021-09-19T08:05:41Z</time>
      </trkpt>
      <trkpt lat="42.7698" lon="1.54001">
        <ele>1313.6</ele>
        <time>2021-09-19T08:05:43Z</time>
      </trkpt>
      <trkpt lat="42.7698" lon="1.54">
        <ele>1313.8</ele>
        <time>2021-09-19T08:05:44Z</time>
      </trkpt>
      <trkpt lat="42.7698" lon="1.53999">
        <ele>1314.2</ele>
        <time>2021-09-19T08:05:46Z</time>
      </trkpt>
      <trkpt lat="42.76978" lon="1.53996">
        <ele>1314.6</ele>
        <time>2021-09-19T08:05:50Z</time>
      </trkpt>
      <trkpt lat="42.76977" lon="1.53994">
        <ele>1314.8</ele>
        <time>2021-09-19T08:05:52Z</time>
      </trkpt>
      <trkpt lat="42.76976" lon="1.53994">
        <ele>1315.2</ele>
        <time>2021-09-19T08:05:53Z</time>
      </trkpt>
      <trkpt lat="42.76975" lon="1.53993">
        <ele>1315.6</ele>
        <time>2021-09-19T08:05:54Z</time>
      </trkpt>
      <trkpt lat="42.76974" lon="1.53992">
        <ele>1315.8</ele>
        <time>2021-09-19T08:05:55Z</time>
      </trkpt>
      <trkpt lat="42.76973" lon="1.53992">
        <ele>1316.2</ele>
        <time>2021-09-19T08:05:56Z</time>
      </trkpt>
      <trkpt lat="42.76972" lon="1.53991">
        <ele>1316.4</ele>
        <time>2021-09-19T08:05:57Z</time>
      </trkpt>
      <trkpt lat="42.7697" lon="1.53991">
        <ele>1316.8</ele>
        <time>2021-09-19T08:05:59Z</time>
      </trkpt>
      <trkpt lat="42.76969" lon="1.53991">
        <ele>1317.2</ele>
        <time>2021-09-19T08:06:01Z</time>
      </trkpt>
      <trkpt lat="42.76967" lon="1.53991">
        <ele>1317.8</ele>
        <time>2021-09-19T08:06:04Z</time>
      </trkpt>
      <trkpt lat="42.76964" lon="1.53992">
        <ele>1318.4</ele>
        <time>2021-09-19T08:06:08Z</time>
      </trkpt>
      <trkpt lat="42.76962" lon="1.53991">
        <ele>1319</ele>
        <time>2021-09-19T08:06:11Z</time>
      </trkpt>
      <trkpt lat="42.76962" lon="1.53991">
        <ele>1319.2</ele>
        <time>2021-09-19T08:06:12Z</time>
      </trkpt>
      <trkpt lat="42.7696" lon="1.5399">
        <ele>1319.8</ele>
        <time>2021-09-19T08:06:16Z</time>
      </trkpt>
      <trkpt lat="42.76959" lon="1.5399">
        <ele>1320</ele>
        <time>2021-09-19T08:06:17Z</time>
      </trkpt>
      <trkpt lat="42.76956" lon="1.53987">
        <ele>1321.2</ele>
        <time>2021-09-19T08:06:24Z</time>
      </trkpt>
      <trkpt lat="42.76956" lon="1.53987">
        <ele>1321.4</ele>
        <time>2021-09-19T08:06:25Z</time>
      </trkpt>
      <trkpt lat="42.76953" lon="1.53985">
        <ele>1322.2</ele>
        <time>2021-09-19T08:06:30Z</time>
      </trkpt>
      <trkpt lat="42.76951" lon="1.53985">
        <ele>1322.6</ele>
        <time>2021-09-19T08:06:33Z</time>
      </trkpt>
      <trkpt lat="42.76949" lon="1.53985">
        <ele>1323.6</ele>
        <time>2021-09-19T08:06:37Z</time>
      </trkpt>
      <trkpt lat="42.76947" lon="1.53984">
        <ele>1324.6</ele>
        <time>2021-09-19T08:06:41Z</time>
      </trkpt>
      <trkpt lat="42.76946" lon="1.53984">
        <ele>1324.8</ele>
        <time>2021-09-19T08:06:42Z</time>
      </trkpt>
      <trkpt lat="42.76944" lon="1.53983">
        <ele>1325.8</ele>
        <time>2021-09-19T08:06:47Z</time>
      </trkpt>
      <trkpt lat="42.76941" lon="1.5398">
        <ele>1326.4</ele>
        <time>2021-09-19T08:06:52Z</time>
      </trkpt>
      <trkpt lat="42.7694" lon="1.53979">
        <ele>1326.8</ele>
        <time>2021-09-19T08:06:54Z</time>
      </trkpt>
      <trkpt lat="42.7694" lon="1.53979">
        <ele>1327</ele>
        <time>2021-09-19T08:06:55Z</time>
      </trkpt>
      <trkpt lat="42.76939" lon="1.53979">
        <ele>1327.6</ele>
        <time>2021-09-19T08:06:57Z</time>
      </trkpt>
      <trkpt lat="42.76938" lon="1.53979">
        <ele>1327.8</ele>
        <time>2021-09-19T08:06:59Z</time>
      </trkpt>
      <trkpt lat="42.76937" lon="1.53978">
        <ele>1328.4</ele>
        <time>2021-09-19T08:07:02Z</time>
      </trkpt>
      <trkpt lat="42.76937" lon="1.53979">
        <ele>1328.6</ele>
        <time>2021-09-19T08:07:04Z</time>
      </trkpt>
      <trkpt lat="42.76936" lon="1.53979">
        <ele>1328.8</ele>
        <time>2021-09-19T08:07:05Z</time>
      </trkpt>
      <trkpt lat="42.76935" lon="1.5398">
        <ele>1329</ele>
        <time>2021-09-19T08:07:07Z</time>
      </trkpt>
      <trkpt lat="42.76935" lon="1.5398">
        <ele>1329.4</ele>
        <time>2021-09-19T08:07:08Z</time>
      </trkpt>
      <trkpt lat="42.76935" lon="1.53981">
        <ele>1329.8</ele>
        <time>2021-09-19T08:07:10Z</time>
      </trkpt>
      <trkpt lat="42.76933" lon="1.53981">
        <ele>1331</ele>
        <time>2021-09-19T08:07:15Z</time>
      </trkpt>
      <trkpt lat="42.76931" lon="1.5398">
        <ele>1332.2</ele>
        <time>2021-09-19T08:07:19Z</time>
      </trkpt>
      <trkpt lat="42.76929" lon="1.53981">
        <ele>1332.8</ele>
        <time>2021-09-19T08:07:24Z</time>
      </trkpt>
      <trkpt lat="42.76927" lon="1.53983">
        <ele>1333.2</ele>
        <time>2021-09-19T08:07:28Z</time>
      </trkpt>
      <trkpt lat="42.76924" lon="1.53982">
        <ele>1333.6</ele>
        <time>2021-09-19T08:07:32Z</time>
      </trkpt>
      <trkpt lat="42.76922" lon="1.53982">
        <ele>1334.2</ele>
        <time>2021-09-19T08:07:36Z</time>
      </trkpt>
      <trkpt lat="42.76921" lon="1.53983">
        <ele>1334.8</ele>
        <time>2021-09-19T08:07:40Z</time>
      </trkpt>
      <trkpt lat="42.76921" lon="1.53982">
        <ele>1334.8</ele>
        <time>2021-09-19T08:07:41Z</time>
      </trkpt>
      <trkpt lat="42.76918" lon="1.53983">
        <ele>1334.6</ele>
        <time>2021-09-19T08:07:47Z</time>
      </trkpt>
      <trkpt lat="42.76916" lon="1.53984">
        <ele>1335.4</ele>
        <time>2021-09-19T08:07:50Z</time>
      </trkpt>
      <trkpt lat="42.76915" lon="1.53985">
        <ele>1335.8</ele>
        <time>2021-09-19T08:07:52Z</time>
      </trkpt>
      <trkpt lat="42.76913" lon="1.53986">
        <ele>1335.8</ele>
        <time>2021-09-19T08:07:54Z</time>
      </trkpt>
      <trkpt lat="42.76908" lon="1.5399">
        <ele>1336.4</ele>
        <time>2021-09-19T08:08:01Z</time>
      </trkpt>
      <trkpt lat="42.76904" lon="1.53992">
        <ele>1337.6</ele>
        <time>2021-09-19T08:08:04Z</time>
      </trkpt>
      <trkpt lat="42.769" lon="1.53991">
        <ele>1338.4</ele>
        <time>2021-09-19T08:08:08Z</time>
      </trkpt>
      <trkpt lat="42.76899" lon="1.53991">
        <ele>1338.6</ele>
        <time>2021-09-19T08:08:11Z</time>
      </trkpt>
      <trkpt lat="42.76899" lon="1.53992">
        <ele>1338.6</ele>
        <time>2021-09-19T08:08:12Z</time>
      </trkpt>
      <trkpt lat="42.76898" lon="1.53994">
        <ele>1339</ele>
        <time>2021-09-19T08:08:14Z</time>
      </trkpt>
      <trkpt lat="42.76897" lon="1.53995">
        <ele>1339.2</ele>
        <time>2021-09-19T08:08:15Z</time>
      </trkpt>
      <trkpt lat="42.76895" lon="1.53996">
        <ele>1339.4</ele>
        <time>2021-09-19T08:08:18Z</time>
      </trkpt>
      <trkpt lat="42.76893" lon="1.53998">
        <ele>1339.8</ele>
        <time>2021-09-19T08:08:22Z</time>
      </trkpt>
      <trkpt lat="42.7689" lon="1.54">
        <ele>1340.8</ele>
        <time>2021-09-19T08:08:27Z</time>
      </trkpt>
      <trkpt lat="42.76889" lon="1.54">
        <ele>1341</ele>
        <time>2021-09-19T08:08:28Z</time>
      </trkpt>
      <trkpt lat="42.76887" lon="1.54002">
        <ele>1341.2</ele>
        <time>2021-09-19T08:08:31Z</time>
      </trkpt>
      <trkpt lat="42.76883" lon="1.54004">
        <ele>1341.8</ele>
        <time>2021-09-19T08:08:36Z</time>
      </trkpt>
      <trkpt lat="42.76882" lon="1.54005">
        <ele>1342.4</ele>
        <time>2021-09-19T08:08:38Z</time>
      </trkpt>
      <trkpt lat="42.76878" lon="1.54005">
        <ele>1342.8</ele>
        <time>2021-09-19T08:08:44Z</time>
      </trkpt>
      <trkpt lat="42.76875" lon="1.54006">
        <ele>1343.4</ele>
        <time>2021-09-19T08:08:47Z</time>
      </trkpt>
      <trkpt lat="42.76874" lon="1.54006">
        <ele>1343.6</ele>
        <time>2021-09-19T08:08:49Z</time>
      </trkpt>
      <trkpt lat="42.76872" lon="1.54008">
        <ele>1344</ele>
        <time>2021-09-19T08:08:53Z</time>
      </trkpt>
      <trkpt lat="42.76871" lon="1.54009">
        <ele>1344</ele>
        <time>2021-09-19T08:08:54Z</time>
      </trkpt>
      <trkpt lat="42.76866" lon="1.54011">
        <ele>1345.2</ele>
        <time>2021-09-19T08:09:01Z</time>
      </trkpt>
      <trkpt lat="42.76865" lon="1.54012">
        <ele>1345.6</ele>
        <time>2021-09-19T08:09:03Z</time>
      </trkpt>
      <trkpt lat="42.76862" lon="1.54012">
        <ele>1346.2</ele>
        <time>2021-09-19T08:09:07Z</time>
      </trkpt>
      <trkpt lat="42.76859" lon="1.54011">
        <ele>1346.6</ele>
        <time>2021-09-19T08:09:10Z</time>
      </trkpt>
      <trkpt lat="42.76857" lon="1.54011">
        <ele>1347.4</ele>
        <time>2021-09-19T08:09:14Z</time>
      </trkpt>
      <trkpt lat="42.76854" lon="1.5401">
        <ele>1347.8</ele>
        <time>2021-09-19T08:09:18Z</time>
      </trkpt>
      <trkpt lat="42.76852" lon="1.5401">
        <ele>1348.2</ele>
        <time>2021-09-19T08:09:21Z</time>
      </trkpt>
      <trkpt lat="42.76851" lon="1.54009">
        <ele>1348.4</ele>
        <time>2021-09-19T08:09:22Z</time>
      </trkpt>
      <trkpt lat="42.76849" lon="1.5401">
        <ele>1349</ele>
        <time>2021-09-19T08:09:25Z</time>
      </trkpt>
      <trkpt lat="42.76848" lon="1.5401">
        <ele>1349.6</ele>
        <time>2021-09-19T08:09:28Z</time>
      </trkpt>
      <trkpt lat="42.76845" lon="1.54009">
        <ele>1350.2</ele>
        <time>2021-09-19T08:09:32Z</time>
      </trkpt>
      <trkpt lat="42.76845" lon="1.54008">
        <ele>1350.8</ele>
        <time>2021-09-19T08:09:34Z</time>
      </trkpt>
      <trkpt lat="42.76843" lon="1.54007">
        <ele>1351.2</ele>
        <time>2021-09-19T08:09:38Z</time>
      </trkpt>
      <trkpt lat="42.76842" lon="1.54007">
        <ele>1351.8</ele>
        <time>2021-09-19T08:09:40Z</time>
      </trkpt>
      <trkpt lat="42.76842" lon="1.54006">
        <ele>1351.8</ele>
        <time>2021-09-19T08:09:41Z</time>
      </trkpt>
      <trkpt lat="42.76841" lon="1.54006">
        <ele>1352</ele>
        <time>2021-09-19T08:09:42Z</time>
      </trkpt>
      <trkpt lat="42.76841" lon="1.54006">
        <ele>1352.2</ele>
        <time>2021-09-19T08:09:43Z</time>
      </trkpt>
      <trkpt lat="42.76839" lon="1.54006">
        <ele>1352.2</ele>
        <time>2021-09-19T08:09:46Z</time>
      </trkpt>
      <trkpt lat="42.76838" lon="1.54005">
        <ele>1353</ele>
        <time>2021-09-19T08:09:49Z</time>
      </trkpt>
      <trkpt lat="42.76837" lon="1.54002">
        <ele>1353.6</ele>
        <time>2021-09-19T08:09:53Z</time>
      </trkpt>
      <trkpt lat="42.76836" lon="1.53999">
        <ele>1354.2</ele>
        <time>2021-09-19T08:09:57Z</time>
      </trkpt>
      <trkpt lat="42.76834" lon="1.53998">
        <ele>1354.4</ele>
        <time>2021-09-19T08:10:00Z</time>
      </trkpt>
      <trkpt lat="42.76832" lon="1.53996">
        <ele>1355.2</ele>
        <time>2021-09-19T08:10:04Z</time>
      </trkpt>
      <trkpt lat="42.7683" lon="1.53994">
        <ele>1356</ele>
        <time>2021-09-19T08:10:08Z</time>
      </trkpt>
      <trkpt lat="42.76829" lon="1.53991">
        <ele>1356.4</ele>
        <time>2021-09-19T08:10:14Z</time>
      </trkpt>
      <trkpt lat="42.76828" lon="1.53989">
        <ele>1356.6</ele>
        <time>2021-09-19T08:10:16Z</time>
      </trkpt>
      <trkpt lat="42.76827" lon="1.53988">
        <ele>1357.4</ele>
        <time>2021-09-19T08:10:18Z</time>
      </trkpt>
      <trkpt lat="42.76824" lon="1.53983">
        <ele>1358.4</ele>
        <time>2021-09-19T08:10:24Z</time>
      </trkpt>
      <trkpt lat="42.7682" lon="1.53983">
        <ele>1359.2</ele>
        <time>2021-09-19T08:10:31Z</time>
      </trkpt>
      <trkpt lat="42.76819" lon="1.53982">
        <ele>1359.6</ele>
        <time>2021-09-19T08:10:32Z</time>
      </trkpt>
      <trkpt lat="42.76818" lon="1.53981">
        <ele>1360</ele>
        <time>2021-09-19T08:10:34Z</time>
      </trkpt>
      <trkpt lat="42.76816" lon="1.5398">
        <ele>1360.4</ele>
        <time>2021-09-19T08:10:39Z</time>
      </trkpt>
      <trkpt lat="42.76816" lon="1.5398">
        <ele>1360.8</ele>
        <time>2021-09-19T08:10:40Z</time>
      </trkpt>
      <trkpt lat="42.76812" lon="1.53975">
        <ele>1361.8</ele>
        <time>2021-09-19T08:10:46Z</time>
      </trkpt>
      <trkpt lat="42.76811" lon="1.53974">
        <ele>1362</ele>
        <time>2021-09-19T08:10:47Z</time>
      </trkpt>
      <trkpt lat="42.76809" lon="1.53973">
        <ele>1362.8</ele>
        <time>2021-09-19T08:10:51Z</time>
      </trkpt>
      <trkpt lat="42.76807" lon="1.53973">
        <ele>1363.4</ele>
        <time>2021-09-19T08:10:54Z</time>
      </trkpt>
      <trkpt lat="42.76806" lon="1.53972">
        <ele>1363.6</ele>
        <time>2021-09-19T08:10:56Z</time>
      </trkpt>
      <trkpt lat="42.76804" lon="1.53971">
        <ele>1364</ele>
        <time>2021-09-19T08:10:59Z</time>
      </trkpt>
      <trkpt lat="42.76803" lon="1.53971">
        <ele>1364.4</ele>
        <time>2021-09-19T08:11:01Z</time>
      </trkpt>
      <trkpt lat="42.76801" lon="1.53969">
        <ele>1365.2</ele>
        <time>2021-09-19T08:11:07Z</time>
      </trkpt>
      <trkpt lat="42.768" lon="1.53969">
        <ele>1365.2</ele>
        <time>2021-09-19T08:11:08Z</time>
      </trkpt>
      <trkpt lat="42.76798" lon="1.53967">
        <ele>1366.2</ele>
        <time>2021-09-19T08:11:14Z</time>
      </trkpt>
      <trkpt lat="42.76791" lon="1.53964">
        <ele>1367.4</ele>
        <time>2021-09-19T08:11:21Z</time>
      </trkpt>
      <trkpt lat="42.7679" lon="1.53965">
        <ele>1367.4</ele>
        <time>2021-09-19T08:11:22Z</time>
      </trkpt>
      <trkpt lat="42.76785" lon="1.53962">
        <ele>1368.4</ele>
        <time>2021-09-19T08:11:30Z</time>
      </trkpt>
      <trkpt lat="42.76785" lon="1.53962">
        <ele>1368.6</ele>
        <time>2021-09-19T08:11:31Z</time>
      </trkpt>
      <trkpt lat="42.76783" lon="1.5396">
        <ele>1369.6</ele>
        <time>2021-09-19T08:11:36Z</time>
      </trkpt>
      <trkpt lat="42.76781" lon="1.53957">
        <ele>1370.2</ele>
        <time>2021-09-19T08:11:40Z</time>
      </trkpt>
      <trkpt lat="42.76779" lon="1.53955">
        <ele>1370.6</ele>
        <time>2021-09-19T08:11:43Z</time>
      </trkpt>
      <trkpt lat="42.76777" lon="1.53952">
        <ele>1371.4</ele>
        <time>2021-09-19T08:11:47Z</time>
      </trkpt>
      <trkpt lat="42.76777" lon="1.53952">
        <ele>1371.6</ele>
        <time>2021-09-19T08:11:49Z</time>
      </trkpt>
      <trkpt lat="42.76776" lon="1.53951">
        <ele>1372.4</ele>
        <time>2021-09-19T08:11:55Z</time>
      </trkpt>
      <trkpt lat="42.76776" lon="1.5395">
        <ele>1372.8</ele>
        <time>2021-09-19T08:11:57Z</time>
      </trkpt>
      <trkpt lat="42.76775" lon="1.53948">
        <ele>1373.6</ele>
        <time>2021-09-19T08:12:02Z</time>
      </trkpt>
      <trkpt lat="42.76774" lon="1.53947">
        <ele>1373.8</ele>
        <time>2021-09-19T08:12:03Z</time>
      </trkpt>
      <trkpt lat="42.76771" lon="1.53946">
        <ele>1375</ele>
        <time>2021-09-19T08:12:08Z</time>
      </trkpt>
      <trkpt lat="42.76769" lon="1.53945">
        <ele>1375.4</ele>
        <time>2021-09-19T08:12:10Z</time>
      </trkpt>
      <trkpt lat="42.76766" lon="1.53945">
        <ele>1376.2</ele>
        <time>2021-09-19T08:12:14Z</time>
      </trkpt>
      <trkpt lat="42.76764" lon="1.53946">
        <ele>1377.2</ele>
        <time>2021-09-19T08:12:19Z</time>
      </trkpt>
      <trkpt lat="42.76763" lon="1.53946">
        <ele>1377.2</ele>
        <time>2021-09-19T08:12:20Z</time>
      </trkpt>
      <trkpt lat="42.76762" lon="1.53949">
        <ele>1378</ele>
        <time>2021-09-19T08:12:26Z</time>
      </trkpt>
      <trkpt lat="42.76761" lon="1.53949">
        <ele>1378.4</ele>
        <time>2021-09-19T08:12:27Z</time>
      </trkpt>
      <trkpt lat="42.76755" lon="1.53949">
        <ele>1379</ele>
        <time>2021-09-19T08:12:34Z</time>
      </trkpt>
      <trkpt lat="42.76752" lon="1.53947">
        <ele>1379.4</ele>
        <time>2021-09-19T08:12:41Z</time>
      </trkpt>
      <trkpt lat="42.76748" lon="1.53948">
        <ele>1380.4</ele>
        <time>2021-09-19T08:12:47Z</time>
      </trkpt>
      <trkpt lat="42.76748" lon="1.53949">
        <ele>1380.4</ele>
        <time>2021-09-19T08:12:48Z</time>
      </trkpt>
      <trkpt lat="42.76745" lon="1.5395">
        <ele>1381.2</ele>
        <time>2021-09-19T08:12:55Z</time>
      </trkpt>
      <trkpt lat="42.76743" lon="1.5395">
        <ele>1381.6</ele>
        <time>2021-09-19T08:12:57Z</time>
      </trkpt>
      <trkpt lat="42.76743" lon="1.5395">
        <ele>1381.6</ele>
        <time>2021-09-19T08:12:58Z</time>
      </trkpt>
      <trkpt lat="42.76739" lon="1.53949">
        <ele>1382.4</ele>
        <time>2021-09-19T08:13:03Z</time>
      </trkpt>
      <trkpt lat="42.76738" lon="1.53949">
        <ele>1382.6</ele>
        <time>2021-09-19T08:13:04Z</time>
      </trkpt>
      <trkpt lat="42.76738" lon="1.53949">
        <ele>1382.6</ele>
        <time>2021-09-19T08:13:05Z</time>
      </trkpt>
      <trkpt lat="42.76733" lon="1.53949">
        <ele>1383.6</ele>
        <time>2021-09-19T08:13:10Z</time>
      </trkpt>
      <trkpt lat="42.76732" lon="1.53949">
        <ele>1384</ele>
        <time>2021-09-19T08:13:12Z</time>
      </trkpt>
      <trkpt lat="42.76728" lon="1.53952">
        <ele>1385</ele>
        <time>2021-09-19T08:13:18Z</time>
      </trkpt>
      <trkpt lat="42.76727" lon="1.53953">
        <ele>1385.4</ele>
        <time>2021-09-19T08:13:20Z</time>
      </trkpt>
      <trkpt lat="42.76725" lon="1.53954">
        <ele>1386</ele>
        <time>2021-09-19T08:13:22Z</time>
      </trkpt>
      <trkpt lat="42.76724" lon="1.53954">
        <ele>1386.2</ele>
        <time>2021-09-19T08:13:23Z</time>
      </trkpt>
      <trkpt lat="42.76721" lon="1.53954">
        <ele>1387</ele>
        <time>2021-09-19T08:13:30Z</time>
      </trkpt>
      <trkpt lat="42.76721" lon="1.53954">
        <ele>1387.2</ele>
        <time>2021-09-19T08:13:31Z</time>
      </trkpt>
      <trkpt lat="42.76717" lon="1.53959">
        <ele>1388.2</ele>
        <time>2021-09-19T08:13:38Z</time>
      </trkpt>
      <trkpt lat="42.76717" lon="1.5396">
        <ele>1388.2</ele>
        <time>2021-09-19T08:13:40Z</time>
      </trkpt>
      <trkpt lat="42.76715" lon="1.5396">
        <ele>1388.8</ele>
        <time>2021-09-19T08:13:44Z</time>
      </trkpt>
      <trkpt lat="42.76714" lon="1.5396">
        <ele>1389.2</ele>
        <time>2021-09-19T08:13:46Z</time>
      </trkpt>
      <trkpt lat="42.76713" lon="1.5396">
        <ele>1389.6</ele>
        <time>2021-09-19T08:13:47Z</time>
      </trkpt>
      <trkpt lat="42.76709" lon="1.53959">
        <ele>1390</ele>
        <time>2021-09-19T08:13:51Z</time>
      </trkpt>
      <trkpt lat="42.76706" lon="1.53958">
        <ele>1390.2</ele>
        <time>2021-09-19T08:13:54Z</time>
      </trkpt>
      <trkpt lat="42.76705" lon="1.53957">
        <ele>1390.6</ele>
        <time>2021-09-19T08:13:56Z</time>
      </trkpt>
      <trkpt lat="42.76704" lon="1.53957">
        <ele>1390.8</ele>
        <time>2021-09-19T08:13:58Z</time>
      </trkpt>
      <trkpt lat="42.76703" lon="1.53957">
        <ele>1391.2</ele>
        <time>2021-09-19T08:14:01Z</time>
      </trkpt>
      <trkpt lat="42.76702" lon="1.53957">
        <ele>1391.8</ele>
        <time>2021-09-19T08:14:03Z</time>
      </trkpt>
      <trkpt lat="42.76701" lon="1.53956">
        <ele>1392</ele>
        <time>2021-09-19T08:14:05Z</time>
      </trkpt>
      <trkpt lat="42.767" lon="1.53956">
        <ele>1392</ele>
        <time>2021-09-19T08:14:06Z</time>
      </trkpt>
      <trkpt lat="42.767" lon="1.53956">
        <ele>1392.4</ele>
        <time>2021-09-19T08:14:08Z</time>
      </trkpt>
      <trkpt lat="42.76698" lon="1.53956">
        <ele>1392.8</ele>
        <time>2021-09-19T08:14:10Z</time>
      </trkpt>
      <trkpt lat="42.76691" lon="1.53955">
        <ele>1393.4</ele>
        <time>2021-09-19T08:14:16Z</time>
      </trkpt>
      <trkpt lat="42.7669" lon="1.53955">
        <ele>1393.6</ele>
        <time>2021-09-19T08:14:17Z</time>
      </trkpt>
      <trkpt lat="42.7669" lon="1.53955">
        <ele>1393.6</ele>
        <time>2021-09-19T08:14:18Z</time>
      </trkpt>
      <trkpt lat="42.76689" lon="1.53954">
        <ele>1393.8</ele>
        <time>2021-09-19T08:14:20Z</time>
      </trkpt>
      <trkpt lat="42.76689" lon="1.53953">
        <ele>1394</ele>
        <time>2021-09-19T08:14:21Z</time>
      </trkpt>
      <trkpt lat="42.76687" lon="1.53953">
        <ele>1394.4</ele>
        <time>2021-09-19T08:14:23Z</time>
      </trkpt>
      <trkpt lat="42.76687" lon="1.53952">
        <ele>1394.4</ele>
        <time>2021-09-19T08:14:24Z</time>
      </trkpt>
      <trkpt lat="42.76684" lon="1.53951">
        <ele>1395</ele>
        <time>2021-09-19T08:14:30Z</time>
      </trkpt>
      <trkpt lat="42.76684" lon="1.53951">
        <ele>1395</ele>
        <time>2021-09-19T08:14:31Z</time>
      </trkpt>
      <trkpt lat="42.76681" lon="1.53949">
        <ele>1396</ele>
        <time>2021-09-19T08:14:37Z</time>
      </trkpt>
      <trkpt lat="42.76681" lon="1.53948">
        <ele>1396.6</ele>
        <time>2021-09-19T08:14:39Z</time>
      </trkpt>
      <trkpt lat="42.7668" lon="1.53947">
        <ele>1397.2</ele>
        <time>2021-09-19T08:14:43Z</time>
      </trkpt>
      <trkpt lat="42.76677" lon="1.53944">
        <ele>1398</ele>
        <time>2021-09-19T08:14:47Z</time>
      </trkpt>
      <trkpt lat="42.76676" lon="1.53943">
        <ele>1398.2</ele>
        <time>2021-09-19T08:14:49Z</time>
      </trkpt>
      <trkpt lat="42.76675" lon="1.53942">
        <ele>1398.8</ele>
        <time>2021-09-19T08:14:52Z</time>
      </trkpt>
      <trkpt lat="42.76673" lon="1.53941">
        <ele>1399.2</ele>
        <time>2021-09-19T08:14:55Z</time>
      </trkpt>
      <trkpt lat="42.76668" lon="1.53937">
        <ele>1400.2</ele>
        <time>2021-09-19T08:15:02Z</time>
      </trkpt>
      <trkpt lat="42.76667" lon="1.53938">
        <ele>1400.6</ele>
        <time>2021-09-19T08:15:03Z</time>
      </trkpt>
      <trkpt lat="42.76662" lon="1.53935">
        <ele>1401.6</ele>
        <time>2021-09-19T08:15:10Z</time>
      </trkpt>
      <trkpt lat="42.76659" lon="1.53931">
        <ele>1402</ele>
        <time>2021-09-19T08:15:15Z</time>
      </trkpt>
      <trkpt lat="42.76656" lon="1.5393">
        <ele>1402.6</ele>
        <time>2021-09-19T08:15:20Z</time>
      </trkpt>
      <trkpt lat="42.76654" lon="1.53923">
        <ele>1403.8</ele>
        <time>2021-09-19T08:15:28Z</time>
      </trkpt>
      <trkpt lat="42.76653" lon="1.53921">
        <ele>1405</ele>
        <time>2021-09-19T08:15:34Z</time>
      </trkpt>
      <trkpt lat="42.76653" lon="1.5392">
        <ele>1405</ele>
        <time>2021-09-19T08:15:35Z</time>
      </trkpt>
      <trkpt lat="42.76652" lon="1.53913">
        <ele>1405.8</ele>
        <time>2021-09-19T08:15:44Z</time>
      </trkpt>
      <trkpt lat="42.76651" lon="1.53913">
        <ele>1406</ele>
        <time>2021-09-19T08:15:45Z</time>
      </trkpt>
      <trkpt lat="42.76648" lon="1.53907">
        <ele>1407</ele>
        <time>2021-09-19T08:15:51Z</time>
      </trkpt>
      <trkpt lat="42.76645" lon="1.53903">
        <ele>1407.8</ele>
        <time>2021-09-19T08:15:57Z</time>
      </trkpt>
      <trkpt lat="42.76644" lon="1.53902">
        <ele>1408</ele>
        <time>2021-09-19T08:15:59Z</time>
      </trkpt>
      <trkpt lat="42.76643" lon="1.53901">
        <ele>1408.4</ele>
        <time>2021-09-19T08:16:00Z</time>
      </trkpt>
      <trkpt lat="42.76643" lon="1.539">
        <ele>1408.6</ele>
        <time>2021-09-19T08:16:01Z</time>
      </trkpt>
      <trkpt lat="42.76643" lon="1.53898">
        <ele>1408.8</ele>
        <time>2021-09-19T08:16:02Z</time>
      </trkpt>
      <trkpt lat="42.76641" lon="1.53895">
        <ele>1409.2</ele>
        <time>2021-09-19T08:16:05Z</time>
      </trkpt>
      <trkpt lat="42.76641" lon="1.53893">
        <ele>1409.8</ele>
        <time>2021-09-19T08:16:08Z</time>
      </trkpt>
      <trkpt lat="42.76641" lon="1.53893">
        <ele>1410.2</ele>
        <time>2021-09-19T08:16:10Z</time>
      </trkpt>
      <trkpt lat="42.76638" lon="1.53887">
        <ele>1411</ele>
        <time>2021-09-19T08:16:16Z</time>
      </trkpt>
      <trkpt lat="42.76637" lon="1.53886">
        <ele>1411.2</ele>
        <time>2021-09-19T08:16:17Z</time>
      </trkpt>
      <trkpt lat="42.76637" lon="1.53882">
        <ele>1412.4</ele>
        <time>2021-09-19T08:16:25Z</time>
      </trkpt>
      <trkpt lat="42.76635" lon="1.53878">
        <ele>1413.6</ele>
        <time>2021-09-19T08:16:31Z</time>
      </trkpt>
      <trkpt lat="42.76634" lon="1.53877">
        <ele>1413.8</ele>
        <time>2021-09-19T08:16:33Z</time>
      </trkpt>
      <trkpt lat="42.76632" lon="1.53872">
        <ele>1414.8</ele>
        <time>2021-09-19T08:16:39Z</time>
      </trkpt>
      <trkpt lat="42.76632" lon="1.53871">
        <ele>1415</ele>
        <time>2021-09-19T08:16:40Z</time>
      </trkpt>
      <trkpt lat="42.76628" lon="1.53864">
        <ele>1415.6</ele>
        <time>2021-09-19T08:16:49Z</time>
      </trkpt>
      <trkpt lat="42.76628" lon="1.53863">
        <ele>1415.8</ele>
        <time>2021-09-19T08:16:50Z</time>
      </trkpt>
      <trkpt lat="42.76627" lon="1.53858">
        <ele>1416.8</ele>
        <time>2021-09-19T08:16:58Z</time>
      </trkpt>
      <trkpt lat="42.76625" lon="1.53852">
        <ele>1417.8</ele>
        <time>2021-09-19T08:17:05Z</time>
      </trkpt>
      <trkpt lat="42.76622" lon="1.53847">
        <ele>1419</ele>
        <time>2021-09-19T08:17:13Z</time>
      </trkpt>
      <trkpt lat="42.76622" lon="1.53842">
        <ele>1419.6</ele>
        <time>2021-09-19T08:17:20Z</time>
      </trkpt>
      <trkpt lat="42.76621" lon="1.5384">
        <ele>1420</ele>
        <time>2021-09-19T08:17:23Z</time>
      </trkpt>
      <trkpt lat="42.76621" lon="1.53838">
        <ele>1420.6</ele>
        <time>2021-09-19T08:17:27Z</time>
      </trkpt>
      <trkpt lat="42.76621" lon="1.53835">
        <ele>1421.2</ele>
        <time>2021-09-19T08:17:29Z</time>
      </trkpt>
      <trkpt lat="42.76619" lon="1.53828">
        <ele>1422.2</ele>
        <time>2021-09-19T08:17:34Z</time>
      </trkpt>
      <trkpt lat="42.76619" lon="1.53827">
        <ele>1422.2</ele>
        <time>2021-09-19T08:17:35Z</time>
      </trkpt>
      <trkpt lat="42.76617" lon="1.53823">
        <ele>1423</ele>
        <time>2021-09-19T08:17:42Z</time>
      </trkpt>
      <trkpt lat="42.76617" lon="1.53823">
        <ele>1423.4</ele>
        <time>2021-09-19T08:17:44Z</time>
      </trkpt>
      <trkpt lat="42.76616" lon="1.53818">
        <ele>1424.2</ele>
        <time>2021-09-19T08:17:50Z</time>
      </trkpt>
      <trkpt lat="42.76616" lon="1.53815">
        <ele>1424.4</ele>
        <time>2021-09-19T08:17:54Z</time>
      </trkpt>
      <trkpt lat="42.76615" lon="1.53813">
        <ele>1424.8</ele>
        <time>2021-09-19T08:17:56Z</time>
      </trkpt>
      <trkpt lat="42.76615" lon="1.5381">
        <ele>1425.6</ele>
        <time>2021-09-19T08:17:59Z</time>
      </trkpt>
      <trkpt lat="42.76614" lon="1.53806">
        <ele>1426.4</ele>
        <time>2021-09-19T08:18:04Z</time>
      </trkpt>
      <trkpt lat="42.76615" lon="1.53806">
        <ele>1426.6</ele>
        <time>2021-09-19T08:18:08Z</time>
      </trkpt>
      <trkpt lat="42.76616" lon="1.53806">
        <ele>1426.8</ele>
        <time>2021-09-19T08:18:10Z</time>
      </trkpt>
      <trkpt lat="42.7662" lon="1.53806">
        <ele>1427.6</ele>
        <time>2021-09-19T08:18:14Z</time>
      </trkpt>
      <trkpt lat="42.7662" lon="1.53806">
        <ele>1427.8</ele>
        <time>2021-09-19T08:18:15Z</time>
      </trkpt>
      <trkpt lat="42.76622" lon="1.53807">
        <ele>1427.8</ele>
        <time>2021-09-19T08:18:17Z</time>
      </trkpt>
      <trkpt lat="42.76624" lon="1.53811">
        <ele>1428.8</ele>
        <time>2021-09-19T08:18:24Z</time>
      </trkpt>
      <trkpt lat="42.76624" lon="1.53811">
        <ele>1428.8</ele>
        <time>2021-09-19T08:18:25Z</time>
      </trkpt>
      <trkpt lat="42.7662" lon="1.53811">
        <ele>1429.6</ele>
        <time>2021-09-19T08:18:31Z</time>
      </trkpt>
      <trkpt lat="42.7662" lon="1.5381">
        <ele>1430</ele>
        <time>2021-09-19T08:18:32Z</time>
      </trkpt>
      <trkpt lat="42.76621" lon="1.53808">
        <ele>1430.8</ele>
        <time>2021-09-19T08:18:36Z</time>
      </trkpt>
      <trkpt lat="42.76621" lon="1.53806">
        <ele>1431.4</ele>
        <time>2021-09-19T08:18:38Z</time>
      </trkpt>
      <trkpt lat="42.7662" lon="1.53803">
        <ele>1432.6</ele>
        <time>2021-09-19T08:18:42Z</time>
      </trkpt>
      <trkpt lat="42.76619" lon="1.53801">
        <ele>1432.8</ele>
        <time>2021-09-19T08:18:44Z</time>
      </trkpt>
      <trkpt lat="42.76618" lon="1.53797">
        <ele>1433.6</ele>
        <time>2021-09-19T08:18:49Z</time>
      </trkpt>
      <trkpt lat="42.76617" lon="1.53796">
        <ele>1433.8</ele>
        <time>2021-09-19T08:18:51Z</time>
      </trkpt>
      <trkpt lat="42.76616" lon="1.53795">
        <ele>1434.2</ele>
        <time>2021-09-19T08:18:55Z</time>
      </trkpt>
      <trkpt lat="42.76616" lon="1.53794">
        <ele>1434.6</ele>
        <time>2021-09-19T08:18:56Z</time>
      </trkpt>
      <trkpt lat="42.76614" lon="1.53791">
        <ele>1435</ele>
        <time>2021-09-19T08:18:58Z</time>
      </trkpt>
      <trkpt lat="42.76614" lon="1.53789">
        <ele>1435.4</ele>
        <time>2021-09-19T08:19:01Z</time>
      </trkpt>
      <trkpt lat="42.76614" lon="1.53788">
        <ele>1435.6</ele>
        <time>2021-09-19T08:19:03Z</time>
      </trkpt>
      <trkpt lat="42.76613" lon="1.53786">
        <ele>1436.6</ele>
        <time>2021-09-19T08:19:09Z</time>
      </trkpt>
      <trkpt lat="42.76613" lon="1.53783">
        <ele>1437.2</ele>
        <time>2021-09-19T08:19:12Z</time>
      </trkpt>
      <trkpt lat="42.76613" lon="1.53782">
        <ele>1437.6</ele>
        <time>2021-09-19T08:19:15Z</time>
      </trkpt>
      <trkpt lat="42.76613" lon="1.53781">
        <ele>1438</ele>
        <time>2021-09-19T08:19:16Z</time>
      </trkpt>
      <trkpt lat="42.76613" lon="1.53778">
        <ele>1438.6</ele>
        <time>2021-09-19T08:19:20Z</time>
      </trkpt>
      <trkpt lat="42.76612" lon="1.53777">
        <ele>1438.8</ele>
        <time>2021-09-19T08:19:21Z</time>
      </trkpt>
      <trkpt lat="42.76612" lon="1.53775">
        <ele>1439</ele>
        <time>2021-09-19T08:19:24Z</time>
      </trkpt>
      <trkpt lat="42.7661" lon="1.5377">
        <ele>1439.8</ele>
        <time>2021-09-19T08:19:30Z</time>
      </trkpt>
      <trkpt lat="42.7661" lon="1.53768">
        <ele>1439.8</ele>
        <time>2021-09-19T08:19:31Z</time>
      </trkpt>
      <trkpt lat="42.7661" lon="1.53763">
        <ele>1440.8</ele>
        <time>2021-09-19T08:19:39Z</time>
      </trkpt>
      <trkpt lat="42.76608" lon="1.5376">
        <ele>1441.8</ele>
        <time>2021-09-19T08:19:46Z</time>
      </trkpt>
      <trkpt lat="42.76606" lon="1.53755">
        <ele>1443</ele>
        <time>2021-09-19T08:19:50Z</time>
      </trkpt>
      <trkpt lat="42.76605" lon="1.53754">
        <ele>1443.6</ele>
        <time>2021-09-19T08:19:54Z</time>
      </trkpt>
      <trkpt lat="42.76604" lon="1.53753">
        <ele>1444</ele>
        <time>2021-09-19T08:19:59Z</time>
      </trkpt>
      <trkpt lat="42.76604" lon="1.53753">
        <ele>1444</ele>
        <time>2021-09-19T08:20:00Z</time>
      </trkpt>
      <trkpt lat="42.76602" lon="1.53751">
        <ele>1445.2</ele>
        <time>2021-09-19T08:20:06Z</time>
      </trkpt>
      <trkpt lat="42.76602" lon="1.53749">
        <ele>1445.4</ele>
        <time>2021-09-19T08:20:08Z</time>
      </trkpt>
      <trkpt lat="42.76602" lon="1.53748">
        <ele>1446.4</ele>
        <time>2021-09-19T08:20:11Z</time>
      </trkpt>
      <trkpt lat="42.76602" lon="1.53745">
        <ele>1447.4</ele>
        <time>2021-09-19T08:20:17Z</time>
      </trkpt>
      <trkpt lat="42.76602" lon="1.53744">
        <ele>1447.6</ele>
        <time>2021-09-19T08:20:18Z</time>
      </trkpt>
      <trkpt lat="42.766" lon="1.5374">
        <ele>1448.6</ele>
        <time>2021-09-19T08:20:23Z</time>
      </trkpt>
      <trkpt lat="42.76598" lon="1.53739">
        <ele>1449.2</ele>
        <time>2021-09-19T08:20:26Z</time>
      </trkpt>
      <trkpt lat="42.76596" lon="1.53737">
        <ele>1449.6</ele>
        <time>2021-09-19T08:20:30Z</time>
      </trkpt>
      <trkpt lat="42.76595" lon="1.53733">
        <ele>1450.4</ele>
        <time>2021-09-19T08:20:34Z</time>
      </trkpt>
      <trkpt lat="42.76594" lon="1.53731">
        <ele>1450.8</ele>
        <time>2021-09-19T08:20:36Z</time>
      </trkpt>
      <trkpt lat="42.76594" lon="1.53729">
        <ele>1451.6</ele>
        <time>2021-09-19T08:20:41Z</time>
      </trkpt>
      <trkpt lat="42.76594" lon="1.53728">
        <ele>1451.8</ele>
        <time>2021-09-19T08:20:42Z</time>
      </trkpt>
      <trkpt lat="42.76592" lon="1.53726">
        <ele>1452.6</ele>
        <time>2021-09-19T08:20:47Z</time>
      </trkpt>
      <trkpt lat="42.76592" lon="1.53726">
        <ele>1452.8</ele>
        <time>2021-09-19T08:20:48Z</time>
      </trkpt>
      <trkpt lat="42.76589" lon="1.53721">
        <ele>1454</ele>
        <time>2021-09-19T08:20:54Z</time>
      </trkpt>
      <trkpt lat="42.76589" lon="1.5372">
        <ele>1454.2</ele>
        <time>2021-09-19T08:20:55Z</time>
      </trkpt>
      <trkpt lat="42.76588" lon="1.53719">
        <ele>1454.8</ele>
        <time>2021-09-19T08:20:58Z</time>
      </trkpt>
      <trkpt lat="42.76587" lon="1.53717">
        <ele>1455.2</ele>
        <time>2021-09-19T08:21:00Z</time>
      </trkpt>
      <trkpt lat="42.76586" lon="1.53714">
        <ele>1456</ele>
        <time>2021-09-19T08:21:03Z</time>
      </trkpt>
      <trkpt lat="42.76585" lon="1.53713">
        <ele>1456.4</ele>
        <time>2021-09-19T08:21:05Z</time>
      </trkpt>
      <trkpt lat="42.76583" lon="1.53713">
        <ele>1456.6</ele>
        <time>2021-09-19T08:21:10Z</time>
      </trkpt>
      <trkpt lat="42.76581" lon="1.53711">
        <ele>1457.6</ele>
        <time>2021-09-19T08:21:15Z</time>
      </trkpt>
      <trkpt lat="42.76581" lon="1.53711">
        <ele>1457.8</ele>
        <time>2021-09-19T08:21:16Z</time>
      </trkpt>
      <trkpt lat="42.76578" lon="1.53708">
        <ele>1458.6</ele>
        <time>2021-09-19T08:21:23Z</time>
      </trkpt>
      <trkpt lat="42.76578" lon="1.53707">
        <ele>1458.8</ele>
        <time>2021-09-19T08:21:24Z</time>
      </trkpt>
      <trkpt lat="42.76576" lon="1.53707">
        <ele>1459.2</ele>
        <time>2021-09-19T08:21:26Z</time>
      </trkpt>
      <trkpt lat="42.76574" lon="1.53705">
        <ele>1459.6</ele>
        <time>2021-09-19T08:21:29Z</time>
      </trkpt>
      <trkpt lat="42.76574" lon="1.53704">
        <ele>1459.6</ele>
        <time>2021-09-19T08:21:31Z</time>
      </trkpt>
      <trkpt lat="42.76573" lon="1.53703">
        <ele>1459.8</ele>
        <time>2021-09-19T08:21:32Z</time>
      </trkpt>
      <trkpt lat="42.76572" lon="1.53702">
        <ele>1460.2</ele>
        <time>2021-09-19T08:21:35Z</time>
      </trkpt>
      <trkpt lat="42.76571" lon="1.53701">
        <ele>1460.2</ele>
        <time>2021-09-19T08:21:36Z</time>
      </trkpt>
      <trkpt lat="42.76571" lon="1.537">
        <ele>1461</ele>
        <time>2021-09-19T08:21:38Z</time>
      </trkpt>
      <trkpt lat="42.7657" lon="1.53699">
        <ele>1461.2</ele>
        <time>2021-09-19T08:21:40Z</time>
      </trkpt>
      <trkpt lat="42.76569" lon="1.53695">
        <ele>1462</ele>
        <time>2021-09-19T08:21:45Z</time>
      </trkpt>
      <trkpt lat="42.76568" lon="1.53693">
        <ele>1462.6</ele>
        <time>2021-09-19T08:21:48Z</time>
      </trkpt>
      <trkpt lat="42.76567" lon="1.53692">
        <ele>1462.6</ele>
        <time>2021-09-19T08:21:49Z</time>
      </trkpt>
      <trkpt lat="42.76567" lon="1.53691">
        <ele>1463</ele>
        <time>2021-09-19T08:21:51Z</time>
      </trkpt>
      <trkpt lat="42.76566" lon="1.5369">
        <ele>1463</ele>
        <time>2021-09-19T08:21:52Z</time>
      </trkpt>
      <trkpt lat="42.76566" lon="1.53689">
        <ele>1463.6</ele>
        <time>2021-09-19T08:21:55Z</time>
      </trkpt>
      <trkpt lat="42.76566" lon="1.53687">
        <ele>1464.4</ele>
        <time>2021-09-19T08:21:59Z</time>
      </trkpt>
      <trkpt lat="42.76567" lon="1.53687">
        <ele>1464.4</ele>
        <time>2021-09-19T08:22:00Z</time>
      </trkpt>
      <trkpt lat="42.76567" lon="1.53687">
        <ele>1464.6</ele>
        <time>2021-09-19T08:22:02Z</time>
      </trkpt>
      <trkpt lat="42.76564" lon="1.53684">
        <ele>1465.4</ele>
        <time>2021-09-19T08:22:07Z</time>
      </trkpt>
      <trkpt lat="42.76563" lon="1.53684">
        <ele>1465.8</ele>
        <time>2021-09-19T08:22:08Z</time>
      </trkpt>
      <trkpt lat="42.76561" lon="1.53681">
        <ele>1466.4</ele>
        <time>2021-09-19T08:22:11Z</time>
      </trkpt>
      <trkpt lat="42.7656" lon="1.5368">
        <ele>1466.6</ele>
        <time>2021-09-19T08:22:13Z</time>
      </trkpt>
      <trkpt lat="42.76558" lon="1.53678">
        <ele>1467.4</ele>
        <time>2021-09-19T08:22:16Z</time>
      </trkpt>
      <trkpt lat="42.76558" lon="1.53677">
        <ele>1467.6</ele>
        <time>2021-09-19T08:22:17Z</time>
      </trkpt>
      <trkpt lat="42.76551" lon="1.53675">
        <ele>1468.6</ele>
        <time>2021-09-19T08:22:25Z</time>
      </trkpt>
      <trkpt lat="42.76551" lon="1.53674">
        <ele>1468.6</ele>
        <time>2021-09-19T08:22:26Z</time>
      </trkpt>
      <trkpt lat="42.7655" lon="1.53671">
        <ele>1469</ele>
        <time>2021-09-19T08:22:29Z</time>
      </trkpt>
      <trkpt lat="42.7655" lon="1.53669">
        <ele>1469.6</ele>
        <time>2021-09-19T08:22:34Z</time>
      </trkpt>
      <trkpt lat="42.76548" lon="1.53666">
        <ele>1470.4</ele>
        <time>2021-09-19T08:22:39Z</time>
      </trkpt>
      <trkpt lat="42.76548" lon="1.53665">
        <ele>1470.6</ele>
        <time>2021-09-19T08:22:40Z</time>
      </trkpt>
      <trkpt lat="42.76548" lon="1.53664">
        <ele>1471</ele>
        <time>2021-09-19T08:22:41Z</time>
      </trkpt>
      <trkpt lat="42.76545" lon="1.5366">
        <ele>1471.8</ele>
        <time>2021-09-19T08:22:46Z</time>
      </trkpt>
      <trkpt lat="42.76545" lon="1.53659">
        <ele>1472</ele>
        <time>2021-09-19T08:22:47Z</time>
      </trkpt>
      <trkpt lat="42.76544" lon="1.53658">
        <ele>1472.2</ele>
        <time>2021-09-19T08:22:48Z</time>
      </trkpt>
      <trkpt lat="42.76544" lon="1.53658">
        <ele>1472.4</ele>
        <time>2021-09-19T08:22:49Z</time>
      </trkpt>
      <trkpt lat="42.76542" lon="1.53656">
        <ele>1473</ele>
        <time>2021-09-19T08:22:53Z</time>
      </trkpt>
      <trkpt lat="42.76541" lon="1.53655">
        <ele>1473.4</ele>
        <time>2021-09-19T08:22:55Z</time>
      </trkpt>
      <trkpt lat="42.7654" lon="1.53654">
        <ele>1473.8</ele>
        <time>2021-09-19T08:22:57Z</time>
      </trkpt>
      <trkpt lat="42.76539" lon="1.53654">
        <ele>1474</ele>
        <time>2021-09-19T08:22:59Z</time>
      </trkpt>
      <trkpt lat="42.76537" lon="1.53651">
        <ele>1474.8</ele>
        <time>2021-09-19T08:23:05Z</time>
      </trkpt>
      <trkpt lat="42.76537" lon="1.5365">
        <ele>1475.2</ele>
        <time>2021-09-19T08:23:07Z</time>
      </trkpt>
      <trkpt lat="42.76535" lon="1.53647">
        <ele>1476</ele>
        <time>2021-09-19T08:23:13Z</time>
      </trkpt>
      <trkpt lat="42.76534" lon="1.53647">
        <ele>1476.2</ele>
        <time>2021-09-19T08:23:14Z</time>
      </trkpt>
      <trkpt lat="42.76532" lon="1.53644">
        <ele>1477.2</ele>
        <time>2021-09-19T08:23:20Z</time>
      </trkpt>
      <trkpt lat="42.7653" lon="1.53641">
        <ele>1478.4</ele>
        <time>2021-09-19T08:23:25Z</time>
      </trkpt>
      <trkpt lat="42.76528" lon="1.5364">
        <ele>1478.6</ele>
        <time>2021-09-19T08:23:28Z</time>
      </trkpt>
      <trkpt lat="42.76529" lon="1.5364">
        <ele>1479.2</ele>
        <time>2021-09-19T08:23:35Z</time>
      </trkpt>
      <trkpt lat="42.76526" lon="1.53636">
        <ele>1479.2</ele>
        <time>2021-09-19T08:23:42Z</time>
      </trkpt>
      <trkpt lat="42.76525" lon="1.53635">
        <ele>1479.6</ele>
        <time>2021-09-19T08:23:45Z</time>
      </trkpt>
      <trkpt lat="42.76522" lon="1.53633">
        <ele>1480</ele>
        <time>2021-09-19T08:23:49Z</time>
      </trkpt>
      <trkpt lat="42.7652" lon="1.53632">
        <ele>1480.6</ele>
        <time>2021-09-19T08:23:53Z</time>
      </trkpt>
      <trkpt lat="42.76519" lon="1.53628">
        <ele>1481.2</ele>
        <time>2021-09-19T08:23:58Z</time>
      </trkpt>
      <trkpt lat="42.76518" lon="1.53624">
        <ele>1482</ele>
        <time>2021-09-19T08:24:01Z</time>
      </trkpt>
      <trkpt lat="42.76517" lon="1.53621">
        <ele>1482.4</ele>
        <time>2021-09-19T08:24:04Z</time>
      </trkpt>
      <trkpt lat="42.76515" lon="1.53619">
        <ele>1483.2</ele>
        <time>2021-09-19T08:24:09Z</time>
      </trkpt>
      <trkpt lat="42.76515" lon="1.53618">
        <ele>1483.4</ele>
        <time>2021-09-19T08:24:10Z</time>
      </trkpt>
      <trkpt lat="42.76513" lon="1.53617">
        <ele>1484.2</ele>
        <time>2021-09-19T08:24:14Z</time>
      </trkpt>
      <trkpt lat="42.76512" lon="1.53615">
        <ele>1484.6</ele>
        <time>2021-09-19T08:24:17Z</time>
      </trkpt>
      <trkpt lat="42.76513" lon="1.53614">
        <ele>1485.2</ele>
        <time>2021-09-19T08:24:20Z</time>
      </trkpt>
      <trkpt lat="42.76509" lon="1.5361">
        <ele>1486.2</ele>
        <time>2021-09-19T08:24:25Z</time>
      </trkpt>
      <trkpt lat="42.76509" lon="1.5361">
        <ele>1486.4</ele>
        <time>2021-09-19T08:24:26Z</time>
      </trkpt>
      <trkpt lat="42.76504" lon="1.53602">
        <ele>1487</ele>
        <time>2021-09-19T08:24:35Z</time>
      </trkpt>
      <trkpt lat="42.76503" lon="1.53601">
        <ele>1487.4</ele>
        <time>2021-09-19T08:24:37Z</time>
      </trkpt>
      <trkpt lat="42.76502" lon="1.53599">
        <ele>1488</ele>
        <time>2021-09-19T08:24:41Z</time>
      </trkpt>
      <trkpt lat="42.76502" lon="1.53597">
        <ele>1488.4</ele>
        <time>2021-09-19T08:24:43Z</time>
      </trkpt>
      <trkpt lat="42.76501" lon="1.53596">
        <ele>1488.6</ele>
        <time>2021-09-19T08:24:44Z</time>
      </trkpt>
      <trkpt lat="42.765" lon="1.53593">
        <ele>1489</ele>
        <time>2021-09-19T08:24:49Z</time>
      </trkpt>
      <trkpt lat="42.76496" lon="1.5359">
        <ele>1489.4</ele>
        <time>2021-09-19T08:24:55Z</time>
      </trkpt>
      <trkpt lat="42.76495" lon="1.53589">
        <ele>1489.8</ele>
        <time>2021-09-19T08:24:57Z</time>
      </trkpt>
      <trkpt lat="42.76492" lon="1.53585">
        <ele>1490.8</ele>
        <time>2021-09-19T08:25:02Z</time>
      </trkpt>
      <trkpt lat="42.76491" lon="1.53584">
        <ele>1491</ele>
        <time>2021-09-19T08:25:03Z</time>
      </trkpt>
      <trkpt lat="42.76488" lon="1.5358">
        <ele>1492</ele>
        <time>2021-09-19T08:25:09Z</time>
      </trkpt>
      <trkpt lat="42.76487" lon="1.5358">
        <ele>1492.4</ele>
        <time>2021-09-19T08:25:15Z</time>
      </trkpt>
      <trkpt lat="42.76486" lon="1.53579">
        <ele>1492.6</ele>
        <time>2021-09-19T08:25:16Z</time>
      </trkpt>
      <trkpt lat="42.76484" lon="1.53575">
        <ele>1493</ele>
        <time>2021-09-19T08:25:20Z</time>
      </trkpt>
      <trkpt lat="42.76484" lon="1.53574">
        <ele>1493</ele>
        <time>2021-09-19T08:25:22Z</time>
      </trkpt>
      <trkpt lat="42.76483" lon="1.5357">
        <ele>1493.6</ele>
        <time>2021-09-19T08:25:28Z</time>
      </trkpt>
      <trkpt lat="42.76482" lon="1.53569">
        <ele>1494.2</ele>
        <time>2021-09-19T08:25:30Z</time>
      </trkpt>
      <trkpt lat="42.7648" lon="1.53563">
        <ele>1494.8</ele>
        <time>2021-09-19T08:25:36Z</time>
      </trkpt>
      <trkpt lat="42.76478" lon="1.53563">
        <ele>1495.4</ele>
        <time>2021-09-19T08:25:38Z</time>
      </trkpt>
      <trkpt lat="42.76476" lon="1.53562">
        <ele>1496.4</ele>
        <time>2021-09-19T08:25:43Z</time>
      </trkpt>
      <trkpt lat="42.76474" lon="1.53555">
        <ele>1497</ele>
        <time>2021-09-19T08:25:52Z</time>
      </trkpt>
      <trkpt lat="42.76474" lon="1.53555">
        <ele>1497.6</ele>
        <time>2021-09-19T08:25:53Z</time>
      </trkpt>
      <trkpt lat="42.76471" lon="1.53551">
        <ele>1498.6</ele>
        <time>2021-09-19T08:26:00Z</time>
      </trkpt>
      <trkpt lat="42.76471" lon="1.53551">
        <ele>1498.6</ele>
        <time>2021-09-19T08:26:01Z</time>
      </trkpt>
      <trkpt lat="42.76468" lon="1.5355">
        <ele>1499.8</ele>
        <time>2021-09-19T08:26:06Z</time>
      </trkpt>
      <trkpt lat="42.76467" lon="1.5355">
        <ele>1499.8</ele>
        <time>2021-09-19T08:26:07Z</time>
      </trkpt>
      <trkpt lat="42.76465" lon="1.53546">
        <ele>1500.8</ele>
        <time>2021-09-19T08:26:12Z</time>
      </trkpt>
      <trkpt lat="42.76465" lon="1.53543">
        <ele>1501.4</ele>
        <time>2021-09-19T08:26:15Z</time>
      </trkpt>
      <trkpt lat="42.76463" lon="1.53542">
        <ele>1502</ele>
        <time>2021-09-19T08:26:19Z</time>
      </trkpt>
      <trkpt lat="42.76464" lon="1.53543">
        <ele>1502.2</ele>
        <time>2021-09-19T08:26:23Z</time>
      </trkpt>
      <trkpt lat="42.76462" lon="1.53543">
        <ele>1503</ele>
        <time>2021-09-19T08:26:28Z</time>
      </trkpt>
      <trkpt lat="42.76461" lon="1.53542">
        <ele>1503.6</ele>
        <time>2021-09-19T08:26:29Z</time>
      </trkpt>
      <trkpt lat="42.7646" lon="1.53541">
        <ele>1504</ele>
        <time>2021-09-19T08:26:31Z</time>
      </trkpt>
      <trkpt lat="42.76456" lon="1.53534">
        <ele>1504.4</ele>
        <time>2021-09-19T08:26:38Z</time>
      </trkpt>
      <trkpt lat="42.76455" lon="1.53531">
        <ele>1505.2</ele>
        <time>2021-09-19T08:26:42Z</time>
      </trkpt>
      <trkpt lat="42.76454" lon="1.53529">
        <ele>1505.8</ele>
        <time>2021-09-19T08:26:45Z</time>
      </trkpt>
      <trkpt lat="42.76454" lon="1.53527">
        <ele>1506.2</ele>
        <time>2021-09-19T08:26:47Z</time>
      </trkpt>
      <trkpt lat="42.76452" lon="1.53523">
        <ele>1507.4</ele>
        <time>2021-09-19T08:26:55Z</time>
      </trkpt>
      <trkpt lat="42.76452" lon="1.53522">
        <ele>1507.6</ele>
        <time>2021-09-19T08:26:56Z</time>
      </trkpt>
      <trkpt lat="42.76451" lon="1.53518">
        <ele>1508.6</ele>
        <time>2021-09-19T08:27:00Z</time>
      </trkpt>
      <trkpt lat="42.76449" lon="1.53516">
        <ele>1509.2</ele>
        <time>2021-09-19T08:27:03Z</time>
      </trkpt>
      <trkpt lat="42.76448" lon="1.53516">
        <ele>1509.6</ele>
        <time>2021-09-19T08:27:05Z</time>
      </trkpt>
      <trkpt lat="42.76444" lon="1.53517">
        <ele>1510.6</ele>
        <time>2021-09-19T08:27:09Z</time>
      </trkpt>
      <trkpt lat="42.76444" lon="1.53517">
        <ele>1510.6</ele>
        <time>2021-09-19T08:27:10Z</time>
      </trkpt>
      <trkpt lat="42.76443" lon="1.53517">
        <ele>1510.6</ele>
        <time>2021-09-19T08:27:11Z</time>
      </trkpt>
      <trkpt lat="42.76436" lon="1.53513">
        <ele>1511.4</ele>
        <time>2021-09-19T08:27:20Z</time>
      </trkpt>
      <trkpt lat="42.76435" lon="1.53511">
        <ele>1511.8</ele>
        <time>2021-09-19T08:27:22Z</time>
      </trkpt>
      <trkpt lat="42.76434" lon="1.5351">
        <ele>1512</ele>
        <time>2021-09-19T08:27:23Z</time>
      </trkpt>
      <trkpt lat="42.76433" lon="1.53508">
        <ele>1512.4</ele>
        <time>2021-09-19T08:27:26Z</time>
      </trkpt>
      <trkpt lat="42.76433" lon="1.53508">
        <ele>1512.6</ele>
        <time>2021-09-19T08:27:28Z</time>
      </trkpt>
      <trkpt lat="42.76432" lon="1.53508">
        <ele>1512.8</ele>
        <time>2021-09-19T08:27:30Z</time>
      </trkpt>
      <trkpt lat="42.76432" lon="1.53509">
        <ele>1512.8</ele>
        <time>2021-09-19T08:27:31Z</time>
      </trkpt>
      <trkpt lat="42.76432" lon="1.53509">
        <ele>1512.8</ele>
        <time>2021-09-19T08:27:36Z</time>
      </trkpt>
      <trkpt lat="42.76433" lon="1.5351">
        <ele>1512.4</ele>
        <time>2021-09-19T08:27:39Z</time>
      </trkpt>
      <trkpt lat="42.76434" lon="1.53509">
        <ele>1512.4</ele>
        <time>2021-09-19T08:27:42Z</time>
      </trkpt>
      <trkpt lat="42.76437" lon="1.53505">
        <ele>1512.4</ele>
        <time>2021-09-19T08:27:51Z</time>
      </trkpt>
      <trkpt lat="42.76441" lon="1.53503">
        <ele>1512.2</ele>
        <time>2021-09-19T08:27:57Z</time>
      </trkpt>
      <trkpt lat="42.76442" lon="1.53502">
        <ele>1512</ele>
        <time>2021-09-19T08:27:59Z</time>
      </trkpt>
      <trkpt lat="42.76444" lon="1.535">
        <ele>1511.8</ele>
        <time>2021-09-19T08:28:03Z</time>
      </trkpt>
      <trkpt lat="42.76444" lon="1.535">
        <ele>1511.8</ele>
        <time>2021-09-19T08:28:04Z</time>
      </trkpt>
      <trkpt lat="42.76445" lon="1.53499">
        <ele>1511.8</ele>
        <time>2021-09-19T08:28:08Z</time>
      </trkpt>
      <trkpt lat="42.76444" lon="1.53498">
        <ele>1511.6</ele>
        <time>2021-09-19T08:28:09Z</time>
      </trkpt>
      <trkpt lat="42.76443" lon="1.53498">
        <ele>1511.8</ele>
        <time>2021-09-19T08:28:12Z</time>
      </trkpt>
      <trkpt lat="42.76442" lon="1.53498">
        <ele>1512.2</ele>
        <time>2021-09-19T08:28:18Z</time>
      </trkpt>
      <trkpt lat="42.76437" lon="1.535">
        <ele>1511.6</ele>
        <time>2021-09-19T08:28:25Z</time>
      </trkpt>
      <trkpt lat="42.76434" lon="1.53504">
        <ele>1511.2</ele>
        <time>2021-09-19T08:28:32Z</time>
      </trkpt>
      <trkpt lat="42.76434" lon="1.53501">
        <ele>1512.2</ele>
        <time>2021-09-19T08:28:39Z</time>
      </trkpt>
      <trkpt lat="42.76433" lon="1.53501">
        <ele>1512.4</ele>
        <time>2021-09-19T08:28:41Z</time>
      </trkpt>
      <trkpt lat="42.76434" lon="1.53501">
        <ele>1512.6</ele>
        <time>2021-09-19T08:28:43Z</time>
      </trkpt>
      <trkpt lat="42.76435" lon="1.535">
        <ele>1512.6</ele>
        <time>2021-09-19T08:28:45Z</time>
      </trkpt>
      <trkpt lat="42.76436" lon="1.535">
        <ele>1512.6</ele>
        <time>2021-09-19T08:28:46Z</time>
      </trkpt>
      <trkpt lat="42.76436" lon="1.535">
        <ele>1512.8</ele>
        <time>2021-09-19T08:28:47Z</time>
      </trkpt>
      <trkpt lat="42.76434" lon="1.53497">
        <ele>1513.4</ele>
        <time>2021-09-19T08:28:53Z</time>
      </trkpt>
      <trkpt lat="42.76433" lon="1.53497">
        <ele>1514</ele>
        <time>2021-09-19T08:28:55Z</time>
      </trkpt>
      <trkpt lat="42.76428" lon="1.53493">
        <ele>1515</ele>
        <time>2021-09-19T08:29:02Z</time>
      </trkpt>
      <trkpt lat="42.76427" lon="1.53492">
        <ele>1515.4</ele>
        <time>2021-09-19T08:29:04Z</time>
      </trkpt>
      <trkpt lat="42.76427" lon="1.53489">
        <ele>1515.8</ele>
        <time>2021-09-19T08:29:06Z</time>
      </trkpt>
      <trkpt lat="42.76426" lon="1.53486">
        <ele>1516</ele>
        <time>2021-09-19T08:29:08Z</time>
      </trkpt>
      <trkpt lat="42.76425" lon="1.53482">
        <ele>1516.8</ele>
        <time>2021-09-19T08:29:12Z</time>
      </trkpt>
      <trkpt lat="42.76425" lon="1.53479">
        <ele>1517</ele>
        <time>2021-09-19T08:29:15Z</time>
      </trkpt>
      <trkpt lat="42.76425" lon="1.53475">
        <ele>1517.4</ele>
        <time>2021-09-19T08:29:21Z</time>
      </trkpt>
      <trkpt lat="42.76425" lon="1.53472">
        <ele>1518</ele>
        <time>2021-09-19T08:29:26Z</time>
      </trkpt>
      <trkpt lat="42.76425" lon="1.53471">
        <ele>1518.2</ele>
        <time>2021-09-19T08:29:28Z</time>
      </trkpt>
      <trkpt lat="42.76425" lon="1.53469">
        <ele>1519.4</ele>
        <time>2021-09-19T08:29:33Z</time>
      </trkpt>
      <trkpt lat="42.76423" lon="1.53466">
        <ele>1520</ele>
        <time>2021-09-19T08:29:38Z</time>
      </trkpt>
      <trkpt lat="42.76421" lon="1.53462">
        <ele>1520.4</ele>
        <time>2021-09-19T08:29:44Z</time>
      </trkpt>
      <trkpt lat="42.7642" lon="1.53459">
        <ele>1521.2</ele>
        <time>2021-09-19T08:29:47Z</time>
      </trkpt>
      <trkpt lat="42.7642" lon="1.53457">
        <ele>1521.6</ele>
        <time>2021-09-19T08:29:49Z</time>
      </trkpt>
      <trkpt lat="42.76419" lon="1.53453">
        <ele>1522.2</ele>
        <time>2021-09-19T08:29:54Z</time>
      </trkpt>
      <trkpt lat="42.76418" lon="1.53452">
        <ele>1522.8</ele>
        <time>2021-09-19T08:29:57Z</time>
      </trkpt>
      <trkpt lat="42.76417" lon="1.5345">
        <ele>1523.8</ele>
        <time>2021-09-19T08:30:02Z</time>
      </trkpt>
      <trkpt lat="42.76415" lon="1.53446">
        <ele>1524.8</ele>
        <time>2021-09-19T08:30:07Z</time>
      </trkpt>
      <trkpt lat="42.76414" lon="1.53443">
        <ele>1525.2</ele>
        <time>2021-09-19T08:30:10Z</time>
      </trkpt>
      <trkpt lat="42.76412" lon="1.5344">
        <ele>1526</ele>
        <time>2021-09-19T08:30:15Z</time>
      </trkpt>
      <trkpt lat="42.76411" lon="1.5344">
        <ele>1526</ele>
        <time>2021-09-19T08:30:17Z</time>
      </trkpt>
      <trkpt lat="42.7641" lon="1.53436">
        <ele>1526.8</ele>
        <time>2021-09-19T08:30:25Z</time>
      </trkpt>
      <trkpt lat="42.7641" lon="1.53436">
        <ele>1527</ele>
        <time>2021-09-19T08:30:26Z</time>
      </trkpt>
      <trkpt lat="42.76409" lon="1.53433">
        <ele>1528.4</ele>
        <time>2021-09-19T08:30:30Z</time>
      </trkpt>
      <trkpt lat="42.76406" lon="1.53431">
        <ele>1529</ele>
        <time>2021-09-19T08:30:33Z</time>
      </trkpt>
      <trkpt lat="42.76405" lon="1.5343">
        <ele>1529.4</ele>
        <time>2021-09-19T08:30:35Z</time>
      </trkpt>
      <trkpt lat="42.76404" lon="1.53429">
        <ele>1529.4</ele>
        <time>2021-09-19T08:30:36Z</time>
      </trkpt>
      <trkpt lat="42.76403" lon="1.53427">
        <ele>1529.4</ele>
        <time>2021-09-19T08:30:39Z</time>
      </trkpt>
      <trkpt lat="42.764" lon="1.53422">
        <ele>1529.6</ele>
        <time>2021-09-19T08:30:43Z</time>
      </trkpt>
      <trkpt lat="42.76398" lon="1.53418">
        <ele>1529.8</ele>
        <time>2021-09-19T08:30:46Z</time>
      </trkpt>
      <trkpt lat="42.76396" lon="1.53415">
        <ele>1530.2</ele>
        <time>2021-09-19T08:30:48Z</time>
      </trkpt>
      <trkpt lat="42.76394" lon="1.53409">
        <ele>1530.4</ele>
        <time>2021-09-19T08:30:53Z</time>
      </trkpt>
      <trkpt lat="42.76393" lon="1.53408">
        <ele>1530.6</ele>
        <time>2021-09-19T08:30:55Z</time>
      </trkpt>
      <trkpt lat="42.76389" lon="1.53402">
        <ele>1531.2</ele>
        <time>2021-09-19T08:31:00Z</time>
      </trkpt>
      <trkpt lat="42.76387" lon="1.534">
        <ele>1531.4</ele>
        <time>2021-09-19T08:31:02Z</time>
      </trkpt>
      <trkpt lat="42.76386" lon="1.53399">
        <ele>1531.6</ele>
        <time>2021-09-19T08:31:04Z</time>
      </trkpt>
      <trkpt lat="42.76384" lon="1.53398">
        <ele>1532.2</ele>
        <time>2021-09-19T08:31:07Z</time>
      </trkpt>
      <trkpt lat="42.76384" lon="1.53398">
        <ele>1532.6</ele>
        <time>2021-09-19T08:31:08Z</time>
      </trkpt>
      <trkpt lat="42.76383" lon="1.53395">
        <ele>1533.4</ele>
        <time>2021-09-19T08:31:11Z</time>
      </trkpt>
      <trkpt lat="42.76382" lon="1.53394">
        <ele>1533.8</ele>
        <time>2021-09-19T08:31:13Z</time>
      </trkpt>
      <trkpt lat="42.76382" lon="1.53394">
        <ele>1534</ele>
        <time>2021-09-19T08:31:14Z</time>
      </trkpt>
      <trkpt lat="42.76382" lon="1.53394">
        <ele>1534.2</ele>
        <time>2021-09-19T08:31:15Z</time>
      </trkpt>
      <trkpt lat="42.76381" lon="1.53392">
        <ele>1534.8</ele>
        <time>2021-09-19T08:31:18Z</time>
      </trkpt>
      <trkpt lat="42.76381" lon="1.53392">
        <ele>1535.2</ele>
        <time>2021-09-19T08:31:19Z</time>
      </trkpt>
      <trkpt lat="42.76382" lon="1.5339">
        <ele>1535.8</ele>
        <time>2021-09-19T08:31:22Z</time>
      </trkpt>
      <trkpt lat="42.76381" lon="1.5339">
        <ele>1536</ele>
        <time>2021-09-19T08:31:24Z</time>
      </trkpt>
      <trkpt lat="42.7638" lon="1.53383">
        <ele>1537</ele>
        <time>2021-09-19T08:31:32Z</time>
      </trkpt>
      <trkpt lat="42.76378" lon="1.5338">
        <ele>1537.6</ele>
        <time>2021-09-19T08:31:35Z</time>
      </trkpt>
      <trkpt lat="42.76376" lon="1.53378">
        <ele>1538.2</ele>
        <time>2021-09-19T08:31:38Z</time>
      </trkpt>
      <trkpt lat="42.76375" lon="1.53375">
        <ele>1538.4</ele>
        <time>2021-09-19T08:31:40Z</time>
      </trkpt>
      <trkpt lat="42.76371" lon="1.53371">
        <ele>1538.6</ele>
        <time>2021-09-19T08:31:45Z</time>
      </trkpt>
      <trkpt lat="42.76369" lon="1.53369">
        <ele>1538.8</ele>
        <time>2021-09-19T08:31:48Z</time>
      </trkpt>
      <trkpt lat="42.76367" lon="1.53364">
        <ele>1539.2</ele>
        <time>2021-09-19T08:31:52Z</time>
      </trkpt>
      <trkpt lat="42.76367" lon="1.53363">
        <ele>1539.4</ele>
        <time>2021-09-19T08:31:53Z</time>
      </trkpt>
      <trkpt lat="42.76365" lon="1.5336">
        <ele>1539.8</ele>
        <time>2021-09-19T08:31:56Z</time>
      </trkpt>
      <trkpt lat="42.76365" lon="1.53359">
        <ele>1540</ele>
        <time>2021-09-19T08:31:57Z</time>
      </trkpt>
      <trkpt lat="42.76364" lon="1.53357">
        <ele>1540.4</ele>
        <time>2021-09-19T08:31:59Z</time>
      </trkpt>
      <trkpt lat="42.76361" lon="1.53356">
        <ele>1541</ele>
        <time>2021-09-19T08:32:03Z</time>
      </trkpt>
      <trkpt lat="42.76359" lon="1.53355">
        <ele>1541.2</ele>
        <time>2021-09-19T08:32:05Z</time>
      </trkpt>
      <trkpt lat="42.76358" lon="1.53355">
        <ele>1541.4</ele>
        <time>2021-09-19T08:32:06Z</time>
      </trkpt>
      <trkpt lat="42.76355" lon="1.53354">
        <ele>1541.6</ele>
        <time>2021-09-19T08:32:09Z</time>
      </trkpt>
      <trkpt lat="42.76353" lon="1.53353">
        <ele>1541.8</ele>
        <time>2021-09-19T08:32:12Z</time>
      </trkpt>
      <trkpt lat="42.76352" lon="1.53351">
        <ele>1542.6</ele>
        <time>2021-09-19T08:32:16Z</time>
      </trkpt>
      <trkpt lat="42.76352" lon="1.53349">
        <ele>1543.2</ele>
        <time>2021-09-19T08:32:19Z</time>
      </trkpt>
      <trkpt lat="42.76347" lon="1.53348">
        <ele>1543.8</ele>
        <time>2021-09-19T08:32:26Z</time>
      </trkpt>
      <trkpt lat="42.76344" lon="1.53347">
        <ele>1544.8</ele>
        <time>2021-09-19T08:32:34Z</time>
      </trkpt>
      <trkpt lat="42.76343" lon="1.53348">
        <ele>1544.8</ele>
        <time>2021-09-19T08:32:35Z</time>
      </trkpt>
      <trkpt lat="42.76341" lon="1.53347">
        <ele>1545.8</ele>
        <time>2021-09-19T08:32:41Z</time>
      </trkpt>
      <trkpt lat="42.76339" lon="1.53347">
        <ele>1546</ele>
        <time>2021-09-19T08:32:43Z</time>
      </trkpt>
      <trkpt lat="42.76337" lon="1.53345">
        <ele>1546.8</ele>
        <time>2021-09-19T08:32:47Z</time>
      </trkpt>
      <trkpt lat="42.76333" lon="1.53344">
        <ele>1547.4</ele>
        <time>2021-09-19T08:32:51Z</time>
      </trkpt>
      <trkpt lat="42.7633" lon="1.53343">
        <ele>1547.8</ele>
        <time>2021-09-19T08:32:55Z</time>
      </trkpt>
      <trkpt lat="42.76326" lon="1.53342">
        <ele>1548.8</ele>
        <time>2021-09-19T08:33:00Z</time>
      </trkpt>
      <trkpt lat="42.76325" lon="1.53341">
        <ele>1549</ele>
        <time>2021-09-19T08:33:01Z</time>
      </trkpt>
      <trkpt lat="42.76318" lon="1.53338">
        <ele>1549.4</ele>
        <time>2021-09-19T08:33:06Z</time>
      </trkpt>
      <trkpt lat="42.76318" lon="1.53334">
        <ele>1549.8</ele>
        <time>2021-09-19T08:33:09Z</time>
      </trkpt>
      <trkpt lat="42.76318" lon="1.53333">
        <ele>1550</ele>
        <time>2021-09-19T08:33:10Z</time>
      </trkpt>
      <trkpt lat="42.76318" lon="1.53333">
        <ele>1550</ele>
        <time>2021-09-19T08:33:11Z</time>
      </trkpt>
      <trkpt lat="42.76318" lon="1.53332">
        <ele>1550.2</ele>
        <time>2021-09-19T08:33:13Z</time>
      </trkpt>
      <trkpt lat="42.76318" lon="1.53331">
        <ele>1550.2</ele>
        <time>2021-09-19T08:33:14Z</time>
      </trkpt>
      <trkpt lat="42.76315" lon="1.53326">
        <ele>1550.6</ele>
        <time>2021-09-19T08:33:18Z</time>
      </trkpt>
      <trkpt lat="42.76313" lon="1.53325">
        <ele>1550.8</ele>
        <time>2021-09-19T08:33:20Z</time>
      </trkpt>
      <trkpt lat="42.7631" lon="1.53323">
        <ele>1550.8</ele>
        <time>2021-09-19T08:33:24Z</time>
      </trkpt>
      <trkpt lat="42.76309" lon="1.53322">
        <ele>1551</ele>
        <time>2021-09-19T08:33:25Z</time>
      </trkpt>
      <trkpt lat="42.76308" lon="1.53322">
        <ele>1551.2</ele>
        <time>2021-09-19T08:33:26Z</time>
      </trkpt>
      <trkpt lat="42.76305" lon="1.53317">
        <ele>1551.6</ele>
        <time>2021-09-19T08:33:33Z</time>
      </trkpt>
      <trkpt lat="42.76303" lon="1.53316">
        <ele>1551.8</ele>
        <time>2021-09-19T08:33:35Z</time>
      </trkpt>
      <trkpt lat="42.76303" lon="1.53314">
        <ele>1551.8</ele>
        <time>2021-09-19T08:33:36Z</time>
      </trkpt>
      <trkpt lat="42.76297" lon="1.5331">
        <ele>1552</ele>
        <time>2021-09-19T08:33:45Z</time>
      </trkpt>
      <trkpt lat="42.76296" lon="1.5331">
        <ele>1552.2</ele>
        <time>2021-09-19T08:33:46Z</time>
      </trkpt>
      <trkpt lat="42.76293" lon="1.53307">
        <ele>1552.2</ele>
        <time>2021-09-19T08:33:49Z</time>
      </trkpt>
      <trkpt lat="42.76291" lon="1.53305">
        <ele>1552.2</ele>
        <time>2021-09-19T08:33:50Z</time>
      </trkpt>
      <trkpt lat="42.76289" lon="1.53303">
        <ele>1552.2</ele>
        <time>2021-09-19T08:33:52Z</time>
      </trkpt>
      <trkpt lat="42.76286" lon="1.53299">
        <ele>1552.4</ele>
        <time>2021-09-19T08:33:56Z</time>
      </trkpt>
      <trkpt lat="42.76285" lon="1.53296">
        <ele>1552.6</ele>
        <time>2021-09-19T08:33:58Z</time>
      </trkpt>
      <trkpt lat="42.76285" lon="1.53296">
        <ele>1552.6</ele>
        <time>2021-09-19T08:33:59Z</time>
      </trkpt>
      <trkpt lat="42.76284" lon="1.53295">
        <ele>1552.8</ele>
        <time>2021-09-19T08:34:00Z</time>
      </trkpt>
      <trkpt lat="42.76283" lon="1.53293">
        <ele>1553.2</ele>
        <time>2021-09-19T08:34:02Z</time>
      </trkpt>
      <trkpt lat="42.76282" lon="1.53292">
        <ele>1553.4</ele>
        <time>2021-09-19T08:34:03Z</time>
      </trkpt>
      <trkpt lat="42.76281" lon="1.53289">
        <ele>1553.8</ele>
        <time>2021-09-19T08:34:06Z</time>
      </trkpt>
      <trkpt lat="42.76276" lon="1.53288">
        <ele>1554</ele>
        <time>2021-09-19T08:34:14Z</time>
      </trkpt>
      <trkpt lat="42.76275" lon="1.53288">
        <ele>1554</ele>
        <time>2021-09-19T08:34:15Z</time>
      </trkpt>
      <trkpt lat="42.76275" lon="1.53288">
        <ele>1554</ele>
        <time>2021-09-19T08:34:16Z</time>
      </trkpt>
      <trkpt lat="42.76272" lon="1.53289">
        <ele>1554</ele>
        <time>2021-09-19T08:34:23Z</time>
      </trkpt>
      <trkpt lat="42.76271" lon="1.5329">
        <ele>1554</ele>
        <time>2021-09-19T08:34:24Z</time>
      </trkpt>
      <trkpt lat="42.76267" lon="1.53293">
        <ele>1553.8</ele>
        <time>2021-09-19T08:34:28Z</time>
      </trkpt>
      <trkpt lat="42.76265" lon="1.53295">
        <ele>1553.6</ele>
        <time>2021-09-19T08:34:30Z</time>
      </trkpt>
      <trkpt lat="42.76262" lon="1.53296">
        <ele>1553.6</ele>
        <time>2021-09-19T08:34:33Z</time>
      </trkpt>
      <trkpt lat="42.76261" lon="1.53297">
        <ele>1553.6</ele>
        <time>2021-09-19T08:34:35Z</time>
      </trkpt>
      <trkpt lat="42.76255" lon="1.53299">
        <ele>1554</ele>
        <time>2021-09-19T08:34:41Z</time>
      </trkpt>
      <trkpt lat="42.76253" lon="1.533">
        <ele>1554.4</ele>
        <time>2021-09-19T08:34:43Z</time>
      </trkpt>
      <trkpt lat="42.76249" lon="1.533">
        <ele>1554.6</ele>
        <time>2021-09-19T08:34:46Z</time>
      </trkpt>
      <trkpt lat="42.76246" lon="1.53302">
        <ele>1554.8</ele>
        <time>2021-09-19T08:34:49Z</time>
      </trkpt>
      <trkpt lat="42.76243" lon="1.53303">
        <ele>1554.8</ele>
        <time>2021-09-19T08:34:53Z</time>
      </trkpt>
      <trkpt lat="42.76241" lon="1.53304">
        <ele>1554.4</ele>
        <time>2021-09-19T08:34:55Z</time>
      </trkpt>
      <trkpt lat="42.7624" lon="1.53304">
        <ele>1554.4</ele>
        <time>2021-09-19T08:34:56Z</time>
      </trkpt>
      <trkpt lat="42.76235" lon="1.53306">
        <ele>1554</ele>
        <time>2021-09-19T08:35:01Z</time>
      </trkpt>
      <trkpt lat="42.76234" lon="1.53307">
        <ele>1554</ele>
        <time>2021-09-19T08:35:03Z</time>
      </trkpt>
      <trkpt lat="42.76233" lon="1.53306">
        <ele>1553.8</ele>
        <time>2021-09-19T08:35:04Z</time>
      </trkpt>
      <trkpt lat="42.7623" lon="1.53308">
        <ele>1553.8</ele>
        <time>2021-09-19T08:35:08Z</time>
      </trkpt>
      <trkpt lat="42.76228" lon="1.53308">
        <ele>1553.6</ele>
        <time>2021-09-19T08:35:10Z</time>
      </trkpt>
      <trkpt lat="42.76225" lon="1.5331">
        <ele>1553.6</ele>
        <time>2021-09-19T08:35:13Z</time>
      </trkpt>
      <trkpt lat="42.76223" lon="1.5331">
        <ele>1553.6</ele>
        <time>2021-09-19T08:35:15Z</time>
      </trkpt>
      <trkpt lat="42.76221" lon="1.53311">
        <ele>1553.8</ele>
        <time>2021-09-19T08:35:17Z</time>
      </trkpt>
      <trkpt lat="42.76221" lon="1.53311">
        <ele>1554</ele>
        <time>2021-09-19T08:35:18Z</time>
      </trkpt>
      <trkpt lat="42.7622" lon="1.53312">
        <ele>1554</ele>
        <time>2021-09-19T08:35:20Z</time>
      </trkpt>
      <trkpt lat="42.76219" lon="1.53313">
        <ele>1554</ele>
        <time>2021-09-19T08:35:22Z</time>
      </trkpt>
      <trkpt lat="42.76217" lon="1.53314">
        <ele>1554</ele>
        <time>2021-09-19T08:35:24Z</time>
      </trkpt>
      <trkpt lat="42.76216" lon="1.53315">
        <ele>1554.2</ele>
        <time>2021-09-19T08:35:28Z</time>
      </trkpt>
      <trkpt lat="42.76215" lon="1.53316">
        <ele>1554</ele>
        <time>2021-09-19T08:35:30Z</time>
      </trkpt>
      <trkpt lat="42.76214" lon="1.53318">
        <ele>1553.6</ele>
        <time>2021-09-19T08:35:32Z</time>
      </trkpt>
      <trkpt lat="42.76212" lon="1.53321">
        <ele>1553.6</ele>
        <time>2021-09-19T08:35:34Z</time>
      </trkpt>
      <trkpt lat="42.76208" lon="1.53321">
        <ele>1553.4</ele>
        <time>2021-09-19T08:35:38Z</time>
      </trkpt>
      <trkpt lat="42.76207" lon="1.5332">
        <ele>1553.4</ele>
        <time>2021-09-19T08:35:39Z</time>
      </trkpt>
      <trkpt lat="42.76206" lon="1.5332">
        <ele>1553.4</ele>
        <time>2021-09-19T08:35:41Z</time>
      </trkpt>
      <trkpt lat="42.76204" lon="1.53319">
        <ele>1553.6</ele>
        <time>2021-09-19T08:35:44Z</time>
      </trkpt>
      <trkpt lat="42.76203" lon="1.53321">
        <ele>1553.4</ele>
        <time>2021-09-19T08:35:48Z</time>
      </trkpt>
      <trkpt lat="42.76201" lon="1.53322">
        <ele>1553.2</ele>
        <time>2021-09-19T08:35:51Z</time>
      </trkpt>
      <trkpt lat="42.762" lon="1.53322">
        <ele>1552.8</ele>
        <time>2021-09-19T08:35:54Z</time>
      </trkpt>
      <trkpt lat="42.76199" lon="1.53321">
        <ele>1552.6</ele>
        <time>2021-09-19T08:35:59Z</time>
      </trkpt>
      <trkpt lat="42.762" lon="1.5332">
        <ele>1552.6</ele>
        <time>2021-09-19T08:36:07Z</time>
      </trkpt>
      <trkpt lat="42.76202" lon="1.5332">
        <ele>1552.2</ele>
        <time>2021-09-19T08:36:09Z</time>
      </trkpt>
      <trkpt lat="42.76204" lon="1.53321">
        <ele>1552.4</ele>
        <time>2021-09-19T08:36:12Z</time>
      </trkpt>
      <trkpt lat="42.76204" lon="1.53321">
        <ele>1552.2</ele>
        <time>2021-09-19T08:36:13Z</time>
      </trkpt>
      <trkpt lat="42.76205" lon="1.53321">
        <ele>1552.2</ele>
        <time>2021-09-19T08:36:14Z</time>
      </trkpt>
      <trkpt lat="42.76205" lon="1.53322">
        <ele>1552.2</ele>
        <time>2021-09-19T08:36:15Z</time>
      </trkpt>
      <trkpt lat="42.76206" lon="1.53323">
        <ele>1552.2</ele>
        <time>2021-09-19T08:36:17Z</time>
      </trkpt>
      <trkpt lat="42.76206" lon="1.53323">
        <ele>1552.2</ele>
        <time>2021-09-19T08:36:18Z</time>
      </trkpt>
      <trkpt lat="42.76207" lon="1.53324">
        <ele>1552.2</ele>
        <time>2021-09-19T08:36:21Z</time>
      </trkpt>
      <trkpt lat="42.76207" lon="1.53325">
        <ele>1552.2</ele>
        <time>2021-09-19T08:36:23Z</time>
      </trkpt>
      <trkpt lat="42.76207" lon="1.53325">
        <ele>1552.2</ele>
        <time>2021-09-19T08:36:24Z</time>
      </trkpt>
      <trkpt lat="42.76207" lon="1.53326">
        <ele>1552.4</ele>
        <time>2021-09-19T08:36:26Z</time>
      </trkpt>
      <trkpt lat="42.76206" lon="1.53327">
        <ele>1552.4</ele>
        <time>2021-09-19T08:36:29Z</time>
      </trkpt>
      <trkpt lat="42.76205" lon="1.53327">
        <ele>1552.6</ele>
        <time>2021-09-19T08:36:36Z</time>
      </trkpt>
      <trkpt lat="42.76206" lon="1.53329">
        <ele>1552.4</ele>
        <time>2021-09-19T08:36:44Z</time>
      </trkpt>
      <trkpt lat="42.76207" lon="1.53329">
        <ele>1552.4</ele>
        <time>2021-09-19T08:36:45Z</time>
      </trkpt>
      <trkpt lat="42.76209" lon="1.53327">
        <ele>1552.2</ele>
        <time>2021-09-19T08:36:51Z</time>
      </trkpt>
      <trkpt lat="42.76209" lon="1.53327">
        <ele>1552.2</ele>
        <time>2021-09-19T08:36:52Z</time>
      </trkpt>
      <trkpt lat="42.7621" lon="1.53328">
        <ele>1552.2</ele>
        <time>2021-09-19T08:36:54Z</time>
      </trkpt>
      <trkpt lat="42.76211" lon="1.53332">
        <ele>1552.2</ele>
        <time>2021-09-19T08:36:59Z</time>
      </trkpt>
      <trkpt lat="42.76211" lon="1.53334">
        <ele>1563.8</ele>
        <time>2021-09-19T08:37:05Z</time>
      </trkpt>
      <trkpt lat="42.7621" lon="1.53332">
        <ele>1563.8</ele>
        <time>2021-09-19T08:37:07Z</time>
      </trkpt>
      <trkpt lat="42.76207" lon="1.53329">
        <ele>1558.4</ele>
        <time>2021-09-19T08:37:09Z</time>
      </trkpt>
      <trkpt lat="42.76206" lon="1.53328">
        <ele>1555.6</ele>
        <time>2021-09-19T08:37:10Z</time>
      </trkpt>
      <trkpt lat="42.76206" lon="1.53327">
        <ele>1554.2</ele>
        <time>2021-09-19T08:37:11Z</time>
      </trkpt>
      <trkpt lat="42.76205" lon="1.53326">
        <ele>1553.2</ele>
        <time>2021-09-19T08:37:13Z</time>
      </trkpt>
      <trkpt lat="42.76204" lon="1.53326">
        <ele>1553</ele>
        <time>2021-09-19T08:37:16Z</time>
      </trkpt>
      <trkpt lat="42.76204" lon="1.53326">
        <ele>1552.8</ele>
        <time>2021-09-19T08:37:20Z</time>
      </trkpt>
      <trkpt lat="42.76203" lon="1.53327">
        <ele>1552.8</ele>
        <time>2021-09-19T08:37:24Z</time>
      </trkpt>
      <trkpt lat="42.76204" lon="1.53329">
        <ele>1552.8</ele>
        <time>2021-09-19T08:37:30Z</time>
      </trkpt>
      <trkpt lat="42.76203" lon="1.53328">
        <ele>1552.8</ele>
        <time>2021-09-19T08:37:36Z</time>
      </trkpt>
      <trkpt lat="42.76203" lon="1.53328">
        <ele>1552.8</ele>
        <time>2021-09-19T08:37:37Z</time>
      </trkpt>
      <trkpt lat="42.76201" lon="1.53327">
        <ele>1552.8</ele>
        <time>2021-09-19T08:37:39Z</time>
      </trkpt>
      <trkpt lat="42.76199" lon="1.53326">
        <ele>1552.8</ele>
        <time>2021-09-19T08:37:42Z</time>
      </trkpt>
      <trkpt lat="42.76197" lon="1.53326">
        <ele>1552</ele>
        <time>2021-09-19T08:37:44Z</time>
      </trkpt>
      <trkpt lat="42.76194" lon="1.53325">
        <ele>1551.6</ele>
        <time>2021-09-19T08:37:46Z</time>
      </trkpt>
      <trkpt lat="42.76189" lon="1.53323">
        <ele>1551.4</ele>
        <time>2021-09-19T08:37:49Z</time>
      </trkpt>
      <trkpt lat="42.76183" lon="1.53319">
        <ele>1551.2</ele>
        <time>2021-09-19T08:37:54Z</time>
      </trkpt>
      <trkpt lat="42.76181" lon="1.53314">
        <ele>1551</ele>
        <time>2021-09-19T08:37:59Z</time>
      </trkpt>
      <trkpt lat="42.76181" lon="1.53313">
        <ele>1551</ele>
        <time>2021-09-19T08:38:00Z</time>
      </trkpt>
      <trkpt lat="42.7618" lon="1.53311">
        <ele>1550.8</ele>
        <time>2021-09-19T08:38:02Z</time>
      </trkpt>
      <trkpt lat="42.76179" lon="1.53309">
        <ele>1550.8</ele>
        <time>2021-09-19T08:38:03Z</time>
      </trkpt>
      <trkpt lat="42.76179" lon="1.53306">
        <ele>1550.4</ele>
        <time>2021-09-19T08:38:06Z</time>
      </trkpt>
      <trkpt lat="42.76173" lon="1.53306">
        <ele>1550.4</ele>
        <time>2021-09-19T08:38:12Z</time>
      </trkpt>
      <trkpt lat="42.76171" lon="1.53306">
        <ele>1550.6</ele>
        <time>2021-09-19T08:38:14Z</time>
      </trkpt>
      <trkpt lat="42.76167" lon="1.53307">
        <ele>1550.6</ele>
        <time>2021-09-19T08:38:18Z</time>
      </trkpt>
      <trkpt lat="42.76167" lon="1.53307">
        <ele>1550.4</ele>
        <time>2021-09-19T08:38:19Z</time>
      </trkpt>
      <trkpt lat="42.76166" lon="1.53307">
        <ele>1550.2</ele>
        <time>2021-09-19T08:38:21Z</time>
      </trkpt>
      <trkpt lat="42.76164" lon="1.53307">
        <ele>1550.2</ele>
        <time>2021-09-19T08:38:24Z</time>
      </trkpt>
      <trkpt lat="42.76164" lon="1.53306">
        <ele>1550.2</ele>
        <time>2021-09-19T08:38:25Z</time>
      </trkpt>
      <trkpt lat="42.76163" lon="1.53306">
        <ele>1550</ele>
        <time>2021-09-19T08:38:26Z</time>
      </trkpt>
      <trkpt lat="42.76161" lon="1.53305">
        <ele>1550</ele>
        <time>2021-09-19T08:38:29Z</time>
      </trkpt>
      <trkpt lat="42.76158" lon="1.53304">
        <ele>1550.2</ele>
        <time>2021-09-19T08:38:32Z</time>
      </trkpt>
      <trkpt lat="42.76156" lon="1.53303">
        <ele>1550.4</ele>
        <time>2021-09-19T08:38:34Z</time>
      </trkpt>
      <trkpt lat="42.76155" lon="1.53301">
        <ele>1550.6</ele>
        <time>2021-09-19T08:38:35Z</time>
      </trkpt>
      <trkpt lat="42.76152" lon="1.53299">
        <ele>1551</ele>
        <time>2021-09-19T08:38:39Z</time>
      </trkpt>
      <trkpt lat="42.76151" lon="1.53298">
        <ele>1551.2</ele>
        <time>2021-09-19T08:38:40Z</time>
      </trkpt>
      <trkpt lat="42.76149" lon="1.53297">
        <ele>1551.4</ele>
        <time>2021-09-19T08:38:42Z</time>
      </trkpt>
      <trkpt lat="42.76147" lon="1.53296">
        <ele>1551.6</ele>
        <time>2021-09-19T08:38:45Z</time>
      </trkpt>
      <trkpt lat="42.76146" lon="1.53295">
        <ele>1551.6</ele>
        <time>2021-09-19T08:38:46Z</time>
      </trkpt>
      <trkpt lat="42.7614" lon="1.5329">
        <ele>1551.6</ele>
        <time>2021-09-19T08:38:52Z</time>
      </trkpt>
      <trkpt lat="42.76135" lon="1.53287">
        <ele>1551</ele>
        <time>2021-09-19T08:38:58Z</time>
      </trkpt>
      <trkpt lat="42.76133" lon="1.53287">
        <ele>1550.8</ele>
        <time>2021-09-19T08:39:00Z</time>
      </trkpt>
      <trkpt lat="42.76131" lon="1.53286">
        <ele>1550.8</ele>
        <time>2021-09-19T08:39:03Z</time>
      </trkpt>
      <trkpt lat="42.76129" lon="1.53285">
        <ele>1551</ele>
        <time>2021-09-19T08:39:05Z</time>
      </trkpt>
      <trkpt lat="42.76127" lon="1.53283">
        <ele>1551.4</ele>
        <time>2021-09-19T08:39:08Z</time>
      </trkpt>
      <trkpt lat="42.76128" lon="1.53283">
        <ele>1551.4</ele>
        <time>2021-09-19T08:39:15Z</time>
      </trkpt>
      <trkpt lat="42.76125" lon="1.5328">
        <ele>1551.4</ele>
        <time>2021-09-19T08:39:23Z</time>
      </trkpt>
      <trkpt lat="42.76119" lon="1.53279">
        <ele>1551.2</ele>
        <time>2021-09-19T08:39:30Z</time>
      </trkpt>
      <trkpt lat="42.76119" lon="1.5328">
        <ele>1551</ele>
        <time>2021-09-19T08:39:31Z</time>
      </trkpt>
      <trkpt lat="42.76117" lon="1.53279">
        <ele>1550.8</ele>
        <time>2021-09-19T08:39:33Z</time>
      </trkpt>
      <trkpt lat="42.76115" lon="1.53279">
        <ele>1550.6</ele>
        <time>2021-09-19T08:39:35Z</time>
      </trkpt>
      <trkpt lat="42.76113" lon="1.53275">
        <ele>1550.8</ele>
        <time>2021-09-19T08:39:39Z</time>
      </trkpt>
      <trkpt lat="42.76112" lon="1.53271">
        <ele>1550.8</ele>
        <time>2021-09-19T08:39:41Z</time>
      </trkpt>
      <trkpt lat="42.76111" lon="1.53268">
        <ele>1550.8</ele>
        <time>2021-09-19T08:39:43Z</time>
      </trkpt>
      <trkpt lat="42.76109" lon="1.53266">
        <ele>1550.8</ele>
        <time>2021-09-19T08:39:45Z</time>
      </trkpt>
      <trkpt lat="42.76106" lon="1.53258">
        <ele>1550.2</ele>
        <time>2021-09-19T08:39:50Z</time>
      </trkpt>
      <trkpt lat="42.76104" lon="1.53255">
        <ele>1550.2</ele>
        <time>2021-09-19T08:39:52Z</time>
      </trkpt>
      <trkpt lat="42.76104" lon="1.53254">
        <ele>1550.2</ele>
        <time>2021-09-19T08:39:53Z</time>
      </trkpt>
      <trkpt lat="42.76102" lon="1.53251">
        <ele>1549.8</ele>
        <time>2021-09-19T08:39:57Z</time>
      </trkpt>
      <trkpt lat="42.761" lon="1.53247">
        <ele>1549.6</ele>
        <time>2021-09-19T08:40:01Z</time>
      </trkpt>
      <trkpt lat="42.76099" lon="1.53246">
        <ele>1549.6</ele>
        <time>2021-09-19T08:40:03Z</time>
      </trkpt>
      <trkpt lat="42.76098" lon="1.53245">
        <ele>1549.8</ele>
        <time>2021-09-19T08:40:04Z</time>
      </trkpt>
      <trkpt lat="42.76097" lon="1.53243">
        <ele>1549.6</ele>
        <time>2021-09-19T08:40:07Z</time>
      </trkpt>
      <trkpt lat="42.76094" lon="1.53239">
        <ele>1549</ele>
        <time>2021-09-19T08:40:13Z</time>
      </trkpt>
      <trkpt lat="42.76093" lon="1.53239">
        <ele>1549</ele>
        <time>2021-09-19T08:40:14Z</time>
      </trkpt>
      <trkpt lat="42.76093" lon="1.53239">
        <ele>1549</ele>
        <time>2021-09-19T08:40:15Z</time>
      </trkpt>
      <trkpt lat="42.76092" lon="1.53238">
        <ele>1549</ele>
        <time>2021-09-19T08:40:18Z</time>
      </trkpt>
      <trkpt lat="42.76091" lon="1.53237">
        <ele>1548.8</ele>
        <time>2021-09-19T08:40:19Z</time>
      </trkpt>
      <trkpt lat="42.76091" lon="1.53236">
        <ele>1548.6</ele>
        <time>2021-09-19T08:40:20Z</time>
      </trkpt>
      <trkpt lat="42.76086" lon="1.53233">
        <ele>1548.6</ele>
        <time>2021-09-19T08:40:26Z</time>
      </trkpt>
      <trkpt lat="42.76081" lon="1.53231">
        <ele>1548.4</ele>
        <time>2021-09-19T08:40:33Z</time>
      </trkpt>
      <trkpt lat="42.7608" lon="1.53228">
        <ele>1547.8</ele>
        <time>2021-09-19T08:40:39Z</time>
      </trkpt>
      <trkpt lat="42.7608" lon="1.53226">
        <ele>1547.6</ele>
        <time>2021-09-19T08:40:42Z</time>
      </trkpt>
      <trkpt lat="42.76078" lon="1.53222">
        <ele>1547.4</ele>
        <time>2021-09-19T08:40:46Z</time>
      </trkpt>
      <trkpt lat="42.76073" lon="1.53218">
        <ele>1547.4</ele>
        <time>2021-09-19T08:40:51Z</time>
      </trkpt>
      <trkpt lat="42.76071" lon="1.53215">
        <ele>1547</ele>
        <time>2021-09-19T08:40:54Z</time>
      </trkpt>
      <trkpt lat="42.7607" lon="1.53212">
        <ele>1546.6</ele>
        <time>2021-09-19T08:40:58Z</time>
      </trkpt>
      <trkpt lat="42.76069" lon="1.53212">
        <ele>1546.4</ele>
        <time>2021-09-19T08:40:59Z</time>
      </trkpt>
      <trkpt lat="42.76068" lon="1.53211">
        <ele>1546.2</ele>
        <time>2021-09-19T08:41:01Z</time>
      </trkpt>
      <trkpt lat="42.76067" lon="1.53211">
        <ele>1546.2</ele>
        <time>2021-09-19T08:41:02Z</time>
      </trkpt>
      <trkpt lat="42.76065" lon="1.53209">
        <ele>1546.2</ele>
        <time>2021-09-19T08:41:05Z</time>
      </trkpt>
      <trkpt lat="42.76063" lon="1.53206">
        <ele>1546</ele>
        <time>2021-09-19T08:41:09Z</time>
      </trkpt>
      <trkpt lat="42.76062" lon="1.53205">
        <ele>1546</ele>
        <time>2021-09-19T08:41:11Z</time>
      </trkpt>
      <trkpt lat="42.7606" lon="1.53203">
        <ele>1545.6</ele>
        <time>2021-09-19T08:41:13Z</time>
      </trkpt>
      <trkpt lat="42.76059" lon="1.53201">
        <ele>1545.6</ele>
        <time>2021-09-19T08:41:14Z</time>
      </trkpt>
      <trkpt lat="42.76057" lon="1.53199">
        <ele>1545.4</ele>
        <time>2021-09-19T08:41:16Z</time>
      </trkpt>
      <trkpt lat="42.7605" lon="1.53192">
        <ele>1544.6</ele>
        <time>2021-09-19T08:41:24Z</time>
      </trkpt>
      <trkpt lat="42.76049" lon="1.53191">
        <ele>1544.4</ele>
        <time>2021-09-19T08:41:25Z</time>
      </trkpt>
      <trkpt lat="42.76042" lon="1.53185">
        <ele>1544.2</ele>
        <time>2021-09-19T08:41:33Z</time>
      </trkpt>
      <trkpt lat="42.76035" lon="1.53176">
        <ele>1543.4</ele>
        <time>2021-09-19T08:41:42Z</time>
      </trkpt>
      <trkpt lat="42.76034" lon="1.53175">
        <ele>1543.4</ele>
        <time>2021-09-19T08:41:43Z</time>
      </trkpt>
      <trkpt lat="42.76026" lon="1.53167">
        <ele>1543</ele>
        <time>2021-09-19T08:41:50Z</time>
      </trkpt>
      <trkpt lat="42.76021" lon="1.5316">
        <ele>1542.8</ele>
        <time>2021-09-19T08:41:56Z</time>
      </trkpt>
      <trkpt lat="42.76019" lon="1.53157">
        <ele>1542.6</ele>
        <time>2021-09-19T08:41:59Z</time>
      </trkpt>
      <trkpt lat="42.76017" lon="1.53156">
        <ele>1542.4</ele>
        <time>2021-09-19T08:42:01Z</time>
      </trkpt>
      <trkpt lat="42.76015" lon="1.53153">
        <ele>1542.2</ele>
        <time>2021-09-19T08:42:04Z</time>
      </trkpt>
      <trkpt lat="42.76012" lon="1.53152">
        <ele>1542</ele>
        <time>2021-09-19T08:42:06Z</time>
      </trkpt>
      <trkpt lat="42.7601" lon="1.53151">
        <ele>1541.4</ele>
        <time>2021-09-19T08:42:10Z</time>
      </trkpt>
      <trkpt lat="42.76008" lon="1.5315">
        <ele>1541</ele>
        <time>2021-09-19T08:42:13Z</time>
      </trkpt>
      <trkpt lat="42.76001" lon="1.53142">
        <ele>1540.6</ele>
        <time>2021-09-19T08:42:22Z</time>
      </trkpt>
      <trkpt lat="42.75999" lon="1.53139">
        <ele>1540.6</ele>
        <time>2021-09-19T08:42:25Z</time>
      </trkpt>
      <trkpt lat="42.75996" lon="1.53136">
        <ele>1540.2</ele>
        <time>2021-09-19T08:42:29Z</time>
      </trkpt>
      <trkpt lat="42.75996" lon="1.53135">
        <ele>1540.2</ele>
        <time>2021-09-19T08:42:30Z</time>
      </trkpt>
      <trkpt lat="42.75995" lon="1.53134">
        <ele>1540.2</ele>
        <time>2021-09-19T08:42:31Z</time>
      </trkpt>
      <trkpt lat="42.75989" lon="1.53126">
        <ele>1539.4</ele>
        <time>2021-09-19T08:42:38Z</time>
      </trkpt>
      <trkpt lat="42.75988" lon="1.53125">
        <ele>1539.2</ele>
        <time>2021-09-19T08:42:39Z</time>
      </trkpt>
      <trkpt lat="42.75985" lon="1.53123">
        <ele>1538.8</ele>
        <time>2021-09-19T08:42:42Z</time>
      </trkpt>
      <trkpt lat="42.75983" lon="1.5312">
        <ele>1538.4</ele>
        <time>2021-09-19T08:42:47Z</time>
      </trkpt>
      <trkpt lat="42.75982" lon="1.53119">
        <ele>1538.4</ele>
        <time>2021-09-19T08:42:48Z</time>
      </trkpt>
      <trkpt lat="42.75979" lon="1.53116">
        <ele>1538.2</ele>
        <time>2021-09-19T08:42:53Z</time>
      </trkpt>
      <trkpt lat="42.75977" lon="1.53112">
        <ele>1538</ele>
        <time>2021-09-19T08:42:57Z</time>
      </trkpt>
      <trkpt lat="42.75975" lon="1.5311">
        <ele>1538</ele>
        <time>2021-09-19T08:43:00Z</time>
      </trkpt>
      <trkpt lat="42.75973" lon="1.53108">
        <ele>1538.2</ele>
        <time>2021-09-19T08:43:02Z</time>
      </trkpt>
      <trkpt lat="42.75971" lon="1.53106">
        <ele>1538.2</ele>
        <time>2021-09-19T08:43:05Z</time>
      </trkpt>
      <trkpt lat="42.75968" lon="1.53102">
        <ele>1538.2</ele>
        <time>2021-09-19T08:43:09Z</time>
      </trkpt>
      <trkpt lat="42.75963" lon="1.53097">
        <ele>1537.8</ele>
        <time>2021-09-19T08:43:15Z</time>
      </trkpt>
      <trkpt lat="42.75961" lon="1.53095">
        <ele>1537.6</ele>
        <time>2021-09-19T08:43:17Z</time>
      </trkpt>
      <trkpt lat="42.7596" lon="1.53093">
        <ele>1537.4</ele>
        <time>2021-09-19T08:43:19Z</time>
      </trkpt>
      <trkpt lat="42.75957" lon="1.5309">
        <ele>1537.4</ele>
        <time>2021-09-19T08:43:22Z</time>
      </trkpt>
      <trkpt lat="42.75956" lon="1.53085">
        <ele>1537.4</ele>
        <time>2021-09-19T08:43:25Z</time>
      </trkpt>
      <trkpt lat="42.75955" lon="1.53083">
        <ele>1537.4</ele>
        <time>2021-09-19T08:43:27Z</time>
      </trkpt>
      <trkpt lat="42.75954" lon="1.53083">
        <ele>1537.4</ele>
        <time>2021-09-19T08:43:28Z</time>
      </trkpt>
      <trkpt lat="42.75953" lon="1.53082">
        <ele>1537.4</ele>
        <time>2021-09-19T08:43:29Z</time>
      </trkpt>
      <trkpt lat="42.75953" lon="1.53082">
        <ele>1537.4</ele>
        <time>2021-09-19T08:43:30Z</time>
      </trkpt>
      <trkpt lat="42.75952" lon="1.53081">
        <ele>1537.2</ele>
        <time>2021-09-19T08:43:31Z</time>
      </trkpt>
      <trkpt lat="42.75949" lon="1.5308">
        <ele>1536.8</ele>
        <time>2021-09-19T08:43:35Z</time>
      </trkpt>
      <trkpt lat="42.75948" lon="1.5308">
        <ele>1536.6</ele>
        <time>2021-09-19T08:43:36Z</time>
      </trkpt>
      <trkpt lat="42.75947" lon="1.53079">
        <ele>1536.4</ele>
        <time>2021-09-19T08:43:38Z</time>
      </trkpt>
      <trkpt lat="42.75942" lon="1.53074">
        <ele>1536.6</ele>
        <time>2021-09-19T08:43:44Z</time>
      </trkpt>
      <trkpt lat="42.75941" lon="1.53073">
        <ele>1536.6</ele>
        <time>2021-09-19T08:43:45Z</time>
      </trkpt>
      <trkpt lat="42.7594" lon="1.53071">
        <ele>1536.6</ele>
        <time>2021-09-19T08:43:46Z</time>
      </trkpt>
      <trkpt lat="42.75939" lon="1.5307">
        <ele>1536.4</ele>
        <time>2021-09-19T08:43:47Z</time>
      </trkpt>
      <trkpt lat="42.75938" lon="1.53068">
        <ele>1536.2</ele>
        <time>2021-09-19T08:43:48Z</time>
      </trkpt>
      <trkpt lat="42.75932" lon="1.53063">
        <ele>1536</ele>
        <time>2021-09-19T08:43:54Z</time>
      </trkpt>
      <trkpt lat="42.75931" lon="1.53062">
        <ele>1536</ele>
        <time>2021-09-19T08:43:55Z</time>
      </trkpt>
      <trkpt lat="42.7593" lon="1.53061">
        <ele>1535.8</ele>
        <time>2021-09-19T08:43:57Z</time>
      </trkpt>
      <trkpt lat="42.75927" lon="1.53058">
        <ele>1535.6</ele>
        <time>2021-09-19T08:44:00Z</time>
      </trkpt>
      <trkpt lat="42.75926" lon="1.53057">
        <ele>1535.6</ele>
        <time>2021-09-19T08:44:01Z</time>
      </trkpt>
      <trkpt lat="42.75925" lon="1.53056">
        <ele>1535.6</ele>
        <time>2021-09-19T08:44:02Z</time>
      </trkpt>
      <trkpt lat="42.75923" lon="1.53055">
        <ele>1535.2</ele>
        <time>2021-09-19T08:44:05Z</time>
      </trkpt>
      <trkpt lat="42.75922" lon="1.53055">
        <ele>1535.2</ele>
        <time>2021-09-19T08:44:06Z</time>
      </trkpt>
      <trkpt lat="42.75921" lon="1.53053">
        <ele>1534.8</ele>
        <time>2021-09-19T08:44:09Z</time>
      </trkpt>
      <trkpt lat="42.7592" lon="1.53052">
        <ele>1534.8</ele>
        <time>2021-09-19T08:44:10Z</time>
      </trkpt>
      <trkpt lat="42.75917" lon="1.53047">
        <ele>1534.6</ele>
        <time>2021-09-19T08:44:15Z</time>
      </trkpt>
      <trkpt lat="42.75916" lon="1.53047">
        <ele>1534.4</ele>
        <time>2021-09-19T08:44:16Z</time>
      </trkpt>
      <trkpt lat="42.75914" lon="1.53043">
        <ele>1534.4</ele>
        <time>2021-09-19T08:44:19Z</time>
      </trkpt>
      <trkpt lat="42.75912" lon="1.53041">
        <ele>1534</ele>
        <time>2021-09-19T08:44:22Z</time>
      </trkpt>
      <trkpt lat="42.75909" lon="1.53037">
        <ele>1533.8</ele>
        <time>2021-09-19T08:44:28Z</time>
      </trkpt>
      <trkpt lat="42.75907" lon="1.53036">
        <ele>1533.2</ele>
        <time>2021-09-19T08:44:33Z</time>
      </trkpt>
      <trkpt lat="42.75906" lon="1.53036">
        <ele>1533</ele>
        <time>2021-09-19T08:44:36Z</time>
      </trkpt>
      <trkpt lat="42.75901" lon="1.5304">
        <ele>1532.4</ele>
        <time>2021-09-19T08:44:42Z</time>
      </trkpt>
      <trkpt lat="42.759" lon="1.53041">
        <ele>1532.2</ele>
        <time>2021-09-19T08:44:44Z</time>
      </trkpt>
      <trkpt lat="42.75899" lon="1.53042">
        <ele>1532.2</ele>
        <time>2021-09-19T08:44:45Z</time>
      </trkpt>
      <trkpt lat="42.75897" lon="1.53043">
        <ele>1532</ele>
        <time>2021-09-19T08:44:47Z</time>
      </trkpt>
      <trkpt lat="42.75895" lon="1.53045">
        <ele>1531.8</ele>
        <time>2021-09-19T08:44:50Z</time>
      </trkpt>
      <trkpt lat="42.75893" lon="1.53046">
        <ele>1531.8</ele>
        <time>2021-09-19T08:44:52Z</time>
      </trkpt>
      <trkpt lat="42.75892" lon="1.53046">
        <ele>1532</ele>
        <time>2021-09-19T08:44:53Z</time>
      </trkpt>
      <trkpt lat="42.75891" lon="1.53047">
        <ele>1532</ele>
        <time>2021-09-19T08:44:54Z</time>
      </trkpt>
      <trkpt lat="42.75887" lon="1.53049">
        <ele>1531.4</ele>
        <time>2021-09-19T08:44:59Z</time>
      </trkpt>
      <trkpt lat="42.75885" lon="1.5305">
        <ele>1531</ele>
        <time>2021-09-19T08:45:01Z</time>
      </trkpt>
      <trkpt lat="42.75884" lon="1.53051">
        <ele>1530.8</ele>
        <time>2021-09-19T08:45:02Z</time>
      </trkpt>
      <trkpt lat="42.75883" lon="1.53051">
        <ele>1530.8</ele>
        <time>2021-09-19T08:45:03Z</time>
      </trkpt>
      <trkpt lat="42.7588" lon="1.53052">
        <ele>1530.6</ele>
        <time>2021-09-19T08:45:06Z</time>
      </trkpt>
      <trkpt lat="42.75879" lon="1.53053">
        <ele>1530.4</ele>
        <time>2021-09-19T08:45:07Z</time>
      </trkpt>
      <trkpt lat="42.75878" lon="1.53054">
        <ele>1530.2</ele>
        <time>2021-09-19T08:45:10Z</time>
      </trkpt>
      <trkpt lat="42.75877" lon="1.53055">
        <ele>1530.2</ele>
        <time>2021-09-19T08:45:11Z</time>
      </trkpt>
      <trkpt lat="42.75876" lon="1.53056">
        <ele>1530</ele>
        <time>2021-09-19T08:45:14Z</time>
      </trkpt>
      <trkpt lat="42.75875" lon="1.53056">
        <ele>1529.8</ele>
        <time>2021-09-19T08:45:15Z</time>
      </trkpt>
      <trkpt lat="42.75872" lon="1.53057">
        <ele>1529.6</ele>
        <time>2021-09-19T08:45:18Z</time>
      </trkpt>
      <trkpt lat="42.75869" lon="1.53059">
        <ele>1529.2</ele>
        <time>2021-09-19T08:45:21Z</time>
      </trkpt>
      <trkpt lat="42.75868" lon="1.5306">
        <ele>1529.2</ele>
        <time>2021-09-19T08:45:23Z</time>
      </trkpt>
      <trkpt lat="42.75866" lon="1.53062">
        <ele>1529</ele>
        <time>2021-09-19T08:45:26Z</time>
      </trkpt>
      <trkpt lat="42.75863" lon="1.53063">
        <ele>1528.8</ele>
        <time>2021-09-19T08:45:28Z</time>
      </trkpt>
      <trkpt lat="42.75862" lon="1.53063">
        <ele>1528.6</ele>
        <time>2021-09-19T08:45:29Z</time>
      </trkpt>
      <trkpt lat="42.75858" lon="1.53065">
        <ele>1528.6</ele>
        <time>2021-09-19T08:45:33Z</time>
      </trkpt>
      <trkpt lat="42.75854" lon="1.53066">
        <ele>1528.4</ele>
        <time>2021-09-19T08:45:36Z</time>
      </trkpt>
      <trkpt lat="42.75851" lon="1.53068">
        <ele>1528</ele>
        <time>2021-09-19T08:45:39Z</time>
      </trkpt>
      <trkpt lat="42.7585" lon="1.53069">
        <ele>1527.8</ele>
        <time>2021-09-19T08:45:41Z</time>
      </trkpt>
      <trkpt lat="42.7585" lon="1.53069">
        <ele>1527.8</ele>
        <time>2021-09-19T08:45:42Z</time>
      </trkpt>
      <trkpt lat="42.75846" lon="1.53071">
        <ele>1527.8</ele>
        <time>2021-09-19T08:45:45Z</time>
      </trkpt>
      <trkpt lat="42.75845" lon="1.53071">
        <ele>1527.8</ele>
        <time>2021-09-19T08:45:46Z</time>
      </trkpt>
      <trkpt lat="42.75844" lon="1.53071">
        <ele>1528</ele>
        <time>2021-09-19T08:45:47Z</time>
      </trkpt>
      <trkpt lat="42.75835" lon="1.53073">
        <ele>1527.4</ele>
        <time>2021-09-19T08:45:55Z</time>
      </trkpt>
      <trkpt lat="42.75834" lon="1.53073">
        <ele>1527.4</ele>
        <time>2021-09-19T08:45:56Z</time>
      </trkpt>
      <trkpt lat="42.75829" lon="1.53076">
        <ele>1527.6</ele>
        <time>2021-09-19T08:46:00Z</time>
      </trkpt>
      <trkpt lat="42.75827" lon="1.53077">
        <ele>1527.4</ele>
        <time>2021-09-19T08:46:03Z</time>
      </trkpt>
      <trkpt lat="42.75825" lon="1.53077">
        <ele>1527.4</ele>
        <time>2021-09-19T08:46:05Z</time>
      </trkpt>
      <trkpt lat="42.75823" lon="1.53077">
        <ele>1527.4</ele>
        <time>2021-09-19T08:46:07Z</time>
      </trkpt>
      <trkpt lat="42.75821" lon="1.53079">
        <ele>1527.4</ele>
        <time>2021-09-19T08:46:10Z</time>
      </trkpt>
      <trkpt lat="42.75818" lon="1.5308">
        <ele>1526.8</ele>
        <time>2021-09-19T08:46:14Z</time>
      </trkpt>
      <trkpt lat="42.75816" lon="1.53081">
        <ele>1527</ele>
        <time>2021-09-19T08:46:18Z</time>
      </trkpt>
      <trkpt lat="42.75811" lon="1.53082">
        <ele>1526.4</ele>
        <time>2021-09-19T08:46:25Z</time>
      </trkpt>
      <trkpt lat="42.75809" lon="1.53082">
        <ele>1526.4</ele>
        <time>2021-09-19T08:46:26Z</time>
      </trkpt>
      <trkpt lat="42.75806" lon="1.53083">
        <ele>1526.2</ele>
        <time>2021-09-19T08:46:29Z</time>
      </trkpt>
      <trkpt lat="42.75803" lon="1.53082">
        <ele>1526</ele>
        <time>2021-09-19T08:46:31Z</time>
      </trkpt>
      <trkpt lat="42.75801" lon="1.53082">
        <ele>1525.8</ele>
        <time>2021-09-19T08:46:33Z</time>
      </trkpt>
      <trkpt lat="42.758" lon="1.53082">
        <ele>1525.8</ele>
        <time>2021-09-19T08:46:34Z</time>
      </trkpt>
      <trkpt lat="42.75799" lon="1.53083">
        <ele>1525.8</ele>
        <time>2021-09-19T08:46:35Z</time>
      </trkpt>
      <trkpt lat="42.75792" lon="1.53082">
        <ele>1525.6</ele>
        <time>2021-09-19T08:46:41Z</time>
      </trkpt>
      <trkpt lat="42.75787" lon="1.53082">
        <ele>1525.4</ele>
        <time>2021-09-19T08:46:45Z</time>
      </trkpt>
      <trkpt lat="42.75785" lon="1.53082">
        <ele>1525.2</ele>
        <time>2021-09-19T08:46:47Z</time>
      </trkpt>
      <trkpt lat="42.75783" lon="1.53081">
        <ele>1525.2</ele>
        <time>2021-09-19T08:46:49Z</time>
      </trkpt>
      <trkpt lat="42.75781" lon="1.5308">
        <ele>1525.2</ele>
        <time>2021-09-19T08:46:51Z</time>
      </trkpt>
      <trkpt lat="42.75777" lon="1.53079">
        <ele>1525</ele>
        <time>2021-09-19T08:46:53Z</time>
      </trkpt>
      <trkpt lat="42.75774" lon="1.53078">
        <ele>1524.8</ele>
        <time>2021-09-19T08:46:56Z</time>
      </trkpt>
      <trkpt lat="42.75772" lon="1.53078">
        <ele>1524.8</ele>
        <time>2021-09-19T08:46:58Z</time>
      </trkpt>
      <trkpt lat="42.75771" lon="1.53077">
        <ele>1524.8</ele>
        <time>2021-09-19T08:46:59Z</time>
      </trkpt>
      <trkpt lat="42.7577" lon="1.53077">
        <ele>1524.6</ele>
        <time>2021-09-19T08:47:00Z</time>
      </trkpt>
      <trkpt lat="42.75766" lon="1.53077">
        <ele>1524.6</ele>
        <time>2021-09-19T08:47:03Z</time>
      </trkpt>
      <trkpt lat="42.75765" lon="1.53077">
        <ele>1524.6</ele>
        <time>2021-09-19T08:47:04Z</time>
      </trkpt>
      <trkpt lat="42.75764" lon="1.53077">
        <ele>1524.6</ele>
        <time>2021-09-19T08:47:06Z</time>
      </trkpt>
      <trkpt lat="42.75759" lon="1.53074">
        <ele>1524.2</ele>
        <time>2021-09-19T08:47:10Z</time>
      </trkpt>
      <trkpt lat="42.75758" lon="1.53073">
        <ele>1524</ele>
        <time>2021-09-19T08:47:11Z</time>
      </trkpt>
      <trkpt lat="42.75754" lon="1.53071">
        <ele>1524</ele>
        <time>2021-09-19T08:47:15Z</time>
      </trkpt>
      <trkpt lat="42.75752" lon="1.53071">
        <ele>1524</ele>
        <time>2021-09-19T08:47:17Z</time>
      </trkpt>
      <trkpt lat="42.7575" lon="1.53069">
        <ele>1523.6</ele>
        <time>2021-09-19T08:47:19Z</time>
      </trkpt>
      <trkpt lat="42.75748" lon="1.53068">
        <ele>1523.4</ele>
        <time>2021-09-19T08:47:21Z</time>
      </trkpt>
      <trkpt lat="42.75745" lon="1.53066">
        <ele>1523.4</ele>
        <time>2021-09-19T08:47:25Z</time>
      </trkpt>
      <trkpt lat="42.75743" lon="1.53065">
        <ele>1523.4</ele>
        <time>2021-09-19T08:47:27Z</time>
      </trkpt>
      <trkpt lat="42.75738" lon="1.53061">
        <ele>1522.8</ele>
        <time>2021-09-19T08:47:33Z</time>
      </trkpt>
      <trkpt lat="42.75736" lon="1.53059">
        <ele>1522.6</ele>
        <time>2021-09-19T08:47:35Z</time>
      </trkpt>
      <trkpt lat="42.75734" lon="1.53057">
        <ele>1522.8</ele>
        <time>2021-09-19T08:47:37Z</time>
      </trkpt>
      <trkpt lat="42.75731" lon="1.53056">
        <ele>1523</ele>
        <time>2021-09-19T08:47:40Z</time>
      </trkpt>
      <trkpt lat="42.7573" lon="1.53056">
        <ele>1523</ele>
        <time>2021-09-19T08:47:41Z</time>
      </trkpt>
      <trkpt lat="42.75724" lon="1.53053">
        <ele>1522.4</ele>
        <time>2021-09-19T08:47:46Z</time>
      </trkpt>
      <trkpt lat="42.75718" lon="1.53052">
        <ele>1522.4</ele>
        <time>2021-09-19T08:47:51Z</time>
      </trkpt>
      <trkpt lat="42.75716" lon="1.53051">
        <ele>1522.4</ele>
        <time>2021-09-19T08:47:53Z</time>
      </trkpt>
      <trkpt lat="42.75711" lon="1.53047">
        <ele>1522.2</ele>
        <time>2021-09-19T08:47:58Z</time>
      </trkpt>
      <trkpt lat="42.7571" lon="1.53047">
        <ele>1522.2</ele>
        <time>2021-09-19T08:47:59Z</time>
      </trkpt>
      <trkpt lat="42.75709" lon="1.53045">
        <ele>1522</ele>
        <time>2021-09-19T08:48:01Z</time>
      </trkpt>
      <trkpt lat="42.75706" lon="1.53043">
        <ele>1521.8</ele>
        <time>2021-09-19T08:48:04Z</time>
      </trkpt>
      <trkpt lat="42.75704" lon="1.53043">
        <ele>1521.4</ele>
        <time>2021-09-19T08:48:05Z</time>
      </trkpt>
      <trkpt lat="42.75702" lon="1.53041">
        <ele>1521</ele>
        <time>2021-09-19T08:48:07Z</time>
      </trkpt>
      <trkpt lat="42.757" lon="1.5304">
        <ele>1521</ele>
        <time>2021-09-19T08:48:08Z</time>
      </trkpt>
      <trkpt lat="42.75691" lon="1.53035">
        <ele>1521</ele>
        <time>2021-09-19T08:48:16Z</time>
      </trkpt>
      <trkpt lat="42.75687" lon="1.53032">
        <ele>1520.6</ele>
        <time>2021-09-19T08:48:20Z</time>
      </trkpt>
      <trkpt lat="42.75686" lon="1.53031">
        <ele>1520.4</ele>
        <time>2021-09-19T08:48:22Z</time>
      </trkpt>
      <trkpt lat="42.75681" lon="1.53029">
        <ele>1520.4</ele>
        <time>2021-09-19T08:48:26Z</time>
      </trkpt>
      <trkpt lat="42.7568" lon="1.53028">
        <ele>1520.2</ele>
        <time>2021-09-19T08:48:28Z</time>
      </trkpt>
      <trkpt lat="42.75675" lon="1.53025">
        <ele>1520</ele>
        <time>2021-09-19T08:48:33Z</time>
      </trkpt>
      <trkpt lat="42.75673" lon="1.53024">
        <ele>1519.8</ele>
        <time>2021-09-19T08:48:35Z</time>
      </trkpt>
      <trkpt lat="42.75672" lon="1.53024">
        <ele>1519.6</ele>
        <time>2021-09-19T08:48:36Z</time>
      </trkpt>
      <trkpt lat="42.75671" lon="1.53023">
        <ele>1519.6</ele>
        <time>2021-09-19T08:48:37Z</time>
      </trkpt>
      <trkpt lat="42.7567" lon="1.53023">
        <ele>1519.2</ele>
        <time>2021-09-19T08:48:39Z</time>
      </trkpt>
      <trkpt lat="42.75668" lon="1.5302">
        <ele>1518.6</ele>
        <time>2021-09-19T08:48:43Z</time>
      </trkpt>
      <trkpt lat="42.75667" lon="1.53019">
        <ele>1518.4</ele>
        <time>2021-09-19T08:48:44Z</time>
      </trkpt>
      <trkpt lat="42.75665" lon="1.53017">
        <ele>1518</ele>
        <time>2021-09-19T08:48:46Z</time>
      </trkpt>
      <trkpt lat="42.75664" lon="1.53016">
        <ele>1517.2</ele>
        <time>2021-09-19T08:48:48Z</time>
      </trkpt>
      <trkpt lat="42.75663" lon="1.53017">
        <ele>1516.8</ele>
        <time>2021-09-19T08:48:49Z</time>
      </trkpt>
      <trkpt lat="42.75663" lon="1.53017">
        <ele>1516.4</ele>
        <time>2021-09-19T08:48:52Z</time>
      </trkpt>
      <trkpt lat="42.75663" lon="1.53017">
        <ele>1516.2</ele>
        <time>2021-09-19T08:48:55Z</time>
      </trkpt>
      <trkpt lat="42.75664" lon="1.53018">
        <ele>1515.8</ele>
        <time>2021-09-19T08:48:58Z</time>
      </trkpt>
      <trkpt lat="42.75663" lon="1.53015">
        <ele>1515.6</ele>
        <time>2021-09-19T08:49:03Z</time>
      </trkpt>
      <trkpt lat="42.7566" lon="1.53011">
        <ele>1516</ele>
        <time>2021-09-19T08:49:11Z</time>
      </trkpt>
      <trkpt lat="42.75653" lon="1.53004">
        <ele>1516.4</ele>
        <time>2021-09-19T08:49:18Z</time>
      </trkpt>
      <trkpt lat="42.7565" lon="1.53002">
        <ele>1516.6</ele>
        <time>2021-09-19T08:49:20Z</time>
      </trkpt>
      <trkpt lat="42.75649" lon="1.53001">
        <ele>1516.8</ele>
        <time>2021-09-19T08:49:21Z</time>
      </trkpt>
      <trkpt lat="42.75645" lon="1.52998">
        <ele>1516.8</ele>
        <time>2021-09-19T08:49:26Z</time>
      </trkpt>
      <trkpt lat="42.75644" lon="1.52998">
        <ele>1516.8</ele>
        <time>2021-09-19T08:49:28Z</time>
      </trkpt>
      <trkpt lat="42.7564" lon="1.52997">
        <ele>1516.8</ele>
        <time>2021-09-19T08:49:33Z</time>
      </trkpt>
      <trkpt lat="42.75638" lon="1.52997">
        <ele>1516.8</ele>
        <time>2021-09-19T08:49:35Z</time>
      </trkpt>
      <trkpt lat="42.75637" lon="1.52997">
        <ele>1516.6</ele>
        <time>2021-09-19T08:49:37Z</time>
      </trkpt>
      <trkpt lat="42.75634" lon="1.52997">
        <ele>1516.6</ele>
        <time>2021-09-19T08:49:39Z</time>
      </trkpt>
      <trkpt lat="42.75632" lon="1.52996">
        <ele>1516.4</ele>
        <time>2021-09-19T08:49:41Z</time>
      </trkpt>
      <trkpt lat="42.75625" lon="1.52992">
        <ele>1515.8</ele>
        <time>2021-09-19T08:49:48Z</time>
      </trkpt>
      <trkpt lat="42.75623" lon="1.52991">
        <ele>1515.8</ele>
        <time>2021-09-19T08:49:50Z</time>
      </trkpt>
      <trkpt lat="42.75616" lon="1.52989">
        <ele>1515.6</ele>
        <time>2021-09-19T08:49:57Z</time>
      </trkpt>
      <trkpt lat="42.75613" lon="1.52987">
        <ele>1515.4</ele>
        <time>2021-09-19T08:50:01Z</time>
      </trkpt>
      <trkpt lat="42.75612" lon="1.52987">
        <ele>1515.6</ele>
        <time>2021-09-19T08:50:02Z</time>
      </trkpt>
      <trkpt lat="42.75611" lon="1.52987">
        <ele>1515.6</ele>
        <time>2021-09-19T08:50:04Z</time>
      </trkpt>
      <trkpt lat="42.75609" lon="1.52987">
        <ele>1515.6</ele>
        <time>2021-09-19T08:50:06Z</time>
      </trkpt>
      <trkpt lat="42.75608" lon="1.52987">
        <ele>1515.6</ele>
        <time>2021-09-19T08:50:07Z</time>
      </trkpt>
      <trkpt lat="42.75605" lon="1.52986">
        <ele>1515.4</ele>
        <time>2021-09-19T08:50:10Z</time>
      </trkpt>
      <trkpt lat="42.75603" lon="1.52985">
        <ele>1515.2</ele>
        <time>2021-09-19T08:50:12Z</time>
      </trkpt>
      <trkpt lat="42.75598" lon="1.52982">
        <ele>1515</ele>
        <time>2021-09-19T08:50:16Z</time>
      </trkpt>
      <trkpt lat="42.75591" lon="1.5298">
        <ele>1514.8</ele>
        <time>2021-09-19T08:50:24Z</time>
      </trkpt>
      <trkpt lat="42.7559" lon="1.5298">
        <ele>1514.6</ele>
        <time>2021-09-19T08:50:25Z</time>
      </trkpt>
      <trkpt lat="42.75588" lon="1.52979">
        <ele>1514.6</ele>
        <time>2021-09-19T08:50:27Z</time>
      </trkpt>
      <trkpt lat="42.75583" lon="1.52976">
        <ele>1514.6</ele>
        <time>2021-09-19T08:50:33Z</time>
      </trkpt>
      <trkpt lat="42.75582" lon="1.52976">
        <ele>1514.6</ele>
        <time>2021-09-19T08:50:34Z</time>
      </trkpt>
      <trkpt lat="42.75574" lon="1.52978">
        <ele>1514</ele>
        <time>2021-09-19T08:50:41Z</time>
      </trkpt>
      <trkpt lat="42.75573" lon="1.52978">
        <ele>1514</ele>
        <time>2021-09-19T08:50:42Z</time>
      </trkpt>
      <trkpt lat="42.75569" lon="1.52978">
        <ele>1513.6</ele>
        <time>2021-09-19T08:50:45Z</time>
      </trkpt>
      <trkpt lat="42.75561" lon="1.5298">
        <ele>1513</ele>
        <time>2021-09-19T08:50:51Z</time>
      </trkpt>
      <trkpt lat="42.75557" lon="1.52981">
        <ele>1512.8</ele>
        <time>2021-09-19T08:50:54Z</time>
      </trkpt>
      <trkpt lat="42.7555" lon="1.52984">
        <ele>1512.6</ele>
        <time>2021-09-19T08:50:59Z</time>
      </trkpt>
      <trkpt lat="42.75549" lon="1.52984">
        <ele>1512.4</ele>
        <time>2021-09-19T08:51:00Z</time>
      </trkpt>
      <trkpt lat="42.75543" lon="1.52987">
        <ele>1512.2</ele>
        <time>2021-09-19T08:51:05Z</time>
      </trkpt>
      <trkpt lat="42.75537" lon="1.5299">
        <ele>1511.8</ele>
        <time>2021-09-19T08:51:13Z</time>
      </trkpt>
      <trkpt lat="42.75533" lon="1.52991">
        <ele>1511.6</ele>
        <time>2021-09-19T08:51:17Z</time>
      </trkpt>
      <trkpt lat="42.75527" lon="1.52993">
        <ele>1510.8</ele>
        <time>2021-09-19T08:51:23Z</time>
      </trkpt>
      <trkpt lat="42.75523" lon="1.52995">
        <ele>1510.6</ele>
        <time>2021-09-19T08:51:27Z</time>
      </trkpt>
      <trkpt lat="42.75517" lon="1.52997">
        <ele>1510</ele>
        <time>2021-09-19T08:51:32Z</time>
      </trkpt>
      <trkpt lat="42.75512" lon="1.53">
        <ele>1509.6</ele>
        <time>2021-09-19T08:51:36Z</time>
      </trkpt>
      <trkpt lat="42.7551" lon="1.53001">
        <ele>1509.6</ele>
        <time>2021-09-19T08:51:38Z</time>
      </trkpt>
      <trkpt lat="42.75509" lon="1.53002">
        <ele>1509.4</ele>
        <time>2021-09-19T08:51:39Z</time>
      </trkpt>
      <trkpt lat="42.75505" lon="1.53003">
        <ele>1509</ele>
        <time>2021-09-19T08:51:44Z</time>
      </trkpt>
      <trkpt lat="42.75501" lon="1.53004">
        <ele>1508.8</ele>
        <time>2021-09-19T08:51:48Z</time>
      </trkpt>
      <trkpt lat="42.75499" lon="1.53005">
        <ele>1508.6</ele>
        <time>2021-09-19T08:51:50Z</time>
      </trkpt>
      <trkpt lat="42.75498" lon="1.53005">
        <ele>1508.6</ele>
        <time>2021-09-19T08:51:51Z</time>
      </trkpt>
      <trkpt lat="42.75496" lon="1.53007">
        <ele>1508.2</ele>
        <time>2021-09-19T08:51:53Z</time>
      </trkpt>
      <trkpt lat="42.75495" lon="1.53007">
        <ele>1508.2</ele>
        <time>2021-09-19T08:51:54Z</time>
      </trkpt>
      <trkpt lat="42.75493" lon="1.53008">
        <ele>1508</ele>
        <time>2021-09-19T08:51:56Z</time>
      </trkpt>
      <trkpt lat="42.75486" lon="1.53013">
        <ele>1507.6</ele>
        <time>2021-09-19T08:52:03Z</time>
      </trkpt>
      <trkpt lat="42.75484" lon="1.53014">
        <ele>1507.4</ele>
        <time>2021-09-19T08:52:05Z</time>
      </trkpt>
      <trkpt lat="42.75483" lon="1.53015">
        <ele>1507.2</ele>
        <time>2021-09-19T08:52:06Z</time>
      </trkpt>
      <trkpt lat="42.75479" lon="1.53019">
        <ele>1506.4</ele>
        <time>2021-09-19T08:52:11Z</time>
      </trkpt>
      <trkpt lat="42.75477" lon="1.53022">
        <ele>1506.4</ele>
        <time>2021-09-19T08:52:14Z</time>
      </trkpt>
      <trkpt lat="42.75471" lon="1.53024">
        <ele>1506.4</ele>
        <time>2021-09-19T08:52:19Z</time>
      </trkpt>
      <trkpt lat="42.75468" lon="1.53025">
        <ele>1506.2</ele>
        <time>2021-09-19T08:52:21Z</time>
      </trkpt>
      <trkpt lat="42.75459" lon="1.53026">
        <ele>1505.2</ele>
        <time>2021-09-19T08:52:27Z</time>
      </trkpt>
      <trkpt lat="42.75458" lon="1.53027">
        <ele>1505</ele>
        <time>2021-09-19T08:52:28Z</time>
      </trkpt>
      <trkpt lat="42.75448" lon="1.53033">
        <ele>1504.2</ele>
        <time>2021-09-19T08:52:36Z</time>
      </trkpt>
      <trkpt lat="42.75447" lon="1.53033">
        <ele>1504</ele>
        <time>2021-09-19T08:52:37Z</time>
      </trkpt>
      <trkpt lat="42.75439" lon="1.53038">
        <ele>1503.2</ele>
        <time>2021-09-19T08:52:44Z</time>
      </trkpt>
      <trkpt lat="42.75437" lon="1.5304">
        <ele>1502.8</ele>
        <time>2021-09-19T08:52:46Z</time>
      </trkpt>
      <trkpt lat="42.75433" lon="1.53046">
        <ele>1502.2</ele>
        <time>2021-09-19T08:52:51Z</time>
      </trkpt>
      <trkpt lat="42.75431" lon="1.53049">
        <ele>1501.8</ele>
        <time>2021-09-19T08:52:53Z</time>
      </trkpt>
      <trkpt lat="42.7543" lon="1.53051">
        <ele>1501.6</ele>
        <time>2021-09-19T08:52:55Z</time>
      </trkpt>
      <trkpt lat="42.75426" lon="1.53056">
        <ele>1501.4</ele>
        <time>2021-09-19T08:52:59Z</time>
      </trkpt>
      <trkpt lat="42.75425" lon="1.53058">
        <ele>1501.2</ele>
        <time>2021-09-19T08:53:00Z</time>
      </trkpt>
      <trkpt lat="42.75423" lon="1.5306">
        <ele>1500.8</ele>
        <time>2021-09-19T08:53:02Z</time>
      </trkpt>
      <trkpt lat="42.75419" lon="1.53065">
        <ele>1500.2</ele>
        <time>2021-09-19T08:53:07Z</time>
      </trkpt>
      <trkpt lat="42.75417" lon="1.53067">
        <ele>1500</ele>
        <time>2021-09-19T08:53:09Z</time>
      </trkpt>
      <trkpt lat="42.75417" lon="1.53069">
        <ele>1500</ele>
        <time>2021-09-19T08:53:10Z</time>
      </trkpt>
      <trkpt lat="42.75414" lon="1.53073">
        <ele>1499.8</ele>
        <time>2021-09-19T08:53:14Z</time>
      </trkpt>
      <trkpt lat="42.75414" lon="1.53073">
        <ele>1499.8</ele>
        <time>2021-09-19T08:53:15Z</time>
      </trkpt>
      <trkpt lat="42.75411" lon="1.53076">
        <ele>1499.4</ele>
        <time>2021-09-19T08:53:21Z</time>
      </trkpt>
      <trkpt lat="42.7541" lon="1.53079">
        <ele>1499.4</ele>
        <time>2021-09-19T08:53:23Z</time>
      </trkpt>
      <trkpt lat="42.75409" lon="1.53084">
        <ele>1499.2</ele>
        <time>2021-09-19T08:53:26Z</time>
      </trkpt>
      <trkpt lat="42.75406" lon="1.53096">
        <ele>1498.8</ele>
        <time>2021-09-19T08:53:32Z</time>
      </trkpt>
      <trkpt lat="42.75406" lon="1.53103">
        <ele>1498.8</ele>
        <time>2021-09-19T08:53:35Z</time>
      </trkpt>
      <trkpt lat="42.75403" lon="1.53113">
        <ele>1498</ele>
        <time>2021-09-19T08:53:42Z</time>
      </trkpt>
      <trkpt lat="42.75403" lon="1.53114">
        <ele>1497.6</ele>
        <time>2021-09-19T08:53:43Z</time>
      </trkpt>
      <trkpt lat="42.75399" lon="1.53122">
        <ele>1497.6</ele>
        <time>2021-09-19T08:53:50Z</time>
      </trkpt>
      <trkpt lat="42.75393" lon="1.5313">
        <ele>1497.8</ele>
        <time>2021-09-19T08:53:57Z</time>
      </trkpt>
      <trkpt lat="42.75393" lon="1.5313">
        <ele>1497.8</ele>
        <time>2021-09-19T08:53:59Z</time>
      </trkpt>
      <trkpt lat="42.75393" lon="1.5313">
        <ele>1497.6</ele>
        <time>2021-09-19T08:54:03Z</time>
      </trkpt>
      <trkpt lat="42.75393" lon="1.53131">
        <ele>1497.6</ele>
        <time>2021-09-19T08:54:04Z</time>
      </trkpt>
      <trkpt lat="42.75393" lon="1.53131">
        <ele>1497.6</ele>
        <time>2021-09-19T08:54:05Z</time>
      </trkpt>
      <trkpt lat="42.75393" lon="1.53131">
        <ele>1497.6</ele>
        <time>2021-09-19T08:54:06Z</time>
      </trkpt>
      <trkpt lat="42.75391" lon="1.53133">
        <ele>1497.4</ele>
        <time>2021-09-19T08:54:13Z</time>
      </trkpt>
      <trkpt lat="42.7539" lon="1.53137">
        <ele>1497.4</ele>
        <time>2021-09-19T08:54:17Z</time>
      </trkpt>
      <trkpt lat="42.7539" lon="1.5314">
        <ele>1497.6</ele>
        <time>2021-09-19T08:54:20Z</time>
      </trkpt>
      <trkpt lat="42.7539" lon="1.53141">
        <ele>1497.6</ele>
        <time>2021-09-19T08:54:21Z</time>
      </trkpt>
      <trkpt lat="42.7539" lon="1.53142">
        <ele>1497.6</ele>
        <time>2021-09-19T08:54:22Z</time>
      </trkpt>
      <trkpt lat="42.7539" lon="1.53145">
        <ele>1497.6</ele>
        <time>2021-09-19T08:54:25Z</time>
      </trkpt>
      <trkpt lat="42.75389" lon="1.53149">
        <ele>1497.6</ele>
        <time>2021-09-19T08:54:28Z</time>
      </trkpt>
      <trkpt lat="42.75389" lon="1.53151">
        <ele>1497.6</ele>
        <time>2021-09-19T08:54:29Z</time>
      </trkpt>
      <trkpt lat="42.75389" lon="1.53152">
        <ele>1497.4</ele>
        <time>2021-09-19T08:54:30Z</time>
      </trkpt>
      <trkpt lat="42.75386" lon="1.53159">
        <ele>1497</ele>
        <time>2021-09-19T08:54:35Z</time>
      </trkpt>
      <trkpt lat="42.75384" lon="1.53166">
        <ele>1496.6</ele>
        <time>2021-09-19T08:54:40Z</time>
      </trkpt>
      <trkpt lat="42.75383" lon="1.53169">
        <ele>1496.4</ele>
        <time>2021-09-19T08:54:42Z</time>
      </trkpt>
      <trkpt lat="42.75378" lon="1.53173">
        <ele>1496.2</ele>
        <time>2021-09-19T08:54:48Z</time>
      </trkpt>
      <trkpt lat="42.75375" lon="1.53176">
        <ele>1495.8</ele>
        <time>2021-09-19T08:54:51Z</time>
      </trkpt>
      <trkpt lat="42.75374" lon="1.53176">
        <ele>1495.4</ele>
        <time>2021-09-19T08:54:52Z</time>
      </trkpt>
      <trkpt lat="42.75373" lon="1.53183">
        <ele>1494.2</ele>
        <time>2021-09-19T08:54:58Z</time>
      </trkpt>
      <trkpt lat="42.75373" lon="1.53184">
        <ele>1494</ele>
        <time>2021-09-19T08:54:59Z</time>
      </trkpt>
      <trkpt lat="42.75372" lon="1.53184">
        <ele>1494</ele>
        <time>2021-09-19T08:55:00Z</time>
      </trkpt>
      <trkpt lat="42.75371" lon="1.53186">
        <ele>1493.8</ele>
        <time>2021-09-19T08:55:02Z</time>
      </trkpt>
      <trkpt lat="42.75369" lon="1.53189">
        <ele>1493.6</ele>
        <time>2021-09-19T08:55:06Z</time>
      </trkpt>
      <trkpt lat="42.75369" lon="1.5319">
        <ele>1493.4</ele>
        <time>2021-09-19T08:55:07Z</time>
      </trkpt>
      <trkpt lat="42.75369" lon="1.53191">
        <ele>1493</ele>
        <time>2021-09-19T08:55:09Z</time>
      </trkpt>
      <trkpt lat="42.75368" lon="1.53197">
        <ele>1492</ele>
        <time>2021-09-19T08:55:13Z</time>
      </trkpt>
      <trkpt lat="42.75368" lon="1.53202">
        <ele>1491.2</ele>
        <time>2021-09-19T08:55:16Z</time>
      </trkpt>
      <trkpt lat="42.75368" lon="1.53205">
        <ele>1490.8</ele>
        <time>2021-09-19T08:55:18Z</time>
      </trkpt>
      <trkpt lat="42.75366" lon="1.53211">
        <ele>1489.8</ele>
        <time>2021-09-19T08:55:24Z</time>
      </trkpt>
      <trkpt lat="42.75365" lon="1.53212">
        <ele>1489.6</ele>
        <time>2021-09-19T08:55:25Z</time>
      </trkpt>
      <trkpt lat="42.75363" lon="1.53215">
        <ele>1489.4</ele>
        <time>2021-09-19T08:55:29Z</time>
      </trkpt>
      <trkpt lat="42.7536" lon="1.53219">
        <ele>1489.2</ele>
        <time>2021-09-19T08:55:32Z</time>
      </trkpt>
      <trkpt lat="42.75359" lon="1.5322">
        <ele>1489.2</ele>
        <time>2021-09-19T08:55:33Z</time>
      </trkpt>
      <trkpt lat="42.75358" lon="1.5322">
        <ele>1488.8</ele>
        <time>2021-09-19T08:55:34Z</time>
      </trkpt>
      <trkpt lat="42.75357" lon="1.53219">
        <ele>1488.4</ele>
        <time>2021-09-19T08:55:35Z</time>
      </trkpt>
      <trkpt lat="42.75356" lon="1.53219">
        <ele>1488.2</ele>
        <time>2021-09-19T08:55:36Z</time>
      </trkpt>
      <trkpt lat="42.75352" lon="1.53218">
        <ele>1487.4</ele>
        <time>2021-09-19T08:55:39Z</time>
      </trkpt>
      <trkpt lat="42.7535" lon="1.53217">
        <ele>1487.2</ele>
        <time>2021-09-19T08:55:41Z</time>
      </trkpt>
      <trkpt lat="42.75343" lon="1.53207">
        <ele>1486.6</ele>
        <time>2021-09-19T08:55:49Z</time>
      </trkpt>
      <trkpt lat="42.75341" lon="1.53206">
        <ele>1486.8</ele>
        <time>2021-09-19T08:55:52Z</time>
      </trkpt>
      <trkpt lat="42.75337" lon="1.53203">
        <ele>1487.2</ele>
        <time>2021-09-19T08:55:56Z</time>
      </trkpt>
      <trkpt lat="42.75337" lon="1.53203">
        <ele>1487.2</ele>
        <time>2021-09-19T08:55:57Z</time>
      </trkpt>
      <trkpt lat="42.75338" lon="1.53199">
        <ele>1487.2</ele>
        <time>2021-09-19T08:56:01Z</time>
      </trkpt>
      <trkpt lat="42.7534" lon="1.53195">
        <ele>1487.4</ele>
        <time>2021-09-19T08:56:08Z</time>
      </trkpt>
      <trkpt lat="42.75341" lon="1.53196">
        <ele>1487.6</ele>
        <time>2021-09-19T08:56:14Z</time>
      </trkpt>
      <trkpt lat="42.75341" lon="1.53198">
        <ele>1487.6</ele>
        <time>2021-09-19T08:56:17Z</time>
      </trkpt>
      <trkpt lat="42.75337" lon="1.53202">
        <ele>1488</ele>
        <time>2021-09-19T08:56:22Z</time>
      </trkpt>
      <trkpt lat="42.75336" lon="1.53202">
        <ele>1488</ele>
        <time>2021-09-19T08:56:23Z</time>
      </trkpt>
      <trkpt lat="42.75334" lon="1.53202">
        <ele>1488.4</ele>
        <time>2021-09-19T08:56:27Z</time>
      </trkpt>
      <trkpt lat="42.75333" lon="1.53201">
        <ele>1488.2</ele>
        <time>2021-09-19T08:56:28Z</time>
      </trkpt>
      <trkpt lat="42.75335" lon="1.53203">
        <ele>1487.6</ele>
        <time>2021-09-19T08:56:35Z</time>
      </trkpt>
      <trkpt lat="42.75337" lon="1.53203">
        <ele>1487.6</ele>
        <time>2021-09-19T08:56:38Z</time>
      </trkpt>
      <trkpt lat="42.75337" lon="1.53204">
        <ele>1487.4</ele>
        <time>2021-09-19T08:56:40Z</time>
      </trkpt>
      <trkpt lat="42.75337" lon="1.53204">
        <ele>1487.4</ele>
        <time>2021-09-19T08:56:42Z</time>
      </trkpt>
      <trkpt lat="42.75339" lon="1.53205">
        <ele>1487.4</ele>
        <time>2021-09-19T08:56:45Z</time>
      </trkpt>
      <trkpt lat="42.7534" lon="1.53205">
        <ele>1487.8</ele>
        <time>2021-09-19T08:56:50Z</time>
      </trkpt>
      <trkpt lat="42.75341" lon="1.532">
        <ele>1488</ele>
        <time>2021-09-19T08:57:01Z</time>
      </trkpt>
      <trkpt lat="42.75339" lon="1.53203">
        <ele>1487.2</ele>
        <time>2021-09-19T08:57:11Z</time>
      </trkpt>
      <trkpt lat="42.75338" lon="1.53201">
        <ele>1488</ele>
        <time>2021-09-19T08:57:19Z</time>
      </trkpt>
      <trkpt lat="42.75339" lon="1.53201">
        <ele>1488</ele>
        <time>2021-09-19T08:57:24Z</time>
      </trkpt>
      <trkpt lat="42.75338" lon="1.53201">
        <ele>1488</ele>
        <time>2021-09-19T08:57:26Z</time>
      </trkpt>
      <trkpt lat="42.75335" lon="1.53203">
        <ele>1488</ele>
        <time>2021-09-19T08:57:29Z</time>
      </trkpt>
      <trkpt lat="42.75332" lon="1.53204">
        <ele>1488</ele>
        <time>2021-09-19T08:57:31Z</time>
      </trkpt>
      <trkpt lat="42.75332" lon="1.53205">
        <ele>1488</ele>
        <time>2021-09-19T08:57:32Z</time>
      </trkpt>
      <trkpt lat="42.7533" lon="1.53207">
        <ele>1488</ele>
        <time>2021-09-19T08:57:34Z</time>
      </trkpt>
      <trkpt lat="42.75328" lon="1.53208">
        <ele>1488</ele>
        <time>2021-09-19T08:57:36Z</time>
      </trkpt>
      <trkpt lat="42.75325" lon="1.5321">
        <ele>1487.4</ele>
        <time>2021-09-19T08:57:40Z</time>
      </trkpt>
      <trkpt lat="42.75323" lon="1.53212">
        <ele>1487.4</ele>
        <time>2021-09-19T08:57:42Z</time>
      </trkpt>
      <trkpt lat="42.75322" lon="1.53213">
        <ele>1487.4</ele>
        <time>2021-09-19T08:57:44Z</time>
      </trkpt>
      <trkpt lat="42.7532" lon="1.53216">
        <ele>1487.6</ele>
        <time>2021-09-19T08:57:47Z</time>
      </trkpt>
      <trkpt lat="42.75319" lon="1.53217">
        <ele>1487.4</ele>
        <time>2021-09-19T08:57:48Z</time>
      </trkpt>
      <trkpt lat="42.75313" lon="1.53216">
        <ele>1487.4</ele>
        <time>2021-09-19T08:57:53Z</time>
      </trkpt>
      <trkpt lat="42.75311" lon="1.53217">
        <ele>1487.6</ele>
        <time>2021-09-19T08:57:55Z</time>
      </trkpt>
      <trkpt lat="42.7531" lon="1.53222">
        <ele>1488.2</ele>
        <time>2021-09-19T08:57:59Z</time>
      </trkpt>
      <trkpt lat="42.75308" lon="1.53229">
        <ele>1488.2</ele>
        <time>2021-09-19T08:58:05Z</time>
      </trkpt>
      <trkpt lat="42.75309" lon="1.53231">
        <ele>1487.8</ele>
        <time>2021-09-19T08:58:13Z</time>
      </trkpt>
      <trkpt lat="42.7531" lon="1.53235">
        <ele>1487.8</ele>
        <time>2021-09-19T08:58:16Z</time>
      </trkpt>
      <trkpt lat="42.7531" lon="1.53238">
        <ele>1487.8</ele>
        <time>2021-09-19T08:58:18Z</time>
      </trkpt>
      <trkpt lat="42.75309" lon="1.53247">
        <ele>1488</ele>
        <time>2021-09-19T08:58:25Z</time>
      </trkpt>
      <trkpt lat="42.75309" lon="1.53249">
        <ele>1488</ele>
        <time>2021-09-19T08:58:26Z</time>
      </trkpt>
      <trkpt lat="42.75308" lon="1.53255">
        <ele>1487.8</ele>
        <time>2021-09-19T08:58:31Z</time>
      </trkpt>
      <trkpt lat="42.75306" lon="1.53259">
        <ele>1488</ele>
        <time>2021-09-19T08:58:34Z</time>
      </trkpt>
      <trkpt lat="42.75301" lon="1.53266">
        <ele>1488.2</ele>
        <time>2021-09-19T08:58:41Z</time>
      </trkpt>
      <trkpt lat="42.75301" lon="1.53267">
        <ele>1488.2</ele>
        <time>2021-09-19T08:58:42Z</time>
      </trkpt>
      <trkpt lat="42.753" lon="1.53271">
        <ele>1488.2</ele>
        <time>2021-09-19T08:58:44Z</time>
      </trkpt>
      <trkpt lat="42.75299" lon="1.53277">
        <ele>1488.2</ele>
        <time>2021-09-19T08:58:49Z</time>
      </trkpt>
      <trkpt lat="42.75297" lon="1.53285">
        <ele>1488</ele>
        <time>2021-09-19T08:58:56Z</time>
      </trkpt>
      <trkpt lat="42.75295" lon="1.53288">
        <ele>1488.2</ele>
        <time>2021-09-19T08:59:00Z</time>
      </trkpt>
      <trkpt lat="42.75295" lon="1.53289">
        <ele>1488.2</ele>
        <time>2021-09-19T08:59:01Z</time>
      </trkpt>
      <trkpt lat="42.75293" lon="1.53292">
        <ele>1488</ele>
        <time>2021-09-19T08:59:04Z</time>
      </trkpt>
      <trkpt lat="42.7529" lon="1.53302">
        <ele>1488.2</ele>
        <time>2021-09-19T08:59:11Z</time>
      </trkpt>
      <trkpt lat="42.75288" lon="1.53307">
        <ele>1487.8</ele>
        <time>2021-09-19T08:59:14Z</time>
      </trkpt>
      <trkpt lat="42.75286" lon="1.53311">
        <ele>1487.8</ele>
        <time>2021-09-19T08:59:18Z</time>
      </trkpt>
      <trkpt lat="42.75281" lon="1.53317">
        <ele>1487.8</ele>
        <time>2021-09-19T08:59:24Z</time>
      </trkpt>
      <trkpt lat="42.7528" lon="1.53318">
        <ele>1487.6</ele>
        <time>2021-09-19T08:59:25Z</time>
      </trkpt>
      <trkpt lat="42.75276" lon="1.53323">
        <ele>1487.4</ele>
        <time>2021-09-19T08:59:30Z</time>
      </trkpt>
      <trkpt lat="42.75275" lon="1.53326">
        <ele>1487.4</ele>
        <time>2021-09-19T08:59:33Z</time>
      </trkpt>
      <trkpt lat="42.75271" lon="1.53337">
        <ele>1487.8</ele>
        <time>2021-09-19T08:59:41Z</time>
      </trkpt>
      <trkpt lat="42.7527" lon="1.53341">
        <ele>1487.8</ele>
        <time>2021-09-19T08:59:46Z</time>
      </trkpt>
      <trkpt lat="42.75269" lon="1.53343">
        <ele>1487.6</ele>
        <time>2021-09-19T08:59:48Z</time>
      </trkpt>
      <trkpt lat="42.75268" lon="1.53346">
        <ele>1487.6</ele>
        <time>2021-09-19T08:59:51Z</time>
      </trkpt>
      <trkpt lat="42.75267" lon="1.53349">
        <ele>1487.6</ele>
        <time>2021-09-19T08:59:53Z</time>
      </trkpt>
      <trkpt lat="42.75266" lon="1.53352">
        <ele>1487.4</ele>
        <time>2021-09-19T08:59:56Z</time>
      </trkpt>
      <trkpt lat="42.75263" lon="1.53362">
        <ele>1487.2</ele>
        <time>2021-09-19T09:00:04Z</time>
      </trkpt>
      <trkpt lat="42.75261" lon="1.53367">
        <ele>1487</ele>
        <time>2021-09-19T09:00:08Z</time>
      </trkpt>
      <trkpt lat="42.7526" lon="1.53371">
        <ele>1487.2</ele>
        <time>2021-09-19T09:00:10Z</time>
      </trkpt>
      <trkpt lat="42.75259" lon="1.53376">
        <ele>1487.2</ele>
        <time>2021-09-19T09:00:13Z</time>
      </trkpt>
      <trkpt lat="42.75256" lon="1.53384">
        <ele>1487.2</ele>
        <time>2021-09-19T09:00:19Z</time>
      </trkpt>
      <trkpt lat="42.75251" lon="1.53396">
        <ele>1487.2</ele>
        <time>2021-09-19T09:00:28Z</time>
      </trkpt>
      <trkpt lat="42.75251" lon="1.53397">
        <ele>1487.2</ele>
        <time>2021-09-19T09:00:29Z</time>
      </trkpt>
      <trkpt lat="42.75246" lon="1.53406">
        <ele>1487.4</ele>
        <time>2021-09-19T09:00:37Z</time>
      </trkpt>
      <trkpt lat="42.7524" lon="1.53416">
        <ele>1487</ele>
        <time>2021-09-19T09:00:45Z</time>
      </trkpt>
      <trkpt lat="42.75239" lon="1.53425">
        <ele>1486.4</ele>
        <time>2021-09-19T09:00:51Z</time>
      </trkpt>
      <trkpt lat="42.75237" lon="1.53428">
        <ele>1486.4</ele>
        <time>2021-09-19T09:00:53Z</time>
      </trkpt>
      <trkpt lat="42.75234" lon="1.53435">
        <ele>1486.4</ele>
        <time>2021-09-19T09:00:58Z</time>
      </trkpt>
      <trkpt lat="42.75233" lon="1.53438">
        <ele>1486.4</ele>
        <time>2021-09-19T09:01:00Z</time>
      </trkpt>
      <trkpt lat="42.75229" lon="1.53444">
        <ele>1486.2</ele>
        <time>2021-09-19T09:01:05Z</time>
      </trkpt>
      <trkpt lat="42.75225" lon="1.53448">
        <ele>1485.8</ele>
        <time>2021-09-19T09:01:09Z</time>
      </trkpt>
      <trkpt lat="42.75221" lon="1.53457">
        <ele>1485.6</ele>
        <time>2021-09-19T09:01:16Z</time>
      </trkpt>
      <trkpt lat="42.7522" lon="1.53462">
        <ele>1485.4</ele>
        <time>2021-09-19T09:01:19Z</time>
      </trkpt>
      <trkpt lat="42.75217" lon="1.53468">
        <ele>1485.2</ele>
        <time>2021-09-19T09:01:24Z</time>
      </trkpt>
      <trkpt lat="42.75216" lon="1.53471">
        <ele>1485</ele>
        <time>2021-09-19T09:01:26Z</time>
      </trkpt>
      <trkpt lat="42.75213" lon="1.5348">
        <ele>1484.8</ele>
        <time>2021-09-19T09:01:33Z</time>
      </trkpt>
      <trkpt lat="42.75212" lon="1.53484">
        <ele>1484.6</ele>
        <time>2021-09-19T09:01:36Z</time>
      </trkpt>
      <trkpt lat="42.75211" lon="1.53489">
        <ele>1484.4</ele>
        <time>2021-09-19T09:01:39Z</time>
      </trkpt>
      <trkpt lat="42.7521" lon="1.53492">
        <ele>1484.2</ele>
        <time>2021-09-19T09:01:41Z</time>
      </trkpt>
      <trkpt lat="42.7521" lon="1.53493">
        <ele>1484.2</ele>
        <time>2021-09-19T09:01:42Z</time>
      </trkpt>
      <trkpt lat="42.75203" lon="1.53505">
        <ele>1484.2</ele>
        <time>2021-09-19T09:01:51Z</time>
      </trkpt>
      <trkpt lat="42.75197" lon="1.53516">
        <ele>1483.6</ele>
        <time>2021-09-19T09:02:00Z</time>
      </trkpt>
      <trkpt lat="42.75197" lon="1.53519">
        <ele>1483</ele>
        <time>2021-09-19T09:02:02Z</time>
      </trkpt>
      <trkpt lat="42.75194" lon="1.53531">
        <ele>1482.6</ele>
        <time>2021-09-19T09:02:10Z</time>
      </trkpt>
      <trkpt lat="42.7519" lon="1.5354">
        <ele>1482.2</ele>
        <time>2021-09-19T09:02:18Z</time>
      </trkpt>
      <trkpt lat="42.75189" lon="1.53542">
        <ele>1482</ele>
        <time>2021-09-19T09:02:19Z</time>
      </trkpt>
      <trkpt lat="42.75184" lon="1.53552">
        <ele>1481.8</ele>
        <time>2021-09-19T09:02:26Z</time>
      </trkpt>
      <trkpt lat="42.75178" lon="1.53559">
        <ele>1480.8</ele>
        <time>2021-09-19T09:02:32Z</time>
      </trkpt>
      <trkpt lat="42.75175" lon="1.53561">
        <ele>1480.8</ele>
        <time>2021-09-19T09:02:34Z</time>
      </trkpt>
      <trkpt lat="42.7517" lon="1.53563">
        <ele>1480</ele>
        <time>2021-09-19T09:02:41Z</time>
      </trkpt>
      <trkpt lat="42.7517" lon="1.53564">
        <ele>1480.2</ele>
        <time>2021-09-19T09:02:43Z</time>
      </trkpt>
      <trkpt lat="42.75171" lon="1.53565">
        <ele>1480.2</ele>
        <time>2021-09-19T09:02:44Z</time>
      </trkpt>
      <trkpt lat="42.75171" lon="1.53565">
        <ele>1480.2</ele>
        <time>2021-09-19T09:02:45Z</time>
      </trkpt>
      <trkpt lat="42.7517" lon="1.53567">
        <ele>1480</ele>
        <time>2021-09-19T09:02:47Z</time>
      </trkpt>
      <trkpt lat="42.7517" lon="1.53569">
        <ele>1480</ele>
        <time>2021-09-19T09:02:48Z</time>
      </trkpt>
      <trkpt lat="42.7517" lon="1.5357">
        <ele>1479.8</ele>
        <time>2021-09-19T09:02:49Z</time>
      </trkpt>
      <trkpt lat="42.75169" lon="1.53578">
        <ele>1479.8</ele>
        <time>2021-09-19T09:02:56Z</time>
      </trkpt>
      <trkpt lat="42.75164" lon="1.53587">
        <ele>1479.6</ele>
        <time>2021-09-19T09:03:03Z</time>
      </trkpt>
      <trkpt lat="42.75163" lon="1.53588">
        <ele>1479.6</ele>
        <time>2021-09-19T09:03:04Z</time>
      </trkpt>
      <trkpt lat="42.75162" lon="1.53589">
        <ele>1479.4</ele>
        <time>2021-09-19T09:03:05Z</time>
      </trkpt>
      <trkpt lat="42.75159" lon="1.53597">
        <ele>1478.8</ele>
        <time>2021-09-19T09:03:11Z</time>
      </trkpt>
      <trkpt lat="42.75158" lon="1.536">
        <ele>1478.6</ele>
        <time>2021-09-19T09:03:13Z</time>
      </trkpt>
      <trkpt lat="42.75156" lon="1.53608">
        <ele>1478.6</ele>
        <time>2021-09-19T09:03:17Z</time>
      </trkpt>
      <trkpt lat="42.75152" lon="1.53615">
        <ele>1477.8</ele>
        <time>2021-09-19T09:03:23Z</time>
      </trkpt>
      <trkpt lat="42.7515" lon="1.53621">
        <ele>1477.8</ele>
        <time>2021-09-19T09:03:28Z</time>
      </trkpt>
      <trkpt lat="42.75147" lon="1.53626">
        <ele>1477.4</ele>
        <time>2021-09-19T09:03:32Z</time>
      </trkpt>
      <trkpt lat="42.75145" lon="1.53638">
        <ele>1477.2</ele>
        <time>2021-09-19T09:03:39Z</time>
      </trkpt>
      <trkpt lat="42.75145" lon="1.5364">
        <ele>1477.2</ele>
        <time>2021-09-19T09:03:41Z</time>
      </trkpt>
      <trkpt lat="42.75142" lon="1.53648">
        <ele>1476.8</ele>
        <time>2021-09-19T09:03:46Z</time>
      </trkpt>
      <trkpt lat="42.7514" lon="1.53653">
        <ele>1476.4</ele>
        <time>2021-09-19T09:03:49Z</time>
      </trkpt>
      <trkpt lat="42.75133" lon="1.53664">
        <ele>1476</ele>
        <time>2021-09-19T09:03:58Z</time>
      </trkpt>
      <trkpt lat="42.75129" lon="1.53668">
        <ele>1476</ele>
        <time>2021-09-19T09:04:02Z</time>
      </trkpt>
      <trkpt lat="42.75125" lon="1.5367">
        <ele>1475.6</ele>
        <time>2021-09-19T09:04:06Z</time>
      </trkpt>
      <trkpt lat="42.75121" lon="1.53677">
        <ele>1475</ele>
        <time>2021-09-19T09:04:12Z</time>
      </trkpt>
      <trkpt lat="42.75116" lon="1.53688">
        <ele>1474.6</ele>
        <time>2021-09-19T09:04:19Z</time>
      </trkpt>
      <trkpt lat="42.75115" lon="1.53692">
        <ele>1474.6</ele>
        <time>2021-09-19T09:04:22Z</time>
      </trkpt>
      <trkpt lat="42.75113" lon="1.53696">
        <ele>1474.4</ele>
        <time>2021-09-19T09:04:24Z</time>
      </trkpt>
      <trkpt lat="42.75112" lon="1.53698">
        <ele>1474.4</ele>
        <time>2021-09-19T09:04:26Z</time>
      </trkpt>
      <trkpt lat="42.75108" lon="1.53708">
        <ele>1474</ele>
        <time>2021-09-19T09:04:33Z</time>
      </trkpt>
      <trkpt lat="42.75105" lon="1.53715">
        <ele>1473.6</ele>
        <time>2021-09-19T09:04:39Z</time>
      </trkpt>
      <trkpt lat="42.75104" lon="1.53717">
        <ele>1473.4</ele>
        <time>2021-09-19T09:04:41Z</time>
      </trkpt>
      <trkpt lat="42.75104" lon="1.53719">
        <ele>1473.4</ele>
        <time>2021-09-19T09:04:42Z</time>
      </trkpt>
      <trkpt lat="42.75099" lon="1.53727">
        <ele>1472.6</ele>
        <time>2021-09-19T09:04:49Z</time>
      </trkpt>
      <trkpt lat="42.75097" lon="1.53729">
        <ele>1472.4</ele>
        <time>2021-09-19T09:04:51Z</time>
      </trkpt>
      <trkpt lat="42.75094" lon="1.53736">
        <ele>1472</ele>
        <time>2021-09-19T09:04:57Z</time>
      </trkpt>
      <trkpt lat="42.75091" lon="1.53741">
        <ele>1472</ele>
        <time>2021-09-19T09:05:01Z</time>
      </trkpt>
      <trkpt lat="42.75088" lon="1.53746">
        <ele>1472</ele>
        <time>2021-09-19T09:05:05Z</time>
      </trkpt>
      <trkpt lat="42.75082" lon="1.53752">
        <ele>1472</ele>
        <time>2021-09-19T09:05:10Z</time>
      </trkpt>
      <trkpt lat="42.75079" lon="1.53755">
        <ele>1472.2</ele>
        <time>2021-09-19T09:05:12Z</time>
      </trkpt>
      <trkpt lat="42.75077" lon="1.53756">
        <ele>1472.2</ele>
        <time>2021-09-19T09:05:14Z</time>
      </trkpt>
      <trkpt lat="42.75074" lon="1.5376">
        <ele>1472</ele>
        <time>2021-09-19T09:05:17Z</time>
      </trkpt>
      <trkpt lat="42.75071" lon="1.53762">
        <ele>1471.8</ele>
        <time>2021-09-19T09:05:20Z</time>
      </trkpt>
      <trkpt lat="42.75068" lon="1.53766">
        <ele>1471.2</ele>
        <time>2021-09-19T09:05:24Z</time>
      </trkpt>
      <trkpt lat="42.75066" lon="1.53768">
        <ele>1471.2</ele>
        <time>2021-09-19T09:05:26Z</time>
      </trkpt>
      <trkpt lat="42.7506" lon="1.53772">
        <ele>1471.2</ele>
        <time>2021-09-19T09:05:31Z</time>
      </trkpt>
      <trkpt lat="42.75059" lon="1.53774">
        <ele>1471</ele>
        <time>2021-09-19T09:05:32Z</time>
      </trkpt>
      <trkpt lat="42.75052" lon="1.53784">
        <ele>1470.4</ele>
        <time>2021-09-19T09:05:39Z</time>
      </trkpt>
      <trkpt lat="42.75047" lon="1.53792">
        <ele>1470.6</ele>
        <time>2021-09-19T09:05:46Z</time>
      </trkpt>
      <trkpt lat="42.75047" lon="1.53793">
        <ele>1470.4</ele>
        <time>2021-09-19T09:05:47Z</time>
      </trkpt>
      <trkpt lat="42.75046" lon="1.53795">
        <ele>1470.2</ele>
        <time>2021-09-19T09:05:49Z</time>
      </trkpt>
      <trkpt lat="42.75043" lon="1.53802">
        <ele>1470</ele>
        <time>2021-09-19T09:05:54Z</time>
      </trkpt>
      <trkpt lat="42.75041" lon="1.53809">
        <ele>1469.8</ele>
        <time>2021-09-19T09:05:59Z</time>
      </trkpt>
      <trkpt lat="42.75042" lon="1.53813">
        <ele>1469.6</ele>
        <time>2021-09-19T09:06:02Z</time>
      </trkpt>
      <trkpt lat="42.75041" lon="1.53821">
        <ele>1469.6</ele>
        <time>2021-09-19T09:06:08Z</time>
      </trkpt>
      <trkpt lat="42.75037" lon="1.53829">
        <ele>1469.6</ele>
        <time>2021-09-19T09:06:14Z</time>
      </trkpt>
      <trkpt lat="42.75036" lon="1.5383">
        <ele>1469.4</ele>
        <time>2021-09-19T09:06:15Z</time>
      </trkpt>
      <trkpt lat="42.75036" lon="1.53831">
        <ele>1469.4</ele>
        <time>2021-09-19T09:06:16Z</time>
      </trkpt>
      <trkpt lat="42.75034" lon="1.53836">
        <ele>1469.6</ele>
        <time>2021-09-19T09:06:20Z</time>
      </trkpt>
      <trkpt lat="42.75034" lon="1.53839">
        <ele>1469.4</ele>
        <time>2021-09-19T09:06:22Z</time>
      </trkpt>
      <trkpt lat="42.75033" lon="1.53842">
        <ele>1469</ele>
        <time>2021-09-19T09:06:24Z</time>
      </trkpt>
      <trkpt lat="42.75033" lon="1.53846">
        <ele>1468.4</ele>
        <time>2021-09-19T09:06:27Z</time>
      </trkpt>
      <trkpt lat="42.75032" lon="1.5385">
        <ele>1468.2</ele>
        <time>2021-09-19T09:06:30Z</time>
      </trkpt>
      <trkpt lat="42.75032" lon="1.53854">
        <ele>1468.2</ele>
        <time>2021-09-19T09:06:33Z</time>
      </trkpt>
      <trkpt lat="42.75031" lon="1.53859">
        <ele>1468.6</ele>
        <time>2021-09-19T09:06:36Z</time>
      </trkpt>
      <trkpt lat="42.7503" lon="1.53862">
        <ele>1468.6</ele>
        <time>2021-09-19T09:06:38Z</time>
      </trkpt>
      <trkpt lat="42.7503" lon="1.53863">
        <ele>1468.6</ele>
        <time>2021-09-19T09:06:39Z</time>
      </trkpt>
      <trkpt lat="42.75029" lon="1.53864">
        <ele>1468.4</ele>
        <time>2021-09-19T09:06:40Z</time>
      </trkpt>
      <trkpt lat="42.75027" lon="1.53868">
        <ele>1468</ele>
        <time>2021-09-19T09:06:43Z</time>
      </trkpt>
      <trkpt lat="42.75026" lon="1.53871">
        <ele>1467.8</ele>
        <time>2021-09-19T09:06:45Z</time>
      </trkpt>
      <trkpt lat="42.75025" lon="1.53877">
        <ele>1467.6</ele>
        <time>2021-09-19T09:06:48Z</time>
      </trkpt>
      <trkpt lat="42.75023" lon="1.53882">
        <ele>1467.2</ele>
        <time>2021-09-19T09:06:51Z</time>
      </trkpt>
      <trkpt lat="42.75023" lon="1.53883">
        <ele>1467.2</ele>
        <time>2021-09-19T09:06:52Z</time>
      </trkpt>
      <trkpt lat="42.75021" lon="1.53888">
        <ele>1466.8</ele>
        <time>2021-09-19T09:06:55Z</time>
      </trkpt>
      <trkpt lat="42.75021" lon="1.53889">
        <ele>1466.8</ele>
        <time>2021-09-19T09:06:56Z</time>
      </trkpt>
      <trkpt lat="42.7502" lon="1.53891">
        <ele>1466.4</ele>
        <time>2021-09-19T09:06:59Z</time>
      </trkpt>
      <trkpt lat="42.75018" lon="1.53897">
        <ele>1465.6</ele>
        <time>2021-09-19T09:07:03Z</time>
      </trkpt>
      <trkpt lat="42.75018" lon="1.53901">
        <ele>1465.6</ele>
        <time>2021-09-19T09:07:06Z</time>
      </trkpt>
      <trkpt lat="42.75015" lon="1.53909">
        <ele>1465.6</ele>
        <time>2021-09-19T09:07:13Z</time>
      </trkpt>
      <trkpt lat="42.75014" lon="1.53911">
        <ele>1465.6</ele>
        <time>2021-09-19T09:07:14Z</time>
      </trkpt>
      <trkpt lat="42.75009" lon="1.53923">
        <ele>1465.2</ele>
        <time>2021-09-19T09:07:22Z</time>
      </trkpt>
      <trkpt lat="42.75002" lon="1.53933">
        <ele>1464.6</ele>
        <time>2021-09-19T09:07:30Z</time>
      </trkpt>
      <trkpt lat="42.74994" lon="1.53942">
        <ele>1464.2</ele>
        <time>2021-09-19T09:07:38Z</time>
      </trkpt>
      <trkpt lat="42.74991" lon="1.53947">
        <ele>1463.6</ele>
        <time>2021-09-19T09:07:43Z</time>
      </trkpt>
      <trkpt lat="42.74988" lon="1.53951">
        <ele>1463.6</ele>
        <time>2021-09-19T09:07:46Z</time>
      </trkpt>
      <trkpt lat="42.74981" lon="1.53959">
        <ele>1463.2</ele>
        <time>2021-09-19T09:07:53Z</time>
      </trkpt>
      <trkpt lat="42.74981" lon="1.5396">
        <ele>1463.2</ele>
        <time>2021-09-19T09:07:54Z</time>
      </trkpt>
      <trkpt lat="42.7498" lon="1.53961">
        <ele>1463.2</ele>
        <time>2021-09-19T09:07:55Z</time>
      </trkpt>
      <trkpt lat="42.74975" lon="1.53966">
        <ele>1463</ele>
        <time>2021-09-19T09:08:01Z</time>
      </trkpt>
      <trkpt lat="42.74974" lon="1.53968">
        <ele>1462.6</ele>
        <time>2021-09-19T09:08:03Z</time>
      </trkpt>
      <trkpt lat="42.74967" lon="1.53976">
        <ele>1462.2</ele>
        <time>2021-09-19T09:08:10Z</time>
      </trkpt>
      <trkpt lat="42.74963" lon="1.5398">
        <ele>1461.4</ele>
        <time>2021-09-19T09:08:15Z</time>
      </trkpt>
      <trkpt lat="42.74961" lon="1.53983">
        <ele>1461.2</ele>
        <time>2021-09-19T09:08:18Z</time>
      </trkpt>
      <trkpt lat="42.74958" lon="1.53988">
        <ele>1461</ele>
        <time>2021-09-19T09:08:23Z</time>
      </trkpt>
      <trkpt lat="42.74957" lon="1.53991">
        <ele>1461</ele>
        <time>2021-09-19T09:08:25Z</time>
      </trkpt>
      <trkpt lat="42.74955" lon="1.53996">
        <ele>1460.8</ele>
        <time>2021-09-19T09:08:28Z</time>
      </trkpt>
      <trkpt lat="42.74951" lon="1.54">
        <ele>1460.8</ele>
        <time>2021-09-19T09:08:32Z</time>
      </trkpt>
      <trkpt lat="42.74946" lon="1.54005">
        <ele>1460.8</ele>
        <time>2021-09-19T09:08:38Z</time>
      </trkpt>
      <trkpt lat="42.74945" lon="1.54006">
        <ele>1460.8</ele>
        <time>2021-09-19T09:08:39Z</time>
      </trkpt>
      <trkpt lat="42.74942" lon="1.54013">
        <ele>1460.4</ele>
        <time>2021-09-19T09:08:43Z</time>
      </trkpt>
      <trkpt lat="42.7494" lon="1.54015">
        <ele>1460.4</ele>
        <time>2021-09-19T09:08:45Z</time>
      </trkpt>
      <trkpt lat="42.74934" lon="1.54026">
        <ele>1459.6</ele>
        <time>2021-09-19T09:08:54Z</time>
      </trkpt>
      <trkpt lat="42.74933" lon="1.54029">
        <ele>1459.4</ele>
        <time>2021-09-19T09:08:57Z</time>
      </trkpt>
      <trkpt lat="42.74932" lon="1.5403">
        <ele>1459.4</ele>
        <time>2021-09-19T09:08:58Z</time>
      </trkpt>
      <trkpt lat="42.74931" lon="1.54033">
        <ele>1459</ele>
        <time>2021-09-19T09:09:02Z</time>
      </trkpt>
      <trkpt lat="42.74928" lon="1.54037">
        <ele>1458.8</ele>
        <time>2021-09-19T09:09:06Z</time>
      </trkpt>
      <trkpt lat="42.74924" lon="1.54042">
        <ele>1459.4</ele>
        <time>2021-09-19T09:09:10Z</time>
      </trkpt>
      <trkpt lat="42.74921" lon="1.54046">
        <ele>1459.6</ele>
        <time>2021-09-19T09:09:13Z</time>
      </trkpt>
      <trkpt lat="42.74919" lon="1.54049">
        <ele>1459.4</ele>
        <time>2021-09-19T09:09:16Z</time>
      </trkpt>
      <trkpt lat="42.74918" lon="1.5405">
        <ele>1459.2</ele>
        <time>2021-09-19T09:09:17Z</time>
      </trkpt>
      <trkpt lat="42.74915" lon="1.54056">
        <ele>1458.6</ele>
        <time>2021-09-19T09:09:22Z</time>
      </trkpt>
      <trkpt lat="42.74915" lon="1.54058">
        <ele>1458.6</ele>
        <time>2021-09-19T09:09:23Z</time>
      </trkpt>
      <trkpt lat="42.74913" lon="1.54061">
        <ele>1458.6</ele>
        <time>2021-09-19T09:09:25Z</time>
      </trkpt>
      <trkpt lat="42.74912" lon="1.54064">
        <ele>1458.4</ele>
        <time>2021-09-19T09:09:28Z</time>
      </trkpt>
      <trkpt lat="42.74909" lon="1.54071">
        <ele>1458</ele>
        <time>2021-09-19T09:09:34Z</time>
      </trkpt>
      <trkpt lat="42.74907" lon="1.54078">
        <ele>1457.6</ele>
        <time>2021-09-19T09:09:39Z</time>
      </trkpt>
      <trkpt lat="42.74906" lon="1.54081">
        <ele>1457.6</ele>
        <time>2021-09-19T09:09:41Z</time>
      </trkpt>
      <trkpt lat="42.74906" lon="1.54084">
        <ele>1457.6</ele>
        <time>2021-09-19T09:09:43Z</time>
      </trkpt>
      <trkpt lat="42.74905" lon="1.54087">
        <ele>1457.2</ele>
        <time>2021-09-19T09:09:45Z</time>
      </trkpt>
      <trkpt lat="42.74902" lon="1.54092">
        <ele>1456.8</ele>
        <time>2021-09-19T09:09:50Z</time>
      </trkpt>
      <trkpt lat="42.749" lon="1.54095">
        <ele>1456.8</ele>
        <time>2021-09-19T09:09:52Z</time>
      </trkpt>
      <trkpt lat="42.74897" lon="1.54103">
        <ele>1456.8</ele>
        <time>2021-09-19T09:09:58Z</time>
      </trkpt>
      <trkpt lat="42.74891" lon="1.54114">
        <ele>1456.2</ele>
        <time>2021-09-19T09:10:07Z</time>
      </trkpt>
      <trkpt lat="42.74889" lon="1.54117">
        <ele>1456</ele>
        <time>2021-09-19T09:10:09Z</time>
      </trkpt>
      <trkpt lat="42.74883" lon="1.54124">
        <ele>1455.6</ele>
        <time>2021-09-19T09:10:16Z</time>
      </trkpt>
      <trkpt lat="42.74879" lon="1.54131">
        <ele>1455.2</ele>
        <time>2021-09-19T09:10:21Z</time>
      </trkpt>
      <trkpt lat="42.74878" lon="1.54133">
        <ele>1455</ele>
        <time>2021-09-19T09:10:23Z</time>
      </trkpt>
      <trkpt lat="42.74877" lon="1.54133">
        <ele>1455</ele>
        <time>2021-09-19T09:10:24Z</time>
      </trkpt>
      <trkpt lat="42.74866" lon="1.54135">
        <ele>1454.6</ele>
        <time>2021-09-19T09:10:33Z</time>
      </trkpt>
      <trkpt lat="42.74865" lon="1.54135">
        <ele>1454.6</ele>
        <time>2021-09-19T09:10:34Z</time>
      </trkpt>
      <trkpt lat="42.74855" lon="1.54135">
        <ele>1454.2</ele>
        <time>2021-09-19T09:10:42Z</time>
      </trkpt>
      <trkpt lat="42.7485" lon="1.5414">
        <ele>1454</ele>
        <time>2021-09-19T09:10:47Z</time>
      </trkpt>
      <trkpt lat="42.74848" lon="1.54143">
        <ele>1453.4</ele>
        <time>2021-09-19T09:10:50Z</time>
      </trkpt>
      <trkpt lat="42.74845" lon="1.54144">
        <ele>1453.2</ele>
        <time>2021-09-19T09:10:53Z</time>
      </trkpt>
      <trkpt lat="42.74839" lon="1.54145">
        <ele>1454</ele>
        <time>2021-09-19T09:10:58Z</time>
      </trkpt>
      <trkpt lat="42.74837" lon="1.54146">
        <ele>1453.4</ele>
        <time>2021-09-19T09:11:00Z</time>
      </trkpt>
      <trkpt lat="42.74834" lon="1.54146">
        <ele>1453.2</ele>
        <time>2021-09-19T09:11:02Z</time>
      </trkpt>
      <trkpt lat="42.7483" lon="1.54146">
        <ele>1453.2</ele>
        <time>2021-09-19T09:11:06Z</time>
      </trkpt>
      <trkpt lat="42.74828" lon="1.54145">
        <ele>1453.2</ele>
        <time>2021-09-19T09:11:08Z</time>
      </trkpt>
      <trkpt lat="42.74822" lon="1.54145">
        <ele>1453</ele>
        <time>2021-09-19T09:11:14Z</time>
      </trkpt>
      <trkpt lat="42.7482" lon="1.54146">
        <ele>1453</ele>
        <time>2021-09-19T09:11:16Z</time>
      </trkpt>
      <trkpt lat="42.74815" lon="1.54151">
        <ele>1452.6</ele>
        <time>2021-09-19T09:11:22Z</time>
      </trkpt>
      <trkpt lat="42.74815" lon="1.54153">
        <ele>1452.6</ele>
        <time>2021-09-19T09:11:23Z</time>
      </trkpt>
      <trkpt lat="42.74814" lon="1.54156">
        <ele>1452.6</ele>
        <time>2021-09-19T09:11:25Z</time>
      </trkpt>
      <trkpt lat="42.74813" lon="1.54159">
        <ele>1452.6</ele>
        <time>2021-09-19T09:11:27Z</time>
      </trkpt>
      <trkpt lat="42.74813" lon="1.5416">
        <ele>1452.6</ele>
        <time>2021-09-19T09:11:28Z</time>
      </trkpt>
      <trkpt lat="42.74812" lon="1.54161">
        <ele>1452.4</ele>
        <time>2021-09-19T09:11:30Z</time>
      </trkpt>
      <trkpt lat="42.74812" lon="1.54164">
        <ele>1452.2</ele>
        <time>2021-09-19T09:11:32Z</time>
      </trkpt>
      <trkpt lat="42.74811" lon="1.54166">
        <ele>1452.2</ele>
        <time>2021-09-19T09:11:34Z</time>
      </trkpt>
      <trkpt lat="42.74812" lon="1.54176">
        <ele>1452.2</ele>
        <time>2021-09-19T09:11:41Z</time>
      </trkpt>
      <trkpt lat="42.74813" lon="1.54182">
        <ele>1452.2</ele>
        <time>2021-09-19T09:11:44Z</time>
      </trkpt>
      <trkpt lat="42.74814" lon="1.54188">
        <ele>1452</ele>
        <time>2021-09-19T09:11:47Z</time>
      </trkpt>
      <trkpt lat="42.74814" lon="1.54189">
        <ele>1452</ele>
        <time>2021-09-19T09:11:48Z</time>
      </trkpt>
      <trkpt lat="42.74814" lon="1.5419">
        <ele>1452</ele>
        <time>2021-09-19T09:11:49Z</time>
      </trkpt>
      <trkpt lat="42.74817" lon="1.54198">
        <ele>1451.6</ele>
        <time>2021-09-19T09:11:54Z</time>
      </trkpt>
      <trkpt lat="42.74819" lon="1.54204">
        <ele>1451.6</ele>
        <time>2021-09-19T09:11:58Z</time>
      </trkpt>
      <trkpt lat="42.7482" lon="1.54207">
        <ele>1451.4</ele>
        <time>2021-09-19T09:12:01Z</time>
      </trkpt>
      <trkpt lat="42.74819" lon="1.54218">
        <ele>1451</ele>
        <time>2021-09-19T09:12:08Z</time>
      </trkpt>
      <trkpt lat="42.74819" lon="1.54219">
        <ele>1451</ele>
        <time>2021-09-19T09:12:09Z</time>
      </trkpt>
      <trkpt lat="42.74813" lon="1.54227">
        <ele>1450.6</ele>
        <time>2021-09-19T09:12:16Z</time>
      </trkpt>
      <trkpt lat="42.74806" lon="1.54236">
        <ele>1450.2</ele>
        <time>2021-09-19T09:12:24Z</time>
      </trkpt>
      <trkpt lat="42.74803" lon="1.54236">
        <ele>1449.8</ele>
        <time>2021-09-19T09:12:27Z</time>
      </trkpt>
      <trkpt lat="42.74799" lon="1.54237">
        <ele>1449.8</ele>
        <time>2021-09-19T09:12:31Z</time>
      </trkpt>
      <trkpt lat="42.74797" lon="1.54237">
        <ele>1449.8</ele>
        <time>2021-09-19T09:12:32Z</time>
      </trkpt>
      <trkpt lat="42.74793" lon="1.54237">
        <ele>1449.6</ele>
        <time>2021-09-19T09:12:37Z</time>
      </trkpt>
      <trkpt lat="42.74785" lon="1.54241">
        <ele>1449.2</ele>
        <time>2021-09-19T09:12:45Z</time>
      </trkpt>
      <trkpt lat="42.74779" lon="1.54243">
        <ele>1449</ele>
        <time>2021-09-19T09:12:52Z</time>
      </trkpt>
      <trkpt lat="42.74778" lon="1.54244">
        <ele>1448.8</ele>
        <time>2021-09-19T09:12:53Z</time>
      </trkpt>
      <trkpt lat="42.74775" lon="1.54248">
        <ele>1448.6</ele>
        <time>2021-09-19T09:12:56Z</time>
      </trkpt>
      <trkpt lat="42.74771" lon="1.54253">
        <ele>1448.4</ele>
        <time>2021-09-19T09:13:00Z</time>
      </trkpt>
      <trkpt lat="42.74769" lon="1.54253">
        <ele>1448.2</ele>
        <time>2021-09-19T09:13:02Z</time>
      </trkpt>
      <trkpt lat="42.74764" lon="1.54255">
        <ele>1448</ele>
        <time>2021-09-19T09:13:07Z</time>
      </trkpt>
      <trkpt lat="42.74762" lon="1.54259">
        <ele>1447.8</ele>
        <time>2021-09-19T09:13:10Z</time>
      </trkpt>
      <trkpt lat="42.7476" lon="1.54264">
        <ele>1447.6</ele>
        <time>2021-09-19T09:13:15Z</time>
      </trkpt>
      <trkpt lat="42.74758" lon="1.54273">
        <ele>1447.4</ele>
        <time>2021-09-19T09:13:21Z</time>
      </trkpt>
      <trkpt lat="42.74758" lon="1.54276">
        <ele>1447.2</ele>
        <time>2021-09-19T09:13:23Z</time>
      </trkpt>
      <trkpt lat="42.74757" lon="1.54283">
        <ele>1447</ele>
        <time>2021-09-19T09:13:27Z</time>
      </trkpt>
      <trkpt lat="42.74756" lon="1.54286">
        <ele>1446.8</ele>
        <time>2021-09-19T09:13:29Z</time>
      </trkpt>
      <trkpt lat="42.74755" lon="1.54287">
        <ele>1446.8</ele>
        <time>2021-09-19T09:13:30Z</time>
      </trkpt>
      <trkpt lat="42.74752" lon="1.54294">
        <ele>1446.6</ele>
        <time>2021-09-19T09:13:36Z</time>
      </trkpt>
      <trkpt lat="42.74752" lon="1.54296">
        <ele>1446.6</ele>
        <time>2021-09-19T09:13:38Z</time>
      </trkpt>
      <trkpt lat="42.74751" lon="1.54303">
        <ele>1446.6</ele>
        <time>2021-09-19T09:13:44Z</time>
      </trkpt>
      <trkpt lat="42.74751" lon="1.54309">
        <ele>1446.6</ele>
        <time>2021-09-19T09:13:48Z</time>
      </trkpt>
      <trkpt lat="42.74751" lon="1.54311">
        <ele>1446.4</ele>
        <time>2021-09-19T09:13:50Z</time>
      </trkpt>
      <trkpt lat="42.74751" lon="1.54312">
        <ele>1446.2</ele>
        <time>2021-09-19T09:13:51Z</time>
      </trkpt>
      <trkpt lat="42.7475" lon="1.54317">
        <ele>1446.2</ele>
        <time>2021-09-19T09:13:56Z</time>
      </trkpt>
      <trkpt lat="42.74749" lon="1.54319">
        <ele>1446</ele>
        <time>2021-09-19T09:13:58Z</time>
      </trkpt>
      <trkpt lat="42.74749" lon="1.5432">
        <ele>1446</ele>
        <time>2021-09-19T09:13:59Z</time>
      </trkpt>
      <trkpt lat="42.74749" lon="1.5432">
        <ele>1446</ele>
        <time>2021-09-19T09:14:00Z</time>
      </trkpt>
      <trkpt lat="42.74748" lon="1.5432">
        <ele>1445.8</ele>
        <time>2021-09-19T09:14:02Z</time>
      </trkpt>
      <trkpt lat="42.74746" lon="1.54323">
        <ele>1445.6</ele>
        <time>2021-09-19T09:14:06Z</time>
      </trkpt>
      <trkpt lat="42.74745" lon="1.54324">
        <ele>1445.6</ele>
        <time>2021-09-19T09:14:07Z</time>
      </trkpt>
      <trkpt lat="42.74741" lon="1.54326">
        <ele>1445.2</ele>
        <time>2021-09-19T09:14:11Z</time>
      </trkpt>
      <trkpt lat="42.7474" lon="1.54326">
        <ele>1445.2</ele>
        <time>2021-09-19T09:14:12Z</time>
      </trkpt>
      <trkpt lat="42.74736" lon="1.54329">
        <ele>1444.6</ele>
        <time>2021-09-19T09:14:15Z</time>
      </trkpt>
      <trkpt lat="42.74736" lon="1.5433">
        <ele>1444.6</ele>
        <time>2021-09-19T09:14:16Z</time>
      </trkpt>
      <trkpt lat="42.74733" lon="1.54338">
        <ele>1444.6</ele>
        <time>2021-09-19T09:14:22Z</time>
      </trkpt>
      <trkpt lat="42.74732" lon="1.54338">
        <ele>1444.8</ele>
        <time>2021-09-19T09:14:23Z</time>
      </trkpt>
      <trkpt lat="42.7473" lon="1.54349">
        <ele>1444.4</ele>
        <time>2021-09-19T09:14:30Z</time>
      </trkpt>
      <trkpt lat="42.7473" lon="1.54359">
        <ele>1444</ele>
        <time>2021-09-19T09:14:37Z</time>
      </trkpt>
      <trkpt lat="42.7473" lon="1.54361">
        <ele>1443.8</ele>
        <time>2021-09-19T09:14:39Z</time>
      </trkpt>
      <trkpt lat="42.7473" lon="1.54364">
        <ele>1443.8</ele>
        <time>2021-09-19T09:14:41Z</time>
      </trkpt>
      <trkpt lat="42.74731" lon="1.54367">
        <ele>1443.8</ele>
        <time>2021-09-19T09:14:44Z</time>
      </trkpt>
      <trkpt lat="42.74731" lon="1.54369">
        <ele>1443.6</ele>
        <time>2021-09-19T09:14:46Z</time>
      </trkpt>
      <trkpt lat="42.74731" lon="1.54371">
        <ele>1443.6</ele>
        <time>2021-09-19T09:14:48Z</time>
      </trkpt>
      <trkpt lat="42.74731" lon="1.54375">
        <ele>1443.6</ele>
        <time>2021-09-19T09:14:51Z</time>
      </trkpt>
      <trkpt lat="42.74734" lon="1.54388">
        <ele>1443.2</ele>
        <time>2021-09-19T09:14:59Z</time>
      </trkpt>
      <trkpt lat="42.74734" lon="1.54391">
        <ele>1443.2</ele>
        <time>2021-09-19T09:15:02Z</time>
      </trkpt>
      <trkpt lat="42.74735" lon="1.54398">
        <ele>1443</ele>
        <time>2021-09-19T09:15:06Z</time>
      </trkpt>
      <trkpt lat="42.74734" lon="1.54406">
        <ele>1442.6</ele>
        <time>2021-09-19T09:15:11Z</time>
      </trkpt>
      <trkpt lat="42.74734" lon="1.54408">
        <ele>1442.4</ele>
        <time>2021-09-19T09:15:12Z</time>
      </trkpt>
      <trkpt lat="42.74736" lon="1.54411">
        <ele>1442.4</ele>
        <time>2021-09-19T09:15:15Z</time>
      </trkpt>
      <trkpt lat="42.74736" lon="1.54413">
        <ele>1442.4</ele>
        <time>2021-09-19T09:15:17Z</time>
      </trkpt>
      <trkpt lat="42.74736" lon="1.54415">
        <ele>1442.2</ele>
        <time>2021-09-19T09:15:19Z</time>
      </trkpt>
      <trkpt lat="42.74736" lon="1.54417">
        <ele>1441.8</ele>
        <time>2021-09-19T09:15:21Z</time>
      </trkpt>
      <trkpt lat="42.74735" lon="1.54423">
        <ele>1441.6</ele>
        <time>2021-09-19T09:15:26Z</time>
      </trkpt>
      <trkpt lat="42.74736" lon="1.54424">
        <ele>1441.6</ele>
        <time>2021-09-19T09:15:27Z</time>
      </trkpt>
      <trkpt lat="42.74736" lon="1.54426">
        <ele>1441.6</ele>
        <time>2021-09-19T09:15:28Z</time>
      </trkpt>
      <trkpt lat="42.74736" lon="1.54428">
        <ele>1441.4</ele>
        <time>2021-09-19T09:15:29Z</time>
      </trkpt>
      <trkpt lat="42.74736" lon="1.54431">
        <ele>1441.2</ele>
        <time>2021-09-19T09:15:30Z</time>
      </trkpt>
      <trkpt lat="42.74736" lon="1.5444">
        <ele>1441</ele>
        <time>2021-09-19T09:15:35Z</time>
      </trkpt>
      <trkpt lat="42.74736" lon="1.54442">
        <ele>1440.8</ele>
        <time>2021-09-19T09:15:38Z</time>
      </trkpt>
      <trkpt lat="42.74737" lon="1.54444">
        <ele>1440.8</ele>
        <time>2021-09-19T09:15:40Z</time>
      </trkpt>
      <trkpt lat="42.74737" lon="1.54445">
        <ele>1440.6</ele>
        <time>2021-09-19T09:15:41Z</time>
      </trkpt>
      <trkpt lat="42.74738" lon="1.54448">
        <ele>1440.6</ele>
        <time>2021-09-19T09:15:43Z</time>
      </trkpt>
      <trkpt lat="42.74738" lon="1.54449">
        <ele>1440.6</ele>
        <time>2021-09-19T09:15:44Z</time>
      </trkpt>
      <trkpt lat="42.74739" lon="1.54452">
        <ele>1440.4</ele>
        <time>2021-09-19T09:15:46Z</time>
      </trkpt>
      <trkpt lat="42.74741" lon="1.54456">
        <ele>1440.4</ele>
        <time>2021-09-19T09:15:49Z</time>
      </trkpt>
      <trkpt lat="42.74741" lon="1.54457">
        <ele>1440.2</ele>
        <time>2021-09-19T09:15:50Z</time>
      </trkpt>
      <trkpt lat="42.74741" lon="1.54459">
        <ele>1440.2</ele>
        <time>2021-09-19T09:15:52Z</time>
      </trkpt>
      <trkpt lat="42.74741" lon="1.54462">
        <ele>1440</ele>
        <time>2021-09-19T09:15:54Z</time>
      </trkpt>
      <trkpt lat="42.74743" lon="1.5447">
        <ele>1439.8</ele>
        <time>2021-09-19T09:15:59Z</time>
      </trkpt>
      <trkpt lat="42.74743" lon="1.54482">
        <ele>1439.2</ele>
        <time>2021-09-19T09:16:06Z</time>
      </trkpt>
      <trkpt lat="42.74743" lon="1.54485">
        <ele>1439.2</ele>
        <time>2021-09-19T09:16:08Z</time>
      </trkpt>
      <trkpt lat="42.74743" lon="1.54488">
        <ele>1439</ele>
        <time>2021-09-19T09:16:10Z</time>
      </trkpt>
      <trkpt lat="42.74742" lon="1.54494">
        <ele>1438.8</ele>
        <time>2021-09-19T09:16:16Z</time>
      </trkpt>
      <trkpt lat="42.74743" lon="1.54503">
        <ele>1438.4</ele>
        <time>2021-09-19T09:16:24Z</time>
      </trkpt>
      <trkpt lat="42.74742" lon="1.54505">
        <ele>1438.4</ele>
        <time>2021-09-19T09:16:25Z</time>
      </trkpt>
      <trkpt lat="42.74742" lon="1.54511">
        <ele>1438</ele>
        <time>2021-09-19T09:16:28Z</time>
      </trkpt>
      <trkpt lat="42.74743" lon="1.54517">
        <ele>1437.8</ele>
        <time>2021-09-19T09:16:32Z</time>
      </trkpt>
      <trkpt lat="42.74743" lon="1.54523">
        <ele>1437.4</ele>
        <time>2021-09-19T09:16:36Z</time>
      </trkpt>
      <trkpt lat="42.74744" lon="1.54527">
        <ele>1437.2</ele>
        <time>2021-09-19T09:16:38Z</time>
      </trkpt>
      <trkpt lat="42.74744" lon="1.54529">
        <ele>1437.2</ele>
        <time>2021-09-19T09:16:39Z</time>
      </trkpt>
      <trkpt lat="42.74744" lon="1.54539">
        <ele>1437</ele>
        <time>2021-09-19T09:16:46Z</time>
      </trkpt>
      <trkpt lat="42.74744" lon="1.5454">
        <ele>1437</ele>
        <time>2021-09-19T09:16:47Z</time>
      </trkpt>
      <trkpt lat="42.74744" lon="1.54543">
        <ele>1436.8</ele>
        <time>2021-09-19T09:16:51Z</time>
      </trkpt>
      <trkpt lat="42.74745" lon="1.54546">
        <ele>1436.8</ele>
        <time>2021-09-19T09:16:54Z</time>
      </trkpt>
      <trkpt lat="42.74746" lon="1.54557">
        <ele>1436.8</ele>
        <time>2021-09-19T09:17:01Z</time>
      </trkpt>
      <trkpt lat="42.74747" lon="1.5456">
        <ele>1436.6</ele>
        <time>2021-09-19T09:17:04Z</time>
      </trkpt>
      <trkpt lat="42.74747" lon="1.54561">
        <ele>1436.4</ele>
        <time>2021-09-19T09:17:05Z</time>
      </trkpt>
      <trkpt lat="42.74748" lon="1.54563">
        <ele>1436.4</ele>
        <time>2021-09-19T09:17:06Z</time>
      </trkpt>
      <trkpt lat="42.74748" lon="1.54565">
        <ele>1436</ele>
        <time>2021-09-19T09:17:08Z</time>
      </trkpt>
      <trkpt lat="42.74748" lon="1.54567">
        <ele>1435.8</ele>
        <time>2021-09-19T09:17:09Z</time>
      </trkpt>
      <trkpt lat="42.74747" lon="1.54574">
        <ele>1435.8</ele>
        <time>2021-09-19T09:17:14Z</time>
      </trkpt>
      <trkpt lat="42.74747" lon="1.54577">
        <ele>1436</ele>
        <time>2021-09-19T09:17:16Z</time>
      </trkpt>
      <trkpt lat="42.74752" lon="1.5459">
        <ele>1436</ele>
        <time>2021-09-19T09:17:25Z</time>
      </trkpt>
      <trkpt lat="42.74752" lon="1.54602">
        <ele>1435.8</ele>
        <time>2021-09-19T09:17:33Z</time>
      </trkpt>
      <trkpt lat="42.74756" lon="1.54614">
        <ele>1435.6</ele>
        <time>2021-09-19T09:17:40Z</time>
      </trkpt>
      <trkpt lat="42.74757" lon="1.54627">
        <ele>1435.2</ele>
        <time>2021-09-19T09:17:48Z</time>
      </trkpt>
      <trkpt lat="42.74761" lon="1.54639">
        <ele>1434.8</ele>
        <time>2021-09-19T09:17:55Z</time>
      </trkpt>
      <trkpt lat="42.74762" lon="1.5464">
        <ele>1434.6</ele>
        <time>2021-09-19T09:17:56Z</time>
      </trkpt>
      <trkpt lat="42.74765" lon="1.54649">
        <ele>1434.2</ele>
        <time>2021-09-19T09:18:02Z</time>
      </trkpt>
      <trkpt lat="42.74766" lon="1.54653">
        <ele>1434.4</ele>
        <time>2021-09-19T09:18:05Z</time>
      </trkpt>
      <trkpt lat="42.74767" lon="1.54656">
        <ele>1434.4</ele>
        <time>2021-09-19T09:18:07Z</time>
      </trkpt>
      <trkpt lat="42.74767" lon="1.54659">
        <ele>1434.4</ele>
        <time>2021-09-19T09:18:09Z</time>
      </trkpt>
      <trkpt lat="42.7477" lon="1.5467">
        <ele>1433.8</ele>
        <time>2021-09-19T09:18:18Z</time>
      </trkpt>
      <trkpt lat="42.7477" lon="1.54673">
        <ele>1433.6</ele>
        <time>2021-09-19T09:18:20Z</time>
      </trkpt>
      <trkpt lat="42.74774" lon="1.54685">
        <ele>1433.6</ele>
        <time>2021-09-19T09:18:28Z</time>
      </trkpt>
      <trkpt lat="42.74775" lon="1.54699">
        <ele>1433.4</ele>
        <time>2021-09-19T09:18:37Z</time>
      </trkpt>
      <trkpt lat="42.74775" lon="1.54703">
        <ele>1433.2</ele>
        <time>2021-09-19T09:18:39Z</time>
      </trkpt>
      <trkpt lat="42.74775" lon="1.54706">
        <ele>1433.2</ele>
        <time>2021-09-19T09:18:41Z</time>
      </trkpt>
      <trkpt lat="42.74775" lon="1.54708">
        <ele>1433.2</ele>
        <time>2021-09-19T09:18:42Z</time>
      </trkpt>
      <trkpt lat="42.74775" lon="1.54711">
        <ele>1433.4</ele>
        <time>2021-09-19T09:18:44Z</time>
      </trkpt>
      <trkpt lat="42.74778" lon="1.54723">
        <ele>1433.8</ele>
        <time>2021-09-19T09:18:52Z</time>
      </trkpt>
      <trkpt lat="42.74777" lon="1.54724">
        <ele>1434.2</ele>
        <time>2021-09-19T09:18:56Z</time>
      </trkpt>
      <trkpt lat="42.74777" lon="1.54725">
        <ele>1434.4</ele>
        <time>2021-09-19T09:18:58Z</time>
      </trkpt>
      <trkpt lat="42.74777" lon="1.54726">
        <ele>1434.4</ele>
        <time>2021-09-19T09:18:59Z</time>
      </trkpt>
      <trkpt lat="42.74776" lon="1.54726">
        <ele>1434.4</ele>
        <time>2021-09-19T09:19:00Z</time>
      </trkpt>
      <trkpt lat="42.74777" lon="1.54728">
        <ele>1434.8</ele>
        <time>2021-09-19T09:19:02Z</time>
      </trkpt>
      <trkpt lat="42.74777" lon="1.5473">
        <ele>1435.2</ele>
        <time>2021-09-19T09:19:04Z</time>
      </trkpt>
      <trkpt lat="42.74777" lon="1.54732">
        <ele>1435.6</ele>
        <time>2021-09-19T09:19:07Z</time>
      </trkpt>
      <trkpt lat="42.74777" lon="1.54732">
        <ele>1436</ele>
        <time>2021-09-19T09:19:08Z</time>
      </trkpt>
      <trkpt lat="42.74777" lon="1.54733">
        <ele>1436.2</ele>
        <time>2021-09-19T09:19:09Z</time>
      </trkpt>
      <trkpt lat="42.74776" lon="1.54734">
        <ele>1436.4</ele>
        <time>2021-09-19T09:19:12Z</time>
      </trkpt>
      <trkpt lat="42.74776" lon="1.54735">
        <ele>1436.6</ele>
        <time>2021-09-19T09:19:15Z</time>
      </trkpt>
      <trkpt lat="42.74776" lon="1.54735">
        <ele>1436.6</ele>
        <time>2021-09-19T09:19:16Z</time>
      </trkpt>
      <trkpt lat="42.74776" lon="1.54737">
        <ele>1437</ele>
        <time>2021-09-19T09:19:19Z</time>
      </trkpt>
      <trkpt lat="42.74776" lon="1.54741">
        <ele>1438</ele>
        <time>2021-09-19T09:19:23Z</time>
      </trkpt>
      <trkpt lat="42.74776" lon="1.54741">
        <ele>1438.2</ele>
        <time>2021-09-19T09:19:24Z</time>
      </trkpt>
      <trkpt lat="42.74776" lon="1.54748">
        <ele>1439.2</ele>
        <time>2021-09-19T09:19:30Z</time>
      </trkpt>
      <trkpt lat="42.74777" lon="1.54748">
        <ele>1439.4</ele>
        <time>2021-09-19T09:19:31Z</time>
      </trkpt>
      <trkpt lat="42.74777" lon="1.54749">
        <ele>1439.6</ele>
        <time>2021-09-19T09:19:32Z</time>
      </trkpt>
      <trkpt lat="42.74777" lon="1.54751">
        <ele>1440.2</ele>
        <time>2021-09-19T09:19:35Z</time>
      </trkpt>
      <trkpt lat="42.74777" lon="1.54752">
        <ele>1440.4</ele>
        <time>2021-09-19T09:19:36Z</time>
      </trkpt>
      <trkpt lat="42.74777" lon="1.54753">
        <ele>1440.8</ele>
        <time>2021-09-19T09:19:38Z</time>
      </trkpt>
      <trkpt lat="42.74776" lon="1.54754">
        <ele>1440.8</ele>
        <time>2021-09-19T09:19:40Z</time>
      </trkpt>
      <trkpt lat="42.74776" lon="1.54754">
        <ele>1441</ele>
        <time>2021-09-19T09:19:41Z</time>
      </trkpt>
      <trkpt lat="42.74775" lon="1.54757">
        <ele>1441.6</ele>
        <time>2021-09-19T09:19:45Z</time>
      </trkpt>
      <trkpt lat="42.74774" lon="1.54758">
        <ele>1442</ele>
        <time>2021-09-19T09:19:47Z</time>
      </trkpt>
      <trkpt lat="42.74774" lon="1.54759">
        <ele>1442.2</ele>
        <time>2021-09-19T09:19:48Z</time>
      </trkpt>
      <trkpt lat="42.74774" lon="1.5476">
        <ele>1442.4</ele>
        <time>2021-09-19T09:19:49Z</time>
      </trkpt>
      <trkpt lat="42.74774" lon="1.54761">
        <ele>1442.6</ele>
        <time>2021-09-19T09:19:50Z</time>
      </trkpt>
      <trkpt lat="42.74773" lon="1.54763">
        <ele>1442.8</ele>
        <time>2021-09-19T09:19:53Z</time>
      </trkpt>
      <trkpt lat="42.74772" lon="1.54765">
        <ele>1443.2</ele>
        <time>2021-09-19T09:19:55Z</time>
      </trkpt>
      <trkpt lat="42.74772" lon="1.54766">
        <ele>1443.4</ele>
        <time>2021-09-19T09:19:56Z</time>
      </trkpt>
      <trkpt lat="42.74771" lon="1.54768">
        <ele>1443.8</ele>
        <time>2021-09-19T09:19:58Z</time>
      </trkpt>
      <trkpt lat="42.74771" lon="1.54768">
        <ele>1444</ele>
        <time>2021-09-19T09:19:59Z</time>
      </trkpt>
      <trkpt lat="42.7477" lon="1.54771">
        <ele>1444.2</ele>
        <time>2021-09-19T09:20:02Z</time>
      </trkpt>
      <trkpt lat="42.7477" lon="1.54773">
        <ele>1444.6</ele>
        <time>2021-09-19T09:20:04Z</time>
      </trkpt>
      <trkpt lat="42.74769" lon="1.54774">
        <ele>1444.6</ele>
        <time>2021-09-19T09:20:05Z</time>
      </trkpt>
      <trkpt lat="42.74769" lon="1.54775">
        <ele>1444.8</ele>
        <time>2021-09-19T09:20:06Z</time>
      </trkpt>
      <trkpt lat="42.74767" lon="1.54781">
        <ele>1445.6</ele>
        <time>2021-09-19T09:20:11Z</time>
      </trkpt>
      <trkpt lat="42.74766" lon="1.54783">
        <ele>1445.8</ele>
        <time>2021-09-19T09:20:12Z</time>
      </trkpt>
      <trkpt lat="42.74765" lon="1.54784">
        <ele>1446</ele>
        <time>2021-09-19T09:20:13Z</time>
      </trkpt>
      <trkpt lat="42.74764" lon="1.54785">
        <ele>1446.4</ele>
        <time>2021-09-19T09:20:15Z</time>
      </trkpt>
      <trkpt lat="42.74759" lon="1.54788">
        <ele>1446.8</ele>
        <time>2021-09-19T09:20:19Z</time>
      </trkpt>
      <trkpt lat="42.74758" lon="1.54788">
        <ele>1447</ele>
        <time>2021-09-19T09:20:20Z</time>
      </trkpt>
      <trkpt lat="42.74757" lon="1.54788">
        <ele>1447</ele>
        <time>2021-09-19T09:20:21Z</time>
      </trkpt>
      <trkpt lat="42.74755" lon="1.5479">
        <ele>1447.4</ele>
        <time>2021-09-19T09:20:23Z</time>
      </trkpt>
      <trkpt lat="42.74754" lon="1.54791">
        <ele>1447.8</ele>
        <time>2021-09-19T09:20:25Z</time>
      </trkpt>
      <trkpt lat="42.74753" lon="1.54792">
        <ele>1448</ele>
        <time>2021-09-19T09:20:27Z</time>
      </trkpt>
      <trkpt lat="42.74753" lon="1.54793">
        <ele>1448</ele>
        <time>2021-09-19T09:20:28Z</time>
      </trkpt>
      <trkpt lat="42.74752" lon="1.54794">
        <ele>1448.2</ele>
        <time>2021-09-19T09:20:29Z</time>
      </trkpt>
      <trkpt lat="42.74752" lon="1.54794">
        <ele>1448.4</ele>
        <time>2021-09-19T09:20:30Z</time>
      </trkpt>
      <trkpt lat="42.7475" lon="1.54794">
        <ele>1448.8</ele>
        <time>2021-09-19T09:20:33Z</time>
      </trkpt>
      <trkpt lat="42.74748" lon="1.54794">
        <ele>1449</ele>
        <time>2021-09-19T09:20:35Z</time>
      </trkpt>
      <trkpt lat="42.74747" lon="1.54794">
        <ele>1449.2</ele>
        <time>2021-09-19T09:20:37Z</time>
      </trkpt>
      <trkpt lat="42.74747" lon="1.54794">
        <ele>1449.4</ele>
        <time>2021-09-19T09:20:39Z</time>
      </trkpt>
      <trkpt lat="42.74746" lon="1.54793">
        <ele>1450</ele>
        <time>2021-09-19T09:20:41Z</time>
      </trkpt>
      <trkpt lat="42.74744" lon="1.54793">
        <ele>1450.8</ele>
        <time>2021-09-19T09:20:44Z</time>
      </trkpt>
      <trkpt lat="42.74743" lon="1.54792">
        <ele>1451</ele>
        <time>2021-09-19T09:20:46Z</time>
      </trkpt>
      <trkpt lat="42.7474" lon="1.54792">
        <ele>1451.8</ele>
        <time>2021-09-19T09:20:51Z</time>
      </trkpt>
      <trkpt lat="42.74739" lon="1.54792">
        <ele>1452.2</ele>
        <time>2021-09-19T09:20:52Z</time>
      </trkpt>
      <trkpt lat="42.74737" lon="1.54793">
        <ele>1452.4</ele>
        <time>2021-09-19T09:20:53Z</time>
      </trkpt>
      <trkpt lat="42.74731" lon="1.54794">
        <ele>1453.4</ele>
        <time>2021-09-19T09:21:00Z</time>
      </trkpt>
      <trkpt lat="42.7473" lon="1.54793">
        <ele>1454.2</ele>
        <time>2021-09-19T09:21:03Z</time>
      </trkpt>
      <trkpt lat="42.7473" lon="1.54793">
        <ele>1454.4</ele>
        <time>2021-09-19T09:21:04Z</time>
      </trkpt>
      <trkpt lat="42.74729" lon="1.54793">
        <ele>1454.8</ele>
        <time>2021-09-19T09:21:06Z</time>
      </trkpt>
      <trkpt lat="42.74727" lon="1.54795">
        <ele>1455.4</ele>
        <time>2021-09-19T09:21:10Z</time>
      </trkpt>
      <trkpt lat="42.74726" lon="1.54797">
        <ele>1455.8</ele>
        <time>2021-09-19T09:21:12Z</time>
      </trkpt>
      <trkpt lat="42.74723" lon="1.54799">
        <ele>1456.4</ele>
        <time>2021-09-19T09:21:17Z</time>
      </trkpt>
      <trkpt lat="42.74723" lon="1.54799">
        <ele>1456.6</ele>
        <time>2021-09-19T09:21:18Z</time>
      </trkpt>
      <trkpt lat="42.74722" lon="1.54799">
        <ele>1456.8</ele>
        <time>2021-09-19T09:21:20Z</time>
      </trkpt>
      <trkpt lat="42.74721" lon="1.54799">
        <ele>1456.8</ele>
        <time>2021-09-19T09:21:21Z</time>
      </trkpt>
      <trkpt lat="42.74717" lon="1.54801">
        <ele>1457.6</ele>
        <time>2021-09-19T09:21:28Z</time>
      </trkpt>
      <trkpt lat="42.74713" lon="1.54801">
        <ele>1458.8</ele>
        <time>2021-09-19T09:21:33Z</time>
      </trkpt>
      <trkpt lat="42.74713" lon="1.54801">
        <ele>1459</ele>
        <time>2021-09-19T09:21:34Z</time>
      </trkpt>
      <trkpt lat="42.74712" lon="1.54801">
        <ele>1459.2</ele>
        <time>2021-09-19T09:21:35Z</time>
      </trkpt>
      <trkpt lat="42.74709" lon="1.54801">
        <ele>1459.8</ele>
        <time>2021-09-19T09:21:38Z</time>
      </trkpt>
      <trkpt lat="42.74708" lon="1.548">
        <ele>1460.2</ele>
        <time>2021-09-19T09:21:41Z</time>
      </trkpt>
      <trkpt lat="42.74705" lon="1.548">
        <ele>1460.8</ele>
        <time>2021-09-19T09:21:45Z</time>
      </trkpt>
      <trkpt lat="42.74701" lon="1.54802">
        <ele>1461.6</ele>
        <time>2021-09-19T09:21:50Z</time>
      </trkpt>
      <trkpt lat="42.747" lon="1.54803">
        <ele>1461.8</ele>
        <time>2021-09-19T09:21:51Z</time>
      </trkpt>
      <trkpt lat="42.74697" lon="1.54805">
        <ele>1462.4</ele>
        <time>2021-09-19T09:21:56Z</time>
      </trkpt>
      <trkpt lat="42.74695" lon="1.54806">
        <ele>1462.8</ele>
        <time>2021-09-19T09:21:58Z</time>
      </trkpt>
      <trkpt lat="42.74691" lon="1.54806">
        <ele>1462.8</ele>
        <time>2021-09-19T09:22:03Z</time>
      </trkpt>
      <trkpt lat="42.7469" lon="1.54806">
        <ele>1462.8</ele>
        <time>2021-09-19T09:22:04Z</time>
      </trkpt>
      <trkpt lat="42.74688" lon="1.54806">
        <ele>1464</ele>
        <time>2021-09-19T09:22:08Z</time>
      </trkpt>
      <trkpt lat="42.74687" lon="1.54806">
        <ele>1464.2</ele>
        <time>2021-09-19T09:22:09Z</time>
      </trkpt>
      <trkpt lat="42.74686" lon="1.54806">
        <ele>1464.6</ele>
        <time>2021-09-19T09:22:11Z</time>
      </trkpt>
      <trkpt lat="42.74683" lon="1.54805">
        <ele>1465</ele>
        <time>2021-09-19T09:22:14Z</time>
      </trkpt>
      <trkpt lat="42.74683" lon="1.54805">
        <ele>1465</ele>
        <time>2021-09-19T09:22:15Z</time>
      </trkpt>
      <trkpt lat="42.7468" lon="1.54804">
        <ele>1465.4</ele>
        <time>2021-09-19T09:22:19Z</time>
      </trkpt>
      <trkpt lat="42.74677" lon="1.548">
        <ele>1466.2</ele>
        <time>2021-09-19T09:22:24Z</time>
      </trkpt>
      <trkpt lat="42.74676" lon="1.54799">
        <ele>1466.4</ele>
        <time>2021-09-19T09:22:26Z</time>
      </trkpt>
      <trkpt lat="42.74672" lon="1.54797">
        <ele>1467.2</ele>
        <time>2021-09-19T09:22:33Z</time>
      </trkpt>
      <trkpt lat="42.74668" lon="1.54797">
        <ele>1468.4</ele>
        <time>2021-09-19T09:22:37Z</time>
      </trkpt>
      <trkpt lat="42.74666" lon="1.54796">
        <ele>1469</ele>
        <time>2021-09-19T09:22:40Z</time>
      </trkpt>
      <trkpt lat="42.74663" lon="1.54793">
        <ele>1469.4</ele>
        <time>2021-09-19T09:22:46Z</time>
      </trkpt>
      <trkpt lat="42.74661" lon="1.54791">
        <ele>1469.6</ele>
        <time>2021-09-19T09:22:49Z</time>
      </trkpt>
      <trkpt lat="42.74659" lon="1.5479">
        <ele>1470.2</ele>
        <time>2021-09-19T09:22:52Z</time>
      </trkpt>
      <trkpt lat="42.74658" lon="1.5479">
        <ele>1470.4</ele>
        <time>2021-09-19T09:22:53Z</time>
      </trkpt>
      <trkpt lat="42.74656" lon="1.54789">
        <ele>1470.6</ele>
        <time>2021-09-19T09:22:55Z</time>
      </trkpt>
      <trkpt lat="42.74655" lon="1.54789">
        <ele>1470.8</ele>
        <time>2021-09-19T09:22:56Z</time>
      </trkpt>
      <trkpt lat="42.74653" lon="1.54789">
        <ele>1471</ele>
        <time>2021-09-19T09:22:59Z</time>
      </trkpt>
      <trkpt lat="42.74651" lon="1.5479">
        <ele>1471.8</ele>
        <time>2021-09-19T09:23:02Z</time>
      </trkpt>
      <trkpt lat="42.74649" lon="1.5479">
        <ele>1472.4</ele>
        <time>2021-09-19T09:23:05Z</time>
      </trkpt>
      <trkpt lat="42.74647" lon="1.5479">
        <ele>1472.6</ele>
        <time>2021-09-19T09:23:07Z</time>
      </trkpt>
      <trkpt lat="42.74647" lon="1.54789">
        <ele>1472.8</ele>
        <time>2021-09-19T09:23:08Z</time>
      </trkpt>
      <trkpt lat="42.74646" lon="1.54789">
        <ele>1472.8</ele>
        <time>2021-09-19T09:23:09Z</time>
      </trkpt>
      <trkpt lat="42.74645" lon="1.54789">
        <ele>1473</ele>
        <time>2021-09-19T09:23:10Z</time>
      </trkpt>
      <trkpt lat="42.74643" lon="1.54788">
        <ele>1473.8</ele>
        <time>2021-09-19T09:23:13Z</time>
      </trkpt>
      <trkpt lat="42.74642" lon="1.54788">
        <ele>1474</ele>
        <time>2021-09-19T09:23:14Z</time>
      </trkpt>
      <trkpt lat="42.74637" lon="1.54787">
        <ele>1474.8</ele>
        <time>2021-09-19T09:23:22Z</time>
      </trkpt>
      <trkpt lat="42.74636" lon="1.54787">
        <ele>1475</ele>
        <time>2021-09-19T09:23:23Z</time>
      </trkpt>
      <trkpt lat="42.74631" lon="1.54789">
        <ele>1476.2</ele>
        <time>2021-09-19T09:23:29Z</time>
      </trkpt>
      <trkpt lat="42.7463" lon="1.54789">
        <ele>1476.4</ele>
        <time>2021-09-19T09:23:30Z</time>
      </trkpt>
      <trkpt lat="42.74628" lon="1.54788">
        <ele>1476.6</ele>
        <time>2021-09-19T09:23:33Z</time>
      </trkpt>
      <trkpt lat="42.74625" lon="1.54786">
        <ele>1477</ele>
        <time>2021-09-19T09:23:37Z</time>
      </trkpt>
      <trkpt lat="42.74625" lon="1.54787">
        <ele>1477.2</ele>
        <time>2021-09-19T09:23:38Z</time>
      </trkpt>
      <trkpt lat="42.74624" lon="1.54787">
        <ele>1477.4</ele>
        <time>2021-09-19T09:23:39Z</time>
      </trkpt>
      <trkpt lat="42.7462" lon="1.54786">
        <ele>1478.4</ele>
        <time>2021-09-19T09:23:44Z</time>
      </trkpt>
      <trkpt lat="42.74618" lon="1.54787">
        <ele>1478.8</ele>
        <time>2021-09-19T09:23:45Z</time>
      </trkpt>
      <trkpt lat="42.74615" lon="1.54786">
        <ele>1479.4</ele>
        <time>2021-09-19T09:23:49Z</time>
      </trkpt>
      <trkpt lat="42.74614" lon="1.54785">
        <ele>1480.4</ele>
        <time>2021-09-19T09:23:53Z</time>
      </trkpt>
      <trkpt lat="42.74614" lon="1.54785">
        <ele>1480.6</ele>
        <time>2021-09-19T09:23:54Z</time>
      </trkpt>
      <trkpt lat="42.74609" lon="1.54784">
        <ele>1481.6</ele>
        <time>2021-09-19T09:24:00Z</time>
      </trkpt>
      <trkpt lat="42.74605" lon="1.54782">
        <ele>1482.8</ele>
        <time>2021-09-19T09:24:05Z</time>
      </trkpt>
      <trkpt lat="42.74604" lon="1.54782">
        <ele>1483</ele>
        <time>2021-09-19T09:24:07Z</time>
      </trkpt>
      <trkpt lat="42.74603" lon="1.54781">
        <ele>1483.4</ele>
        <time>2021-09-19T09:24:09Z</time>
      </trkpt>
      <trkpt lat="42.74601" lon="1.5478">
        <ele>1483.8</ele>
        <time>2021-09-19T09:24:12Z</time>
      </trkpt>
      <trkpt lat="42.74597" lon="1.5478">
        <ele>1484.2</ele>
        <time>2021-09-19T09:24:16Z</time>
      </trkpt>
      <trkpt lat="42.74596" lon="1.54779">
        <ele>1484.4</ele>
        <time>2021-09-19T09:24:17Z</time>
      </trkpt>
      <trkpt lat="42.74595" lon="1.54779">
        <ele>1484.4</ele>
        <time>2021-09-19T09:24:18Z</time>
      </trkpt>
      <trkpt lat="42.74593" lon="1.54778">
        <ele>1485</ele>
        <time>2021-09-19T09:24:21Z</time>
      </trkpt>
      <trkpt lat="42.74591" lon="1.54777">
        <ele>1485.4</ele>
        <time>2021-09-19T09:24:24Z</time>
      </trkpt>
      <trkpt lat="42.7459" lon="1.54777">
        <ele>1485.8</ele>
        <time>2021-09-19T09:24:26Z</time>
      </trkpt>
      <trkpt lat="42.74589" lon="1.54776">
        <ele>1486</ele>
        <time>2021-09-19T09:24:27Z</time>
      </trkpt>
      <trkpt lat="42.74586" lon="1.54772">
        <ele>1487.4</ele>
        <time>2021-09-19T09:24:34Z</time>
      </trkpt>
      <trkpt lat="42.74584" lon="1.54768">
        <ele>1488.4</ele>
        <time>2021-09-19T09:24:38Z</time>
      </trkpt>
      <trkpt lat="42.74583" lon="1.54763">
        <ele>1489.4</ele>
        <time>2021-09-19T09:24:42Z</time>
      </trkpt>
      <trkpt lat="42.74583" lon="1.54761">
        <ele>1489.6</ele>
        <time>2021-09-19T09:24:43Z</time>
      </trkpt>
      <trkpt lat="42.74584" lon="1.54759">
        <ele>1489.8</ele>
        <time>2021-09-19T09:24:45Z</time>
      </trkpt>
      <trkpt lat="42.74584" lon="1.54755">
        <ele>1490.6</ele>
        <time>2021-09-19T09:24:49Z</time>
      </trkpt>
      <trkpt lat="42.74584" lon="1.54754">
        <ele>1490.6</ele>
        <time>2021-09-19T09:24:50Z</time>
      </trkpt>
      <trkpt lat="42.74586" lon="1.54751">
        <ele>1491.6</ele>
        <time>2021-09-19T09:24:56Z</time>
      </trkpt>
      <trkpt lat="42.74586" lon="1.5475">
        <ele>1491.6</ele>
        <time>2021-09-19T09:24:57Z</time>
      </trkpt>
      <trkpt lat="42.74589" lon="1.54746">
        <ele>1492.2</ele>
        <time>2021-09-19T09:25:02Z</time>
      </trkpt>
      <trkpt lat="42.7459" lon="1.54745">
        <ele>1492.6</ele>
        <time>2021-09-19T09:25:08Z</time>
      </trkpt>
      <trkpt lat="42.7459" lon="1.54745">
        <ele>1492.8</ele>
        <time>2021-09-19T09:25:09Z</time>
      </trkpt>
      <trkpt lat="42.74593" lon="1.5474">
        <ele>1492.6</ele>
        <time>2021-09-19T09:25:15Z</time>
      </trkpt>
      <trkpt lat="42.74594" lon="1.54739">
        <ele>1492.8</ele>
        <time>2021-09-19T09:25:18Z</time>
      </trkpt>
      <trkpt lat="42.74595" lon="1.54739">
        <ele>1493</ele>
        <time>2021-09-19T09:25:21Z</time>
      </trkpt>
      <trkpt lat="42.74594" lon="1.5474">
        <ele>1493.8</ele>
        <time>2021-09-19T09:25:24Z</time>
      </trkpt>
      <trkpt lat="42.74594" lon="1.5474">
        <ele>1493.4</ele>
        <time>2021-09-19T09:25:28Z</time>
      </trkpt>
      <trkpt lat="42.74594" lon="1.5474">
        <ele>1493.4</ele>
        <time>2021-09-19T09:25:33Z</time>
      </trkpt>
      <trkpt lat="42.74594" lon="1.54739">
        <ele>1493.6</ele>
        <time>2021-09-19T09:25:36Z</time>
      </trkpt>
      <trkpt lat="42.74592" lon="1.54738">
        <ele>1493.8</ele>
        <time>2021-09-19T09:25:44Z</time>
      </trkpt>
      <trkpt lat="42.74592" lon="1.54738">
        <ele>1493.6</ele>
        <time>2021-09-19T09:25:45Z</time>
      </trkpt>
      <trkpt lat="42.7459" lon="1.5474">
        <ele>1492.6</ele>
        <time>2021-09-19T09:25:57Z</time>
      </trkpt>
      <trkpt lat="42.7459" lon="1.5474">
        <ele>1492.6</ele>
        <time>2021-09-19T09:25:58Z</time>
      </trkpt>
      <trkpt lat="42.7459" lon="1.54739">
        <ele>1492.8</ele>
        <time>2021-09-19T09:26:00Z</time>
      </trkpt>
      <trkpt lat="42.7459" lon="1.54738">
        <ele>1493</ele>
        <time>2021-09-19T09:26:03Z</time>
      </trkpt>
      <trkpt lat="42.74592" lon="1.54738">
        <ele>1492.6</ele>
        <time>2021-09-19T09:26:11Z</time>
      </trkpt>
      <trkpt lat="42.74591" lon="1.54738">
        <ele>1492.8</ele>
        <time>2021-09-19T09:26:20Z</time>
      </trkpt>
      <trkpt lat="42.74591" lon="1.54739">
        <ele>1492.6</ele>
        <time>2021-09-19T09:26:24Z</time>
      </trkpt>
      <trkpt lat="42.74593" lon="1.54738">
        <ele>1492.8</ele>
        <time>2021-09-19T09:26:34Z</time>
      </trkpt>
      <trkpt lat="42.74594" lon="1.54738">
        <ele>1493.2</ele>
        <time>2021-09-19T09:26:38Z</time>
      </trkpt>
      <trkpt lat="42.74595" lon="1.54738">
        <ele>1493.2</ele>
        <time>2021-09-19T09:26:39Z</time>
      </trkpt>
      <trkpt lat="42.74598" lon="1.54739">
        <ele>1492.6</ele>
        <time>2021-09-19T09:26:46Z</time>
      </trkpt>
      <trkpt lat="42.74597" lon="1.54738">
        <ele>1492.8</ele>
        <time>2021-09-19T09:26:50Z</time>
      </trkpt>
      <trkpt lat="42.74596" lon="1.54736">
        <ele>1492.6</ele>
        <time>2021-09-19T09:26:54Z</time>
      </trkpt>
      <trkpt lat="42.74591" lon="1.54737">
        <ele>1492.6</ele>
        <time>2021-09-19T09:26:58Z</time>
      </trkpt>
      <trkpt lat="42.74591" lon="1.54737">
        <ele>1492.8</ele>
        <time>2021-09-19T09:27:13Z</time>
      </trkpt>
      <trkpt lat="42.74589" lon="1.5474">
        <ele>1492.8</ele>
        <time>2021-09-19T09:27:24Z</time>
      </trkpt>
      <trkpt lat="42.7459" lon="1.54739">
        <ele>1492.8</ele>
        <time>2021-09-19T09:27:27Z</time>
      </trkpt>
      <trkpt lat="42.74592" lon="1.54739">
        <ele>1492.8</ele>
        <time>2021-09-19T09:27:43Z</time>
      </trkpt>
      <trkpt lat="42.74592" lon="1.5474">
        <ele>1492.8</ele>
        <time>2021-09-19T09:27:47Z</time>
      </trkpt>
      <trkpt lat="42.74591" lon="1.54739">
        <ele>1492.8</ele>
        <time>2021-09-19T09:27:54Z</time>
      </trkpt>
      <trkpt lat="42.74591" lon="1.54739">
        <ele>1492.8</ele>
        <time>2021-09-19T09:28:05Z</time>
      </trkpt>
      <trkpt lat="42.74594" lon="1.54739">
        <ele>1492.8</ele>
        <time>2021-09-19T09:28:19Z</time>
      </trkpt>
      <trkpt lat="42.74592" lon="1.54736">
        <ele>1492.8</ele>
        <time>2021-09-19T09:28:31Z</time>
      </trkpt>
      <trkpt lat="42.74594" lon="1.54737">
        <ele>1492.8</ele>
        <time>2021-09-19T09:28:40Z</time>
      </trkpt>
      <trkpt lat="42.74595" lon="1.5474">
        <ele>1492.8</ele>
        <time>2021-09-19T09:28:45Z</time>
      </trkpt>
      <trkpt lat="42.74596" lon="1.5474">
        <ele>1492.8</ele>
        <time>2021-09-19T09:28:55Z</time>
      </trkpt>
      <trkpt lat="42.74595" lon="1.54741">
        <ele>1492.8</ele>
        <time>2021-09-19T09:28:58Z</time>
      </trkpt>
      <trkpt lat="42.74593" lon="1.5474">
        <ele>1492.8</ele>
        <time>2021-09-19T09:29:06Z</time>
      </trkpt>
      <trkpt lat="42.74592" lon="1.54737">
        <ele>1492.8</ele>
        <time>2021-09-19T09:29:12Z</time>
      </trkpt>
      <trkpt lat="42.74593" lon="1.54738">
        <ele>1492.8</ele>
        <time>2021-09-19T09:29:20Z</time>
      </trkpt>
      <trkpt lat="42.74593" lon="1.54738">
        <ele>1492.8</ele>
        <time>2021-09-19T09:29:21Z</time>
      </trkpt>
      <trkpt lat="42.74592" lon="1.5474">
        <ele>1492.8</ele>
        <time>2021-09-19T09:29:24Z</time>
      </trkpt>
      <trkpt lat="42.7459" lon="1.54739">
        <ele>1492.8</ele>
        <time>2021-09-19T09:29:32Z</time>
      </trkpt>
      <trkpt lat="42.74592" lon="1.5474">
        <ele>1492.8</ele>
        <time>2021-09-19T09:29:51Z</time>
      </trkpt>
      <trkpt lat="42.74591" lon="1.5474">
        <ele>1492.8</ele>
        <time>2021-09-19T09:29:53Z</time>
      </trkpt>
      <trkpt lat="42.74591" lon="1.5474">
        <ele>1492.8</ele>
        <time>2021-09-19T09:29:54Z</time>
      </trkpt>
      <trkpt lat="42.74591" lon="1.5474">
        <ele>1492.8</ele>
        <time>2021-09-19T09:29:55Z</time>
      </trkpt>
      <trkpt lat="42.74591" lon="1.5474">
        <ele>1492.8</ele>
        <time>2021-09-19T09:30:03Z</time>
      </trkpt>
      <trkpt lat="42.74591" lon="1.5474">
        <ele>1492.8</ele>
        <time>2021-09-19T09:30:05Z</time>
      </trkpt>
      <trkpt lat="42.74591" lon="1.54739">
        <ele>1492.8</ele>
        <time>2021-09-19T09:30:08Z</time>
      </trkpt>
      <trkpt lat="42.74591" lon="1.54741">
        <ele>1492.8</ele>
        <time>2021-09-19T09:30:12Z</time>
      </trkpt>
      <trkpt lat="42.74594" lon="1.54741">
        <ele>1492.8</ele>
        <time>2021-09-19T09:30:23Z</time>
      </trkpt>
      <trkpt lat="42.74594" lon="1.54739">
        <ele>1492.8</ele>
        <time>2021-09-19T09:30:25Z</time>
      </trkpt>
      <trkpt lat="42.74595" lon="1.54733">
        <ele>1492.8</ele>
        <time>2021-09-19T09:30:30Z</time>
      </trkpt>
      <trkpt lat="42.74595" lon="1.54732">
        <ele>1492.8</ele>
        <time>2021-09-19T09:30:32Z</time>
      </trkpt>
      <trkpt lat="42.74596" lon="1.5473">
        <ele>1492.8</ele>
        <time>2021-09-19T09:30:35Z</time>
      </trkpt>
      <trkpt lat="42.74596" lon="1.54728">
        <ele>1492.8</ele>
        <time>2021-09-19T09:30:37Z</time>
      </trkpt>
      <trkpt lat="42.74597" lon="1.54727">
        <ele>1492.8</ele>
        <time>2021-09-19T09:30:38Z</time>
      </trkpt>
      <trkpt lat="42.74597" lon="1.54727">
        <ele>1492.8</ele>
        <time>2021-09-19T09:30:39Z</time>
      </trkpt>
      <trkpt lat="42.746" lon="1.54722">
        <ele>1492.8</ele>
        <time>2021-09-19T09:30:44Z</time>
      </trkpt>
      <trkpt lat="42.74601" lon="1.5472">
        <ele>1492.8</ele>
        <time>2021-09-19T09:30:46Z</time>
      </trkpt>
      <trkpt lat="42.74602" lon="1.54716">
        <ele>1492.8</ele>
        <time>2021-09-19T09:30:50Z</time>
      </trkpt>
      <trkpt lat="42.74602" lon="1.54713">
        <ele>1492.8</ele>
        <time>2021-09-19T09:30:53Z</time>
      </trkpt>
      <trkpt lat="42.74602" lon="1.5471">
        <ele>1492.8</ele>
        <time>2021-09-19T09:30:55Z</time>
      </trkpt>
      <trkpt lat="42.74602" lon="1.54709">
        <ele>1492.8</ele>
        <time>2021-09-19T09:30:56Z</time>
      </trkpt>
      <trkpt lat="42.74603" lon="1.54704">
        <ele>1492.8</ele>
        <time>2021-09-19T09:31:01Z</time>
      </trkpt>
      <trkpt lat="42.74603" lon="1.54703">
        <ele>1492.8</ele>
        <time>2021-09-19T09:31:03Z</time>
      </trkpt>
      <trkpt lat="42.74603" lon="1.54702">
        <ele>1493.8</ele>
        <time>2021-09-19T09:31:06Z</time>
      </trkpt>
      <trkpt lat="42.74603" lon="1.547">
        <ele>1494.8</ele>
        <time>2021-09-19T09:31:08Z</time>
      </trkpt>
      <trkpt lat="42.74603" lon="1.54699">
        <ele>1495.2</ele>
        <time>2021-09-19T09:31:09Z</time>
      </trkpt>
      <trkpt lat="42.74603" lon="1.54698">
        <ele>1495.4</ele>
        <time>2021-09-19T09:31:10Z</time>
      </trkpt>
      <trkpt lat="42.74603" lon="1.54697">
        <ele>1495.4</ele>
        <time>2021-09-19T09:31:11Z</time>
      </trkpt>
      <trkpt lat="42.74603" lon="1.54695">
        <ele>1495.8</ele>
        <time>2021-09-19T09:31:14Z</time>
      </trkpt>
      <trkpt lat="42.74602" lon="1.54694">
        <ele>1496</ele>
        <time>2021-09-19T09:31:16Z</time>
      </trkpt>
      <trkpt lat="42.74603" lon="1.54687">
        <ele>1496.6</ele>
        <time>2021-09-19T09:31:22Z</time>
      </trkpt>
      <trkpt lat="42.74603" lon="1.54687">
        <ele>1497</ele>
        <time>2021-09-19T09:31:23Z</time>
      </trkpt>
      <trkpt lat="42.74603" lon="1.54684">
        <ele>1497.6</ele>
        <time>2021-09-19T09:31:28Z</time>
      </trkpt>
      <trkpt lat="42.74604" lon="1.54682">
        <ele>1498</ele>
        <time>2021-09-19T09:31:31Z</time>
      </trkpt>
      <trkpt lat="42.74604" lon="1.54679">
        <ele>1498.4</ele>
        <time>2021-09-19T09:31:35Z</time>
      </trkpt>
      <trkpt lat="42.74604" lon="1.54677">
        <ele>1499.2</ele>
        <time>2021-09-19T09:31:38Z</time>
      </trkpt>
      <trkpt lat="42.74604" lon="1.54674">
        <ele>1499.8</ele>
        <time>2021-09-19T09:31:42Z</time>
      </trkpt>
      <trkpt lat="42.74602" lon="1.54671">
        <ele>1499.8</ele>
        <time>2021-09-19T09:31:47Z</time>
      </trkpt>
      <trkpt lat="42.74602" lon="1.5467">
        <ele>1499.8</ele>
        <time>2021-09-19T09:31:48Z</time>
      </trkpt>
      <trkpt lat="42.74602" lon="1.54669">
        <ele>1500</ele>
        <time>2021-09-19T09:31:49Z</time>
      </trkpt>
      <trkpt lat="42.74602" lon="1.54668">
        <ele>1500</ele>
        <time>2021-09-19T09:31:50Z</time>
      </trkpt>
      <trkpt lat="42.74602" lon="1.54667">
        <ele>1500.2</ele>
        <time>2021-09-19T09:31:53Z</time>
      </trkpt>
      <trkpt lat="42.746" lon="1.54662">
        <ele>1501.4</ele>
        <time>2021-09-19T09:31:58Z</time>
      </trkpt>
      <trkpt lat="42.74599" lon="1.54659">
        <ele>1502</ele>
        <time>2021-09-19T09:32:02Z</time>
      </trkpt>
      <trkpt lat="42.74599" lon="1.54659">
        <ele>1502.2</ele>
        <time>2021-09-19T09:32:03Z</time>
      </trkpt>
      <trkpt lat="42.74599" lon="1.54658">
        <ele>1502.4</ele>
        <time>2021-09-19T09:32:04Z</time>
      </trkpt>
      <trkpt lat="42.746" lon="1.54653">
        <ele>1503.2</ele>
        <time>2021-09-19T09:32:10Z</time>
      </trkpt>
      <trkpt lat="42.746" lon="1.54652">
        <ele>1503.2</ele>
        <time>2021-09-19T09:32:12Z</time>
      </trkpt>
      <trkpt lat="42.746" lon="1.5465">
        <ele>1503.4</ele>
        <time>2021-09-19T09:32:14Z</time>
      </trkpt>
      <trkpt lat="42.746" lon="1.54647">
        <ele>1503.8</ele>
        <time>2021-09-19T09:32:16Z</time>
      </trkpt>
      <trkpt lat="42.74599" lon="1.54644">
        <ele>1504.4</ele>
        <time>2021-09-19T09:32:19Z</time>
      </trkpt>
      <trkpt lat="42.74599" lon="1.54642">
        <ele>1505.2</ele>
        <time>2021-09-19T09:32:22Z</time>
      </trkpt>
      <trkpt lat="42.74598" lon="1.5464">
        <ele>1505.6</ele>
        <time>2021-09-19T09:32:24Z</time>
      </trkpt>
      <trkpt lat="42.74598" lon="1.54639">
        <ele>1505.6</ele>
        <time>2021-09-19T09:32:27Z</time>
      </trkpt>
      <trkpt lat="42.74598" lon="1.54639">
        <ele>1505.8</ele>
        <time>2021-09-19T09:32:28Z</time>
      </trkpt>
      <trkpt lat="42.74597" lon="1.54634">
        <ele>1506.8</ele>
        <time>2021-09-19T09:32:34Z</time>
      </trkpt>
      <trkpt lat="42.74596" lon="1.54629">
        <ele>1507.4</ele>
        <time>2021-09-19T09:32:39Z</time>
      </trkpt>
      <trkpt lat="42.74597" lon="1.54627">
        <ele>1507.8</ele>
        <time>2021-09-19T09:32:41Z</time>
      </trkpt>
      <trkpt lat="42.74596" lon="1.54624">
        <ele>1508.4</ele>
        <time>2021-09-19T09:32:44Z</time>
      </trkpt>
      <trkpt lat="42.74596" lon="1.54623">
        <ele>1508.4</ele>
        <time>2021-09-19T09:32:46Z</time>
      </trkpt>
      <trkpt lat="42.74596" lon="1.54621">
        <ele>1509</ele>
        <time>2021-09-19T09:32:51Z</time>
      </trkpt>
      <trkpt lat="42.74596" lon="1.5462">
        <ele>1509.4</ele>
        <time>2021-09-19T09:32:52Z</time>
      </trkpt>
      <trkpt lat="42.74594" lon="1.54614">
        <ele>1510</ele>
        <time>2021-09-19T09:32:58Z</time>
      </trkpt>
      <trkpt lat="42.74593" lon="1.54612">
        <ele>1510.2</ele>
        <time>2021-09-19T09:32:59Z</time>
      </trkpt>
      <trkpt lat="42.74591" lon="1.54607">
        <ele>1510.6</ele>
        <time>2021-09-19T09:33:03Z</time>
      </trkpt>
      <trkpt lat="42.7459" lon="1.54606">
        <ele>1511</ele>
        <time>2021-09-19T09:33:05Z</time>
      </trkpt>
      <trkpt lat="42.7459" lon="1.54605">
        <ele>1511.2</ele>
        <time>2021-09-19T09:33:06Z</time>
      </trkpt>
      <trkpt lat="42.74587" lon="1.54601">
        <ele>1511.6</ele>
        <time>2021-09-19T09:33:11Z</time>
      </trkpt>
      <trkpt lat="42.74587" lon="1.54599">
        <ele>1511.8</ele>
        <time>2021-09-19T09:33:13Z</time>
      </trkpt>
      <trkpt lat="42.74586" lon="1.54598">
        <ele>1512.4</ele>
        <time>2021-09-19T09:33:16Z</time>
      </trkpt>
      <trkpt lat="42.74585" lon="1.54597">
        <ele>1512.6</ele>
        <time>2021-09-19T09:33:17Z</time>
      </trkpt>
      <trkpt lat="42.74584" lon="1.54593">
        <ele>1512.8</ele>
        <time>2021-09-19T09:33:21Z</time>
      </trkpt>
      <trkpt lat="42.74583" lon="1.54592">
        <ele>1513</ele>
        <time>2021-09-19T09:33:23Z</time>
      </trkpt>
      <trkpt lat="42.74583" lon="1.54591">
        <ele>1513</ele>
        <time>2021-09-19T09:33:24Z</time>
      </trkpt>
      <trkpt lat="42.74582" lon="1.5459">
        <ele>1513.6</ele>
        <time>2021-09-19T09:33:26Z</time>
      </trkpt>
      <trkpt lat="42.74581" lon="1.54589">
        <ele>1514</ele>
        <time>2021-09-19T09:33:28Z</time>
      </trkpt>
      <trkpt lat="42.7458" lon="1.54588">
        <ele>1514.2</ele>
        <time>2021-09-19T09:33:29Z</time>
      </trkpt>
      <trkpt lat="42.74579" lon="1.54586">
        <ele>1514.6</ele>
        <time>2021-09-19T09:33:32Z</time>
      </trkpt>
      <trkpt lat="42.74579" lon="1.54584">
        <ele>1514.8</ele>
        <time>2021-09-19T09:33:35Z</time>
      </trkpt>
      <trkpt lat="42.74578" lon="1.54578">
        <ele>1515.6</ele>
        <time>2021-09-19T09:33:41Z</time>
      </trkpt>
      <trkpt lat="42.74578" lon="1.54576">
        <ele>1515.8</ele>
        <time>2021-09-19T09:33:43Z</time>
      </trkpt>
      <trkpt lat="42.74578" lon="1.54574">
        <ele>1516.2</ele>
        <time>2021-09-19T09:33:47Z</time>
      </trkpt>
      <trkpt lat="42.74578" lon="1.54573">
        <ele>1516.4</ele>
        <time>2021-09-19T09:33:49Z</time>
      </trkpt>
      <trkpt lat="42.74578" lon="1.54572">
        <ele>1516.6</ele>
        <time>2021-09-19T09:33:52Z</time>
      </trkpt>
      <trkpt lat="42.74578" lon="1.54571">
        <ele>1516.8</ele>
        <time>2021-09-19T09:33:53Z</time>
      </trkpt>
      <trkpt lat="42.74577" lon="1.5457">
        <ele>1516.8</ele>
        <time>2021-09-19T09:33:55Z</time>
      </trkpt>
      <trkpt lat="42.74577" lon="1.54569">
        <ele>1517</ele>
        <time>2021-09-19T09:33:56Z</time>
      </trkpt>
      <trkpt lat="42.74576" lon="1.54568">
        <ele>1517.2</ele>
        <time>2021-09-19T09:33:57Z</time>
      </trkpt>
      <trkpt lat="42.74576" lon="1.54566">
        <ele>1518</ele>
        <time>2021-09-19T09:33:59Z</time>
      </trkpt>
      <trkpt lat="42.74576" lon="1.54565">
        <ele>1518.2</ele>
        <time>2021-09-19T09:34:00Z</time>
      </trkpt>
      <trkpt lat="42.74576" lon="1.54563">
        <ele>1518.4</ele>
        <time>2021-09-19T09:34:03Z</time>
      </trkpt>
      <trkpt lat="42.74574" lon="1.5456">
        <ele>1519</ele>
        <time>2021-09-19T09:34:09Z</time>
      </trkpt>
      <trkpt lat="42.74574" lon="1.54559">
        <ele>1519.2</ele>
        <time>2021-09-19T09:34:10Z</time>
      </trkpt>
      <trkpt lat="42.74573" lon="1.54554">
        <ele>1519.6</ele>
        <time>2021-09-19T09:34:14Z</time>
      </trkpt>
      <trkpt lat="42.74573" lon="1.54553">
        <ele>1519.8</ele>
        <time>2021-09-19T09:34:15Z</time>
      </trkpt>
      <trkpt lat="42.74571" lon="1.5455">
        <ele>1520.4</ele>
        <time>2021-09-19T09:34:18Z</time>
      </trkpt>
      <trkpt lat="42.74571" lon="1.54547">
        <ele>1520.6</ele>
        <time>2021-09-19T09:34:21Z</time>
      </trkpt>
      <trkpt lat="42.74569" lon="1.5454">
        <ele>1521</ele>
        <time>2021-09-19T09:34:26Z</time>
      </trkpt>
      <trkpt lat="42.74569" lon="1.54539">
        <ele>1521.4</ele>
        <time>2021-09-19T09:34:28Z</time>
      </trkpt>
      <trkpt lat="42.7457" lon="1.54538">
        <ele>1521.6</ele>
        <time>2021-09-19T09:34:29Z</time>
      </trkpt>
      <trkpt lat="42.7457" lon="1.54536">
        <ele>1522</ele>
        <time>2021-09-19T09:34:33Z</time>
      </trkpt>
      <trkpt lat="42.7457" lon="1.54535">
        <ele>1522.6</ele>
        <time>2021-09-19T09:34:35Z</time>
      </trkpt>
      <trkpt lat="42.74569" lon="1.54533">
        <ele>1523.2</ele>
        <time>2021-09-19T09:34:40Z</time>
      </trkpt>
      <trkpt lat="42.74569" lon="1.54532">
        <ele>1523.4</ele>
        <time>2021-09-19T09:34:41Z</time>
      </trkpt>
      <trkpt lat="42.7457" lon="1.5453">
        <ele>1523.6</ele>
        <time>2021-09-19T09:34:43Z</time>
      </trkpt>
      <trkpt lat="42.74569" lon="1.54527">
        <ele>1524.4</ele>
        <time>2021-09-19T09:34:46Z</time>
      </trkpt>
      <trkpt lat="42.74569" lon="1.54525">
        <ele>1524.8</ele>
        <time>2021-09-19T09:34:48Z</time>
      </trkpt>
      <trkpt lat="42.74566" lon="1.54521">
        <ele>1525.6</ele>
        <time>2021-09-19T09:34:52Z</time>
      </trkpt>
      <trkpt lat="42.74566" lon="1.54519">
        <ele>1525.8</ele>
        <time>2021-09-19T09:34:54Z</time>
      </trkpt>
      <trkpt lat="42.74566" lon="1.54517">
        <ele>1526</ele>
        <time>2021-09-19T09:34:57Z</time>
      </trkpt>
      <trkpt lat="42.74565" lon="1.54516">
        <ele>1526.8</ele>
        <time>2021-09-19T09:35:03Z</time>
      </trkpt>
      <trkpt lat="42.74565" lon="1.54516">
        <ele>1527.2</ele>
        <time>2021-09-19T09:35:04Z</time>
      </trkpt>
      <trkpt lat="42.74564" lon="1.54511">
        <ele>1528.2</ele>
        <time>2021-09-19T09:35:09Z</time>
      </trkpt>
      <trkpt lat="42.74564" lon="1.54511">
        <ele>1528.2</ele>
        <time>2021-09-19T09:35:10Z</time>
      </trkpt>
      <trkpt lat="42.74564" lon="1.54505">
        <ele>1529.4</ele>
        <time>2021-09-19T09:35:16Z</time>
      </trkpt>
      <trkpt lat="42.74564" lon="1.54503">
        <ele>1529.8</ele>
        <time>2021-09-19T09:35:19Z</time>
      </trkpt>
      <trkpt lat="42.74563" lon="1.545">
        <ele>1530.4</ele>
        <time>2021-09-19T09:35:24Z</time>
      </trkpt>
      <trkpt lat="42.74562" lon="1.54498">
        <ele>1531.2</ele>
        <time>2021-09-19T09:35:27Z</time>
      </trkpt>
      <trkpt lat="42.74561" lon="1.54494">
        <ele>1531.6</ele>
        <time>2021-09-19T09:35:31Z</time>
      </trkpt>
      <trkpt lat="42.7456" lon="1.54493">
        <ele>1532.2</ele>
        <time>2021-09-19T09:35:35Z</time>
      </trkpt>
      <trkpt lat="42.74558" lon="1.54493">
        <ele>1532.6</ele>
        <time>2021-09-19T09:35:38Z</time>
      </trkpt>
      <trkpt lat="42.74555" lon="1.54492">
        <ele>1533.2</ele>
        <time>2021-09-19T09:35:42Z</time>
      </trkpt>
      <trkpt lat="42.74553" lon="1.54493">
        <ele>1533.6</ele>
        <time>2021-09-19T09:35:44Z</time>
      </trkpt>
      <trkpt lat="42.74551" lon="1.54496">
        <ele>1534</ele>
        <time>2021-09-19T09:35:47Z</time>
      </trkpt>
      <trkpt lat="42.74551" lon="1.54497">
        <ele>1534</ele>
        <time>2021-09-19T09:35:48Z</time>
      </trkpt>
      <trkpt lat="42.74549" lon="1.54499">
        <ele>1534</ele>
        <time>2021-09-19T09:35:50Z</time>
      </trkpt>
      <trkpt lat="42.74548" lon="1.54501">
        <ele>1534</ele>
        <time>2021-09-19T09:35:52Z</time>
      </trkpt>
      <trkpt lat="42.74547" lon="1.54504">
        <ele>1534.6</ele>
        <time>2021-09-19T09:35:59Z</time>
      </trkpt>
      <trkpt lat="42.74546" lon="1.54504">
        <ele>1534.6</ele>
        <time>2021-09-19T09:36:01Z</time>
      </trkpt>
      <trkpt lat="42.74545" lon="1.54504">
        <ele>1534.8</ele>
        <time>2021-09-19T09:36:03Z</time>
      </trkpt>
      <trkpt lat="42.74543" lon="1.54505">
        <ele>1536</ele>
        <time>2021-09-19T09:36:07Z</time>
      </trkpt>
      <trkpt lat="42.74542" lon="1.54505">
        <ele>1536.2</ele>
        <time>2021-09-19T09:36:08Z</time>
      </trkpt>
      <trkpt lat="42.74538" lon="1.54506">
        <ele>1536.2</ele>
        <time>2021-09-19T09:36:15Z</time>
      </trkpt>
      <trkpt lat="42.74537" lon="1.54506">
        <ele>1537.2</ele>
        <time>2021-09-19T09:36:17Z</time>
      </trkpt>
      <trkpt lat="42.74536" lon="1.54506">
        <ele>1537.4</ele>
        <time>2021-09-19T09:36:18Z</time>
      </trkpt>
      <trkpt lat="42.74536" lon="1.54506">
        <ele>1537.2</ele>
        <time>2021-09-19T09:36:19Z</time>
      </trkpt>
      <trkpt lat="42.74535" lon="1.54506">
        <ele>1537</ele>
        <time>2021-09-19T09:36:20Z</time>
      </trkpt>
      <trkpt lat="42.74535" lon="1.54506">
        <ele>1537.2</ele>
        <time>2021-09-19T09:36:21Z</time>
      </trkpt>
      <trkpt lat="42.74533" lon="1.54507">
        <ele>1537.2</ele>
        <time>2021-09-19T09:36:23Z</time>
      </trkpt>
      <trkpt lat="42.74531" lon="1.54508">
        <ele>1538.2</ele>
        <time>2021-09-19T09:36:27Z</time>
      </trkpt>
      <trkpt lat="42.74529" lon="1.54509">
        <ele>1538.8</ele>
        <time>2021-09-19T09:36:30Z</time>
      </trkpt>
      <trkpt lat="42.74528" lon="1.5451">
        <ele>1539</ele>
        <time>2021-09-19T09:36:31Z</time>
      </trkpt>
      <trkpt lat="42.74527" lon="1.5451">
        <ele>1539.4</ele>
        <time>2021-09-19T09:36:32Z</time>
      </trkpt>
      <trkpt lat="42.74526" lon="1.5451">
        <ele>1540.2</ele>
        <time>2021-09-19T09:36:36Z</time>
      </trkpt>
      <trkpt lat="42.74525" lon="1.5451">
        <ele>1540.8</ele>
        <time>2021-09-19T09:36:38Z</time>
      </trkpt>
      <trkpt lat="42.74521" lon="1.54512">
        <ele>1542.2</ele>
        <time>2021-09-19T09:36:42Z</time>
      </trkpt>
      <trkpt lat="42.74519" lon="1.54511">
        <ele>1542.8</ele>
        <time>2021-09-19T09:36:48Z</time>
      </trkpt>
      <trkpt lat="42.74516" lon="1.5451">
        <ele>1543.2</ele>
        <time>2021-09-19T09:36:53Z</time>
      </trkpt>
      <trkpt lat="42.74515" lon="1.54509">
        <ele>1543.2</ele>
        <time>2021-09-19T09:36:54Z</time>
      </trkpt>
      <trkpt lat="42.74514" lon="1.54509">
        <ele>1544</ele>
        <time>2021-09-19T09:36:56Z</time>
      </trkpt>
      <trkpt lat="42.74513" lon="1.54509">
        <ele>1544.6</ele>
        <time>2021-09-19T09:36:57Z</time>
      </trkpt>
      <trkpt lat="42.74512" lon="1.54508">
        <ele>1544.8</ele>
        <time>2021-09-19T09:36:59Z</time>
      </trkpt>
      <trkpt lat="42.74512" lon="1.54508">
        <ele>1545.2</ele>
        <time>2021-09-19T09:37:00Z</time>
      </trkpt>
      <trkpt lat="42.74512" lon="1.54508">
        <ele>1545.4</ele>
        <time>2021-09-19T09:37:01Z</time>
      </trkpt>
      <trkpt lat="42.74511" lon="1.54508">
        <ele>1545.6</ele>
        <time>2021-09-19T09:37:02Z</time>
      </trkpt>
      <trkpt lat="42.74511" lon="1.54508">
        <ele>1545.8</ele>
        <time>2021-09-19T09:37:03Z</time>
      </trkpt>
      <trkpt lat="42.7451" lon="1.54508">
        <ele>1546.2</ele>
        <time>2021-09-19T09:37:05Z</time>
      </trkpt>
      <trkpt lat="42.74508" lon="1.54506">
        <ele>1546.8</ele>
        <time>2021-09-19T09:37:09Z</time>
      </trkpt>
      <trkpt lat="42.74508" lon="1.54507">
        <ele>1547</ele>
        <time>2021-09-19T09:37:10Z</time>
      </trkpt>
      <trkpt lat="42.74505" lon="1.54508">
        <ele>1548</ele>
        <time>2021-09-19T09:37:14Z</time>
      </trkpt>
      <trkpt lat="42.74502" lon="1.54509">
        <ele>1548.6</ele>
        <time>2021-09-19T09:37:18Z</time>
      </trkpt>
      <trkpt lat="42.745" lon="1.5451">
        <ele>1549.4</ele>
        <time>2021-09-19T09:37:21Z</time>
      </trkpt>
      <trkpt lat="42.74496" lon="1.54514">
        <ele>1550</ele>
        <time>2021-09-19T09:37:25Z</time>
      </trkpt>
      <trkpt lat="42.74495" lon="1.54515">
        <ele>1550</ele>
        <time>2021-09-19T09:37:26Z</time>
      </trkpt>
      <trkpt lat="42.74492" lon="1.54516">
        <ele>1550</ele>
        <time>2021-09-19T09:37:31Z</time>
      </trkpt>
      <trkpt lat="42.74492" lon="1.54516">
        <ele>1550.2</ele>
        <time>2021-09-19T09:37:32Z</time>
      </trkpt>
      <trkpt lat="42.74491" lon="1.54515">
        <ele>1550.6</ele>
        <time>2021-09-19T09:37:34Z</time>
      </trkpt>
      <trkpt lat="42.7449" lon="1.54514">
        <ele>1551.6</ele>
        <time>2021-09-19T09:37:37Z</time>
      </trkpt>
      <trkpt lat="42.74489" lon="1.54513">
        <ele>1552</ele>
        <time>2021-09-19T09:37:39Z</time>
      </trkpt>
      <trkpt lat="42.74484" lon="1.54514">
        <ele>1552.8</ele>
        <time>2021-09-19T09:37:45Z</time>
      </trkpt>
      <trkpt lat="42.74482" lon="1.54514">
        <ele>1553</ele>
        <time>2021-09-19T09:37:47Z</time>
      </trkpt>
      <trkpt lat="42.74481" lon="1.54514">
        <ele>1554</ele>
        <time>2021-09-19T09:37:50Z</time>
      </trkpt>
      <trkpt lat="42.74479" lon="1.54513">
        <ele>1555.2</ele>
        <time>2021-09-19T09:37:53Z</time>
      </trkpt>
      <trkpt lat="42.74477" lon="1.54513">
        <ele>1556.2</ele>
        <time>2021-09-19T09:37:56Z</time>
      </trkpt>
      <trkpt lat="42.74473" lon="1.54511">
        <ele>1557.2</ele>
        <time>2021-09-19T09:38:00Z</time>
      </trkpt>
      <trkpt lat="42.74473" lon="1.54511">
        <ele>1557.2</ele>
        <time>2021-09-19T09:38:01Z</time>
      </trkpt>
      <trkpt lat="42.7447" lon="1.5451">
        <ele>1557.4</ele>
        <time>2021-09-19T09:38:05Z</time>
      </trkpt>
      <trkpt lat="42.74467" lon="1.5451">
        <ele>1558.4</ele>
        <time>2021-09-19T09:38:09Z</time>
      </trkpt>
      <trkpt lat="42.74464" lon="1.54509">
        <ele>1559.2</ele>
        <time>2021-09-19T09:38:13Z</time>
      </trkpt>
      <trkpt lat="42.74463" lon="1.54508">
        <ele>1559.4</ele>
        <time>2021-09-19T09:38:15Z</time>
      </trkpt>
      <trkpt lat="42.7446" lon="1.54506">
        <ele>1560.8</ele>
        <time>2021-09-19T09:38:20Z</time>
      </trkpt>
      <trkpt lat="42.74457" lon="1.54505">
        <ele>1562</ele>
        <time>2021-09-19T09:38:24Z</time>
      </trkpt>
      <trkpt lat="42.74455" lon="1.54503">
        <ele>1563</ele>
        <time>2021-09-19T09:38:27Z</time>
      </trkpt>
      <trkpt lat="42.74454" lon="1.54503">
        <ele>1563.2</ele>
        <time>2021-09-19T09:38:28Z</time>
      </trkpt>
      <trkpt lat="42.74453" lon="1.54502">
        <ele>1563.6</ele>
        <time>2021-09-19T09:38:30Z</time>
      </trkpt>
      <trkpt lat="42.7445" lon="1.54502">
        <ele>1563.8</ele>
        <time>2021-09-19T09:38:33Z</time>
      </trkpt>
      <trkpt lat="42.74448" lon="1.545">
        <ele>1564.6</ele>
        <time>2021-09-19T09:38:38Z</time>
      </trkpt>
      <trkpt lat="42.74448" lon="1.54499">
        <ele>1565</ele>
        <time>2021-09-19T09:38:39Z</time>
      </trkpt>
      <trkpt lat="42.74446" lon="1.54499">
        <ele>1565.2</ele>
        <time>2021-09-19T09:38:41Z</time>
      </trkpt>
      <trkpt lat="42.74445" lon="1.54498">
        <ele>1565.8</ele>
        <time>2021-09-19T09:38:43Z</time>
      </trkpt>
      <trkpt lat="42.74444" lon="1.54496">
        <ele>1566.6</ele>
        <time>2021-09-19T09:38:46Z</time>
      </trkpt>
      <trkpt lat="42.74442" lon="1.54495">
        <ele>1567</ele>
        <time>2021-09-19T09:38:48Z</time>
      </trkpt>
      <trkpt lat="42.74439" lon="1.54491">
        <ele>1568</ele>
        <time>2021-09-19T09:38:53Z</time>
      </trkpt>
      <trkpt lat="42.74438" lon="1.5449">
        <ele>1569</ele>
        <time>2021-09-19T09:38:56Z</time>
      </trkpt>
      <trkpt lat="42.74436" lon="1.54489">
        <ele>1569.8</ele>
        <time>2021-09-19T09:38:59Z</time>
      </trkpt>
      <trkpt lat="42.74435" lon="1.54489">
        <ele>1570.4</ele>
        <time>2021-09-19T09:39:01Z</time>
      </trkpt>
      <trkpt lat="42.74431" lon="1.5449">
        <ele>1571.4</ele>
        <time>2021-09-19T09:39:07Z</time>
      </trkpt>
      <trkpt lat="42.74426" lon="1.54488">
        <ele>1572.6</ele>
        <time>2021-09-19T09:39:12Z</time>
      </trkpt>
      <trkpt lat="42.74424" lon="1.54488">
        <ele>1573.4</ele>
        <time>2021-09-19T09:39:15Z</time>
      </trkpt>
      <trkpt lat="42.74423" lon="1.54488">
        <ele>1573.8</ele>
        <time>2021-09-19T09:39:16Z</time>
      </trkpt>
      <trkpt lat="42.74422" lon="1.54489">
        <ele>1574.2</ele>
        <time>2021-09-19T09:39:18Z</time>
      </trkpt>
      <trkpt lat="42.7442" lon="1.5449">
        <ele>1574.4</ele>
        <time>2021-09-19T09:39:20Z</time>
      </trkpt>
      <trkpt lat="42.7442" lon="1.54489">
        <ele>1574.8</ele>
        <time>2021-09-19T09:39:22Z</time>
      </trkpt>
      <trkpt lat="42.7442" lon="1.54489">
        <ele>1575.2</ele>
        <time>2021-09-19T09:39:24Z</time>
      </trkpt>
      <trkpt lat="42.74419" lon="1.5449">
        <ele>1575.2</ele>
        <time>2021-09-19T09:39:25Z</time>
      </trkpt>
      <trkpt lat="42.74418" lon="1.54491">
        <ele>1576</ele>
        <time>2021-09-19T09:39:27Z</time>
      </trkpt>
      <trkpt lat="42.74414" lon="1.54497">
        <ele>1576.2</ele>
        <time>2021-09-19T09:39:32Z</time>
      </trkpt>
      <trkpt lat="42.74413" lon="1.54498">
        <ele>1576.2</ele>
        <time>2021-09-19T09:39:33Z</time>
      </trkpt>
      <trkpt lat="42.74412" lon="1.54499">
        <ele>1576</ele>
        <time>2021-09-19T09:39:34Z</time>
      </trkpt>
      <trkpt lat="42.74413" lon="1.545">
        <ele>1575.8</ele>
        <time>2021-09-19T09:39:38Z</time>
      </trkpt>
      <trkpt lat="42.74413" lon="1.545">
        <ele>1575.6</ele>
        <time>2021-09-19T09:39:39Z</time>
      </trkpt>
      <trkpt lat="42.74413" lon="1.545">
        <ele>1575.6</ele>
        <time>2021-09-19T09:39:47Z</time>
      </trkpt>
      <trkpt lat="42.74412" lon="1.545">
        <ele>1575.4</ele>
        <time>2021-09-19T09:39:56Z</time>
      </trkpt>
      <trkpt lat="42.74412" lon="1.545">
        <ele>1575.4</ele>
        <time>2021-09-19T09:39:58Z</time>
      </trkpt>
      <trkpt lat="42.74411" lon="1.545">
        <ele>1575</ele>
        <time>2021-09-19T09:40:05Z</time>
      </trkpt>
      <trkpt lat="42.74409" lon="1.54498">
        <ele>1575.4</ele>
        <time>2021-09-19T09:40:09Z</time>
      </trkpt>
      <trkpt lat="42.74408" lon="1.54498">
        <ele>1575.6</ele>
        <time>2021-09-19T09:40:10Z</time>
      </trkpt>
      <trkpt lat="42.74407" lon="1.54495">
        <ele>1576.8</ele>
        <time>2021-09-19T09:40:15Z</time>
      </trkpt>
      <trkpt lat="42.74407" lon="1.54495">
        <ele>1577.2</ele>
        <time>2021-09-19T09:40:16Z</time>
      </trkpt>
      <trkpt lat="42.74406" lon="1.54494">
        <ele>1578.2</ele>
        <time>2021-09-19T09:40:18Z</time>
      </trkpt>
      <trkpt lat="42.74406" lon="1.54492">
        <ele>1578.8</ele>
        <time>2021-09-19T09:40:22Z</time>
      </trkpt>
      <trkpt lat="42.74406" lon="1.54491">
        <ele>1578.6</ele>
        <time>2021-09-19T09:40:25Z</time>
      </trkpt>
      <trkpt lat="42.74406" lon="1.54491">
        <ele>1578</ele>
        <time>2021-09-19T09:40:29Z</time>
      </trkpt>
      <trkpt lat="42.74405" lon="1.54489">
        <ele>1578.2</ele>
        <time>2021-09-19T09:40:38Z</time>
      </trkpt>
      <trkpt lat="42.74405" lon="1.54488">
        <ele>1578</ele>
        <time>2021-09-19T09:40:39Z</time>
      </trkpt>
      <trkpt lat="42.74405" lon="1.54488">
        <ele>1578</ele>
        <time>2021-09-19T09:40:40Z</time>
      </trkpt>
      <trkpt lat="42.74406" lon="1.54488">
        <ele>1578</ele>
        <time>2021-09-19T09:40:42Z</time>
      </trkpt>
      <trkpt lat="42.74405" lon="1.5449">
        <ele>1578</ele>
        <time>2021-09-19T09:40:48Z</time>
      </trkpt>
      <trkpt lat="42.74405" lon="1.54489">
        <ele>1578</ele>
        <time>2021-09-19T09:40:50Z</time>
      </trkpt>
      <trkpt lat="42.74404" lon="1.54488">
        <ele>1578</ele>
        <time>2021-09-19T09:40:55Z</time>
      </trkpt>
      <trkpt lat="42.74405" lon="1.54488">
        <ele>1578</ele>
        <time>2021-09-19T09:40:57Z</time>
      </trkpt>
      <trkpt lat="42.74406" lon="1.54488">
        <ele>1578.2</ele>
        <time>2021-09-19T09:41:04Z</time>
      </trkpt>
      <trkpt lat="42.74407" lon="1.54488">
        <ele>1578.6</ele>
        <time>2021-09-19T09:41:11Z</time>
      </trkpt>
      <trkpt lat="42.74407" lon="1.54487">
        <ele>1578.4</ele>
        <time>2021-09-19T09:41:15Z</time>
      </trkpt>
      <trkpt lat="42.74407" lon="1.54487">
        <ele>1578.2</ele>
        <time>2021-09-19T09:41:18Z</time>
      </trkpt>
      <trkpt lat="42.74406" lon="1.54489">
        <ele>1578.2</ele>
        <time>2021-09-19T09:41:26Z</time>
      </trkpt>
      <trkpt lat="42.74405" lon="1.54489">
        <ele>1578.2</ele>
        <time>2021-09-19T09:41:29Z</time>
      </trkpt>
      <trkpt lat="42.74405" lon="1.5449">
        <ele>1578.2</ele>
        <time>2021-09-19T09:41:31Z</time>
      </trkpt>
      <trkpt lat="42.74407" lon="1.54491">
        <ele>1578.4</ele>
        <time>2021-09-19T09:41:45Z</time>
      </trkpt>
      <trkpt lat="42.74406" lon="1.54492">
        <ele>1578</ele>
        <time>2021-09-19T09:41:58Z</time>
      </trkpt>
      <trkpt lat="42.74406" lon="1.5449">
        <ele>1578</ele>
        <time>2021-09-19T09:42:03Z</time>
      </trkpt>
      <trkpt lat="42.74406" lon="1.54491">
        <ele>1578.2</ele>
        <time>2021-09-19T09:42:05Z</time>
      </trkpt>
      <trkpt lat="42.74405" lon="1.54492">
        <ele>1578.4</ele>
        <time>2021-09-19T09:42:10Z</time>
      </trkpt>
      <trkpt lat="42.74404" lon="1.54493">
        <ele>1578.4</ele>
        <time>2021-09-19T09:42:14Z</time>
      </trkpt>
      <trkpt lat="42.74405" lon="1.54489">
        <ele>1577.6</ele>
        <time>2021-09-19T09:42:21Z</time>
      </trkpt>
      <trkpt lat="42.74405" lon="1.54488">
        <ele>1577.6</ele>
        <time>2021-09-19T09:42:22Z</time>
      </trkpt>
      <trkpt lat="42.74404" lon="1.54487">
        <ele>1577.6</ele>
        <time>2021-09-19T09:42:24Z</time>
      </trkpt>
      <trkpt lat="42.74404" lon="1.54486">
        <ele>1577.6</ele>
        <time>2021-09-19T09:42:25Z</time>
      </trkpt>
      <trkpt lat="42.74403" lon="1.54485">
        <ele>1577.8</ele>
        <time>2021-09-19T09:42:31Z</time>
      </trkpt>
      <trkpt lat="42.74402" lon="1.54489">
        <ele>1577.8</ele>
        <time>2021-09-19T09:42:39Z</time>
      </trkpt>
      <trkpt lat="42.74402" lon="1.54489">
        <ele>1577.8</ele>
        <time>2021-09-19T09:42:40Z</time>
      </trkpt>
      <trkpt lat="42.744" lon="1.54487">
        <ele>1578.6</ele>
        <time>2021-09-19T09:42:48Z</time>
      </trkpt>
      <trkpt lat="42.74399" lon="1.54485">
        <ele>1578.4</ele>
        <time>2021-09-19T09:42:51Z</time>
      </trkpt>
      <trkpt lat="42.74398" lon="1.54484">
        <ele>1578.4</ele>
        <time>2021-09-19T09:42:53Z</time>
      </trkpt>
      <trkpt lat="42.74397" lon="1.54483">
        <ele>1578.4</ele>
        <time>2021-09-19T09:42:55Z</time>
      </trkpt>
      <trkpt lat="42.74396" lon="1.54482">
        <ele>1578.4</ele>
        <time>2021-09-19T09:42:57Z</time>
      </trkpt>
      <trkpt lat="42.74396" lon="1.54482">
        <ele>1578.4</ele>
        <time>2021-09-19T09:42:58Z</time>
      </trkpt>
      <trkpt lat="42.74396" lon="1.54481">
        <ele>1578.4</ele>
        <time>2021-09-19T09:42:59Z</time>
      </trkpt>
      <trkpt lat="42.74397" lon="1.54477">
        <ele>1578.4</ele>
        <time>2021-09-19T09:43:04Z</time>
      </trkpt>
      <trkpt lat="42.74397" lon="1.54476">
        <ele>1578.4</ele>
        <time>2021-09-19T09:43:06Z</time>
      </trkpt>
      <trkpt lat="42.74396" lon="1.54474">
        <ele>1578.4</ele>
        <time>2021-09-19T09:43:09Z</time>
      </trkpt>
      <trkpt lat="42.74396" lon="1.54469">
        <ele>1578.4</ele>
        <time>2021-09-19T09:43:13Z</time>
      </trkpt>
      <trkpt lat="42.74398" lon="1.54464">
        <ele>1578.4</ele>
        <time>2021-09-19T09:43:20Z</time>
      </trkpt>
      <trkpt lat="42.74403" lon="1.54463">
        <ele>1578.4</ele>
        <time>2021-09-19T09:43:26Z</time>
      </trkpt>
      <trkpt lat="42.74408" lon="1.54461">
        <ele>1578.4</ele>
        <time>2021-09-19T09:43:35Z</time>
      </trkpt>
      <trkpt lat="42.7441" lon="1.54457">
        <ele>1578.4</ele>
        <time>2021-09-19T09:43:42Z</time>
      </trkpt>
      <trkpt lat="42.74411" lon="1.54456">
        <ele>1584.4</ele>
        <time>2021-09-19T09:43:44Z</time>
      </trkpt>
      <trkpt lat="42.74413" lon="1.54454">
        <ele>1584.4</ele>
        <time>2021-09-19T09:43:47Z</time>
      </trkpt>
      <trkpt lat="42.74416" lon="1.54452">
        <ele>1585</ele>
        <time>2021-09-19T09:43:53Z</time>
      </trkpt>
      <trkpt lat="42.74419" lon="1.54452">
        <ele>1585.6</ele>
        <time>2021-09-19T09:43:56Z</time>
      </trkpt>
      <trkpt lat="42.74422" lon="1.54453">
        <ele>1586</ele>
        <time>2021-09-19T09:44:01Z</time>
      </trkpt>
      <trkpt lat="42.74424" lon="1.54452">
        <ele>1586.8</ele>
        <time>2021-09-19T09:44:05Z</time>
      </trkpt>
      <trkpt lat="42.74426" lon="1.54449">
        <ele>1587</ele>
        <time>2021-09-19T09:44:08Z</time>
      </trkpt>
      <trkpt lat="42.74429" lon="1.54445">
        <ele>1587.8</ele>
        <time>2021-09-19T09:44:13Z</time>
      </trkpt>
      <trkpt lat="42.74432" lon="1.54443">
        <ele>1588.4</ele>
        <time>2021-09-19T09:44:20Z</time>
      </trkpt>
      <trkpt lat="42.74435" lon="1.54443">
        <ele>1588.8</ele>
        <time>2021-09-19T09:44:24Z</time>
      </trkpt>
      <trkpt lat="42.74438" lon="1.54441">
        <ele>1589.8</ele>
        <time>2021-09-19T09:44:28Z</time>
      </trkpt>
      <trkpt lat="42.74438" lon="1.5444">
        <ele>1589.8</ele>
        <time>2021-09-19T09:44:29Z</time>
      </trkpt>
      <trkpt lat="42.74439" lon="1.54437">
        <ele>1591</ele>
        <time>2021-09-19T09:44:35Z</time>
      </trkpt>
      <trkpt lat="42.7444" lon="1.54437">
        <ele>1591</ele>
        <time>2021-09-19T09:44:36Z</time>
      </trkpt>
      <trkpt lat="42.7444" lon="1.54437">
        <ele>1591.2</ele>
        <time>2021-09-19T09:44:37Z</time>
      </trkpt>
      <trkpt lat="42.74442" lon="1.54433">
        <ele>1591.6</ele>
        <time>2021-09-19T09:44:43Z</time>
      </trkpt>
      <trkpt lat="42.74444" lon="1.5443">
        <ele>1592</ele>
        <time>2021-09-19T09:44:46Z</time>
      </trkpt>
      <trkpt lat="42.74445" lon="1.54427">
        <ele>1592.4</ele>
        <time>2021-09-19T09:44:49Z</time>
      </trkpt>
      <trkpt lat="42.74445" lon="1.54426">
        <ele>1592.6</ele>
        <time>2021-09-19T09:44:50Z</time>
      </trkpt>
      <trkpt lat="42.74445" lon="1.54426">
        <ele>1592.8</ele>
        <time>2021-09-19T09:44:51Z</time>
      </trkpt>
      <trkpt lat="42.74446" lon="1.54423">
        <ele>1593</ele>
        <time>2021-09-19T09:44:55Z</time>
      </trkpt>
      <trkpt lat="42.74448" lon="1.5442">
        <ele>1593.6</ele>
        <time>2021-09-19T09:44:59Z</time>
      </trkpt>
      <trkpt lat="42.74448" lon="1.54417">
        <ele>1594.2</ele>
        <time>2021-09-19T09:45:02Z</time>
      </trkpt>
      <trkpt lat="42.74448" lon="1.54417">
        <ele>1594.2</ele>
        <time>2021-09-19T09:45:03Z</time>
      </trkpt>
      <trkpt lat="42.74449" lon="1.54415">
        <ele>1594.6</ele>
        <time>2021-09-19T09:45:06Z</time>
      </trkpt>
      <trkpt lat="42.74452" lon="1.5441">
        <ele>1595.2</ele>
        <time>2021-09-19T09:45:14Z</time>
      </trkpt>
      <trkpt lat="42.74453" lon="1.54403">
        <ele>1596.2</ele>
        <time>2021-09-19T09:45:22Z</time>
      </trkpt>
      <trkpt lat="42.74454" lon="1.54401">
        <ele>1596.2</ele>
        <time>2021-09-19T09:45:24Z</time>
      </trkpt>
      <trkpt lat="42.74456" lon="1.544">
        <ele>1597</ele>
        <time>2021-09-19T09:45:27Z</time>
      </trkpt>
      <trkpt lat="42.74456" lon="1.54399">
        <ele>1597.2</ele>
        <time>2021-09-19T09:45:28Z</time>
      </trkpt>
      <trkpt lat="42.74456" lon="1.54399">
        <ele>1597.2</ele>
        <time>2021-09-19T09:45:29Z</time>
      </trkpt>
      <trkpt lat="42.74457" lon="1.54398">
        <ele>1597.4</ele>
        <time>2021-09-19T09:45:30Z</time>
      </trkpt>
      <trkpt lat="42.74458" lon="1.54395">
        <ele>1598.4</ele>
        <time>2021-09-19T09:45:36Z</time>
      </trkpt>
      <trkpt lat="42.74458" lon="1.5439">
        <ele>1599.4</ele>
        <time>2021-09-19T09:45:41Z</time>
      </trkpt>
      <trkpt lat="42.74458" lon="1.54388">
        <ele>1599.4</ele>
        <time>2021-09-19T09:45:45Z</time>
      </trkpt>
      <trkpt lat="42.74456" lon="1.54382">
        <ele>1600.6</ele>
        <time>2021-09-19T09:45:53Z</time>
      </trkpt>
      <trkpt lat="42.74456" lon="1.54381">
        <ele>1600.8</ele>
        <time>2021-09-19T09:45:54Z</time>
      </trkpt>
      <trkpt lat="42.74452" lon="1.54375">
        <ele>1601.6</ele>
        <time>2021-09-19T09:46:02Z</time>
      </trkpt>
      <trkpt lat="42.74452" lon="1.54374">
        <ele>1601.8</ele>
        <time>2021-09-19T09:46:03Z</time>
      </trkpt>
      <trkpt lat="42.74448" lon="1.54374">
        <ele>1602.8</ele>
        <time>2021-09-19T09:46:08Z</time>
      </trkpt>
      <trkpt lat="42.74446" lon="1.54372">
        <ele>1603.6</ele>
        <time>2021-09-19T09:46:12Z</time>
      </trkpt>
      <trkpt lat="42.74445" lon="1.54372">
        <ele>1603.6</ele>
        <time>2021-09-19T09:46:13Z</time>
      </trkpt>
      <trkpt lat="42.74444" lon="1.54372">
        <ele>1603.8</ele>
        <time>2021-09-19T09:46:14Z</time>
      </trkpt>
      <trkpt lat="42.74444" lon="1.54372">
        <ele>1604</ele>
        <time>2021-09-19T09:46:15Z</time>
      </trkpt>
      <trkpt lat="42.74444" lon="1.54372">
        <ele>1605</ele>
        <time>2021-09-19T09:46:18Z</time>
      </trkpt>
      <trkpt lat="42.7444" lon="1.54367">
        <ele>1605.6</ele>
        <time>2021-09-19T09:46:24Z</time>
      </trkpt>
      <trkpt lat="42.74439" lon="1.54366">
        <ele>1606</ele>
        <time>2021-09-19T09:46:27Z</time>
      </trkpt>
      <trkpt lat="42.74439" lon="1.54367">
        <ele>1606.2</ele>
        <time>2021-09-19T09:46:28Z</time>
      </trkpt>
      <trkpt lat="42.74438" lon="1.54366">
        <ele>1606.6</ele>
        <time>2021-09-19T09:46:31Z</time>
      </trkpt>
      <trkpt lat="42.74436" lon="1.54365">
        <ele>1607.4</ele>
        <time>2021-09-19T09:46:35Z</time>
      </trkpt>
      <trkpt lat="42.74433" lon="1.54363">
        <ele>1608.4</ele>
        <time>2021-09-19T09:46:39Z</time>
      </trkpt>
      <trkpt lat="42.74432" lon="1.54357">
        <ele>1609.2</ele>
        <time>2021-09-19T09:46:43Z</time>
      </trkpt>
      <trkpt lat="42.7443" lon="1.54356">
        <ele>1609.2</ele>
        <time>2021-09-19T09:46:47Z</time>
      </trkpt>
      <trkpt lat="42.74429" lon="1.54358">
        <ele>1609.6</ele>
        <time>2021-09-19T09:46:49Z</time>
      </trkpt>
      <trkpt lat="42.74428" lon="1.54359">
        <ele>1610</ele>
        <time>2021-09-19T09:46:52Z</time>
      </trkpt>
      <trkpt lat="42.74428" lon="1.54359">
        <ele>1610.6</ele>
        <time>2021-09-19T09:46:54Z</time>
      </trkpt>
      <trkpt lat="42.74427" lon="1.54358">
        <ele>1610.8</ele>
        <time>2021-09-19T09:46:55Z</time>
      </trkpt>
      <trkpt lat="42.74426" lon="1.54357">
        <ele>1611.2</ele>
        <time>2021-09-19T09:46:59Z</time>
      </trkpt>
      <trkpt lat="42.74424" lon="1.54355">
        <ele>1611.4</ele>
        <time>2021-09-19T09:47:02Z</time>
      </trkpt>
      <trkpt lat="42.74422" lon="1.54353">
        <ele>1611.6</ele>
        <time>2021-09-19T09:47:05Z</time>
      </trkpt>
      <trkpt lat="42.74422" lon="1.54353">
        <ele>1611.8</ele>
        <time>2021-09-19T09:47:06Z</time>
      </trkpt>
      <trkpt lat="42.74421" lon="1.54352">
        <ele>1612.2</ele>
        <time>2021-09-19T09:47:08Z</time>
      </trkpt>
      <trkpt lat="42.74419" lon="1.54351">
        <ele>1613</ele>
        <time>2021-09-19T09:47:11Z</time>
      </trkpt>
      <trkpt lat="42.74417" lon="1.54351">
        <ele>1613.6</ele>
        <time>2021-09-19T09:47:15Z</time>
      </trkpt>
      <trkpt lat="42.74416" lon="1.54351">
        <ele>1614</ele>
        <time>2021-09-19T09:47:17Z</time>
      </trkpt>
      <trkpt lat="42.74416" lon="1.5435">
        <ele>1614.2</ele>
        <time>2021-09-19T09:47:18Z</time>
      </trkpt>
      <trkpt lat="42.74415" lon="1.5435">
        <ele>1614.2</ele>
        <time>2021-09-19T09:47:19Z</time>
      </trkpt>
      <trkpt lat="42.74414" lon="1.54349">
        <ele>1614.2</ele>
        <time>2021-09-19T09:47:20Z</time>
      </trkpt>
      <trkpt lat="42.74411" lon="1.54347">
        <ele>1615</ele>
        <time>2021-09-19T09:47:26Z</time>
      </trkpt>
      <trkpt lat="42.74411" lon="1.54347">
        <ele>1615.2</ele>
        <time>2021-09-19T09:47:27Z</time>
      </trkpt>
      <trkpt lat="42.7441" lon="1.54346">
        <ele>1616</ele>
        <time>2021-09-19T09:47:29Z</time>
      </trkpt>
      <trkpt lat="42.74408" lon="1.54344">
        <ele>1616.8</ele>
        <time>2021-09-19T09:47:34Z</time>
      </trkpt>
      <trkpt lat="42.74408" lon="1.54343">
        <ele>1617.2</ele>
        <time>2021-09-19T09:47:36Z</time>
      </trkpt>
      <trkpt lat="42.74408" lon="1.54342">
        <ele>1617.2</ele>
        <time>2021-09-19T09:47:37Z</time>
      </trkpt>
      <trkpt lat="42.74409" lon="1.5434">
        <ele>1618</ele>
        <time>2021-09-19T09:47:40Z</time>
      </trkpt>
      <trkpt lat="42.7441" lon="1.54338">
        <ele>1618.2</ele>
        <time>2021-09-19T09:47:42Z</time>
      </trkpt>
      <trkpt lat="42.74411" lon="1.54338">
        <ele>1618.2</ele>
        <time>2021-09-19T09:47:43Z</time>
      </trkpt>
      <trkpt lat="42.74411" lon="1.54337">
        <ele>1618.2</ele>
        <time>2021-09-19T09:47:44Z</time>
      </trkpt>
      <trkpt lat="42.74413" lon="1.54336">
        <ele>1618.6</ele>
        <time>2021-09-19T09:47:48Z</time>
      </trkpt>
      <trkpt lat="42.74414" lon="1.54334">
        <ele>1619.6</ele>
        <time>2021-09-19T09:47:51Z</time>
      </trkpt>
      <trkpt lat="42.74418" lon="1.5433">
        <ele>1620.4</ele>
        <time>2021-09-19T09:47:59Z</time>
      </trkpt>
      <trkpt lat="42.74419" lon="1.5433">
        <ele>1620.8</ele>
        <time>2021-09-19T09:48:00Z</time>
      </trkpt>
      <trkpt lat="42.74421" lon="1.54327">
        <ele>1621.4</ele>
        <time>2021-09-19T09:48:04Z</time>
      </trkpt>
      <trkpt lat="42.74423" lon="1.54326">
        <ele>1621.8</ele>
        <time>2021-09-19T09:48:06Z</time>
      </trkpt>
      <trkpt lat="42.74423" lon="1.54326">
        <ele>1622</ele>
        <time>2021-09-19T09:48:07Z</time>
      </trkpt>
      <trkpt lat="42.74425" lon="1.54324">
        <ele>1622.2</ele>
        <time>2021-09-19T09:48:10Z</time>
      </trkpt>
      <trkpt lat="42.74426" lon="1.54324">
        <ele>1622.4</ele>
        <time>2021-09-19T09:48:11Z</time>
      </trkpt>
      <trkpt lat="42.74426" lon="1.54323">
        <ele>1622.4</ele>
        <time>2021-09-19T09:48:12Z</time>
      </trkpt>
      <trkpt lat="42.74428" lon="1.54322">
        <ele>1623</ele>
        <time>2021-09-19T09:48:15Z</time>
      </trkpt>
      <trkpt lat="42.74429" lon="1.54321">
        <ele>1623.6</ele>
        <time>2021-09-19T09:48:17Z</time>
      </trkpt>
      <trkpt lat="42.74429" lon="1.5432">
        <ele>1623.8</ele>
        <time>2021-09-19T09:48:18Z</time>
      </trkpt>
      <trkpt lat="42.74431" lon="1.54318">
        <ele>1624.2</ele>
        <time>2021-09-19T09:48:21Z</time>
      </trkpt>
      <trkpt lat="42.74433" lon="1.54314">
        <ele>1625</ele>
        <time>2021-09-19T09:48:26Z</time>
      </trkpt>
      <trkpt lat="42.74434" lon="1.54313">
        <ele>1625.6</ele>
        <time>2021-09-19T09:48:28Z</time>
      </trkpt>
      <trkpt lat="42.74436" lon="1.5431">
        <ele>1626.4</ele>
        <time>2021-09-19T09:48:33Z</time>
      </trkpt>
      <trkpt lat="42.74437" lon="1.54309">
        <ele>1626.6</ele>
        <time>2021-09-19T09:48:35Z</time>
      </trkpt>
      <trkpt lat="42.74437" lon="1.54306">
        <ele>1627.2</ele>
        <time>2021-09-19T09:48:39Z</time>
      </trkpt>
      <trkpt lat="42.74437" lon="1.543">
        <ele>1627.4</ele>
        <time>2021-09-19T09:48:46Z</time>
      </trkpt>
      <trkpt lat="42.74436" lon="1.54299">
        <ele>1627.6</ele>
        <time>2021-09-19T09:48:47Z</time>
      </trkpt>
      <trkpt lat="42.74435" lon="1.54297">
        <ele>1629</ele>
        <time>2021-09-19T09:48:52Z</time>
      </trkpt>
      <trkpt lat="42.74434" lon="1.54295">
        <ele>1629.4</ele>
        <time>2021-09-19T09:48:54Z</time>
      </trkpt>
      <trkpt lat="42.74432" lon="1.54292">
        <ele>1630</ele>
        <time>2021-09-19T09:48:58Z</time>
      </trkpt>
      <trkpt lat="42.74431" lon="1.54289">
        <ele>1630.4</ele>
        <time>2021-09-19T09:49:02Z</time>
      </trkpt>
      <trkpt lat="42.74428" lon="1.54286">
        <ele>1631</ele>
        <time>2021-09-19T09:49:07Z</time>
      </trkpt>
      <trkpt lat="42.74426" lon="1.54286">
        <ele>1631.2</ele>
        <time>2021-09-19T09:49:09Z</time>
      </trkpt>
      <trkpt lat="42.74423" lon="1.54285">
        <ele>1632.2</ele>
        <time>2021-09-19T09:49:15Z</time>
      </trkpt>
      <trkpt lat="42.7442" lon="1.54279">
        <ele>1633</ele>
        <time>2021-09-19T09:49:23Z</time>
      </trkpt>
      <trkpt lat="42.7442" lon="1.54279">
        <ele>1633.2</ele>
        <time>2021-09-19T09:49:25Z</time>
      </trkpt>
      <trkpt lat="42.74418" lon="1.54278">
        <ele>1634</ele>
        <time>2021-09-19T09:49:29Z</time>
      </trkpt>
      <trkpt lat="42.74417" lon="1.54275">
        <ele>1634.4</ele>
        <time>2021-09-19T09:49:32Z</time>
      </trkpt>
      <trkpt lat="42.74415" lon="1.54273">
        <ele>1634.8</ele>
        <time>2021-09-19T09:49:37Z</time>
      </trkpt>
      <trkpt lat="42.74412" lon="1.54272">
        <ele>1635.4</ele>
        <time>2021-09-19T09:49:40Z</time>
      </trkpt>
      <trkpt lat="42.74411" lon="1.54271">
        <ele>1636</ele>
        <time>2021-09-19T09:49:44Z</time>
      </trkpt>
      <trkpt lat="42.74409" lon="1.5427">
        <ele>1636.6</ele>
        <time>2021-09-19T09:49:47Z</time>
      </trkpt>
      <trkpt lat="42.74408" lon="1.54267">
        <ele>1637</ele>
        <time>2021-09-19T09:49:51Z</time>
      </trkpt>
      <trkpt lat="42.74406" lon="1.54264">
        <ele>1637.8</ele>
        <time>2021-09-19T09:49:56Z</time>
      </trkpt>
      <trkpt lat="42.74405" lon="1.54263">
        <ele>1638.2</ele>
        <time>2021-09-19T09:49:58Z</time>
      </trkpt>
      <trkpt lat="42.74403" lon="1.54262">
        <ele>1638.8</ele>
        <time>2021-09-19T09:50:02Z</time>
      </trkpt>
      <trkpt lat="42.74401" lon="1.5426">
        <ele>1639.6</ele>
        <time>2021-09-19T09:50:05Z</time>
      </trkpt>
      <trkpt lat="42.74401" lon="1.5426">
        <ele>1640</ele>
        <time>2021-09-19T09:50:06Z</time>
      </trkpt>
      <trkpt lat="42.74399" lon="1.54257">
        <ele>1640.6</ele>
        <time>2021-09-19T09:50:11Z</time>
      </trkpt>
      <trkpt lat="42.74397" lon="1.54255">
        <ele>1641.2</ele>
        <time>2021-09-19T09:50:15Z</time>
      </trkpt>
      <trkpt lat="42.74397" lon="1.54253">
        <ele>1641.8</ele>
        <time>2021-09-19T09:50:18Z</time>
      </trkpt>
      <trkpt lat="42.74393" lon="1.5425">
        <ele>1642.4</ele>
        <time>2021-09-19T09:50:24Z</time>
      </trkpt>
      <trkpt lat="42.7439" lon="1.54247">
        <ele>1643.6</ele>
        <time>2021-09-19T09:50:32Z</time>
      </trkpt>
      <trkpt lat="42.74385" lon="1.54247">
        <ele>1644.4</ele>
        <time>2021-09-19T09:50:39Z</time>
      </trkpt>
      <trkpt lat="42.74384" lon="1.54246">
        <ele>1644.6</ele>
        <time>2021-09-19T09:50:40Z</time>
      </trkpt>
      <trkpt lat="42.74383" lon="1.54246">
        <ele>1644.8</ele>
        <time>2021-09-19T09:50:42Z</time>
      </trkpt>
      <trkpt lat="42.74382" lon="1.54244">
        <ele>1645.6</ele>
        <time>2021-09-19T09:50:46Z</time>
      </trkpt>
      <trkpt lat="42.74381" lon="1.54243">
        <ele>1645.8</ele>
        <time>2021-09-19T09:50:48Z</time>
      </trkpt>
      <trkpt lat="42.74379" lon="1.54242">
        <ele>1646.6</ele>
        <time>2021-09-19T09:50:53Z</time>
      </trkpt>
      <trkpt lat="42.74378" lon="1.54241">
        <ele>1647.2</ele>
        <time>2021-09-19T09:50:56Z</time>
      </trkpt>
      <trkpt lat="42.74379" lon="1.54237">
        <ele>1647.6</ele>
        <time>2021-09-19T09:51:02Z</time>
      </trkpt>
      <trkpt lat="42.7438" lon="1.54236">
        <ele>1647.6</ele>
        <time>2021-09-19T09:51:03Z</time>
      </trkpt>
      <trkpt lat="42.7438" lon="1.54235">
        <ele>1647.8</ele>
        <time>2021-09-19T09:51:04Z</time>
      </trkpt>
      <trkpt lat="42.74382" lon="1.54232">
        <ele>1648.8</ele>
        <time>2021-09-19T09:51:08Z</time>
      </trkpt>
      <trkpt lat="42.74383" lon="1.5423">
        <ele>1649</ele>
        <time>2021-09-19T09:51:11Z</time>
      </trkpt>
      <trkpt lat="42.74385" lon="1.54227">
        <ele>1649.8</ele>
        <time>2021-09-19T09:51:16Z</time>
      </trkpt>
      <trkpt lat="42.74385" lon="1.54226">
        <ele>1650</ele>
        <time>2021-09-19T09:51:17Z</time>
      </trkpt>
      <trkpt lat="42.74386" lon="1.54226">
        <ele>1650.4</ele>
        <time>2021-09-19T09:51:19Z</time>
      </trkpt>
      <trkpt lat="42.74387" lon="1.54225">
        <ele>1650.8</ele>
        <time>2021-09-19T09:51:21Z</time>
      </trkpt>
      <trkpt lat="42.74389" lon="1.54223">
        <ele>1651.2</ele>
        <time>2021-09-19T09:51:25Z</time>
      </trkpt>
      <trkpt lat="42.7439" lon="1.54222">
        <ele>1652</ele>
        <time>2021-09-19T09:51:27Z</time>
      </trkpt>
      <trkpt lat="42.74393" lon="1.54219">
        <ele>1652.8</ele>
        <time>2021-09-19T09:51:32Z</time>
      </trkpt>
      <trkpt lat="42.74393" lon="1.54219">
        <ele>1653</ele>
        <time>2021-09-19T09:51:33Z</time>
      </trkpt>
      <trkpt lat="42.74395" lon="1.54217">
        <ele>1654</ele>
        <time>2021-09-19T09:51:38Z</time>
      </trkpt>
      <trkpt lat="42.74395" lon="1.54216">
        <ele>1654.2</ele>
        <time>2021-09-19T09:51:39Z</time>
      </trkpt>
      <trkpt lat="42.74396" lon="1.54212">
        <ele>1655.2</ele>
        <time>2021-09-19T09:51:46Z</time>
      </trkpt>
      <trkpt lat="42.74397" lon="1.54211">
        <ele>1655.4</ele>
        <time>2021-09-19T09:51:49Z</time>
      </trkpt>
      <trkpt lat="42.74398" lon="1.54208">
        <ele>1656.2</ele>
        <time>2021-09-19T09:51:56Z</time>
      </trkpt>
      <trkpt lat="42.74399" lon="1.54208">
        <ele>1656.4</ele>
        <time>2021-09-19T09:51:57Z</time>
      </trkpt>
      <trkpt lat="42.74401" lon="1.54203">
        <ele>1657</ele>
        <time>2021-09-19T09:52:03Z</time>
      </trkpt>
      <trkpt lat="42.74401" lon="1.54202">
        <ele>1657.4</ele>
        <time>2021-09-19T09:52:04Z</time>
      </trkpt>
      <trkpt lat="42.74404" lon="1.54198">
        <ele>1658.4</ele>
        <time>2021-09-19T09:52:11Z</time>
      </trkpt>
      <trkpt lat="42.74404" lon="1.54196">
        <ele>1658.6</ele>
        <time>2021-09-19T09:52:12Z</time>
      </trkpt>
      <trkpt lat="42.74406" lon="1.5419">
        <ele>1659.4</ele>
        <time>2021-09-19T09:52:20Z</time>
      </trkpt>
      <trkpt lat="42.74406" lon="1.54189">
        <ele>1659.6</ele>
        <time>2021-09-19T09:52:21Z</time>
      </trkpt>
      <trkpt lat="42.74408" lon="1.54187">
        <ele>1660.6</ele>
        <time>2021-09-19T09:52:25Z</time>
      </trkpt>
      <trkpt lat="42.74408" lon="1.54186">
        <ele>1661.2</ele>
        <time>2021-09-19T09:52:27Z</time>
      </trkpt>
      <trkpt lat="42.74409" lon="1.54184">
        <ele>1661.6</ele>
        <time>2021-09-19T09:52:31Z</time>
      </trkpt>
      <trkpt lat="42.74411" lon="1.54182">
        <ele>1661.8</ele>
        <time>2021-09-19T09:52:35Z</time>
      </trkpt>
      <trkpt lat="42.74412" lon="1.54181">
        <ele>1662</ele>
        <time>2021-09-19T09:52:36Z</time>
      </trkpt>
      <trkpt lat="42.74412" lon="1.54181">
        <ele>1662.2</ele>
        <time>2021-09-19T09:52:37Z</time>
      </trkpt>
      <trkpt lat="42.74413" lon="1.5418">
        <ele>1662.4</ele>
        <time>2021-09-19T09:52:39Z</time>
      </trkpt>
      <trkpt lat="42.74414" lon="1.5418">
        <ele>1662.6</ele>
        <time>2021-09-19T09:52:40Z</time>
      </trkpt>
      <trkpt lat="42.74414" lon="1.54176">
        <ele>1663</ele>
        <time>2021-09-19T09:52:43Z</time>
      </trkpt>
      <trkpt lat="42.74414" lon="1.54173">
        <ele>1663.6</ele>
        <time>2021-09-19T09:52:47Z</time>
      </trkpt>
      <trkpt lat="42.74415" lon="1.54171">
        <ele>1664</ele>
        <time>2021-09-19T09:52:49Z</time>
      </trkpt>
      <trkpt lat="42.74417" lon="1.54168">
        <ele>1664.8</ele>
        <time>2021-09-19T09:52:55Z</time>
      </trkpt>
      <trkpt lat="42.74418" lon="1.54166">
        <ele>1665.6</ele>
        <time>2021-09-19T09:52:57Z</time>
      </trkpt>
      <trkpt lat="42.74418" lon="1.54161">
        <ele>1666</ele>
        <time>2021-09-19T09:53:02Z</time>
      </trkpt>
      <trkpt lat="42.74418" lon="1.54159">
        <ele>1666.2</ele>
        <time>2021-09-19T09:53:05Z</time>
      </trkpt>
      <trkpt lat="42.74417" lon="1.54149">
        <ele>1667</ele>
        <time>2021-09-19T09:53:13Z</time>
      </trkpt>
      <trkpt lat="42.74416" lon="1.54147">
        <ele>1667.2</ele>
        <time>2021-09-19T09:53:15Z</time>
      </trkpt>
      <trkpt lat="42.74413" lon="1.5414">
        <ele>1668</ele>
        <time>2021-09-19T09:53:21Z</time>
      </trkpt>
      <trkpt lat="42.74412" lon="1.5414">
        <ele>1668.2</ele>
        <time>2021-09-19T09:53:22Z</time>
      </trkpt>
      <trkpt lat="42.74408" lon="1.5414">
        <ele>1669.2</ele>
        <time>2021-09-19T09:53:27Z</time>
      </trkpt>
      <trkpt lat="42.74407" lon="1.54141">
        <ele>1669.4</ele>
        <time>2021-09-19T09:53:28Z</time>
      </trkpt>
      <trkpt lat="42.74404" lon="1.54141">
        <ele>1670.6</ele>
        <time>2021-09-19T09:53:33Z</time>
      </trkpt>
      <trkpt lat="42.74405" lon="1.54138">
        <ele>1670.8</ele>
        <time>2021-09-19T09:53:35Z</time>
      </trkpt>
      <trkpt lat="42.74403" lon="1.54139">
        <ele>1670.8</ele>
        <time>2021-09-19T09:53:40Z</time>
      </trkpt>
      <trkpt lat="42.74396" lon="1.54145">
        <ele>1672</ele>
        <time>2021-09-19T09:53:47Z</time>
      </trkpt>
      <trkpt lat="42.74393" lon="1.54146">
        <ele>1673</ele>
        <time>2021-09-19T09:53:51Z</time>
      </trkpt>
      <trkpt lat="42.74392" lon="1.54146">
        <ele>1673</ele>
        <time>2021-09-19T09:53:52Z</time>
      </trkpt>
      <trkpt lat="42.7439" lon="1.54145">
        <ele>1673.8</ele>
        <time>2021-09-19T09:53:55Z</time>
      </trkpt>
      <trkpt lat="42.7439" lon="1.54144">
        <ele>1674</ele>
        <time>2021-09-19T09:53:56Z</time>
      </trkpt>
      <trkpt lat="42.74389" lon="1.54142">
        <ele>1674.4</ele>
        <time>2021-09-19T09:54:01Z</time>
      </trkpt>
      <trkpt lat="42.74388" lon="1.54142">
        <ele>1675</ele>
        <time>2021-09-19T09:54:03Z</time>
      </trkpt>
      <trkpt lat="42.74386" lon="1.54143">
        <ele>1675.6</ele>
        <time>2021-09-19T09:54:06Z</time>
      </trkpt>
      <trkpt lat="42.74385" lon="1.54143">
        <ele>1675.6</ele>
        <time>2021-09-19T09:54:07Z</time>
      </trkpt>
      <trkpt lat="42.74383" lon="1.54145">
        <ele>1676.2</ele>
        <time>2021-09-19T09:54:10Z</time>
      </trkpt>
      <trkpt lat="42.74381" lon="1.54147">
        <ele>1676.8</ele>
        <time>2021-09-19T09:54:13Z</time>
      </trkpt>
      <trkpt lat="42.74379" lon="1.54147">
        <ele>1677.4</ele>
        <time>2021-09-19T09:54:15Z</time>
      </trkpt>
      <trkpt lat="42.74376" lon="1.54148">
        <ele>1678.4</ele>
        <time>2021-09-19T09:54:19Z</time>
      </trkpt>
      <trkpt lat="42.74375" lon="1.54148">
        <ele>1678.6</ele>
        <time>2021-09-19T09:54:20Z</time>
      </trkpt>
      <trkpt lat="42.74372" lon="1.54146">
        <ele>1679.4</ele>
        <time>2021-09-19T09:54:25Z</time>
      </trkpt>
      <trkpt lat="42.74372" lon="1.54144">
        <ele>1680</ele>
        <time>2021-09-19T09:54:28Z</time>
      </trkpt>
      <trkpt lat="42.74372" lon="1.54141">
        <ele>1680.4</ele>
        <time>2021-09-19T09:54:33Z</time>
      </trkpt>
      <trkpt lat="42.7437" lon="1.54141">
        <ele>1680.6</ele>
        <time>2021-09-19T09:54:36Z</time>
      </trkpt>
      <trkpt lat="42.74365" lon="1.54139">
        <ele>1681.2</ele>
        <time>2021-09-19T09:54:44Z</time>
      </trkpt>
      <trkpt lat="42.74363" lon="1.54138">
        <ele>1681.6</ele>
        <time>2021-09-19T09:54:46Z</time>
      </trkpt>
      <trkpt lat="42.74358" lon="1.54138">
        <ele>1682.6</ele>
        <time>2021-09-19T09:54:51Z</time>
      </trkpt>
      <trkpt lat="42.74357" lon="1.54138">
        <ele>1683.2</ele>
        <time>2021-09-19T09:54:52Z</time>
      </trkpt>
      <trkpt lat="42.74356" lon="1.54138">
        <ele>1683.6</ele>
        <time>2021-09-19T09:54:54Z</time>
      </trkpt>
      <trkpt lat="42.74354" lon="1.54138">
        <ele>1683.8</ele>
        <time>2021-09-19T09:54:56Z</time>
      </trkpt>
      <trkpt lat="42.74353" lon="1.54138">
        <ele>1683.8</ele>
        <time>2021-09-19T09:54:57Z</time>
      </trkpt>
      <trkpt lat="42.74351" lon="1.54138">
        <ele>1684.2</ele>
        <time>2021-09-19T09:55:00Z</time>
      </trkpt>
      <trkpt lat="42.74347" lon="1.54137">
        <ele>1684.6</ele>
        <time>2021-09-19T09:55:04Z</time>
      </trkpt>
      <trkpt lat="42.74346" lon="1.54137">
        <ele>1684.8</ele>
        <time>2021-09-19T09:55:07Z</time>
      </trkpt>
      <trkpt lat="42.74346" lon="1.54137">
        <ele>1684.8</ele>
        <time>2021-09-19T09:55:10Z</time>
      </trkpt>
      <trkpt lat="42.74343" lon="1.54133">
        <ele>1685</ele>
        <time>2021-09-19T09:55:16Z</time>
      </trkpt>
      <trkpt lat="42.74344" lon="1.54132">
        <ele>1685.4</ele>
        <time>2021-09-19T09:55:18Z</time>
      </trkpt>
      <trkpt lat="42.74346" lon="1.54129">
        <ele>1685.4</ele>
        <time>2021-09-19T09:55:21Z</time>
      </trkpt>
      <trkpt lat="42.74347" lon="1.54128">
        <ele>1685.6</ele>
        <time>2021-09-19T09:55:23Z</time>
      </trkpt>
      <trkpt lat="42.74349" lon="1.54126">
        <ele>1686.6</ele>
        <time>2021-09-19T09:55:29Z</time>
      </trkpt>
      <trkpt lat="42.7435" lon="1.54125">
        <ele>1686.8</ele>
        <time>2021-09-19T09:55:31Z</time>
      </trkpt>
      <trkpt lat="42.74353" lon="1.54122">
        <ele>1687.4</ele>
        <time>2021-09-19T09:55:35Z</time>
      </trkpt>
      <trkpt lat="42.74354" lon="1.54122">
        <ele>1687.8</ele>
        <time>2021-09-19T09:55:37Z</time>
      </trkpt>
      <trkpt lat="42.74355" lon="1.5412">
        <ele>1688</ele>
        <time>2021-09-19T09:55:39Z</time>
      </trkpt>
      <trkpt lat="42.74358" lon="1.54119">
        <ele>1688.2</ele>
        <time>2021-09-19T09:55:42Z</time>
      </trkpt>
      <trkpt lat="42.7436" lon="1.54119">
        <ele>1688.8</ele>
        <time>2021-09-19T09:55:46Z</time>
      </trkpt>
      <trkpt lat="42.74361" lon="1.54118">
        <ele>1688.8</ele>
        <time>2021-09-19T09:55:47Z</time>
      </trkpt>
      <trkpt lat="42.74365" lon="1.54113">
        <ele>1689.6</ele>
        <time>2021-09-19T09:55:55Z</time>
      </trkpt>
      <trkpt lat="42.74365" lon="1.54111">
        <ele>1690</ele>
        <time>2021-09-19T09:55:57Z</time>
      </trkpt>
      <trkpt lat="42.74367" lon="1.54109">
        <ele>1690.4</ele>
        <time>2021-09-19T09:55:59Z</time>
      </trkpt>
      <trkpt lat="42.74369" lon="1.54108">
        <ele>1690.6</ele>
        <time>2021-09-19T09:56:01Z</time>
      </trkpt>
      <trkpt lat="42.74371" lon="1.54106">
        <ele>1691</ele>
        <time>2021-09-19T09:56:04Z</time>
      </trkpt>
      <trkpt lat="42.74371" lon="1.54106">
        <ele>1691.2</ele>
        <time>2021-09-19T09:56:05Z</time>
      </trkpt>
      <trkpt lat="42.74372" lon="1.54104">
        <ele>1691.6</ele>
        <time>2021-09-19T09:56:09Z</time>
      </trkpt>
      <trkpt lat="42.74374" lon="1.54101">
        <ele>1692.2</ele>
        <time>2021-09-19T09:56:13Z</time>
      </trkpt>
      <trkpt lat="42.74375" lon="1.541">
        <ele>1692.8</ele>
        <time>2021-09-19T09:56:16Z</time>
      </trkpt>
      <trkpt lat="42.74377" lon="1.54096">
        <ele>1693.4</ele>
        <time>2021-09-19T09:56:22Z</time>
      </trkpt>
      <trkpt lat="42.74378" lon="1.54094">
        <ele>1694</ele>
        <time>2021-09-19T09:56:25Z</time>
      </trkpt>
      <trkpt lat="42.7438" lon="1.54093">
        <ele>1694.4</ele>
        <time>2021-09-19T09:56:28Z</time>
      </trkpt>
      <trkpt lat="42.7438" lon="1.54088">
        <ele>1694.8</ele>
        <time>2021-09-19T09:56:33Z</time>
      </trkpt>
      <trkpt lat="42.7438" lon="1.54087">
        <ele>1695</ele>
        <time>2021-09-19T09:56:34Z</time>
      </trkpt>
      <trkpt lat="42.74382" lon="1.54084">
        <ele>1695.2</ele>
        <time>2021-09-19T09:56:37Z</time>
      </trkpt>
      <trkpt lat="42.74382" lon="1.5408">
        <ele>1695.4</ele>
        <time>2021-09-19T09:56:40Z</time>
      </trkpt>
      <trkpt lat="42.74382" lon="1.54078">
        <ele>1696</ele>
        <time>2021-09-19T09:56:43Z</time>
      </trkpt>
      <trkpt lat="42.74383" lon="1.54076">
        <ele>1696.2</ele>
        <time>2021-09-19T09:56:45Z</time>
      </trkpt>
      <trkpt lat="42.74383" lon="1.54076">
        <ele>1696.4</ele>
        <time>2021-09-19T09:56:46Z</time>
      </trkpt>
      <trkpt lat="42.74386" lon="1.54072">
        <ele>1697.2</ele>
        <time>2021-09-19T09:56:52Z</time>
      </trkpt>
      <trkpt lat="42.74387" lon="1.5407">
        <ele>1697.6</ele>
        <time>2021-09-19T09:56:55Z</time>
      </trkpt>
      <trkpt lat="42.74388" lon="1.54068">
        <ele>1698.6</ele>
        <time>2021-09-19T09:56:58Z</time>
      </trkpt>
      <trkpt lat="42.74388" lon="1.54067">
        <ele>1698.8</ele>
        <time>2021-09-19T09:56:59Z</time>
      </trkpt>
      <trkpt lat="42.74391" lon="1.54063">
        <ele>1699.2</ele>
        <time>2021-09-19T09:57:06Z</time>
      </trkpt>
      <trkpt lat="42.74392" lon="1.54062">
        <ele>1699.4</ele>
        <time>2021-09-19T09:57:08Z</time>
      </trkpt>
      <trkpt lat="42.74392" lon="1.54061">
        <ele>1699.6</ele>
        <time>2021-09-19T09:57:09Z</time>
      </trkpt>
      <trkpt lat="42.74392" lon="1.54057">
        <ele>1700.2</ele>
        <time>2021-09-19T09:57:13Z</time>
      </trkpt>
      <trkpt lat="42.74393" lon="1.54054">
        <ele>1700.8</ele>
        <time>2021-09-19T09:57:16Z</time>
      </trkpt>
      <trkpt lat="42.74393" lon="1.54051">
        <ele>1701.2</ele>
        <time>2021-09-19T09:57:19Z</time>
      </trkpt>
      <trkpt lat="42.74395" lon="1.54048">
        <ele>1701.8</ele>
        <time>2021-09-19T09:57:23Z</time>
      </trkpt>
      <trkpt lat="42.74395" lon="1.54047">
        <ele>1701.8</ele>
        <time>2021-09-19T09:57:25Z</time>
      </trkpt>
      <trkpt lat="42.74395" lon="1.54046">
        <ele>1702</ele>
        <time>2021-09-19T09:57:27Z</time>
      </trkpt>
      <trkpt lat="42.74396" lon="1.54044">
        <ele>1702.6</ele>
        <time>2021-09-19T09:57:29Z</time>
      </trkpt>
      <trkpt lat="42.74396" lon="1.54043">
        <ele>1702.8</ele>
        <time>2021-09-19T09:57:30Z</time>
      </trkpt>
      <trkpt lat="42.74396" lon="1.54042">
        <ele>1703</ele>
        <time>2021-09-19T09:57:31Z</time>
      </trkpt>
      <trkpt lat="42.74396" lon="1.54041">
        <ele>1703</ele>
        <time>2021-09-19T09:57:32Z</time>
      </trkpt>
      <trkpt lat="42.74396" lon="1.54041">
        <ele>1703.2</ele>
        <time>2021-09-19T09:57:33Z</time>
      </trkpt>
      <trkpt lat="42.74396" lon="1.5404">
        <ele>1703.4</ele>
        <time>2021-09-19T09:57:34Z</time>
      </trkpt>
      <trkpt lat="42.74397" lon="1.54035">
        <ele>1703.8</ele>
        <time>2021-09-19T09:57:40Z</time>
      </trkpt>
      <trkpt lat="42.74397" lon="1.54035">
        <ele>1703.8</ele>
        <time>2021-09-19T09:57:41Z</time>
      </trkpt>
      <trkpt lat="42.74398" lon="1.54034">
        <ele>1704</ele>
        <time>2021-09-19T09:57:42Z</time>
      </trkpt>
      <trkpt lat="42.74398" lon="1.54033">
        <ele>1704.4</ele>
        <time>2021-09-19T09:57:44Z</time>
      </trkpt>
      <trkpt lat="42.74398" lon="1.54031">
        <ele>1704.6</ele>
        <time>2021-09-19T09:57:47Z</time>
      </trkpt>
      <trkpt lat="42.74399" lon="1.54029">
        <ele>1704.6</ele>
        <time>2021-09-19T09:57:50Z</time>
      </trkpt>
      <trkpt lat="42.744" lon="1.54028">
        <ele>1705.2</ele>
        <time>2021-09-19T09:57:51Z</time>
      </trkpt>
      <trkpt lat="42.74401" lon="1.54026">
        <ele>1705.8</ele>
        <time>2021-09-19T09:57:54Z</time>
      </trkpt>
      <trkpt lat="42.74402" lon="1.54023">
        <ele>1706.4</ele>
        <time>2021-09-19T09:58:01Z</time>
      </trkpt>
      <trkpt lat="42.74404" lon="1.54019">
        <ele>1707</ele>
        <time>2021-09-19T09:58:05Z</time>
      </trkpt>
      <trkpt lat="42.74404" lon="1.54017">
        <ele>1707.2</ele>
        <time>2021-09-19T09:58:06Z</time>
      </trkpt>
      <trkpt lat="42.74405" lon="1.54015">
        <ele>1707.4</ele>
        <time>2021-09-19T09:58:09Z</time>
      </trkpt>
      <trkpt lat="42.74405" lon="1.54012">
        <ele>1708</ele>
        <time>2021-09-19T09:58:13Z</time>
      </trkpt>
      <trkpt lat="42.74405" lon="1.54009">
        <ele>1708.6</ele>
        <time>2021-09-19T09:58:16Z</time>
      </trkpt>
      <trkpt lat="42.74406" lon="1.54007">
        <ele>1709</ele>
        <time>2021-09-19T09:58:18Z</time>
      </trkpt>
      <trkpt lat="42.74409" lon="1.54006">
        <ele>1709.6</ele>
        <time>2021-09-19T09:58:24Z</time>
      </trkpt>
      <trkpt lat="42.74409" lon="1.54006">
        <ele>1709.8</ele>
        <time>2021-09-19T09:58:26Z</time>
      </trkpt>
      <trkpt lat="42.74412" lon="1.54001">
        <ele>1710.4</ele>
        <time>2021-09-19T09:58:32Z</time>
      </trkpt>
      <trkpt lat="42.74412" lon="1.53999">
        <ele>1710.8</ele>
        <time>2021-09-19T09:58:35Z</time>
      </trkpt>
      <trkpt lat="42.74412" lon="1.53995">
        <ele>1711.6</ele>
        <time>2021-09-19T09:58:40Z</time>
      </trkpt>
      <trkpt lat="42.74411" lon="1.53993">
        <ele>1712</ele>
        <time>2021-09-19T09:58:42Z</time>
      </trkpt>
      <trkpt lat="42.7441" lon="1.53989">
        <ele>1712.2</ele>
        <time>2021-09-19T09:58:45Z</time>
      </trkpt>
      <trkpt lat="42.74409" lon="1.53988">
        <ele>1712.4</ele>
        <time>2021-09-19T09:58:46Z</time>
      </trkpt>
      <trkpt lat="42.74409" lon="1.53986">
        <ele>1712.6</ele>
        <time>2021-09-19T09:58:48Z</time>
      </trkpt>
      <trkpt lat="42.74409" lon="1.53984">
        <ele>1713.2</ele>
        <time>2021-09-19T09:58:50Z</time>
      </trkpt>
      <trkpt lat="42.74407" lon="1.53983">
        <ele>1713.8</ele>
        <time>2021-09-19T09:58:54Z</time>
      </trkpt>
      <trkpt lat="42.74406" lon="1.53982">
        <ele>1713.8</ele>
        <time>2021-09-19T09:58:57Z</time>
      </trkpt>
      <trkpt lat="42.74403" lon="1.53984">
        <ele>1714</ele>
        <time>2021-09-19T09:59:00Z</time>
      </trkpt>
      <trkpt lat="42.74401" lon="1.53985">
        <ele>1714.2</ele>
        <time>2021-09-19T09:59:02Z</time>
      </trkpt>
      <trkpt lat="42.744" lon="1.53986">
        <ele>1714.6</ele>
        <time>2021-09-19T09:59:04Z</time>
      </trkpt>
      <trkpt lat="42.74397" lon="1.53987">
        <ele>1715.2</ele>
        <time>2021-09-19T09:59:09Z</time>
      </trkpt>
      <trkpt lat="42.74397" lon="1.53987">
        <ele>1715.2</ele>
        <time>2021-09-19T09:59:10Z</time>
      </trkpt>
      <trkpt lat="42.74395" lon="1.53986">
        <ele>1716</ele>
        <time>2021-09-19T09:59:13Z</time>
      </trkpt>
      <trkpt lat="42.74394" lon="1.53987">
        <ele>1716.4</ele>
        <time>2021-09-19T09:59:15Z</time>
      </trkpt>
      <trkpt lat="42.7439" lon="1.53987">
        <ele>1717</ele>
        <time>2021-09-19T09:59:21Z</time>
      </trkpt>
      <trkpt lat="42.7439" lon="1.53987">
        <ele>1717.2</ele>
        <time>2021-09-19T09:59:22Z</time>
      </trkpt>
      <trkpt lat="42.74389" lon="1.53987">
        <ele>1717.4</ele>
        <time>2021-09-19T09:59:23Z</time>
      </trkpt>
      <trkpt lat="42.74386" lon="1.53988">
        <ele>1718.8</ele>
        <time>2021-09-19T09:59:29Z</time>
      </trkpt>
      <trkpt lat="42.74384" lon="1.53989">
        <ele>1719.2</ele>
        <time>2021-09-19T09:59:32Z</time>
      </trkpt>
      <trkpt lat="42.74382" lon="1.53989">
        <ele>1719.6</ele>
        <time>2021-09-19T09:59:35Z</time>
      </trkpt>
      <trkpt lat="42.7438" lon="1.53988">
        <ele>1720</ele>
        <time>2021-09-19T09:59:38Z</time>
      </trkpt>
      <trkpt lat="42.74377" lon="1.53988">
        <ele>1720.8</ele>
        <time>2021-09-19T09:59:42Z</time>
      </trkpt>
      <trkpt lat="42.74375" lon="1.53988">
        <ele>1721</ele>
        <time>2021-09-19T09:59:45Z</time>
      </trkpt>
      <trkpt lat="42.74373" lon="1.53988">
        <ele>1721.8</ele>
        <time>2021-09-19T09:59:48Z</time>
      </trkpt>
      <trkpt lat="42.74373" lon="1.53988">
        <ele>1722.2</ele>
        <time>2021-09-19T09:59:50Z</time>
      </trkpt>
      <trkpt lat="42.74371" lon="1.53988">
        <ele>1722.6</ele>
        <time>2021-09-19T09:59:53Z</time>
      </trkpt>
      <trkpt lat="42.74369" lon="1.53988">
        <ele>1722.8</ele>
        <time>2021-09-19T09:59:56Z</time>
      </trkpt>
      <trkpt lat="42.74369" lon="1.53988">
        <ele>1723</ele>
        <time>2021-09-19T09:59:57Z</time>
      </trkpt>
      <trkpt lat="42.74368" lon="1.53988">
        <ele>1723</ele>
        <time>2021-09-19T09:59:58Z</time>
      </trkpt>
      <trkpt lat="42.74368" lon="1.53988">
        <ele>1723.2</ele>
        <time>2021-09-19T09:59:59Z</time>
      </trkpt>
      <trkpt lat="42.74364" lon="1.53987">
        <ele>1724.2</ele>
        <time>2021-09-19T10:00:03Z</time>
      </trkpt>
      <trkpt lat="42.74363" lon="1.53986">
        <ele>1724.2</ele>
        <time>2021-09-19T10:00:05Z</time>
      </trkpt>
      <trkpt lat="42.74361" lon="1.53985">
        <ele>1724.4</ele>
        <time>2021-09-19T10:00:08Z</time>
      </trkpt>
      <trkpt lat="42.74359" lon="1.53986">
        <ele>1725</ele>
        <time>2021-09-19T10:00:11Z</time>
      </trkpt>
      <trkpt lat="42.74357" lon="1.53986">
        <ele>1725.2</ele>
        <time>2021-09-19T10:00:16Z</time>
      </trkpt>
      <trkpt lat="42.74356" lon="1.53986">
        <ele>1725.2</ele>
        <time>2021-09-19T10:00:17Z</time>
      </trkpt>
      <trkpt lat="42.74354" lon="1.53987">
        <ele>1726.6</ele>
        <time>2021-09-19T10:00:21Z</time>
      </trkpt>
      <trkpt lat="42.74353" lon="1.53987">
        <ele>1727.2</ele>
        <time>2021-09-19T10:00:24Z</time>
      </trkpt>
      <trkpt lat="42.7435" lon="1.53987">
        <ele>1727.6</ele>
        <time>2021-09-19T10:00:29Z</time>
      </trkpt>
      <trkpt lat="42.74349" lon="1.53987">
        <ele>1727.8</ele>
        <time>2021-09-19T10:00:30Z</time>
      </trkpt>
      <trkpt lat="42.74347" lon="1.53987">
        <ele>1728.8</ele>
        <time>2021-09-19T10:00:34Z</time>
      </trkpt>
      <trkpt lat="42.74345" lon="1.53988">
        <ele>1729</ele>
        <time>2021-09-19T10:00:36Z</time>
      </trkpt>
      <trkpt lat="42.74344" lon="1.53988">
        <ele>1729</ele>
        <time>2021-09-19T10:00:38Z</time>
      </trkpt>
      <trkpt lat="42.74343" lon="1.53988">
        <ele>1729.2</ele>
        <time>2021-09-19T10:00:40Z</time>
      </trkpt>
      <trkpt lat="42.74341" lon="1.53988">
        <ele>1730</ele>
        <time>2021-09-19T10:00:44Z</time>
      </trkpt>
      <trkpt lat="42.74337" lon="1.53988">
        <ele>1731</ele>
        <time>2021-09-19T10:00:49Z</time>
      </trkpt>
      <trkpt lat="42.74336" lon="1.53988">
        <ele>1731.6</ele>
        <time>2021-09-19T10:00:51Z</time>
      </trkpt>
      <trkpt lat="42.74334" lon="1.53986">
        <ele>1732.2</ele>
        <time>2021-09-19T10:00:56Z</time>
      </trkpt>
      <trkpt lat="42.74333" lon="1.53985">
        <ele>1732.4</ele>
        <time>2021-09-19T10:00:58Z</time>
      </trkpt>
      <trkpt lat="42.74329" lon="1.53983">
        <ele>1733.6</ele>
        <time>2021-09-19T10:01:04Z</time>
      </trkpt>
      <trkpt lat="42.74329" lon="1.53983">
        <ele>1733.2</ele>
        <time>2021-09-19T10:01:05Z</time>
      </trkpt>
      <trkpt lat="42.74329" lon="1.53982">
        <ele>1733.8</ele>
        <time>2021-09-19T10:01:06Z</time>
      </trkpt>
      <trkpt lat="42.74324" lon="1.53982">
        <ele>1733.6</ele>
        <time>2021-09-19T10:01:13Z</time>
      </trkpt>
      <trkpt lat="42.74324" lon="1.53983">
        <ele>1733.6</ele>
        <time>2021-09-19T10:01:15Z</time>
      </trkpt>
      <trkpt lat="42.74323" lon="1.53984">
        <ele>1733.4</ele>
        <time>2021-09-19T10:01:18Z</time>
      </trkpt>
      <trkpt lat="42.74323" lon="1.53985">
        <ele>1733.4</ele>
        <time>2021-09-19T10:01:19Z</time>
      </trkpt>
      <trkpt lat="42.74321" lon="1.53985">
        <ele>1733.4</ele>
        <time>2021-09-19T10:01:21Z</time>
      </trkpt>
      <trkpt lat="42.7432" lon="1.53985">
        <ele>1733.8</ele>
        <time>2021-09-19T10:01:23Z</time>
      </trkpt>
      <trkpt lat="42.74318" lon="1.53985">
        <ele>1734.2</ele>
        <time>2021-09-19T10:01:25Z</time>
      </trkpt>
      <trkpt lat="42.74317" lon="1.53985">
        <ele>1734.4</ele>
        <time>2021-09-19T10:01:26Z</time>
      </trkpt>
      <trkpt lat="42.74316" lon="1.53984">
        <ele>1734.6</ele>
        <time>2021-09-19T10:01:28Z</time>
      </trkpt>
      <trkpt lat="42.74313" lon="1.53981">
        <ele>1735</ele>
        <time>2021-09-19T10:01:33Z</time>
      </trkpt>
      <trkpt lat="42.74312" lon="1.5398">
        <ele>1735.4</ele>
        <time>2021-09-19T10:01:35Z</time>
      </trkpt>
      <trkpt lat="42.74311" lon="1.53979">
        <ele>1735.6</ele>
        <time>2021-09-19T10:01:37Z</time>
      </trkpt>
      <trkpt lat="42.74308" lon="1.53978">
        <ele>1736.2</ele>
        <time>2021-09-19T10:01:40Z</time>
      </trkpt>
      <trkpt lat="42.74305" lon="1.53978">
        <ele>1736.6</ele>
        <time>2021-09-19T10:01:44Z</time>
      </trkpt>
      <trkpt lat="42.74304" lon="1.53978">
        <ele>1736.8</ele>
        <time>2021-09-19T10:01:45Z</time>
      </trkpt>
      <trkpt lat="42.743" lon="1.53977">
        <ele>1737.6</ele>
        <time>2021-09-19T10:01:51Z</time>
      </trkpt>
      <trkpt lat="42.74299" lon="1.53977">
        <ele>1737.8</ele>
        <time>2021-09-19T10:01:52Z</time>
      </trkpt>
      <trkpt lat="42.74299" lon="1.53976">
        <ele>1737.8</ele>
        <time>2021-09-19T10:01:53Z</time>
      </trkpt>
      <trkpt lat="42.74297" lon="1.53974">
        <ele>1738.2</ele>
        <time>2021-09-19T10:01:55Z</time>
      </trkpt>
      <trkpt lat="42.74297" lon="1.53973">
        <ele>1738.6</ele>
        <time>2021-09-19T10:01:57Z</time>
      </trkpt>
      <trkpt lat="42.74295" lon="1.53973">
        <ele>1739.2</ele>
        <time>2021-09-19T10:02:00Z</time>
      </trkpt>
      <trkpt lat="42.74292" lon="1.53974">
        <ele>1740.2</ele>
        <time>2021-09-19T10:02:03Z</time>
      </trkpt>
      <trkpt lat="42.74292" lon="1.53974">
        <ele>1740.4</ele>
        <time>2021-09-19T10:02:04Z</time>
      </trkpt>
      <trkpt lat="42.74291" lon="1.53974">
        <ele>1740.4</ele>
        <time>2021-09-19T10:02:06Z</time>
      </trkpt>
      <trkpt lat="42.74288" lon="1.53973">
        <ele>1740.6</ele>
        <time>2021-09-19T10:02:10Z</time>
      </trkpt>
      <trkpt lat="42.74285" lon="1.53972">
        <ele>1741.6</ele>
        <time>2021-09-19T10:02:14Z</time>
      </trkpt>
      <trkpt lat="42.74282" lon="1.53971">
        <ele>1742.6</ele>
        <time>2021-09-19T10:02:18Z</time>
      </trkpt>
      <trkpt lat="42.74281" lon="1.5397">
        <ele>1743.2</ele>
        <time>2021-09-19T10:02:22Z</time>
      </trkpt>
      <trkpt lat="42.7428" lon="1.53966">
        <ele>1743.6</ele>
        <time>2021-09-19T10:02:26Z</time>
      </trkpt>
      <trkpt lat="42.74279" lon="1.53964">
        <ele>1743.8</ele>
        <time>2021-09-19T10:02:29Z</time>
      </trkpt>
      <trkpt lat="42.74279" lon="1.53962">
        <ele>1744.4</ele>
        <time>2021-09-19T10:02:33Z</time>
      </trkpt>
      <trkpt lat="42.74279" lon="1.5396">
        <ele>1744.4</ele>
        <time>2021-09-19T10:02:35Z</time>
      </trkpt>
      <trkpt lat="42.74279" lon="1.53957">
        <ele>1744.8</ele>
        <time>2021-09-19T10:02:39Z</time>
      </trkpt>
      <trkpt lat="42.74281" lon="1.53955">
        <ele>1745</ele>
        <time>2021-09-19T10:02:42Z</time>
      </trkpt>
      <trkpt lat="42.74282" lon="1.53955">
        <ele>1745.2</ele>
        <time>2021-09-19T10:02:44Z</time>
      </trkpt>
      <trkpt lat="42.74284" lon="1.53955">
        <ele>1745.8</ele>
        <time>2021-09-19T10:02:47Z</time>
      </trkpt>
      <trkpt lat="42.74286" lon="1.53954">
        <ele>1746.8</ele>
        <time>2021-09-19T10:02:50Z</time>
      </trkpt>
      <trkpt lat="42.74287" lon="1.53954">
        <ele>1747</ele>
        <time>2021-09-19T10:02:51Z</time>
      </trkpt>
      <trkpt lat="42.74291" lon="1.53953">
        <ele>1748.2</ele>
        <time>2021-09-19T10:02:58Z</time>
      </trkpt>
      <trkpt lat="42.74292" lon="1.53952">
        <ele>1748.4</ele>
        <time>2021-09-19T10:02:59Z</time>
      </trkpt>
      <trkpt lat="42.74292" lon="1.53952">
        <ele>1748.4</ele>
        <time>2021-09-19T10:03:00Z</time>
      </trkpt>
      <trkpt lat="42.74293" lon="1.53949">
        <ele>1749.4</ele>
        <time>2021-09-19T10:03:05Z</time>
      </trkpt>
      <trkpt lat="42.74295" lon="1.53948">
        <ele>1750.6</ele>
        <time>2021-09-19T10:03:10Z</time>
      </trkpt>
      <trkpt lat="42.74297" lon="1.53948">
        <ele>1750.8</ele>
        <time>2021-09-19T10:03:13Z</time>
      </trkpt>
      <trkpt lat="42.74301" lon="1.53946">
        <ele>1751.6</ele>
        <time>2021-09-19T10:03:19Z</time>
      </trkpt>
      <trkpt lat="42.74303" lon="1.53945">
        <ele>1751.8</ele>
        <time>2021-09-19T10:03:22Z</time>
      </trkpt>
      <trkpt lat="42.74305" lon="1.53941">
        <ele>1752.6</ele>
        <time>2021-09-19T10:03:28Z</time>
      </trkpt>
      <trkpt lat="42.74306" lon="1.5394">
        <ele>1752.8</ele>
        <time>2021-09-19T10:03:29Z</time>
      </trkpt>
      <trkpt lat="42.74309" lon="1.53937">
        <ele>1753.8</ele>
        <time>2021-09-19T10:03:36Z</time>
      </trkpt>
      <trkpt lat="42.7431" lon="1.53936">
        <ele>1754</ele>
        <time>2021-09-19T10:03:37Z</time>
      </trkpt>
      <trkpt lat="42.74312" lon="1.53936">
        <ele>1754.4</ele>
        <time>2021-09-19T10:03:39Z</time>
      </trkpt>
      <trkpt lat="42.74317" lon="1.53933">
        <ele>1754.6</ele>
        <time>2021-09-19T10:03:45Z</time>
      </trkpt>
      <trkpt lat="42.74317" lon="1.53932">
        <ele>1755.2</ele>
        <time>2021-09-19T10:03:47Z</time>
      </trkpt>
      <trkpt lat="42.7432" lon="1.53927">
        <ele>1756</ele>
        <time>2021-09-19T10:03:53Z</time>
      </trkpt>
      <trkpt lat="42.74321" lon="1.53926">
        <ele>1756.2</ele>
        <time>2021-09-19T10:03:55Z</time>
      </trkpt>
      <trkpt lat="42.74324" lon="1.53924">
        <ele>1757.2</ele>
        <time>2021-09-19T10:04:00Z</time>
      </trkpt>
      <trkpt lat="42.74326" lon="1.53924">
        <ele>1757.2</ele>
        <time>2021-09-19T10:04:02Z</time>
      </trkpt>
      <trkpt lat="42.74326" lon="1.53923">
        <ele>1757.4</ele>
        <time>2021-09-19T10:04:03Z</time>
      </trkpt>
      <trkpt lat="42.74331" lon="1.53921">
        <ele>1758.2</ele>
        <time>2021-09-19T10:04:09Z</time>
      </trkpt>
      <trkpt lat="42.74332" lon="1.53921">
        <ele>1758.4</ele>
        <time>2021-09-19T10:04:10Z</time>
      </trkpt>
      <trkpt lat="42.74333" lon="1.53919">
        <ele>1758.4</ele>
        <time>2021-09-19T10:04:13Z</time>
      </trkpt>
      <trkpt lat="42.74333" lon="1.53918">
        <ele>1758.8</ele>
        <time>2021-09-19T10:04:15Z</time>
      </trkpt>
      <trkpt lat="42.74335" lon="1.53916">
        <ele>1759.6</ele>
        <time>2021-09-19T10:04:18Z</time>
      </trkpt>
      <trkpt lat="42.74336" lon="1.53913">
        <ele>1759.8</ele>
        <time>2021-09-19T10:04:22Z</time>
      </trkpt>
      <trkpt lat="42.74339" lon="1.53907">
        <ele>1760.6</ele>
        <time>2021-09-19T10:04:28Z</time>
      </trkpt>
      <trkpt lat="42.7434" lon="1.53907">
        <ele>1760.6</ele>
        <time>2021-09-19T10:04:29Z</time>
      </trkpt>
      <trkpt lat="42.7434" lon="1.53906">
        <ele>1760.6</ele>
        <time>2021-09-19T10:04:30Z</time>
      </trkpt>
      <trkpt lat="42.7434" lon="1.53906">
        <ele>1760.8</ele>
        <time>2021-09-19T10:04:31Z</time>
      </trkpt>
      <trkpt lat="42.74342" lon="1.53904">
        <ele>1761.2</ele>
        <time>2021-09-19T10:04:35Z</time>
      </trkpt>
      <trkpt lat="42.74344" lon="1.539">
        <ele>1761.8</ele>
        <time>2021-09-19T10:04:39Z</time>
      </trkpt>
      <trkpt lat="42.74346" lon="1.53895">
        <ele>1762.4</ele>
        <time>2021-09-19T10:04:44Z</time>
      </trkpt>
      <trkpt lat="42.74349" lon="1.53889">
        <ele>1763</ele>
        <time>2021-09-19T10:04:50Z</time>
      </trkpt>
      <trkpt lat="42.74349" lon="1.53886">
        <ele>1763.2</ele>
        <time>2021-09-19T10:04:53Z</time>
      </trkpt>
      <trkpt lat="42.74352" lon="1.53876">
        <ele>1763.8</ele>
        <time>2021-09-19T10:05:02Z</time>
      </trkpt>
      <trkpt lat="42.74352" lon="1.53875">
        <ele>1764</ele>
        <time>2021-09-19T10:05:03Z</time>
      </trkpt>
      <trkpt lat="42.74357" lon="1.53867">
        <ele>1765.2</ele>
        <time>2021-09-19T10:05:14Z</time>
      </trkpt>
      <trkpt lat="42.7436" lon="1.53865">
        <ele>1765.8</ele>
        <time>2021-09-19T10:05:21Z</time>
      </trkpt>
      <trkpt lat="42.74361" lon="1.53865">
        <ele>1765.6</ele>
        <time>2021-09-19T10:05:24Z</time>
      </trkpt>
      <trkpt lat="42.74361" lon="1.53863">
        <ele>1765.8</ele>
        <time>2021-09-19T10:05:26Z</time>
      </trkpt>
      <trkpt lat="42.74362" lon="1.53861">
        <ele>1766.2</ele>
        <time>2021-09-19T10:05:28Z</time>
      </trkpt>
      <trkpt lat="42.74364" lon="1.53857">
        <ele>1766.6</ele>
        <time>2021-09-19T10:05:34Z</time>
      </trkpt>
      <trkpt lat="42.74366" lon="1.53853">
        <ele>1767.2</ele>
        <time>2021-09-19T10:05:39Z</time>
      </trkpt>
      <trkpt lat="42.74367" lon="1.53852">
        <ele>1767.4</ele>
        <time>2021-09-19T10:05:40Z</time>
      </trkpt>
      <trkpt lat="42.74368" lon="1.53849">
        <ele>1768</ele>
        <time>2021-09-19T10:05:43Z</time>
      </trkpt>
      <trkpt lat="42.74368" lon="1.53846">
        <ele>1768.2</ele>
        <time>2021-09-19T10:05:46Z</time>
      </trkpt>
      <trkpt lat="42.74369" lon="1.53845">
        <ele>1768.4</ele>
        <time>2021-09-19T10:05:47Z</time>
      </trkpt>
      <trkpt lat="42.7437" lon="1.53843">
        <ele>1768.8</ele>
        <time>2021-09-19T10:05:50Z</time>
      </trkpt>
      <trkpt lat="42.7437" lon="1.53842">
        <ele>1769</ele>
        <time>2021-09-19T10:05:51Z</time>
      </trkpt>
      <trkpt lat="42.74371" lon="1.5384">
        <ele>1769.2</ele>
        <time>2021-09-19T10:05:53Z</time>
      </trkpt>
      <trkpt lat="42.74372" lon="1.53838">
        <ele>1769.2</ele>
        <time>2021-09-19T10:05:56Z</time>
      </trkpt>
      <trkpt lat="42.74372" lon="1.53837">
        <ele>1769.4</ele>
        <time>2021-09-19T10:05:57Z</time>
      </trkpt>
      <trkpt lat="42.74373" lon="1.53835">
        <ele>1769.6</ele>
        <time>2021-09-19T10:05:59Z</time>
      </trkpt>
      <trkpt lat="42.74374" lon="1.53832">
        <ele>1770.6</ele>
        <time>2021-09-19T10:06:03Z</time>
      </trkpt>
      <trkpt lat="42.74374" lon="1.53831">
        <ele>1770.8</ele>
        <time>2021-09-19T10:06:04Z</time>
      </trkpt>
      <trkpt lat="42.74376" lon="1.53823">
        <ele>1771.6</ele>
        <time>2021-09-19T10:06:11Z</time>
      </trkpt>
      <trkpt lat="42.74376" lon="1.53823">
        <ele>1771.8</ele>
        <time>2021-09-19T10:06:12Z</time>
      </trkpt>
      <trkpt lat="42.74379" lon="1.53814">
        <ele>1772.6</ele>
        <time>2021-09-19T10:06:23Z</time>
      </trkpt>
      <trkpt lat="42.7438" lon="1.53812">
        <ele>1773</ele>
        <time>2021-09-19T10:06:28Z</time>
      </trkpt>
      <trkpt lat="42.74381" lon="1.53812">
        <ele>1773.2</ele>
        <time>2021-09-19T10:06:29Z</time>
      </trkpt>
      <trkpt lat="42.74381" lon="1.53811">
        <ele>1773.2</ele>
        <time>2021-09-19T10:06:30Z</time>
      </trkpt>
      <trkpt lat="42.74381" lon="1.53808">
        <ele>1773.6</ele>
        <time>2021-09-19T10:06:34Z</time>
      </trkpt>
      <trkpt lat="42.74381" lon="1.53807">
        <ele>1773.8</ele>
        <time>2021-09-19T10:06:36Z</time>
      </trkpt>
      <trkpt lat="42.74383" lon="1.53801">
        <ele>1774.6</ele>
        <time>2021-09-19T10:06:44Z</time>
      </trkpt>
      <trkpt lat="42.74384" lon="1.538">
        <ele>1775</ele>
        <time>2021-09-19T10:06:45Z</time>
      </trkpt>
      <trkpt lat="42.74385" lon="1.53795">
        <ele>1775.8</ele>
        <time>2021-09-19T10:06:51Z</time>
      </trkpt>
      <trkpt lat="42.74386" lon="1.53794">
        <ele>1776.4</ele>
        <time>2021-09-19T10:06:53Z</time>
      </trkpt>
      <trkpt lat="42.74389" lon="1.53788">
        <ele>1776.8</ele>
        <time>2021-09-19T10:06:59Z</time>
      </trkpt>
      <trkpt lat="42.74391" lon="1.53785">
        <ele>1777.2</ele>
        <time>2021-09-19T10:07:04Z</time>
      </trkpt>
      <trkpt lat="42.74392" lon="1.53782">
        <ele>1777.4</ele>
        <time>2021-09-19T10:07:07Z</time>
      </trkpt>
      <trkpt lat="42.74393" lon="1.53778">
        <ele>1777.8</ele>
        <time>2021-09-19T10:07:11Z</time>
      </trkpt>
      <trkpt lat="42.74395" lon="1.53775">
        <ele>1778.2</ele>
        <time>2021-09-19T10:07:16Z</time>
      </trkpt>
      <trkpt lat="42.74396" lon="1.53775">
        <ele>1778</ele>
        <time>2021-09-19T10:07:17Z</time>
      </trkpt>
      <trkpt lat="42.74398" lon="1.53774">
        <ele>1778.6</ele>
        <time>2021-09-19T10:07:22Z</time>
      </trkpt>
      <trkpt lat="42.74399" lon="1.53771">
        <ele>1779.2</ele>
        <time>2021-09-19T10:07:25Z</time>
      </trkpt>
      <trkpt lat="42.74399" lon="1.5377">
        <ele>1779.4</ele>
        <time>2021-09-19T10:07:26Z</time>
      </trkpt>
      <trkpt lat="42.744" lon="1.53768">
        <ele>1779.6</ele>
        <time>2021-09-19T10:07:27Z</time>
      </trkpt>
      <trkpt lat="42.74402" lon="1.53762">
        <ele>1780.2</ele>
        <time>2021-09-19T10:07:32Z</time>
      </trkpt>
      <trkpt lat="42.74402" lon="1.53761">
        <ele>1780.2</ele>
        <time>2021-09-19T10:07:33Z</time>
      </trkpt>
      <trkpt lat="42.74404" lon="1.53759">
        <ele>1780.6</ele>
        <time>2021-09-19T10:07:36Z</time>
      </trkpt>
      <trkpt lat="42.74405" lon="1.53753">
        <ele>1781.6</ele>
        <time>2021-09-19T10:07:42Z</time>
      </trkpt>
      <trkpt lat="42.74406" lon="1.53751">
        <ele>1781.8</ele>
        <time>2021-09-19T10:07:45Z</time>
      </trkpt>
      <trkpt lat="42.74407" lon="1.53748">
        <ele>1782.6</ele>
        <time>2021-09-19T10:07:50Z</time>
      </trkpt>
      <trkpt lat="42.74407" lon="1.53746">
        <ele>1782.6</ele>
        <time>2021-09-19T10:07:52Z</time>
      </trkpt>
      <trkpt lat="42.74408" lon="1.53745">
        <ele>1783</ele>
        <time>2021-09-19T10:07:54Z</time>
      </trkpt>
      <trkpt lat="42.74409" lon="1.5374">
        <ele>1783.4</ele>
        <time>2021-09-19T10:07:59Z</time>
      </trkpt>
      <trkpt lat="42.7441" lon="1.53737">
        <ele>1784</ele>
        <time>2021-09-19T10:08:03Z</time>
      </trkpt>
      <trkpt lat="42.74413" lon="1.53731">
        <ele>1784.8</ele>
        <time>2021-09-19T10:08:09Z</time>
      </trkpt>
      <trkpt lat="42.74413" lon="1.53731">
        <ele>1785.2</ele>
        <time>2021-09-19T10:08:10Z</time>
      </trkpt>
      <trkpt lat="42.74416" lon="1.53725">
        <ele>1786.2</ele>
        <time>2021-09-19T10:08:19Z</time>
      </trkpt>
      <trkpt lat="42.74419" lon="1.53717">
        <ele>1787.6</ele>
        <time>2021-09-19T10:08:27Z</time>
      </trkpt>
      <trkpt lat="42.74419" lon="1.53717">
        <ele>1787.8</ele>
        <time>2021-09-19T10:08:28Z</time>
      </trkpt>
      <trkpt lat="42.74421" lon="1.53714">
        <ele>1788.8</ele>
        <time>2021-09-19T10:08:35Z</time>
      </trkpt>
      <trkpt lat="42.74422" lon="1.53713">
        <ele>1789</ele>
        <time>2021-09-19T10:08:36Z</time>
      </trkpt>
      <trkpt lat="42.74422" lon="1.53712">
        <ele>1789.2</ele>
        <time>2021-09-19T10:08:38Z</time>
      </trkpt>
      <trkpt lat="42.74424" lon="1.53708">
        <ele>1789.4</ele>
        <time>2021-09-19T10:08:42Z</time>
      </trkpt>
      <trkpt lat="42.74425" lon="1.53707">
        <ele>1789.8</ele>
        <time>2021-09-19T10:08:44Z</time>
      </trkpt>
      <trkpt lat="42.74425" lon="1.53706">
        <ele>1790</ele>
        <time>2021-09-19T10:08:45Z</time>
      </trkpt>
      <trkpt lat="42.74426" lon="1.53704">
        <ele>1790.4</ele>
        <time>2021-09-19T10:08:47Z</time>
      </trkpt>
      <trkpt lat="42.74427" lon="1.53704">
        <ele>1790.6</ele>
        <time>2021-09-19T10:08:49Z</time>
      </trkpt>
      <trkpt lat="42.74428" lon="1.53702">
        <ele>1791</ele>
        <time>2021-09-19T10:08:52Z</time>
      </trkpt>
      <trkpt lat="42.74429" lon="1.53701">
        <ele>1791.2</ele>
        <time>2021-09-19T10:08:54Z</time>
      </trkpt>
      <trkpt lat="42.74429" lon="1.53698">
        <ele>1791.8</ele>
        <time>2021-09-19T10:08:58Z</time>
      </trkpt>
      <trkpt lat="42.74429" lon="1.53694">
        <ele>1792</ele>
        <time>2021-09-19T10:09:02Z</time>
      </trkpt>
      <trkpt lat="42.7443" lon="1.53692">
        <ele>1792.2</ele>
        <time>2021-09-19T10:09:04Z</time>
      </trkpt>
      <trkpt lat="42.7443" lon="1.53691">
        <ele>1792.2</ele>
        <time>2021-09-19T10:09:05Z</time>
      </trkpt>
      <trkpt lat="42.74432" lon="1.53686">
        <ele>1793</ele>
        <time>2021-09-19T10:09:12Z</time>
      </trkpt>
      <trkpt lat="42.74432" lon="1.53683">
        <ele>1793.4</ele>
        <time>2021-09-19T10:09:14Z</time>
      </trkpt>
      <trkpt lat="42.74435" lon="1.53677">
        <ele>1793.8</ele>
        <time>2021-09-19T10:09:19Z</time>
      </trkpt>
      <trkpt lat="42.74435" lon="1.53671">
        <ele>1794.4</ele>
        <time>2021-09-19T10:09:26Z</time>
      </trkpt>
      <trkpt lat="42.74436" lon="1.53669">
        <ele>1794.8</ele>
        <time>2021-09-19T10:09:28Z</time>
      </trkpt>
      <trkpt lat="42.74437" lon="1.53667">
        <ele>1795</ele>
        <time>2021-09-19T10:09:31Z</time>
      </trkpt>
      <trkpt lat="42.74437" lon="1.53665">
        <ele>1795.6</ele>
        <time>2021-09-19T10:09:34Z</time>
      </trkpt>
      <trkpt lat="42.74437" lon="1.53664">
        <ele>1795.8</ele>
        <time>2021-09-19T10:09:35Z</time>
      </trkpt>
      <trkpt lat="42.74438" lon="1.53663">
        <ele>1796</ele>
        <time>2021-09-19T10:09:36Z</time>
      </trkpt>
      <trkpt lat="42.74438" lon="1.53662">
        <ele>1796.2</ele>
        <time>2021-09-19T10:09:37Z</time>
      </trkpt>
      <trkpt lat="42.74439" lon="1.5366">
        <ele>1796.2</ele>
        <time>2021-09-19T10:09:40Z</time>
      </trkpt>
      <trkpt lat="42.7444" lon="1.53658">
        <ele>1796.8</ele>
        <time>2021-09-19T10:09:44Z</time>
      </trkpt>
      <trkpt lat="42.7444" lon="1.53657">
        <ele>1797</ele>
        <time>2021-09-19T10:09:45Z</time>
      </trkpt>
      <trkpt lat="42.74441" lon="1.53655">
        <ele>1797.2</ele>
        <time>2021-09-19T10:09:47Z</time>
      </trkpt>
      <trkpt lat="42.74441" lon="1.53652">
        <ele>1797.8</ele>
        <time>2021-09-19T10:09:50Z</time>
      </trkpt>
      <trkpt lat="42.74442" lon="1.53647">
        <ele>1798.2</ele>
        <time>2021-09-19T10:09:54Z</time>
      </trkpt>
      <trkpt lat="42.74443" lon="1.53645">
        <ele>1798.8</ele>
        <time>2021-09-19T10:09:57Z</time>
      </trkpt>
      <trkpt lat="42.74443" lon="1.53639">
        <ele>1799.2</ele>
        <time>2021-09-19T10:10:02Z</time>
      </trkpt>
      <trkpt lat="42.74443" lon="1.53636">
        <ele>1799.4</ele>
        <time>2021-09-19T10:10:04Z</time>
      </trkpt>
      <trkpt lat="42.74442" lon="1.53634">
        <ele>1799.8</ele>
        <time>2021-09-19T10:10:06Z</time>
      </trkpt>
      <trkpt lat="42.74442" lon="1.53632">
        <ele>1800.2</ele>
        <time>2021-09-19T10:10:07Z</time>
      </trkpt>
      <trkpt lat="42.74442" lon="1.53629">
        <ele>1800.8</ele>
        <time>2021-09-19T10:10:09Z</time>
      </trkpt>
      <trkpt lat="42.74442" lon="1.53627">
        <ele>1801.2</ele>
        <time>2021-09-19T10:10:11Z</time>
      </trkpt>
      <trkpt lat="42.74441" lon="1.53622">
        <ele>1802</ele>
        <time>2021-09-19T10:10:18Z</time>
      </trkpt>
      <trkpt lat="42.74441" lon="1.5362">
        <ele>1802</ele>
        <time>2021-09-19T10:10:21Z</time>
      </trkpt>
      <trkpt lat="42.74441" lon="1.53618">
        <ele>1802.4</ele>
        <time>2021-09-19T10:10:25Z</time>
      </trkpt>
      <trkpt lat="42.74441" lon="1.53616">
        <ele>1803</ele>
        <time>2021-09-19T10:10:27Z</time>
      </trkpt>
      <trkpt lat="42.74441" lon="1.53613">
        <ele>1803.6</ele>
        <time>2021-09-19T10:10:30Z</time>
      </trkpt>
      <trkpt lat="42.74441" lon="1.53608">
        <ele>1803.8</ele>
        <time>2021-09-19T10:10:34Z</time>
      </trkpt>
      <trkpt lat="42.74441" lon="1.53606">
        <ele>1804.2</ele>
        <time>2021-09-19T10:10:37Z</time>
      </trkpt>
      <trkpt lat="42.74441" lon="1.53604">
        <ele>1804.6</ele>
        <time>2021-09-19T10:10:39Z</time>
      </trkpt>
      <trkpt lat="42.74441" lon="1.53603">
        <ele>1804.8</ele>
        <time>2021-09-19T10:10:40Z</time>
      </trkpt>
      <trkpt lat="42.74441" lon="1.53595">
        <ele>1805.6</ele>
        <time>2021-09-19T10:10:46Z</time>
      </trkpt>
      <trkpt lat="42.74442" lon="1.53594">
        <ele>1805.8</ele>
        <time>2021-09-19T10:10:48Z</time>
      </trkpt>
      <trkpt lat="42.7444" lon="1.53589">
        <ele>1806.6</ele>
        <time>2021-09-19T10:10:54Z</time>
      </trkpt>
      <trkpt lat="42.7444" lon="1.53586">
        <ele>1806.6</ele>
        <time>2021-09-19T10:10:56Z</time>
      </trkpt>
      <trkpt lat="42.7444" lon="1.53584">
        <ele>1806.8</ele>
        <time>2021-09-19T10:10:58Z</time>
      </trkpt>
      <trkpt lat="42.7444" lon="1.5358">
        <ele>1807.4</ele>
        <time>2021-09-19T10:11:02Z</time>
      </trkpt>
      <trkpt lat="42.7444" lon="1.53579">
        <ele>1807.6</ele>
        <time>2021-09-19T10:11:04Z</time>
      </trkpt>
      <trkpt lat="42.74438" lon="1.53579">
        <ele>1807.8</ele>
        <time>2021-09-19T10:11:08Z</time>
      </trkpt>
      <trkpt lat="42.74438" lon="1.5358">
        <ele>1807.8</ele>
        <time>2021-09-19T10:11:11Z</time>
      </trkpt>
      <trkpt lat="42.74438" lon="1.53579">
        <ele>1808</ele>
        <time>2021-09-19T10:11:18Z</time>
      </trkpt>
      <trkpt lat="42.74438" lon="1.5358">
        <ele>1808</ele>
        <time>2021-09-19T10:11:23Z</time>
      </trkpt>
      <trkpt lat="42.74439" lon="1.53579">
        <ele>1808.2</ele>
        <time>2021-09-19T10:11:39Z</time>
      </trkpt>
      <trkpt lat="42.74438" lon="1.53574">
        <ele>1808.4</ele>
        <time>2021-09-19T10:11:45Z</time>
      </trkpt>
      <trkpt lat="42.74438" lon="1.5357">
        <ele>1809</ele>
        <time>2021-09-19T10:11:50Z</time>
      </trkpt>
      <trkpt lat="42.74437" lon="1.53566">
        <ele>1809.6</ele>
        <time>2021-09-19T10:11:54Z</time>
      </trkpt>
      <trkpt lat="42.74436" lon="1.53566">
        <ele>1810</ele>
        <time>2021-09-19T10:11:58Z</time>
      </trkpt>
      <trkpt lat="42.74436" lon="1.53566">
        <ele>1809.8</ele>
        <time>2021-09-19T10:12:02Z</time>
      </trkpt>
      <trkpt lat="42.74436" lon="1.53566">
        <ele>1809.8</ele>
        <time>2021-09-19T10:12:08Z</time>
      </trkpt>
      <trkpt lat="42.74436" lon="1.53564">
        <ele>1810.2</ele>
        <time>2021-09-19T10:12:18Z</time>
      </trkpt>
      <trkpt lat="42.74434" lon="1.53559">
        <ele>1811</ele>
        <time>2021-09-19T10:12:23Z</time>
      </trkpt>
      <trkpt lat="42.74434" lon="1.53557">
        <ele>1811.4</ele>
        <time>2021-09-19T10:12:25Z</time>
      </trkpt>
      <trkpt lat="42.74433" lon="1.53555">
        <ele>1812</ele>
        <time>2021-09-19T10:12:28Z</time>
      </trkpt>
      <trkpt lat="42.74432" lon="1.53554">
        <ele>1812.2</ele>
        <time>2021-09-19T10:12:29Z</time>
      </trkpt>
      <trkpt lat="42.74431" lon="1.53551">
        <ele>1812.8</ele>
        <time>2021-09-19T10:12:32Z</time>
      </trkpt>
      <trkpt lat="42.74431" lon="1.53549">
        <ele>1813</ele>
        <time>2021-09-19T10:12:34Z</time>
      </trkpt>
      <trkpt lat="42.7443" lon="1.53548">
        <ele>1813.2</ele>
        <time>2021-09-19T10:12:35Z</time>
      </trkpt>
      <trkpt lat="42.7443" lon="1.53547">
        <ele>1813.2</ele>
        <time>2021-09-19T10:12:36Z</time>
      </trkpt>
      <trkpt lat="42.74427" lon="1.53543">
        <ele>1813.4</ele>
        <time>2021-09-19T10:12:40Z</time>
      </trkpt>
      <trkpt lat="42.74425" lon="1.53537">
        <ele>1814.2</ele>
        <time>2021-09-19T10:12:45Z</time>
      </trkpt>
      <trkpt lat="42.74423" lon="1.53533">
        <ele>1814.4</ele>
        <time>2021-09-19T10:12:49Z</time>
      </trkpt>
      <trkpt lat="42.74422" lon="1.53532">
        <ele>1814.6</ele>
        <time>2021-09-19T10:12:50Z</time>
      </trkpt>
      <trkpt lat="42.74417" lon="1.53525">
        <ele>1815.2</ele>
        <time>2021-09-19T10:13:00Z</time>
      </trkpt>
      <trkpt lat="42.74413" lon="1.53516">
        <ele>1815.8</ele>
        <time>2021-09-19T10:13:08Z</time>
      </trkpt>
      <trkpt lat="42.74411" lon="1.53514">
        <ele>1816.2</ele>
        <time>2021-09-19T10:13:12Z</time>
      </trkpt>
      <trkpt lat="42.74408" lon="1.53512">
        <ele>1816.8</ele>
        <time>2021-09-19T10:13:15Z</time>
      </trkpt>
      <trkpt lat="42.74408" lon="1.53512">
        <ele>1817</ele>
        <time>2021-09-19T10:13:16Z</time>
      </trkpt>
      <trkpt lat="42.74407" lon="1.5351">
        <ele>1817.4</ele>
        <time>2021-09-19T10:13:18Z</time>
      </trkpt>
      <trkpt lat="42.74403" lon="1.53507">
        <ele>1818</ele>
        <time>2021-09-19T10:13:24Z</time>
      </trkpt>
      <trkpt lat="42.74401" lon="1.53506">
        <ele>1818.2</ele>
        <time>2021-09-19T10:13:31Z</time>
      </trkpt>
      <trkpt lat="42.744" lon="1.5351">
        <ele>1818.2</ele>
        <time>2021-09-19T10:13:37Z</time>
      </trkpt>
      <trkpt lat="42.744" lon="1.5351">
        <ele>1818.2</ele>
        <time>2021-09-19T10:13:39Z</time>
      </trkpt>
      <trkpt lat="42.744" lon="1.5351">
        <ele>1818.4</ele>
        <time>2021-09-19T10:13:40Z</time>
      </trkpt>
      <trkpt lat="42.744" lon="1.5351">
        <ele>1818.6</ele>
        <time>2021-09-19T10:13:41Z</time>
      </trkpt>
      <trkpt lat="42.744" lon="1.53509">
        <ele>1818.2</ele>
        <time>2021-09-19T10:13:50Z</time>
      </trkpt>
      <trkpt lat="42.74398" lon="1.53508">
        <ele>1818.4</ele>
        <time>2021-09-19T10:13:53Z</time>
      </trkpt>
      <trkpt lat="42.74392" lon="1.53507">
        <ele>1818.8</ele>
        <time>2021-09-19T10:13:59Z</time>
      </trkpt>
      <trkpt lat="42.7439" lon="1.53507">
        <ele>1819.2</ele>
        <time>2021-09-19T10:14:01Z</time>
      </trkpt>
      <trkpt lat="42.74386" lon="1.53505">
        <ele>1819.4</ele>
        <time>2021-09-19T10:14:08Z</time>
      </trkpt>
      <trkpt lat="42.74384" lon="1.53505">
        <ele>1820</ele>
        <time>2021-09-19T10:14:11Z</time>
      </trkpt>
      <trkpt lat="42.74381" lon="1.53506">
        <ele>1820.8</ele>
        <time>2021-09-19T10:14:16Z</time>
      </trkpt>
      <trkpt lat="42.74381" lon="1.53506">
        <ele>1821</ele>
        <time>2021-09-19T10:14:17Z</time>
      </trkpt>
      <trkpt lat="42.7438" lon="1.53507">
        <ele>1821</ele>
        <time>2021-09-19T10:14:18Z</time>
      </trkpt>
      <trkpt lat="42.74375" lon="1.53507">
        <ele>1821.8</ele>
        <time>2021-09-19T10:14:24Z</time>
      </trkpt>
      <trkpt lat="42.74374" lon="1.53507">
        <ele>1822</ele>
        <time>2021-09-19T10:14:26Z</time>
      </trkpt>
      <trkpt lat="42.74373" lon="1.53507">
        <ele>1822.6</ele>
        <time>2021-09-19T10:14:29Z</time>
      </trkpt>
      <trkpt lat="42.74372" lon="1.53508">
        <ele>1823.2</ele>
        <time>2021-09-19T10:14:32Z</time>
      </trkpt>
      <trkpt lat="42.7437" lon="1.53509">
        <ele>1824</ele>
        <time>2021-09-19T10:14:35Z</time>
      </trkpt>
      <trkpt lat="42.74368" lon="1.53509">
        <ele>1824.4</ele>
        <time>2021-09-19T10:14:37Z</time>
      </trkpt>
      <trkpt lat="42.74364" lon="1.5351">
        <ele>1825</ele>
        <time>2021-09-19T10:14:44Z</time>
      </trkpt>
      <trkpt lat="42.74362" lon="1.53511">
        <ele>1825.6</ele>
        <time>2021-09-19T10:14:49Z</time>
      </trkpt>
      <trkpt lat="42.74358" lon="1.53512">
        <ele>1826.4</ele>
        <time>2021-09-19T10:14:54Z</time>
      </trkpt>
      <trkpt lat="42.74357" lon="1.53512">
        <ele>1826.8</ele>
        <time>2021-09-19T10:14:55Z</time>
      </trkpt>
      <trkpt lat="42.74355" lon="1.53512">
        <ele>1827.6</ele>
        <time>2021-09-19T10:14:57Z</time>
      </trkpt>
      <trkpt lat="42.74353" lon="1.53511">
        <ele>1827.8</ele>
        <time>2021-09-19T10:15:00Z</time>
      </trkpt>
      <trkpt lat="42.74352" lon="1.53511">
        <ele>1828</ele>
        <time>2021-09-19T10:15:01Z</time>
      </trkpt>
      <trkpt lat="42.74351" lon="1.53512">
        <ele>1828.8</ele>
        <time>2021-09-19T10:15:07Z</time>
      </trkpt>
      <trkpt lat="42.7435" lon="1.53512">
        <ele>1828.8</ele>
        <time>2021-09-19T10:15:08Z</time>
      </trkpt>
      <trkpt lat="42.74347" lon="1.53512">
        <ele>1829.2</ele>
        <time>2021-09-19T10:15:14Z</time>
      </trkpt>
      <trkpt lat="42.74346" lon="1.53511">
        <ele>1829.8</ele>
        <time>2021-09-19T10:15:20Z</time>
      </trkpt>
      <trkpt lat="42.74344" lon="1.53512">
        <ele>1829.8</ele>
        <time>2021-09-19T10:15:25Z</time>
      </trkpt>
      <trkpt lat="42.74341" lon="1.53512">
        <ele>1830</ele>
        <time>2021-09-19T10:15:33Z</time>
      </trkpt>
      <trkpt lat="42.74339" lon="1.53511">
        <ele>1830.4</ele>
        <time>2021-09-19T10:15:35Z</time>
      </trkpt>
      <trkpt lat="42.74336" lon="1.53509">
        <ele>1830.6</ele>
        <time>2021-09-19T10:15:38Z</time>
      </trkpt>
      <trkpt lat="42.74335" lon="1.53509">
        <ele>1830.6</ele>
        <time>2021-09-19T10:15:39Z</time>
      </trkpt>
      <trkpt lat="42.74334" lon="1.53509">
        <ele>1830.6</ele>
        <time>2021-09-19T10:15:41Z</time>
      </trkpt>
      <trkpt lat="42.74333" lon="1.53508">
        <ele>1831.2</ele>
        <time>2021-09-19T10:15:42Z</time>
      </trkpt>
      <trkpt lat="42.74331" lon="1.53506">
        <ele>1832.4</ele>
        <time>2021-09-19T10:15:47Z</time>
      </trkpt>
      <trkpt lat="42.74331" lon="1.53506">
        <ele>1832.6</ele>
        <time>2021-09-19T10:15:48Z</time>
      </trkpt>
      <trkpt lat="42.74331" lon="1.53507">
        <ele>1833</ele>
        <time>2021-09-19T10:15:51Z</time>
      </trkpt>
      <trkpt lat="42.74332" lon="1.53507">
        <ele>1833.2</ele>
        <time>2021-09-19T10:15:54Z</time>
      </trkpt>
      <trkpt lat="42.74333" lon="1.53506">
        <ele>1833.4</ele>
        <time>2021-09-19T10:15:56Z</time>
      </trkpt>
      <trkpt lat="42.74334" lon="1.53506">
        <ele>1833.2</ele>
        <time>2021-09-19T10:16:01Z</time>
      </trkpt>
      <trkpt lat="42.74333" lon="1.53507">
        <ele>1833</ele>
        <time>2021-09-19T10:16:04Z</time>
      </trkpt>
      <trkpt lat="42.7433" lon="1.53507">
        <ele>1833.6</ele>
        <time>2021-09-19T10:16:11Z</time>
      </trkpt>
      <trkpt lat="42.74329" lon="1.53506">
        <ele>1833.8</ele>
        <time>2021-09-19T10:16:12Z</time>
      </trkpt>
      <trkpt lat="42.74324" lon="1.53503">
        <ele>1834.6</ele>
        <time>2021-09-19T10:16:17Z</time>
      </trkpt>
      <trkpt lat="42.74322" lon="1.53502">
        <ele>1835</ele>
        <time>2021-09-19T10:16:19Z</time>
      </trkpt>
      <trkpt lat="42.74322" lon="1.535">
        <ele>1835.6</ele>
        <time>2021-09-19T10:16:21Z</time>
      </trkpt>
      <trkpt lat="42.74321" lon="1.53498">
        <ele>1836</ele>
        <time>2021-09-19T10:16:23Z</time>
      </trkpt>
      <trkpt lat="42.74317" lon="1.53498">
        <ele>1836.6</ele>
        <time>2021-09-19T10:16:28Z</time>
      </trkpt>
      <trkpt lat="42.74316" lon="1.53498">
        <ele>1836.8</ele>
        <time>2021-09-19T10:16:29Z</time>
      </trkpt>
      <trkpt lat="42.74315" lon="1.53498">
        <ele>1837.2</ele>
        <time>2021-09-19T10:16:30Z</time>
      </trkpt>
      <trkpt lat="42.74314" lon="1.53498">
        <ele>1837.4</ele>
        <time>2021-09-19T10:16:31Z</time>
      </trkpt>
      <trkpt lat="42.74312" lon="1.53496">
        <ele>1837.8</ele>
        <time>2021-09-19T10:16:34Z</time>
      </trkpt>
      <trkpt lat="42.7431" lon="1.53495">
        <ele>1838.4</ele>
        <time>2021-09-19T10:16:37Z</time>
      </trkpt>
      <trkpt lat="42.74308" lon="1.53494">
        <ele>1838.8</ele>
        <time>2021-09-19T10:16:40Z</time>
      </trkpt>
      <trkpt lat="42.74307" lon="1.53494">
        <ele>1838.8</ele>
        <time>2021-09-19T10:16:41Z</time>
      </trkpt>
      <trkpt lat="42.74305" lon="1.53494">
        <ele>1839</ele>
        <time>2021-09-19T10:16:43Z</time>
      </trkpt>
      <trkpt lat="42.74303" lon="1.53493">
        <ele>1839</ele>
        <time>2021-09-19T10:16:45Z</time>
      </trkpt>
      <trkpt lat="42.74301" lon="1.53492">
        <ele>1839.2</ele>
        <time>2021-09-19T10:16:47Z</time>
      </trkpt>
      <trkpt lat="42.74298" lon="1.53491">
        <ele>1839.6</ele>
        <time>2021-09-19T10:16:52Z</time>
      </trkpt>
      <trkpt lat="42.74298" lon="1.53491">
        <ele>1839.8</ele>
        <time>2021-09-19T10:16:53Z</time>
      </trkpt>
      <trkpt lat="42.74292" lon="1.53491">
        <ele>1839.8</ele>
        <time>2021-09-19T10:16:59Z</time>
      </trkpt>
      <trkpt lat="42.74287" lon="1.53489">
        <ele>1841</ele>
        <time>2021-09-19T10:17:05Z</time>
      </trkpt>
      <trkpt lat="42.74287" lon="1.53489">
        <ele>1841.2</ele>
        <time>2021-09-19T10:17:06Z</time>
      </trkpt>
      <trkpt lat="42.74284" lon="1.53488">
        <ele>1841.4</ele>
        <time>2021-09-19T10:17:11Z</time>
      </trkpt>
      <trkpt lat="42.74284" lon="1.53488">
        <ele>1841.4</ele>
        <time>2021-09-19T10:17:13Z</time>
      </trkpt>
      <trkpt lat="42.74281" lon="1.53489">
        <ele>1841.4</ele>
        <time>2021-09-19T10:17:19Z</time>
      </trkpt>
      <trkpt lat="42.74278" lon="1.53488">
        <ele>1842</ele>
        <time>2021-09-19T10:17:23Z</time>
      </trkpt>
      <trkpt lat="42.74276" lon="1.53487">
        <ele>1842.4</ele>
        <time>2021-09-19T10:17:26Z</time>
      </trkpt>
      <trkpt lat="42.74272" lon="1.53485">
        <ele>1842.6</ele>
        <time>2021-09-19T10:17:31Z</time>
      </trkpt>
      <trkpt lat="42.7427" lon="1.53485">
        <ele>1842.8</ele>
        <time>2021-09-19T10:17:33Z</time>
      </trkpt>
      <trkpt lat="42.7427" lon="1.53485">
        <ele>1843</ele>
        <time>2021-09-19T10:17:34Z</time>
      </trkpt>
      <trkpt lat="42.74269" lon="1.53484">
        <ele>1843</ele>
        <time>2021-09-19T10:17:35Z</time>
      </trkpt>
      <trkpt lat="42.74267" lon="1.53484">
        <ele>1843</ele>
        <time>2021-09-19T10:17:38Z</time>
      </trkpt>
      <trkpt lat="42.74265" lon="1.53484">
        <ele>1843.4</ele>
        <time>2021-09-19T10:17:40Z</time>
      </trkpt>
      <trkpt lat="42.74264" lon="1.53485">
        <ele>1843.6</ele>
        <time>2021-09-19T10:17:42Z</time>
      </trkpt>
      <trkpt lat="42.7426" lon="1.53485">
        <ele>1844.4</ele>
        <time>2021-09-19T10:17:48Z</time>
      </trkpt>
      <trkpt lat="42.74259" lon="1.53485">
        <ele>1844.4</ele>
        <time>2021-09-19T10:17:49Z</time>
      </trkpt>
      <trkpt lat="42.74258" lon="1.53485">
        <ele>1844.6</ele>
        <time>2021-09-19T10:17:51Z</time>
      </trkpt>
      <trkpt lat="42.74254" lon="1.53485">
        <ele>1844.8</ele>
        <time>2021-09-19T10:17:55Z</time>
      </trkpt>
      <trkpt lat="42.74252" lon="1.53484">
        <ele>1845.6</ele>
        <time>2021-09-19T10:17:59Z</time>
      </trkpt>
      <trkpt lat="42.7425" lon="1.53484">
        <ele>1846</ele>
        <time>2021-09-19T10:18:01Z</time>
      </trkpt>
      <trkpt lat="42.74248" lon="1.53483">
        <ele>1846.4</ele>
        <time>2021-09-19T10:18:03Z</time>
      </trkpt>
      <trkpt lat="42.74246" lon="1.53482">
        <ele>1846.8</ele>
        <time>2021-09-19T10:18:06Z</time>
      </trkpt>
      <trkpt lat="42.74243" lon="1.53482">
        <ele>1847</ele>
        <time>2021-09-19T10:18:10Z</time>
      </trkpt>
      <trkpt lat="42.74237" lon="1.53477">
        <ele>1847.8</ele>
        <time>2021-09-19T10:18:17Z</time>
      </trkpt>
      <trkpt lat="42.74236" lon="1.53476">
        <ele>1848.4</ele>
        <time>2021-09-19T10:18:19Z</time>
      </trkpt>
      <trkpt lat="42.74235" lon="1.53475">
        <ele>1849</ele>
        <time>2021-09-19T10:18:21Z</time>
      </trkpt>
      <trkpt lat="42.7423" lon="1.53474">
        <ele>1849.8</ele>
        <time>2021-09-19T10:18:26Z</time>
      </trkpt>
      <trkpt lat="42.74228" lon="1.53474">
        <ele>1850</ele>
        <time>2021-09-19T10:18:28Z</time>
      </trkpt>
      <trkpt lat="42.74228" lon="1.53473">
        <ele>1850.2</ele>
        <time>2021-09-19T10:18:29Z</time>
      </trkpt>
      <trkpt lat="42.74224" lon="1.53471">
        <ele>1850.2</ele>
        <time>2021-09-19T10:18:33Z</time>
      </trkpt>
      <trkpt lat="42.74219" lon="1.53468">
        <ele>1850.4</ele>
        <time>2021-09-19T10:18:39Z</time>
      </trkpt>
      <trkpt lat="42.74218" lon="1.53466">
        <ele>1850.6</ele>
        <time>2021-09-19T10:18:41Z</time>
      </trkpt>
      <trkpt lat="42.74215" lon="1.53466">
        <ele>1850.6</ele>
        <time>2021-09-19T10:18:43Z</time>
      </trkpt>
      <trkpt lat="42.74214" lon="1.53466">
        <ele>1850.6</ele>
        <time>2021-09-19T10:18:45Z</time>
      </trkpt>
      <trkpt lat="42.7421" lon="1.53463">
        <ele>1850.6</ele>
        <time>2021-09-19T10:18:50Z</time>
      </trkpt>
      <trkpt lat="42.74202" lon="1.53455">
        <ele>1851</ele>
        <time>2021-09-19T10:19:00Z</time>
      </trkpt>
      <trkpt lat="42.74197" lon="1.5345">
        <ele>1851</ele>
        <time>2021-09-19T10:19:08Z</time>
      </trkpt>
      <trkpt lat="42.74189" lon="1.53448">
        <ele>1851.8</ele>
        <time>2021-09-19T10:19:17Z</time>
      </trkpt>
      <trkpt lat="42.74182" lon="1.53443">
        <ele>1852</ele>
        <time>2021-09-19T10:19:24Z</time>
      </trkpt>
      <trkpt lat="42.74181" lon="1.53442">
        <ele>1852</ele>
        <time>2021-09-19T10:19:25Z</time>
      </trkpt>
      <trkpt lat="42.74176" lon="1.53441">
        <ele>1852.4</ele>
        <time>2021-09-19T10:19:30Z</time>
      </trkpt>
      <trkpt lat="42.74174" lon="1.5344">
        <ele>1852.4</ele>
        <time>2021-09-19T10:19:33Z</time>
      </trkpt>
      <trkpt lat="42.74167" lon="1.53435">
        <ele>1853.2</ele>
        <time>2021-09-19T10:19:42Z</time>
      </trkpt>
      <trkpt lat="42.74166" lon="1.53435">
        <ele>1853.2</ele>
        <time>2021-09-19T10:19:43Z</time>
      </trkpt>
      <trkpt lat="42.74164" lon="1.53434">
        <ele>1853.4</ele>
        <time>2021-09-19T10:19:45Z</time>
      </trkpt>
      <trkpt lat="42.74162" lon="1.53432">
        <ele>1853.6</ele>
        <time>2021-09-19T10:19:48Z</time>
      </trkpt>
      <trkpt lat="42.74159" lon="1.53431">
        <ele>1854</ele>
        <time>2021-09-19T10:19:51Z</time>
      </trkpt>
      <trkpt lat="42.74158" lon="1.5343">
        <ele>1854</ele>
        <time>2021-09-19T10:19:53Z</time>
      </trkpt>
      <trkpt lat="42.74158" lon="1.5343">
        <ele>1854.2</ele>
        <time>2021-09-19T10:19:58Z</time>
      </trkpt>
      <trkpt lat="42.74157" lon="1.53429">
        <ele>1854.2</ele>
        <time>2021-09-19T10:20:02Z</time>
      </trkpt>
      <trkpt lat="42.74153" lon="1.53427">
        <ele>1854</ele>
        <time>2021-09-19T10:20:06Z</time>
      </trkpt>
      <trkpt lat="42.74152" lon="1.53427">
        <ele>1854.4</ele>
        <time>2021-09-19T10:20:07Z</time>
      </trkpt>
      <trkpt lat="42.74148" lon="1.53424">
        <ele>1854.8</ele>
        <time>2021-09-19T10:20:12Z</time>
      </trkpt>
      <trkpt lat="42.74144" lon="1.53421">
        <ele>1855.4</ele>
        <time>2021-09-19T10:20:16Z</time>
      </trkpt>
      <trkpt lat="42.74144" lon="1.53421">
        <ele>1855.6</ele>
        <time>2021-09-19T10:20:17Z</time>
      </trkpt>
      <trkpt lat="42.74141" lon="1.53418">
        <ele>1856.6</ele>
        <time>2021-09-19T10:20:21Z</time>
      </trkpt>
      <trkpt lat="42.74139" lon="1.53417">
        <ele>1856.8</ele>
        <time>2021-09-19T10:20:23Z</time>
      </trkpt>
      <trkpt lat="42.74139" lon="1.53416">
        <ele>1856.8</ele>
        <time>2021-09-19T10:20:24Z</time>
      </trkpt>
      <trkpt lat="42.74136" lon="1.53413">
        <ele>1857.4</ele>
        <time>2021-09-19T10:20:29Z</time>
      </trkpt>
      <trkpt lat="42.74134" lon="1.53412">
        <ele>1857.6</ele>
        <time>2021-09-19T10:20:31Z</time>
      </trkpt>
      <trkpt lat="42.74133" lon="1.53411">
        <ele>1857.8</ele>
        <time>2021-09-19T10:20:32Z</time>
      </trkpt>
      <trkpt lat="42.74127" lon="1.53409">
        <ele>1858.8</ele>
        <time>2021-09-19T10:20:38Z</time>
      </trkpt>
      <trkpt lat="42.74123" lon="1.53411">
        <ele>1859.2</ele>
        <time>2021-09-19T10:20:42Z</time>
      </trkpt>
      <trkpt lat="42.74119" lon="1.5341">
        <ele>1860</ele>
        <time>2021-09-19T10:20:48Z</time>
      </trkpt>
      <trkpt lat="42.74116" lon="1.53407">
        <ele>1860.2</ele>
        <time>2021-09-19T10:20:54Z</time>
      </trkpt>
      <trkpt lat="42.74115" lon="1.53406">
        <ele>1860.6</ele>
        <time>2021-09-19T10:20:56Z</time>
      </trkpt>
      <trkpt lat="42.74113" lon="1.53404">
        <ele>1861.2</ele>
        <time>2021-09-19T10:20:59Z</time>
      </trkpt>
      <trkpt lat="42.74111" lon="1.53405">
        <ele>1861.2</ele>
        <time>2021-09-19T10:21:02Z</time>
      </trkpt>
      <trkpt lat="42.74106" lon="1.53405">
        <ele>1861.8</ele>
        <time>2021-09-19T10:21:07Z</time>
      </trkpt>
      <trkpt lat="42.74106" lon="1.53405">
        <ele>1862.4</ele>
        <time>2021-09-19T10:21:08Z</time>
      </trkpt>
      <trkpt lat="42.74105" lon="1.53404">
        <ele>1863.6</ele>
        <time>2021-09-19T10:21:10Z</time>
      </trkpt>
      <trkpt lat="42.74104" lon="1.53402">
        <ele>1864.8</ele>
        <time>2021-09-19T10:21:12Z</time>
      </trkpt>
      <trkpt lat="42.74102" lon="1.53401">
        <ele>1863.8</ele>
        <time>2021-09-19T10:21:14Z</time>
      </trkpt>
      <trkpt lat="42.741" lon="1.534">
        <ele>1862.6</ele>
        <time>2021-09-19T10:21:16Z</time>
      </trkpt>
      <trkpt lat="42.74099" lon="1.534">
        <ele>1862.6</ele>
        <time>2021-09-19T10:21:17Z</time>
      </trkpt>
      <trkpt lat="42.74096" lon="1.534">
        <ele>1863</ele>
        <time>2021-09-19T10:21:21Z</time>
      </trkpt>
      <trkpt lat="42.74092" lon="1.53399">
        <ele>1863.8</ele>
        <time>2021-09-19T10:21:27Z</time>
      </trkpt>
      <trkpt lat="42.74091" lon="1.53399">
        <ele>1864.2</ele>
        <time>2021-09-19T10:21:29Z</time>
      </trkpt>
      <trkpt lat="42.74088" lon="1.53399">
        <ele>1864.6</ele>
        <time>2021-09-19T10:21:35Z</time>
      </trkpt>
      <trkpt lat="42.74086" lon="1.53399">
        <ele>1865</ele>
        <time>2021-09-19T10:21:38Z</time>
      </trkpt>
      <trkpt lat="42.74084" lon="1.534">
        <ele>1865.4</ele>
        <time>2021-09-19T10:21:42Z</time>
      </trkpt>
      <trkpt lat="42.74081" lon="1.53399">
        <ele>1866.4</ele>
        <time>2021-09-19T10:21:47Z</time>
      </trkpt>
      <trkpt lat="42.74079" lon="1.53397">
        <ele>1867</ele>
        <time>2021-09-19T10:21:50Z</time>
      </trkpt>
      <trkpt lat="42.74075" lon="1.53397">
        <ele>1867.2</ele>
        <time>2021-09-19T10:21:56Z</time>
      </trkpt>
      <trkpt lat="42.74073" lon="1.53397">
        <ele>1867.6</ele>
        <time>2021-09-19T10:21:58Z</time>
      </trkpt>
      <trkpt lat="42.74072" lon="1.53397">
        <ele>1868.2</ele>
        <time>2021-09-19T10:22:01Z</time>
      </trkpt>
      <trkpt lat="42.74071" lon="1.53398">
        <ele>1868.4</ele>
        <time>2021-09-19T10:22:04Z</time>
      </trkpt>
      <trkpt lat="42.7407" lon="1.53398">
        <ele>1868.8</ele>
        <time>2021-09-19T10:22:05Z</time>
      </trkpt>
      <trkpt lat="42.74066" lon="1.53395">
        <ele>1869.6</ele>
        <time>2021-09-19T10:22:12Z</time>
      </trkpt>
      <trkpt lat="42.74066" lon="1.53394">
        <ele>1869.8</ele>
        <time>2021-09-19T10:22:13Z</time>
      </trkpt>
      <trkpt lat="42.74061" lon="1.53392">
        <ele>1870.8</ele>
        <time>2021-09-19T10:22:18Z</time>
      </trkpt>
      <trkpt lat="42.74058" lon="1.53392">
        <ele>1871</ele>
        <time>2021-09-19T10:22:20Z</time>
      </trkpt>
      <trkpt lat="42.74056" lon="1.53391">
        <ele>1871</ele>
        <time>2021-09-19T10:22:23Z</time>
      </trkpt>
      <trkpt lat="42.74055" lon="1.53391">
        <ele>1871</ele>
        <time>2021-09-19T10:22:24Z</time>
      </trkpt>
      <trkpt lat="42.74053" lon="1.53389">
        <ele>1871.8</ele>
        <time>2021-09-19T10:22:28Z</time>
      </trkpt>
      <trkpt lat="42.74047" lon="1.53386">
        <ele>1873</ele>
        <time>2021-09-19T10:22:35Z</time>
      </trkpt>
      <trkpt lat="42.74043" lon="1.53385">
        <ele>1873.2</ele>
        <time>2021-09-19T10:22:43Z</time>
      </trkpt>
      <trkpt lat="42.74042" lon="1.53385">
        <ele>1873.4</ele>
        <time>2021-09-19T10:22:45Z</time>
      </trkpt>
      <trkpt lat="42.74038" lon="1.53384">
        <ele>1873.6</ele>
        <time>2021-09-19T10:22:49Z</time>
      </trkpt>
      <trkpt lat="42.74037" lon="1.53384">
        <ele>1873.8</ele>
        <time>2021-09-19T10:22:50Z</time>
      </trkpt>
      <trkpt lat="42.74035" lon="1.53384">
        <ele>1874.6</ele>
        <time>2021-09-19T10:22:52Z</time>
      </trkpt>
      <trkpt lat="42.74033" lon="1.53383">
        <ele>1875</ele>
        <time>2021-09-19T10:22:55Z</time>
      </trkpt>
      <trkpt lat="42.74027" lon="1.53384">
        <ele>1875.4</ele>
        <time>2021-09-19T10:23:03Z</time>
      </trkpt>
      <trkpt lat="42.74026" lon="1.53383">
        <ele>1875.6</ele>
        <time>2021-09-19T10:23:04Z</time>
      </trkpt>
      <trkpt lat="42.74026" lon="1.53383">
        <ele>1875.8</ele>
        <time>2021-09-19T10:23:05Z</time>
      </trkpt>
      <trkpt lat="42.74023" lon="1.53384">
        <ele>1876.2</ele>
        <time>2021-09-19T10:23:08Z</time>
      </trkpt>
      <trkpt lat="42.74023" lon="1.53384">
        <ele>1876.4</ele>
        <time>2021-09-19T10:23:09Z</time>
      </trkpt>
      <trkpt lat="42.74022" lon="1.53383">
        <ele>1876.4</ele>
        <time>2021-09-19T10:23:10Z</time>
      </trkpt>
      <trkpt lat="42.74021" lon="1.53383">
        <ele>1876.8</ele>
        <time>2021-09-19T10:23:11Z</time>
      </trkpt>
      <trkpt lat="42.74019" lon="1.53383">
        <ele>1877.6</ele>
        <time>2021-09-19T10:23:16Z</time>
      </trkpt>
      <trkpt lat="42.74018" lon="1.53384">
        <ele>1877.8</ele>
        <time>2021-09-19T10:23:17Z</time>
      </trkpt>
      <trkpt lat="42.74013" lon="1.53385">
        <ele>1878.4</ele>
        <time>2021-09-19T10:23:22Z</time>
      </trkpt>
      <trkpt lat="42.74009" lon="1.53384">
        <ele>1878.8</ele>
        <time>2021-09-19T10:23:27Z</time>
      </trkpt>
      <trkpt lat="42.74007" lon="1.53384">
        <ele>1879.2</ele>
        <time>2021-09-19T10:23:29Z</time>
      </trkpt>
      <trkpt lat="42.74004" lon="1.53384">
        <ele>1880</ele>
        <time>2021-09-19T10:23:34Z</time>
      </trkpt>
      <trkpt lat="42.74003" lon="1.53384">
        <ele>1880.2</ele>
        <time>2021-09-19T10:23:36Z</time>
      </trkpt>
      <trkpt lat="42.74001" lon="1.53384">
        <ele>1880.4</ele>
        <time>2021-09-19T10:23:38Z</time>
      </trkpt>
      <trkpt lat="42.73999" lon="1.53383">
        <ele>1880.6</ele>
        <time>2021-09-19T10:23:41Z</time>
      </trkpt>
      <trkpt lat="42.73997" lon="1.53383">
        <ele>1880.8</ele>
        <time>2021-09-19T10:23:44Z</time>
      </trkpt>
      <trkpt lat="42.73995" lon="1.53383">
        <ele>1881.2</ele>
        <time>2021-09-19T10:23:47Z</time>
      </trkpt>
      <trkpt lat="42.73993" lon="1.53384">
        <ele>1881.4</ele>
        <time>2021-09-19T10:23:49Z</time>
      </trkpt>
      <trkpt lat="42.73992" lon="1.53384">
        <ele>1882.6</ele>
        <time>2021-09-19T10:23:50Z</time>
      </trkpt>
      <trkpt lat="42.73988" lon="1.53385">
        <ele>1881.6</ele>
        <time>2021-09-19T10:23:55Z</time>
      </trkpt>
      <trkpt lat="42.73985" lon="1.53385">
        <ele>1881.8</ele>
        <time>2021-09-19T10:23:59Z</time>
      </trkpt>
      <trkpt lat="42.7398" lon="1.53384">
        <ele>1883.6</ele>
        <time>2021-09-19T10:24:07Z</time>
      </trkpt>
      <trkpt lat="42.73979" lon="1.53384">
        <ele>1884.4</ele>
        <time>2021-09-19T10:24:08Z</time>
      </trkpt>
      <trkpt lat="42.73978" lon="1.53385">
        <ele>1885</ele>
        <time>2021-09-19T10:24:09Z</time>
      </trkpt>
      <trkpt lat="42.73977" lon="1.53385">
        <ele>1886.4</ele>
        <time>2021-09-19T10:24:10Z</time>
      </trkpt>
      <trkpt lat="42.73975" lon="1.53385">
        <ele>1885.4</ele>
        <time>2021-09-19T10:24:13Z</time>
      </trkpt>
      <trkpt lat="42.73974" lon="1.53385">
        <ele>1884.6</ele>
        <time>2021-09-19T10:24:15Z</time>
      </trkpt>
      <trkpt lat="42.73972" lon="1.53385">
        <ele>1884.2</ele>
        <time>2021-09-19T10:24:17Z</time>
      </trkpt>
      <trkpt lat="42.73967" lon="1.53383">
        <ele>1885</ele>
        <time>2021-09-19T10:24:23Z</time>
      </trkpt>
      <trkpt lat="42.73965" lon="1.53383">
        <ele>1885.4</ele>
        <time>2021-09-19T10:24:27Z</time>
      </trkpt>
      <trkpt lat="42.73963" lon="1.53383">
        <ele>1885.8</ele>
        <time>2021-09-19T10:24:30Z</time>
      </trkpt>
      <trkpt lat="42.73959" lon="1.53384">
        <ele>1886.2</ele>
        <time>2021-09-19T10:24:36Z</time>
      </trkpt>
      <trkpt lat="42.73958" lon="1.53384">
        <ele>1886.6</ele>
        <time>2021-09-19T10:24:38Z</time>
      </trkpt>
      <trkpt lat="42.73957" lon="1.53384">
        <ele>1887.2</ele>
        <time>2021-09-19T10:24:40Z</time>
      </trkpt>
      <trkpt lat="42.73956" lon="1.53384">
        <ele>1887.2</ele>
        <time>2021-09-19T10:24:41Z</time>
      </trkpt>
      <trkpt lat="42.73953" lon="1.53385">
        <ele>1887.4</ele>
        <time>2021-09-19T10:24:44Z</time>
      </trkpt>
      <trkpt lat="42.73951" lon="1.53384">
        <ele>1887.6</ele>
        <time>2021-09-19T10:24:47Z</time>
      </trkpt>
      <trkpt lat="42.73948" lon="1.53383">
        <ele>1888.8</ele>
        <time>2021-09-19T10:24:51Z</time>
      </trkpt>
      <trkpt lat="42.73945" lon="1.53383">
        <ele>1889</ele>
        <time>2021-09-19T10:24:55Z</time>
      </trkpt>
      <trkpt lat="42.73941" lon="1.53382">
        <ele>1889.2</ele>
        <time>2021-09-19T10:25:01Z</time>
      </trkpt>
      <trkpt lat="42.73939" lon="1.53382">
        <ele>1889.8</ele>
        <time>2021-09-19T10:25:05Z</time>
      </trkpt>
      <trkpt lat="42.73937" lon="1.53383">
        <ele>1890</ele>
        <time>2021-09-19T10:25:08Z</time>
      </trkpt>
      <trkpt lat="42.73936" lon="1.53383">
        <ele>1890.4</ele>
        <time>2021-09-19T10:25:10Z</time>
      </trkpt>
      <trkpt lat="42.73934" lon="1.53381">
        <ele>1891</ele>
        <time>2021-09-19T10:25:15Z</time>
      </trkpt>
      <trkpt lat="42.73933" lon="1.5338">
        <ele>1891.2</ele>
        <time>2021-09-19T10:25:16Z</time>
      </trkpt>
      <trkpt lat="42.73928" lon="1.5338">
        <ele>1891.6</ele>
        <time>2021-09-19T10:25:22Z</time>
      </trkpt>
      <trkpt lat="42.73927" lon="1.53382">
        <ele>1892.4</ele>
        <time>2021-09-19T10:25:26Z</time>
      </trkpt>
      <trkpt lat="42.73926" lon="1.53382">
        <ele>1893</ele>
        <time>2021-09-19T10:25:29Z</time>
      </trkpt>
      <trkpt lat="42.73924" lon="1.53381">
        <ele>1893.4</ele>
        <time>2021-09-19T10:25:32Z</time>
      </trkpt>
      <trkpt lat="42.73923" lon="1.53381">
        <ele>1893.6</ele>
        <time>2021-09-19T10:25:33Z</time>
      </trkpt>
      <trkpt lat="42.73921" lon="1.53379">
        <ele>1894.4</ele>
        <time>2021-09-19T10:25:37Z</time>
      </trkpt>
      <trkpt lat="42.7392" lon="1.53379">
        <ele>1894.6</ele>
        <time>2021-09-19T10:25:38Z</time>
      </trkpt>
      <trkpt lat="42.73919" lon="1.53378">
        <ele>1895</ele>
        <time>2021-09-19T10:25:41Z</time>
      </trkpt>
      <trkpt lat="42.73918" lon="1.53378">
        <ele>1895.6</ele>
        <time>2021-09-19T10:25:42Z</time>
      </trkpt>
      <trkpt lat="42.73918" lon="1.53378">
        <ele>1895.8</ele>
        <time>2021-09-19T10:25:43Z</time>
      </trkpt>
      <trkpt lat="42.73916" lon="1.53377">
        <ele>1896.6</ele>
        <time>2021-09-19T10:25:46Z</time>
      </trkpt>
      <trkpt lat="42.73915" lon="1.53377">
        <ele>1896.8</ele>
        <time>2021-09-19T10:25:48Z</time>
      </trkpt>
      <trkpt lat="42.73915" lon="1.53377">
        <ele>1897</ele>
        <time>2021-09-19T10:25:49Z</time>
      </trkpt>
      <trkpt lat="42.73912" lon="1.53375">
        <ele>1897.4</ele>
        <time>2021-09-19T10:25:53Z</time>
      </trkpt>
      <trkpt lat="42.73912" lon="1.53375">
        <ele>1897.6</ele>
        <time>2021-09-19T10:25:54Z</time>
      </trkpt>
      <trkpt lat="42.73911" lon="1.53375">
        <ele>1897.8</ele>
        <time>2021-09-19T10:25:55Z</time>
      </trkpt>
      <trkpt lat="42.7391" lon="1.53375">
        <ele>1898</ele>
        <time>2021-09-19T10:25:56Z</time>
      </trkpt>
      <trkpt lat="42.73908" lon="1.53374">
        <ele>1898.8</ele>
        <time>2021-09-19T10:26:00Z</time>
      </trkpt>
      <trkpt lat="42.73908" lon="1.53374">
        <ele>1899</ele>
        <time>2021-09-19T10:26:01Z</time>
      </trkpt>
      <trkpt lat="42.73907" lon="1.53374">
        <ele>1899.4</ele>
        <time>2021-09-19T10:26:02Z</time>
      </trkpt>
      <trkpt lat="42.73907" lon="1.53375">
        <ele>1900</ele>
        <time>2021-09-19T10:26:07Z</time>
      </trkpt>
      <trkpt lat="42.73907" lon="1.53375">
        <ele>1899.8</ele>
        <time>2021-09-19T10:26:15Z</time>
      </trkpt>
      <trkpt lat="42.73905" lon="1.53374">
        <ele>1900.4</ele>
        <time>2021-09-19T10:26:17Z</time>
      </trkpt>
      <trkpt lat="42.73903" lon="1.53374">
        <ele>1901.6</ele>
        <time>2021-09-19T10:26:20Z</time>
      </trkpt>
      <trkpt lat="42.73902" lon="1.53374">
        <ele>1901.8</ele>
        <time>2021-09-19T10:26:21Z</time>
      </trkpt>
      <trkpt lat="42.73897" lon="1.53375">
        <ele>1902.6</ele>
        <time>2021-09-19T10:26:28Z</time>
      </trkpt>
      <trkpt lat="42.73896" lon="1.53375">
        <ele>1903.2</ele>
        <time>2021-09-19T10:26:30Z</time>
      </trkpt>
      <trkpt lat="42.73895" lon="1.53374">
        <ele>1903.8</ele>
        <time>2021-09-19T10:26:33Z</time>
      </trkpt>
      <trkpt lat="42.73892" lon="1.53373">
        <ele>1904.4</ele>
        <time>2021-09-19T10:26:38Z</time>
      </trkpt>
      <trkpt lat="42.73891" lon="1.53373">
        <ele>1904.8</ele>
        <time>2021-09-19T10:26:39Z</time>
      </trkpt>
      <trkpt lat="42.73889" lon="1.53372">
        <ele>1905.4</ele>
        <time>2021-09-19T10:26:43Z</time>
      </trkpt>
      <trkpt lat="42.73887" lon="1.53371">
        <ele>1906</ele>
        <time>2021-09-19T10:26:46Z</time>
      </trkpt>
      <trkpt lat="42.73886" lon="1.53371">
        <ele>1906.4</ele>
        <time>2021-09-19T10:26:48Z</time>
      </trkpt>
      <trkpt lat="42.73884" lon="1.53371">
        <ele>1906.8</ele>
        <time>2021-09-19T10:26:52Z</time>
      </trkpt>
      <trkpt lat="42.73883" lon="1.53371">
        <ele>1907</ele>
        <time>2021-09-19T10:26:53Z</time>
      </trkpt>
      <trkpt lat="42.7388" lon="1.53371">
        <ele>1907.8</ele>
        <time>2021-09-19T10:26:56Z</time>
      </trkpt>
      <trkpt lat="42.73879" lon="1.53371">
        <ele>1908</ele>
        <time>2021-09-19T10:26:57Z</time>
      </trkpt>
      <trkpt lat="42.73876" lon="1.53371">
        <ele>1908.8</ele>
        <time>2021-09-19T10:27:02Z</time>
      </trkpt>
      <trkpt lat="42.73875" lon="1.53369">
        <ele>1908.8</ele>
        <time>2021-09-19T10:27:05Z</time>
      </trkpt>
      <trkpt lat="42.73875" lon="1.53369">
        <ele>1909.2</ele>
        <time>2021-09-19T10:27:06Z</time>
      </trkpt>
      <trkpt lat="42.73872" lon="1.53368">
        <ele>1910.4</ele>
        <time>2021-09-19T10:27:11Z</time>
      </trkpt>
      <trkpt lat="42.73872" lon="1.53367">
        <ele>1910.6</ele>
        <time>2021-09-19T10:27:14Z</time>
      </trkpt>
      <trkpt lat="42.73872" lon="1.53367">
        <ele>1910.6</ele>
        <time>2021-09-19T10:27:15Z</time>
      </trkpt>
      <trkpt lat="42.73871" lon="1.53367">
        <ele>1910.8</ele>
        <time>2021-09-19T10:27:27Z</time>
      </trkpt>
      <trkpt lat="42.73871" lon="1.53366">
        <ele>1910.8</ele>
        <time>2021-09-19T10:27:32Z</time>
      </trkpt>
      <trkpt lat="42.7387" lon="1.53368">
        <ele>1911.4</ele>
        <time>2021-09-19T10:27:38Z</time>
      </trkpt>
      <trkpt lat="42.73869" lon="1.53368">
        <ele>1911.4</ele>
        <time>2021-09-19T10:27:39Z</time>
      </trkpt>
      <trkpt lat="42.73863" lon="1.53368">
        <ele>1912.2</ele>
        <time>2021-09-19T10:27:46Z</time>
      </trkpt>
      <trkpt lat="42.73861" lon="1.53368">
        <ele>1912.6</ele>
        <time>2021-09-19T10:27:48Z</time>
      </trkpt>
      <trkpt lat="42.73856" lon="1.5337">
        <ele>1913.6</ele>
        <time>2021-09-19T10:27:54Z</time>
      </trkpt>
      <trkpt lat="42.73855" lon="1.5337">
        <ele>1913.8</ele>
        <time>2021-09-19T10:27:55Z</time>
      </trkpt>
      <trkpt lat="42.73855" lon="1.5337">
        <ele>1913.8</ele>
        <time>2021-09-19T10:27:56Z</time>
      </trkpt>
      <trkpt lat="42.73851" lon="1.53369">
        <ele>1914.8</ele>
        <time>2021-09-19T10:28:01Z</time>
      </trkpt>
      <trkpt lat="42.73851" lon="1.53369">
        <ele>1915</ele>
        <time>2021-09-19T10:28:02Z</time>
      </trkpt>
      <trkpt lat="42.73849" lon="1.53365">
        <ele>1916</ele>
        <time>2021-09-19T10:28:06Z</time>
      </trkpt>
      <trkpt lat="42.73846" lon="1.53364">
        <ele>1916.6</ele>
        <time>2021-09-19T10:28:09Z</time>
      </trkpt>
      <trkpt lat="42.73844" lon="1.53363">
        <ele>1917</ele>
        <time>2021-09-19T10:28:12Z</time>
      </trkpt>
      <trkpt lat="42.73841" lon="1.53364">
        <ele>1917.8</ele>
        <time>2021-09-19T10:28:15Z</time>
      </trkpt>
      <trkpt lat="42.73841" lon="1.53363">
        <ele>1918</ele>
        <time>2021-09-19T10:28:20Z</time>
      </trkpt>
      <trkpt lat="42.73841" lon="1.53363">
        <ele>1918</ele>
        <time>2021-09-19T10:28:21Z</time>
      </trkpt>
      <trkpt lat="42.73839" lon="1.53363">
        <ele>1918.2</ele>
        <time>2021-09-19T10:28:24Z</time>
      </trkpt>
      <trkpt lat="42.73837" lon="1.53363">
        <ele>1918.4</ele>
        <time>2021-09-19T10:28:26Z</time>
      </trkpt>
      <trkpt lat="42.73836" lon="1.53362">
        <ele>1919</ele>
        <time>2021-09-19T10:28:28Z</time>
      </trkpt>
      <trkpt lat="42.73835" lon="1.53361">
        <ele>1919.2</ele>
        <time>2021-09-19T10:28:29Z</time>
      </trkpt>
      <trkpt lat="42.73832" lon="1.53357">
        <ele>1919.6</ele>
        <time>2021-09-19T10:28:34Z</time>
      </trkpt>
      <trkpt lat="42.73829" lon="1.53355">
        <ele>1920.2</ele>
        <time>2021-09-19T10:28:37Z</time>
      </trkpt>
      <trkpt lat="42.73829" lon="1.5335">
        <ele>1920.2</ele>
        <time>2021-09-19T10:28:41Z</time>
      </trkpt>
      <trkpt lat="42.7383" lon="1.53348">
        <ele>1920.4</ele>
        <time>2021-09-19T10:28:43Z</time>
      </trkpt>
      <trkpt lat="42.7383" lon="1.53342">
        <ele>1921.4</ele>
        <time>2021-09-19T10:28:49Z</time>
      </trkpt>
      <trkpt lat="42.7383" lon="1.53341">
        <ele>1921.6</ele>
        <time>2021-09-19T10:28:51Z</time>
      </trkpt>
      <trkpt lat="42.7383" lon="1.5334">
        <ele>1921.6</ele>
        <time>2021-09-19T10:28:52Z</time>
      </trkpt>
      <trkpt lat="42.73831" lon="1.53337">
        <ele>1922.6</ele>
        <time>2021-09-19T10:28:55Z</time>
      </trkpt>
      <trkpt lat="42.73832" lon="1.53333">
        <ele>1923</ele>
        <time>2021-09-19T10:28:58Z</time>
      </trkpt>
      <trkpt lat="42.73833" lon="1.5333">
        <ele>1923.4</ele>
        <time>2021-09-19T10:29:02Z</time>
      </trkpt>
      <trkpt lat="42.73833" lon="1.53328">
        <ele>1923.6</ele>
        <time>2021-09-19T10:29:04Z</time>
      </trkpt>
      <trkpt lat="42.73834" lon="1.5332">
        <ele>1924.4</ele>
        <time>2021-09-19T10:29:10Z</time>
      </trkpt>
      <trkpt lat="42.73834" lon="1.53318">
        <ele>1924.6</ele>
        <time>2021-09-19T10:29:12Z</time>
      </trkpt>
      <trkpt lat="42.73834" lon="1.53315">
        <ele>1925</ele>
        <time>2021-09-19T10:29:15Z</time>
      </trkpt>
      <trkpt lat="42.73834" lon="1.53314">
        <ele>1925</ele>
        <time>2021-09-19T10:29:16Z</time>
      </trkpt>
      <trkpt lat="42.73834" lon="1.53311">
        <ele>1925.2</ele>
        <time>2021-09-19T10:29:20Z</time>
      </trkpt>
      <trkpt lat="42.73835" lon="1.53308">
        <ele>1925.8</ele>
        <time>2021-09-19T10:29:23Z</time>
      </trkpt>
      <trkpt lat="42.73835" lon="1.53307">
        <ele>1925.6</ele>
        <time>2021-09-19T10:29:24Z</time>
      </trkpt>
      <trkpt lat="42.73835" lon="1.53301">
        <ele>1926.2</ele>
        <time>2021-09-19T10:29:30Z</time>
      </trkpt>
      <trkpt lat="42.73835" lon="1.53299">
        <ele>1926.4</ele>
        <time>2021-09-19T10:29:32Z</time>
      </trkpt>
      <trkpt lat="42.73836" lon="1.53293">
        <ele>1926.8</ele>
        <time>2021-09-19T10:29:37Z</time>
      </trkpt>
      <trkpt lat="42.73837" lon="1.53291">
        <ele>1927.2</ele>
        <time>2021-09-19T10:29:39Z</time>
      </trkpt>
      <trkpt lat="42.73836" lon="1.53284">
        <ele>1928.2</ele>
        <time>2021-09-19T10:29:46Z</time>
      </trkpt>
      <trkpt lat="42.73837" lon="1.53281">
        <ele>1928.6</ele>
        <time>2021-09-19T10:29:48Z</time>
      </trkpt>
      <trkpt lat="42.73837" lon="1.53279">
        <ele>1928.8</ele>
        <time>2021-09-19T10:29:50Z</time>
      </trkpt>
      <trkpt lat="42.73836" lon="1.53276">
        <ele>1928.8</ele>
        <time>2021-09-19T10:29:53Z</time>
      </trkpt>
      <trkpt lat="42.73836" lon="1.53271">
        <ele>1929.2</ele>
        <time>2021-09-19T10:29:56Z</time>
      </trkpt>
      <trkpt lat="42.73837" lon="1.53267">
        <ele>1929.4</ele>
        <time>2021-09-19T10:29:59Z</time>
      </trkpt>
      <trkpt lat="42.73838" lon="1.53264">
        <ele>1929.4</ele>
        <time>2021-09-19T10:30:02Z</time>
      </trkpt>
      <trkpt lat="42.73838" lon="1.53258">
        <ele>1931</ele>
        <time>2021-09-19T10:30:08Z</time>
      </trkpt>
      <trkpt lat="42.73837" lon="1.53256">
        <ele>1931.8</ele>
        <time>2021-09-19T10:30:11Z</time>
      </trkpt>
      <trkpt lat="42.73837" lon="1.53255">
        <ele>1931.8</ele>
        <time>2021-09-19T10:30:12Z</time>
      </trkpt>
      <trkpt lat="42.73837" lon="1.53253">
        <ele>1932</ele>
        <time>2021-09-19T10:30:15Z</time>
      </trkpt>
      <trkpt lat="42.73836" lon="1.5325">
        <ele>1932.2</ele>
        <time>2021-09-19T10:30:17Z</time>
      </trkpt>
      <trkpt lat="42.73836" lon="1.53245">
        <ele>1932.4</ele>
        <time>2021-09-19T10:30:20Z</time>
      </trkpt>
      <trkpt lat="42.73836" lon="1.53234">
        <ele>1932</ele>
        <time>2021-09-19T10:30:29Z</time>
      </trkpt>
      <trkpt lat="42.73835" lon="1.5323">
        <ele>1933.2</ele>
        <time>2021-09-19T10:30:35Z</time>
      </trkpt>
      <trkpt lat="42.73835" lon="1.53229">
        <ele>1933.2</ele>
        <time>2021-09-19T10:30:36Z</time>
      </trkpt>
      <trkpt lat="42.73833" lon="1.53223">
        <ele>1933.6</ele>
        <time>2021-09-19T10:30:41Z</time>
      </trkpt>
      <trkpt lat="42.73833" lon="1.5322">
        <ele>1933.6</ele>
        <time>2021-09-19T10:30:44Z</time>
      </trkpt>
      <trkpt lat="42.73832" lon="1.53217">
        <ele>1934.2</ele>
        <time>2021-09-19T10:30:48Z</time>
      </trkpt>
      <trkpt lat="42.73831" lon="1.53215">
        <ele>1935</ele>
        <time>2021-09-19T10:30:51Z</time>
      </trkpt>
      <trkpt lat="42.73831" lon="1.53213">
        <ele>1935.4</ele>
        <time>2021-09-19T10:30:54Z</time>
      </trkpt>
      <trkpt lat="42.73829" lon="1.53208">
        <ele>1935.8</ele>
        <time>2021-09-19T10:30:59Z</time>
      </trkpt>
      <trkpt lat="42.7383" lon="1.53206">
        <ele>1936.2</ele>
        <time>2021-09-19T10:31:04Z</time>
      </trkpt>
      <trkpt lat="42.73829" lon="1.53205">
        <ele>1936.2</ele>
        <time>2021-09-19T10:31:05Z</time>
      </trkpt>
      <trkpt lat="42.73827" lon="1.53204">
        <ele>1936.4</ele>
        <time>2021-09-19T10:31:09Z</time>
      </trkpt>
      <trkpt lat="42.73827" lon="1.53204">
        <ele>1936.6</ele>
        <time>2021-09-19T10:31:10Z</time>
      </trkpt>
      <trkpt lat="42.73825" lon="1.53198">
        <ele>1937.6</ele>
        <time>2021-09-19T10:31:17Z</time>
      </trkpt>
      <trkpt lat="42.73824" lon="1.53198">
        <ele>1937.8</ele>
        <time>2021-09-19T10:31:18Z</time>
      </trkpt>
      <trkpt lat="42.73822" lon="1.53195">
        <ele>1938.6</ele>
        <time>2021-09-19T10:31:22Z</time>
      </trkpt>
      <trkpt lat="42.73821" lon="1.53192">
        <ele>1939.2</ele>
        <time>2021-09-19T10:31:26Z</time>
      </trkpt>
      <trkpt lat="42.73821" lon="1.53189">
        <ele>1939.8</ele>
        <time>2021-09-19T10:31:29Z</time>
      </trkpt>
      <trkpt lat="42.73822" lon="1.53186">
        <ele>1940.4</ele>
        <time>2021-09-19T10:31:34Z</time>
      </trkpt>
      <trkpt lat="42.73821" lon="1.53185">
        <ele>1940.8</ele>
        <time>2021-09-19T10:31:36Z</time>
      </trkpt>
      <trkpt lat="42.73821" lon="1.5318">
        <ele>1941.4</ele>
        <time>2021-09-19T10:31:42Z</time>
      </trkpt>
      <trkpt lat="42.73821" lon="1.53179">
        <ele>1941.8</ele>
        <time>2021-09-19T10:31:43Z</time>
      </trkpt>
      <trkpt lat="42.7382" lon="1.53176">
        <ele>1943</ele>
        <time>2021-09-19T10:31:47Z</time>
      </trkpt>
      <trkpt lat="42.7382" lon="1.53175">
        <ele>1943</ele>
        <time>2021-09-19T10:31:48Z</time>
      </trkpt>
      <trkpt lat="42.73818" lon="1.53172">
        <ele>1944</ele>
        <time>2021-09-19T10:31:54Z</time>
      </trkpt>
      <trkpt lat="42.73818" lon="1.53171">
        <ele>1945</ele>
        <time>2021-09-19T10:31:56Z</time>
      </trkpt>
      <trkpt lat="42.73818" lon="1.5317">
        <ele>1945.2</ele>
        <time>2021-09-19T10:31:57Z</time>
      </trkpt>
      <trkpt lat="42.73817" lon="1.53165">
        <ele>1945.8</ele>
        <time>2021-09-19T10:32:03Z</time>
      </trkpt>
      <trkpt lat="42.73818" lon="1.53164">
        <ele>1946</ele>
        <time>2021-09-19T10:32:07Z</time>
      </trkpt>
      <trkpt lat="42.73818" lon="1.53164">
        <ele>1945.4</ele>
        <time>2021-09-19T10:32:10Z</time>
      </trkpt>
      <trkpt lat="42.73818" lon="1.53165">
        <ele>1945.8</ele>
        <time>2021-09-19T10:32:14Z</time>
      </trkpt>
      <trkpt lat="42.73816" lon="1.53163">
        <ele>1945.8</ele>
        <time>2021-09-19T10:32:20Z</time>
      </trkpt>
      <trkpt lat="42.73815" lon="1.53162">
        <ele>1946.4</ele>
        <time>2021-09-19T10:32:22Z</time>
      </trkpt>
      <trkpt lat="42.73815" lon="1.53161">
        <ele>1947</ele>
        <time>2021-09-19T10:32:23Z</time>
      </trkpt>
      <trkpt lat="42.73815" lon="1.53159">
        <ele>1947.4</ele>
        <time>2021-09-19T10:32:24Z</time>
      </trkpt>
      <trkpt lat="42.73815" lon="1.53155">
        <ele>1948</ele>
        <time>2021-09-19T10:32:27Z</time>
      </trkpt>
      <trkpt lat="42.73813" lon="1.53152">
        <ele>1948</ele>
        <time>2021-09-19T10:32:33Z</time>
      </trkpt>
      <trkpt lat="42.73813" lon="1.53151">
        <ele>1948</ele>
        <time>2021-09-19T10:32:34Z</time>
      </trkpt>
      <trkpt lat="42.73813" lon="1.53151">
        <ele>1948.4</ele>
        <time>2021-09-19T10:32:35Z</time>
      </trkpt>
      <trkpt lat="42.73812" lon="1.5315">
        <ele>1948.6</ele>
        <time>2021-09-19T10:32:36Z</time>
      </trkpt>
      <trkpt lat="42.7381" lon="1.53148">
        <ele>1949.6</ele>
        <time>2021-09-19T10:32:42Z</time>
      </trkpt>
      <trkpt lat="42.73809" lon="1.53147">
        <ele>1949.6</ele>
        <time>2021-09-19T10:32:43Z</time>
      </trkpt>
      <trkpt lat="42.73809" lon="1.53145">
        <ele>1950.2</ele>
        <time>2021-09-19T10:32:46Z</time>
      </trkpt>
      <trkpt lat="42.73809" lon="1.53142">
        <ele>1950.6</ele>
        <time>2021-09-19T10:32:50Z</time>
      </trkpt>
      <trkpt lat="42.73809" lon="1.5314">
        <ele>1950.8</ele>
        <time>2021-09-19T10:32:52Z</time>
      </trkpt>
      <trkpt lat="42.73809" lon="1.53138">
        <ele>1951</ele>
        <time>2021-09-19T10:32:54Z</time>
      </trkpt>
      <trkpt lat="42.73808" lon="1.53136">
        <ele>1951.6</ele>
        <time>2021-09-19T10:32:56Z</time>
      </trkpt>
      <trkpt lat="42.73808" lon="1.53134">
        <ele>1951.8</ele>
        <time>2021-09-19T10:32:58Z</time>
      </trkpt>
      <trkpt lat="42.73807" lon="1.53133">
        <ele>1952</ele>
        <time>2021-09-19T10:33:00Z</time>
      </trkpt>
      <trkpt lat="42.73804" lon="1.5313">
        <ele>1952.4</ele>
        <time>2021-09-19T10:33:09Z</time>
      </trkpt>
      <trkpt lat="42.73802" lon="1.53126">
        <ele>1952.2</ele>
        <time>2021-09-19T10:33:15Z</time>
      </trkpt>
      <trkpt lat="42.738" lon="1.53121">
        <ele>1953.2</ele>
        <time>2021-09-19T10:33:20Z</time>
      </trkpt>
      <trkpt lat="42.73799" lon="1.53121">
        <ele>1953.4</ele>
        <time>2021-09-19T10:33:21Z</time>
      </trkpt>
      <trkpt lat="42.73798" lon="1.53118">
        <ele>1954.4</ele>
        <time>2021-09-19T10:33:25Z</time>
      </trkpt>
      <trkpt lat="42.73798" lon="1.53116">
        <ele>1954.6</ele>
        <time>2021-09-19T10:33:28Z</time>
      </trkpt>
      <trkpt lat="42.73796" lon="1.53111">
        <ele>1955.4</ele>
        <time>2021-09-19T10:33:33Z</time>
      </trkpt>
      <trkpt lat="42.73796" lon="1.5311">
        <ele>1955.8</ele>
        <time>2021-09-19T10:33:34Z</time>
      </trkpt>
      <trkpt lat="42.73794" lon="1.53108">
        <ele>1956.6</ele>
        <time>2021-09-19T10:33:37Z</time>
      </trkpt>
      <trkpt lat="42.73793" lon="1.53106">
        <ele>1957.2</ele>
        <time>2021-09-19T10:33:41Z</time>
      </trkpt>
      <trkpt lat="42.73793" lon="1.53106">
        <ele>1957.6</ele>
        <time>2021-09-19T10:33:42Z</time>
      </trkpt>
      <trkpt lat="42.73791" lon="1.53104">
        <ele>1958.8</ele>
        <time>2021-09-19T10:33:46Z</time>
      </trkpt>
      <trkpt lat="42.7379" lon="1.53103">
        <ele>1959.2</ele>
        <time>2021-09-19T10:33:47Z</time>
      </trkpt>
      <trkpt lat="42.73789" lon="1.53099">
        <ele>1960.2</ele>
        <time>2021-09-19T10:33:53Z</time>
      </trkpt>
      <trkpt lat="42.73788" lon="1.53096">
        <ele>1961.4</ele>
        <time>2021-09-19T10:33:56Z</time>
      </trkpt>
      <trkpt lat="42.73788" lon="1.53096">
        <ele>1961.6</ele>
        <time>2021-09-19T10:34:00Z</time>
      </trkpt>
      <trkpt lat="42.73785" lon="1.53094">
        <ele>1961.6</ele>
        <time>2021-09-19T10:34:04Z</time>
      </trkpt>
      <trkpt lat="42.73784" lon="1.5309">
        <ele>1962.2</ele>
        <time>2021-09-19T10:34:08Z</time>
      </trkpt>
      <trkpt lat="42.73784" lon="1.53088">
        <ele>1962.4</ele>
        <time>2021-09-19T10:34:10Z</time>
      </trkpt>
      <trkpt lat="42.73783" lon="1.53086">
        <ele>1962.8</ele>
        <time>2021-09-19T10:34:12Z</time>
      </trkpt>
      <trkpt lat="42.73783" lon="1.53083">
        <ele>1963.6</ele>
        <time>2021-09-19T10:34:15Z</time>
      </trkpt>
      <trkpt lat="42.73783" lon="1.53082">
        <ele>1964.2</ele>
        <time>2021-09-19T10:34:17Z</time>
      </trkpt>
      <trkpt lat="42.73783" lon="1.53081">
        <ele>1964.6</ele>
        <time>2021-09-19T10:34:18Z</time>
      </trkpt>
      <trkpt lat="42.73783" lon="1.5308">
        <ele>1965.2</ele>
        <time>2021-09-19T10:34:19Z</time>
      </trkpt>
      <trkpt lat="42.73782" lon="1.53076">
        <ele>1965.8</ele>
        <time>2021-09-19T10:34:22Z</time>
      </trkpt>
      <trkpt lat="42.73782" lon="1.53075">
        <ele>1966.6</ele>
        <time>2021-09-19T10:34:24Z</time>
      </trkpt>
      <trkpt lat="42.73781" lon="1.53073">
        <ele>1966.8</ele>
        <time>2021-09-19T10:34:26Z</time>
      </trkpt>
      <trkpt lat="42.7378" lon="1.53072">
        <ele>1967</ele>
        <time>2021-09-19T10:34:27Z</time>
      </trkpt>
      <trkpt lat="42.7378" lon="1.53068">
        <ele>1967.8</ele>
        <time>2021-09-19T10:34:33Z</time>
      </trkpt>
      <trkpt lat="42.73779" lon="1.53066">
        <ele>1968</ele>
        <time>2021-09-19T10:34:35Z</time>
      </trkpt>
      <trkpt lat="42.73776" lon="1.53064">
        <ele>1968.4</ele>
        <time>2021-09-19T10:34:39Z</time>
      </trkpt>
      <trkpt lat="42.73774" lon="1.53062">
        <ele>1968.8</ele>
        <time>2021-09-19T10:34:41Z</time>
      </trkpt>
      <trkpt lat="42.73774" lon="1.53062">
        <ele>1969</ele>
        <time>2021-09-19T10:34:42Z</time>
      </trkpt>
      <trkpt lat="42.73773" lon="1.53061">
        <ele>1969.4</ele>
        <time>2021-09-19T10:34:44Z</time>
      </trkpt>
      <trkpt lat="42.73772" lon="1.53059">
        <ele>1969.6</ele>
        <time>2021-09-19T10:34:47Z</time>
      </trkpt>
      <trkpt lat="42.73771" lon="1.53059">
        <ele>1970</ele>
        <time>2021-09-19T10:34:49Z</time>
      </trkpt>
      <trkpt lat="42.73769" lon="1.53056">
        <ele>1971.2</ele>
        <time>2021-09-19T10:34:53Z</time>
      </trkpt>
      <trkpt lat="42.73768" lon="1.53055">
        <ele>1971.6</ele>
        <time>2021-09-19T10:34:55Z</time>
      </trkpt>
      <trkpt lat="42.73768" lon="1.53054">
        <ele>1971.6</ele>
        <time>2021-09-19T10:34:56Z</time>
      </trkpt>
      <trkpt lat="42.73767" lon="1.53051">
        <ele>1972.4</ele>
        <time>2021-09-19T10:35:00Z</time>
      </trkpt>
      <trkpt lat="42.73765" lon="1.53048">
        <ele>1972.8</ele>
        <time>2021-09-19T10:35:04Z</time>
      </trkpt>
      <trkpt lat="42.73764" lon="1.53046">
        <ele>1973</ele>
        <time>2021-09-19T10:35:06Z</time>
      </trkpt>
      <trkpt lat="42.73764" lon="1.53045">
        <ele>1973.2</ele>
        <time>2021-09-19T10:35:07Z</time>
      </trkpt>
      <trkpt lat="42.73763" lon="1.53045">
        <ele>1973.4</ele>
        <time>2021-09-19T10:35:08Z</time>
      </trkpt>
      <trkpt lat="42.73763" lon="1.53044">
        <ele>1974.4</ele>
        <time>2021-09-19T10:35:11Z</time>
      </trkpt>
      <trkpt lat="42.73763" lon="1.53044">
        <ele>1974.4</ele>
        <time>2021-09-19T10:35:12Z</time>
      </trkpt>
      <trkpt lat="42.73761" lon="1.53042">
        <ele>1975.6</ele>
        <time>2021-09-19T10:35:16Z</time>
      </trkpt>
      <trkpt lat="42.7376" lon="1.53042">
        <ele>1976.4</ele>
        <time>2021-09-19T10:35:19Z</time>
      </trkpt>
      <trkpt lat="42.73757" lon="1.5304">
        <ele>1976.6</ele>
        <time>2021-09-19T10:35:25Z</time>
      </trkpt>
      <trkpt lat="42.73756" lon="1.5304">
        <ele>1976.8</ele>
        <time>2021-09-19T10:35:26Z</time>
      </trkpt>
      <trkpt lat="42.73754" lon="1.53039">
        <ele>1977.6</ele>
        <time>2021-09-19T10:35:30Z</time>
      </trkpt>
      <trkpt lat="42.73754" lon="1.53037">
        <ele>1978.2</ele>
        <time>2021-09-19T10:35:33Z</time>
      </trkpt>
      <trkpt lat="42.73754" lon="1.53036">
        <ele>1978.8</ele>
        <time>2021-09-19T10:35:35Z</time>
      </trkpt>
      <trkpt lat="42.73753" lon="1.53035">
        <ele>1980</ele>
        <time>2021-09-19T10:35:38Z</time>
      </trkpt>
      <trkpt lat="42.73752" lon="1.53034">
        <ele>1980</ele>
        <time>2021-09-19T10:35:39Z</time>
      </trkpt>
      <trkpt lat="42.73751" lon="1.53032">
        <ele>1981</ele>
        <time>2021-09-19T10:35:43Z</time>
      </trkpt>
      <trkpt lat="42.7375" lon="1.53032">
        <ele>1981.2</ele>
        <time>2021-09-19T10:35:46Z</time>
      </trkpt>
      <trkpt lat="42.73748" lon="1.53033">
        <ele>1981.6</ele>
        <time>2021-09-19T10:35:49Z</time>
      </trkpt>
      <trkpt lat="42.73747" lon="1.53033">
        <ele>1981.6</ele>
        <time>2021-09-19T10:35:50Z</time>
      </trkpt>
      <trkpt lat="42.73746" lon="1.53033">
        <ele>1981.8</ele>
        <time>2021-09-19T10:35:51Z</time>
      </trkpt>
      <trkpt lat="42.73743" lon="1.53033">
        <ele>1982</ele>
        <time>2021-09-19T10:35:54Z</time>
      </trkpt>
      <trkpt lat="42.73743" lon="1.53033">
        <ele>1982.4</ele>
        <time>2021-09-19T10:35:55Z</time>
      </trkpt>
      <trkpt lat="42.73742" lon="1.53032">
        <ele>1983</ele>
        <time>2021-09-19T10:35:58Z</time>
      </trkpt>
      <trkpt lat="42.7374" lon="1.53032">
        <ele>1984</ele>
        <time>2021-09-19T10:36:02Z</time>
      </trkpt>
      <trkpt lat="42.73739" lon="1.53032">
        <ele>1984</ele>
        <time>2021-09-19T10:36:03Z</time>
      </trkpt>
      <trkpt lat="42.73738" lon="1.53031">
        <ele>1984.4</ele>
        <time>2021-09-19T10:36:06Z</time>
      </trkpt>
      <trkpt lat="42.73737" lon="1.5303">
        <ele>1985.2</ele>
        <time>2021-09-19T10:36:08Z</time>
      </trkpt>
      <trkpt lat="42.73736" lon="1.53029">
        <ele>1985.2</ele>
        <time>2021-09-19T10:36:09Z</time>
      </trkpt>
      <trkpt lat="42.73736" lon="1.53029">
        <ele>1985.6</ele>
        <time>2021-09-19T10:36:10Z</time>
      </trkpt>
      <trkpt lat="42.73734" lon="1.53027">
        <ele>1986</ele>
        <time>2021-09-19T10:36:14Z</time>
      </trkpt>
      <trkpt lat="42.73731" lon="1.53025">
        <ele>1986.8</ele>
        <time>2021-09-19T10:36:19Z</time>
      </trkpt>
      <trkpt lat="42.7373" lon="1.53025">
        <ele>1987</ele>
        <time>2021-09-19T10:36:20Z</time>
      </trkpt>
      <trkpt lat="42.73728" lon="1.53025">
        <ele>1987.8</ele>
        <time>2021-09-19T10:36:23Z</time>
      </trkpt>
      <trkpt lat="42.73727" lon="1.53026">
        <ele>1988.2</ele>
        <time>2021-09-19T10:36:24Z</time>
      </trkpt>
      <trkpt lat="42.73725" lon="1.53027">
        <ele>1988.6</ele>
        <time>2021-09-19T10:36:26Z</time>
      </trkpt>
      <trkpt lat="42.73724" lon="1.53026">
        <ele>1988.8</ele>
        <time>2021-09-19T10:36:27Z</time>
      </trkpt>
      <trkpt lat="42.73723" lon="1.53026">
        <ele>1989</ele>
        <time>2021-09-19T10:36:28Z</time>
      </trkpt>
      <trkpt lat="42.73722" lon="1.53024">
        <ele>1989.6</ele>
        <time>2021-09-19T10:36:31Z</time>
      </trkpt>
      <trkpt lat="42.73722" lon="1.53023">
        <ele>1990</ele>
        <time>2021-09-19T10:36:32Z</time>
      </trkpt>
      <trkpt lat="42.73721" lon="1.53021">
        <ele>1990.6</ele>
        <time>2021-09-19T10:36:34Z</time>
      </trkpt>
      <trkpt lat="42.7372" lon="1.5302">
        <ele>1991.2</ele>
        <time>2021-09-19T10:36:36Z</time>
      </trkpt>
      <trkpt lat="42.73718" lon="1.53015">
        <ele>1992.4</ele>
        <time>2021-09-19T10:36:41Z</time>
      </trkpt>
      <trkpt lat="42.73716" lon="1.53012">
        <ele>1993.2</ele>
        <time>2021-09-19T10:36:47Z</time>
      </trkpt>
      <trkpt lat="42.73715" lon="1.53012">
        <ele>1993.6</ele>
        <time>2021-09-19T10:36:49Z</time>
      </trkpt>
      <trkpt lat="42.73714" lon="1.53012">
        <ele>1995</ele>
        <time>2021-09-19T10:36:51Z</time>
      </trkpt>
      <trkpt lat="42.7371" lon="1.53004">
        <ele>1995.4</ele>
        <time>2021-09-19T10:36:55Z</time>
      </trkpt>
      <trkpt lat="42.73709" lon="1.53004">
        <ele>1995.4</ele>
        <time>2021-09-19T10:36:56Z</time>
      </trkpt>
      <trkpt lat="42.73704" lon="1.53004">
        <ele>1996</ele>
        <time>2021-09-19T10:37:02Z</time>
      </trkpt>
      <trkpt lat="42.73704" lon="1.53004">
        <ele>1996.2</ele>
        <time>2021-09-19T10:37:03Z</time>
      </trkpt>
      <trkpt lat="42.73703" lon="1.53003">
        <ele>1997</ele>
        <time>2021-09-19T10:37:08Z</time>
      </trkpt>
      <trkpt lat="42.73702" lon="1.53002">
        <ele>1997.4</ele>
        <time>2021-09-19T10:37:10Z</time>
      </trkpt>
      <trkpt lat="42.73701" lon="1.53002">
        <ele>1997.8</ele>
        <time>2021-09-19T10:37:11Z</time>
      </trkpt>
      <trkpt lat="42.737" lon="1.53002">
        <ele>1998.2</ele>
        <time>2021-09-19T10:37:12Z</time>
      </trkpt>
      <trkpt lat="42.73696" lon="1.53001">
        <ele>1999</ele>
        <time>2021-09-19T10:37:19Z</time>
      </trkpt>
      <trkpt lat="42.73695" lon="1.53001">
        <ele>1999.4</ele>
        <time>2021-09-19T10:37:20Z</time>
      </trkpt>
      <trkpt lat="42.73695" lon="1.52999">
        <ele>2000.2</ele>
        <time>2021-09-19T10:37:25Z</time>
      </trkpt>
      <trkpt lat="42.73695" lon="1.52999">
        <ele>2000.2</ele>
        <time>2021-09-19T10:37:26Z</time>
      </trkpt>
      <trkpt lat="42.73695" lon="1.53">
        <ele>2000.2</ele>
        <time>2021-09-19T10:37:28Z</time>
      </trkpt>
      <trkpt lat="42.73693" lon="1.52999">
        <ele>2000.2</ele>
        <time>2021-09-19T10:37:32Z</time>
      </trkpt>
      <trkpt lat="42.73692" lon="1.52999">
        <ele>2000.8</ele>
        <time>2021-09-19T10:37:35Z</time>
      </trkpt>
      <trkpt lat="42.73692" lon="1.52998">
        <ele>2001.6</ele>
        <time>2021-09-19T10:37:41Z</time>
      </trkpt>
      <trkpt lat="42.73692" lon="1.52999">
        <ele>2001.4</ele>
        <time>2021-09-19T10:37:50Z</time>
      </trkpt>
      <trkpt lat="42.73688" lon="1.52996">
        <ele>2001.8</ele>
        <time>2021-09-19T10:37:53Z</time>
      </trkpt>
      <trkpt lat="42.73687" lon="1.52995">
        <ele>2001.8</ele>
        <time>2021-09-19T10:37:54Z</time>
      </trkpt>
      <trkpt lat="42.73686" lon="1.52994">
        <ele>2002</ele>
        <time>2021-09-19T10:37:55Z</time>
      </trkpt>
      <trkpt lat="42.73684" lon="1.52993">
        <ele>2002.4</ele>
        <time>2021-09-19T10:37:57Z</time>
      </trkpt>
      <trkpt lat="42.73681" lon="1.52992">
        <ele>2002.8</ele>
        <time>2021-09-19T10:38:01Z</time>
      </trkpt>
      <trkpt lat="42.73676" lon="1.52992">
        <ele>2003</ele>
        <time>2021-09-19T10:38:05Z</time>
      </trkpt>
      <trkpt lat="42.73675" lon="1.52992">
        <ele>2003.4</ele>
        <time>2021-09-19T10:38:06Z</time>
      </trkpt>
      <trkpt lat="42.73673" lon="1.52992">
        <ele>2004</ele>
        <time>2021-09-19T10:38:09Z</time>
      </trkpt>
      <trkpt lat="42.73672" lon="1.52992">
        <ele>2004.2</ele>
        <time>2021-09-19T10:38:10Z</time>
      </trkpt>
      <trkpt lat="42.73668" lon="1.5299">
        <ele>2004.8</ele>
        <time>2021-09-19T10:38:14Z</time>
      </trkpt>
      <trkpt lat="42.73668" lon="1.52989">
        <ele>2005.2</ele>
        <time>2021-09-19T10:38:15Z</time>
      </trkpt>
      <trkpt lat="42.73667" lon="1.52988">
        <ele>2005.8</ele>
        <time>2021-09-19T10:38:19Z</time>
      </trkpt>
      <trkpt lat="42.73667" lon="1.52988">
        <ele>2006</ele>
        <time>2021-09-19T10:38:20Z</time>
      </trkpt>
      <trkpt lat="42.73667" lon="1.52987">
        <ele>2006.2</ele>
        <time>2021-09-19T10:38:21Z</time>
      </trkpt>
      <trkpt lat="42.73666" lon="1.52988">
        <ele>2006.4</ele>
        <time>2021-09-19T10:38:25Z</time>
      </trkpt>
      <trkpt lat="42.73666" lon="1.52987">
        <ele>2006.4</ele>
        <time>2021-09-19T10:38:26Z</time>
      </trkpt>
      <trkpt lat="42.73667" lon="1.52985">
        <ele>2006.6</ele>
        <time>2021-09-19T10:38:38Z</time>
      </trkpt>
      <trkpt lat="42.73667" lon="1.52985">
        <ele>2006.6</ele>
        <time>2021-09-19T10:38:39Z</time>
      </trkpt>
      <trkpt lat="42.73668" lon="1.52985">
        <ele>2006.2</ele>
        <time>2021-09-19T10:38:45Z</time>
      </trkpt>
      <trkpt lat="42.73667" lon="1.52984">
        <ele>2005.2</ele>
        <time>2021-09-19T10:38:56Z</time>
      </trkpt>
      <trkpt lat="42.73667" lon="1.52983">
        <ele>2005.2</ele>
        <time>2021-09-19T10:38:57Z</time>
      </trkpt>
      <trkpt lat="42.73666" lon="1.52983">
        <ele>2005.2</ele>
        <time>2021-09-19T10:38:58Z</time>
      </trkpt>
      <trkpt lat="42.73666" lon="1.52984">
        <ele>2005.2</ele>
        <time>2021-09-19T10:39:00Z</time>
      </trkpt>
      <trkpt lat="42.73666" lon="1.52986">
        <ele>2005.4</ele>
        <time>2021-09-19T10:39:03Z</time>
      </trkpt>
      <trkpt lat="42.73667" lon="1.52987">
        <ele>2005.6</ele>
        <time>2021-09-19T10:39:05Z</time>
      </trkpt>
      <trkpt lat="42.73667" lon="1.52986">
        <ele>2005.8</ele>
        <time>2021-09-19T10:39:08Z</time>
      </trkpt>
      <trkpt lat="42.73668" lon="1.52986">
        <ele>2005.8</ele>
        <time>2021-09-19T10:39:10Z</time>
      </trkpt>
      <trkpt lat="42.73668" lon="1.52986">
        <ele>2005.8</ele>
        <time>2021-09-19T10:39:11Z</time>
      </trkpt>
      <trkpt lat="42.73669" lon="1.52986">
        <ele>2006</ele>
        <time>2021-09-19T10:39:29Z</time>
      </trkpt>
      <trkpt lat="42.73669" lon="1.52986">
        <ele>2006.2</ele>
        <time>2021-09-19T10:39:32Z</time>
      </trkpt>
      <trkpt lat="42.73667" lon="1.52986">
        <ele>2006.2</ele>
        <time>2021-09-19T10:39:37Z</time>
      </trkpt>
      <trkpt lat="42.73664" lon="1.52983">
        <ele>2006.2</ele>
        <time>2021-09-19T10:39:44Z</time>
      </trkpt>
      <trkpt lat="42.7366" lon="1.52982">
        <ele>2007.2</ele>
        <time>2021-09-19T10:39:50Z</time>
      </trkpt>
      <trkpt lat="42.73659" lon="1.52982">
        <ele>2007.4</ele>
        <time>2021-09-19T10:39:51Z</time>
      </trkpt>
      <trkpt lat="42.73657" lon="1.52981">
        <ele>2008.4</ele>
        <time>2021-09-19T10:39:55Z</time>
      </trkpt>
      <trkpt lat="42.73657" lon="1.52981">
        <ele>2009</ele>
        <time>2021-09-19T10:39:57Z</time>
      </trkpt>
      <trkpt lat="42.73657" lon="1.5298">
        <ele>2009.4</ele>
        <time>2021-09-19T10:39:59Z</time>
      </trkpt>
      <trkpt lat="42.73656" lon="1.5298">
        <ele>2009.4</ele>
        <time>2021-09-19T10:40:00Z</time>
      </trkpt>
      <trkpt lat="42.73654" lon="1.5298">
        <ele>2010.4</ele>
        <time>2021-09-19T10:40:04Z</time>
      </trkpt>
      <trkpt lat="42.73653" lon="1.5298">
        <ele>2010.4</ele>
        <time>2021-09-19T10:40:05Z</time>
      </trkpt>
      <trkpt lat="42.73654" lon="1.5298">
        <ele>2010.8</ele>
        <time>2021-09-19T10:40:07Z</time>
      </trkpt>
      <trkpt lat="42.73653" lon="1.5298">
        <ele>2011.2</ele>
        <time>2021-09-19T10:40:09Z</time>
      </trkpt>
      <trkpt lat="42.73653" lon="1.52981">
        <ele>2011.4</ele>
        <time>2021-09-19T10:40:11Z</time>
      </trkpt>
      <trkpt lat="42.73651" lon="1.52979">
        <ele>2011.8</ele>
        <time>2021-09-19T10:40:15Z</time>
      </trkpt>
      <trkpt lat="42.73646" lon="1.52975">
        <ele>2012.4</ele>
        <time>2021-09-19T10:40:21Z</time>
      </trkpt>
      <trkpt lat="42.73646" lon="1.52975">
        <ele>2012.6</ele>
        <time>2021-09-19T10:40:22Z</time>
      </trkpt>
      <trkpt lat="42.73644" lon="1.52975">
        <ele>2013.4</ele>
        <time>2021-09-19T10:40:24Z</time>
      </trkpt>
      <trkpt lat="42.73643" lon="1.52975">
        <ele>2013.8</ele>
        <time>2021-09-19T10:40:25Z</time>
      </trkpt>
      <trkpt lat="42.7364" lon="1.52976">
        <ele>2014</ele>
        <time>2021-09-19T10:40:28Z</time>
      </trkpt>
      <trkpt lat="42.7364" lon="1.52975">
        <ele>2014.6</ele>
        <time>2021-09-19T10:40:31Z</time>
      </trkpt>
      <trkpt lat="42.73642" lon="1.52974">
        <ele>2014.8</ele>
        <time>2021-09-19T10:40:32Z</time>
      </trkpt>
      <trkpt lat="42.73642" lon="1.52973">
        <ele>2015</ele>
        <time>2021-09-19T10:40:34Z</time>
      </trkpt>
      <trkpt lat="42.73643" lon="1.52974">
        <ele>2015.2</ele>
        <time>2021-09-19T10:40:38Z</time>
      </trkpt>
      <trkpt lat="42.73643" lon="1.52972">
        <ele>2015.2</ele>
        <time>2021-09-19T10:40:47Z</time>
      </trkpt>
      <trkpt lat="42.73639" lon="1.52974">
        <ele>2015.4</ele>
        <time>2021-09-19T10:40:56Z</time>
      </trkpt>
      <trkpt lat="42.73635" lon="1.52973">
        <ele>2015.6</ele>
        <time>2021-09-19T10:40:58Z</time>
      </trkpt>
      <trkpt lat="42.73633" lon="1.52972">
        <ele>2016.2</ele>
        <time>2021-09-19T10:41:00Z</time>
      </trkpt>
      <trkpt lat="42.7363" lon="1.52967">
        <ele>2017.2</ele>
        <time>2021-09-19T10:41:05Z</time>
      </trkpt>
      <trkpt lat="42.73629" lon="1.52965">
        <ele>2017.2</ele>
        <time>2021-09-19T10:41:06Z</time>
      </trkpt>
      <trkpt lat="42.73629" lon="1.52964">
        <ele>2017.4</ele>
        <time>2021-09-19T10:41:08Z</time>
      </trkpt>
      <trkpt lat="42.73629" lon="1.52963">
        <ele>2017.4</ele>
        <time>2021-09-19T10:41:10Z</time>
      </trkpt>
      <trkpt lat="42.73629" lon="1.52962">
        <ele>2017.8</ele>
        <time>2021-09-19T10:41:12Z</time>
      </trkpt>
      <trkpt lat="42.73628" lon="1.5296">
        <ele>2018.4</ele>
        <time>2021-09-19T10:41:15Z</time>
      </trkpt>
      <trkpt lat="42.73625" lon="1.52961">
        <ele>2019.6</ele>
        <time>2021-09-19T10:41:18Z</time>
      </trkpt>
      <trkpt lat="42.73619" lon="1.5296">
        <ele>2020.6</ele>
        <time>2021-09-19T10:41:23Z</time>
      </trkpt>
      <trkpt lat="42.73618" lon="1.52961">
        <ele>2021.6</ele>
        <time>2021-09-19T10:41:26Z</time>
      </trkpt>
      <trkpt lat="42.73618" lon="1.52961">
        <ele>2021.8</ele>
        <time>2021-09-19T10:41:27Z</time>
      </trkpt>
      <trkpt lat="42.73617" lon="1.5296">
        <ele>2022</ele>
        <time>2021-09-19T10:41:28Z</time>
      </trkpt>
      <trkpt lat="42.73616" lon="1.52959">
        <ele>2022.2</ele>
        <time>2021-09-19T10:41:30Z</time>
      </trkpt>
      <trkpt lat="42.73613" lon="1.5296">
        <ele>2022.8</ele>
        <time>2021-09-19T10:41:33Z</time>
      </trkpt>
      <trkpt lat="42.7361" lon="1.5296">
        <ele>2023.4</ele>
        <time>2021-09-19T10:41:36Z</time>
      </trkpt>
      <trkpt lat="42.73609" lon="1.52961">
        <ele>2023.6</ele>
        <time>2021-09-19T10:41:38Z</time>
      </trkpt>
      <trkpt lat="42.73606" lon="1.52961">
        <ele>2024.4</ele>
        <time>2021-09-19T10:41:41Z</time>
      </trkpt>
      <trkpt lat="42.73605" lon="1.52961">
        <ele>2024.6</ele>
        <time>2021-09-19T10:41:42Z</time>
      </trkpt>
      <trkpt lat="42.73601" lon="1.52961">
        <ele>2025.4</ele>
        <time>2021-09-19T10:41:46Z</time>
      </trkpt>
      <trkpt lat="42.73599" lon="1.52961">
        <ele>2025.6</ele>
        <time>2021-09-19T10:41:49Z</time>
      </trkpt>
      <trkpt lat="42.73596" lon="1.5296">
        <ele>2026.6</ele>
        <time>2021-09-19T10:41:53Z</time>
      </trkpt>
      <trkpt lat="42.73591" lon="1.52959">
        <ele>2027.6</ele>
        <time>2021-09-19T10:41:57Z</time>
      </trkpt>
      <trkpt lat="42.7359" lon="1.52959">
        <ele>2027.6</ele>
        <time>2021-09-19T10:41:58Z</time>
      </trkpt>
      <trkpt lat="42.73587" lon="1.52957">
        <ele>2028.6</ele>
        <time>2021-09-19T10:42:02Z</time>
      </trkpt>
      <trkpt lat="42.73586" lon="1.52957">
        <ele>2029</ele>
        <time>2021-09-19T10:42:06Z</time>
      </trkpt>
      <trkpt lat="42.73585" lon="1.52957">
        <ele>2029</ele>
        <time>2021-09-19T10:42:10Z</time>
      </trkpt>
      <trkpt lat="42.73583" lon="1.52957">
        <ele>2029.6</ele>
        <time>2021-09-19T10:42:12Z</time>
      </trkpt>
      <trkpt lat="42.73582" lon="1.52957">
        <ele>2029.8</ele>
        <time>2021-09-19T10:42:13Z</time>
      </trkpt>
      <trkpt lat="42.73581" lon="1.52957">
        <ele>2030</ele>
        <time>2021-09-19T10:42:14Z</time>
      </trkpt>
      <trkpt lat="42.7358" lon="1.52957">
        <ele>2030.4</ele>
        <time>2021-09-19T10:42:16Z</time>
      </trkpt>
      <trkpt lat="42.73577" lon="1.52956">
        <ele>2030.6</ele>
        <time>2021-09-19T10:42:18Z</time>
      </trkpt>
      <trkpt lat="42.73574" lon="1.52957">
        <ele>2030.8</ele>
        <time>2021-09-19T10:42:22Z</time>
      </trkpt>
      <trkpt lat="42.73571" lon="1.52957">
        <ele>2031.4</ele>
        <time>2021-09-19T10:42:25Z</time>
      </trkpt>
      <trkpt lat="42.73568" lon="1.52958">
        <ele>2031.8</ele>
        <time>2021-09-19T10:42:28Z</time>
      </trkpt>
      <trkpt lat="42.73565" lon="1.5296">
        <ele>2032</ele>
        <time>2021-09-19T10:42:32Z</time>
      </trkpt>
      <trkpt lat="42.73561" lon="1.5296">
        <ele>2033</ele>
        <time>2021-09-19T10:42:38Z</time>
      </trkpt>
      <trkpt lat="42.73559" lon="1.52961">
        <ele>2034.2</ele>
        <time>2021-09-19T10:42:42Z</time>
      </trkpt>
      <trkpt lat="42.73557" lon="1.52961">
        <ele>2035.2</ele>
        <time>2021-09-19T10:42:45Z</time>
      </trkpt>
      <trkpt lat="42.73556" lon="1.52961">
        <ele>2035.8</ele>
        <time>2021-09-19T10:42:46Z</time>
      </trkpt>
      <trkpt lat="42.7355" lon="1.52961">
        <ele>2036.6</ele>
        <time>2021-09-19T10:42:53Z</time>
      </trkpt>
      <trkpt lat="42.73549" lon="1.52962">
        <ele>2036.8</ele>
        <time>2021-09-19T10:42:55Z</time>
      </trkpt>
      <trkpt lat="42.73547" lon="1.52963">
        <ele>2037.6</ele>
        <time>2021-09-19T10:42:59Z</time>
      </trkpt>
      <trkpt lat="42.73546" lon="1.52963">
        <ele>2037.8</ele>
        <time>2021-09-19T10:43:00Z</time>
      </trkpt>
      <trkpt lat="42.73544" lon="1.52964">
        <ele>2038.6</ele>
        <time>2021-09-19T10:43:05Z</time>
      </trkpt>
      <trkpt lat="42.73543" lon="1.52963">
        <ele>2039</ele>
        <time>2021-09-19T10:43:07Z</time>
      </trkpt>
      <trkpt lat="42.73542" lon="1.52963">
        <ele>2039.2</ele>
        <time>2021-09-19T10:43:10Z</time>
      </trkpt>
      <trkpt lat="42.73537" lon="1.52968">
        <ele>2040</ele>
        <time>2021-09-19T10:43:15Z</time>
      </trkpt>
      <trkpt lat="42.73536" lon="1.52968">
        <ele>2040</ele>
        <time>2021-09-19T10:43:16Z</time>
      </trkpt>
      <trkpt lat="42.73535" lon="1.52972">
        <ele>2041.2</ele>
        <time>2021-09-19T10:43:22Z</time>
      </trkpt>
      <trkpt lat="42.73536" lon="1.52973">
        <ele>2041.4</ele>
        <time>2021-09-19T10:43:23Z</time>
      </trkpt>
      <trkpt lat="42.73536" lon="1.52976">
        <ele>2041.8</ele>
        <time>2021-09-19T10:43:26Z</time>
      </trkpt>
      <trkpt lat="42.73536" lon="1.52979">
        <ele>2042.2</ele>
        <time>2021-09-19T10:43:28Z</time>
      </trkpt>
      <trkpt lat="42.73536" lon="1.52981">
        <ele>2042.4</ele>
        <time>2021-09-19T10:43:30Z</time>
      </trkpt>
      <trkpt lat="42.73535" lon="1.52982">
        <ele>2042.8</ele>
        <time>2021-09-19T10:43:32Z</time>
      </trkpt>
      <trkpt lat="42.73534" lon="1.52983">
        <ele>2043.2</ele>
        <time>2021-09-19T10:43:34Z</time>
      </trkpt>
      <trkpt lat="42.73533" lon="1.52983">
        <ele>2043.4</ele>
        <time>2021-09-19T10:43:35Z</time>
      </trkpt>
      <trkpt lat="42.73529" lon="1.52983">
        <ele>2044.4</ele>
        <time>2021-09-19T10:43:41Z</time>
      </trkpt>
      <trkpt lat="42.73528" lon="1.52986">
        <ele>2045.2</ele>
        <time>2021-09-19T10:43:44Z</time>
      </trkpt>
      <trkpt lat="42.73529" lon="1.52986">
        <ele>2045.8</ele>
        <time>2021-09-19T10:43:45Z</time>
      </trkpt>
      <trkpt lat="42.73528" lon="1.52986">
        <ele>2046.2</ele>
        <time>2021-09-19T10:43:47Z</time>
      </trkpt>
      <trkpt lat="42.73524" lon="1.52987">
        <ele>2046.6</ele>
        <time>2021-09-19T10:43:54Z</time>
      </trkpt>
      <trkpt lat="42.73526" lon="1.52988">
        <ele>2046.4</ele>
        <time>2021-09-19T10:44:00Z</time>
      </trkpt>
      <trkpt lat="42.73528" lon="1.52992">
        <ele>2046.8</ele>
        <time>2021-09-19T10:44:07Z</time>
      </trkpt>
      <trkpt lat="42.73528" lon="1.52993">
        <ele>2047</ele>
        <time>2021-09-19T10:44:09Z</time>
      </trkpt>
      <trkpt lat="42.73528" lon="1.52995">
        <ele>2047.6</ele>
        <time>2021-09-19T10:44:11Z</time>
      </trkpt>
      <trkpt lat="42.73527" lon="1.52995">
        <ele>2048</ele>
        <time>2021-09-19T10:44:14Z</time>
      </trkpt>
      <trkpt lat="42.73528" lon="1.52998">
        <ele>2047.6</ele>
        <time>2021-09-19T10:44:26Z</time>
      </trkpt>
      <trkpt lat="42.7353" lon="1.52996">
        <ele>2047.6</ele>
        <time>2021-09-19T10:44:32Z</time>
      </trkpt>
      <trkpt lat="42.73529" lon="1.52996">
        <ele>2047.6</ele>
        <time>2021-09-19T10:44:35Z</time>
      </trkpt>
      <trkpt lat="42.73529" lon="1.52994">
        <ele>2048.4</ele>
        <time>2021-09-19T10:44:44Z</time>
      </trkpt>
      <trkpt lat="42.73529" lon="1.52994">
        <ele>2048.6</ele>
        <time>2021-09-19T10:44:45Z</time>
      </trkpt>
      <trkpt lat="42.73528" lon="1.52995">
        <ele>2048.6</ele>
        <time>2021-09-19T10:44:57Z</time>
      </trkpt>
      <trkpt lat="42.73528" lon="1.52994">
        <ele>2048.6</ele>
        <time>2021-09-19T10:44:58Z</time>
      </trkpt>
      <trkpt lat="42.73528" lon="1.52994">
        <ele>2048.6</ele>
        <time>2021-09-19T10:44:59Z</time>
      </trkpt>
      <trkpt lat="42.73527" lon="1.52994">
        <ele>2049</ele>
        <time>2021-09-19T10:45:04Z</time>
      </trkpt>
      <trkpt lat="42.73527" lon="1.52995">
        <ele>2049</ele>
        <time>2021-09-19T10:45:07Z</time>
      </trkpt>
      <trkpt lat="42.73527" lon="1.52996">
        <ele>2049</ele>
        <time>2021-09-19T10:45:08Z</time>
      </trkpt>
      <trkpt lat="42.73527" lon="1.52996">
        <ele>2049</ele>
        <time>2021-09-19T10:45:09Z</time>
      </trkpt>
      <trkpt lat="42.73528" lon="1.52996">
        <ele>2049.4</ele>
        <time>2021-09-19T10:45:20Z</time>
      </trkpt>
      <trkpt lat="42.73527" lon="1.52996">
        <ele>2048.8</ele>
        <time>2021-09-19T10:45:30Z</time>
      </trkpt>
      <trkpt lat="42.73528" lon="1.52998">
        <ele>2048.6</ele>
        <time>2021-09-19T10:45:36Z</time>
      </trkpt>
      <trkpt lat="42.73528" lon="1.52998">
        <ele>2048.4</ele>
        <time>2021-09-19T10:45:38Z</time>
      </trkpt>
      <trkpt lat="42.7353" lon="1.52996">
        <ele>2048.8</ele>
        <time>2021-09-19T10:45:46Z</time>
      </trkpt>
      <trkpt lat="42.73532" lon="1.52995">
        <ele>2049</ele>
        <time>2021-09-19T10:45:54Z</time>
      </trkpt>
      <trkpt lat="42.73532" lon="1.52996">
        <ele>2048.8</ele>
        <time>2021-09-19T10:46:05Z</time>
      </trkpt>
      <trkpt lat="42.73532" lon="1.52996">
        <ele>2048.8</ele>
        <time>2021-09-19T10:46:06Z</time>
      </trkpt>
      <trkpt lat="42.73532" lon="1.52996">
        <ele>2048.8</ele>
        <time>2021-09-19T10:46:07Z</time>
      </trkpt>
      <trkpt lat="42.73532" lon="1.52996">
        <ele>2048.6</ele>
        <time>2021-09-19T10:46:11Z</time>
      </trkpt>
      <trkpt lat="42.73531" lon="1.52997">
        <ele>2048.6</ele>
        <time>2021-09-19T10:46:22Z</time>
      </trkpt>
      <trkpt lat="42.73528" lon="1.52995">
        <ele>2048.8</ele>
        <time>2021-09-19T10:46:29Z</time>
      </trkpt>
      <trkpt lat="42.73527" lon="1.52994">
        <ele>2048.8</ele>
        <time>2021-09-19T10:46:32Z</time>
      </trkpt>
      <trkpt lat="42.73526" lon="1.52995">
        <ele>2048.4</ele>
        <time>2021-09-19T10:46:35Z</time>
      </trkpt>
      <trkpt lat="42.73526" lon="1.52995">
        <ele>2048.4</ele>
        <time>2021-09-19T10:46:41Z</time>
      </trkpt>
      <trkpt lat="42.73527" lon="1.52995">
        <ele>2048.6</ele>
        <time>2021-09-19T10:46:45Z</time>
      </trkpt>
      <trkpt lat="42.7353" lon="1.52996">
        <ele>2048.6</ele>
        <time>2021-09-19T10:46:54Z</time>
      </trkpt>
      <trkpt lat="42.73529" lon="1.52997">
        <ele>2048.6</ele>
        <time>2021-09-19T10:46:58Z</time>
      </trkpt>
      <trkpt lat="42.7353" lon="1.52996">
        <ele>2048</ele>
        <time>2021-09-19T10:47:01Z</time>
      </trkpt>
      <trkpt lat="42.73529" lon="1.52994">
        <ele>2047.8</ele>
        <time>2021-09-19T10:47:14Z</time>
      </trkpt>
      <trkpt lat="42.73528" lon="1.52994">
        <ele>2047.6</ele>
        <time>2021-09-19T10:47:16Z</time>
      </trkpt>
      <trkpt lat="42.73527" lon="1.52994">
        <ele>2047.8</ele>
        <time>2021-09-19T10:47:18Z</time>
      </trkpt>
      <trkpt lat="42.73528" lon="1.52995">
        <ele>2047.8</ele>
        <time>2021-09-19T10:47:20Z</time>
      </trkpt>
      <trkpt lat="42.73527" lon="1.52996">
        <ele>2021.2</ele>
        <time>2021-09-19T11:45:03Z</time>
      </trkpt>
      <trkpt lat="42.73528" lon="1.52996">
        <ele>2021.2</ele>
        <time>2021-09-19T11:45:06Z</time>
      </trkpt>
      <trkpt lat="42.7353" lon="1.52995">
        <ele>2021.2</ele>
        <time>2021-09-19T11:45:13Z</time>
      </trkpt>
      <trkpt lat="42.7353" lon="1.52996">
        <ele>2021.4</ele>
        <time>2021-09-19T11:45:21Z</time>
      </trkpt>
      <trkpt lat="42.7353" lon="1.52996">
        <ele>2021.2</ele>
        <time>2021-09-19T11:45:28Z</time>
      </trkpt>
      <trkpt lat="42.7353" lon="1.52995">
        <ele>2021.2</ele>
        <time>2021-09-19T11:45:33Z</time>
      </trkpt>
      <trkpt lat="42.7353" lon="1.52996">
        <ele>2021.2</ele>
        <time>2021-09-19T11:45:38Z</time>
      </trkpt>
      <trkpt lat="42.7353" lon="1.52996">
        <ele>2021.2</ele>
        <time>2021-09-19T11:45:39Z</time>
      </trkpt>
      <trkpt lat="42.73529" lon="1.52997">
        <ele>2021.2</ele>
        <time>2021-09-19T11:45:48Z</time>
      </trkpt>
      <trkpt lat="42.73528" lon="1.52997">
        <ele>2021.2</ele>
        <time>2021-09-19T11:45:50Z</time>
      </trkpt>
      <trkpt lat="42.73528" lon="1.52997">
        <ele>2021.2</ele>
        <time>2021-09-19T11:45:51Z</time>
      </trkpt>
      <trkpt lat="42.73528" lon="1.52997">
        <ele>2021</ele>
        <time>2021-09-19T11:45:54Z</time>
      </trkpt>
      <trkpt lat="42.73527" lon="1.52997">
        <ele>2020.8</ele>
        <time>2021-09-19T11:45:59Z</time>
      </trkpt>
      <trkpt lat="42.7353" lon="1.52994">
        <ele>2021</ele>
        <time>2021-09-19T11:46:11Z</time>
      </trkpt>
      <trkpt lat="42.73527" lon="1.52995">
        <ele>2021</ele>
        <time>2021-09-19T11:46:19Z</time>
      </trkpt>
      <trkpt lat="42.73529" lon="1.52989">
        <ele>2021</ele>
        <time>2021-09-19T11:46:24Z</time>
      </trkpt>
      <trkpt lat="42.73529" lon="1.52988">
        <ele>2021</ele>
        <time>2021-09-19T11:46:25Z</time>
      </trkpt>
      <trkpt lat="42.73529" lon="1.52985">
        <ele>2021</ele>
        <time>2021-09-19T11:46:27Z</time>
      </trkpt>
      <trkpt lat="42.73529" lon="1.52983">
        <ele>2021</ele>
        <time>2021-09-19T11:46:30Z</time>
      </trkpt>
      <trkpt lat="42.73529" lon="1.52983">
        <ele>2021</ele>
        <time>2021-09-19T11:46:31Z</time>
      </trkpt>
      <trkpt lat="42.73529" lon="1.52981">
        <ele>2021</ele>
        <time>2021-09-19T11:46:34Z</time>
      </trkpt>
      <trkpt lat="42.73529" lon="1.5298">
        <ele>2021</ele>
        <time>2021-09-19T11:46:36Z</time>
      </trkpt>
      <trkpt lat="42.73529" lon="1.52978">
        <ele>2021</ele>
        <time>2021-09-19T11:46:41Z</time>
      </trkpt>
      <trkpt lat="42.73529" lon="1.52976">
        <ele>2021</ele>
        <time>2021-09-19T11:46:44Z</time>
      </trkpt>
      <trkpt lat="42.73529" lon="1.52971">
        <ele>2021</ele>
        <time>2021-09-19T11:46:49Z</time>
      </trkpt>
      <trkpt lat="42.73529" lon="1.52969">
        <ele>2021</ele>
        <time>2021-09-19T11:46:51Z</time>
      </trkpt>
      <trkpt lat="42.73529" lon="1.52962">
        <ele>2021</ele>
        <time>2021-09-19T11:46:56Z</time>
      </trkpt>
      <trkpt lat="42.7353" lon="1.52957">
        <ele>2021</ele>
        <time>2021-09-19T11:47:02Z</time>
      </trkpt>
      <trkpt lat="42.73531" lon="1.52957">
        <ele>2018.2</ele>
        <time>2021-09-19T11:47:04Z</time>
      </trkpt>
      <trkpt lat="42.73531" lon="1.52957">
        <ele>2016.6</ele>
        <time>2021-09-19T11:47:05Z</time>
      </trkpt>
      <trkpt lat="42.73532" lon="1.52959">
        <ele>2015.2</ele>
        <time>2021-09-19T11:47:07Z</time>
      </trkpt>
      <trkpt lat="42.73533" lon="1.52961">
        <ele>2014.6</ele>
        <time>2021-09-19T11:47:09Z</time>
      </trkpt>
      <trkpt lat="42.73535" lon="1.52961">
        <ele>2014.2</ele>
        <time>2021-09-19T11:47:11Z</time>
      </trkpt>
      <trkpt lat="42.73536" lon="1.52961">
        <ele>2014</ele>
        <time>2021-09-19T11:47:12Z</time>
      </trkpt>
      <trkpt lat="42.73536" lon="1.52962">
        <ele>2013.8</ele>
        <time>2021-09-19T11:47:13Z</time>
      </trkpt>
      <trkpt lat="42.73538" lon="1.52964">
        <ele>2013.4</ele>
        <time>2021-09-19T11:47:17Z</time>
      </trkpt>
      <trkpt lat="42.7354" lon="1.52964">
        <ele>2013</ele>
        <time>2021-09-19T11:47:21Z</time>
      </trkpt>
      <trkpt lat="42.73544" lon="1.52964">
        <ele>2012.2</ele>
        <time>2021-09-19T11:47:26Z</time>
      </trkpt>
      <trkpt lat="42.73546" lon="1.52964">
        <ele>2011.8</ele>
        <time>2021-09-19T11:47:28Z</time>
      </trkpt>
      <trkpt lat="42.73549" lon="1.52961">
        <ele>2010.6</ele>
        <time>2021-09-19T11:47:31Z</time>
      </trkpt>
      <trkpt lat="42.73551" lon="1.5296">
        <ele>2009.8</ele>
        <time>2021-09-19T11:47:35Z</time>
      </trkpt>
      <trkpt lat="42.73552" lon="1.52958">
        <ele>2009.4</ele>
        <time>2021-09-19T11:47:37Z</time>
      </trkpt>
      <trkpt lat="42.73557" lon="1.52955">
        <ele>2009</ele>
        <time>2021-09-19T11:47:42Z</time>
      </trkpt>
      <trkpt lat="42.7356" lon="1.52954">
        <ele>2008.4</ele>
        <time>2021-09-19T11:47:46Z</time>
      </trkpt>
      <trkpt lat="42.73561" lon="1.52954">
        <ele>2008</ele>
        <time>2021-09-19T11:47:48Z</time>
      </trkpt>
      <trkpt lat="42.73562" lon="1.52953">
        <ele>2008</ele>
        <time>2021-09-19T11:47:49Z</time>
      </trkpt>
      <trkpt lat="42.73563" lon="1.52951">
        <ele>2007.8</ele>
        <time>2021-09-19T11:47:51Z</time>
      </trkpt>
      <trkpt lat="42.73566" lon="1.52946">
        <ele>2007.2</ele>
        <time>2021-09-19T11:47:54Z</time>
      </trkpt>
      <trkpt lat="42.73568" lon="1.52944">
        <ele>2006.6</ele>
        <time>2021-09-19T11:47:56Z</time>
      </trkpt>
      <trkpt lat="42.73571" lon="1.52942">
        <ele>2006.8</ele>
        <time>2021-09-19T11:47:59Z</time>
      </trkpt>
      <trkpt lat="42.73575" lon="1.52939">
        <ele>2006.2</ele>
        <time>2021-09-19T11:48:05Z</time>
      </trkpt>
      <trkpt lat="42.73579" lon="1.52938">
        <ele>2006</ele>
        <time>2021-09-19T11:48:10Z</time>
      </trkpt>
      <trkpt lat="42.7358" lon="1.52937">
        <ele>2006</ele>
        <time>2021-09-19T11:48:12Z</time>
      </trkpt>
      <trkpt lat="42.73585" lon="1.52935">
        <ele>2005.8</ele>
        <time>2021-09-19T11:48:18Z</time>
      </trkpt>
      <trkpt lat="42.73585" lon="1.52934">
        <ele>2005.8</ele>
        <time>2021-09-19T11:48:19Z</time>
      </trkpt>
      <trkpt lat="42.7359" lon="1.52933">
        <ele>2005</ele>
        <time>2021-09-19T11:48:24Z</time>
      </trkpt>
      <trkpt lat="42.73591" lon="1.52933">
        <ele>2004.8</ele>
        <time>2021-09-19T11:48:25Z</time>
      </trkpt>
      <trkpt lat="42.73592" lon="1.52933">
        <ele>2004.4</ele>
        <time>2021-09-19T11:48:27Z</time>
      </trkpt>
      <trkpt lat="42.73593" lon="1.52933">
        <ele>2004</ele>
        <time>2021-09-19T11:48:32Z</time>
      </trkpt>
      <trkpt lat="42.73593" lon="1.52934">
        <ele>2004</ele>
        <time>2021-09-19T11:48:33Z</time>
      </trkpt>
      <trkpt lat="42.73594" lon="1.52934">
        <ele>2003.8</ele>
        <time>2021-09-19T11:48:36Z</time>
      </trkpt>
      <trkpt lat="42.73595" lon="1.52933">
        <ele>2003.4</ele>
        <time>2021-09-19T11:48:44Z</time>
      </trkpt>
      <trkpt lat="42.73596" lon="1.52933">
        <ele>2003.2</ele>
        <time>2021-09-19T11:48:45Z</time>
      </trkpt>
      <trkpt lat="42.73599" lon="1.52933">
        <ele>2002.8</ele>
        <time>2021-09-19T11:48:48Z</time>
      </trkpt>
      <trkpt lat="42.736" lon="1.52934">
        <ele>2002.6</ele>
        <time>2021-09-19T11:48:49Z</time>
      </trkpt>
      <trkpt lat="42.73603" lon="1.52935">
        <ele>2002.6</ele>
        <time>2021-09-19T11:48:51Z</time>
      </trkpt>
      <trkpt lat="42.73606" lon="1.52936">
        <ele>2001.6</ele>
        <time>2021-09-19T11:48:57Z</time>
      </trkpt>
      <trkpt lat="42.73607" lon="1.52936">
        <ele>2001</ele>
        <time>2021-09-19T11:48:59Z</time>
      </trkpt>
      <trkpt lat="42.73608" lon="1.52936">
        <ele>2000.6</ele>
        <time>2021-09-19T11:49:01Z</time>
      </trkpt>
      <trkpt lat="42.73609" lon="1.52937">
        <ele>2000.4</ele>
        <time>2021-09-19T11:49:03Z</time>
      </trkpt>
      <trkpt lat="42.73612" lon="1.52938">
        <ele>2000.2</ele>
        <time>2021-09-19T11:49:06Z</time>
      </trkpt>
      <trkpt lat="42.73616" lon="1.52941">
        <ele>1999.2</ele>
        <time>2021-09-19T11:49:11Z</time>
      </trkpt>
      <trkpt lat="42.73617" lon="1.52941">
        <ele>1999</ele>
        <time>2021-09-19T11:49:13Z</time>
      </trkpt>
      <trkpt lat="42.73621" lon="1.52944">
        <ele>1998</ele>
        <time>2021-09-19T11:49:19Z</time>
      </trkpt>
      <trkpt lat="42.73624" lon="1.52945">
        <ele>1997.2</ele>
        <time>2021-09-19T11:49:22Z</time>
      </trkpt>
      <trkpt lat="42.73625" lon="1.52945">
        <ele>1997</ele>
        <time>2021-09-19T11:49:24Z</time>
      </trkpt>
      <trkpt lat="42.73629" lon="1.52948">
        <ele>1996</ele>
        <time>2021-09-19T11:49:28Z</time>
      </trkpt>
      <trkpt lat="42.73631" lon="1.52949">
        <ele>1995.8</ele>
        <time>2021-09-19T11:49:29Z</time>
      </trkpt>
      <trkpt lat="42.73638" lon="1.52951">
        <ele>1994.6</ele>
        <time>2021-09-19T11:49:33Z</time>
      </trkpt>
      <trkpt lat="42.73642" lon="1.52953">
        <ele>1993.6</ele>
        <time>2021-09-19T11:49:35Z</time>
      </trkpt>
      <trkpt lat="42.73644" lon="1.52955">
        <ele>1992.6</ele>
        <time>2021-09-19T11:49:37Z</time>
      </trkpt>
      <trkpt lat="42.73645" lon="1.52956">
        <ele>1992</ele>
        <time>2021-09-19T11:49:38Z</time>
      </trkpt>
      <trkpt lat="42.73645" lon="1.52957">
        <ele>1991.8</ele>
        <time>2021-09-19T11:49:39Z</time>
      </trkpt>
      <trkpt lat="42.73644" lon="1.52958">
        <ele>1991.6</ele>
        <time>2021-09-19T11:49:41Z</time>
      </trkpt>
      <trkpt lat="42.73644" lon="1.52958">
        <ele>1991.8</ele>
        <time>2021-09-19T11:49:42Z</time>
      </trkpt>
      <trkpt lat="42.73643" lon="1.52952">
        <ele>1991.8</ele>
        <time>2021-09-19T11:49:48Z</time>
      </trkpt>
      <trkpt lat="42.73646" lon="1.52954">
        <ele>1990.8</ele>
        <time>2021-09-19T11:49:53Z</time>
      </trkpt>
      <trkpt lat="42.73647" lon="1.52954">
        <ele>1990.8</ele>
        <time>2021-09-19T11:49:54Z</time>
      </trkpt>
      <trkpt lat="42.73651" lon="1.52957">
        <ele>1989.8</ele>
        <time>2021-09-19T11:49:59Z</time>
      </trkpt>
      <trkpt lat="42.73651" lon="1.52957">
        <ele>1989.8</ele>
        <time>2021-09-19T11:50:00Z</time>
      </trkpt>
      <trkpt lat="42.73655" lon="1.52958">
        <ele>1988.8</ele>
        <time>2021-09-19T11:50:05Z</time>
      </trkpt>
      <trkpt lat="42.73657" lon="1.52959">
        <ele>1987.8</ele>
        <time>2021-09-19T11:50:09Z</time>
      </trkpt>
      <trkpt lat="42.73658" lon="1.5296">
        <ele>1987.6</ele>
        <time>2021-09-19T11:50:10Z</time>
      </trkpt>
      <trkpt lat="42.7366" lon="1.52963">
        <ele>1986.4</ele>
        <time>2021-09-19T11:50:14Z</time>
      </trkpt>
      <trkpt lat="42.73663" lon="1.52966">
        <ele>1985.6</ele>
        <time>2021-09-19T11:50:18Z</time>
      </trkpt>
      <trkpt lat="42.73665" lon="1.52965">
        <ele>1985.2</ele>
        <time>2021-09-19T11:50:20Z</time>
      </trkpt>
      <trkpt lat="42.73668" lon="1.52966">
        <ele>1984.8</ele>
        <time>2021-09-19T11:50:23Z</time>
      </trkpt>
      <trkpt lat="42.73669" lon="1.52967">
        <ele>1984.6</ele>
        <time>2021-09-19T11:50:25Z</time>
      </trkpt>
      <trkpt lat="42.73673" lon="1.5297">
        <ele>1984</ele>
        <time>2021-09-19T11:50:29Z</time>
      </trkpt>
      <trkpt lat="42.73675" lon="1.52972">
        <ele>1983.2</ele>
        <time>2021-09-19T11:50:31Z</time>
      </trkpt>
      <trkpt lat="42.73677" lon="1.52973">
        <ele>1982.8</ele>
        <time>2021-09-19T11:50:33Z</time>
      </trkpt>
      <trkpt lat="42.73681" lon="1.52975">
        <ele>1982</ele>
        <time>2021-09-19T11:50:38Z</time>
      </trkpt>
      <trkpt lat="42.73683" lon="1.52977">
        <ele>1981.8</ele>
        <time>2021-09-19T11:50:40Z</time>
      </trkpt>
      <trkpt lat="42.73686" lon="1.52978">
        <ele>1981</ele>
        <time>2021-09-19T11:50:44Z</time>
      </trkpt>
      <trkpt lat="42.73686" lon="1.52978">
        <ele>1980.6</ele>
        <time>2021-09-19T11:50:45Z</time>
      </trkpt>
      <trkpt lat="42.7369" lon="1.52981">
        <ele>1979.6</ele>
        <time>2021-09-19T11:50:50Z</time>
      </trkpt>
      <trkpt lat="42.73695" lon="1.52983">
        <ele>1979.2</ele>
        <time>2021-09-19T11:50:55Z</time>
      </trkpt>
      <trkpt lat="42.73697" lon="1.52985">
        <ele>1978.6</ele>
        <time>2021-09-19T11:50:59Z</time>
      </trkpt>
      <trkpt lat="42.73697" lon="1.52985">
        <ele>1978.4</ele>
        <time>2021-09-19T11:51:00Z</time>
      </trkpt>
      <trkpt lat="42.73699" lon="1.52986">
        <ele>1977.6</ele>
        <time>2021-09-19T11:51:03Z</time>
      </trkpt>
      <trkpt lat="42.737" lon="1.52987">
        <ele>1977.4</ele>
        <time>2021-09-19T11:51:04Z</time>
      </trkpt>
      <trkpt lat="42.73703" lon="1.52989">
        <ele>1977</ele>
        <time>2021-09-19T11:51:08Z</time>
      </trkpt>
      <trkpt lat="42.73704" lon="1.5299">
        <ele>1976.4</ele>
        <time>2021-09-19T11:51:10Z</time>
      </trkpt>
      <trkpt lat="42.73706" lon="1.52992">
        <ele>1975.4</ele>
        <time>2021-09-19T11:51:13Z</time>
      </trkpt>
      <trkpt lat="42.73707" lon="1.52992">
        <ele>1975.2</ele>
        <time>2021-09-19T11:51:14Z</time>
      </trkpt>
      <trkpt lat="42.73712" lon="1.52996">
        <ele>1974</ele>
        <time>2021-09-19T11:51:20Z</time>
      </trkpt>
      <trkpt lat="42.73713" lon="1.52999">
        <ele>1972.8</ele>
        <time>2021-09-19T11:51:23Z</time>
      </trkpt>
      <trkpt lat="42.73715" lon="1.53001">
        <ele>1971.8</ele>
        <time>2021-09-19T11:51:26Z</time>
      </trkpt>
      <trkpt lat="42.73716" lon="1.53002">
        <ele>1971.6</ele>
        <time>2021-09-19T11:51:27Z</time>
      </trkpt>
      <trkpt lat="42.7372" lon="1.53007">
        <ele>1970.6</ele>
        <time>2021-09-19T11:51:33Z</time>
      </trkpt>
      <trkpt lat="42.73721" lon="1.53009">
        <ele>1970.2</ele>
        <time>2021-09-19T11:51:35Z</time>
      </trkpt>
      <trkpt lat="42.73722" lon="1.53012">
        <ele>1969.4</ele>
        <time>2021-09-19T11:51:40Z</time>
      </trkpt>
      <trkpt lat="42.73723" lon="1.53012">
        <ele>1968.4</ele>
        <time>2021-09-19T11:51:43Z</time>
      </trkpt>
      <trkpt lat="42.73724" lon="1.53013">
        <ele>1968</ele>
        <time>2021-09-19T11:51:44Z</time>
      </trkpt>
      <trkpt lat="42.73726" lon="1.53015">
        <ele>1967.4</ele>
        <time>2021-09-19T11:51:50Z</time>
      </trkpt>
      <trkpt lat="42.73727" lon="1.53016">
        <ele>1967</ele>
        <time>2021-09-19T11:51:52Z</time>
      </trkpt>
      <trkpt lat="42.73728" lon="1.53016">
        <ele>1965.6</ele>
        <time>2021-09-19T11:51:56Z</time>
      </trkpt>
      <trkpt lat="42.73731" lon="1.53017">
        <ele>1964.4</ele>
        <time>2021-09-19T11:52:00Z</time>
      </trkpt>
      <trkpt lat="42.73735" lon="1.5302">
        <ele>1963.8</ele>
        <time>2021-09-19T11:52:03Z</time>
      </trkpt>
      <trkpt lat="42.73735" lon="1.53021">
        <ele>1963.4</ele>
        <time>2021-09-19T11:52:05Z</time>
      </trkpt>
      <trkpt lat="42.73735" lon="1.53019">
        <ele>1963.2</ele>
        <time>2021-09-19T11:52:10Z</time>
      </trkpt>
      <trkpt lat="42.73737" lon="1.53014">
        <ele>1963</ele>
        <time>2021-09-19T11:52:16Z</time>
      </trkpt>
      <trkpt lat="42.73739" lon="1.53014">
        <ele>1962.2</ele>
        <time>2021-09-19T11:52:18Z</time>
      </trkpt>
      <trkpt lat="42.73742" lon="1.53014">
        <ele>1961.4</ele>
        <time>2021-09-19T11:52:21Z</time>
      </trkpt>
      <trkpt lat="42.73743" lon="1.53013">
        <ele>1960.8</ele>
        <time>2021-09-19T11:52:23Z</time>
      </trkpt>
      <trkpt lat="42.73744" lon="1.53013">
        <ele>1960.2</ele>
        <time>2021-09-19T11:52:24Z</time>
      </trkpt>
      <trkpt lat="42.73745" lon="1.53012">
        <ele>1959.6</ele>
        <time>2021-09-19T11:52:26Z</time>
      </trkpt>
      <trkpt lat="42.73749" lon="1.53011">
        <ele>1958.6</ele>
        <time>2021-09-19T11:52:30Z</time>
      </trkpt>
      <trkpt lat="42.73752" lon="1.5301">
        <ele>1957.6</ele>
        <time>2021-09-19T11:52:34Z</time>
      </trkpt>
      <trkpt lat="42.73757" lon="1.53009">
        <ele>1956.2</ele>
        <time>2021-09-19T11:52:38Z</time>
      </trkpt>
      <trkpt lat="42.73758" lon="1.53011">
        <ele>1955.6</ele>
        <time>2021-09-19T11:52:40Z</time>
      </trkpt>
      <trkpt lat="42.73758" lon="1.53013">
        <ele>1955</ele>
        <time>2021-09-19T11:52:42Z</time>
      </trkpt>
      <trkpt lat="42.73761" lon="1.53013">
        <ele>1954.4</ele>
        <time>2021-09-19T11:52:47Z</time>
      </trkpt>
      <trkpt lat="42.73763" lon="1.53015">
        <ele>1953.8</ele>
        <time>2021-09-19T11:52:50Z</time>
      </trkpt>
      <trkpt lat="42.73766" lon="1.53018">
        <ele>1952.6</ele>
        <time>2021-09-19T11:52:53Z</time>
      </trkpt>
      <trkpt lat="42.73767" lon="1.5302">
        <ele>1952.4</ele>
        <time>2021-09-19T11:52:54Z</time>
      </trkpt>
      <trkpt lat="42.73769" lon="1.53027">
        <ele>1951.4</ele>
        <time>2021-09-19T11:52:58Z</time>
      </trkpt>
      <trkpt lat="42.7377" lon="1.53029">
        <ele>1951.2</ele>
        <time>2021-09-19T11:53:00Z</time>
      </trkpt>
      <trkpt lat="42.7377" lon="1.5303">
        <ele>1951</ele>
        <time>2021-09-19T11:53:01Z</time>
      </trkpt>
      <trkpt lat="42.73772" lon="1.53032">
        <ele>1950.2</ele>
        <time>2021-09-19T11:53:05Z</time>
      </trkpt>
      <trkpt lat="42.73775" lon="1.53034">
        <ele>1949</ele>
        <time>2021-09-19T11:53:09Z</time>
      </trkpt>
      <trkpt lat="42.73775" lon="1.53035">
        <ele>1948.8</ele>
        <time>2021-09-19T11:53:10Z</time>
      </trkpt>
      <trkpt lat="42.73776" lon="1.53036">
        <ele>1948.6</ele>
        <time>2021-09-19T11:53:11Z</time>
      </trkpt>
      <trkpt lat="42.73778" lon="1.53037">
        <ele>1948</ele>
        <time>2021-09-19T11:53:13Z</time>
      </trkpt>
      <trkpt lat="42.73781" lon="1.5304">
        <ele>1946.6</ele>
        <time>2021-09-19T11:53:17Z</time>
      </trkpt>
      <trkpt lat="42.73782" lon="1.53045">
        <ele>1945.4</ele>
        <time>2021-09-19T11:53:20Z</time>
      </trkpt>
      <trkpt lat="42.73782" lon="1.53046">
        <ele>1945.2</ele>
        <time>2021-09-19T11:53:24Z</time>
      </trkpt>
      <trkpt lat="42.73785" lon="1.53042">
        <ele>1945</ele>
        <time>2021-09-19T11:53:32Z</time>
      </trkpt>
      <trkpt lat="42.73787" lon="1.53044">
        <ele>1944.4</ele>
        <time>2021-09-19T11:53:34Z</time>
      </trkpt>
      <trkpt lat="42.7379" lon="1.53048">
        <ele>1943.2</ele>
        <time>2021-09-19T11:53:38Z</time>
      </trkpt>
      <trkpt lat="42.73791" lon="1.53053">
        <ele>1942</ele>
        <time>2021-09-19T11:53:44Z</time>
      </trkpt>
      <trkpt lat="42.73792" lon="1.53053">
        <ele>1941.8</ele>
        <time>2021-09-19T11:53:46Z</time>
      </trkpt>
      <trkpt lat="42.73792" lon="1.53054">
        <ele>1941.4</ele>
        <time>2021-09-19T11:53:51Z</time>
      </trkpt>
      <trkpt lat="42.73793" lon="1.53057">
        <ele>1941</ele>
        <time>2021-09-19T11:53:54Z</time>
      </trkpt>
      <trkpt lat="42.73794" lon="1.53058">
        <ele>1940.8</ele>
        <time>2021-09-19T11:53:55Z</time>
      </trkpt>
      <trkpt lat="42.73797" lon="1.53064">
        <ele>1939.8</ele>
        <time>2021-09-19T11:54:01Z</time>
      </trkpt>
      <trkpt lat="42.73798" lon="1.53067">
        <ele>1938.4</ele>
        <time>2021-09-19T11:54:05Z</time>
      </trkpt>
      <trkpt lat="42.738" lon="1.5307">
        <ele>1937.8</ele>
        <time>2021-09-19T11:54:08Z</time>
      </trkpt>
      <trkpt lat="42.73802" lon="1.53072">
        <ele>1937.4</ele>
        <time>2021-09-19T11:54:11Z</time>
      </trkpt>
      <trkpt lat="42.73805" lon="1.5308">
        <ele>1936.4</ele>
        <time>2021-09-19T11:54:18Z</time>
      </trkpt>
      <trkpt lat="42.73805" lon="1.53081">
        <ele>1935.8</ele>
        <time>2021-09-19T11:54:19Z</time>
      </trkpt>
      <trkpt lat="42.73806" lon="1.53084">
        <ele>1935.2</ele>
        <time>2021-09-19T11:54:21Z</time>
      </trkpt>
      <trkpt lat="42.73808" lon="1.5309">
        <ele>1934</ele>
        <time>2021-09-19T11:54:27Z</time>
      </trkpt>
      <trkpt lat="42.73809" lon="1.53094">
        <ele>1933.6</ele>
        <time>2021-09-19T11:54:30Z</time>
      </trkpt>
      <trkpt lat="42.7381" lon="1.53099">
        <ele>1933.4</ele>
        <time>2021-09-19T11:54:35Z</time>
      </trkpt>
      <trkpt lat="42.7381" lon="1.53101">
        <ele>1933</ele>
        <time>2021-09-19T11:54:37Z</time>
      </trkpt>
      <trkpt lat="42.73811" lon="1.53102">
        <ele>1932.8</ele>
        <time>2021-09-19T11:54:38Z</time>
      </trkpt>
      <trkpt lat="42.73812" lon="1.53105">
        <ele>1932.2</ele>
        <time>2021-09-19T11:54:40Z</time>
      </trkpt>
      <trkpt lat="42.73812" lon="1.53107">
        <ele>1931.8</ele>
        <time>2021-09-19T11:54:42Z</time>
      </trkpt>
      <trkpt lat="42.73815" lon="1.53109">
        <ele>1930.8</ele>
        <time>2021-09-19T11:54:47Z</time>
      </trkpt>
      <trkpt lat="42.73815" lon="1.53109">
        <ele>1930.6</ele>
        <time>2021-09-19T11:54:48Z</time>
      </trkpt>
      <trkpt lat="42.73816" lon="1.5311">
        <ele>1930.2</ele>
        <time>2021-09-19T11:54:50Z</time>
      </trkpt>
      <trkpt lat="42.73818" lon="1.5311">
        <ele>1929.6</ele>
        <time>2021-09-19T11:54:52Z</time>
      </trkpt>
      <trkpt lat="42.73821" lon="1.53112">
        <ele>1928.4</ele>
        <time>2021-09-19T11:54:57Z</time>
      </trkpt>
      <trkpt lat="42.73823" lon="1.53117">
        <ele>1927.4</ele>
        <time>2021-09-19T11:55:03Z</time>
      </trkpt>
      <trkpt lat="42.73823" lon="1.53119">
        <ele>1926.4</ele>
        <time>2021-09-19T11:55:06Z</time>
      </trkpt>
      <trkpt lat="42.73824" lon="1.5312">
        <ele>1926.2</ele>
        <time>2021-09-19T11:55:07Z</time>
      </trkpt>
      <trkpt lat="42.73826" lon="1.53127">
        <ele>1925.2</ele>
        <time>2021-09-19T11:55:13Z</time>
      </trkpt>
      <trkpt lat="42.73826" lon="1.5313">
        <ele>1924.2</ele>
        <time>2021-09-19T11:55:16Z</time>
      </trkpt>
      <trkpt lat="42.73827" lon="1.53139">
        <ele>1923.2</ele>
        <time>2021-09-19T11:55:22Z</time>
      </trkpt>
      <trkpt lat="42.73827" lon="1.5314">
        <ele>1923.2</ele>
        <time>2021-09-19T11:55:23Z</time>
      </trkpt>
      <trkpt lat="42.73827" lon="1.53146">
        <ele>1922.6</ele>
        <time>2021-09-19T11:55:31Z</time>
      </trkpt>
      <trkpt lat="42.73828" lon="1.53151">
        <ele>1922</ele>
        <time>2021-09-19T11:55:35Z</time>
      </trkpt>
      <trkpt lat="42.7383" lon="1.53155">
        <ele>1921</ele>
        <time>2021-09-19T11:55:40Z</time>
      </trkpt>
      <trkpt lat="42.73832" lon="1.53161">
        <ele>1919.6</ele>
        <time>2021-09-19T11:55:46Z</time>
      </trkpt>
      <trkpt lat="42.73834" lon="1.53163">
        <ele>1919</ele>
        <time>2021-09-19T11:55:48Z</time>
      </trkpt>
      <trkpt lat="42.73835" lon="1.53166">
        <ele>1918.2</ele>
        <time>2021-09-19T11:55:51Z</time>
      </trkpt>
      <trkpt lat="42.73838" lon="1.53174">
        <ele>1917</ele>
        <time>2021-09-19T11:55:57Z</time>
      </trkpt>
      <trkpt lat="42.73839" lon="1.5318">
        <ele>1916</ele>
        <time>2021-09-19T11:56:02Z</time>
      </trkpt>
      <trkpt lat="42.73841" lon="1.53185">
        <ele>1915.4</ele>
        <time>2021-09-19T11:56:06Z</time>
      </trkpt>
      <trkpt lat="42.73841" lon="1.53187">
        <ele>1914.8</ele>
        <time>2021-09-19T11:56:08Z</time>
      </trkpt>
      <trkpt lat="42.73844" lon="1.53194">
        <ele>1914</ele>
        <time>2021-09-19T11:56:13Z</time>
      </trkpt>
      <trkpt lat="42.73844" lon="1.53195">
        <ele>1913.6</ele>
        <time>2021-09-19T11:56:14Z</time>
      </trkpt>
      <trkpt lat="42.73845" lon="1.53199">
        <ele>1912.4</ele>
        <time>2021-09-19T11:56:18Z</time>
      </trkpt>
      <trkpt lat="42.73847" lon="1.53204">
        <ele>1911.2</ele>
        <time>2021-09-19T11:56:22Z</time>
      </trkpt>
      <trkpt lat="42.7385" lon="1.53213">
        <ele>1910.2</ele>
        <time>2021-09-19T11:56:29Z</time>
      </trkpt>
      <trkpt lat="42.73852" lon="1.53218">
        <ele>1909.8</ele>
        <time>2021-09-19T11:56:33Z</time>
      </trkpt>
      <trkpt lat="42.73854" lon="1.53223">
        <ele>1909</ele>
        <time>2021-09-19T11:56:36Z</time>
      </trkpt>
      <trkpt lat="42.73855" lon="1.53228">
        <ele>1908</ele>
        <time>2021-09-19T11:56:39Z</time>
      </trkpt>
      <trkpt lat="42.73856" lon="1.53233">
        <ele>1907.6</ele>
        <time>2021-09-19T11:56:42Z</time>
      </trkpt>
      <trkpt lat="42.73856" lon="1.53238">
        <ele>1906.8</ele>
        <time>2021-09-19T11:56:45Z</time>
      </trkpt>
      <trkpt lat="42.73858" lon="1.53245">
        <ele>1906</ele>
        <time>2021-09-19T11:56:50Z</time>
      </trkpt>
      <trkpt lat="42.73859" lon="1.53248">
        <ele>1906</ele>
        <time>2021-09-19T11:56:53Z</time>
      </trkpt>
      <trkpt lat="42.73861" lon="1.53249">
        <ele>1905.8</ele>
        <time>2021-09-19T11:56:55Z</time>
      </trkpt>
      <trkpt lat="42.73862" lon="1.53249">
        <ele>1905.6</ele>
        <time>2021-09-19T11:56:56Z</time>
      </trkpt>
      <trkpt lat="42.73862" lon="1.53251">
        <ele>1905.6</ele>
        <time>2021-09-19T11:56:58Z</time>
      </trkpt>
      <trkpt lat="42.73865" lon="1.5325">
        <ele>1904.8</ele>
        <time>2021-09-19T11:57:02Z</time>
      </trkpt>
      <trkpt lat="42.73864" lon="1.5325">
        <ele>1904.4</ele>
        <time>2021-09-19T11:57:04Z</time>
      </trkpt>
      <trkpt lat="42.73866" lon="1.53251">
        <ele>1904.4</ele>
        <time>2021-09-19T11:57:09Z</time>
      </trkpt>
      <trkpt lat="42.73868" lon="1.53251">
        <ele>1905.2</ele>
        <time>2021-09-19T11:57:16Z</time>
      </trkpt>
      <trkpt lat="42.73869" lon="1.53251">
        <ele>1905</ele>
        <time>2021-09-19T11:57:20Z</time>
      </trkpt>
      <trkpt lat="42.73871" lon="1.53252">
        <ele>1904.4</ele>
        <time>2021-09-19T11:57:24Z</time>
      </trkpt>
      <trkpt lat="42.73867" lon="1.53251">
        <ele>1904.2</ele>
        <time>2021-09-19T11:57:32Z</time>
      </trkpt>
      <trkpt lat="42.73867" lon="1.53251">
        <ele>1904.2</ele>
        <time>2021-09-19T11:57:33Z</time>
      </trkpt>
      <trkpt lat="42.73868" lon="1.53254">
        <ele>1904.4</ele>
        <time>2021-09-19T11:57:39Z</time>
      </trkpt>
      <trkpt lat="42.73869" lon="1.53258">
        <ele>1905.2</ele>
        <time>2021-09-19T11:57:48Z</time>
      </trkpt>
      <trkpt lat="42.73868" lon="1.53252">
        <ele>1904.6</ele>
        <time>2021-09-19T11:57:56Z</time>
      </trkpt>
      <trkpt lat="42.73867" lon="1.53252">
        <ele>1904.8</ele>
        <time>2021-09-19T11:57:59Z</time>
      </trkpt>
      <trkpt lat="42.73869" lon="1.53249">
        <ele>1904</ele>
        <time>2021-09-19T11:58:05Z</time>
      </trkpt>
      <trkpt lat="42.7387" lon="1.53252">
        <ele>1908.4</ele>
        <time>2021-09-19T11:58:09Z</time>
      </trkpt>
      <trkpt lat="42.73868" lon="1.5326">
        <ele>1906.8</ele>
        <time>2021-09-19T11:58:13Z</time>
      </trkpt>
      <trkpt lat="42.73869" lon="1.53263">
        <ele>1905.4</ele>
        <time>2021-09-19T11:58:15Z</time>
      </trkpt>
      <trkpt lat="42.7387" lon="1.53263">
        <ele>1905.2</ele>
        <time>2021-09-19T11:58:16Z</time>
      </trkpt>
      <trkpt lat="42.73872" lon="1.53265">
        <ele>1905</ele>
        <time>2021-09-19T11:58:18Z</time>
      </trkpt>
      <trkpt lat="42.73874" lon="1.53262">
        <ele>1905</ele>
        <time>2021-09-19T11:58:21Z</time>
      </trkpt>
      <trkpt lat="42.73872" lon="1.53261">
        <ele>1905</ele>
        <time>2021-09-19T11:58:30Z</time>
      </trkpt>
      <trkpt lat="42.73871" lon="1.53266">
        <ele>1905</ele>
        <time>2021-09-19T11:58:40Z</time>
      </trkpt>
      <trkpt lat="42.73871" lon="1.53266">
        <ele>1905</ele>
        <time>2021-09-19T11:58:41Z</time>
      </trkpt>
      <trkpt lat="42.73868" lon="1.53264">
        <ele>1905</ele>
        <time>2021-09-19T11:58:47Z</time>
      </trkpt>
      <trkpt lat="42.73866" lon="1.53267">
        <ele>1905</ele>
        <time>2021-09-19T11:58:55Z</time>
      </trkpt>
      <trkpt lat="42.73868" lon="1.53267">
        <ele>1905</ele>
        <time>2021-09-19T11:59:03Z</time>
      </trkpt>
      <trkpt lat="42.73871" lon="1.53263">
        <ele>1905</ele>
        <time>2021-09-19T11:59:08Z</time>
      </trkpt>
      <trkpt lat="42.73873" lon="1.53262">
        <ele>1905</ele>
        <time>2021-09-19T11:59:12Z</time>
      </trkpt>
      <trkpt lat="42.73871" lon="1.53264">
        <ele>1905</ele>
        <time>2021-09-19T11:59:19Z</time>
      </trkpt>
      <trkpt lat="42.7387" lon="1.53266">
        <ele>1905</ele>
        <time>2021-09-19T11:59:27Z</time>
      </trkpt>
      <trkpt lat="42.73873" lon="1.53271">
        <ele>1905</ele>
        <time>2021-09-19T11:59:32Z</time>
      </trkpt>
      <trkpt lat="42.73879" lon="1.53281">
        <ele>1905</ele>
        <time>2021-09-19T11:59:37Z</time>
      </trkpt>
      <trkpt lat="42.73885" lon="1.53286">
        <ele>1905</ele>
        <time>2021-09-19T11:59:40Z</time>
      </trkpt>
      <trkpt lat="42.73888" lon="1.5329">
        <ele>1905</ele>
        <time>2021-09-19T11:59:42Z</time>
      </trkpt>
      <trkpt lat="42.73889" lon="1.5329">
        <ele>1905</ele>
        <time>2021-09-19T11:59:43Z</time>
      </trkpt>
      <trkpt lat="42.73891" lon="1.5329">
        <ele>1902.8</ele>
        <time>2021-09-19T11:59:46Z</time>
      </trkpt>
      <trkpt lat="42.73891" lon="1.53292">
        <ele>1901.6</ele>
        <time>2021-09-19T11:59:47Z</time>
      </trkpt>
      <trkpt lat="42.7389" lon="1.53294">
        <ele>1900.4</ele>
        <time>2021-09-19T11:59:50Z</time>
      </trkpt>
      <trkpt lat="42.73888" lon="1.53296">
        <ele>1900.4</ele>
        <time>2021-09-19T11:59:52Z</time>
      </trkpt>
      <trkpt lat="42.73885" lon="1.533">
        <ele>1900.6</ele>
        <time>2021-09-19T11:59:57Z</time>
      </trkpt>
      <trkpt lat="42.73884" lon="1.53301">
        <ele>1900.6</ele>
        <time>2021-09-19T11:59:58Z</time>
      </trkpt>
      <trkpt lat="42.73881" lon="1.53305">
        <ele>1900.6</ele>
        <time>2021-09-19T12:00:02Z</time>
      </trkpt>
      <trkpt lat="42.73877" lon="1.53311">
        <ele>1901</ele>
        <time>2021-09-19T12:00:09Z</time>
      </trkpt>
      <trkpt lat="42.73873" lon="1.53311">
        <ele>1901.2</ele>
        <time>2021-09-19T12:00:12Z</time>
      </trkpt>
      <trkpt lat="42.73871" lon="1.53311">
        <ele>1901.4</ele>
        <time>2021-09-19T12:00:14Z</time>
      </trkpt>
      <trkpt lat="42.73871" lon="1.53312">
        <ele>1901.4</ele>
        <time>2021-09-19T12:00:15Z</time>
      </trkpt>
      <trkpt lat="42.7387" lon="1.53313">
        <ele>1901.6</ele>
        <time>2021-09-19T12:00:16Z</time>
      </trkpt>
      <trkpt lat="42.73869" lon="1.53313">
        <ele>1902</ele>
        <time>2021-09-19T12:00:19Z</time>
      </trkpt>
      <trkpt lat="42.73867" lon="1.5331">
        <ele>1902</ele>
        <time>2021-09-19T12:00:22Z</time>
      </trkpt>
      <trkpt lat="42.73867" lon="1.53307">
        <ele>1902.6</ele>
        <time>2021-09-19T12:00:25Z</time>
      </trkpt>
      <trkpt lat="42.73865" lon="1.53304">
        <ele>1903.2</ele>
        <time>2021-09-19T12:00:29Z</time>
      </trkpt>
      <trkpt lat="42.73865" lon="1.53302">
        <ele>1903.4</ele>
        <time>2021-09-19T12:00:34Z</time>
      </trkpt>
      <trkpt lat="42.73863" lon="1.53303">
        <ele>1902.8</ele>
        <time>2021-09-19T12:00:40Z</time>
      </trkpt>
      <trkpt lat="42.73865" lon="1.53304">
        <ele>1903</ele>
        <time>2021-09-19T12:00:47Z</time>
      </trkpt>
      <trkpt lat="42.73866" lon="1.53304">
        <ele>1903.2</ele>
        <time>2021-09-19T12:00:48Z</time>
      </trkpt>
      <trkpt lat="42.73866" lon="1.53302">
        <ele>1903.2</ele>
        <time>2021-09-19T12:00:53Z</time>
      </trkpt>
      <trkpt lat="42.73865" lon="1.53303">
        <ele>1902.6</ele>
        <time>2021-09-19T12:00:55Z</time>
      </trkpt>
      <trkpt lat="42.73866" lon="1.53303">
        <ele>1902.4</ele>
        <time>2021-09-19T12:00:57Z</time>
      </trkpt>
      <trkpt lat="42.73866" lon="1.53304">
        <ele>1902.4</ele>
        <time>2021-09-19T12:00:58Z</time>
      </trkpt>
      <trkpt lat="42.73869" lon="1.53306">
        <ele>1902.4</ele>
        <time>2021-09-19T12:01:05Z</time>
      </trkpt>
      <trkpt lat="42.73869" lon="1.53306">
        <ele>1902.4</ele>
        <time>2021-09-19T12:01:06Z</time>
      </trkpt>
      <trkpt lat="42.73864" lon="1.53307">
        <ele>1902</ele>
        <time>2021-09-19T12:01:15Z</time>
      </trkpt>
      <trkpt lat="42.73862" lon="1.53314">
        <ele>1901.6</ele>
        <time>2021-09-19T12:01:22Z</time>
      </trkpt>
      <trkpt lat="42.73862" lon="1.53315">
        <ele>1901.6</ele>
        <time>2021-09-19T12:01:23Z</time>
      </trkpt>
      <trkpt lat="42.7386" lon="1.53315">
        <ele>1901.4</ele>
        <time>2021-09-19T12:01:29Z</time>
      </trkpt>
      <trkpt lat="42.73861" lon="1.53314">
        <ele>1901.2</ele>
        <time>2021-09-19T12:01:30Z</time>
      </trkpt>
      <trkpt lat="42.73863" lon="1.53314">
        <ele>1901.2</ele>
        <time>2021-09-19T12:01:33Z</time>
      </trkpt>
      <trkpt lat="42.73866" lon="1.53313">
        <ele>1901.2</ele>
        <time>2021-09-19T12:01:36Z</time>
      </trkpt>
      <trkpt lat="42.73867" lon="1.53311">
        <ele>1901.2</ele>
        <time>2021-09-19T12:01:38Z</time>
      </trkpt>
      <trkpt lat="42.73868" lon="1.53309">
        <ele>1901.2</ele>
        <time>2021-09-19T12:01:40Z</time>
      </trkpt>
      <trkpt lat="42.73868" lon="1.53306">
        <ele>1901.8</ele>
        <time>2021-09-19T12:01:44Z</time>
      </trkpt>
      <trkpt lat="42.73868" lon="1.53306">
        <ele>1901.8</ele>
        <time>2021-09-19T12:01:45Z</time>
      </trkpt>
      <trkpt lat="42.73868" lon="1.53305">
        <ele>1901.8</ele>
        <time>2021-09-19T12:01:47Z</time>
      </trkpt>
      <trkpt lat="42.73867" lon="1.53306">
        <ele>1901.8</ele>
        <time>2021-09-19T12:01:48Z</time>
      </trkpt>
      <trkpt lat="42.73867" lon="1.53306">
        <ele>1901.8</ele>
        <time>2021-09-19T12:01:49Z</time>
      </trkpt>
      <trkpt lat="42.73867" lon="1.53306">
        <ele>1901.8</ele>
        <time>2021-09-19T12:01:50Z</time>
      </trkpt>
      <trkpt lat="42.73866" lon="1.53307">
        <ele>1902.2</ele>
        <time>2021-09-19T12:01:56Z</time>
      </trkpt>
      <trkpt lat="42.73865" lon="1.53308">
        <ele>1902.2</ele>
        <time>2021-09-19T12:02:00Z</time>
      </trkpt>
      <trkpt lat="42.73865" lon="1.53308">
        <ele>1902</ele>
        <time>2021-09-19T12:02:03Z</time>
      </trkpt>
      <trkpt lat="42.73867" lon="1.53308">
        <ele>1901.8</ele>
        <time>2021-09-19T12:02:06Z</time>
      </trkpt>
      <trkpt lat="42.73868" lon="1.53307">
        <ele>1902</ele>
        <time>2021-09-19T12:02:08Z</time>
      </trkpt>
      <trkpt lat="42.73867" lon="1.53307">
        <ele>1902</ele>
        <time>2021-09-19T12:02:11Z</time>
      </trkpt>
      <trkpt lat="42.73868" lon="1.53308">
        <ele>1902.2</ele>
        <time>2021-09-19T12:02:12Z</time>
      </trkpt>
      <trkpt lat="42.73869" lon="1.53309">
        <ele>1902.2</ele>
        <time>2021-09-19T12:02:18Z</time>
      </trkpt>
      <trkpt lat="42.73869" lon="1.53309">
        <ele>1902.2</ele>
        <time>2021-09-19T12:02:19Z</time>
      </trkpt>
      <trkpt lat="42.73869" lon="1.53309">
        <ele>1902.4</ele>
        <time>2021-09-19T12:02:22Z</time>
      </trkpt>
      <trkpt lat="42.73868" lon="1.53308">
        <ele>1902.2</ele>
        <time>2021-09-19T12:02:27Z</time>
      </trkpt>
      <trkpt lat="42.73867" lon="1.53309">
        <ele>1902</ele>
        <time>2021-09-19T12:02:29Z</time>
      </trkpt>
      <trkpt lat="42.73868" lon="1.53309">
        <ele>1901.8</ele>
        <time>2021-09-19T12:02:33Z</time>
      </trkpt>
      <trkpt lat="42.73867" lon="1.5331">
        <ele>1901.8</ele>
        <time>2021-09-19T12:02:34Z</time>
      </trkpt>
      <trkpt lat="42.73867" lon="1.5331">
        <ele>1901.8</ele>
        <time>2021-09-19T12:02:35Z</time>
      </trkpt>
      <trkpt lat="42.73865" lon="1.5331">
        <ele>1901.6</ele>
        <time>2021-09-19T12:02:39Z</time>
      </trkpt>
      <trkpt lat="42.73867" lon="1.53317">
        <ele>1901.4</ele>
        <time>2021-09-19T12:02:46Z</time>
      </trkpt>
      <trkpt lat="42.73869" lon="1.53319">
        <ele>1901</ele>
        <time>2021-09-19T12:02:50Z</time>
      </trkpt>
      <trkpt lat="42.7387" lon="1.5332">
        <ele>1900.4</ele>
        <time>2021-09-19T12:02:52Z</time>
      </trkpt>
      <trkpt lat="42.73871" lon="1.5332">
        <ele>1900</ele>
        <time>2021-09-19T12:02:53Z</time>
      </trkpt>
      <trkpt lat="42.73874" lon="1.53321">
        <ele>1899</ele>
        <time>2021-09-19T12:02:56Z</time>
      </trkpt>
      <trkpt lat="42.73875" lon="1.53321">
        <ele>1898.4</ele>
        <time>2021-09-19T12:02:58Z</time>
      </trkpt>
      <trkpt lat="42.73876" lon="1.53321">
        <ele>1898.2</ele>
        <time>2021-09-19T12:03:00Z</time>
      </trkpt>
      <trkpt lat="42.73877" lon="1.53321">
        <ele>1897.8</ele>
        <time>2021-09-19T12:03:01Z</time>
      </trkpt>
      <trkpt lat="42.73878" lon="1.5332">
        <ele>1897.8</ele>
        <time>2021-09-19T12:03:03Z</time>
      </trkpt>
      <trkpt lat="42.73879" lon="1.53321">
        <ele>1897.8</ele>
        <time>2021-09-19T12:03:05Z</time>
      </trkpt>
      <trkpt lat="42.7388" lon="1.53321">
        <ele>1898</ele>
        <time>2021-09-19T12:03:06Z</time>
      </trkpt>
      <trkpt lat="42.73884" lon="1.53322">
        <ele>1898</ele>
        <time>2021-09-19T12:03:11Z</time>
      </trkpt>
      <trkpt lat="42.73884" lon="1.53323">
        <ele>1897.8</ele>
        <time>2021-09-19T12:03:12Z</time>
      </trkpt>
      <trkpt lat="42.73885" lon="1.53329">
        <ele>1897</ele>
        <time>2021-09-19T12:03:15Z</time>
      </trkpt>
      <trkpt lat="42.73885" lon="1.53329">
        <ele>1896.8</ele>
        <time>2021-09-19T12:03:16Z</time>
      </trkpt>
      <trkpt lat="42.73886" lon="1.53329">
        <ele>1896.6</ele>
        <time>2021-09-19T12:03:17Z</time>
      </trkpt>
      <trkpt lat="42.73886" lon="1.53329">
        <ele>1896</ele>
        <time>2021-09-19T12:03:18Z</time>
      </trkpt>
      <trkpt lat="42.73886" lon="1.53329">
        <ele>1895.6</ele>
        <time>2021-09-19T12:03:19Z</time>
      </trkpt>
      <trkpt lat="42.73886" lon="1.53335">
        <ele>1894.8</ele>
        <time>2021-09-19T12:03:22Z</time>
      </trkpt>
      <trkpt lat="42.73886" lon="1.53336">
        <ele>1894.6</ele>
        <time>2021-09-19T12:03:23Z</time>
      </trkpt>
      <trkpt lat="42.73887" lon="1.53338">
        <ele>1894.4</ele>
        <time>2021-09-19T12:03:26Z</time>
      </trkpt>
      <trkpt lat="42.73889" lon="1.53339">
        <ele>1893.2</ele>
        <time>2021-09-19T12:03:29Z</time>
      </trkpt>
      <trkpt lat="42.73889" lon="1.53343">
        <ele>1892.2</ele>
        <time>2021-09-19T12:03:32Z</time>
      </trkpt>
      <trkpt lat="42.7389" lon="1.53347">
        <ele>1891</ele>
        <time>2021-09-19T12:03:34Z</time>
      </trkpt>
      <trkpt lat="42.7389" lon="1.53348">
        <ele>1889.8</ele>
        <time>2021-09-19T12:03:37Z</time>
      </trkpt>
      <trkpt lat="42.73891" lon="1.53349">
        <ele>1889.4</ele>
        <time>2021-09-19T12:03:38Z</time>
      </trkpt>
      <trkpt lat="42.73894" lon="1.53349">
        <ele>1889</ele>
        <time>2021-09-19T12:03:40Z</time>
      </trkpt>
      <trkpt lat="42.73895" lon="1.53349">
        <ele>1888.6</ele>
        <time>2021-09-19T12:03:41Z</time>
      </trkpt>
      <trkpt lat="42.73897" lon="1.53351">
        <ele>1888.2</ele>
        <time>2021-09-19T12:03:43Z</time>
      </trkpt>
      <trkpt lat="42.739" lon="1.53351">
        <ele>1887.2</ele>
        <time>2021-09-19T12:03:46Z</time>
      </trkpt>
      <trkpt lat="42.73901" lon="1.53351">
        <ele>1887</ele>
        <time>2021-09-19T12:03:47Z</time>
      </trkpt>
      <trkpt lat="42.73903" lon="1.53352">
        <ele>1885.8</ele>
        <time>2021-09-19T12:03:50Z</time>
      </trkpt>
      <trkpt lat="42.73906" lon="1.53354">
        <ele>1884.8</ele>
        <time>2021-09-19T12:03:55Z</time>
      </trkpt>
      <trkpt lat="42.73907" lon="1.53355">
        <ele>1884.4</ele>
        <time>2021-09-19T12:03:56Z</time>
      </trkpt>
      <trkpt lat="42.73909" lon="1.53356">
        <ele>1883.6</ele>
        <time>2021-09-19T12:03:59Z</time>
      </trkpt>
      <trkpt lat="42.73915" lon="1.53358">
        <ele>1882.6</ele>
        <time>2021-09-19T12:04:04Z</time>
      </trkpt>
      <trkpt lat="42.73916" lon="1.53358">
        <ele>1882.4</ele>
        <time>2021-09-19T12:04:05Z</time>
      </trkpt>
      <trkpt lat="42.73917" lon="1.53359">
        <ele>1882</ele>
        <time>2021-09-19T12:04:06Z</time>
      </trkpt>
      <trkpt lat="42.7392" lon="1.5336">
        <ele>1881.4</ele>
        <time>2021-09-19T12:04:09Z</time>
      </trkpt>
      <trkpt lat="42.73922" lon="1.5336">
        <ele>1880.6</ele>
        <time>2021-09-19T12:04:13Z</time>
      </trkpt>
      <trkpt lat="42.73923" lon="1.5336">
        <ele>1880.2</ele>
        <time>2021-09-19T12:04:14Z</time>
      </trkpt>
      <trkpt lat="42.73924" lon="1.5336">
        <ele>1880</ele>
        <time>2021-09-19T12:04:15Z</time>
      </trkpt>
      <trkpt lat="42.73927" lon="1.53359">
        <ele>1879</ele>
        <time>2021-09-19T12:04:18Z</time>
      </trkpt>
      <trkpt lat="42.73928" lon="1.53361">
        <ele>1878.4</ele>
        <time>2021-09-19T12:04:21Z</time>
      </trkpt>
      <trkpt lat="42.73929" lon="1.53362">
        <ele>1878</ele>
        <time>2021-09-19T12:04:22Z</time>
      </trkpt>
      <trkpt lat="42.73932" lon="1.5336">
        <ele>1876.8</ele>
        <time>2021-09-19T12:04:26Z</time>
      </trkpt>
      <trkpt lat="42.73933" lon="1.53361">
        <ele>1876.8</ele>
        <time>2021-09-19T12:04:28Z</time>
      </trkpt>
      <trkpt lat="42.73935" lon="1.53363">
        <ele>1875.8</ele>
        <time>2021-09-19T12:04:32Z</time>
      </trkpt>
      <trkpt lat="42.73936" lon="1.53363">
        <ele>1875.4</ele>
        <time>2021-09-19T12:04:33Z</time>
      </trkpt>
      <trkpt lat="42.73937" lon="1.53364">
        <ele>1874.8</ele>
        <time>2021-09-19T12:04:35Z</time>
      </trkpt>
      <trkpt lat="42.73938" lon="1.53364">
        <ele>1874.6</ele>
        <time>2021-09-19T12:04:36Z</time>
      </trkpt>
      <trkpt lat="42.73939" lon="1.53364">
        <ele>1874.2</ele>
        <time>2021-09-19T12:04:38Z</time>
      </trkpt>
      <trkpt lat="42.7394" lon="1.53365">
        <ele>1873.6</ele>
        <time>2021-09-19T12:04:40Z</time>
      </trkpt>
      <trkpt lat="42.73941" lon="1.53366">
        <ele>1873</ele>
        <time>2021-09-19T12:04:45Z</time>
      </trkpt>
      <trkpt lat="42.73942" lon="1.53367">
        <ele>1872.4</ele>
        <time>2021-09-19T12:04:47Z</time>
      </trkpt>
      <trkpt lat="42.73944" lon="1.53368">
        <ele>1871.4</ele>
        <time>2021-09-19T12:04:50Z</time>
      </trkpt>
      <trkpt lat="42.73945" lon="1.5337">
        <ele>1871.2</ele>
        <time>2021-09-19T12:04:52Z</time>
      </trkpt>
      <trkpt lat="42.73948" lon="1.53372">
        <ele>1870.4</ele>
        <time>2021-09-19T12:04:55Z</time>
      </trkpt>
      <trkpt lat="42.7395" lon="1.53374">
        <ele>1869.2</ele>
        <time>2021-09-19T12:04:59Z</time>
      </trkpt>
      <trkpt lat="42.73951" lon="1.53374">
        <ele>1868.8</ele>
        <time>2021-09-19T12:05:00Z</time>
      </trkpt>
      <trkpt lat="42.73953" lon="1.53376">
        <ele>1868.2</ele>
        <time>2021-09-19T12:05:04Z</time>
      </trkpt>
      <trkpt lat="42.73954" lon="1.53376">
        <ele>1868</ele>
        <time>2021-09-19T12:05:05Z</time>
      </trkpt>
      <trkpt lat="42.73955" lon="1.53377">
        <ele>1867</ele>
        <time>2021-09-19T12:05:07Z</time>
      </trkpt>
      <trkpt lat="42.73956" lon="1.53377">
        <ele>1866.6</ele>
        <time>2021-09-19T12:05:09Z</time>
      </trkpt>
      <trkpt lat="42.73958" lon="1.53378">
        <ele>1866.6</ele>
        <time>2021-09-19T12:05:11Z</time>
      </trkpt>
      <trkpt lat="42.7396" lon="1.5338">
        <ele>1866</ele>
        <time>2021-09-19T12:05:14Z</time>
      </trkpt>
      <trkpt lat="42.7396" lon="1.5338">
        <ele>1865.8</ele>
        <time>2021-09-19T12:05:15Z</time>
      </trkpt>
      <trkpt lat="42.73961" lon="1.53383">
        <ele>1865.2</ele>
        <time>2021-09-19T12:05:18Z</time>
      </trkpt>
      <trkpt lat="42.73962" lon="1.53383">
        <ele>1865</ele>
        <time>2021-09-19T12:05:19Z</time>
      </trkpt>
      <trkpt lat="42.73962" lon="1.53383">
        <ele>1865</ele>
        <time>2021-09-19T12:05:20Z</time>
      </trkpt>
      <trkpt lat="42.73967" lon="1.53382">
        <ele>1863.8</ele>
        <time>2021-09-19T12:05:26Z</time>
      </trkpt>
      <trkpt lat="42.73967" lon="1.53382">
        <ele>1863.8</ele>
        <time>2021-09-19T12:05:27Z</time>
      </trkpt>
      <trkpt lat="42.73966" lon="1.53381">
        <ele>1863.6</ele>
        <time>2021-09-19T12:05:37Z</time>
      </trkpt>
      <trkpt lat="42.73967" lon="1.53381">
        <ele>1863.6</ele>
        <time>2021-09-19T12:05:38Z</time>
      </trkpt>
      <trkpt lat="42.73973" lon="1.53382">
        <ele>1862.8</ele>
        <time>2021-09-19T12:05:46Z</time>
      </trkpt>
      <trkpt lat="42.73975" lon="1.53382">
        <ele>1862.6</ele>
        <time>2021-09-19T12:05:48Z</time>
      </trkpt>
      <trkpt lat="42.73977" lon="1.53381">
        <ele>1862.6</ele>
        <time>2021-09-19T12:05:50Z</time>
      </trkpt>
      <trkpt lat="42.73981" lon="1.53382">
        <ele>1861.6</ele>
        <time>2021-09-19T12:05:54Z</time>
      </trkpt>
      <trkpt lat="42.73981" lon="1.53381">
        <ele>1861.4</ele>
        <time>2021-09-19T12:05:55Z</time>
      </trkpt>
      <trkpt lat="42.73983" lon="1.53381">
        <ele>1861</ele>
        <time>2021-09-19T12:05:57Z</time>
      </trkpt>
      <trkpt lat="42.73983" lon="1.53382">
        <ele>1860.8</ele>
        <time>2021-09-19T12:05:59Z</time>
      </trkpt>
      <trkpt lat="42.73983" lon="1.53382">
        <ele>1860.6</ele>
        <time>2021-09-19T12:06:01Z</time>
      </trkpt>
      <trkpt lat="42.73983" lon="1.53382">
        <ele>1860.4</ele>
        <time>2021-09-19T12:06:03Z</time>
      </trkpt>
      <trkpt lat="42.73984" lon="1.53382">
        <ele>1860.4</ele>
        <time>2021-09-19T12:06:07Z</time>
      </trkpt>
      <trkpt lat="42.73985" lon="1.53381">
        <ele>1860.2</ele>
        <time>2021-09-19T12:06:10Z</time>
      </trkpt>
      <trkpt lat="42.73986" lon="1.53381">
        <ele>1860.2</ele>
        <time>2021-09-19T12:06:11Z</time>
      </trkpt>
      <trkpt lat="42.73985" lon="1.53385">
        <ele>1860</ele>
        <time>2021-09-19T12:06:16Z</time>
      </trkpt>
      <trkpt lat="42.73985" lon="1.53387">
        <ele>1860</ele>
        <time>2021-09-19T12:06:23Z</time>
      </trkpt>
      <trkpt lat="42.73985" lon="1.53387">
        <ele>1860</ele>
        <time>2021-09-19T12:06:24Z</time>
      </trkpt>
      <trkpt lat="42.73985" lon="1.53386">
        <ele>1860.4</ele>
        <time>2021-09-19T12:06:31Z</time>
      </trkpt>
      <trkpt lat="42.73984" lon="1.53387">
        <ele>1860.2</ele>
        <time>2021-09-19T12:06:36Z</time>
      </trkpt>
      <trkpt lat="42.73985" lon="1.53386">
        <ele>1859.6</ele>
        <time>2021-09-19T12:06:40Z</time>
      </trkpt>
      <trkpt lat="42.7398" lon="1.53386">
        <ele>1859.6</ele>
        <time>2021-09-19T12:06:49Z</time>
      </trkpt>
      <trkpt lat="42.7398" lon="1.53386">
        <ele>1859.4</ele>
        <time>2021-09-19T12:06:51Z</time>
      </trkpt>
      <trkpt lat="42.73978" lon="1.53386">
        <ele>1859.8</ele>
        <time>2021-09-19T12:06:58Z</time>
      </trkpt>
      <trkpt lat="42.73981" lon="1.53386">
        <ele>1860.2</ele>
        <time>2021-09-19T12:07:07Z</time>
      </trkpt>
      <trkpt lat="42.7398" lon="1.53385">
        <ele>1860.2</ele>
        <time>2021-09-19T12:07:14Z</time>
      </trkpt>
      <trkpt lat="42.7398" lon="1.53385">
        <ele>1860.4</ele>
        <time>2021-09-19T12:07:17Z</time>
      </trkpt>
      <trkpt lat="42.7398" lon="1.53386">
        <ele>1860.4</ele>
        <time>2021-09-19T12:07:20Z</time>
      </trkpt>
      <trkpt lat="42.7398" lon="1.53387">
        <ele>1860.4</ele>
        <time>2021-09-19T12:07:22Z</time>
      </trkpt>
      <trkpt lat="42.73978" lon="1.53386">
        <ele>1860.4</ele>
        <time>2021-09-19T12:07:31Z</time>
      </trkpt>
      <trkpt lat="42.7398" lon="1.53386">
        <ele>1860.6</ele>
        <time>2021-09-19T12:07:40Z</time>
      </trkpt>
      <trkpt lat="42.7398" lon="1.53386">
        <ele>1861.2</ele>
        <time>2021-09-19T12:07:48Z</time>
      </trkpt>
      <trkpt lat="42.73985" lon="1.53385">
        <ele>1860.8</ele>
        <time>2021-09-19T12:07:57Z</time>
      </trkpt>
      <trkpt lat="42.73985" lon="1.53386">
        <ele>1860.8</ele>
        <time>2021-09-19T12:08:06Z</time>
      </trkpt>
      <trkpt lat="42.73981" lon="1.53383">
        <ele>1860.8</ele>
        <time>2021-09-19T12:08:15Z</time>
      </trkpt>
      <trkpt lat="42.73979" lon="1.53387">
        <ele>1860.8</ele>
        <time>2021-09-19T12:08:23Z</time>
      </trkpt>
      <trkpt lat="42.73979" lon="1.53387">
        <ele>1860.8</ele>
        <time>2021-09-19T12:08:25Z</time>
      </trkpt>
      <trkpt lat="42.7398" lon="1.53386">
        <ele>1860.8</ele>
        <time>2021-09-19T12:08:32Z</time>
      </trkpt>
      <trkpt lat="42.73985" lon="1.53382">
        <ele>1860.8</ele>
        <time>2021-09-19T12:08:38Z</time>
      </trkpt>
      <trkpt lat="42.7399" lon="1.53384">
        <ele>1860.8</ele>
        <time>2021-09-19T12:08:43Z</time>
      </trkpt>
      <trkpt lat="42.73993" lon="1.53384">
        <ele>1860.8</ele>
        <time>2021-09-19T12:08:46Z</time>
      </trkpt>
      <trkpt lat="42.73999" lon="1.53385">
        <ele>1859.4</ele>
        <time>2021-09-19T12:08:53Z</time>
      </trkpt>
      <trkpt lat="42.74" lon="1.53385">
        <ele>1859</ele>
        <time>2021-09-19T12:08:55Z</time>
      </trkpt>
      <trkpt lat="42.74004" lon="1.53387">
        <ele>1858.4</ele>
        <time>2021-09-19T12:09:00Z</time>
      </trkpt>
      <trkpt lat="42.74006" lon="1.53386">
        <ele>1857.6</ele>
        <time>2021-09-19T12:09:02Z</time>
      </trkpt>
      <trkpt lat="42.74009" lon="1.53386">
        <ele>1857.4</ele>
        <time>2021-09-19T12:09:04Z</time>
      </trkpt>
      <trkpt lat="42.74015" lon="1.53385">
        <ele>1856.6</ele>
        <time>2021-09-19T12:09:10Z</time>
      </trkpt>
      <trkpt lat="42.74022" lon="1.53382">
        <ele>1856.2</ele>
        <time>2021-09-19T12:09:18Z</time>
      </trkpt>
      <trkpt lat="42.74027" lon="1.53382">
        <ele>1855.2</ele>
        <time>2021-09-19T12:09:23Z</time>
      </trkpt>
      <trkpt lat="42.74031" lon="1.53381">
        <ele>1854.2</ele>
        <time>2021-09-19T12:09:27Z</time>
      </trkpt>
      <trkpt lat="42.74039" lon="1.53382">
        <ele>1853</ele>
        <time>2021-09-19T12:09:35Z</time>
      </trkpt>
      <trkpt lat="42.74046" lon="1.53384">
        <ele>1852</ele>
        <time>2021-09-19T12:09:43Z</time>
      </trkpt>
      <trkpt lat="42.74047" lon="1.53386">
        <ele>1852</ele>
        <time>2021-09-19T12:09:45Z</time>
      </trkpt>
      <trkpt lat="42.74053" lon="1.5339">
        <ele>1851.2</ele>
        <time>2021-09-19T12:09:52Z</time>
      </trkpt>
      <trkpt lat="42.74056" lon="1.5339">
        <ele>1851</ele>
        <time>2021-09-19T12:09:54Z</time>
      </trkpt>
      <trkpt lat="42.74062" lon="1.53393">
        <ele>1850.2</ele>
        <time>2021-09-19T12:09:59Z</time>
      </trkpt>
      <trkpt lat="42.74062" lon="1.53396">
        <ele>1850</ele>
        <time>2021-09-19T12:10:00Z</time>
      </trkpt>
      <trkpt lat="42.74063" lon="1.53396">
        <ele>1850</ele>
        <time>2021-09-19T12:10:01Z</time>
      </trkpt>
      <trkpt lat="42.74065" lon="1.53395">
        <ele>1849.6</ele>
        <time>2021-09-19T12:10:05Z</time>
      </trkpt>
      <trkpt lat="42.74068" lon="1.53395">
        <ele>1849.4</ele>
        <time>2021-09-19T12:10:08Z</time>
      </trkpt>
      <trkpt lat="42.7407" lon="1.53396">
        <ele>1848.8</ele>
        <time>2021-09-19T12:10:11Z</time>
      </trkpt>
      <trkpt lat="42.74075" lon="1.53398">
        <ele>1847.8</ele>
        <time>2021-09-19T12:10:16Z</time>
      </trkpt>
      <trkpt lat="42.74076" lon="1.53398">
        <ele>1847.8</ele>
        <time>2021-09-19T12:10:17Z</time>
      </trkpt>
      <trkpt lat="42.7408" lon="1.534">
        <ele>1847.4</ele>
        <time>2021-09-19T12:10:21Z</time>
      </trkpt>
      <trkpt lat="42.74082" lon="1.534">
        <ele>1847</ele>
        <time>2021-09-19T12:10:24Z</time>
      </trkpt>
      <trkpt lat="42.74083" lon="1.534">
        <ele>1846.6</ele>
        <time>2021-09-19T12:10:25Z</time>
      </trkpt>
      <trkpt lat="42.74086" lon="1.534">
        <ele>1845.6</ele>
        <time>2021-09-19T12:10:29Z</time>
      </trkpt>
      <trkpt lat="42.74089" lon="1.53401">
        <ele>1844.6</ele>
        <time>2021-09-19T12:10:32Z</time>
      </trkpt>
      <trkpt lat="42.74091" lon="1.53402">
        <ele>1844.6</ele>
        <time>2021-09-19T12:10:34Z</time>
      </trkpt>
      <trkpt lat="42.74098" lon="1.53404">
        <ele>1843.6</ele>
        <time>2021-09-19T12:10:42Z</time>
      </trkpt>
      <trkpt lat="42.74098" lon="1.53404">
        <ele>1843.4</ele>
        <time>2021-09-19T12:10:43Z</time>
      </trkpt>
      <trkpt lat="42.74105" lon="1.53403">
        <ele>1842.4</ele>
        <time>2021-09-19T12:10:51Z</time>
      </trkpt>
      <trkpt lat="42.74107" lon="1.53405">
        <ele>1842.2</ele>
        <time>2021-09-19T12:10:53Z</time>
      </trkpt>
      <trkpt lat="42.74112" lon="1.53406">
        <ele>1841.4</ele>
        <time>2021-09-19T12:10:57Z</time>
      </trkpt>
      <trkpt lat="42.74113" lon="1.53406">
        <ele>1841</ele>
        <time>2021-09-19T12:10:58Z</time>
      </trkpt>
      <trkpt lat="42.74117" lon="1.53406">
        <ele>1840.6</ele>
        <time>2021-09-19T12:11:03Z</time>
      </trkpt>
      <trkpt lat="42.74122" lon="1.53409">
        <ele>1839.8</ele>
        <time>2021-09-19T12:11:10Z</time>
      </trkpt>
      <trkpt lat="42.74125" lon="1.5341">
        <ele>1839.2</ele>
        <time>2021-09-19T12:11:13Z</time>
      </trkpt>
      <trkpt lat="42.74128" lon="1.53412">
        <ele>1838.6</ele>
        <time>2021-09-19T12:11:17Z</time>
      </trkpt>
      <trkpt lat="42.7413" lon="1.53413">
        <ele>1838.6</ele>
        <time>2021-09-19T12:11:20Z</time>
      </trkpt>
      <trkpt lat="42.7413" lon="1.53413">
        <ele>1838.4</ele>
        <time>2021-09-19T12:11:21Z</time>
      </trkpt>
      <trkpt lat="42.74135" lon="1.53416">
        <ele>1838</ele>
        <time>2021-09-19T12:11:26Z</time>
      </trkpt>
      <trkpt lat="42.74136" lon="1.53417">
        <ele>1837.8</ele>
        <time>2021-09-19T12:11:27Z</time>
      </trkpt>
      <trkpt lat="42.74137" lon="1.53417">
        <ele>1837.6</ele>
        <time>2021-09-19T12:11:28Z</time>
      </trkpt>
      <trkpt lat="42.74143" lon="1.5342">
        <ele>1836.6</ele>
        <time>2021-09-19T12:11:34Z</time>
      </trkpt>
      <trkpt lat="42.74146" lon="1.53421">
        <ele>1836.2</ele>
        <time>2021-09-19T12:11:37Z</time>
      </trkpt>
      <trkpt lat="42.74148" lon="1.53423">
        <ele>1835.6</ele>
        <time>2021-09-19T12:11:39Z</time>
      </trkpt>
      <trkpt lat="42.74151" lon="1.53424">
        <ele>1835.2</ele>
        <time>2021-09-19T12:11:42Z</time>
      </trkpt>
      <trkpt lat="42.74152" lon="1.53424">
        <ele>1835</ele>
        <time>2021-09-19T12:11:43Z</time>
      </trkpt>
      <trkpt lat="42.74153" lon="1.53425">
        <ele>1834.8</ele>
        <time>2021-09-19T12:11:45Z</time>
      </trkpt>
      <trkpt lat="42.74154" lon="1.53428">
        <ele>1834.6</ele>
        <time>2021-09-19T12:11:47Z</time>
      </trkpt>
      <trkpt lat="42.74158" lon="1.53432">
        <ele>1833.4</ele>
        <time>2021-09-19T12:11:52Z</time>
      </trkpt>
      <trkpt lat="42.74159" lon="1.53433">
        <ele>1833.4</ele>
        <time>2021-09-19T12:11:53Z</time>
      </trkpt>
      <trkpt lat="42.74167" lon="1.53436">
        <ele>1832.8</ele>
        <time>2021-09-19T12:12:00Z</time>
      </trkpt>
      <trkpt lat="42.74169" lon="1.53437">
        <ele>1832.8</ele>
        <time>2021-09-19T12:12:02Z</time>
      </trkpt>
      <trkpt lat="42.74172" lon="1.53439">
        <ele>1832.4</ele>
        <time>2021-09-19T12:12:06Z</time>
      </trkpt>
      <trkpt lat="42.74177" lon="1.53441">
        <ele>1832.2</ele>
        <time>2021-09-19T12:12:10Z</time>
      </trkpt>
      <trkpt lat="42.74185" lon="1.53444">
        <ele>1831.6</ele>
        <time>2021-09-19T12:12:19Z</time>
      </trkpt>
      <trkpt lat="42.74194" lon="1.53451">
        <ele>1831.4</ele>
        <time>2021-09-19T12:12:29Z</time>
      </trkpt>
      <trkpt lat="42.74195" lon="1.53452">
        <ele>1831.2</ele>
        <time>2021-09-19T12:12:30Z</time>
      </trkpt>
      <trkpt lat="42.74196" lon="1.53453">
        <ele>1831.2</ele>
        <time>2021-09-19T12:12:31Z</time>
      </trkpt>
      <trkpt lat="42.74201" lon="1.53457">
        <ele>1831.2</ele>
        <time>2021-09-19T12:12:36Z</time>
      </trkpt>
      <trkpt lat="42.74204" lon="1.53458">
        <ele>1831.2</ele>
        <time>2021-09-19T12:12:40Z</time>
      </trkpt>
      <trkpt lat="42.74212" lon="1.53466">
        <ele>1831</ele>
        <time>2021-09-19T12:12:49Z</time>
      </trkpt>
      <trkpt lat="42.74216" lon="1.5347">
        <ele>1830.8</ele>
        <time>2021-09-19T12:12:54Z</time>
      </trkpt>
      <trkpt lat="42.74219" lon="1.53472">
        <ele>1830.8</ele>
        <time>2021-09-19T12:12:58Z</time>
      </trkpt>
      <trkpt lat="42.74227" lon="1.53475">
        <ele>1830.4</ele>
        <time>2021-09-19T12:13:06Z</time>
      </trkpt>
      <trkpt lat="42.74229" lon="1.53475">
        <ele>1830.4</ele>
        <time>2021-09-19T12:13:08Z</time>
      </trkpt>
      <trkpt lat="42.7423" lon="1.53476">
        <ele>1830.2</ele>
        <time>2021-09-19T12:13:09Z</time>
      </trkpt>
      <trkpt lat="42.74233" lon="1.53477">
        <ele>1830</ele>
        <time>2021-09-19T12:13:12Z</time>
      </trkpt>
      <trkpt lat="42.74237" lon="1.5348">
        <ele>1829.8</ele>
        <time>2021-09-19T12:13:17Z</time>
      </trkpt>
      <trkpt lat="42.74241" lon="1.53481">
        <ele>1829.2</ele>
        <time>2021-09-19T12:13:21Z</time>
      </trkpt>
      <trkpt lat="42.74246" lon="1.53483">
        <ele>1828.2</ele>
        <time>2021-09-19T12:13:27Z</time>
      </trkpt>
      <trkpt lat="42.74246" lon="1.53483">
        <ele>1827.8</ele>
        <time>2021-09-19T12:13:28Z</time>
      </trkpt>
      <trkpt lat="42.74254" lon="1.53485">
        <ele>1827</ele>
        <time>2021-09-19T12:13:36Z</time>
      </trkpt>
      <trkpt lat="42.74255" lon="1.53485">
        <ele>1826.8</ele>
        <time>2021-09-19T12:13:37Z</time>
      </trkpt>
      <trkpt lat="42.74261" lon="1.53485">
        <ele>1825.6</ele>
        <time>2021-09-19T12:13:45Z</time>
      </trkpt>
      <trkpt lat="42.74265" lon="1.53486">
        <ele>1824.8</ele>
        <time>2021-09-19T12:13:50Z</time>
      </trkpt>
      <trkpt lat="42.74267" lon="1.53486">
        <ele>1824.4</ele>
        <time>2021-09-19T12:13:52Z</time>
      </trkpt>
      <trkpt lat="42.74271" lon="1.53488">
        <ele>1823.2</ele>
        <time>2021-09-19T12:13:58Z</time>
      </trkpt>
      <trkpt lat="42.74274" lon="1.53488">
        <ele>1822.6</ele>
        <time>2021-09-19T12:14:01Z</time>
      </trkpt>
      <trkpt lat="42.74278" lon="1.53489">
        <ele>1822.2</ele>
        <time>2021-09-19T12:14:06Z</time>
      </trkpt>
      <trkpt lat="42.74285" lon="1.5349">
        <ele>1821.4</ele>
        <time>2021-09-19T12:14:13Z</time>
      </trkpt>
      <trkpt lat="42.74288" lon="1.53491">
        <ele>1821.2</ele>
        <time>2021-09-19T12:14:17Z</time>
      </trkpt>
      <trkpt lat="42.74293" lon="1.53489">
        <ele>1820.4</ele>
        <time>2021-09-19T12:14:22Z</time>
      </trkpt>
      <trkpt lat="42.74297" lon="1.53489">
        <ele>1820</ele>
        <time>2021-09-19T12:14:26Z</time>
      </trkpt>
      <trkpt lat="42.74302" lon="1.53489">
        <ele>1819</ele>
        <time>2021-09-19T12:14:32Z</time>
      </trkpt>
      <trkpt lat="42.74303" lon="1.5349">
        <ele>1818.8</ele>
        <time>2021-09-19T12:14:33Z</time>
      </trkpt>
      <trkpt lat="42.74306" lon="1.53491">
        <ele>1818.2</ele>
        <time>2021-09-19T12:14:38Z</time>
      </trkpt>
      <trkpt lat="42.74308" lon="1.53492">
        <ele>1818</ele>
        <time>2021-09-19T12:14:40Z</time>
      </trkpt>
      <trkpt lat="42.74313" lon="1.53496">
        <ele>1817.8</ele>
        <time>2021-09-19T12:14:45Z</time>
      </trkpt>
      <trkpt lat="42.74316" lon="1.53497">
        <ele>1817</ele>
        <time>2021-09-19T12:14:50Z</time>
      </trkpt>
      <trkpt lat="42.74318" lon="1.53498">
        <ele>1816.8</ele>
        <time>2021-09-19T12:14:51Z</time>
      </trkpt>
      <trkpt lat="42.74321" lon="1.535">
        <ele>1816.4</ele>
        <time>2021-09-19T12:14:56Z</time>
      </trkpt>
      <trkpt lat="42.74325" lon="1.53501">
        <ele>1815.8</ele>
        <time>2021-09-19T12:15:02Z</time>
      </trkpt>
      <trkpt lat="42.74327" lon="1.53502">
        <ele>1814.6</ele>
        <time>2021-09-19T12:15:06Z</time>
      </trkpt>
      <trkpt lat="42.74328" lon="1.53503">
        <ele>1814.4</ele>
        <time>2021-09-19T12:15:07Z</time>
      </trkpt>
      <trkpt lat="42.74333" lon="1.53507">
        <ele>1813.6</ele>
        <time>2021-09-19T12:15:14Z</time>
      </trkpt>
      <trkpt lat="42.74335" lon="1.53507">
        <ele>1813.2</ele>
        <time>2021-09-19T12:15:16Z</time>
      </trkpt>
      <trkpt lat="42.74338" lon="1.53508">
        <ele>1812.2</ele>
        <time>2021-09-19T12:15:20Z</time>
      </trkpt>
      <trkpt lat="42.74341" lon="1.53509">
        <ele>1811.4</ele>
        <time>2021-09-19T12:15:25Z</time>
      </trkpt>
      <trkpt lat="42.74343" lon="1.53508">
        <ele>1811</ele>
        <time>2021-09-19T12:15:27Z</time>
      </trkpt>
      <trkpt lat="42.74344" lon="1.53508">
        <ele>1810.6</ele>
        <time>2021-09-19T12:15:30Z</time>
      </trkpt>
      <trkpt lat="42.74348" lon="1.53509">
        <ele>1810</ele>
        <time>2021-09-19T12:15:35Z</time>
      </trkpt>
      <trkpt lat="42.74352" lon="1.53509">
        <ele>1809</ele>
        <time>2021-09-19T12:15:41Z</time>
      </trkpt>
      <trkpt lat="42.74357" lon="1.53508">
        <ele>1808.2</ele>
        <time>2021-09-19T12:15:46Z</time>
      </trkpt>
      <trkpt lat="42.7436" lon="1.53508">
        <ele>1807.8</ele>
        <time>2021-09-19T12:15:49Z</time>
      </trkpt>
      <trkpt lat="42.74362" lon="1.53507">
        <ele>1807.2</ele>
        <time>2021-09-19T12:15:51Z</time>
      </trkpt>
      <trkpt lat="42.74364" lon="1.53507">
        <ele>1806.8</ele>
        <time>2021-09-19T12:15:54Z</time>
      </trkpt>
      <trkpt lat="42.74366" lon="1.53507">
        <ele>1806.6</ele>
        <time>2021-09-19T12:15:57Z</time>
      </trkpt>
      <trkpt lat="42.74371" lon="1.53507">
        <ele>1805.8</ele>
        <time>2021-09-19T12:16:02Z</time>
      </trkpt>
      <trkpt lat="42.74374" lon="1.53507">
        <ele>1804.6</ele>
        <time>2021-09-19T12:16:05Z</time>
      </trkpt>
      <trkpt lat="42.74376" lon="1.53507">
        <ele>1804</ele>
        <time>2021-09-19T12:16:07Z</time>
      </trkpt>
      <trkpt lat="42.74378" lon="1.53507">
        <ele>1803.6</ele>
        <time>2021-09-19T12:16:09Z</time>
      </trkpt>
      <trkpt lat="42.74381" lon="1.53505">
        <ele>1802.8</ele>
        <time>2021-09-19T12:16:13Z</time>
      </trkpt>
      <trkpt lat="42.74382" lon="1.53504">
        <ele>1801.8</ele>
        <time>2021-09-19T12:16:16Z</time>
      </trkpt>
      <trkpt lat="42.74388" lon="1.53505">
        <ele>1800.8</ele>
        <time>2021-09-19T12:16:24Z</time>
      </trkpt>
      <trkpt lat="42.74389" lon="1.53504">
        <ele>1800.8</ele>
        <time>2021-09-19T12:16:25Z</time>
      </trkpt>
      <trkpt lat="42.74393" lon="1.53504">
        <ele>1799.8</ele>
        <time>2021-09-19T12:16:31Z</time>
      </trkpt>
      <trkpt lat="42.74395" lon="1.53506">
        <ele>1799.4</ele>
        <time>2021-09-19T12:16:35Z</time>
      </trkpt>
      <trkpt lat="42.74402" lon="1.53509">
        <ele>1798.8</ele>
        <time>2021-09-19T12:16:43Z</time>
      </trkpt>
      <trkpt lat="42.74403" lon="1.53509">
        <ele>1798.6</ele>
        <time>2021-09-19T12:16:44Z</time>
      </trkpt>
      <trkpt lat="42.7441" lon="1.53508">
        <ele>1797.6</ele>
        <time>2021-09-19T12:16:52Z</time>
      </trkpt>
      <trkpt lat="42.74411" lon="1.53509">
        <ele>1797.2</ele>
        <time>2021-09-19T12:16:54Z</time>
      </trkpt>
      <trkpt lat="42.74411" lon="1.53509">
        <ele>1797</ele>
        <time>2021-09-19T12:16:55Z</time>
      </trkpt>
      <trkpt lat="42.7441" lon="1.5351">
        <ele>1796.8</ele>
        <time>2021-09-19T12:16:57Z</time>
      </trkpt>
      <trkpt lat="42.7441" lon="1.5351">
        <ele>1796.6</ele>
        <time>2021-09-19T12:16:58Z</time>
      </trkpt>
      <trkpt lat="42.74411" lon="1.53509">
        <ele>1796.4</ele>
        <time>2021-09-19T12:17:00Z</time>
      </trkpt>
      <trkpt lat="42.74413" lon="1.53511">
        <ele>1795.8</ele>
        <time>2021-09-19T12:17:06Z</time>
      </trkpt>
      <trkpt lat="42.74415" lon="1.53513">
        <ele>1795.4</ele>
        <time>2021-09-19T12:17:08Z</time>
      </trkpt>
      <trkpt lat="42.74415" lon="1.53514">
        <ele>1795.4</ele>
        <time>2021-09-19T12:17:09Z</time>
      </trkpt>
      <trkpt lat="42.74418" lon="1.53516">
        <ele>1794.6</ele>
        <time>2021-09-19T12:17:14Z</time>
      </trkpt>
      <trkpt lat="42.74419" lon="1.53516">
        <ele>1794.4</ele>
        <time>2021-09-19T12:17:16Z</time>
      </trkpt>
      <trkpt lat="42.74421" lon="1.53515">
        <ele>1793.8</ele>
        <time>2021-09-19T12:17:21Z</time>
      </trkpt>
      <trkpt lat="42.74425" lon="1.53515">
        <ele>1793.6</ele>
        <time>2021-09-19T12:17:25Z</time>
      </trkpt>
      <trkpt lat="42.74427" lon="1.53513">
        <ele>1793.2</ele>
        <time>2021-09-19T12:17:27Z</time>
      </trkpt>
      <trkpt lat="42.7443" lon="1.53512">
        <ele>1792</ele>
        <time>2021-09-19T12:17:30Z</time>
      </trkpt>
      <trkpt lat="42.74433" lon="1.53512">
        <ele>1790.8</ele>
        <time>2021-09-19T12:17:33Z</time>
      </trkpt>
      <trkpt lat="42.74434" lon="1.53511">
        <ele>1790.6</ele>
        <time>2021-09-19T12:17:34Z</time>
      </trkpt>
      <trkpt lat="42.74437" lon="1.53512">
        <ele>1789.8</ele>
        <time>2021-09-19T12:17:37Z</time>
      </trkpt>
      <trkpt lat="42.74438" lon="1.53512">
        <ele>1789.6</ele>
        <time>2021-09-19T12:17:38Z</time>
      </trkpt>
      <trkpt lat="42.7444" lon="1.53511">
        <ele>1788.4</ele>
        <time>2021-09-19T12:17:43Z</time>
      </trkpt>
      <trkpt lat="42.74445" lon="1.53506">
        <ele>1787.8</ele>
        <time>2021-09-19T12:17:51Z</time>
      </trkpt>
      <trkpt lat="42.74448" lon="1.53504">
        <ele>1787</ele>
        <time>2021-09-19T12:17:54Z</time>
      </trkpt>
      <trkpt lat="42.74451" lon="1.53505">
        <ele>1786.2</ele>
        <time>2021-09-19T12:17:58Z</time>
      </trkpt>
      <trkpt lat="42.74452" lon="1.53503">
        <ele>1786</ele>
        <time>2021-09-19T12:17:59Z</time>
      </trkpt>
      <trkpt lat="42.74452" lon="1.53503">
        <ele>1786</ele>
        <time>2021-09-19T12:18:00Z</time>
      </trkpt>
      <trkpt lat="42.74452" lon="1.53502">
        <ele>1785.8</ele>
        <time>2021-09-19T12:18:01Z</time>
      </trkpt>
      <trkpt lat="42.74456" lon="1.53503">
        <ele>1784.8</ele>
        <time>2021-09-19T12:18:07Z</time>
      </trkpt>
      <trkpt lat="42.7446" lon="1.53502">
        <ele>1784.2</ele>
        <time>2021-09-19T12:18:11Z</time>
      </trkpt>
      <trkpt lat="42.74461" lon="1.53502">
        <ele>1784</ele>
        <time>2021-09-19T12:18:12Z</time>
      </trkpt>
      <trkpt lat="42.74461" lon="1.53503">
        <ele>1783.8</ele>
        <time>2021-09-19T12:18:13Z</time>
      </trkpt>
      <trkpt lat="42.74462" lon="1.53503">
        <ele>1783.8</ele>
        <time>2021-09-19T12:18:14Z</time>
      </trkpt>
      <trkpt lat="42.74464" lon="1.53502">
        <ele>1782.6</ele>
        <time>2021-09-19T12:18:18Z</time>
      </trkpt>
      <trkpt lat="42.74467" lon="1.535">
        <ele>1781.6</ele>
        <time>2021-09-19T12:18:23Z</time>
      </trkpt>
      <trkpt lat="42.74469" lon="1.53502">
        <ele>1781.2</ele>
        <time>2021-09-19T12:18:27Z</time>
      </trkpt>
      <trkpt lat="42.74471" lon="1.535">
        <ele>1780.8</ele>
        <time>2021-09-19T12:18:30Z</time>
      </trkpt>
      <trkpt lat="42.74473" lon="1.535">
        <ele>1780</ele>
        <time>2021-09-19T12:18:32Z</time>
      </trkpt>
      <trkpt lat="42.74475" lon="1.535">
        <ele>1779.2</ele>
        <time>2021-09-19T12:18:37Z</time>
      </trkpt>
      <trkpt lat="42.74476" lon="1.535">
        <ele>1778.8</ele>
        <time>2021-09-19T12:18:38Z</time>
      </trkpt>
      <trkpt lat="42.74477" lon="1.53499">
        <ele>1778.2</ele>
        <time>2021-09-19T12:18:42Z</time>
      </trkpt>
      <trkpt lat="42.74477" lon="1.53498">
        <ele>1778.2</ele>
        <time>2021-09-19T12:18:43Z</time>
      </trkpt>
      <trkpt lat="42.74478" lon="1.53498">
        <ele>1778</ele>
        <time>2021-09-19T12:18:44Z</time>
      </trkpt>
      <trkpt lat="42.7448" lon="1.53497">
        <ele>1777.8</ele>
        <time>2021-09-19T12:18:47Z</time>
      </trkpt>
      <trkpt lat="42.74478" lon="1.53499">
        <ele>1777</ele>
        <time>2021-09-19T12:18:51Z</time>
      </trkpt>
      <trkpt lat="42.74477" lon="1.53499">
        <ele>1776.6</ele>
        <time>2021-09-19T12:18:52Z</time>
      </trkpt>
      <trkpt lat="42.74477" lon="1.53496">
        <ele>1776.2</ele>
        <time>2021-09-19T12:18:56Z</time>
      </trkpt>
      <trkpt lat="42.74482" lon="1.5349">
        <ele>1776</ele>
        <time>2021-09-19T12:19:01Z</time>
      </trkpt>
      <trkpt lat="42.74484" lon="1.53488">
        <ele>1775.6</ele>
        <time>2021-09-19T12:19:03Z</time>
      </trkpt>
      <trkpt lat="42.74487" lon="1.53489">
        <ele>1774.6</ele>
        <time>2021-09-19T12:19:06Z</time>
      </trkpt>
      <trkpt lat="42.7449" lon="1.53491">
        <ele>1773.6</ele>
        <time>2021-09-19T12:19:09Z</time>
      </trkpt>
      <trkpt lat="42.74492" lon="1.53491">
        <ele>1773.2</ele>
        <time>2021-09-19T12:19:11Z</time>
      </trkpt>
      <trkpt lat="42.74497" lon="1.53492">
        <ele>1772.4</ele>
        <time>2021-09-19T12:19:16Z</time>
      </trkpt>
      <trkpt lat="42.74498" lon="1.53493">
        <ele>1772.2</ele>
        <time>2021-09-19T12:19:17Z</time>
      </trkpt>
      <trkpt lat="42.74501" lon="1.53494">
        <ele>1771.2</ele>
        <time>2021-09-19T12:19:20Z</time>
      </trkpt>
      <trkpt lat="42.74503" lon="1.53494">
        <ele>1770.6</ele>
        <time>2021-09-19T12:19:22Z</time>
      </trkpt>
      <trkpt lat="42.74507" lon="1.53493">
        <ele>1770</ele>
        <time>2021-09-19T12:19:26Z</time>
      </trkpt>
      <trkpt lat="42.7451" lon="1.53491">
        <ele>1769</ele>
        <time>2021-09-19T12:19:30Z</time>
      </trkpt>
      <trkpt lat="42.74511" lon="1.53491">
        <ele>1768.8</ele>
        <time>2021-09-19T12:19:31Z</time>
      </trkpt>
      <trkpt lat="42.74515" lon="1.53489">
        <ele>1767.6</ele>
        <time>2021-09-19T12:19:35Z</time>
      </trkpt>
      <trkpt lat="42.74517" lon="1.53486">
        <ele>1766.4</ele>
        <time>2021-09-19T12:19:38Z</time>
      </trkpt>
      <trkpt lat="42.74517" lon="1.53485">
        <ele>1766.2</ele>
        <time>2021-09-19T12:19:39Z</time>
      </trkpt>
      <trkpt lat="42.74518" lon="1.53485">
        <ele>1765.8</ele>
        <time>2021-09-19T12:19:42Z</time>
      </trkpt>
      <trkpt lat="42.7452" lon="1.53484">
        <ele>1765.2</ele>
        <time>2021-09-19T12:19:45Z</time>
      </trkpt>
      <trkpt lat="42.74521" lon="1.53483">
        <ele>1764.8</ele>
        <time>2021-09-19T12:19:46Z</time>
      </trkpt>
      <trkpt lat="42.74522" lon="1.53481">
        <ele>1764.2</ele>
        <time>2021-09-19T12:19:49Z</time>
      </trkpt>
      <trkpt lat="42.74525" lon="1.53477">
        <ele>1763.6</ele>
        <time>2021-09-19T12:19:54Z</time>
      </trkpt>
      <trkpt lat="42.74526" lon="1.53476">
        <ele>1763</ele>
        <time>2021-09-19T12:19:57Z</time>
      </trkpt>
      <trkpt lat="42.74528" lon="1.53473">
        <ele>1761.8</ele>
        <time>2021-09-19T12:20:00Z</time>
      </trkpt>
      <trkpt lat="42.74529" lon="1.53473">
        <ele>1761</ele>
        <time>2021-09-19T12:20:02Z</time>
      </trkpt>
      <trkpt lat="42.74532" lon="1.53474">
        <ele>1760.8</ele>
        <time>2021-09-19T12:20:06Z</time>
      </trkpt>
      <trkpt lat="42.74532" lon="1.53474">
        <ele>1760.6</ele>
        <time>2021-09-19T12:20:07Z</time>
      </trkpt>
      <trkpt lat="42.74534" lon="1.53475">
        <ele>1760.4</ele>
        <time>2021-09-19T12:20:09Z</time>
      </trkpt>
      <trkpt lat="42.74535" lon="1.53475">
        <ele>1760.2</ele>
        <time>2021-09-19T12:20:10Z</time>
      </trkpt>
      <trkpt lat="42.74538" lon="1.53473">
        <ele>1759.6</ele>
        <time>2021-09-19T12:20:14Z</time>
      </trkpt>
      <trkpt lat="42.74542" lon="1.5347">
        <ele>1758.8</ele>
        <time>2021-09-19T12:20:18Z</time>
      </trkpt>
      <trkpt lat="42.74544" lon="1.53469">
        <ele>1758.4</ele>
        <time>2021-09-19T12:20:20Z</time>
      </trkpt>
      <trkpt lat="42.74545" lon="1.5347">
        <ele>1758.2</ele>
        <time>2021-09-19T12:20:21Z</time>
      </trkpt>
      <trkpt lat="42.74548" lon="1.53473">
        <ele>1757.8</ele>
        <time>2021-09-19T12:20:24Z</time>
      </trkpt>
      <trkpt lat="42.7455" lon="1.53475">
        <ele>1757.4</ele>
        <time>2021-09-19T12:20:27Z</time>
      </trkpt>
      <trkpt lat="42.74551" lon="1.53474">
        <ele>1757.4</ele>
        <time>2021-09-19T12:20:28Z</time>
      </trkpt>
      <trkpt lat="42.74553" lon="1.5347">
        <ele>1757.2</ele>
        <time>2021-09-19T12:20:32Z</time>
      </trkpt>
      <trkpt lat="42.74556" lon="1.53468">
        <ele>1757</ele>
        <time>2021-09-19T12:20:36Z</time>
      </trkpt>
      <trkpt lat="42.74557" lon="1.53468">
        <ele>1756.8</ele>
        <time>2021-09-19T12:20:38Z</time>
      </trkpt>
      <trkpt lat="42.74564" lon="1.53468">
        <ele>1756.4</ele>
        <time>2021-09-19T12:20:45Z</time>
      </trkpt>
      <trkpt lat="42.74569" lon="1.53466">
        <ele>1756.4</ele>
        <time>2021-09-19T12:20:50Z</time>
      </trkpt>
      <trkpt lat="42.74569" lon="1.53465">
        <ele>1756.4</ele>
        <time>2021-09-19T12:20:51Z</time>
      </trkpt>
      <trkpt lat="42.74571" lon="1.53465">
        <ele>1756.2</ele>
        <time>2021-09-19T12:20:53Z</time>
      </trkpt>
      <trkpt lat="42.74577" lon="1.53464">
        <ele>1756</ele>
        <time>2021-09-19T12:21:01Z</time>
      </trkpt>
      <trkpt lat="42.74585" lon="1.5346">
        <ele>1755.6</ele>
        <time>2021-09-19T12:21:07Z</time>
      </trkpt>
      <trkpt lat="42.74587" lon="1.53459">
        <ele>1755</ele>
        <time>2021-09-19T12:21:09Z</time>
      </trkpt>
      <trkpt lat="42.74594" lon="1.53459">
        <ele>1755</ele>
        <time>2021-09-19T12:21:15Z</time>
      </trkpt>
      <trkpt lat="42.74599" lon="1.53462">
        <ele>1755.8</ele>
        <time>2021-09-19T12:21:23Z</time>
      </trkpt>
      <trkpt lat="42.746" lon="1.53464">
        <ele>1756.4</ele>
        <time>2021-09-19T12:21:25Z</time>
      </trkpt>
      <trkpt lat="42.74603" lon="1.53464">
        <ele>1757.4</ele>
        <time>2021-09-19T12:21:30Z</time>
      </trkpt>
      <trkpt lat="42.74604" lon="1.53464">
        <ele>1757.4</ele>
        <time>2021-09-19T12:21:31Z</time>
      </trkpt>
      <trkpt lat="42.74604" lon="1.53465">
        <ele>1757.8</ele>
        <time>2021-09-19T12:21:32Z</time>
      </trkpt>
      <trkpt lat="42.74606" lon="1.53464">
        <ele>1758.6</ele>
        <time>2021-09-19T12:21:34Z</time>
      </trkpt>
      <trkpt lat="42.74608" lon="1.53464">
        <ele>1760</ele>
        <time>2021-09-19T12:21:36Z</time>
      </trkpt>
      <trkpt lat="42.74608" lon="1.53465">
        <ele>1759.8</ele>
        <time>2021-09-19T12:21:39Z</time>
      </trkpt>
      <trkpt lat="42.74609" lon="1.53464">
        <ele>1759.6</ele>
        <time>2021-09-19T12:21:42Z</time>
      </trkpt>
      <trkpt lat="42.74611" lon="1.53463">
        <ele>1759.6</ele>
        <time>2021-09-19T12:21:45Z</time>
      </trkpt>
      <trkpt lat="42.74613" lon="1.53462">
        <ele>1759.4</ele>
        <time>2021-09-19T12:21:47Z</time>
      </trkpt>
      <trkpt lat="42.74614" lon="1.53461">
        <ele>1759</ele>
        <time>2021-09-19T12:21:49Z</time>
      </trkpt>
      <trkpt lat="42.74616" lon="1.53457">
        <ele>1758.2</ele>
        <time>2021-09-19T12:21:54Z</time>
      </trkpt>
      <trkpt lat="42.74616" lon="1.53456">
        <ele>1757.6</ele>
        <time>2021-09-19T12:21:56Z</time>
      </trkpt>
      <trkpt lat="42.74618" lon="1.53456">
        <ele>1756.8</ele>
        <time>2021-09-19T12:21:59Z</time>
      </trkpt>
      <trkpt lat="42.7462" lon="1.53455">
        <ele>1756.6</ele>
        <time>2021-09-19T12:22:01Z</time>
      </trkpt>
      <trkpt lat="42.7462" lon="1.53451">
        <ele>1756</ele>
        <time>2021-09-19T12:22:05Z</time>
      </trkpt>
      <trkpt lat="42.7462" lon="1.5345">
        <ele>1755.4</ele>
        <time>2021-09-19T12:22:06Z</time>
      </trkpt>
      <trkpt lat="42.74622" lon="1.5345">
        <ele>1753.8</ele>
        <time>2021-09-19T12:22:10Z</time>
      </trkpt>
      <trkpt lat="42.74622" lon="1.53449">
        <ele>1753.2</ele>
        <time>2021-09-19T12:22:11Z</time>
      </trkpt>
      <trkpt lat="42.74623" lon="1.53446">
        <ele>1752.2</ele>
        <time>2021-09-19T12:22:13Z</time>
      </trkpt>
      <trkpt lat="42.74622" lon="1.53442">
        <ele>1751.6</ele>
        <time>2021-09-19T12:22:16Z</time>
      </trkpt>
      <trkpt lat="42.74623" lon="1.53441">
        <ele>1751</ele>
        <time>2021-09-19T12:22:18Z</time>
      </trkpt>
      <trkpt lat="42.74623" lon="1.53437">
        <ele>1749.8</ele>
        <time>2021-09-19T12:22:22Z</time>
      </trkpt>
      <trkpt lat="42.74623" lon="1.53435">
        <ele>1748.4</ele>
        <time>2021-09-19T12:22:25Z</time>
      </trkpt>
      <trkpt lat="42.74625" lon="1.53436">
        <ele>1747.2</ele>
        <time>2021-09-19T12:22:28Z</time>
      </trkpt>
      <trkpt lat="42.74627" lon="1.53435">
        <ele>1746.2</ele>
        <time>2021-09-19T12:22:33Z</time>
      </trkpt>
      <trkpt lat="42.74627" lon="1.53435">
        <ele>1745.4</ele>
        <time>2021-09-19T12:22:34Z</time>
      </trkpt>
      <trkpt lat="42.74628" lon="1.53434">
        <ele>1745</ele>
        <time>2021-09-19T12:22:36Z</time>
      </trkpt>
      <trkpt lat="42.7463" lon="1.53433">
        <ele>1744.4</ele>
        <time>2021-09-19T12:22:39Z</time>
      </trkpt>
      <trkpt lat="42.7463" lon="1.53435">
        <ele>1744</ele>
        <time>2021-09-19T12:22:41Z</time>
      </trkpt>
      <trkpt lat="42.7463" lon="1.53434">
        <ele>1743.8</ele>
        <time>2021-09-19T12:22:42Z</time>
      </trkpt>
      <trkpt lat="42.74633" lon="1.53432">
        <ele>1743.2</ele>
        <time>2021-09-19T12:22:47Z</time>
      </trkpt>
      <trkpt lat="42.74633" lon="1.53432">
        <ele>1743</ele>
        <time>2021-09-19T12:22:48Z</time>
      </trkpt>
      <trkpt lat="42.74634" lon="1.53433">
        <ele>1742.8</ele>
        <time>2021-09-19T12:22:50Z</time>
      </trkpt>
      <trkpt lat="42.74636" lon="1.53434">
        <ele>1742.2</ele>
        <time>2021-09-19T12:22:54Z</time>
      </trkpt>
      <trkpt lat="42.7464" lon="1.53434">
        <ele>1741</ele>
        <time>2021-09-19T12:22:57Z</time>
      </trkpt>
      <trkpt lat="42.74642" lon="1.53437">
        <ele>1740.8</ele>
        <time>2021-09-19T12:23:00Z</time>
      </trkpt>
      <trkpt lat="42.74643" lon="1.53436">
        <ele>1740.6</ele>
        <time>2021-09-19T12:23:01Z</time>
      </trkpt>
      <trkpt lat="42.74649" lon="1.53432">
        <ele>1740</ele>
        <time>2021-09-19T12:23:06Z</time>
      </trkpt>
      <trkpt lat="42.7465" lon="1.5343">
        <ele>1739.4</ele>
        <time>2021-09-19T12:23:09Z</time>
      </trkpt>
      <trkpt lat="42.7465" lon="1.53429">
        <ele>1739.2</ele>
        <time>2021-09-19T12:23:10Z</time>
      </trkpt>
      <trkpt lat="42.74651" lon="1.53428">
        <ele>1738.8</ele>
        <time>2021-09-19T12:23:12Z</time>
      </trkpt>
      <trkpt lat="42.74653" lon="1.53425">
        <ele>1737.6</ele>
        <time>2021-09-19T12:23:15Z</time>
      </trkpt>
      <trkpt lat="42.74653" lon="1.53423">
        <ele>1737.2</ele>
        <time>2021-09-19T12:23:16Z</time>
      </trkpt>
      <trkpt lat="42.74654" lon="1.53419">
        <ele>1736.2</ele>
        <time>2021-09-19T12:23:21Z</time>
      </trkpt>
      <trkpt lat="42.74654" lon="1.53417">
        <ele>1735.6</ele>
        <time>2021-09-19T12:23:23Z</time>
      </trkpt>
      <trkpt lat="42.74654" lon="1.53415">
        <ele>1735.2</ele>
        <time>2021-09-19T12:23:25Z</time>
      </trkpt>
      <trkpt lat="42.74655" lon="1.53413">
        <ele>1734.2</ele>
        <time>2021-09-19T12:23:29Z</time>
      </trkpt>
      <trkpt lat="42.74656" lon="1.53413">
        <ele>1734.2</ele>
        <time>2021-09-19T12:23:32Z</time>
      </trkpt>
      <trkpt lat="42.74655" lon="1.53412">
        <ele>1734</ele>
        <time>2021-09-19T12:23:33Z</time>
      </trkpt>
      <trkpt lat="42.74657" lon="1.53408">
        <ele>1733.4</ele>
        <time>2021-09-19T12:23:41Z</time>
      </trkpt>
      <trkpt lat="42.74657" lon="1.53408">
        <ele>1733</ele>
        <time>2021-09-19T12:23:43Z</time>
      </trkpt>
      <trkpt lat="42.74657" lon="1.53408">
        <ele>1732.8</ele>
        <time>2021-09-19T12:23:44Z</time>
      </trkpt>
      <trkpt lat="42.74658" lon="1.53411">
        <ele>1732</ele>
        <time>2021-09-19T12:23:47Z</time>
      </trkpt>
      <trkpt lat="42.74658" lon="1.53412">
        <ele>1731.8</ele>
        <time>2021-09-19T12:23:48Z</time>
      </trkpt>
      <trkpt lat="42.74658" lon="1.53415">
        <ele>1732.2</ele>
        <time>2021-09-19T12:23:55Z</time>
      </trkpt>
      <trkpt lat="42.74658" lon="1.53414">
        <ele>1732.2</ele>
        <time>2021-09-19T12:23:57Z</time>
      </trkpt>
      <trkpt lat="42.74658" lon="1.53413">
        <ele>1732</ele>
        <time>2021-09-19T12:23:58Z</time>
      </trkpt>
      <trkpt lat="42.74659" lon="1.53412">
        <ele>1731.2</ele>
        <time>2021-09-19T12:24:11Z</time>
      </trkpt>
      <trkpt lat="42.74659" lon="1.53412">
        <ele>1731.2</ele>
        <time>2021-09-19T12:24:12Z</time>
      </trkpt>
      <trkpt lat="42.7466" lon="1.53417">
        <ele>1730.8</ele>
        <time>2021-09-19T12:24:18Z</time>
      </trkpt>
      <trkpt lat="42.74661" lon="1.53417">
        <ele>1730.8</ele>
        <time>2021-09-19T12:24:19Z</time>
      </trkpt>
      <trkpt lat="42.74661" lon="1.53417">
        <ele>1730.6</ele>
        <time>2021-09-19T12:24:20Z</time>
      </trkpt>
      <trkpt lat="42.74668" lon="1.53419">
        <ele>1730.6</ele>
        <time>2021-09-19T12:24:27Z</time>
      </trkpt>
      <trkpt lat="42.74669" lon="1.53419">
        <ele>1729.8</ele>
        <time>2021-09-19T12:24:30Z</time>
      </trkpt>
      <trkpt lat="42.74672" lon="1.53421">
        <ele>1729.4</ele>
        <time>2021-09-19T12:24:35Z</time>
      </trkpt>
      <trkpt lat="42.74674" lon="1.53423">
        <ele>1729.2</ele>
        <time>2021-09-19T12:24:39Z</time>
      </trkpt>
      <trkpt lat="42.74676" lon="1.53424">
        <ele>1728.8</ele>
        <time>2021-09-19T12:24:41Z</time>
      </trkpt>
      <trkpt lat="42.74676" lon="1.53425">
        <ele>1728.4</ele>
        <time>2021-09-19T12:24:42Z</time>
      </trkpt>
      <trkpt lat="42.74678" lon="1.53426">
        <ele>1727.8</ele>
        <time>2021-09-19T12:24:44Z</time>
      </trkpt>
      <trkpt lat="42.74679" lon="1.53426">
        <ele>1727.6</ele>
        <time>2021-09-19T12:24:45Z</time>
      </trkpt>
      <trkpt lat="42.7468" lon="1.53425">
        <ele>1727.2</ele>
        <time>2021-09-19T12:24:46Z</time>
      </trkpt>
      <trkpt lat="42.74682" lon="1.53422">
        <ele>1726.4</ele>
        <time>2021-09-19T12:24:48Z</time>
      </trkpt>
      <trkpt lat="42.74683" lon="1.53421">
        <ele>1725.8</ele>
        <time>2021-09-19T12:24:49Z</time>
      </trkpt>
      <trkpt lat="42.74684" lon="1.5342">
        <ele>1724.8</ele>
        <time>2021-09-19T12:24:51Z</time>
      </trkpt>
      <trkpt lat="42.74685" lon="1.53419">
        <ele>1724.6</ele>
        <time>2021-09-19T12:24:52Z</time>
      </trkpt>
      <trkpt lat="42.74686" lon="1.53417">
        <ele>1724.2</ele>
        <time>2021-09-19T12:24:55Z</time>
      </trkpt>
      <trkpt lat="42.74688" lon="1.53415">
        <ele>1723.4</ele>
        <time>2021-09-19T12:24:58Z</time>
      </trkpt>
      <trkpt lat="42.74691" lon="1.53415">
        <ele>1722.2</ele>
        <time>2021-09-19T12:25:02Z</time>
      </trkpt>
      <trkpt lat="42.74692" lon="1.53415">
        <ele>1722</ele>
        <time>2021-09-19T12:25:03Z</time>
      </trkpt>
      <trkpt lat="42.74693" lon="1.53415">
        <ele>1721.6</ele>
        <time>2021-09-19T12:25:04Z</time>
      </trkpt>
      <trkpt lat="42.74696" lon="1.53416">
        <ele>1721</ele>
        <time>2021-09-19T12:25:06Z</time>
      </trkpt>
      <trkpt lat="42.747" lon="1.53419">
        <ele>1720.6</ele>
        <time>2021-09-19T12:25:11Z</time>
      </trkpt>
      <trkpt lat="42.74703" lon="1.53419">
        <ele>1720</ele>
        <time>2021-09-19T12:25:13Z</time>
      </trkpt>
      <trkpt lat="42.7471" lon="1.53421">
        <ele>1719</ele>
        <time>2021-09-19T12:25:20Z</time>
      </trkpt>
      <trkpt lat="42.74711" lon="1.53422">
        <ele>1718.8</ele>
        <time>2021-09-19T12:25:21Z</time>
      </trkpt>
      <trkpt lat="42.74722" lon="1.53421">
        <ele>1718</ele>
        <time>2021-09-19T12:25:31Z</time>
      </trkpt>
      <trkpt lat="42.74726" lon="1.5342">
        <ele>1717.8</ele>
        <time>2021-09-19T12:25:35Z</time>
      </trkpt>
      <trkpt lat="42.74731" lon="1.53421">
        <ele>1716.6</ele>
        <time>2021-09-19T12:25:39Z</time>
      </trkpt>
      <trkpt lat="42.74732" lon="1.53421">
        <ele>1716.6</ele>
        <time>2021-09-19T12:25:41Z</time>
      </trkpt>
      <trkpt lat="42.74736" lon="1.53421">
        <ele>1717.4</ele>
        <time>2021-09-19T12:25:48Z</time>
      </trkpt>
      <trkpt lat="42.74743" lon="1.53418">
        <ele>1716.6</ele>
        <time>2021-09-19T12:25:55Z</time>
      </trkpt>
      <trkpt lat="42.74744" lon="1.53418">
        <ele>1716.4</ele>
        <time>2021-09-19T12:25:56Z</time>
      </trkpt>
      <trkpt lat="42.74745" lon="1.53417">
        <ele>1716.4</ele>
        <time>2021-09-19T12:25:57Z</time>
      </trkpt>
      <trkpt lat="42.74749" lon="1.53419">
        <ele>1716.2</ele>
        <time>2021-09-19T12:26:01Z</time>
      </trkpt>
      <trkpt lat="42.7475" lon="1.5342">
        <ele>1715.6</ele>
        <time>2021-09-19T12:26:03Z</time>
      </trkpt>
      <trkpt lat="42.74751" lon="1.53419">
        <ele>1715.4</ele>
        <time>2021-09-19T12:26:05Z</time>
      </trkpt>
      <trkpt lat="42.74754" lon="1.5342">
        <ele>1714.6</ele>
        <time>2021-09-19T12:26:08Z</time>
      </trkpt>
      <trkpt lat="42.74759" lon="1.53421">
        <ele>1713.8</ele>
        <time>2021-09-19T12:26:13Z</time>
      </trkpt>
      <trkpt lat="42.74761" lon="1.53422">
        <ele>1713.2</ele>
        <time>2021-09-19T12:26:15Z</time>
      </trkpt>
      <trkpt lat="42.74764" lon="1.53422">
        <ele>1712.4</ele>
        <time>2021-09-19T12:26:21Z</time>
      </trkpt>
      <trkpt lat="42.74764" lon="1.53422">
        <ele>1712</ele>
        <time>2021-09-19T12:26:23Z</time>
      </trkpt>
      <trkpt lat="42.74765" lon="1.53421">
        <ele>1712</ele>
        <time>2021-09-19T12:26:24Z</time>
      </trkpt>
      <trkpt lat="42.74765" lon="1.5342">
        <ele>1711.2</ele>
        <time>2021-09-19T12:26:30Z</time>
      </trkpt>
      <trkpt lat="42.74771" lon="1.53419">
        <ele>1711</ele>
        <time>2021-09-19T12:26:38Z</time>
      </trkpt>
      <trkpt lat="42.74776" lon="1.53417">
        <ele>1710</ele>
        <time>2021-09-19T12:26:42Z</time>
      </trkpt>
      <trkpt lat="42.74777" lon="1.53416">
        <ele>1709.8</ele>
        <time>2021-09-19T12:26:43Z</time>
      </trkpt>
      <trkpt lat="42.7478" lon="1.53414">
        <ele>1709.4</ele>
        <time>2021-09-19T12:26:45Z</time>
      </trkpt>
      <trkpt lat="42.74782" lon="1.53412">
        <ele>1708.8</ele>
        <time>2021-09-19T12:26:47Z</time>
      </trkpt>
      <trkpt lat="42.74784" lon="1.53411">
        <ele>1708.6</ele>
        <time>2021-09-19T12:26:49Z</time>
      </trkpt>
      <trkpt lat="42.74786" lon="1.53409">
        <ele>1708.6</ele>
        <time>2021-09-19T12:26:51Z</time>
      </trkpt>
      <trkpt lat="42.74786" lon="1.53408">
        <ele>1708.6</ele>
        <time>2021-09-19T12:26:52Z</time>
      </trkpt>
      <trkpt lat="42.7479" lon="1.53406">
        <ele>1708.2</ele>
        <time>2021-09-19T12:26:56Z</time>
      </trkpt>
      <trkpt lat="42.74791" lon="1.53406">
        <ele>1708.2</ele>
        <time>2021-09-19T12:26:58Z</time>
      </trkpt>
      <trkpt lat="42.74797" lon="1.53404">
        <ele>1708.6</ele>
        <time>2021-09-19T12:27:06Z</time>
      </trkpt>
      <trkpt lat="42.74798" lon="1.53403">
        <ele>1708.6</ele>
        <time>2021-09-19T12:27:08Z</time>
      </trkpt>
      <trkpt lat="42.74799" lon="1.53404">
        <ele>1708</ele>
        <time>2021-09-19T12:27:12Z</time>
      </trkpt>
      <trkpt lat="42.74799" lon="1.53403">
        <ele>1708</ele>
        <time>2021-09-19T12:27:13Z</time>
      </trkpt>
      <trkpt lat="42.74801" lon="1.53406">
        <ele>1707.8</ele>
        <time>2021-09-19T12:27:18Z</time>
      </trkpt>
      <trkpt lat="42.74798" lon="1.53404">
        <ele>1707.6</ele>
        <time>2021-09-19T12:27:21Z</time>
      </trkpt>
      <trkpt lat="42.74797" lon="1.53404">
        <ele>1707.4</ele>
        <time>2021-09-19T12:27:22Z</time>
      </trkpt>
      <trkpt lat="42.74797" lon="1.53404">
        <ele>1707.2</ele>
        <time>2021-09-19T12:27:24Z</time>
      </trkpt>
      <trkpt lat="42.74797" lon="1.53405">
        <ele>1707</ele>
        <time>2021-09-19T12:27:33Z</time>
      </trkpt>
      <trkpt lat="42.74797" lon="1.53404">
        <ele>1706.8</ele>
        <time>2021-09-19T12:27:34Z</time>
      </trkpt>
      <trkpt lat="42.74798" lon="1.53402">
        <ele>1706.8</ele>
        <time>2021-09-19T12:27:36Z</time>
      </trkpt>
      <trkpt lat="42.74803" lon="1.53399">
        <ele>1706.2</ele>
        <time>2021-09-19T12:27:42Z</time>
      </trkpt>
      <trkpt lat="42.74804" lon="1.53399">
        <ele>1706</ele>
        <time>2021-09-19T12:27:43Z</time>
      </trkpt>
      <trkpt lat="42.74806" lon="1.53399">
        <ele>1705.8</ele>
        <time>2021-09-19T12:27:48Z</time>
      </trkpt>
      <trkpt lat="42.74807" lon="1.53399">
        <ele>1705.6</ele>
        <time>2021-09-19T12:27:50Z</time>
      </trkpt>
      <trkpt lat="42.74808" lon="1.53398">
        <ele>1704.8</ele>
        <time>2021-09-19T12:27:52Z</time>
      </trkpt>
      <trkpt lat="42.74809" lon="1.53398">
        <ele>1704.2</ele>
        <time>2021-09-19T12:27:53Z</time>
      </trkpt>
      <trkpt lat="42.7481" lon="1.53398">
        <ele>1703.4</ele>
        <time>2021-09-19T12:27:56Z</time>
      </trkpt>
      <trkpt lat="42.74811" lon="1.53397">
        <ele>1703.2</ele>
        <time>2021-09-19T12:27:57Z</time>
      </trkpt>
      <trkpt lat="42.74814" lon="1.53397">
        <ele>1702</ele>
        <time>2021-09-19T12:28:00Z</time>
      </trkpt>
      <trkpt lat="42.74816" lon="1.53396">
        <ele>1701.6</ele>
        <time>2021-09-19T12:28:03Z</time>
      </trkpt>
      <trkpt lat="42.74817" lon="1.53396">
        <ele>1701.4</ele>
        <time>2021-09-19T12:28:04Z</time>
      </trkpt>
      <trkpt lat="42.74818" lon="1.53395">
        <ele>1700.8</ele>
        <time>2021-09-19T12:28:06Z</time>
      </trkpt>
      <trkpt lat="42.74819" lon="1.53396">
        <ele>1700.2</ele>
        <time>2021-09-19T12:28:08Z</time>
      </trkpt>
      <trkpt lat="42.74821" lon="1.53395">
        <ele>1699.4</ele>
        <time>2021-09-19T12:28:10Z</time>
      </trkpt>
      <trkpt lat="42.74824" lon="1.53392">
        <ele>1698.4</ele>
        <time>2021-09-19T12:28:14Z</time>
      </trkpt>
      <trkpt lat="42.74828" lon="1.53392">
        <ele>1697.4</ele>
        <time>2021-09-19T12:28:20Z</time>
      </trkpt>
      <trkpt lat="42.74828" lon="1.53393">
        <ele>1697</ele>
        <time>2021-09-19T12:28:21Z</time>
      </trkpt>
      <trkpt lat="42.74826" lon="1.53399">
        <ele>1697.4</ele>
        <time>2021-09-19T12:28:32Z</time>
      </trkpt>
      <trkpt lat="42.74826" lon="1.53399">
        <ele>1697.4</ele>
        <time>2021-09-19T12:28:33Z</time>
      </trkpt>
      <trkpt lat="42.74827" lon="1.53398">
        <ele>1697</ele>
        <time>2021-09-19T12:28:35Z</time>
      </trkpt>
      <trkpt lat="42.74828" lon="1.53397">
        <ele>1696</ele>
        <time>2021-09-19T12:28:37Z</time>
      </trkpt>
      <trkpt lat="42.74829" lon="1.53396">
        <ele>1695.6</ele>
        <time>2021-09-19T12:28:38Z</time>
      </trkpt>
      <trkpt lat="42.74831" lon="1.53395">
        <ele>1694.6</ele>
        <time>2021-09-19T12:28:41Z</time>
      </trkpt>
      <trkpt lat="42.74833" lon="1.53394">
        <ele>1693.6</ele>
        <time>2021-09-19T12:28:45Z</time>
      </trkpt>
      <trkpt lat="42.74837" lon="1.53392">
        <ele>1692.4</ele>
        <time>2021-09-19T12:28:49Z</time>
      </trkpt>
      <trkpt lat="42.74838" lon="1.53392">
        <ele>1692</ele>
        <time>2021-09-19T12:28:51Z</time>
      </trkpt>
      <trkpt lat="42.74839" lon="1.53392">
        <ele>1691.4</ele>
        <time>2021-09-19T12:28:55Z</time>
      </trkpt>
      <trkpt lat="42.7484" lon="1.53391">
        <ele>1691.2</ele>
        <time>2021-09-19T12:28:58Z</time>
      </trkpt>
      <trkpt lat="42.74839" lon="1.53391">
        <ele>1690.4</ele>
        <time>2021-09-19T12:29:05Z</time>
      </trkpt>
      <trkpt lat="42.74839" lon="1.53392">
        <ele>1690.2</ele>
        <time>2021-09-19T12:29:06Z</time>
      </trkpt>
      <trkpt lat="42.7484" lon="1.53393">
        <ele>1689.8</ele>
        <time>2021-09-19T12:29:09Z</time>
      </trkpt>
      <trkpt lat="42.74841" lon="1.53392">
        <ele>1689.6</ele>
        <time>2021-09-19T12:29:10Z</time>
      </trkpt>
      <trkpt lat="42.74844" lon="1.53391">
        <ele>1689.2</ele>
        <time>2021-09-19T12:29:13Z</time>
      </trkpt>
      <trkpt lat="42.74847" lon="1.5339">
        <ele>1688.2</ele>
        <time>2021-09-19T12:29:17Z</time>
      </trkpt>
      <trkpt lat="42.74847" lon="1.5339">
        <ele>1688</ele>
        <time>2021-09-19T12:29:18Z</time>
      </trkpt>
      <trkpt lat="42.74847" lon="1.53389">
        <ele>1687</ele>
        <time>2021-09-19T12:29:20Z</time>
      </trkpt>
      <trkpt lat="42.74848" lon="1.53389">
        <ele>1686.8</ele>
        <time>2021-09-19T12:29:21Z</time>
      </trkpt>
      <trkpt lat="42.74848" lon="1.53389">
        <ele>1686.6</ele>
        <time>2021-09-19T12:29:22Z</time>
      </trkpt>
      <trkpt lat="42.74851" lon="1.53389">
        <ele>1685.8</ele>
        <time>2021-09-19T12:29:25Z</time>
      </trkpt>
      <trkpt lat="42.74852" lon="1.53387">
        <ele>1684.8</ele>
        <time>2021-09-19T12:29:27Z</time>
      </trkpt>
      <trkpt lat="42.74853" lon="1.53387">
        <ele>1684.6</ele>
        <time>2021-09-19T12:29:28Z</time>
      </trkpt>
      <trkpt lat="42.74856" lon="1.53386">
        <ele>1683.6</ele>
        <time>2021-09-19T12:29:34Z</time>
      </trkpt>
      <trkpt lat="42.74856" lon="1.53386">
        <ele>1683.2</ele>
        <time>2021-09-19T12:29:35Z</time>
      </trkpt>
      <trkpt lat="42.74856" lon="1.53386">
        <ele>1682.6</ele>
        <time>2021-09-19T12:29:39Z</time>
      </trkpt>
      <trkpt lat="42.74856" lon="1.53385">
        <ele>1682.4</ele>
        <time>2021-09-19T12:29:41Z</time>
      </trkpt>
      <trkpt lat="42.7486" lon="1.53382">
        <ele>1681.8</ele>
        <time>2021-09-19T12:29:47Z</time>
      </trkpt>
      <trkpt lat="42.74861" lon="1.53382">
        <ele>1681</ele>
        <time>2021-09-19T12:29:48Z</time>
      </trkpt>
      <trkpt lat="42.74866" lon="1.53382">
        <ele>1680</ele>
        <time>2021-09-19T12:29:54Z</time>
      </trkpt>
      <trkpt lat="42.74867" lon="1.53382">
        <ele>1679.8</ele>
        <time>2021-09-19T12:29:55Z</time>
      </trkpt>
      <trkpt lat="42.74869" lon="1.53384">
        <ele>1679</ele>
        <time>2021-09-19T12:29:58Z</time>
      </trkpt>
      <trkpt lat="42.74869" lon="1.53384">
        <ele>1678.8</ele>
        <time>2021-09-19T12:29:59Z</time>
      </trkpt>
      <trkpt lat="42.74868" lon="1.53383">
        <ele>1678.6</ele>
        <time>2021-09-19T12:30:01Z</time>
      </trkpt>
      <trkpt lat="42.74868" lon="1.53383">
        <ele>1678.4</ele>
        <time>2021-09-19T12:30:02Z</time>
      </trkpt>
      <trkpt lat="42.74868" lon="1.53383">
        <ele>1678.4</ele>
        <time>2021-09-19T12:30:03Z</time>
      </trkpt>
      <trkpt lat="42.74868" lon="1.53382">
        <ele>1678.2</ele>
        <time>2021-09-19T12:30:05Z</time>
      </trkpt>
      <trkpt lat="42.7487" lon="1.53379">
        <ele>1678.2</ele>
        <time>2021-09-19T12:30:09Z</time>
      </trkpt>
      <trkpt lat="42.74871" lon="1.53377">
        <ele>1677.8</ele>
        <time>2021-09-19T12:30:12Z</time>
      </trkpt>
      <trkpt lat="42.74875" lon="1.53377">
        <ele>1677.6</ele>
        <time>2021-09-19T12:30:17Z</time>
      </trkpt>
      <trkpt lat="42.74877" lon="1.53377">
        <ele>1676.6</ele>
        <time>2021-09-19T12:30:20Z</time>
      </trkpt>
      <trkpt lat="42.74878" lon="1.53377">
        <ele>1676.2</ele>
        <time>2021-09-19T12:30:22Z</time>
      </trkpt>
      <trkpt lat="42.74878" lon="1.53377">
        <ele>1676</ele>
        <time>2021-09-19T12:30:23Z</time>
      </trkpt>
      <trkpt lat="42.74879" lon="1.53377">
        <ele>1675.4</ele>
        <time>2021-09-19T12:30:25Z</time>
      </trkpt>
      <trkpt lat="42.74881" lon="1.53377">
        <ele>1673.8</ele>
        <time>2021-09-19T12:30:29Z</time>
      </trkpt>
      <trkpt lat="42.74881" lon="1.53377">
        <ele>1673.4</ele>
        <time>2021-09-19T12:30:30Z</time>
      </trkpt>
      <trkpt lat="42.74881" lon="1.53377">
        <ele>1673.4</ele>
        <time>2021-09-19T12:30:31Z</time>
      </trkpt>
      <trkpt lat="42.74881" lon="1.53377">
        <ele>1673.2</ele>
        <time>2021-09-19T12:30:36Z</time>
      </trkpt>
      <trkpt lat="42.74883" lon="1.53375">
        <ele>1673</ele>
        <time>2021-09-19T12:30:41Z</time>
      </trkpt>
      <trkpt lat="42.74884" lon="1.53376">
        <ele>1672.6</ele>
        <time>2021-09-19T12:30:42Z</time>
      </trkpt>
      <trkpt lat="42.74887" lon="1.53375">
        <ele>1671.6</ele>
        <time>2021-09-19T12:30:48Z</time>
      </trkpt>
      <trkpt lat="42.74887" lon="1.53375">
        <ele>1671.4</ele>
        <time>2021-09-19T12:30:49Z</time>
      </trkpt>
      <trkpt lat="42.74887" lon="1.53375">
        <ele>1670.4</ele>
        <time>2021-09-19T12:30:54Z</time>
      </trkpt>
      <trkpt lat="42.74888" lon="1.53375">
        <ele>1670.2</ele>
        <time>2021-09-19T12:30:55Z</time>
      </trkpt>
      <trkpt lat="42.74891" lon="1.5337">
        <ele>1670</ele>
        <time>2021-09-19T12:31:01Z</time>
      </trkpt>
      <trkpt lat="42.74894" lon="1.53367">
        <ele>1669.8</ele>
        <time>2021-09-19T12:31:06Z</time>
      </trkpt>
      <trkpt lat="42.74896" lon="1.53359">
        <ele>1670</ele>
        <time>2021-09-19T12:31:12Z</time>
      </trkpt>
      <trkpt lat="42.74897" lon="1.53352">
        <ele>1669.2</ele>
        <time>2021-09-19T12:31:19Z</time>
      </trkpt>
      <trkpt lat="42.74898" lon="1.5335">
        <ele>1669</ele>
        <time>2021-09-19T12:31:21Z</time>
      </trkpt>
      <trkpt lat="42.749" lon="1.53348">
        <ele>1668</ele>
        <time>2021-09-19T12:31:27Z</time>
      </trkpt>
      <trkpt lat="42.74899" lon="1.53348">
        <ele>1667.8</ele>
        <time>2021-09-19T12:31:29Z</time>
      </trkpt>
      <trkpt lat="42.74896" lon="1.5335">
        <ele>1668.8</ele>
        <time>2021-09-19T12:31:36Z</time>
      </trkpt>
      <trkpt lat="42.74895" lon="1.53351">
        <ele>1668</ele>
        <time>2021-09-19T12:31:44Z</time>
      </trkpt>
      <trkpt lat="42.74896" lon="1.5335">
        <ele>1667.8</ele>
        <time>2021-09-19T12:31:47Z</time>
      </trkpt>
      <trkpt lat="42.74897" lon="1.5335">
        <ele>1668.2</ele>
        <time>2021-09-19T12:31:50Z</time>
      </trkpt>
      <trkpt lat="42.74899" lon="1.53344">
        <ele>1667.8</ele>
        <time>2021-09-19T12:31:59Z</time>
      </trkpt>
      <trkpt lat="42.74899" lon="1.53344">
        <ele>1667.8</ele>
        <time>2021-09-19T12:32:00Z</time>
      </trkpt>
      <trkpt lat="42.74898" lon="1.53346">
        <ele>1667.6</ele>
        <time>2021-09-19T12:32:06Z</time>
      </trkpt>
      <trkpt lat="42.74898" lon="1.53344">
        <ele>1668.2</ele>
        <time>2021-09-19T12:32:14Z</time>
      </trkpt>
      <trkpt lat="42.74897" lon="1.53338">
        <ele>1669</ele>
        <time>2021-09-19T12:32:24Z</time>
      </trkpt>
      <trkpt lat="42.74899" lon="1.53337">
        <ele>1667.8</ele>
        <time>2021-09-19T12:32:31Z</time>
      </trkpt>
      <trkpt lat="42.749" lon="1.53335">
        <ele>1667.8</ele>
        <time>2021-09-19T12:32:33Z</time>
      </trkpt>
      <trkpt lat="42.74899" lon="1.53336">
        <ele>1667</ele>
        <time>2021-09-19T12:32:46Z</time>
      </trkpt>
      <trkpt lat="42.74897" lon="1.53337">
        <ele>1668.2</ele>
        <time>2021-09-19T12:32:56Z</time>
      </trkpt>
      <trkpt lat="42.74893" lon="1.53336">
        <ele>1667</ele>
        <time>2021-09-19T12:33:05Z</time>
      </trkpt>
      <trkpt lat="42.74893" lon="1.53335">
        <ele>1667.4</ele>
        <time>2021-09-19T12:33:09Z</time>
      </trkpt>
      <trkpt lat="42.74895" lon="1.53335">
        <ele>1667.4</ele>
        <time>2021-09-19T12:33:11Z</time>
      </trkpt>
      <trkpt lat="42.74897" lon="1.53334">
        <ele>1666.8</ele>
        <time>2021-09-19T12:33:17Z</time>
      </trkpt>
      <trkpt lat="42.74897" lon="1.53334">
        <ele>1666.8</ele>
        <time>2021-09-19T12:33:18Z</time>
      </trkpt>
      <trkpt lat="42.74897" lon="1.53334">
        <ele>1667.4</ele>
        <time>2021-09-19T12:33:22Z</time>
      </trkpt>
      <trkpt lat="42.74898" lon="1.53332">
        <ele>1667.4</ele>
        <time>2021-09-19T12:33:30Z</time>
      </trkpt>
      <trkpt lat="42.749" lon="1.53331">
        <ele>1666.8</ele>
        <time>2021-09-19T12:33:34Z</time>
      </trkpt>
      <trkpt lat="42.749" lon="1.53329">
        <ele>1666.4</ele>
        <time>2021-09-19T12:33:36Z</time>
      </trkpt>
      <trkpt lat="42.74901" lon="1.53328">
        <ele>1665.8</ele>
        <time>2021-09-19T12:33:38Z</time>
      </trkpt>
      <trkpt lat="42.74902" lon="1.53326">
        <ele>1665.2</ele>
        <time>2021-09-19T12:33:41Z</time>
      </trkpt>
      <trkpt lat="42.74901" lon="1.53326">
        <ele>1665</ele>
        <time>2021-09-19T12:33:42Z</time>
      </trkpt>
      <trkpt lat="42.74901" lon="1.53326">
        <ele>1664.8</ele>
        <time>2021-09-19T12:33:43Z</time>
      </trkpt>
      <trkpt lat="42.74901" lon="1.53327">
        <ele>1664.4</ele>
        <time>2021-09-19T12:33:45Z</time>
      </trkpt>
      <trkpt lat="42.749" lon="1.53328">
        <ele>1664.6</ele>
        <time>2021-09-19T12:33:49Z</time>
      </trkpt>
      <trkpt lat="42.749" lon="1.53328">
        <ele>1664.8</ele>
        <time>2021-09-19T12:33:50Z</time>
      </trkpt>
      <trkpt lat="42.74901" lon="1.53327">
        <ele>1664.8</ele>
        <time>2021-09-19T12:33:51Z</time>
      </trkpt>
      <trkpt lat="42.74901" lon="1.53328">
        <ele>1664.8</ele>
        <time>2021-09-19T12:33:54Z</time>
      </trkpt>
      <trkpt lat="42.74901" lon="1.53327">
        <ele>1664.8</ele>
        <time>2021-09-19T12:34:02Z</time>
      </trkpt>
      <trkpt lat="42.74903" lon="1.53327">
        <ele>1664.4</ele>
        <time>2021-09-19T12:34:05Z</time>
      </trkpt>
      <trkpt lat="42.74906" lon="1.53323">
        <ele>1664.4</ele>
        <time>2021-09-19T12:34:11Z</time>
      </trkpt>
      <trkpt lat="42.74907" lon="1.53321">
        <ele>1663.6</ele>
        <time>2021-09-19T12:34:14Z</time>
      </trkpt>
      <trkpt lat="42.74907" lon="1.5332">
        <ele>1663.4</ele>
        <time>2021-09-19T12:34:15Z</time>
      </trkpt>
      <trkpt lat="42.74907" lon="1.5332">
        <ele>1662.6</ele>
        <time>2021-09-19T12:34:19Z</time>
      </trkpt>
      <trkpt lat="42.74907" lon="1.5332">
        <ele>1662.4</ele>
        <time>2021-09-19T12:34:21Z</time>
      </trkpt>
      <trkpt lat="42.74908" lon="1.5332">
        <ele>1662</ele>
        <time>2021-09-19T12:34:29Z</time>
      </trkpt>
      <trkpt lat="42.74907" lon="1.5332">
        <ele>1662</ele>
        <time>2021-09-19T12:34:37Z</time>
      </trkpt>
      <trkpt lat="42.74908" lon="1.5332">
        <ele>1661.8</ele>
        <time>2021-09-19T12:34:46Z</time>
      </trkpt>
      <trkpt lat="42.74907" lon="1.53321">
        <ele>1661.8</ele>
        <time>2021-09-19T12:34:47Z</time>
      </trkpt>
      <trkpt lat="42.74907" lon="1.53321">
        <ele>1661.8</ele>
        <time>2021-09-19T12:34:48Z</time>
      </trkpt>
      <trkpt lat="42.74906" lon="1.53321">
        <ele>1661.6</ele>
        <time>2021-09-19T12:34:49Z</time>
      </trkpt>
      <trkpt lat="42.74907" lon="1.53318">
        <ele>1661.6</ele>
        <time>2021-09-19T12:34:52Z</time>
      </trkpt>
      <trkpt lat="42.74908" lon="1.53317">
        <ele>1661.8</ele>
        <time>2021-09-19T12:34:55Z</time>
      </trkpt>
      <trkpt lat="42.74911" lon="1.53316">
        <ele>1661.4</ele>
        <time>2021-09-19T12:35:03Z</time>
      </trkpt>
      <trkpt lat="42.74912" lon="1.53316">
        <ele>1661.2</ele>
        <time>2021-09-19T12:35:04Z</time>
      </trkpt>
      <trkpt lat="42.74917" lon="1.53317">
        <ele>1660.6</ele>
        <time>2021-09-19T12:35:09Z</time>
      </trkpt>
      <trkpt lat="42.74919" lon="1.53317">
        <ele>1660.2</ele>
        <time>2021-09-19T12:35:12Z</time>
      </trkpt>
      <trkpt lat="42.74921" lon="1.53316">
        <ele>1659.6</ele>
        <time>2021-09-19T12:35:15Z</time>
      </trkpt>
      <trkpt lat="42.74922" lon="1.53316">
        <ele>1658.6</ele>
        <time>2021-09-19T12:35:17Z</time>
      </trkpt>
      <trkpt lat="42.74923" lon="1.53317">
        <ele>1658.4</ele>
        <time>2021-09-19T12:35:19Z</time>
      </trkpt>
      <trkpt lat="42.74923" lon="1.53317">
        <ele>1658</ele>
        <time>2021-09-19T12:35:20Z</time>
      </trkpt>
      <trkpt lat="42.74926" lon="1.53317">
        <ele>1657.8</ele>
        <time>2021-09-19T12:35:23Z</time>
      </trkpt>
      <trkpt lat="42.74928" lon="1.53317">
        <ele>1657.6</ele>
        <time>2021-09-19T12:35:25Z</time>
      </trkpt>
      <trkpt lat="42.74929" lon="1.53317">
        <ele>1657.4</ele>
        <time>2021-09-19T12:35:26Z</time>
      </trkpt>
      <trkpt lat="42.7493" lon="1.53316">
        <ele>1657.2</ele>
        <time>2021-09-19T12:35:27Z</time>
      </trkpt>
      <trkpt lat="42.74931" lon="1.53316">
        <ele>1656.4</ele>
        <time>2021-09-19T12:35:30Z</time>
      </trkpt>
      <trkpt lat="42.74934" lon="1.53316">
        <ele>1655.6</ele>
        <time>2021-09-19T12:35:34Z</time>
      </trkpt>
      <trkpt lat="42.74935" lon="1.53316">
        <ele>1655.2</ele>
        <time>2021-09-19T12:35:35Z</time>
      </trkpt>
      <trkpt lat="42.74939" lon="1.53313">
        <ele>1654.4</ele>
        <time>2021-09-19T12:35:39Z</time>
      </trkpt>
      <trkpt lat="42.74939" lon="1.53312">
        <ele>1654.2</ele>
        <time>2021-09-19T12:35:40Z</time>
      </trkpt>
      <trkpt lat="42.7494" lon="1.53312">
        <ele>1653.8</ele>
        <time>2021-09-19T12:35:41Z</time>
      </trkpt>
      <trkpt lat="42.74941" lon="1.53312">
        <ele>1653.6</ele>
        <time>2021-09-19T12:35:42Z</time>
      </trkpt>
      <trkpt lat="42.74942" lon="1.53311">
        <ele>1653.4</ele>
        <time>2021-09-19T12:35:43Z</time>
      </trkpt>
      <trkpt lat="42.74944" lon="1.5331">
        <ele>1653.4</ele>
        <time>2021-09-19T12:35:45Z</time>
      </trkpt>
      <trkpt lat="42.74945" lon="1.5331">
        <ele>1653.2</ele>
        <time>2021-09-19T12:35:46Z</time>
      </trkpt>
      <trkpt lat="42.74946" lon="1.53309">
        <ele>1653</ele>
        <time>2021-09-19T12:35:48Z</time>
      </trkpt>
      <trkpt lat="42.74949" lon="1.53306">
        <ele>1652.6</ele>
        <time>2021-09-19T12:35:52Z</time>
      </trkpt>
      <trkpt lat="42.7495" lon="1.53305">
        <ele>1652.6</ele>
        <time>2021-09-19T12:35:55Z</time>
      </trkpt>
      <trkpt lat="42.74951" lon="1.53305">
        <ele>1652.6</ele>
        <time>2021-09-19T12:35:56Z</time>
      </trkpt>
      <trkpt lat="42.74953" lon="1.53305">
        <ele>1652.6</ele>
        <time>2021-09-19T12:35:59Z</time>
      </trkpt>
      <trkpt lat="42.74954" lon="1.53305">
        <ele>1652.2</ele>
        <time>2021-09-19T12:36:01Z</time>
      </trkpt>
      <trkpt lat="42.74955" lon="1.53304">
        <ele>1652</ele>
        <time>2021-09-19T12:36:03Z</time>
      </trkpt>
      <trkpt lat="42.74957" lon="1.53305">
        <ele>1651.4</ele>
        <time>2021-09-19T12:36:06Z</time>
      </trkpt>
      <trkpt lat="42.74959" lon="1.53305">
        <ele>1651.4</ele>
        <time>2021-09-19T12:36:07Z</time>
      </trkpt>
      <trkpt lat="42.74962" lon="1.53306">
        <ele>1651</ele>
        <time>2021-09-19T12:36:10Z</time>
      </trkpt>
      <trkpt lat="42.74964" lon="1.53305">
        <ele>1650.8</ele>
        <time>2021-09-19T12:36:12Z</time>
      </trkpt>
      <trkpt lat="42.74965" lon="1.53305">
        <ele>1650.6</ele>
        <time>2021-09-19T12:36:13Z</time>
      </trkpt>
      <trkpt lat="42.74967" lon="1.53304">
        <ele>1650.2</ele>
        <time>2021-09-19T12:36:17Z</time>
      </trkpt>
      <trkpt lat="42.74967" lon="1.53305">
        <ele>1650</ele>
        <time>2021-09-19T12:36:21Z</time>
      </trkpt>
      <trkpt lat="42.74968" lon="1.53305">
        <ele>1649.8</ele>
        <time>2021-09-19T12:36:25Z</time>
      </trkpt>
      <trkpt lat="42.74972" lon="1.53304">
        <ele>1650</ele>
        <time>2021-09-19T12:36:30Z</time>
      </trkpt>
      <trkpt lat="42.74973" lon="1.53303">
        <ele>1650</ele>
        <time>2021-09-19T12:36:32Z</time>
      </trkpt>
      <trkpt lat="42.74976" lon="1.53301">
        <ele>1650</ele>
        <time>2021-09-19T12:36:37Z</time>
      </trkpt>
      <trkpt lat="42.74976" lon="1.53304">
        <ele>1650</ele>
        <time>2021-09-19T12:36:41Z</time>
      </trkpt>
      <trkpt lat="42.74974" lon="1.53304">
        <ele>1650</ele>
        <time>2021-09-19T12:36:44Z</time>
      </trkpt>
      <trkpt lat="42.74974" lon="1.53304">
        <ele>1650</ele>
        <time>2021-09-19T12:36:45Z</time>
      </trkpt>
      <trkpt lat="42.74973" lon="1.53303">
        <ele>1650</ele>
        <time>2021-09-19T12:36:51Z</time>
      </trkpt>
      <trkpt lat="42.74973" lon="1.53303">
        <ele>1650</ele>
        <time>2021-09-19T12:36:55Z</time>
      </trkpt>
      <trkpt lat="42.74973" lon="1.53304">
        <ele>1650</ele>
        <time>2021-09-19T12:36:56Z</time>
      </trkpt>
      <trkpt lat="42.74973" lon="1.53305">
        <ele>1650</ele>
        <time>2021-09-19T12:36:58Z</time>
      </trkpt>
      <trkpt lat="42.74974" lon="1.53306">
        <ele>1650</ele>
        <time>2021-09-19T12:36:59Z</time>
      </trkpt>
      <trkpt lat="42.74976" lon="1.53304">
        <ele>1649.8</ele>
        <time>2021-09-19T12:37:06Z</time>
      </trkpt>
      <trkpt lat="42.74977" lon="1.53305">
        <ele>1649.8</ele>
        <time>2021-09-19T12:37:12Z</time>
      </trkpt>
      <trkpt lat="42.74976" lon="1.53305">
        <ele>1649.4</ele>
        <time>2021-09-19T12:37:16Z</time>
      </trkpt>
      <trkpt lat="42.74976" lon="1.53308">
        <ele>1649</ele>
        <time>2021-09-19T12:37:21Z</time>
      </trkpt>
      <trkpt lat="42.74976" lon="1.5331">
        <ele>1648.8</ele>
        <time>2021-09-19T12:37:23Z</time>
      </trkpt>
      <trkpt lat="42.74976" lon="1.53311">
        <ele>1648.8</ele>
        <time>2021-09-19T12:37:24Z</time>
      </trkpt>
      <trkpt lat="42.74977" lon="1.5331">
        <ele>1647.6</ele>
        <time>2021-09-19T12:37:27Z</time>
      </trkpt>
      <trkpt lat="42.74979" lon="1.53308">
        <ele>1647.2</ele>
        <time>2021-09-19T12:37:32Z</time>
      </trkpt>
      <trkpt lat="42.7498" lon="1.53309">
        <ele>1646.8</ele>
        <time>2021-09-19T12:37:36Z</time>
      </trkpt>
      <trkpt lat="42.74976" lon="1.53311">
        <ele>1647.2</ele>
        <time>2021-09-19T12:37:45Z</time>
      </trkpt>
      <trkpt lat="42.74977" lon="1.53312">
        <ele>1647.2</ele>
        <time>2021-09-19T12:37:48Z</time>
      </trkpt>
      <trkpt lat="42.74976" lon="1.53311">
        <ele>1647</ele>
        <time>2021-09-19T12:37:56Z</time>
      </trkpt>
      <trkpt lat="42.74976" lon="1.53311">
        <ele>1647</ele>
        <time>2021-09-19T12:38:00Z</time>
      </trkpt>
      <trkpt lat="42.74976" lon="1.53311">
        <ele>1646.8</ele>
        <time>2021-09-19T12:38:06Z</time>
      </trkpt>
      <trkpt lat="42.74975" lon="1.5331">
        <ele>1646.6</ele>
        <time>2021-09-19T12:38:29Z</time>
      </trkpt>
      <trkpt lat="42.74976" lon="1.53313">
        <ele>1646.8</ele>
        <time>2021-09-19T12:38:34Z</time>
      </trkpt>
      <trkpt lat="42.74975" lon="1.53311">
        <ele>1646.6</ele>
        <time>2021-09-19T12:38:42Z</time>
      </trkpt>
      <trkpt lat="42.74975" lon="1.53311">
        <ele>1646.2</ele>
        <time>2021-09-19T12:38:59Z</time>
      </trkpt>
      <trkpt lat="42.74976" lon="1.53311">
        <ele>1646.2</ele>
        <time>2021-09-19T12:39:11Z</time>
      </trkpt>
      <trkpt lat="42.74975" lon="1.53311">
        <ele>1646.2</ele>
        <time>2021-09-19T12:39:15Z</time>
      </trkpt>
      <trkpt lat="42.74975" lon="1.53311">
        <ele>1646.4</ele>
        <time>2021-09-19T12:39:19Z</time>
      </trkpt>
      <trkpt lat="42.74975" lon="1.53312">
        <ele>1646.2</ele>
        <time>2021-09-19T12:39:21Z</time>
      </trkpt>
      <trkpt lat="42.74974" lon="1.53311">
        <ele>1646.2</ele>
        <time>2021-09-19T12:39:28Z</time>
      </trkpt>
      <trkpt lat="42.74974" lon="1.53311">
        <ele>1646.2</ele>
        <time>2021-09-19T12:39:29Z</time>
      </trkpt>
      <trkpt lat="42.74973" lon="1.53311">
        <ele>1645.6</ele>
        <time>2021-09-19T12:39:38Z</time>
      </trkpt>
      <trkpt lat="42.74973" lon="1.53311">
        <ele>1645.6</ele>
        <time>2021-09-19T12:39:41Z</time>
      </trkpt>
      <trkpt lat="42.74973" lon="1.5331">
        <ele>1646</ele>
        <time>2021-09-19T12:39:50Z</time>
      </trkpt>
      <trkpt lat="42.74972" lon="1.53311">
        <ele>1646</ele>
        <time>2021-09-19T12:39:52Z</time>
      </trkpt>
      <trkpt lat="42.74971" lon="1.53312">
        <ele>1646.2</ele>
        <time>2021-09-19T12:39:57Z</time>
      </trkpt>
      <trkpt lat="42.74974" lon="1.53311">
        <ele>1645.8</ele>
        <time>2021-09-19T12:40:20Z</time>
      </trkpt>
      <trkpt lat="42.74973" lon="1.5331">
        <ele>1645.8</ele>
        <time>2021-09-19T12:40:21Z</time>
      </trkpt>
      <trkpt lat="42.74973" lon="1.53309">
        <ele>1645.8</ele>
        <time>2021-09-19T12:40:22Z</time>
      </trkpt>
      <trkpt lat="42.74973" lon="1.53309">
        <ele>1645.8</ele>
        <time>2021-09-19T12:40:23Z</time>
      </trkpt>
      <trkpt lat="42.74974" lon="1.5331">
        <ele>1645.8</ele>
        <time>2021-09-19T12:40:25Z</time>
      </trkpt>
      <trkpt lat="42.74973" lon="1.5331">
        <ele>1645.8</ele>
        <time>2021-09-19T12:40:32Z</time>
      </trkpt>
      <trkpt lat="42.74973" lon="1.5331">
        <ele>1645.8</ele>
        <time>2021-09-19T12:40:35Z</time>
      </trkpt>
      <trkpt lat="42.74974" lon="1.5331">
        <ele>1645.8</ele>
        <time>2021-09-19T12:40:40Z</time>
      </trkpt>
      <trkpt lat="42.74973" lon="1.53309">
        <ele>1645.4</ele>
        <time>2021-09-19T12:40:47Z</time>
      </trkpt>
      <trkpt lat="42.74971" lon="1.5331">
        <ele>1645.4</ele>
        <time>2021-09-19T12:40:52Z</time>
      </trkpt>
      <trkpt lat="42.74971" lon="1.53311">
        <ele>1645.4</ele>
        <time>2021-09-19T12:40:54Z</time>
      </trkpt>
      <trkpt lat="42.74972" lon="1.53311">
        <ele>1645.2</ele>
        <time>2021-09-19T12:40:57Z</time>
      </trkpt>
      <trkpt lat="42.74974" lon="1.53311">
        <ele>1645.4</ele>
        <time>2021-09-19T12:41:02Z</time>
      </trkpt>
      <trkpt lat="42.74975" lon="1.53312">
        <ele>1645.6</ele>
        <time>2021-09-19T12:41:04Z</time>
      </trkpt>
      <trkpt lat="42.74972" lon="1.53311">
        <ele>1645.6</ele>
        <time>2021-09-19T12:41:31Z</time>
      </trkpt>
      <trkpt lat="42.74975" lon="1.53311">
        <ele>1645.6</ele>
        <time>2021-09-19T12:41:37Z</time>
      </trkpt>
      <trkpt lat="42.74974" lon="1.53311">
        <ele>1645.6</ele>
        <time>2021-09-19T12:41:41Z</time>
      </trkpt>
      <trkpt lat="42.74975" lon="1.5331">
        <ele>1645.8</ele>
        <time>2021-09-19T12:41:45Z</time>
      </trkpt>
      <trkpt lat="42.74978" lon="1.53309">
        <ele>1645.4</ele>
        <time>2021-09-19T12:41:59Z</time>
      </trkpt>
      <trkpt lat="42.74977" lon="1.53309">
        <ele>1645.6</ele>
        <time>2021-09-19T12:42:04Z</time>
      </trkpt>
      <trkpt lat="42.74976" lon="1.53311">
        <ele>1645.8</ele>
        <time>2021-09-19T12:42:17Z</time>
      </trkpt>
      <trkpt lat="42.74976" lon="1.53311">
        <ele>1646</ele>
        <time>2021-09-19T12:42:23Z</time>
      </trkpt>
      <trkpt lat="42.74976" lon="1.53313">
        <ele>1646.4</ele>
        <time>2021-09-19T12:42:53Z</time>
      </trkpt>
      <trkpt lat="42.74981" lon="1.53312">
        <ele>1646.4</ele>
        <time>2021-09-19T12:43:06Z</time>
      </trkpt>
      <trkpt lat="42.74982" lon="1.53313">
        <ele>1646.4</ele>
        <time>2021-09-19T12:43:08Z</time>
      </trkpt>
      <trkpt lat="42.74983" lon="1.53313">
        <ele>1646.4</ele>
        <time>2021-09-19T12:43:10Z</time>
      </trkpt>
      <trkpt lat="42.74983" lon="1.53313">
        <ele>1646.6</ele>
        <time>2021-09-19T12:43:11Z</time>
      </trkpt>
      <trkpt lat="42.74983" lon="1.53313">
        <ele>1646.4</ele>
        <time>2021-09-19T12:43:17Z</time>
      </trkpt>
      <trkpt lat="42.7498" lon="1.53311">
        <ele>1646.2</ele>
        <time>2021-09-19T12:43:20Z</time>
      </trkpt>
      <trkpt lat="42.74979" lon="1.53309">
        <ele>1646.2</ele>
        <time>2021-09-19T12:43:24Z</time>
      </trkpt>
      <trkpt lat="42.7498" lon="1.53308">
        <ele>1646.2</ele>
        <time>2021-09-19T12:43:26Z</time>
      </trkpt>
      <trkpt lat="42.7498" lon="1.53309">
        <ele>1641.4</ele>
        <time>2021-09-19T12:43:28Z</time>
      </trkpt>
      <trkpt lat="42.7498" lon="1.5331">
        <ele>1644</ele>
        <time>2021-09-19T12:43:32Z</time>
      </trkpt>
      <trkpt lat="42.7498" lon="1.53311">
        <ele>1645.2</ele>
        <time>2021-09-19T12:43:33Z</time>
      </trkpt>
      <trkpt lat="42.74979" lon="1.5331">
        <ele>1646.4</ele>
        <time>2021-09-19T12:43:36Z</time>
      </trkpt>
      <trkpt lat="42.74981" lon="1.5331">
        <ele>1646.6</ele>
        <time>2021-09-19T12:43:40Z</time>
      </trkpt>
      <trkpt lat="42.74981" lon="1.5331">
        <ele>1646.6</ele>
        <time>2021-09-19T12:43:42Z</time>
      </trkpt>
      <trkpt lat="42.74979" lon="1.5331">
        <ele>1646.6</ele>
        <time>2021-09-19T12:43:47Z</time>
      </trkpt>
      <trkpt lat="42.74977" lon="1.53311">
        <ele>1646.6</ele>
        <time>2021-09-19T12:43:49Z</time>
      </trkpt>
      <trkpt lat="42.74974" lon="1.53309">
        <ele>1646.6</ele>
        <time>2021-09-19T12:43:54Z</time>
      </trkpt>
      <trkpt lat="42.74973" lon="1.53311">
        <ele>1646.6</ele>
        <time>2021-09-19T12:44:06Z</time>
      </trkpt>
      <trkpt lat="42.74975" lon="1.53313">
        <ele>1646.6</ele>
        <time>2021-09-19T12:44:13Z</time>
      </trkpt>
      <trkpt lat="42.74975" lon="1.53314">
        <ele>1646.6</ele>
        <time>2021-09-19T12:44:15Z</time>
      </trkpt>
      <trkpt lat="42.74975" lon="1.5331">
        <ele>1646.6</ele>
        <time>2021-09-19T12:44:21Z</time>
      </trkpt>
      <trkpt lat="42.74972" lon="1.53307">
        <ele>1646.6</ele>
        <time>2021-09-19T12:44:28Z</time>
      </trkpt>
      <trkpt lat="42.74972" lon="1.53307">
        <ele>1646.6</ele>
        <time>2021-09-19T12:44:29Z</time>
      </trkpt>
      <trkpt lat="42.74972" lon="1.53308">
        <ele>1646.6</ele>
        <time>2021-09-19T12:44:30Z</time>
      </trkpt>
      <trkpt lat="42.74972" lon="1.53308">
        <ele>1646.6</ele>
        <time>2021-09-19T12:44:31Z</time>
      </trkpt>
      <trkpt lat="42.74972" lon="1.53308">
        <ele>1646.6</ele>
        <time>2021-09-19T12:44:32Z</time>
      </trkpt>
      <trkpt lat="42.74971" lon="1.53312">
        <ele>1646.6</ele>
        <time>2021-09-19T12:44:37Z</time>
      </trkpt>
      <trkpt lat="42.7497" lon="1.53313">
        <ele>1646.6</ele>
        <time>2021-09-19T12:44:38Z</time>
      </trkpt>
      <trkpt lat="42.7497" lon="1.53314">
        <ele>1646.6</ele>
        <time>2021-09-19T12:44:40Z</time>
      </trkpt>
      <trkpt lat="42.7497" lon="1.53315">
        <ele>1646.6</ele>
        <time>2021-09-19T12:44:45Z</time>
      </trkpt>
      <trkpt lat="42.7497" lon="1.53315">
        <ele>1646.6</ele>
        <time>2021-09-19T12:44:46Z</time>
      </trkpt>
      <trkpt lat="42.7497" lon="1.53315">
        <ele>1646.6</ele>
        <time>2021-09-19T12:44:48Z</time>
      </trkpt>
      <trkpt lat="42.74971" lon="1.53313">
        <ele>1646.6</ele>
        <time>2021-09-19T12:44:55Z</time>
      </trkpt>
      <trkpt lat="42.74971" lon="1.53313">
        <ele>1646.6</ele>
        <time>2021-09-19T12:44:58Z</time>
      </trkpt>
      <trkpt lat="42.7497" lon="1.53313">
        <ele>1646.6</ele>
        <time>2021-09-19T12:45:05Z</time>
      </trkpt>
      <trkpt lat="42.7497" lon="1.53313">
        <ele>1646.6</ele>
        <time>2021-09-19T12:45:08Z</time>
      </trkpt>
      <trkpt lat="42.74971" lon="1.53314">
        <ele>1646.6</ele>
        <time>2021-09-19T12:45:12Z</time>
      </trkpt>
      <trkpt lat="42.74971" lon="1.53314">
        <ele>1646.6</ele>
        <time>2021-09-19T12:45:13Z</time>
      </trkpt>
      <trkpt lat="42.74971" lon="1.53312">
        <ele>1646.6</ele>
        <time>2021-09-19T12:45:15Z</time>
      </trkpt>
      <trkpt lat="42.74972" lon="1.53312">
        <ele>1646.6</ele>
        <time>2021-09-19T12:45:16Z</time>
      </trkpt>
      <trkpt lat="42.74974" lon="1.53309">
        <ele>1646.6</ele>
        <time>2021-09-19T12:45:33Z</time>
      </trkpt>
      <trkpt lat="42.74974" lon="1.53309">
        <ele>1646.6</ele>
        <time>2021-09-19T12:45:35Z</time>
      </trkpt>
      <trkpt lat="42.74974" lon="1.53308">
        <ele>1646.6</ele>
        <time>2021-09-19T12:45:36Z</time>
      </trkpt>
      <trkpt lat="42.74974" lon="1.53308">
        <ele>1646.6</ele>
        <time>2021-09-19T12:45:39Z</time>
      </trkpt>
      <trkpt lat="42.74973" lon="1.5331">
        <ele>1646.6</ele>
        <time>2021-09-19T12:45:41Z</time>
      </trkpt>
      <trkpt lat="42.74972" lon="1.5331">
        <ele>1646.6</ele>
        <time>2021-09-19T12:45:43Z</time>
      </trkpt>
      <trkpt lat="42.74972" lon="1.53311">
        <ele>1646.6</ele>
        <time>2021-09-19T12:45:48Z</time>
      </trkpt>
      <trkpt lat="42.74971" lon="1.53311">
        <ele>1646.6</ele>
        <time>2021-09-19T12:45:51Z</time>
      </trkpt>
      <trkpt lat="42.74971" lon="1.5331">
        <ele>1646.6</ele>
        <time>2021-09-19T12:45:53Z</time>
      </trkpt>
      <trkpt lat="42.74973" lon="1.53309">
        <ele>1646.6</ele>
        <time>2021-09-19T12:45:58Z</time>
      </trkpt>
      <trkpt lat="42.74974" lon="1.53309">
        <ele>1646.6</ele>
        <time>2021-09-19T12:46:06Z</time>
      </trkpt>
      <trkpt lat="42.74974" lon="1.53311">
        <ele>1646.6</ele>
        <time>2021-09-19T12:46:13Z</time>
      </trkpt>
      <trkpt lat="42.74973" lon="1.53311">
        <ele>1646.6</ele>
        <time>2021-09-19T12:46:24Z</time>
      </trkpt>
      <trkpt lat="42.74972" lon="1.53319">
        <ele>1646.6</ele>
        <time>2021-09-19T12:46:40Z</time>
      </trkpt>
      <trkpt lat="42.74971" lon="1.53321">
        <ele>1646.6</ele>
        <time>2021-09-19T12:46:42Z</time>
      </trkpt>
      <trkpt lat="42.74969" lon="1.53324">
        <ele>1646.6</ele>
        <time>2021-09-19T12:46:46Z</time>
      </trkpt>
      <trkpt lat="42.74969" lon="1.53325">
        <ele>1646</ele>
        <time>2021-09-19T12:46:47Z</time>
      </trkpt>
      <trkpt lat="42.74968" lon="1.53326">
        <ele>1645.4</ele>
        <time>2021-09-19T12:46:48Z</time>
      </trkpt>
      <trkpt lat="42.74966" lon="1.53328">
        <ele>1644.8</ele>
        <time>2021-09-19T12:46:50Z</time>
      </trkpt>
      <trkpt lat="42.74964" lon="1.53329">
        <ele>1644.6</ele>
        <time>2021-09-19T12:46:52Z</time>
      </trkpt>
      <trkpt lat="42.74963" lon="1.53329">
        <ele>1644.6</ele>
        <time>2021-09-19T12:46:53Z</time>
      </trkpt>
      <trkpt lat="42.74963" lon="1.53329">
        <ele>1644.6</ele>
        <time>2021-09-19T12:46:54Z</time>
      </trkpt>
      <trkpt lat="42.74963" lon="1.5333">
        <ele>1644.6</ele>
        <time>2021-09-19T12:46:58Z</time>
      </trkpt>
      <trkpt lat="42.74963" lon="1.53332">
        <ele>1644.4</ele>
        <time>2021-09-19T12:47:00Z</time>
      </trkpt>
      <trkpt lat="42.74961" lon="1.53335">
        <ele>1644.4</ele>
        <time>2021-09-19T12:47:03Z</time>
      </trkpt>
      <trkpt lat="42.74957" lon="1.53338">
        <ele>1644</ele>
        <time>2021-09-19T12:47:07Z</time>
      </trkpt>
      <trkpt lat="42.74956" lon="1.5334">
        <ele>1644</ele>
        <time>2021-09-19T12:47:08Z</time>
      </trkpt>
      <trkpt lat="42.74956" lon="1.53343">
        <ele>1643.4</ele>
        <time>2021-09-19T12:47:09Z</time>
      </trkpt>
      <trkpt lat="42.74955" lon="1.53346">
        <ele>1642.6</ele>
        <time>2021-09-19T12:47:14Z</time>
      </trkpt>
      <trkpt lat="42.74954" lon="1.53347">
        <ele>1642.2</ele>
        <time>2021-09-19T12:47:15Z</time>
      </trkpt>
      <trkpt lat="42.74954" lon="1.53348">
        <ele>1642.2</ele>
        <time>2021-09-19T12:47:16Z</time>
      </trkpt>
      <trkpt lat="42.74955" lon="1.5335">
        <ele>1641</ele>
        <time>2021-09-19T12:47:20Z</time>
      </trkpt>
      <trkpt lat="42.74955" lon="1.53351">
        <ele>1640.8</ele>
        <time>2021-09-19T12:47:21Z</time>
      </trkpt>
      <trkpt lat="42.74956" lon="1.5335">
        <ele>1640.6</ele>
        <time>2021-09-19T12:47:23Z</time>
      </trkpt>
      <trkpt lat="42.74955" lon="1.53349">
        <ele>1640.8</ele>
        <time>2021-09-19T12:47:32Z</time>
      </trkpt>
      <trkpt lat="42.74953" lon="1.53357">
        <ele>1640.2</ele>
        <time>2021-09-19T12:47:38Z</time>
      </trkpt>
      <trkpt lat="42.74952" lon="1.53359">
        <ele>1639.8</ele>
        <time>2021-09-19T12:47:40Z</time>
      </trkpt>
      <trkpt lat="42.74952" lon="1.53361">
        <ele>1639.8</ele>
        <time>2021-09-19T12:47:41Z</time>
      </trkpt>
      <trkpt lat="42.74953" lon="1.53365">
        <ele>1638.4</ele>
        <time>2021-09-19T12:47:44Z</time>
      </trkpt>
      <trkpt lat="42.74953" lon="1.53371">
        <ele>1637.8</ele>
        <time>2021-09-19T12:47:47Z</time>
      </trkpt>
      <trkpt lat="42.74952" lon="1.53373">
        <ele>1637</ele>
        <time>2021-09-19T12:47:50Z</time>
      </trkpt>
      <trkpt lat="42.74951" lon="1.53374">
        <ele>1636.2</ele>
        <time>2021-09-19T12:47:51Z</time>
      </trkpt>
      <trkpt lat="42.74951" lon="1.53375">
        <ele>1635.8</ele>
        <time>2021-09-19T12:47:52Z</time>
      </trkpt>
      <trkpt lat="42.74951" lon="1.53377">
        <ele>1635.4</ele>
        <time>2021-09-19T12:47:54Z</time>
      </trkpt>
      <trkpt lat="42.74951" lon="1.53378">
        <ele>1635.4</ele>
        <time>2021-09-19T12:47:56Z</time>
      </trkpt>
      <trkpt lat="42.74951" lon="1.53379">
        <ele>1635</ele>
        <time>2021-09-19T12:47:59Z</time>
      </trkpt>
      <trkpt lat="42.74951" lon="1.53382">
        <ele>1635</ele>
        <time>2021-09-19T12:48:01Z</time>
      </trkpt>
      <trkpt lat="42.74949" lon="1.53392">
        <ele>1634.4</ele>
        <time>2021-09-19T12:48:05Z</time>
      </trkpt>
      <trkpt lat="42.74948" lon="1.53395">
        <ele>1634</ele>
        <time>2021-09-19T12:48:06Z</time>
      </trkpt>
      <trkpt lat="42.74947" lon="1.53405">
        <ele>1633.4</ele>
        <time>2021-09-19T12:48:09Z</time>
      </trkpt>
      <trkpt lat="42.74946" lon="1.5341">
        <ele>1631.8</ele>
        <time>2021-09-19T12:48:11Z</time>
      </trkpt>
      <trkpt lat="42.74946" lon="1.53411">
        <ele>1630.2</ele>
        <time>2021-09-19T12:48:14Z</time>
      </trkpt>
      <trkpt lat="42.74946" lon="1.5341">
        <ele>1630.2</ele>
        <time>2021-09-19T12:48:15Z</time>
      </trkpt>
      <trkpt lat="42.74947" lon="1.53413">
        <ele>1629.2</ele>
        <time>2021-09-19T12:48:21Z</time>
      </trkpt>
      <trkpt lat="42.74947" lon="1.53415">
        <ele>1629</ele>
        <time>2021-09-19T12:48:22Z</time>
      </trkpt>
      <trkpt lat="42.74946" lon="1.53419">
        <ele>1628.4</ele>
        <time>2021-09-19T12:48:25Z</time>
      </trkpt>
      <trkpt lat="42.74945" lon="1.53421">
        <ele>1628.2</ele>
        <time>2021-09-19T12:48:27Z</time>
      </trkpt>
      <trkpt lat="42.74945" lon="1.53425">
        <ele>1628.2</ele>
        <time>2021-09-19T12:48:29Z</time>
      </trkpt>
      <trkpt lat="42.74945" lon="1.53426">
        <ele>1627.4</ele>
        <time>2021-09-19T12:48:30Z</time>
      </trkpt>
      <trkpt lat="42.74945" lon="1.53429">
        <ele>1627</ele>
        <time>2021-09-19T12:48:32Z</time>
      </trkpt>
      <trkpt lat="42.74945" lon="1.53431">
        <ele>1626.4</ele>
        <time>2021-09-19T12:48:34Z</time>
      </trkpt>
      <trkpt lat="42.74945" lon="1.53432">
        <ele>1626.2</ele>
        <time>2021-09-19T12:48:35Z</time>
      </trkpt>
      <trkpt lat="42.74945" lon="1.53435">
        <ele>1625.6</ele>
        <time>2021-09-19T12:48:38Z</time>
      </trkpt>
      <trkpt lat="42.74945" lon="1.53438">
        <ele>1624.8</ele>
        <time>2021-09-19T12:48:40Z</time>
      </trkpt>
      <trkpt lat="42.74945" lon="1.53439">
        <ele>1624.6</ele>
        <time>2021-09-19T12:48:42Z</time>
      </trkpt>
      <trkpt lat="42.74945" lon="1.53445">
        <ele>1624</ele>
        <time>2021-09-19T12:48:46Z</time>
      </trkpt>
      <trkpt lat="42.74945" lon="1.53447">
        <ele>1623.4</ele>
        <time>2021-09-19T12:48:48Z</time>
      </trkpt>
      <trkpt lat="42.74944" lon="1.53448">
        <ele>1623.2</ele>
        <time>2021-09-19T12:48:49Z</time>
      </trkpt>
      <trkpt lat="42.74944" lon="1.5345">
        <ele>1622.8</ele>
        <time>2021-09-19T12:48:51Z</time>
      </trkpt>
      <trkpt lat="42.74944" lon="1.53452">
        <ele>1622.6</ele>
        <time>2021-09-19T12:48:53Z</time>
      </trkpt>
      <trkpt lat="42.74944" lon="1.53453">
        <ele>1621.8</ele>
        <time>2021-09-19T12:48:54Z</time>
      </trkpt>
      <trkpt lat="42.74944" lon="1.53458">
        <ele>1621</ele>
        <time>2021-09-19T12:48:59Z</time>
      </trkpt>
      <trkpt lat="42.74944" lon="1.53459">
        <ele>1620.6</ele>
        <time>2021-09-19T12:49:00Z</time>
      </trkpt>
      <trkpt lat="42.74943" lon="1.5346">
        <ele>1620.4</ele>
        <time>2021-09-19T12:49:01Z</time>
      </trkpt>
      <trkpt lat="42.74942" lon="1.53465">
        <ele>1619.6</ele>
        <time>2021-09-19T12:49:07Z</time>
      </trkpt>
      <trkpt lat="42.74941" lon="1.53466">
        <ele>1619.4</ele>
        <time>2021-09-19T12:49:08Z</time>
      </trkpt>
      <trkpt lat="42.74941" lon="1.53468">
        <ele>1618.8</ele>
        <time>2021-09-19T12:49:10Z</time>
      </trkpt>
      <trkpt lat="42.74941" lon="1.53469">
        <ele>1618.6</ele>
        <time>2021-09-19T12:49:11Z</time>
      </trkpt>
      <trkpt lat="42.74941" lon="1.53471">
        <ele>1618.4</ele>
        <time>2021-09-19T12:49:13Z</time>
      </trkpt>
      <trkpt lat="42.74941" lon="1.53471">
        <ele>1618.2</ele>
        <time>2021-09-19T12:49:14Z</time>
      </trkpt>
      <trkpt lat="42.74942" lon="1.53474">
        <ele>1618</ele>
        <time>2021-09-19T12:49:17Z</time>
      </trkpt>
      <trkpt lat="42.74943" lon="1.53477">
        <ele>1617.6</ele>
        <time>2021-09-19T12:49:20Z</time>
      </trkpt>
      <trkpt lat="42.74942" lon="1.53479">
        <ele>1617.6</ele>
        <time>2021-09-19T12:49:22Z</time>
      </trkpt>
      <trkpt lat="42.74942" lon="1.53479">
        <ele>1616.4</ele>
        <time>2021-09-19T12:49:26Z</time>
      </trkpt>
      <trkpt lat="42.74942" lon="1.53479">
        <ele>1616.2</ele>
        <time>2021-09-19T12:49:27Z</time>
      </trkpt>
      <trkpt lat="42.74941" lon="1.5348">
        <ele>1616</ele>
        <time>2021-09-19T12:49:31Z</time>
      </trkpt>
      <trkpt lat="42.74941" lon="1.5348">
        <ele>1616</ele>
        <time>2021-09-19T12:49:33Z</time>
      </trkpt>
      <trkpt lat="42.74939" lon="1.53483">
        <ele>1616.2</ele>
        <time>2021-09-19T12:49:39Z</time>
      </trkpt>
      <trkpt lat="42.7494" lon="1.53486">
        <ele>1615.2</ele>
        <time>2021-09-19T12:49:42Z</time>
      </trkpt>
      <trkpt lat="42.74939" lon="1.53489">
        <ele>1614.8</ele>
        <time>2021-09-19T12:49:46Z</time>
      </trkpt>
      <trkpt lat="42.74939" lon="1.53491">
        <ele>1613.8</ele>
        <time>2021-09-19T12:49:48Z</time>
      </trkpt>
      <trkpt lat="42.74937" lon="1.53497">
        <ele>1613.2</ele>
        <time>2021-09-19T12:49:53Z</time>
      </trkpt>
      <trkpt lat="42.74937" lon="1.53499">
        <ele>1612.8</ele>
        <time>2021-09-19T12:49:54Z</time>
      </trkpt>
      <trkpt lat="42.74936" lon="1.53507">
        <ele>1611.6</ele>
        <time>2021-09-19T12:50:00Z</time>
      </trkpt>
      <trkpt lat="42.74935" lon="1.53509">
        <ele>1611</ele>
        <time>2021-09-19T12:50:02Z</time>
      </trkpt>
      <trkpt lat="42.74935" lon="1.53512">
        <ele>1610.6</ele>
        <time>2021-09-19T12:50:05Z</time>
      </trkpt>
      <trkpt lat="42.74935" lon="1.53514">
        <ele>1610.2</ele>
        <time>2021-09-19T12:50:08Z</time>
      </trkpt>
      <trkpt lat="42.74936" lon="1.53518">
        <ele>1609.6</ele>
        <time>2021-09-19T12:50:11Z</time>
      </trkpt>
      <trkpt lat="42.74936" lon="1.53522">
        <ele>1609</ele>
        <time>2021-09-19T12:50:13Z</time>
      </trkpt>
      <trkpt lat="42.74936" lon="1.53525">
        <ele>1608.4</ele>
        <time>2021-09-19T12:50:15Z</time>
      </trkpt>
      <trkpt lat="42.74936" lon="1.53526">
        <ele>1607.4</ele>
        <time>2021-09-19T12:50:17Z</time>
      </trkpt>
      <trkpt lat="42.74937" lon="1.53527">
        <ele>1607.4</ele>
        <time>2021-09-19T12:50:18Z</time>
      </trkpt>
      <trkpt lat="42.74938" lon="1.53527">
        <ele>1606.2</ele>
        <time>2021-09-19T12:50:20Z</time>
      </trkpt>
      <trkpt lat="42.74938" lon="1.53526">
        <ele>1605.6</ele>
        <time>2021-09-19T12:50:21Z</time>
      </trkpt>
      <trkpt lat="42.74939" lon="1.53526">
        <ele>1605.4</ele>
        <time>2021-09-19T12:50:22Z</time>
      </trkpt>
      <trkpt lat="42.74939" lon="1.53526">
        <ele>1605</ele>
        <time>2021-09-19T12:50:23Z</time>
      </trkpt>
      <trkpt lat="42.74938" lon="1.53527">
        <ele>1604</ele>
        <time>2021-09-19T12:50:29Z</time>
      </trkpt>
      <trkpt lat="42.74938" lon="1.53526">
        <ele>1604.2</ele>
        <time>2021-09-19T12:50:34Z</time>
      </trkpt>
      <trkpt lat="42.74938" lon="1.53526">
        <ele>1604.2</ele>
        <time>2021-09-19T12:50:35Z</time>
      </trkpt>
      <trkpt lat="42.74938" lon="1.53526">
        <ele>1604.2</ele>
        <time>2021-09-19T12:50:37Z</time>
      </trkpt>
      <trkpt lat="42.74938" lon="1.53525">
        <ele>1604.2</ele>
        <time>2021-09-19T12:50:39Z</time>
      </trkpt>
      <trkpt lat="42.74941" lon="1.53521">
        <ele>1603.8</ele>
        <time>2021-09-19T12:50:45Z</time>
      </trkpt>
      <trkpt lat="42.74944" lon="1.53519">
        <ele>1602.8</ele>
        <time>2021-09-19T12:50:48Z</time>
      </trkpt>
      <trkpt lat="42.74946" lon="1.53517">
        <ele>1602.6</ele>
        <time>2021-09-19T12:50:51Z</time>
      </trkpt>
      <trkpt lat="42.74948" lon="1.53515">
        <ele>1601.8</ele>
        <time>2021-09-19T12:50:54Z</time>
      </trkpt>
      <trkpt lat="42.7495" lon="1.53514">
        <ele>1600.8</ele>
        <time>2021-09-19T12:50:58Z</time>
      </trkpt>
      <trkpt lat="42.7495" lon="1.53513">
        <ele>1600.6</ele>
        <time>2021-09-19T12:51:00Z</time>
      </trkpt>
      <trkpt lat="42.7495" lon="1.53509">
        <ele>1600.2</ele>
        <time>2021-09-19T12:51:03Z</time>
      </trkpt>
      <trkpt lat="42.74949" lon="1.53507">
        <ele>1600.2</ele>
        <time>2021-09-19T12:51:05Z</time>
      </trkpt>
      <trkpt lat="42.7495" lon="1.53507">
        <ele>1600</ele>
        <time>2021-09-19T12:51:07Z</time>
      </trkpt>
      <trkpt lat="42.74953" lon="1.53506">
        <ele>1600</ele>
        <time>2021-09-19T12:51:10Z</time>
      </trkpt>
      <trkpt lat="42.74955" lon="1.53504">
        <ele>1599.8</ele>
        <time>2021-09-19T12:51:12Z</time>
      </trkpt>
      <trkpt lat="42.74958" lon="1.53502">
        <ele>1599.6</ele>
        <time>2021-09-19T12:51:15Z</time>
      </trkpt>
      <trkpt lat="42.74963" lon="1.535">
        <ele>1599</ele>
        <time>2021-09-19T12:51:19Z</time>
      </trkpt>
      <trkpt lat="42.74965" lon="1.53498">
        <ele>1598.4</ele>
        <time>2021-09-19T12:51:21Z</time>
      </trkpt>
      <trkpt lat="42.74968" lon="1.53493">
        <ele>1597.2</ele>
        <time>2021-09-19T12:51:25Z</time>
      </trkpt>
      <trkpt lat="42.74969" lon="1.53492">
        <ele>1596.8</ele>
        <time>2021-09-19T12:51:26Z</time>
      </trkpt>
      <trkpt lat="42.74971" lon="1.53491">
        <ele>1596.8</ele>
        <time>2021-09-19T12:51:27Z</time>
      </trkpt>
      <trkpt lat="42.74973" lon="1.5349">
        <ele>1596.4</ele>
        <time>2021-09-19T12:51:29Z</time>
      </trkpt>
      <trkpt lat="42.74974" lon="1.53488">
        <ele>1596</ele>
        <time>2021-09-19T12:51:30Z</time>
      </trkpt>
      <trkpt lat="42.74978" lon="1.53485">
        <ele>1595.2</ele>
        <time>2021-09-19T12:51:33Z</time>
      </trkpt>
      <trkpt lat="42.7498" lon="1.53482">
        <ele>1594.8</ele>
        <time>2021-09-19T12:51:36Z</time>
      </trkpt>
      <trkpt lat="42.74982" lon="1.5348">
        <ele>1593.6</ele>
        <time>2021-09-19T12:51:38Z</time>
      </trkpt>
      <trkpt lat="42.74982" lon="1.53479">
        <ele>1593.6</ele>
        <time>2021-09-19T12:51:40Z</time>
      </trkpt>
      <trkpt lat="42.74983" lon="1.53477">
        <ele>1592.6</ele>
        <time>2021-09-19T12:51:43Z</time>
      </trkpt>
      <trkpt lat="42.74983" lon="1.53476">
        <ele>1592.2</ele>
        <time>2021-09-19T12:51:44Z</time>
      </trkpt>
      <trkpt lat="42.74984" lon="1.53474">
        <ele>1592</ele>
        <time>2021-09-19T12:51:46Z</time>
      </trkpt>
      <trkpt lat="42.74984" lon="1.53472">
        <ele>1591.8</ele>
        <time>2021-09-19T12:51:47Z</time>
      </trkpt>
      <trkpt lat="42.74985" lon="1.5347">
        <ele>1591.8</ele>
        <time>2021-09-19T12:51:49Z</time>
      </trkpt>
      <trkpt lat="42.74988" lon="1.53465">
        <ele>1591.6</ele>
        <time>2021-09-19T12:51:53Z</time>
      </trkpt>
      <trkpt lat="42.74991" lon="1.5346">
        <ele>1590.6</ele>
        <time>2021-09-19T12:51:57Z</time>
      </trkpt>
      <trkpt lat="42.74993" lon="1.53459">
        <ele>1590.2</ele>
        <time>2021-09-19T12:51:59Z</time>
      </trkpt>
      <trkpt lat="42.74997" lon="1.53456">
        <ele>1589</ele>
        <time>2021-09-19T12:52:03Z</time>
      </trkpt>
      <trkpt lat="42.74999" lon="1.53454">
        <ele>1588.6</ele>
        <time>2021-09-19T12:52:05Z</time>
      </trkpt>
      <trkpt lat="42.75" lon="1.53453">
        <ele>1588.2</ele>
        <time>2021-09-19T12:52:06Z</time>
      </trkpt>
      <trkpt lat="42.75002" lon="1.53452">
        <ele>1587.6</ele>
        <time>2021-09-19T12:52:08Z</time>
      </trkpt>
      <trkpt lat="42.75006" lon="1.53449">
        <ele>1586.8</ele>
        <time>2021-09-19T12:52:12Z</time>
      </trkpt>
      <trkpt lat="42.75007" lon="1.53449">
        <ele>1586.6</ele>
        <time>2021-09-19T12:52:13Z</time>
      </trkpt>
      <trkpt lat="42.75008" lon="1.53448">
        <ele>1585.8</ele>
        <time>2021-09-19T12:52:15Z</time>
      </trkpt>
      <trkpt lat="42.7501" lon="1.53447">
        <ele>1585.4</ele>
        <time>2021-09-19T12:52:17Z</time>
      </trkpt>
      <trkpt lat="42.75011" lon="1.53446">
        <ele>1585.2</ele>
        <time>2021-09-19T12:52:18Z</time>
      </trkpt>
      <trkpt lat="42.75012" lon="1.53445">
        <ele>1584.4</ele>
        <time>2021-09-19T12:52:20Z</time>
      </trkpt>
      <trkpt lat="42.75013" lon="1.53443">
        <ele>1584.2</ele>
        <time>2021-09-19T12:52:22Z</time>
      </trkpt>
      <trkpt lat="42.75015" lon="1.53442">
        <ele>1584</ele>
        <time>2021-09-19T12:52:26Z</time>
      </trkpt>
      <trkpt lat="42.75016" lon="1.5344">
        <ele>1583.6</ele>
        <time>2021-09-19T12:52:28Z</time>
      </trkpt>
      <trkpt lat="42.75017" lon="1.53439">
        <ele>1583.4</ele>
        <time>2021-09-19T12:52:29Z</time>
      </trkpt>
      <trkpt lat="42.7502" lon="1.53435">
        <ele>1583</ele>
        <time>2021-09-19T12:52:33Z</time>
      </trkpt>
      <trkpt lat="42.75021" lon="1.53432">
        <ele>1582.6</ele>
        <time>2021-09-19T12:52:36Z</time>
      </trkpt>
      <trkpt lat="42.75022" lon="1.53431">
        <ele>1582.2</ele>
        <time>2021-09-19T12:52:38Z</time>
      </trkpt>
      <trkpt lat="42.75022" lon="1.53429">
        <ele>1581.6</ele>
        <time>2021-09-19T12:52:40Z</time>
      </trkpt>
      <trkpt lat="42.75022" lon="1.53429">
        <ele>1581.6</ele>
        <time>2021-09-19T12:52:41Z</time>
      </trkpt>
      <trkpt lat="42.75022" lon="1.53429">
        <ele>1581.2</ele>
        <time>2021-09-19T12:52:42Z</time>
      </trkpt>
      <trkpt lat="42.75025" lon="1.53428">
        <ele>1579.8</ele>
        <time>2021-09-19T12:52:47Z</time>
      </trkpt>
      <trkpt lat="42.75026" lon="1.53428">
        <ele>1579.6</ele>
        <time>2021-09-19T12:52:49Z</time>
      </trkpt>
      <trkpt lat="42.75028" lon="1.53426">
        <ele>1578.8</ele>
        <time>2021-09-19T12:52:52Z</time>
      </trkpt>
      <trkpt lat="42.75031" lon="1.53425">
        <ele>1578.4</ele>
        <time>2021-09-19T12:52:55Z</time>
      </trkpt>
      <trkpt lat="42.75033" lon="1.53425">
        <ele>1578</ele>
        <time>2021-09-19T12:52:58Z</time>
      </trkpt>
      <trkpt lat="42.75034" lon="1.53425">
        <ele>1578</ele>
        <time>2021-09-19T12:52:59Z</time>
      </trkpt>
      <trkpt lat="42.75035" lon="1.53424">
        <ele>1578.2</ele>
        <time>2021-09-19T12:53:00Z</time>
      </trkpt>
      <trkpt lat="42.75039" lon="1.53422">
        <ele>1577.8</ele>
        <time>2021-09-19T12:53:06Z</time>
      </trkpt>
      <trkpt lat="42.7504" lon="1.53421">
        <ele>1577.4</ele>
        <time>2021-09-19T12:53:07Z</time>
      </trkpt>
      <trkpt lat="42.7504" lon="1.53421">
        <ele>1577.2</ele>
        <time>2021-09-19T12:53:08Z</time>
      </trkpt>
      <trkpt lat="42.75041" lon="1.5342">
        <ele>1576.6</ele>
        <time>2021-09-19T12:53:10Z</time>
      </trkpt>
      <trkpt lat="42.75042" lon="1.53419">
        <ele>1576.4</ele>
        <time>2021-09-19T12:53:11Z</time>
      </trkpt>
      <trkpt lat="42.75044" lon="1.53419">
        <ele>1575.6</ele>
        <time>2021-09-19T12:53:14Z</time>
      </trkpt>
      <trkpt lat="42.75044" lon="1.53419">
        <ele>1575.2</ele>
        <time>2021-09-19T12:53:15Z</time>
      </trkpt>
      <trkpt lat="42.75045" lon="1.53419">
        <ele>1574.8</ele>
        <time>2021-09-19T12:53:16Z</time>
      </trkpt>
      <trkpt lat="42.75046" lon="1.53419">
        <ele>1574.2</ele>
        <time>2021-09-19T12:53:18Z</time>
      </trkpt>
      <trkpt lat="42.75047" lon="1.53419">
        <ele>1573.8</ele>
        <time>2021-09-19T12:53:19Z</time>
      </trkpt>
      <trkpt lat="42.75051" lon="1.53419">
        <ele>1573.2</ele>
        <time>2021-09-19T12:53:23Z</time>
      </trkpt>
      <trkpt lat="42.75051" lon="1.53419">
        <ele>1573</ele>
        <time>2021-09-19T12:53:24Z</time>
      </trkpt>
      <trkpt lat="42.75052" lon="1.53418">
        <ele>1572.8</ele>
        <time>2021-09-19T12:53:25Z</time>
      </trkpt>
      <trkpt lat="42.75052" lon="1.5342">
        <ele>1571.6</ele>
        <time>2021-09-19T12:53:28Z</time>
      </trkpt>
      <trkpt lat="42.75052" lon="1.53422">
        <ele>1570.8</ele>
        <time>2021-09-19T12:53:35Z</time>
      </trkpt>
      <trkpt lat="42.75054" lon="1.53419">
        <ele>1570.4</ele>
        <time>2021-09-19T12:53:39Z</time>
      </trkpt>
      <trkpt lat="42.75056" lon="1.53418">
        <ele>1570.2</ele>
        <time>2021-09-19T12:53:40Z</time>
      </trkpt>
      <trkpt lat="42.75064" lon="1.53412">
        <ele>1569.8</ele>
        <time>2021-09-19T12:53:48Z</time>
      </trkpt>
      <trkpt lat="42.75068" lon="1.53406">
        <ele>1569.2</ele>
        <time>2021-09-19T12:53:52Z</time>
      </trkpt>
      <trkpt lat="42.75069" lon="1.53404">
        <ele>1568.8</ele>
        <time>2021-09-19T12:53:54Z</time>
      </trkpt>
      <trkpt lat="42.7507" lon="1.53402">
        <ele>1568.4</ele>
        <time>2021-09-19T12:53:55Z</time>
      </trkpt>
      <trkpt lat="42.7507" lon="1.53401">
        <ele>1568</ele>
        <time>2021-09-19T12:53:56Z</time>
      </trkpt>
      <trkpt lat="42.75072" lon="1.53399">
        <ele>1567.8</ele>
        <time>2021-09-19T12:53:58Z</time>
      </trkpt>
      <trkpt lat="42.75073" lon="1.53399">
        <ele>1567.8</ele>
        <time>2021-09-19T12:53:59Z</time>
      </trkpt>
      <trkpt lat="42.75074" lon="1.53398">
        <ele>1567.6</ele>
        <time>2021-09-19T12:54:00Z</time>
      </trkpt>
      <trkpt lat="42.75074" lon="1.53397">
        <ele>1567.6</ele>
        <time>2021-09-19T12:54:01Z</time>
      </trkpt>
      <trkpt lat="42.75078" lon="1.53395">
        <ele>1567.8</ele>
        <time>2021-09-19T12:54:05Z</time>
      </trkpt>
      <trkpt lat="42.75081" lon="1.53392">
        <ele>1567.4</ele>
        <time>2021-09-19T12:54:09Z</time>
      </trkpt>
      <trkpt lat="42.75082" lon="1.53392">
        <ele>1567</ele>
        <time>2021-09-19T12:54:10Z</time>
      </trkpt>
      <trkpt lat="42.75083" lon="1.53391">
        <ele>1566.8</ele>
        <time>2021-09-19T12:54:11Z</time>
      </trkpt>
      <trkpt lat="42.75085" lon="1.5339">
        <ele>1565.8</ele>
        <time>2021-09-19T12:54:14Z</time>
      </trkpt>
      <trkpt lat="42.75085" lon="1.53389">
        <ele>1565.2</ele>
        <time>2021-09-19T12:54:17Z</time>
      </trkpt>
      <trkpt lat="42.75086" lon="1.53388">
        <ele>1565.2</ele>
        <time>2021-09-19T12:54:18Z</time>
      </trkpt>
      <trkpt lat="42.75087" lon="1.53386">
        <ele>1564.8</ele>
        <time>2021-09-19T12:54:21Z</time>
      </trkpt>
      <trkpt lat="42.75089" lon="1.53385">
        <ele>1564.6</ele>
        <time>2021-09-19T12:54:24Z</time>
      </trkpt>
      <trkpt lat="42.75089" lon="1.53385">
        <ele>1564.4</ele>
        <time>2021-09-19T12:54:25Z</time>
      </trkpt>
      <trkpt lat="42.75093" lon="1.53382">
        <ele>1563.4</ele>
        <time>2021-09-19T12:54:29Z</time>
      </trkpt>
      <trkpt lat="42.75094" lon="1.53381">
        <ele>1563</ele>
        <time>2021-09-19T12:54:30Z</time>
      </trkpt>
      <trkpt lat="42.75096" lon="1.5338">
        <ele>1562.8</ele>
        <time>2021-09-19T12:54:33Z</time>
      </trkpt>
      <trkpt lat="42.75097" lon="1.53379">
        <ele>1562.6</ele>
        <time>2021-09-19T12:54:35Z</time>
      </trkpt>
      <trkpt lat="42.75098" lon="1.53378">
        <ele>1562.4</ele>
        <time>2021-09-19T12:54:37Z</time>
      </trkpt>
      <trkpt lat="42.751" lon="1.53376">
        <ele>1561.6</ele>
        <time>2021-09-19T12:54:39Z</time>
      </trkpt>
      <trkpt lat="42.751" lon="1.53374">
        <ele>1561</ele>
        <time>2021-09-19T12:54:41Z</time>
      </trkpt>
      <trkpt lat="42.751" lon="1.53373">
        <ele>1560.6</ele>
        <time>2021-09-19T12:54:42Z</time>
      </trkpt>
      <trkpt lat="42.751" lon="1.53373">
        <ele>1560.6</ele>
        <time>2021-09-19T12:54:43Z</time>
      </trkpt>
      <trkpt lat="42.75101" lon="1.53371">
        <ele>1560.4</ele>
        <time>2021-09-19T12:54:44Z</time>
      </trkpt>
      <trkpt lat="42.75102" lon="1.53369">
        <ele>1560</ele>
        <time>2021-09-19T12:54:46Z</time>
      </trkpt>
      <trkpt lat="42.75104" lon="1.53366">
        <ele>1559.4</ele>
        <time>2021-09-19T12:54:49Z</time>
      </trkpt>
      <trkpt lat="42.75105" lon="1.53366">
        <ele>1559.4</ele>
        <time>2021-09-19T12:54:50Z</time>
      </trkpt>
      <trkpt lat="42.75106" lon="1.53365">
        <ele>1558.4</ele>
        <time>2021-09-19T12:54:53Z</time>
      </trkpt>
      <trkpt lat="42.75107" lon="1.53365">
        <ele>1558.4</ele>
        <time>2021-09-19T12:54:54Z</time>
      </trkpt>
      <trkpt lat="42.75108" lon="1.53364">
        <ele>1558</ele>
        <time>2021-09-19T12:54:56Z</time>
      </trkpt>
      <trkpt lat="42.7511" lon="1.53364">
        <ele>1557.2</ele>
        <time>2021-09-19T12:54:59Z</time>
      </trkpt>
      <trkpt lat="42.75112" lon="1.53364">
        <ele>1556.6</ele>
        <time>2021-09-19T12:55:02Z</time>
      </trkpt>
      <trkpt lat="42.75116" lon="1.53363">
        <ele>1556.2</ele>
        <time>2021-09-19T12:55:06Z</time>
      </trkpt>
      <trkpt lat="42.75117" lon="1.53363">
        <ele>1556</ele>
        <time>2021-09-19T12:55:07Z</time>
      </trkpt>
      <trkpt lat="42.75118" lon="1.53363">
        <ele>1555.8</ele>
        <time>2021-09-19T12:55:08Z</time>
      </trkpt>
      <trkpt lat="42.7512" lon="1.5336">
        <ele>1555.4</ele>
        <time>2021-09-19T12:55:12Z</time>
      </trkpt>
      <trkpt lat="42.75121" lon="1.53359">
        <ele>1554.6</ele>
        <time>2021-09-19T12:55:13Z</time>
      </trkpt>
      <trkpt lat="42.75122" lon="1.53358">
        <ele>1554.2</ele>
        <time>2021-09-19T12:55:14Z</time>
      </trkpt>
      <trkpt lat="42.75124" lon="1.53355">
        <ele>1553.4</ele>
        <time>2021-09-19T12:55:16Z</time>
      </trkpt>
      <trkpt lat="42.75128" lon="1.53352">
        <ele>1552.4</ele>
        <time>2021-09-19T12:55:20Z</time>
      </trkpt>
      <trkpt lat="42.75129" lon="1.53351">
        <ele>1552.2</ele>
        <time>2021-09-19T12:55:21Z</time>
      </trkpt>
      <trkpt lat="42.75133" lon="1.53347">
        <ele>1551.4</ele>
        <time>2021-09-19T12:55:25Z</time>
      </trkpt>
      <trkpt lat="42.75136" lon="1.53344">
        <ele>1550</ele>
        <time>2021-09-19T12:55:29Z</time>
      </trkpt>
      <trkpt lat="42.75137" lon="1.53343">
        <ele>1549.8</ele>
        <time>2021-09-19T12:55:30Z</time>
      </trkpt>
      <trkpt lat="42.75138" lon="1.53337">
        <ele>1549</ele>
        <time>2021-09-19T12:55:34Z</time>
      </trkpt>
      <trkpt lat="42.75138" lon="1.53336">
        <ele>1548.6</ele>
        <time>2021-09-19T12:55:35Z</time>
      </trkpt>
      <trkpt lat="42.75139" lon="1.53334">
        <ele>1547.8</ele>
        <time>2021-09-19T12:55:37Z</time>
      </trkpt>
      <trkpt lat="42.7514" lon="1.5333">
        <ele>1547.4</ele>
        <time>2021-09-19T12:55:41Z</time>
      </trkpt>
      <trkpt lat="42.7514" lon="1.53328">
        <ele>1546.8</ele>
        <time>2021-09-19T12:55:43Z</time>
      </trkpt>
      <trkpt lat="42.75141" lon="1.53327">
        <ele>1546.8</ele>
        <time>2021-09-19T12:55:44Z</time>
      </trkpt>
      <trkpt lat="42.75144" lon="1.53323">
        <ele>1545.6</ele>
        <time>2021-09-19T12:55:49Z</time>
      </trkpt>
      <trkpt lat="42.75146" lon="1.53321">
        <ele>1544.8</ele>
        <time>2021-09-19T12:55:56Z</time>
      </trkpt>
      <trkpt lat="42.75146" lon="1.53321">
        <ele>1544.6</ele>
        <time>2021-09-19T12:55:57Z</time>
      </trkpt>
      <trkpt lat="42.75146" lon="1.53321">
        <ele>1544.6</ele>
        <time>2021-09-19T12:55:58Z</time>
      </trkpt>
      <trkpt lat="42.75146" lon="1.53322">
        <ele>1544.6</ele>
        <time>2021-09-19T12:55:59Z</time>
      </trkpt>
      <trkpt lat="42.75147" lon="1.53323">
        <ele>1544.2</ele>
        <time>2021-09-19T12:56:01Z</time>
      </trkpt>
      <trkpt lat="42.75147" lon="1.53321">
        <ele>1543.4</ele>
        <time>2021-09-19T12:56:06Z</time>
      </trkpt>
      <trkpt lat="42.75147" lon="1.53321">
        <ele>1543.4</ele>
        <time>2021-09-19T12:56:07Z</time>
      </trkpt>
      <trkpt lat="42.75148" lon="1.53317">
        <ele>1543.8</ele>
        <time>2021-09-19T12:56:15Z</time>
      </trkpt>
      <trkpt lat="42.75147" lon="1.5332">
        <ele>1543</ele>
        <time>2021-09-19T12:56:22Z</time>
      </trkpt>
      <trkpt lat="42.75147" lon="1.53322">
        <ele>1543.8</ele>
        <time>2021-09-19T12:56:27Z</time>
      </trkpt>
      <trkpt lat="42.75146" lon="1.5332">
        <ele>1543.6</ele>
        <time>2021-09-19T12:56:32Z</time>
      </trkpt>
      <trkpt lat="42.75146" lon="1.53319">
        <ele>1544.4</ele>
        <time>2021-09-19T12:56:36Z</time>
      </trkpt>
      <trkpt lat="42.75145" lon="1.53317">
        <ele>1544.6</ele>
        <time>2021-09-19T12:56:41Z</time>
      </trkpt>
      <trkpt lat="42.75144" lon="1.53317">
        <ele>1544.6</ele>
        <time>2021-09-19T12:56:42Z</time>
      </trkpt>
      <trkpt lat="42.75144" lon="1.53318">
        <ele>1544.6</ele>
        <time>2021-09-19T12:56:44Z</time>
      </trkpt>
      <trkpt lat="42.75144" lon="1.53317">
        <ele>1545</ele>
        <time>2021-09-19T12:56:48Z</time>
      </trkpt>
      <trkpt lat="42.75146" lon="1.53319">
        <ele>1544.6</ele>
        <time>2021-09-19T12:56:52Z</time>
      </trkpt>
      <trkpt lat="42.75145" lon="1.53318">
        <ele>1544.6</ele>
        <time>2021-09-19T12:57:00Z</time>
      </trkpt>
      <trkpt lat="42.75145" lon="1.53318">
        <ele>1544.6</ele>
        <time>2021-09-19T12:57:02Z</time>
      </trkpt>
      <trkpt lat="42.75146" lon="1.53317">
        <ele>1544</ele>
        <time>2021-09-19T12:57:09Z</time>
      </trkpt>
      <trkpt lat="42.75146" lon="1.53315">
        <ele>1543.2</ele>
        <time>2021-09-19T12:57:12Z</time>
      </trkpt>
      <trkpt lat="42.75148" lon="1.53314">
        <ele>1542.8</ele>
        <time>2021-09-19T12:57:14Z</time>
      </trkpt>
      <trkpt lat="42.75149" lon="1.53315">
        <ele>1541.8</ele>
        <time>2021-09-19T12:57:18Z</time>
      </trkpt>
      <trkpt lat="42.75151" lon="1.53315">
        <ele>1541.4</ele>
        <time>2021-09-19T12:57:20Z</time>
      </trkpt>
      <trkpt lat="42.75156" lon="1.53314">
        <ele>1541</ele>
        <time>2021-09-19T12:57:25Z</time>
      </trkpt>
      <trkpt lat="42.75157" lon="1.53314">
        <ele>1540.8</ele>
        <time>2021-09-19T12:57:26Z</time>
      </trkpt>
      <trkpt lat="42.75158" lon="1.53314">
        <ele>1540.4</ele>
        <time>2021-09-19T12:57:27Z</time>
      </trkpt>
      <trkpt lat="42.7516" lon="1.53312">
        <ele>1539.8</ele>
        <time>2021-09-19T12:57:30Z</time>
      </trkpt>
      <trkpt lat="42.75161" lon="1.53309">
        <ele>1539.2</ele>
        <time>2021-09-19T12:57:34Z</time>
      </trkpt>
      <trkpt lat="42.75162" lon="1.53307">
        <ele>1538.6</ele>
        <time>2021-09-19T12:57:36Z</time>
      </trkpt>
      <trkpt lat="42.75162" lon="1.533">
        <ele>1537.4</ele>
        <time>2021-09-19T12:57:41Z</time>
      </trkpt>
      <trkpt lat="42.75161" lon="1.53299">
        <ele>1537.2</ele>
        <time>2021-09-19T12:57:42Z</time>
      </trkpt>
      <trkpt lat="42.75161" lon="1.53297">
        <ele>1537</ele>
        <time>2021-09-19T12:57:45Z</time>
      </trkpt>
      <trkpt lat="42.75163" lon="1.53296">
        <ele>1536.8</ele>
        <time>2021-09-19T12:57:49Z</time>
      </trkpt>
      <trkpt lat="42.75164" lon="1.53296">
        <ele>1536.2</ele>
        <time>2021-09-19T12:57:51Z</time>
      </trkpt>
      <trkpt lat="42.75166" lon="1.53295">
        <ele>1535</ele>
        <time>2021-09-19T12:57:54Z</time>
      </trkpt>
      <trkpt lat="42.75167" lon="1.53295">
        <ele>1534.8</ele>
        <time>2021-09-19T12:57:55Z</time>
      </trkpt>
      <trkpt lat="42.75171" lon="1.53293">
        <ele>1534</ele>
        <time>2021-09-19T12:57:59Z</time>
      </trkpt>
      <trkpt lat="42.75172" lon="1.53293">
        <ele>1533.8</ele>
        <time>2021-09-19T12:58:00Z</time>
      </trkpt>
      <trkpt lat="42.75173" lon="1.53293">
        <ele>1533.4</ele>
        <time>2021-09-19T12:58:01Z</time>
      </trkpt>
      <trkpt lat="42.75173" lon="1.53293">
        <ele>1532.8</ele>
        <time>2021-09-19T12:58:02Z</time>
      </trkpt>
      <trkpt lat="42.75176" lon="1.53293">
        <ele>1531.6</ele>
        <time>2021-09-19T12:58:06Z</time>
      </trkpt>
      <trkpt lat="42.75176" lon="1.53292">
        <ele>1531.4</ele>
        <time>2021-09-19T12:58:08Z</time>
      </trkpt>
      <trkpt lat="42.75176" lon="1.5329">
        <ele>1531</ele>
        <time>2021-09-19T12:58:10Z</time>
      </trkpt>
      <trkpt lat="42.75176" lon="1.5329">
        <ele>1530.6</ele>
        <time>2021-09-19T12:58:11Z</time>
      </trkpt>
      <trkpt lat="42.75176" lon="1.53289">
        <ele>1530.6</ele>
        <time>2021-09-19T12:58:12Z</time>
      </trkpt>
      <trkpt lat="42.75176" lon="1.53288">
        <ele>1530.2</ele>
        <time>2021-09-19T12:58:14Z</time>
      </trkpt>
      <trkpt lat="42.75177" lon="1.53287">
        <ele>1530.2</ele>
        <time>2021-09-19T12:58:16Z</time>
      </trkpt>
      <trkpt lat="42.75177" lon="1.53284">
        <ele>1529.6</ele>
        <time>2021-09-19T12:58:21Z</time>
      </trkpt>
      <trkpt lat="42.75178" lon="1.53282">
        <ele>1528.8</ele>
        <time>2021-09-19T12:58:23Z</time>
      </trkpt>
      <trkpt lat="42.75178" lon="1.53282">
        <ele>1528.6</ele>
        <time>2021-09-19T12:58:24Z</time>
      </trkpt>
      <trkpt lat="42.7518" lon="1.53281">
        <ele>1527.8</ele>
        <time>2021-09-19T12:58:28Z</time>
      </trkpt>
      <trkpt lat="42.7518" lon="1.53281">
        <ele>1527.2</ele>
        <time>2021-09-19T12:58:29Z</time>
      </trkpt>
      <trkpt lat="42.7518" lon="1.5328">
        <ele>1526.8</ele>
        <time>2021-09-19T12:58:31Z</time>
      </trkpt>
      <trkpt lat="42.75181" lon="1.5328">
        <ele>1526.8</ele>
        <time>2021-09-19T12:58:32Z</time>
      </trkpt>
      <trkpt lat="42.75181" lon="1.5328">
        <ele>1526.6</ele>
        <time>2021-09-19T12:58:34Z</time>
      </trkpt>
      <trkpt lat="42.75181" lon="1.53282">
        <ele>1526.2</ele>
        <time>2021-09-19T12:58:37Z</time>
      </trkpt>
      <trkpt lat="42.75182" lon="1.53282">
        <ele>1526.2</ele>
        <time>2021-09-19T12:58:40Z</time>
      </trkpt>
      <trkpt lat="42.75183" lon="1.5328">
        <ele>1526.4</ele>
        <time>2021-09-19T12:58:43Z</time>
      </trkpt>
      <trkpt lat="42.75183" lon="1.53277">
        <ele>1525.4</ele>
        <time>2021-09-19T12:58:47Z</time>
      </trkpt>
      <trkpt lat="42.75184" lon="1.53275">
        <ele>1525.2</ele>
        <time>2021-09-19T12:58:49Z</time>
      </trkpt>
      <trkpt lat="42.75187" lon="1.53271">
        <ele>1525.2</ele>
        <time>2021-09-19T12:58:54Z</time>
      </trkpt>
      <trkpt lat="42.75192" lon="1.5327">
        <ele>1525</ele>
        <time>2021-09-19T12:59:01Z</time>
      </trkpt>
      <trkpt lat="42.75194" lon="1.53269">
        <ele>1524</ele>
        <time>2021-09-19T12:59:05Z</time>
      </trkpt>
      <trkpt lat="42.75194" lon="1.53268">
        <ele>1523.4</ele>
        <time>2021-09-19T12:59:07Z</time>
      </trkpt>
      <trkpt lat="42.75196" lon="1.53265">
        <ele>1522.8</ele>
        <time>2021-09-19T12:59:11Z</time>
      </trkpt>
      <trkpt lat="42.75197" lon="1.53264">
        <ele>1521.6</ele>
        <time>2021-09-19T12:59:15Z</time>
      </trkpt>
      <trkpt lat="42.75197" lon="1.53263">
        <ele>1521</ele>
        <time>2021-09-19T12:59:16Z</time>
      </trkpt>
      <trkpt lat="42.75198" lon="1.53262">
        <ele>1520.4</ele>
        <time>2021-09-19T12:59:18Z</time>
      </trkpt>
      <trkpt lat="42.75199" lon="1.53259">
        <ele>1519.6</ele>
        <time>2021-09-19T12:59:22Z</time>
      </trkpt>
      <trkpt lat="42.75199" lon="1.53256">
        <ele>1519.2</ele>
        <time>2021-09-19T12:59:26Z</time>
      </trkpt>
      <trkpt lat="42.75199" lon="1.53255">
        <ele>1519.2</ele>
        <time>2021-09-19T12:59:28Z</time>
      </trkpt>
      <trkpt lat="42.752" lon="1.53251">
        <ele>1518</ele>
        <time>2021-09-19T12:59:35Z</time>
      </trkpt>
      <trkpt lat="42.752" lon="1.53251">
        <ele>1517.8</ele>
        <time>2021-09-19T12:59:36Z</time>
      </trkpt>
      <trkpt lat="42.75202" lon="1.53246">
        <ele>1517</ele>
        <time>2021-09-19T12:59:41Z</time>
      </trkpt>
      <trkpt lat="42.75202" lon="1.53245">
        <ele>1516.8</ele>
        <time>2021-09-19T12:59:42Z</time>
      </trkpt>
      <trkpt lat="42.75205" lon="1.53242">
        <ele>1515.6</ele>
        <time>2021-09-19T12:59:46Z</time>
      </trkpt>
      <trkpt lat="42.75207" lon="1.5324">
        <ele>1515</ele>
        <time>2021-09-19T12:59:49Z</time>
      </trkpt>
      <trkpt lat="42.75208" lon="1.53237">
        <ele>1515</ele>
        <time>2021-09-19T12:59:53Z</time>
      </trkpt>
      <trkpt lat="42.75208" lon="1.53236">
        <ele>1514.8</ele>
        <time>2021-09-19T12:59:54Z</time>
      </trkpt>
      <trkpt lat="42.75208" lon="1.53234">
        <ele>1514.4</ele>
        <time>2021-09-19T12:59:55Z</time>
      </trkpt>
      <trkpt lat="42.75209" lon="1.53232">
        <ele>1512.4</ele>
        <time>2021-09-19T12:59:57Z</time>
      </trkpt>
      <trkpt lat="42.75209" lon="1.53228">
        <ele>1511.6</ele>
        <time>2021-09-19T13:00:00Z</time>
      </trkpt>
      <trkpt lat="42.75209" lon="1.53226">
        <ele>1511.2</ele>
        <time>2021-09-19T13:00:01Z</time>
      </trkpt>
      <trkpt lat="42.7521" lon="1.53223">
        <ele>1510</ele>
        <time>2021-09-19T13:00:04Z</time>
      </trkpt>
      <trkpt lat="42.75212" lon="1.53216">
        <ele>1509</ele>
        <time>2021-09-19T13:00:08Z</time>
      </trkpt>
      <trkpt lat="42.75214" lon="1.53213">
        <ele>1507.8</ele>
        <time>2021-09-19T13:00:11Z</time>
      </trkpt>
      <trkpt lat="42.75216" lon="1.53211">
        <ele>1506.6</ele>
        <time>2021-09-19T13:00:13Z</time>
      </trkpt>
      <trkpt lat="42.75217" lon="1.5321">
        <ele>1506</ele>
        <time>2021-09-19T13:00:14Z</time>
      </trkpt>
      <trkpt lat="42.75218" lon="1.5321">
        <ele>1505.6</ele>
        <time>2021-09-19T13:00:16Z</time>
      </trkpt>
      <trkpt lat="42.75219" lon="1.53209">
        <ele>1504.4</ele>
        <time>2021-09-19T13:00:20Z</time>
      </trkpt>
      <trkpt lat="42.75221" lon="1.53209">
        <ele>1504.4</ele>
        <time>2021-09-19T13:00:23Z</time>
      </trkpt>
      <trkpt lat="42.75225" lon="1.53208">
        <ele>1503.4</ele>
        <time>2021-09-19T13:00:29Z</time>
      </trkpt>
      <trkpt lat="42.75226" lon="1.53211">
        <ele>1502.6</ele>
        <time>2021-09-19T13:00:31Z</time>
      </trkpt>
      <trkpt lat="42.75227" lon="1.53213">
        <ele>1502.2</ele>
        <time>2021-09-19T13:00:33Z</time>
      </trkpt>
      <trkpt lat="42.75228" lon="1.53213">
        <ele>1502.2</ele>
        <time>2021-09-19T13:00:36Z</time>
      </trkpt>
      <trkpt lat="42.75228" lon="1.53211">
        <ele>1502.2</ele>
        <time>2021-09-19T13:00:40Z</time>
      </trkpt>
      <trkpt lat="42.75229" lon="1.53207">
        <ele>1501.2</ele>
        <time>2021-09-19T13:00:44Z</time>
      </trkpt>
      <trkpt lat="42.7523" lon="1.53205">
        <ele>1500.4</ele>
        <time>2021-09-19T13:00:47Z</time>
      </trkpt>
      <trkpt lat="42.7523" lon="1.53204">
        <ele>1500</ele>
        <time>2021-09-19T13:00:48Z</time>
      </trkpt>
      <trkpt lat="42.75233" lon="1.53203">
        <ele>1498.8</ele>
        <time>2021-09-19T13:00:51Z</time>
      </trkpt>
      <trkpt lat="42.75233" lon="1.53203">
        <ele>1498.4</ele>
        <time>2021-09-19T13:00:53Z</time>
      </trkpt>
      <trkpt lat="42.75234" lon="1.53201">
        <ele>1497.6</ele>
        <time>2021-09-19T13:00:55Z</time>
      </trkpt>
      <trkpt lat="42.75238" lon="1.53198">
        <ele>1496.4</ele>
        <time>2021-09-19T13:00:59Z</time>
      </trkpt>
      <trkpt lat="42.7524" lon="1.53195">
        <ele>1495.2</ele>
        <time>2021-09-19T13:01:02Z</time>
      </trkpt>
      <trkpt lat="42.7524" lon="1.53193">
        <ele>1494</ele>
        <time>2021-09-19T13:01:04Z</time>
      </trkpt>
      <trkpt lat="42.75241" lon="1.53191">
        <ele>1493.2</ele>
        <time>2021-09-19T13:01:06Z</time>
      </trkpt>
      <trkpt lat="42.75241" lon="1.53189">
        <ele>1492.6</ele>
        <time>2021-09-19T13:01:08Z</time>
      </trkpt>
      <trkpt lat="42.75246" lon="1.53188">
        <ele>1491.8</ele>
        <time>2021-09-19T13:01:13Z</time>
      </trkpt>
      <trkpt lat="42.75248" lon="1.53188">
        <ele>1491.2</ele>
        <time>2021-09-19T13:01:15Z</time>
      </trkpt>
      <trkpt lat="42.75251" lon="1.53189">
        <ele>1489.8</ele>
        <time>2021-09-19T13:01:19Z</time>
      </trkpt>
      <trkpt lat="42.75252" lon="1.53189">
        <ele>1489.6</ele>
        <time>2021-09-19T13:01:20Z</time>
      </trkpt>
      <trkpt lat="42.75254" lon="1.53192">
        <ele>1488.8</ele>
        <time>2021-09-19T13:01:23Z</time>
      </trkpt>
      <trkpt lat="42.75257" lon="1.53196">
        <ele>1487.8</ele>
        <time>2021-09-19T13:01:27Z</time>
      </trkpt>
      <trkpt lat="42.75258" lon="1.53196">
        <ele>1487.8</ele>
        <time>2021-09-19T13:01:28Z</time>
      </trkpt>
      <trkpt lat="42.75259" lon="1.53196">
        <ele>1487.6</ele>
        <time>2021-09-19T13:01:29Z</time>
      </trkpt>
      <trkpt lat="42.75263" lon="1.53196">
        <ele>1486.8</ele>
        <time>2021-09-19T13:01:34Z</time>
      </trkpt>
      <trkpt lat="42.75263" lon="1.53198">
        <ele>1486.4</ele>
        <time>2021-09-19T13:01:35Z</time>
      </trkpt>
      <trkpt lat="42.75267" lon="1.53198">
        <ele>1485.8</ele>
        <time>2021-09-19T13:01:41Z</time>
      </trkpt>
      <trkpt lat="42.75269" lon="1.53195">
        <ele>1485.2</ele>
        <time>2021-09-19T13:01:45Z</time>
      </trkpt>
      <trkpt lat="42.7527" lon="1.53193">
        <ele>1484.8</ele>
        <time>2021-09-19T13:01:48Z</time>
      </trkpt>
      <trkpt lat="42.75273" lon="1.53192">
        <ele>1484</ele>
        <time>2021-09-19T13:01:55Z</time>
      </trkpt>
      <trkpt lat="42.75273" lon="1.53192">
        <ele>1483.8</ele>
        <time>2021-09-19T13:01:56Z</time>
      </trkpt>
      <trkpt lat="42.75273" lon="1.53193">
        <ele>1482.8</ele>
        <time>2021-09-19T13:02:00Z</time>
      </trkpt>
      <trkpt lat="42.7527" lon="1.53196">
        <ele>1482</ele>
        <time>2021-09-19T13:02:05Z</time>
      </trkpt>
      <trkpt lat="42.75268" lon="1.53198">
        <ele>1482</ele>
        <time>2021-09-19T13:02:09Z</time>
      </trkpt>
      <trkpt lat="42.75269" lon="1.532">
        <ele>1482.2</ele>
        <time>2021-09-19T13:02:13Z</time>
      </trkpt>
      <trkpt lat="42.75274" lon="1.532">
        <ele>1482.8</ele>
        <time>2021-09-19T13:02:21Z</time>
      </trkpt>
      <trkpt lat="42.75279" lon="1.53201">
        <ele>1482.2</ele>
        <time>2021-09-19T13:02:26Z</time>
      </trkpt>
      <trkpt lat="42.75281" lon="1.53201">
        <ele>1481.8</ele>
        <time>2021-09-19T13:02:27Z</time>
      </trkpt>
      <trkpt lat="42.75282" lon="1.53201">
        <ele>1481.6</ele>
        <time>2021-09-19T13:02:28Z</time>
      </trkpt>
      <trkpt lat="42.75283" lon="1.53201">
        <ele>1481.2</ele>
        <time>2021-09-19T13:02:29Z</time>
      </trkpt>
      <trkpt lat="42.75284" lon="1.53201">
        <ele>1481</ele>
        <time>2021-09-19T13:02:30Z</time>
      </trkpt>
      <trkpt lat="42.75286" lon="1.53201">
        <ele>1480.6</ele>
        <time>2021-09-19T13:02:32Z</time>
      </trkpt>
      <trkpt lat="42.75288" lon="1.53202">
        <ele>1480.2</ele>
        <time>2021-09-19T13:02:35Z</time>
      </trkpt>
      <trkpt lat="42.75289" lon="1.53202">
        <ele>1479.8</ele>
        <time>2021-09-19T13:02:37Z</time>
      </trkpt>
      <trkpt lat="42.7529" lon="1.53202">
        <ele>1479.8</ele>
        <time>2021-09-19T13:02:39Z</time>
      </trkpt>
      <trkpt lat="42.75291" lon="1.53202">
        <ele>1479.6</ele>
        <time>2021-09-19T13:02:41Z</time>
      </trkpt>
      <trkpt lat="42.75293" lon="1.53202">
        <ele>1478.6</ele>
        <time>2021-09-19T13:02:44Z</time>
      </trkpt>
      <trkpt lat="42.75293" lon="1.53201">
        <ele>1478.6</ele>
        <time>2021-09-19T13:02:45Z</time>
      </trkpt>
      <trkpt lat="42.75295" lon="1.53199">
        <ele>1478.6</ele>
        <time>2021-09-19T13:02:48Z</time>
      </trkpt>
      <trkpt lat="42.75296" lon="1.53199">
        <ele>1478.8</ele>
        <time>2021-09-19T13:02:49Z</time>
      </trkpt>
      <trkpt lat="42.75299" lon="1.53197">
        <ele>1477.8</ele>
        <time>2021-09-19T13:02:53Z</time>
      </trkpt>
      <trkpt lat="42.753" lon="1.53197">
        <ele>1477.4</ele>
        <time>2021-09-19T13:02:54Z</time>
      </trkpt>
      <trkpt lat="42.75301" lon="1.53197">
        <ele>1477.2</ele>
        <time>2021-09-19T13:02:55Z</time>
      </trkpt>
      <trkpt lat="42.75303" lon="1.53199">
        <ele>1477</ele>
        <time>2021-09-19T13:02:58Z</time>
      </trkpt>
      <trkpt lat="42.75304" lon="1.53201">
        <ele>1477</ele>
        <time>2021-09-19T13:03:01Z</time>
      </trkpt>
      <trkpt lat="42.75305" lon="1.53202">
        <ele>1476.8</ele>
        <time>2021-09-19T13:03:02Z</time>
      </trkpt>
      <trkpt lat="42.75305" lon="1.53202">
        <ele>1476.8</ele>
        <time>2021-09-19T13:03:03Z</time>
      </trkpt>
      <trkpt lat="42.75306" lon="1.53203">
        <ele>1476.4</ele>
        <time>2021-09-19T13:03:06Z</time>
      </trkpt>
      <trkpt lat="42.75306" lon="1.53203">
        <ele>1476</ele>
        <time>2021-09-19T13:03:08Z</time>
      </trkpt>
      <trkpt lat="42.75307" lon="1.53203">
        <ele>1475.8</ele>
        <time>2021-09-19T13:03:09Z</time>
      </trkpt>
      <trkpt lat="42.75309" lon="1.53205">
        <ele>1475.2</ele>
        <time>2021-09-19T13:03:15Z</time>
      </trkpt>
      <trkpt lat="42.75309" lon="1.53207">
        <ele>1474.8</ele>
        <time>2021-09-19T13:03:17Z</time>
      </trkpt>
      <trkpt lat="42.75312" lon="1.53214">
        <ele>1474.2</ele>
        <time>2021-09-19T13:03:22Z</time>
      </trkpt>
      <trkpt lat="42.75313" lon="1.53214">
        <ele>1474</ele>
        <time>2021-09-19T13:03:23Z</time>
      </trkpt>
      <trkpt lat="42.75316" lon="1.53214">
        <ele>1473.4</ele>
        <time>2021-09-19T13:03:28Z</time>
      </trkpt>
      <trkpt lat="42.7532" lon="1.53211">
        <ele>1473.4</ele>
        <time>2021-09-19T13:03:34Z</time>
      </trkpt>
      <trkpt lat="42.75321" lon="1.53211">
        <ele>1473.4</ele>
        <time>2021-09-19T13:03:35Z</time>
      </trkpt>
      <trkpt lat="42.75325" lon="1.53208">
        <ele>1473</ele>
        <time>2021-09-19T13:03:40Z</time>
      </trkpt>
      <trkpt lat="42.75327" lon="1.53206">
        <ele>1472.8</ele>
        <time>2021-09-19T13:03:43Z</time>
      </trkpt>
      <trkpt lat="42.75334" lon="1.53201">
        <ele>1472.8</ele>
        <time>2021-09-19T13:03:51Z</time>
      </trkpt>
      <trkpt lat="42.75337" lon="1.532">
        <ele>1472.6</ele>
        <time>2021-09-19T13:03:57Z</time>
      </trkpt>
      <trkpt lat="42.75337" lon="1.532">
        <ele>1472.6</ele>
        <time>2021-09-19T13:03:58Z</time>
      </trkpt>
      <trkpt lat="42.75336" lon="1.53198">
        <ele>1473</ele>
        <time>2021-09-19T13:04:05Z</time>
      </trkpt>
      <trkpt lat="42.75334" lon="1.53195">
        <ele>1473</ele>
        <time>2021-09-19T13:04:12Z</time>
      </trkpt>
      <trkpt lat="42.75334" lon="1.53195">
        <ele>1473</ele>
        <time>2021-09-19T13:04:13Z</time>
      </trkpt>
      <trkpt lat="42.75334" lon="1.53195">
        <ele>1473</ele>
        <time>2021-09-19T13:04:14Z</time>
      </trkpt>
      <trkpt lat="42.75336" lon="1.53195">
        <ele>1472.8</ele>
        <time>2021-09-19T13:04:22Z</time>
      </trkpt>
      <trkpt lat="42.75341" lon="1.53198">
        <ele>1472.6</ele>
        <time>2021-09-19T13:04:29Z</time>
      </trkpt>
      <trkpt lat="42.75341" lon="1.53197">
        <ele>1472.8</ele>
        <time>2021-09-19T13:04:30Z</time>
      </trkpt>
      <trkpt lat="42.75344" lon="1.53193">
        <ele>1473.2</ele>
        <time>2021-09-19T13:04:38Z</time>
      </trkpt>
      <trkpt lat="42.75343" lon="1.53192">
        <ele>1472.8</ele>
        <time>2021-09-19T13:04:47Z</time>
      </trkpt>
      <trkpt lat="42.75342" lon="1.53192">
        <ele>1472.8</ele>
        <time>2021-09-19T13:04:48Z</time>
      </trkpt>
      <trkpt lat="42.75334" lon="1.53195">
        <ele>1473</ele>
        <time>2021-09-19T13:04:57Z</time>
      </trkpt>
      <trkpt lat="42.75338" lon="1.53194">
        <ele>1473</ele>
        <time>2021-09-19T13:05:05Z</time>
      </trkpt>
      <trkpt lat="42.75342" lon="1.53194">
        <ele>1473</ele>
        <time>2021-09-19T13:05:12Z</time>
      </trkpt>
      <trkpt lat="42.75342" lon="1.53193">
        <ele>1473</ele>
        <time>2021-09-19T13:05:15Z</time>
      </trkpt>
      <trkpt lat="42.75342" lon="1.53194">
        <ele>1472.8</ele>
        <time>2021-09-19T13:05:21Z</time>
      </trkpt>
      <trkpt lat="42.75341" lon="1.53194">
        <ele>1472.8</ele>
        <time>2021-09-19T13:05:24Z</time>
      </trkpt>
      <trkpt lat="42.75341" lon="1.53193">
        <ele>1472.8</ele>
        <time>2021-09-19T13:05:25Z</time>
      </trkpt>
      <trkpt lat="42.75339" lon="1.53195">
        <ele>1472.6</ele>
        <time>2021-09-19T13:05:33Z</time>
      </trkpt>
      <trkpt lat="42.75337" lon="1.53195">
        <ele>1472.6</ele>
        <time>2021-09-19T13:05:44Z</time>
      </trkpt>
      <trkpt lat="42.75338" lon="1.53196">
        <ele>1472</ele>
        <time>2021-09-19T13:05:49Z</time>
      </trkpt>
      <trkpt lat="42.75338" lon="1.53196">
        <ele>1472</ele>
        <time>2021-09-19T13:05:50Z</time>
      </trkpt>
      <trkpt lat="42.75339" lon="1.53197">
        <ele>1471.8</ele>
        <time>2021-09-19T13:05:57Z</time>
      </trkpt>
      <trkpt lat="42.75341" lon="1.53198">
        <ele>1472.2</ele>
        <time>2021-09-19T13:06:05Z</time>
      </trkpt>
      <trkpt lat="42.7534" lon="1.53199">
        <ele>1472.2</ele>
        <time>2021-09-19T13:06:15Z</time>
      </trkpt>
      <trkpt lat="42.7534" lon="1.532">
        <ele>1472.2</ele>
        <time>2021-09-19T13:06:18Z</time>
      </trkpt>
      <trkpt lat="42.75342" lon="1.53198">
        <ele>1472</ele>
        <time>2021-09-19T13:06:22Z</time>
      </trkpt>
      <trkpt lat="42.75341" lon="1.53199">
        <ele>1471.8</ele>
        <time>2021-09-19T13:06:29Z</time>
      </trkpt>
      <trkpt lat="42.75341" lon="1.532">
        <ele>1472</ele>
        <time>2021-09-19T13:06:32Z</time>
      </trkpt>
      <trkpt lat="42.75341" lon="1.532">
        <ele>1471.6</ele>
        <time>2021-09-19T13:06:37Z</time>
      </trkpt>
      <trkpt lat="42.75338" lon="1.53195">
        <ele>1471.6</ele>
        <time>2021-09-19T13:06:46Z</time>
      </trkpt>
      <trkpt lat="42.75336" lon="1.53195">
        <ele>1472</ele>
        <time>2021-09-19T13:06:54Z</time>
      </trkpt>
      <trkpt lat="42.75336" lon="1.53195">
        <ele>1471.6</ele>
        <time>2021-09-19T13:06:56Z</time>
      </trkpt>
      <trkpt lat="42.75337" lon="1.53194">
        <ele>1471.4</ele>
        <time>2021-09-19T13:07:03Z</time>
      </trkpt>
      <trkpt lat="42.75338" lon="1.53194">
        <ele>1471.6</ele>
        <time>2021-09-19T13:07:04Z</time>
      </trkpt>
      <trkpt lat="42.75339" lon="1.53195">
        <ele>1478.8</ele>
        <time>2021-09-19T13:07:07Z</time>
      </trkpt>
      <trkpt lat="42.7534" lon="1.53196">
        <ele>1475.4</ele>
        <time>2021-09-19T13:07:11Z</time>
      </trkpt>
      <trkpt lat="42.7534" lon="1.53197">
        <ele>1473.6</ele>
        <time>2021-09-19T13:07:12Z</time>
      </trkpt>
      <trkpt lat="42.7534" lon="1.53198">
        <ele>1472.4</ele>
        <time>2021-09-19T13:07:14Z</time>
      </trkpt>
      <trkpt lat="42.75342" lon="1.532">
        <ele>1472</ele>
        <time>2021-09-19T13:07:18Z</time>
      </trkpt>
      <trkpt lat="42.75343" lon="1.532">
        <ele>1472</ele>
        <time>2021-09-19T13:07:25Z</time>
      </trkpt>
      <trkpt lat="42.75344" lon="1.532">
        <ele>1472</ele>
        <time>2021-09-19T13:07:27Z</time>
      </trkpt>
      <trkpt lat="42.75344" lon="1.532">
        <ele>1472</ele>
        <time>2021-09-19T13:07:28Z</time>
      </trkpt>
      <trkpt lat="42.75343" lon="1.532">
        <ele>1472</ele>
        <time>2021-09-19T13:07:31Z</time>
      </trkpt>
      <trkpt lat="42.75344" lon="1.53199">
        <ele>1472</ele>
        <time>2021-09-19T13:07:36Z</time>
      </trkpt>
      <trkpt lat="42.75344" lon="1.532">
        <ele>1472</ele>
        <time>2021-09-19T13:07:39Z</time>
      </trkpt>
      <trkpt lat="42.75344" lon="1.53202">
        <ele>1472</ele>
        <time>2021-09-19T13:07:45Z</time>
      </trkpt>
      <trkpt lat="42.75345" lon="1.53202">
        <ele>1472</ele>
        <time>2021-09-19T13:07:55Z</time>
      </trkpt>
      <trkpt lat="42.75344" lon="1.53202">
        <ele>1472</ele>
        <time>2021-09-19T13:07:57Z</time>
      </trkpt>
      <trkpt lat="42.75344" lon="1.53203">
        <ele>1472</ele>
        <time>2021-09-19T13:07:58Z</time>
      </trkpt>
      <trkpt lat="42.75343" lon="1.53204">
        <ele>1472</ele>
        <time>2021-09-19T13:08:01Z</time>
      </trkpt>
      <trkpt lat="42.75343" lon="1.53205">
        <ele>1472</ele>
        <time>2021-09-19T13:08:03Z</time>
      </trkpt>
      <trkpt lat="42.75345" lon="1.53206">
        <ele>1472</ele>
        <time>2021-09-19T13:08:12Z</time>
      </trkpt>
      <trkpt lat="42.75345" lon="1.53204">
        <ele>1472</ele>
        <time>2021-09-19T13:08:18Z</time>
      </trkpt>
      <trkpt lat="42.75345" lon="1.53202">
        <ele>1472</ele>
        <time>2021-09-19T13:08:21Z</time>
      </trkpt>
      <trkpt lat="42.75345" lon="1.532">
        <ele>1472</ele>
        <time>2021-09-19T13:08:24Z</time>
      </trkpt>
      <trkpt lat="42.75344" lon="1.532">
        <ele>1472</ele>
        <time>2021-09-19T13:08:32Z</time>
      </trkpt>
      <trkpt lat="42.75344" lon="1.532">
        <ele>1472</ele>
        <time>2021-09-19T13:08:34Z</time>
      </trkpt>
      <trkpt lat="42.75344" lon="1.53199">
        <ele>1472</ele>
        <time>2021-09-19T13:08:43Z</time>
      </trkpt>
      <trkpt lat="42.75353" lon="1.53207">
        <ele>1472</ele>
        <time>2021-09-19T13:08:53Z</time>
      </trkpt>
      <trkpt lat="42.75351" lon="1.53205">
        <ele>1472</ele>
        <time>2021-09-19T13:09:01Z</time>
      </trkpt>
      <trkpt lat="42.75347" lon="1.53205">
        <ele>1471.8</ele>
        <time>2021-09-19T13:09:05Z</time>
      </trkpt>
      <trkpt lat="42.75346" lon="1.53204">
        <ele>1471.8</ele>
        <time>2021-09-19T13:09:08Z</time>
      </trkpt>
      <trkpt lat="42.75346" lon="1.53203">
        <ele>1471.8</ele>
        <time>2021-09-19T13:09:09Z</time>
      </trkpt>
      <trkpt lat="42.75344" lon="1.53205">
        <ele>1471.4</ele>
        <time>2021-09-19T13:09:14Z</time>
      </trkpt>
      <trkpt lat="42.75343" lon="1.53206">
        <ele>1471.2</ele>
        <time>2021-09-19T13:09:16Z</time>
      </trkpt>
      <trkpt lat="42.75339" lon="1.53205">
        <ele>1471.8</ele>
        <time>2021-09-19T13:09:20Z</time>
      </trkpt>
      <trkpt lat="42.75332" lon="1.53204">
        <ele>1472</ele>
        <time>2021-09-19T13:09:26Z</time>
      </trkpt>
      <trkpt lat="42.7533" lon="1.53203">
        <ele>1472.4</ele>
        <time>2021-09-19T13:09:28Z</time>
      </trkpt>
      <trkpt lat="42.75329" lon="1.53203">
        <ele>1472.4</ele>
        <time>2021-09-19T13:09:29Z</time>
      </trkpt>
      <trkpt lat="42.75328" lon="1.53203">
        <ele>1472.6</ele>
        <time>2021-09-19T13:09:32Z</time>
      </trkpt>
      <trkpt lat="42.75328" lon="1.53202">
        <ele>1472.8</ele>
        <time>2021-09-19T13:09:33Z</time>
      </trkpt>
      <trkpt lat="42.75328" lon="1.53202">
        <ele>1472.8</ele>
        <time>2021-09-19T13:09:34Z</time>
      </trkpt>
      <trkpt lat="42.75329" lon="1.53203">
        <ele>1472.8</ele>
        <time>2021-09-19T13:09:39Z</time>
      </trkpt>
      <trkpt lat="42.75328" lon="1.53201">
        <ele>1473.4</ele>
        <time>2021-09-19T13:09:43Z</time>
      </trkpt>
      <trkpt lat="42.75327" lon="1.53198">
        <ele>1473</ele>
        <time>2021-09-19T13:09:51Z</time>
      </trkpt>
      <trkpt lat="42.75331" lon="1.53198">
        <ele>1472.6</ele>
        <time>2021-09-19T13:10:01Z</time>
      </trkpt>
      <trkpt lat="42.75331" lon="1.53197">
        <ele>1472.6</ele>
        <time>2021-09-19T13:10:04Z</time>
      </trkpt>
      <trkpt lat="42.7533" lon="1.532">
        <ele>1473</ele>
        <time>2021-09-19T13:10:12Z</time>
      </trkpt>
      <trkpt lat="42.75333" lon="1.53202">
        <ele>1473</ele>
        <time>2021-09-19T13:10:19Z</time>
      </trkpt>
      <trkpt lat="42.75336" lon="1.532">
        <ele>1472.4</ele>
        <time>2021-09-19T13:10:30Z</time>
      </trkpt>
      <trkpt lat="42.75335" lon="1.53198">
        <ele>1472.4</ele>
        <time>2021-09-19T13:10:36Z</time>
      </trkpt>
      <trkpt lat="42.75335" lon="1.53196">
        <ele>1472</ele>
        <time>2021-09-19T13:10:39Z</time>
      </trkpt>
      <trkpt lat="42.75335" lon="1.53196">
        <ele>1472</ele>
        <time>2021-09-19T13:10:40Z</time>
      </trkpt>
      <trkpt lat="42.75339" lon="1.53202">
        <ele>1472.2</ele>
        <time>2021-09-19T13:10:45Z</time>
      </trkpt>
      <trkpt lat="42.75341" lon="1.53205">
        <ele>1472.4</ele>
        <time>2021-09-19T13:10:48Z</time>
      </trkpt>
      <trkpt lat="42.75341" lon="1.53206">
        <ele>1472.6</ele>
        <time>2021-09-19T13:10:49Z</time>
      </trkpt>
      <trkpt lat="42.75342" lon="1.53209">
        <ele>1472.6</ele>
        <time>2021-09-19T13:10:52Z</time>
      </trkpt>
      <trkpt lat="42.75343" lon="1.5321">
        <ele>1472.6</ele>
        <time>2021-09-19T13:10:53Z</time>
      </trkpt>
      <trkpt lat="42.75345" lon="1.53212">
        <ele>1472.6</ele>
        <time>2021-09-19T13:10:57Z</time>
      </trkpt>
      <trkpt lat="42.75347" lon="1.53213">
        <ele>1472.4</ele>
        <time>2021-09-19T13:11:01Z</time>
      </trkpt>
      <trkpt lat="42.75349" lon="1.53213">
        <ele>1472.2</ele>
        <time>2021-09-19T13:11:04Z</time>
      </trkpt>
      <trkpt lat="42.7535" lon="1.53214">
        <ele>1472.2</ele>
        <time>2021-09-19T13:11:05Z</time>
      </trkpt>
      <trkpt lat="42.75355" lon="1.53214">
        <ele>1472</ele>
        <time>2021-09-19T13:11:12Z</time>
      </trkpt>
      <trkpt lat="42.75359" lon="1.53215">
        <ele>1472.8</ele>
        <time>2021-09-19T13:11:17Z</time>
      </trkpt>
      <trkpt lat="42.75359" lon="1.53215">
        <ele>1473</ele>
        <time>2021-09-19T13:11:18Z</time>
      </trkpt>
      <trkpt lat="42.7536" lon="1.53214">
        <ele>1473.2</ele>
        <time>2021-09-19T13:11:19Z</time>
      </trkpt>
      <trkpt lat="42.75361" lon="1.5321">
        <ele>1473.4</ele>
        <time>2021-09-19T13:11:23Z</time>
      </trkpt>
      <trkpt lat="42.75361" lon="1.53206">
        <ele>1474.4</ele>
        <time>2021-09-19T13:11:27Z</time>
      </trkpt>
      <trkpt lat="42.75361" lon="1.53205">
        <ele>1474.4</ele>
        <time>2021-09-19T13:11:28Z</time>
      </trkpt>
      <trkpt lat="42.75365" lon="1.532">
        <ele>1475.2</ele>
        <time>2021-09-19T13:11:35Z</time>
      </trkpt>
      <trkpt lat="42.75365" lon="1.53198">
        <ele>1475.6</ele>
        <time>2021-09-19T13:11:37Z</time>
      </trkpt>
      <trkpt lat="42.75367" lon="1.53193">
        <ele>1476.2</ele>
        <time>2021-09-19T13:11:41Z</time>
      </trkpt>
      <trkpt lat="42.75367" lon="1.53191">
        <ele>1476.2</ele>
        <time>2021-09-19T13:11:42Z</time>
      </trkpt>
      <trkpt lat="42.75367" lon="1.53187">
        <ele>1476.6</ele>
        <time>2021-09-19T13:11:46Z</time>
      </trkpt>
      <trkpt lat="42.75367" lon="1.53184">
        <ele>1476.8</ele>
        <time>2021-09-19T13:11:49Z</time>
      </trkpt>
      <trkpt lat="42.75368" lon="1.5318">
        <ele>1477.8</ele>
        <time>2021-09-19T13:11:54Z</time>
      </trkpt>
      <trkpt lat="42.75369" lon="1.53178">
        <ele>1478</ele>
        <time>2021-09-19T13:11:56Z</time>
      </trkpt>
      <trkpt lat="42.7537" lon="1.53174">
        <ele>1478.4</ele>
        <time>2021-09-19T13:12:00Z</time>
      </trkpt>
      <trkpt lat="42.75371" lon="1.53172">
        <ele>1478.8</ele>
        <time>2021-09-19T13:12:02Z</time>
      </trkpt>
      <trkpt lat="42.75371" lon="1.53171">
        <ele>1479</ele>
        <time>2021-09-19T13:12:04Z</time>
      </trkpt>
      <trkpt lat="42.75371" lon="1.5317">
        <ele>1479</ele>
        <time>2021-09-19T13:12:05Z</time>
      </trkpt>
      <trkpt lat="42.75372" lon="1.53169">
        <ele>1479.6</ele>
        <time>2021-09-19T13:12:08Z</time>
      </trkpt>
      <trkpt lat="42.75374" lon="1.53168">
        <ele>1479.8</ele>
        <time>2021-09-19T13:12:10Z</time>
      </trkpt>
      <trkpt lat="42.75374" lon="1.53167">
        <ele>1480</ele>
        <time>2021-09-19T13:12:11Z</time>
      </trkpt>
      <trkpt lat="42.75375" lon="1.53166">
        <ele>1480.2</ele>
        <time>2021-09-19T13:12:13Z</time>
      </trkpt>
      <trkpt lat="42.75377" lon="1.53163">
        <ele>1481</ele>
        <time>2021-09-19T13:12:19Z</time>
      </trkpt>
      <trkpt lat="42.75378" lon="1.53161">
        <ele>1481.2</ele>
        <time>2021-09-19T13:12:21Z</time>
      </trkpt>
      <trkpt lat="42.75377" lon="1.53157">
        <ele>1481.4</ele>
        <time>2021-09-19T13:12:24Z</time>
      </trkpt>
      <trkpt lat="42.75378" lon="1.53154">
        <ele>1481.2</ele>
        <time>2021-09-19T13:12:27Z</time>
      </trkpt>
      <trkpt lat="42.75378" lon="1.53152">
        <ele>1481.2</ele>
        <time>2021-09-19T13:12:28Z</time>
      </trkpt>
      <trkpt lat="42.75379" lon="1.5315">
        <ele>1481.4</ele>
        <time>2021-09-19T13:12:30Z</time>
      </trkpt>
      <trkpt lat="42.7538" lon="1.53143">
        <ele>1481.8</ele>
        <time>2021-09-19T13:12:36Z</time>
      </trkpt>
      <trkpt lat="42.75384" lon="1.53131">
        <ele>1481.8</ele>
        <time>2021-09-19T13:12:45Z</time>
      </trkpt>
      <trkpt lat="42.75385" lon="1.53128">
        <ele>1482</ele>
        <time>2021-09-19T13:12:48Z</time>
      </trkpt>
      <trkpt lat="42.75388" lon="1.53125">
        <ele>1482.4</ele>
        <time>2021-09-19T13:12:52Z</time>
      </trkpt>
      <trkpt lat="42.75391" lon="1.5312">
        <ele>1482.6</ele>
        <time>2021-09-19T13:12:57Z</time>
      </trkpt>
      <trkpt lat="42.75392" lon="1.53117">
        <ele>1482.4</ele>
        <time>2021-09-19T13:12:59Z</time>
      </trkpt>
      <trkpt lat="42.75394" lon="1.53116">
        <ele>1482.4</ele>
        <time>2021-09-19T13:13:01Z</time>
      </trkpt>
      <trkpt lat="42.75396" lon="1.53113">
        <ele>1482.4</ele>
        <time>2021-09-19T13:13:04Z</time>
      </trkpt>
      <trkpt lat="42.75396" lon="1.53111">
        <ele>1482.6</ele>
        <time>2021-09-19T13:13:06Z</time>
      </trkpt>
      <trkpt lat="42.75396" lon="1.5311">
        <ele>1482.6</ele>
        <time>2021-09-19T13:13:07Z</time>
      </trkpt>
      <trkpt lat="42.75397" lon="1.53109">
        <ele>1482.6</ele>
        <time>2021-09-19T13:13:08Z</time>
      </trkpt>
      <trkpt lat="42.75398" lon="1.53106">
        <ele>1482.8</ele>
        <time>2021-09-19T13:13:12Z</time>
      </trkpt>
      <trkpt lat="42.75399" lon="1.53103">
        <ele>1482.8</ele>
        <time>2021-09-19T13:13:14Z</time>
      </trkpt>
      <trkpt lat="42.754" lon="1.53099">
        <ele>1483.2</ele>
        <time>2021-09-19T13:13:17Z</time>
      </trkpt>
      <trkpt lat="42.75401" lon="1.53095">
        <ele>1483.6</ele>
        <time>2021-09-19T13:13:22Z</time>
      </trkpt>
      <trkpt lat="42.75404" lon="1.53087">
        <ele>1484.2</ele>
        <time>2021-09-19T13:13:29Z</time>
      </trkpt>
      <trkpt lat="42.75404" lon="1.53086">
        <ele>1484.2</ele>
        <time>2021-09-19T13:13:30Z</time>
      </trkpt>
      <trkpt lat="42.7541" lon="1.53077">
        <ele>1484</ele>
        <time>2021-09-19T13:13:36Z</time>
      </trkpt>
      <trkpt lat="42.75411" lon="1.53076">
        <ele>1484.2</ele>
        <time>2021-09-19T13:13:37Z</time>
      </trkpt>
      <trkpt lat="42.75412" lon="1.53074">
        <ele>1484.2</ele>
        <time>2021-09-19T13:13:39Z</time>
      </trkpt>
      <trkpt lat="42.75412" lon="1.53072">
        <ele>1484.4</ele>
        <time>2021-09-19T13:13:40Z</time>
      </trkpt>
      <trkpt lat="42.75413" lon="1.53063">
        <ele>1484.4</ele>
        <time>2021-09-19T13:13:46Z</time>
      </trkpt>
      <trkpt lat="42.7542" lon="1.53055">
        <ele>1485</ele>
        <time>2021-09-19T13:13:55Z</time>
      </trkpt>
      <trkpt lat="42.75421" lon="1.53053">
        <ele>1485.2</ele>
        <time>2021-09-19T13:13:57Z</time>
      </trkpt>
      <trkpt lat="42.75424" lon="1.5305">
        <ele>1485.6</ele>
        <time>2021-09-19T13:14:02Z</time>
      </trkpt>
      <trkpt lat="42.75431" lon="1.53043">
        <ele>1486</ele>
        <time>2021-09-19T13:14:11Z</time>
      </trkpt>
      <trkpt lat="42.75436" lon="1.53039">
        <ele>1486.2</ele>
        <time>2021-09-19T13:14:16Z</time>
      </trkpt>
      <trkpt lat="42.75437" lon="1.53037">
        <ele>1486.4</ele>
        <time>2021-09-19T13:14:18Z</time>
      </trkpt>
      <trkpt lat="42.75438" lon="1.53036">
        <ele>1486.4</ele>
        <time>2021-09-19T13:14:19Z</time>
      </trkpt>
      <trkpt lat="42.75438" lon="1.53034">
        <ele>1486.4</ele>
        <time>2021-09-19T13:14:20Z</time>
      </trkpt>
      <trkpt lat="42.75442" lon="1.53029">
        <ele>1487</ele>
        <time>2021-09-19T13:14:26Z</time>
      </trkpt>
      <trkpt lat="42.75445" lon="1.53026">
        <ele>1487.4</ele>
        <time>2021-09-19T13:14:31Z</time>
      </trkpt>
      <trkpt lat="42.75448" lon="1.53024">
        <ele>1487.6</ele>
        <time>2021-09-19T13:14:34Z</time>
      </trkpt>
      <trkpt lat="42.7545" lon="1.53022">
        <ele>1487.6</ele>
        <time>2021-09-19T13:14:36Z</time>
      </trkpt>
      <trkpt lat="42.75453" lon="1.53019">
        <ele>1487.6</ele>
        <time>2021-09-19T13:14:39Z</time>
      </trkpt>
      <trkpt lat="42.75454" lon="1.53019">
        <ele>1487.6</ele>
        <time>2021-09-19T13:14:40Z</time>
      </trkpt>
      <trkpt lat="42.75455" lon="1.53018">
        <ele>1488</ele>
        <time>2021-09-19T13:14:41Z</time>
      </trkpt>
      <trkpt lat="42.75456" lon="1.53017">
        <ele>1488.2</ele>
        <time>2021-09-19T13:14:42Z</time>
      </trkpt>
      <trkpt lat="42.75457" lon="1.53016">
        <ele>1488.4</ele>
        <time>2021-09-19T13:14:43Z</time>
      </trkpt>
      <trkpt lat="42.75459" lon="1.53015">
        <ele>1488.6</ele>
        <time>2021-09-19T13:14:46Z</time>
      </trkpt>
      <trkpt lat="42.75461" lon="1.53014">
        <ele>1488.8</ele>
        <time>2021-09-19T13:14:48Z</time>
      </trkpt>
      <trkpt lat="42.75466" lon="1.53012">
        <ele>1489.4</ele>
        <time>2021-09-19T13:14:54Z</time>
      </trkpt>
      <trkpt lat="42.75469" lon="1.5301">
        <ele>1489.8</ele>
        <time>2021-09-19T13:14:57Z</time>
      </trkpt>
      <trkpt lat="42.75471" lon="1.53009">
        <ele>1490</ele>
        <time>2021-09-19T13:14:59Z</time>
      </trkpt>
      <trkpt lat="42.75473" lon="1.53006">
        <ele>1490</ele>
        <time>2021-09-19T13:15:01Z</time>
      </trkpt>
      <trkpt lat="42.75474" lon="1.53004">
        <ele>1490.4</ele>
        <time>2021-09-19T13:15:03Z</time>
      </trkpt>
      <trkpt lat="42.75476" lon="1.53003">
        <ele>1490.6</ele>
        <time>2021-09-19T13:15:06Z</time>
      </trkpt>
      <trkpt lat="42.75478" lon="1.53002">
        <ele>1490.4</ele>
        <time>2021-09-19T13:15:10Z</time>
      </trkpt>
      <trkpt lat="42.75485" lon="1.52997">
        <ele>1491</ele>
        <time>2021-09-19T13:15:19Z</time>
      </trkpt>
      <trkpt lat="42.75494" lon="1.52995">
        <ele>1491.4</ele>
        <time>2021-09-19T13:15:27Z</time>
      </trkpt>
      <trkpt lat="42.75496" lon="1.52994">
        <ele>1491.6</ele>
        <time>2021-09-19T13:15:29Z</time>
      </trkpt>
      <trkpt lat="42.75501" lon="1.52995">
        <ele>1492</ele>
        <time>2021-09-19T13:15:35Z</time>
      </trkpt>
      <trkpt lat="42.75506" lon="1.52995">
        <ele>1492.2</ele>
        <time>2021-09-19T13:15:40Z</time>
      </trkpt>
      <trkpt lat="42.75509" lon="1.52993">
        <ele>1492.6</ele>
        <time>2021-09-19T13:15:43Z</time>
      </trkpt>
      <trkpt lat="42.7551" lon="1.52993">
        <ele>1492.6</ele>
        <time>2021-09-19T13:15:44Z</time>
      </trkpt>
      <trkpt lat="42.75517" lon="1.52993">
        <ele>1493.2</ele>
        <time>2021-09-19T13:15:50Z</time>
      </trkpt>
      <trkpt lat="42.75521" lon="1.52994">
        <ele>1493.2</ele>
        <time>2021-09-19T13:15:57Z</time>
      </trkpt>
      <trkpt lat="42.75522" lon="1.52994">
        <ele>1493.4</ele>
        <time>2021-09-19T13:15:58Z</time>
      </trkpt>
      <trkpt lat="42.75524" lon="1.52992">
        <ele>1493.6</ele>
        <time>2021-09-19T13:16:01Z</time>
      </trkpt>
      <trkpt lat="42.75529" lon="1.52988">
        <ele>1493.8</ele>
        <time>2021-09-19T13:16:05Z</time>
      </trkpt>
      <trkpt lat="42.75535" lon="1.52984">
        <ele>1494.6</ele>
        <time>2021-09-19T13:16:10Z</time>
      </trkpt>
      <trkpt lat="42.75536" lon="1.52984">
        <ele>1494.8</ele>
        <time>2021-09-19T13:16:11Z</time>
      </trkpt>
      <trkpt lat="42.75537" lon="1.52983">
        <ele>1495</ele>
        <time>2021-09-19T13:16:12Z</time>
      </trkpt>
      <trkpt lat="42.75543" lon="1.52982">
        <ele>1495.6</ele>
        <time>2021-09-19T13:16:18Z</time>
      </trkpt>
      <trkpt lat="42.75545" lon="1.52981">
        <ele>1495.6</ele>
        <time>2021-09-19T13:16:20Z</time>
      </trkpt>
      <trkpt lat="42.75551" lon="1.52981">
        <ele>1495.2</ele>
        <time>2021-09-19T13:16:26Z</time>
      </trkpt>
      <trkpt lat="42.75554" lon="1.52981">
        <ele>1495</ele>
        <time>2021-09-19T13:16:30Z</time>
      </trkpt>
      <trkpt lat="42.75557" lon="1.52983">
        <ele>1495</ele>
        <time>2021-09-19T13:16:33Z</time>
      </trkpt>
      <trkpt lat="42.75564" lon="1.52983">
        <ele>1494.8</ele>
        <time>2021-09-19T13:16:40Z</time>
      </trkpt>
      <trkpt lat="42.75565" lon="1.52983">
        <ele>1495</ele>
        <time>2021-09-19T13:16:42Z</time>
      </trkpt>
      <trkpt lat="42.75567" lon="1.52984">
        <ele>1496</ele>
        <time>2021-09-19T13:16:44Z</time>
      </trkpt>
      <trkpt lat="42.75568" lon="1.52984">
        <ele>1496.2</ele>
        <time>2021-09-19T13:16:45Z</time>
      </trkpt>
      <trkpt lat="42.75573" lon="1.52986">
        <ele>1496.8</ele>
        <time>2021-09-19T13:16:50Z</time>
      </trkpt>
      <trkpt lat="42.75577" lon="1.52988">
        <ele>1497</ele>
        <time>2021-09-19T13:16:55Z</time>
      </trkpt>
      <trkpt lat="42.7558" lon="1.52988">
        <ele>1497.2</ele>
        <time>2021-09-19T13:16:58Z</time>
      </trkpt>
      <trkpt lat="42.7559" lon="1.52992">
        <ele>1497.4</ele>
        <time>2021-09-19T13:17:08Z</time>
      </trkpt>
      <trkpt lat="42.75596" lon="1.52995">
        <ele>1497.4</ele>
        <time>2021-09-19T13:17:15Z</time>
      </trkpt>
      <trkpt lat="42.75599" lon="1.52995">
        <ele>1497</ele>
        <time>2021-09-19T13:17:19Z</time>
      </trkpt>
      <trkpt lat="42.75601" lon="1.52995">
        <ele>1496.8</ele>
        <time>2021-09-19T13:17:21Z</time>
      </trkpt>
      <trkpt lat="42.75613" lon="1.52998">
        <ele>1497</ele>
        <time>2021-09-19T13:17:30Z</time>
      </trkpt>
      <trkpt lat="42.75618" lon="1.52999">
        <ele>1498</ele>
        <time>2021-09-19T13:17:35Z</time>
      </trkpt>
      <trkpt lat="42.75619" lon="1.52999">
        <ele>1498.4</ele>
        <time>2021-09-19T13:17:36Z</time>
      </trkpt>
      <trkpt lat="42.75623" lon="1.53">
        <ele>1499.2</ele>
        <time>2021-09-19T13:17:39Z</time>
      </trkpt>
      <trkpt lat="42.75627" lon="1.53003">
        <ele>1499.2</ele>
        <time>2021-09-19T13:17:45Z</time>
      </trkpt>
      <trkpt lat="42.75628" lon="1.53003">
        <ele>1499.6</ele>
        <time>2021-09-19T13:17:46Z</time>
      </trkpt>
      <trkpt lat="42.75629" lon="1.53003">
        <ele>1499.6</ele>
        <time>2021-09-19T13:17:47Z</time>
      </trkpt>
      <trkpt lat="42.7563" lon="1.53003">
        <ele>1499.8</ele>
        <time>2021-09-19T13:17:48Z</time>
      </trkpt>
      <trkpt lat="42.75641" lon="1.53006">
        <ele>1500.4</ele>
        <time>2021-09-19T13:17:58Z</time>
      </trkpt>
      <trkpt lat="42.75641" lon="1.53007">
        <ele>1500.6</ele>
        <time>2021-09-19T13:17:59Z</time>
      </trkpt>
      <trkpt lat="42.75648" lon="1.53011">
        <ele>1500.8</ele>
        <time>2021-09-19T13:18:06Z</time>
      </trkpt>
      <trkpt lat="42.75656" lon="1.53018">
        <ele>1501.4</ele>
        <time>2021-09-19T13:18:14Z</time>
      </trkpt>
      <trkpt lat="42.7566" lon="1.53021">
        <ele>1501</ele>
        <time>2021-09-19T13:18:20Z</time>
      </trkpt>
      <trkpt lat="42.75666" lon="1.53024">
        <ele>1500.2</ele>
        <time>2021-09-19T13:18:27Z</time>
      </trkpt>
      <trkpt lat="42.7567" lon="1.53025">
        <ele>1499.8</ele>
        <time>2021-09-19T13:18:31Z</time>
      </trkpt>
      <trkpt lat="42.75671" lon="1.53025">
        <ele>1499.6</ele>
        <time>2021-09-19T13:18:33Z</time>
      </trkpt>
      <trkpt lat="42.75672" lon="1.53025">
        <ele>1499.6</ele>
        <time>2021-09-19T13:18:34Z</time>
      </trkpt>
      <trkpt lat="42.75672" lon="1.53026">
        <ele>1499.4</ele>
        <time>2021-09-19T13:18:35Z</time>
      </trkpt>
      <trkpt lat="42.75674" lon="1.53027">
        <ele>1499.4</ele>
        <time>2021-09-19T13:18:37Z</time>
      </trkpt>
      <trkpt lat="42.75679" lon="1.53028">
        <ele>1499</ele>
        <time>2021-09-19T13:18:42Z</time>
      </trkpt>
      <trkpt lat="42.7568" lon="1.53028">
        <ele>1498.8</ele>
        <time>2021-09-19T13:18:43Z</time>
      </trkpt>
      <trkpt lat="42.75682" lon="1.53028">
        <ele>1498.6</ele>
        <time>2021-09-19T13:18:45Z</time>
      </trkpt>
      <trkpt lat="42.75685" lon="1.53028">
        <ele>1498.2</ele>
        <time>2021-09-19T13:18:47Z</time>
      </trkpt>
      <trkpt lat="42.75688" lon="1.53029">
        <ele>1498.2</ele>
        <time>2021-09-19T13:18:50Z</time>
      </trkpt>
      <trkpt lat="42.7569" lon="1.53029">
        <ele>1498.2</ele>
        <time>2021-09-19T13:18:53Z</time>
      </trkpt>
      <trkpt lat="42.75691" lon="1.53029">
        <ele>1498.2</ele>
        <time>2021-09-19T13:18:55Z</time>
      </trkpt>
      <trkpt lat="42.75692" lon="1.53029">
        <ele>1498</ele>
        <time>2021-09-19T13:18:56Z</time>
      </trkpt>
      <trkpt lat="42.75695" lon="1.5303">
        <ele>1497.4</ele>
        <time>2021-09-19T13:18:59Z</time>
      </trkpt>
      <trkpt lat="42.75696" lon="1.5303">
        <ele>1497.4</ele>
        <time>2021-09-19T13:19:00Z</time>
      </trkpt>
      <trkpt lat="42.75699" lon="1.53031">
        <ele>1497</ele>
        <time>2021-09-19T13:19:03Z</time>
      </trkpt>
      <trkpt lat="42.75703" lon="1.53033">
        <ele>1496.6</ele>
        <time>2021-09-19T13:19:07Z</time>
      </trkpt>
      <trkpt lat="42.75705" lon="1.53034">
        <ele>1496.4</ele>
        <time>2021-09-19T13:19:09Z</time>
      </trkpt>
      <trkpt lat="42.75706" lon="1.53034">
        <ele>1496.4</ele>
        <time>2021-09-19T13:19:10Z</time>
      </trkpt>
      <trkpt lat="42.75712" lon="1.53034">
        <ele>1495.6</ele>
        <time>2021-09-19T13:19:15Z</time>
      </trkpt>
      <trkpt lat="42.75715" lon="1.53034">
        <ele>1495.4</ele>
        <time>2021-09-19T13:19:17Z</time>
      </trkpt>
      <trkpt lat="42.75723" lon="1.53036">
        <ele>1494.4</ele>
        <time>2021-09-19T13:19:25Z</time>
      </trkpt>
      <trkpt lat="42.75724" lon="1.53036">
        <ele>1494.2</ele>
        <time>2021-09-19T13:19:26Z</time>
      </trkpt>
      <trkpt lat="42.75731" lon="1.53037">
        <ele>1493.2</ele>
        <time>2021-09-19T13:19:33Z</time>
      </trkpt>
      <trkpt lat="42.75732" lon="1.53037">
        <ele>1492.8</ele>
        <time>2021-09-19T13:19:34Z</time>
      </trkpt>
      <trkpt lat="42.7574" lon="1.53038">
        <ele>1492.2</ele>
        <time>2021-09-19T13:19:43Z</time>
      </trkpt>
      <trkpt lat="42.75741" lon="1.53038">
        <ele>1492.2</ele>
        <time>2021-09-19T13:19:45Z</time>
      </trkpt>
      <trkpt lat="42.75745" lon="1.53039">
        <ele>1491.8</ele>
        <time>2021-09-19T13:19:49Z</time>
      </trkpt>
      <trkpt lat="42.75747" lon="1.53039">
        <ele>1491.6</ele>
        <time>2021-09-19T13:19:51Z</time>
      </trkpt>
      <trkpt lat="42.75751" lon="1.53039">
        <ele>1491.2</ele>
        <time>2021-09-19T13:19:54Z</time>
      </trkpt>
      <trkpt lat="42.75756" lon="1.53038">
        <ele>1490.6</ele>
        <time>2021-09-19T13:19:59Z</time>
      </trkpt>
      <trkpt lat="42.75765" lon="1.5304">
        <ele>1490.2</ele>
        <time>2021-09-19T13:20:07Z</time>
      </trkpt>
      <trkpt lat="42.75769" lon="1.53041">
        <ele>1490</ele>
        <time>2021-09-19T13:20:10Z</time>
      </trkpt>
      <trkpt lat="42.75776" lon="1.53042">
        <ele>1489.2</ele>
        <time>2021-09-19T13:20:16Z</time>
      </trkpt>
      <trkpt lat="42.75778" lon="1.53042">
        <ele>1488.8</ele>
        <time>2021-09-19T13:20:18Z</time>
      </trkpt>
      <trkpt lat="42.75784" lon="1.53042">
        <ele>1488.4</ele>
        <time>2021-09-19T13:20:24Z</time>
      </trkpt>
      <trkpt lat="42.75785" lon="1.53041">
        <ele>1488.4</ele>
        <time>2021-09-19T13:20:25Z</time>
      </trkpt>
      <trkpt lat="42.75789" lon="1.5304">
        <ele>1488</ele>
        <time>2021-09-19T13:20:27Z</time>
      </trkpt>
      <trkpt lat="42.75791" lon="1.53039">
        <ele>1487.8</ele>
        <time>2021-09-19T13:20:29Z</time>
      </trkpt>
      <trkpt lat="42.75795" lon="1.53035">
        <ele>1487.2</ele>
        <time>2021-09-19T13:20:34Z</time>
      </trkpt>
      <trkpt lat="42.75796" lon="1.53034">
        <ele>1487</ele>
        <time>2021-09-19T13:20:35Z</time>
      </trkpt>
      <trkpt lat="42.75798" lon="1.53032">
        <ele>1486.6</ele>
        <time>2021-09-19T13:20:38Z</time>
      </trkpt>
      <trkpt lat="42.758" lon="1.5303">
        <ele>1486.4</ele>
        <time>2021-09-19T13:20:41Z</time>
      </trkpt>
      <trkpt lat="42.75805" lon="1.53025">
        <ele>1486</ele>
        <time>2021-09-19T13:20:46Z</time>
      </trkpt>
      <trkpt lat="42.75806" lon="1.53024">
        <ele>1486</ele>
        <time>2021-09-19T13:20:47Z</time>
      </trkpt>
      <trkpt lat="42.75809" lon="1.53022">
        <ele>1485.4</ele>
        <time>2021-09-19T13:20:51Z</time>
      </trkpt>
      <trkpt lat="42.75811" lon="1.53021">
        <ele>1485</ele>
        <time>2021-09-19T13:20:53Z</time>
      </trkpt>
      <trkpt lat="42.75812" lon="1.53021">
        <ele>1484.8</ele>
        <time>2021-09-19T13:20:54Z</time>
      </trkpt>
      <trkpt lat="42.75813" lon="1.5302">
        <ele>1484.4</ele>
        <time>2021-09-19T13:20:56Z</time>
      </trkpt>
      <trkpt lat="42.75818" lon="1.53018">
        <ele>1484</ele>
        <time>2021-09-19T13:21:01Z</time>
      </trkpt>
      <trkpt lat="42.75821" lon="1.53016">
        <ele>1483.4</ele>
        <time>2021-09-19T13:21:04Z</time>
      </trkpt>
      <trkpt lat="42.75827" lon="1.53011">
        <ele>1482.6</ele>
        <time>2021-09-19T13:21:09Z</time>
      </trkpt>
      <trkpt lat="42.75828" lon="1.5301">
        <ele>1482.4</ele>
        <time>2021-09-19T13:21:10Z</time>
      </trkpt>
      <trkpt lat="42.75829" lon="1.53009">
        <ele>1482.2</ele>
        <time>2021-09-19T13:21:11Z</time>
      </trkpt>
      <trkpt lat="42.7583" lon="1.53006">
        <ele>1482</ele>
        <time>2021-09-19T13:21:14Z</time>
      </trkpt>
      <trkpt lat="42.75833" lon="1.53002">
        <ele>1481.8</ele>
        <time>2021-09-19T13:21:18Z</time>
      </trkpt>
      <trkpt lat="42.75838" lon="1.53">
        <ele>1481.2</ele>
        <time>2021-09-19T13:21:22Z</time>
      </trkpt>
      <trkpt lat="42.7584" lon="1.52999">
        <ele>1481</ele>
        <time>2021-09-19T13:21:24Z</time>
      </trkpt>
      <trkpt lat="42.75842" lon="1.52998">
        <ele>1480.8</ele>
        <time>2021-09-19T13:21:26Z</time>
      </trkpt>
      <trkpt lat="42.75847" lon="1.52995">
        <ele>1480.4</ele>
        <time>2021-09-19T13:21:31Z</time>
      </trkpt>
      <trkpt lat="42.75849" lon="1.52994">
        <ele>1480.2</ele>
        <time>2021-09-19T13:21:32Z</time>
      </trkpt>
      <trkpt lat="42.7585" lon="1.52993">
        <ele>1480</ele>
        <time>2021-09-19T13:21:33Z</time>
      </trkpt>
      <trkpt lat="42.75853" lon="1.52992">
        <ele>1479.8</ele>
        <time>2021-09-19T13:21:36Z</time>
      </trkpt>
      <trkpt lat="42.75855" lon="1.52991">
        <ele>1479.2</ele>
        <time>2021-09-19T13:21:39Z</time>
      </trkpt>
      <trkpt lat="42.75858" lon="1.5299">
        <ele>1478.8</ele>
        <time>2021-09-19T13:21:41Z</time>
      </trkpt>
      <trkpt lat="42.75863" lon="1.52985">
        <ele>1478.8</ele>
        <time>2021-09-19T13:21:48Z</time>
      </trkpt>
      <trkpt lat="42.75866" lon="1.52983">
        <ele>1478.8</ele>
        <time>2021-09-19T13:21:52Z</time>
      </trkpt>
      <trkpt lat="42.7587" lon="1.52978">
        <ele>1478.2</ele>
        <time>2021-09-19T13:21:56Z</time>
      </trkpt>
      <trkpt lat="42.75871" lon="1.52977">
        <ele>1478</ele>
        <time>2021-09-19T13:21:57Z</time>
      </trkpt>
      <trkpt lat="42.75875" lon="1.52967">
        <ele>1477</ele>
        <time>2021-09-19T13:22:04Z</time>
      </trkpt>
      <trkpt lat="42.75875" lon="1.52966">
        <ele>1476.8</ele>
        <time>2021-09-19T13:22:05Z</time>
      </trkpt>
      <trkpt lat="42.75882" lon="1.5296">
        <ele>1476.2</ele>
        <time>2021-09-19T13:22:13Z</time>
      </trkpt>
      <trkpt lat="42.75883" lon="1.52959">
        <ele>1476.2</ele>
        <time>2021-09-19T13:22:14Z</time>
      </trkpt>
      <trkpt lat="42.75885" lon="1.52958">
        <ele>1475.8</ele>
        <time>2021-09-19T13:22:16Z</time>
      </trkpt>
      <trkpt lat="42.7589" lon="1.52953">
        <ele>1475.6</ele>
        <time>2021-09-19T13:22:22Z</time>
      </trkpt>
      <trkpt lat="42.75894" lon="1.52949">
        <ele>1475</ele>
        <time>2021-09-19T13:22:26Z</time>
      </trkpt>
      <trkpt lat="42.75895" lon="1.52947">
        <ele>1474.8</ele>
        <time>2021-09-19T13:22:28Z</time>
      </trkpt>
      <trkpt lat="42.75896" lon="1.52946">
        <ele>1474.6</ele>
        <time>2021-09-19T13:22:29Z</time>
      </trkpt>
      <trkpt lat="42.75898" lon="1.52943">
        <ele>1474.4</ele>
        <time>2021-09-19T13:22:32Z</time>
      </trkpt>
      <trkpt lat="42.75901" lon="1.52938">
        <ele>1473.6</ele>
        <time>2021-09-19T13:22:37Z</time>
      </trkpt>
      <trkpt lat="42.75903" lon="1.52936">
        <ele>1473.6</ele>
        <time>2021-09-19T13:22:39Z</time>
      </trkpt>
      <trkpt lat="42.75906" lon="1.52933">
        <ele>1473.2</ele>
        <time>2021-09-19T13:22:42Z</time>
      </trkpt>
      <trkpt lat="42.75913" lon="1.52931">
        <ele>1472.6</ele>
        <time>2021-09-19T13:22:47Z</time>
      </trkpt>
      <trkpt lat="42.75915" lon="1.5293">
        <ele>1472</ele>
        <time>2021-09-19T13:22:49Z</time>
      </trkpt>
      <trkpt lat="42.75922" lon="1.52929">
        <ele>1471.6</ele>
        <time>2021-09-19T13:22:54Z</time>
      </trkpt>
      <trkpt lat="42.75926" lon="1.52929">
        <ele>1471.4</ele>
        <time>2021-09-19T13:22:57Z</time>
      </trkpt>
      <trkpt lat="42.7593" lon="1.52928">
        <ele>1470.8</ele>
        <time>2021-09-19T13:23:03Z</time>
      </trkpt>
      <trkpt lat="42.75932" lon="1.52928">
        <ele>1470.8</ele>
        <time>2021-09-19T13:23:05Z</time>
      </trkpt>
      <trkpt lat="42.75932" lon="1.52928">
        <ele>1470.8</ele>
        <time>2021-09-19T13:23:06Z</time>
      </trkpt>
      <trkpt lat="42.75937" lon="1.52929">
        <ele>1470.6</ele>
        <time>2021-09-19T13:23:10Z</time>
      </trkpt>
      <trkpt lat="42.75938" lon="1.5293">
        <ele>1470.2</ele>
        <time>2021-09-19T13:23:11Z</time>
      </trkpt>
      <trkpt lat="42.75942" lon="1.52934">
        <ele>1469.6</ele>
        <time>2021-09-19T13:23:15Z</time>
      </trkpt>
      <trkpt lat="42.75946" lon="1.52938">
        <ele>1469</ele>
        <time>2021-09-19T13:23:19Z</time>
      </trkpt>
      <trkpt lat="42.75949" lon="1.52941">
        <ele>1468.4</ele>
        <time>2021-09-19T13:23:23Z</time>
      </trkpt>
      <trkpt lat="42.75951" lon="1.52945">
        <ele>1467.8</ele>
        <time>2021-09-19T13:23:27Z</time>
      </trkpt>
      <trkpt lat="42.75952" lon="1.52947">
        <ele>1467.4</ele>
        <time>2021-09-19T13:23:29Z</time>
      </trkpt>
      <trkpt lat="42.75956" lon="1.52955">
        <ele>1466.4</ele>
        <time>2021-09-19T13:23:35Z</time>
      </trkpt>
      <trkpt lat="42.75958" lon="1.52958">
        <ele>1466.2</ele>
        <time>2021-09-19T13:23:38Z</time>
      </trkpt>
      <trkpt lat="42.75965" lon="1.52963">
        <ele>1465.8</ele>
        <time>2021-09-19T13:23:43Z</time>
      </trkpt>
      <trkpt lat="42.75968" lon="1.52965">
        <ele>1465.8</ele>
        <time>2021-09-19T13:23:45Z</time>
      </trkpt>
      <trkpt lat="42.75971" lon="1.52968">
        <ele>1465.4</ele>
        <time>2021-09-19T13:23:49Z</time>
      </trkpt>
      <trkpt lat="42.75973" lon="1.5297">
        <ele>1465.2</ele>
        <time>2021-09-19T13:23:51Z</time>
      </trkpt>
      <trkpt lat="42.75973" lon="1.5297">
        <ele>1465</ele>
        <time>2021-09-19T13:23:52Z</time>
      </trkpt>
      <trkpt lat="42.75974" lon="1.52971">
        <ele>1464.8</ele>
        <time>2021-09-19T13:23:53Z</time>
      </trkpt>
      <trkpt lat="42.75974" lon="1.52972">
        <ele>1464.6</ele>
        <time>2021-09-19T13:23:54Z</time>
      </trkpt>
      <trkpt lat="42.75979" lon="1.52974">
        <ele>1464.2</ele>
        <time>2021-09-19T13:23:58Z</time>
      </trkpt>
      <trkpt lat="42.7598" lon="1.52975">
        <ele>1464</ele>
        <time>2021-09-19T13:23:59Z</time>
      </trkpt>
      <trkpt lat="42.75985" lon="1.52979">
        <ele>1463.4</ele>
        <time>2021-09-19T13:24:04Z</time>
      </trkpt>
      <trkpt lat="42.75987" lon="1.52981">
        <ele>1463</ele>
        <time>2021-09-19T13:24:06Z</time>
      </trkpt>
      <trkpt lat="42.7599" lon="1.52984">
        <ele>1462.8</ele>
        <time>2021-09-19T13:24:09Z</time>
      </trkpt>
      <trkpt lat="42.75997" lon="1.52991">
        <ele>1462.2</ele>
        <time>2021-09-19T13:24:17Z</time>
      </trkpt>
      <trkpt lat="42.75998" lon="1.52992">
        <ele>1462.2</ele>
        <time>2021-09-19T13:24:18Z</time>
      </trkpt>
      <trkpt lat="42.75998" lon="1.52993">
        <ele>1462</ele>
        <time>2021-09-19T13:24:19Z</time>
      </trkpt>
      <trkpt lat="42.76005" lon="1.53">
        <ele>1461</ele>
        <time>2021-09-19T13:24:26Z</time>
      </trkpt>
      <trkpt lat="42.76013" lon="1.53005">
        <ele>1460.4</ele>
        <time>2021-09-19T13:24:34Z</time>
      </trkpt>
      <trkpt lat="42.76014" lon="1.53006">
        <ele>1460.2</ele>
        <time>2021-09-19T13:24:35Z</time>
      </trkpt>
      <trkpt lat="42.76015" lon="1.53006">
        <ele>1459.8</ele>
        <time>2021-09-19T13:24:37Z</time>
      </trkpt>
      <trkpt lat="42.76017" lon="1.53008">
        <ele>1459.6</ele>
        <time>2021-09-19T13:24:39Z</time>
      </trkpt>
      <trkpt lat="42.76019" lon="1.5301">
        <ele>1459.2</ele>
        <time>2021-09-19T13:24:42Z</time>
      </trkpt>
      <trkpt lat="42.76022" lon="1.53014">
        <ele>1459</ele>
        <time>2021-09-19T13:24:46Z</time>
      </trkpt>
      <trkpt lat="42.76022" lon="1.53015">
        <ele>1458.8</ele>
        <time>2021-09-19T13:24:47Z</time>
      </trkpt>
      <trkpt lat="42.76024" lon="1.53017">
        <ele>1458.4</ele>
        <time>2021-09-19T13:24:49Z</time>
      </trkpt>
      <trkpt lat="42.76029" lon="1.53021">
        <ele>1457.6</ele>
        <time>2021-09-19T13:24:54Z</time>
      </trkpt>
      <trkpt lat="42.76032" lon="1.53022">
        <ele>1457.2</ele>
        <time>2021-09-19T13:24:57Z</time>
      </trkpt>
      <trkpt lat="42.76034" lon="1.53024">
        <ele>1457</ele>
        <time>2021-09-19T13:25:00Z</time>
      </trkpt>
      <trkpt lat="42.76038" lon="1.53026">
        <ele>1456.6</ele>
        <time>2021-09-19T13:25:04Z</time>
      </trkpt>
      <trkpt lat="42.76039" lon="1.53026">
        <ele>1456.6</ele>
        <time>2021-09-19T13:25:05Z</time>
      </trkpt>
      <trkpt lat="42.76046" lon="1.53032">
        <ele>1456</ele>
        <time>2021-09-19T13:25:12Z</time>
      </trkpt>
      <trkpt lat="42.76048" lon="1.53032">
        <ele>1455.8</ele>
        <time>2021-09-19T13:25:13Z</time>
      </trkpt>
      <trkpt lat="42.7605" lon="1.53033">
        <ele>1455.6</ele>
        <time>2021-09-19T13:25:15Z</time>
      </trkpt>
      <trkpt lat="42.76051" lon="1.53034">
        <ele>1455.4</ele>
        <time>2021-09-19T13:25:16Z</time>
      </trkpt>
      <trkpt lat="42.76056" lon="1.53036">
        <ele>1455</ele>
        <time>2021-09-19T13:25:20Z</time>
      </trkpt>
      <trkpt lat="42.76056" lon="1.53038">
        <ele>1454.8</ele>
        <time>2021-09-19T13:25:21Z</time>
      </trkpt>
      <trkpt lat="42.76058" lon="1.5304">
        <ele>1454.6</ele>
        <time>2021-09-19T13:25:24Z</time>
      </trkpt>
      <trkpt lat="42.76058" lon="1.53041">
        <ele>1454.4</ele>
        <time>2021-09-19T13:25:25Z</time>
      </trkpt>
      <trkpt lat="42.76063" lon="1.53044">
        <ele>1453.8</ele>
        <time>2021-09-19T13:25:30Z</time>
      </trkpt>
      <trkpt lat="42.76064" lon="1.53045">
        <ele>1453.6</ele>
        <time>2021-09-19T13:25:31Z</time>
      </trkpt>
      <trkpt lat="42.76067" lon="1.53046">
        <ele>1453.4</ele>
        <time>2021-09-19T13:25:34Z</time>
      </trkpt>
      <trkpt lat="42.7607" lon="1.53047">
        <ele>1453.4</ele>
        <time>2021-09-19T13:25:36Z</time>
      </trkpt>
      <trkpt lat="42.76077" lon="1.53051">
        <ele>1452.8</ele>
        <time>2021-09-19T13:25:43Z</time>
      </trkpt>
      <trkpt lat="42.76079" lon="1.53052">
        <ele>1452.4</ele>
        <time>2021-09-19T13:25:45Z</time>
      </trkpt>
      <trkpt lat="42.76083" lon="1.53055">
        <ele>1451.8</ele>
        <time>2021-09-19T13:25:50Z</time>
      </trkpt>
      <trkpt lat="42.76084" lon="1.53056">
        <ele>1451.8</ele>
        <time>2021-09-19T13:25:51Z</time>
      </trkpt>
      <trkpt lat="42.76086" lon="1.53057">
        <ele>1451.2</ele>
        <time>2021-09-19T13:25:54Z</time>
      </trkpt>
      <trkpt lat="42.76086" lon="1.53058">
        <ele>1451.2</ele>
        <time>2021-09-19T13:25:55Z</time>
      </trkpt>
      <trkpt lat="42.76092" lon="1.53061">
        <ele>1450.4</ele>
        <time>2021-09-19T13:26:00Z</time>
      </trkpt>
      <trkpt lat="42.76095" lon="1.53062">
        <ele>1450.2</ele>
        <time>2021-09-19T13:26:03Z</time>
      </trkpt>
      <trkpt lat="42.76096" lon="1.53063">
        <ele>1450.2</ele>
        <time>2021-09-19T13:26:04Z</time>
      </trkpt>
      <trkpt lat="42.76101" lon="1.53066">
        <ele>1449.2</ele>
        <time>2021-09-19T13:26:09Z</time>
      </trkpt>
      <trkpt lat="42.76102" lon="1.53067">
        <ele>1449.2</ele>
        <time>2021-09-19T13:26:10Z</time>
      </trkpt>
      <trkpt lat="42.76109" lon="1.53071">
        <ele>1448.2</ele>
        <time>2021-09-19T13:26:17Z</time>
      </trkpt>
      <trkpt lat="42.76111" lon="1.53073">
        <ele>1448</ele>
        <time>2021-09-19T13:26:19Z</time>
      </trkpt>
      <trkpt lat="42.76115" lon="1.53073">
        <ele>1447.6</ele>
        <time>2021-09-19T13:26:23Z</time>
      </trkpt>
      <trkpt lat="42.76117" lon="1.53074">
        <ele>1447.2</ele>
        <time>2021-09-19T13:26:26Z</time>
      </trkpt>
      <trkpt lat="42.76119" lon="1.53075">
        <ele>1447</ele>
        <time>2021-09-19T13:26:28Z</time>
      </trkpt>
      <trkpt lat="42.7612" lon="1.53076">
        <ele>1447</ele>
        <time>2021-09-19T13:26:29Z</time>
      </trkpt>
      <trkpt lat="42.76122" lon="1.53076">
        <ele>1447</ele>
        <time>2021-09-19T13:26:30Z</time>
      </trkpt>
      <trkpt lat="42.76123" lon="1.53077">
        <ele>1446.8</ele>
        <time>2021-09-19T13:26:31Z</time>
      </trkpt>
      <trkpt lat="42.76129" lon="1.5308">
        <ele>1446</ele>
        <time>2021-09-19T13:26:36Z</time>
      </trkpt>
      <trkpt lat="42.76131" lon="1.53082">
        <ele>1445.6</ele>
        <time>2021-09-19T13:26:38Z</time>
      </trkpt>
      <trkpt lat="42.76136" lon="1.53083">
        <ele>1445.2</ele>
        <time>2021-09-19T13:26:42Z</time>
      </trkpt>
      <trkpt lat="42.76137" lon="1.53084">
        <ele>1444.8</ele>
        <time>2021-09-19T13:26:44Z</time>
      </trkpt>
      <trkpt lat="42.7614" lon="1.53086">
        <ele>1444.4</ele>
        <time>2021-09-19T13:26:47Z</time>
      </trkpt>
      <trkpt lat="42.76142" lon="1.53086">
        <ele>1444.2</ele>
        <time>2021-09-19T13:26:49Z</time>
      </trkpt>
      <trkpt lat="42.76145" lon="1.53086">
        <ele>1443.8</ele>
        <time>2021-09-19T13:26:52Z</time>
      </trkpt>
      <trkpt lat="42.76146" lon="1.53086">
        <ele>1443.6</ele>
        <time>2021-09-19T13:26:53Z</time>
      </trkpt>
      <trkpt lat="42.76147" lon="1.53086">
        <ele>1443.4</ele>
        <time>2021-09-19T13:26:54Z</time>
      </trkpt>
      <trkpt lat="42.76154" lon="1.53088">
        <ele>1443</ele>
        <time>2021-09-19T13:27:00Z</time>
      </trkpt>
      <trkpt lat="42.76155" lon="1.53088">
        <ele>1443</ele>
        <time>2021-09-19T13:27:01Z</time>
      </trkpt>
      <trkpt lat="42.76159" lon="1.53089">
        <ele>1442.4</ele>
        <time>2021-09-19T13:27:04Z</time>
      </trkpt>
      <trkpt lat="42.76161" lon="1.53091">
        <ele>1442</ele>
        <time>2021-09-19T13:27:06Z</time>
      </trkpt>
      <trkpt lat="42.76166" lon="1.53091">
        <ele>1441.2</ele>
        <time>2021-09-19T13:27:10Z</time>
      </trkpt>
      <trkpt lat="42.76169" lon="1.53091">
        <ele>1441</ele>
        <time>2021-09-19T13:27:12Z</time>
      </trkpt>
      <trkpt lat="42.7617" lon="1.53091">
        <ele>1440.8</ele>
        <time>2021-09-19T13:27:13Z</time>
      </trkpt>
      <trkpt lat="42.76174" lon="1.5309">
        <ele>1440.2</ele>
        <time>2021-09-19T13:27:16Z</time>
      </trkpt>
      <trkpt lat="42.76177" lon="1.53091">
        <ele>1439.8</ele>
        <time>2021-09-19T13:27:20Z</time>
      </trkpt>
      <trkpt lat="42.76179" lon="1.5309">
        <ele>1439.6</ele>
        <time>2021-09-19T13:27:22Z</time>
      </trkpt>
      <trkpt lat="42.7618" lon="1.5309">
        <ele>1439.6</ele>
        <time>2021-09-19T13:27:23Z</time>
      </trkpt>
      <trkpt lat="42.76183" lon="1.5309">
        <ele>1439.2</ele>
        <time>2021-09-19T13:27:27Z</time>
      </trkpt>
      <trkpt lat="42.76185" lon="1.5309">
        <ele>1439</ele>
        <time>2021-09-19T13:27:29Z</time>
      </trkpt>
      <trkpt lat="42.7619" lon="1.53089">
        <ele>1438.4</ele>
        <time>2021-09-19T13:27:34Z</time>
      </trkpt>
      <trkpt lat="42.76193" lon="1.53088">
        <ele>1438.2</ele>
        <time>2021-09-19T13:27:36Z</time>
      </trkpt>
      <trkpt lat="42.76194" lon="1.53087">
        <ele>1438</ele>
        <time>2021-09-19T13:27:37Z</time>
      </trkpt>
      <trkpt lat="42.76195" lon="1.53087">
        <ele>1438</ele>
        <time>2021-09-19T13:27:38Z</time>
      </trkpt>
      <trkpt lat="42.76204" lon="1.53083">
        <ele>1437</ele>
        <time>2021-09-19T13:27:45Z</time>
      </trkpt>
      <trkpt lat="42.76205" lon="1.53083">
        <ele>1437</ele>
        <time>2021-09-19T13:27:46Z</time>
      </trkpt>
      <trkpt lat="42.76213" lon="1.53081">
        <ele>1436.4</ele>
        <time>2021-09-19T13:27:53Z</time>
      </trkpt>
      <trkpt lat="42.76221" lon="1.53077">
        <ele>1436.2</ele>
        <time>2021-09-19T13:28:01Z</time>
      </trkpt>
      <trkpt lat="42.76227" lon="1.53074">
        <ele>1436.2</ele>
        <time>2021-09-19T13:28:08Z</time>
      </trkpt>
      <trkpt lat="42.76228" lon="1.53074">
        <ele>1436.2</ele>
        <time>2021-09-19T13:28:09Z</time>
      </trkpt>
      <trkpt lat="42.7623" lon="1.53073">
        <ele>1436.2</ele>
        <time>2021-09-19T13:28:11Z</time>
      </trkpt>
      <trkpt lat="42.76232" lon="1.53072">
        <ele>1436.2</ele>
        <time>2021-09-19T13:28:13Z</time>
      </trkpt>
      <trkpt lat="42.7624" lon="1.5307">
        <ele>1436.2</ele>
        <time>2021-09-19T13:28:19Z</time>
      </trkpt>
      <trkpt lat="42.76241" lon="1.5307">
        <ele>1435.8</ele>
        <time>2021-09-19T13:28:21Z</time>
      </trkpt>
      <trkpt lat="42.76243" lon="1.5307">
        <ele>1435.6</ele>
        <time>2021-09-19T13:28:23Z</time>
      </trkpt>
      <trkpt lat="42.76243" lon="1.5307">
        <ele>1435.4</ele>
        <time>2021-09-19T13:28:25Z</time>
      </trkpt>
      <trkpt lat="42.76244" lon="1.53069">
        <ele>1435</ele>
        <time>2021-09-19T13:28:27Z</time>
      </trkpt>
      <trkpt lat="42.76245" lon="1.53066">
        <ele>1434.8</ele>
        <time>2021-09-19T13:28:30Z</time>
      </trkpt>
      <trkpt lat="42.76246" lon="1.53065">
        <ele>1434.8</ele>
        <time>2021-09-19T13:28:32Z</time>
      </trkpt>
      <trkpt lat="42.76246" lon="1.53064">
        <ele>1434.8</ele>
        <time>2021-09-19T13:28:33Z</time>
      </trkpt>
      <trkpt lat="42.76248" lon="1.53061">
        <ele>1434.2</ele>
        <time>2021-09-19T13:28:38Z</time>
      </trkpt>
      <trkpt lat="42.76248" lon="1.5306">
        <ele>1433.6</ele>
        <time>2021-09-19T13:28:39Z</time>
      </trkpt>
      <trkpt lat="42.76249" lon="1.53059">
        <ele>1433.4</ele>
        <time>2021-09-19T13:28:40Z</time>
      </trkpt>
      <trkpt lat="42.7625" lon="1.53056">
        <ele>1432.6</ele>
        <time>2021-09-19T13:28:43Z</time>
      </trkpt>
      <trkpt lat="42.76253" lon="1.53053">
        <ele>1431.8</ele>
        <time>2021-09-19T13:28:47Z</time>
      </trkpt>
      <trkpt lat="42.76253" lon="1.53052">
        <ele>1431.4</ele>
        <time>2021-09-19T13:28:48Z</time>
      </trkpt>
      <trkpt lat="42.76253" lon="1.53052">
        <ele>1431.2</ele>
        <time>2021-09-19T13:28:49Z</time>
      </trkpt>
      <trkpt lat="42.76253" lon="1.5305">
        <ele>1431</ele>
        <time>2021-09-19T13:28:51Z</time>
      </trkpt>
      <trkpt lat="42.76253" lon="1.53049">
        <ele>1430.6</ele>
        <time>2021-09-19T13:28:52Z</time>
      </trkpt>
      <trkpt lat="42.76253" lon="1.53048">
        <ele>1430.4</ele>
        <time>2021-09-19T13:28:53Z</time>
      </trkpt>
      <trkpt lat="42.76254" lon="1.53046">
        <ele>1430</ele>
        <time>2021-09-19T13:28:55Z</time>
      </trkpt>
      <trkpt lat="42.76254" lon="1.53044">
        <ele>1429.2</ele>
        <time>2021-09-19T13:28:57Z</time>
      </trkpt>
      <trkpt lat="42.76256" lon="1.53039">
        <ele>1428.2</ele>
        <time>2021-09-19T13:29:02Z</time>
      </trkpt>
      <trkpt lat="42.76256" lon="1.53038">
        <ele>1428</ele>
        <time>2021-09-19T13:29:03Z</time>
      </trkpt>
      <trkpt lat="42.76256" lon="1.53036">
        <ele>1427.2</ele>
        <time>2021-09-19T13:29:08Z</time>
      </trkpt>
      <trkpt lat="42.76256" lon="1.53035">
        <ele>1427</ele>
        <time>2021-09-19T13:29:09Z</time>
      </trkpt>
      <trkpt lat="42.76256" lon="1.53034">
        <ele>1426.8</ele>
        <time>2021-09-19T13:29:15Z</time>
      </trkpt>
      <trkpt lat="42.76258" lon="1.53034">
        <ele>1426.2</ele>
        <time>2021-09-19T13:29:19Z</time>
      </trkpt>
      <trkpt lat="42.76259" lon="1.53035">
        <ele>1425.8</ele>
        <time>2021-09-19T13:29:23Z</time>
      </trkpt>
      <trkpt lat="42.7626" lon="1.53033">
        <ele>1425</ele>
        <time>2021-09-19T13:29:26Z</time>
      </trkpt>
      <trkpt lat="42.76261" lon="1.53032">
        <ele>1424.8</ele>
        <time>2021-09-19T13:29:27Z</time>
      </trkpt>
      <trkpt lat="42.76263" lon="1.53027">
        <ele>1424.4</ele>
        <time>2021-09-19T13:29:31Z</time>
      </trkpt>
      <trkpt lat="42.76263" lon="1.53026">
        <ele>1424</ele>
        <time>2021-09-19T13:29:33Z</time>
      </trkpt>
      <trkpt lat="42.76263" lon="1.53026">
        <ele>1424</ele>
        <time>2021-09-19T13:29:34Z</time>
      </trkpt>
      <trkpt lat="42.76265" lon="1.53026">
        <ele>1423.8</ele>
        <time>2021-09-19T13:29:37Z</time>
      </trkpt>
      <trkpt lat="42.76267" lon="1.53026">
        <ele>1423.6</ele>
        <time>2021-09-19T13:29:39Z</time>
      </trkpt>
      <trkpt lat="42.76269" lon="1.53023">
        <ele>1422.8</ele>
        <time>2021-09-19T13:29:46Z</time>
      </trkpt>
      <trkpt lat="42.76267" lon="1.53018">
        <ele>1422.8</ele>
        <time>2021-09-19T13:29:52Z</time>
      </trkpt>
      <trkpt lat="42.7627" lon="1.53014">
        <ele>1422</ele>
        <time>2021-09-19T13:29:58Z</time>
      </trkpt>
      <trkpt lat="42.76271" lon="1.53013">
        <ele>1421.4</ele>
        <time>2021-09-19T13:30:00Z</time>
      </trkpt>
      <trkpt lat="42.76272" lon="1.53012">
        <ele>1421</ele>
        <time>2021-09-19T13:30:01Z</time>
      </trkpt>
      <trkpt lat="42.76272" lon="1.5301">
        <ele>1420.6</ele>
        <time>2021-09-19T13:30:03Z</time>
      </trkpt>
      <trkpt lat="42.76274" lon="1.53008">
        <ele>1420.2</ele>
        <time>2021-09-19T13:30:06Z</time>
      </trkpt>
      <trkpt lat="42.76276" lon="1.53007">
        <ele>1419</ele>
        <time>2021-09-19T13:30:10Z</time>
      </trkpt>
      <trkpt lat="42.76278" lon="1.53006">
        <ele>1418.2</ele>
        <time>2021-09-19T13:30:13Z</time>
      </trkpt>
      <trkpt lat="42.76278" lon="1.53005">
        <ele>1418</ele>
        <time>2021-09-19T13:30:14Z</time>
      </trkpt>
      <trkpt lat="42.76278" lon="1.53004">
        <ele>1417.6</ele>
        <time>2021-09-19T13:30:15Z</time>
      </trkpt>
      <trkpt lat="42.76278" lon="1.53002">
        <ele>1416.8</ele>
        <time>2021-09-19T13:30:19Z</time>
      </trkpt>
      <trkpt lat="42.76278" lon="1.53001">
        <ele>1416.8</ele>
        <time>2021-09-19T13:30:21Z</time>
      </trkpt>
      <trkpt lat="42.76279" lon="1.52999">
        <ele>1416.6</ele>
        <time>2021-09-19T13:30:23Z</time>
      </trkpt>
      <trkpt lat="42.76279" lon="1.52995">
        <ele>1415.6</ele>
        <time>2021-09-19T13:30:27Z</time>
      </trkpt>
      <trkpt lat="42.76281" lon="1.52988">
        <ele>1414.4</ele>
        <time>2021-09-19T13:30:31Z</time>
      </trkpt>
      <trkpt lat="42.76282" lon="1.52985">
        <ele>1413.2</ele>
        <time>2021-09-19T13:30:33Z</time>
      </trkpt>
      <trkpt lat="42.76284" lon="1.52981">
        <ele>1411.8</ele>
        <time>2021-09-19T13:30:36Z</time>
      </trkpt>
      <trkpt lat="42.76286" lon="1.52978">
        <ele>1411.4</ele>
        <time>2021-09-19T13:30:38Z</time>
      </trkpt>
      <trkpt lat="42.76286" lon="1.52977">
        <ele>1411.4</ele>
        <time>2021-09-19T13:30:39Z</time>
      </trkpt>
      <trkpt lat="42.76287" lon="1.52976">
        <ele>1411.2</ele>
        <time>2021-09-19T13:30:41Z</time>
      </trkpt>
      <trkpt lat="42.76288" lon="1.52973">
        <ele>1410.8</ele>
        <time>2021-09-19T13:30:44Z</time>
      </trkpt>
      <trkpt lat="42.76288" lon="1.52972">
        <ele>1410.4</ele>
        <time>2021-09-19T13:30:45Z</time>
      </trkpt>
      <trkpt lat="42.76291" lon="1.5297">
        <ele>1409.6</ele>
        <time>2021-09-19T13:30:49Z</time>
      </trkpt>
      <trkpt lat="42.76291" lon="1.52968">
        <ele>1409</ele>
        <time>2021-09-19T13:30:52Z</time>
      </trkpt>
      <trkpt lat="42.76291" lon="1.52967">
        <ele>1408.6</ele>
        <time>2021-09-19T13:30:53Z</time>
      </trkpt>
      <trkpt lat="42.76292" lon="1.52964">
        <ele>1407.4</ele>
        <time>2021-09-19T13:30:57Z</time>
      </trkpt>
      <trkpt lat="42.76292" lon="1.5296">
        <ele>1406.2</ele>
        <time>2021-09-19T13:31:01Z</time>
      </trkpt>
      <trkpt lat="42.76295" lon="1.52957">
        <ele>1404.8</ele>
        <time>2021-09-19T13:31:04Z</time>
      </trkpt>
      <trkpt lat="42.76296" lon="1.52956">
        <ele>1403.8</ele>
        <time>2021-09-19T13:31:06Z</time>
      </trkpt>
      <trkpt lat="42.76296" lon="1.52956">
        <ele>1403.6</ele>
        <time>2021-09-19T13:31:07Z</time>
      </trkpt>
      <trkpt lat="42.763" lon="1.52955">
        <ele>1403.4</ele>
        <time>2021-09-19T13:31:10Z</time>
      </trkpt>
      <trkpt lat="42.76302" lon="1.52954">
        <ele>1403.2</ele>
        <time>2021-09-19T13:31:12Z</time>
      </trkpt>
      <trkpt lat="42.76303" lon="1.52953">
        <ele>1403</ele>
        <time>2021-09-19T13:31:13Z</time>
      </trkpt>
      <trkpt lat="42.76303" lon="1.52953">
        <ele>1402.8</ele>
        <time>2021-09-19T13:31:14Z</time>
      </trkpt>
      <trkpt lat="42.76305" lon="1.52951">
        <ele>1402.6</ele>
        <time>2021-09-19T13:31:15Z</time>
      </trkpt>
      <trkpt lat="42.76307" lon="1.52948">
        <ele>1401.8</ele>
        <time>2021-09-19T13:31:18Z</time>
      </trkpt>
      <trkpt lat="42.76308" lon="1.52947">
        <ele>1401.6</ele>
        <time>2021-09-19T13:31:19Z</time>
      </trkpt>
      <trkpt lat="42.76308" lon="1.52947">
        <ele>1401.4</ele>
        <time>2021-09-19T13:31:20Z</time>
      </trkpt>
      <trkpt lat="42.76308" lon="1.52944">
        <ele>1401.4</ele>
        <time>2021-09-19T13:31:22Z</time>
      </trkpt>
      <trkpt lat="42.7631" lon="1.52939">
        <ele>1400.6</ele>
        <time>2021-09-19T13:31:26Z</time>
      </trkpt>
      <trkpt lat="42.76311" lon="1.52938">
        <ele>1400.4</ele>
        <time>2021-09-19T13:31:27Z</time>
      </trkpt>
      <trkpt lat="42.76312" lon="1.52936">
        <ele>1400.2</ele>
        <time>2021-09-19T13:31:29Z</time>
      </trkpt>
      <trkpt lat="42.76313" lon="1.52935">
        <ele>1400</ele>
        <time>2021-09-19T13:31:30Z</time>
      </trkpt>
      <trkpt lat="42.76313" lon="1.52934">
        <ele>1399.4</ele>
        <time>2021-09-19T13:31:31Z</time>
      </trkpt>
      <trkpt lat="42.76314" lon="1.52932">
        <ele>1398.6</ele>
        <time>2021-09-19T13:31:33Z</time>
      </trkpt>
      <trkpt lat="42.76315" lon="1.5293">
        <ele>1398.2</ele>
        <time>2021-09-19T13:31:34Z</time>
      </trkpt>
      <trkpt lat="42.76318" lon="1.5292">
        <ele>1397.2</ele>
        <time>2021-09-19T13:31:40Z</time>
      </trkpt>
      <trkpt lat="42.76318" lon="1.52918">
        <ele>1397</ele>
        <time>2021-09-19T13:31:41Z</time>
      </trkpt>
      <trkpt lat="42.76321" lon="1.52912">
        <ele>1396.4</ele>
        <time>2021-09-19T13:31:45Z</time>
      </trkpt>
      <trkpt lat="42.76322" lon="1.5291">
        <ele>1395.6</ele>
        <time>2021-09-19T13:31:46Z</time>
      </trkpt>
      <trkpt lat="42.76325" lon="1.52906">
        <ele>1394.8</ele>
        <time>2021-09-19T13:31:49Z</time>
      </trkpt>
      <trkpt lat="42.76325" lon="1.52905">
        <ele>1394.6</ele>
        <time>2021-09-19T13:31:50Z</time>
      </trkpt>
      <trkpt lat="42.76328" lon="1.52901">
        <ele>1393.6</ele>
        <time>2021-09-19T13:31:54Z</time>
      </trkpt>
      <trkpt lat="42.76331" lon="1.52898">
        <ele>1392.6</ele>
        <time>2021-09-19T13:31:58Z</time>
      </trkpt>
      <trkpt lat="42.76332" lon="1.52897">
        <ele>1392.4</ele>
        <time>2021-09-19T13:31:59Z</time>
      </trkpt>
      <trkpt lat="42.76333" lon="1.52894">
        <ele>1391.8</ele>
        <time>2021-09-19T13:32:02Z</time>
      </trkpt>
      <trkpt lat="42.76334" lon="1.52892">
        <ele>1391.4</ele>
        <time>2021-09-19T13:32:04Z</time>
      </trkpt>
      <trkpt lat="42.76335" lon="1.5289">
        <ele>1391.2</ele>
        <time>2021-09-19T13:32:05Z</time>
      </trkpt>
      <trkpt lat="42.76336" lon="1.52888">
        <ele>1391</ele>
        <time>2021-09-19T13:32:06Z</time>
      </trkpt>
      <trkpt lat="42.7634" lon="1.52883">
        <ele>1390.4</ele>
        <time>2021-09-19T13:32:10Z</time>
      </trkpt>
      <trkpt lat="42.76341" lon="1.52881">
        <ele>1390.2</ele>
        <time>2021-09-19T13:32:11Z</time>
      </trkpt>
      <trkpt lat="42.76342" lon="1.52879">
        <ele>1390</ele>
        <time>2021-09-19T13:32:13Z</time>
      </trkpt>
      <trkpt lat="42.76343" lon="1.52876">
        <ele>1389.2</ele>
        <time>2021-09-19T13:32:16Z</time>
      </trkpt>
      <trkpt lat="42.76344" lon="1.52874">
        <ele>1388.2</ele>
        <time>2021-09-19T13:32:19Z</time>
      </trkpt>
      <trkpt lat="42.76346" lon="1.52867">
        <ele>1387.4</ele>
        <time>2021-09-19T13:32:24Z</time>
      </trkpt>
      <trkpt lat="42.76346" lon="1.52864">
        <ele>1387</ele>
        <time>2021-09-19T13:32:26Z</time>
      </trkpt>
      <trkpt lat="42.76348" lon="1.52862">
        <ele>1386.4</ele>
        <time>2021-09-19T13:32:28Z</time>
      </trkpt>
      <trkpt lat="42.7635" lon="1.52858">
        <ele>1385.8</ele>
        <time>2021-09-19T13:32:32Z</time>
      </trkpt>
      <trkpt lat="42.76351" lon="1.52857">
        <ele>1385.8</ele>
        <time>2021-09-19T13:32:33Z</time>
      </trkpt>
      <trkpt lat="42.76351" lon="1.52856">
        <ele>1385.6</ele>
        <time>2021-09-19T13:32:34Z</time>
      </trkpt>
      <trkpt lat="42.76353" lon="1.52855">
        <ele>1385.2</ele>
        <time>2021-09-19T13:32:36Z</time>
      </trkpt>
      <trkpt lat="42.76354" lon="1.52852">
        <ele>1384.8</ele>
        <time>2021-09-19T13:32:38Z</time>
      </trkpt>
      <trkpt lat="42.76356" lon="1.52849">
        <ele>1384.4</ele>
        <time>2021-09-19T13:32:40Z</time>
      </trkpt>
      <trkpt lat="42.76357" lon="1.52847">
        <ele>1383.6</ele>
        <time>2021-09-19T13:32:42Z</time>
      </trkpt>
      <trkpt lat="42.76359" lon="1.52845">
        <ele>1383.2</ele>
        <time>2021-09-19T13:32:44Z</time>
      </trkpt>
      <trkpt lat="42.7636" lon="1.52843">
        <ele>1382.6</ele>
        <time>2021-09-19T13:32:48Z</time>
      </trkpt>
      <trkpt lat="42.7636" lon="1.52842">
        <ele>1382.6</ele>
        <time>2021-09-19T13:32:49Z</time>
      </trkpt>
      <trkpt lat="42.76361" lon="1.52842">
        <ele>1382.4</ele>
        <time>2021-09-19T13:32:50Z</time>
      </trkpt>
      <trkpt lat="42.76361" lon="1.5284">
        <ele>1382.2</ele>
        <time>2021-09-19T13:32:52Z</time>
      </trkpt>
      <trkpt lat="42.76362" lon="1.5284">
        <ele>1381.6</ele>
        <time>2021-09-19T13:32:54Z</time>
      </trkpt>
      <trkpt lat="42.76362" lon="1.52841">
        <ele>1381.4</ele>
        <time>2021-09-19T13:32:55Z</time>
      </trkpt>
      <trkpt lat="42.76364" lon="1.52842">
        <ele>1381</ele>
        <time>2021-09-19T13:33:00Z</time>
      </trkpt>
      <trkpt lat="42.76365" lon="1.52841">
        <ele>1380.8</ele>
        <time>2021-09-19T13:33:02Z</time>
      </trkpt>
      <trkpt lat="42.76365" lon="1.52843">
        <ele>1380.6</ele>
        <time>2021-09-19T13:33:06Z</time>
      </trkpt>
      <trkpt lat="42.76365" lon="1.52844">
        <ele>1380.4</ele>
        <time>2021-09-19T13:33:08Z</time>
      </trkpt>
      <trkpt lat="42.76364" lon="1.52842">
        <ele>1380.4</ele>
        <time>2021-09-19T13:33:13Z</time>
      </trkpt>
      <trkpt lat="42.76363" lon="1.52842">
        <ele>1380.2</ele>
        <time>2021-09-19T13:33:16Z</time>
      </trkpt>
      <trkpt lat="42.76364" lon="1.52841">
        <ele>1379.2</ele>
        <time>2021-09-19T13:33:22Z</time>
      </trkpt>
      <trkpt lat="42.76364" lon="1.52842">
        <ele>1379.2</ele>
        <time>2021-09-19T13:33:24Z</time>
      </trkpt>
      <trkpt lat="42.76363" lon="1.5284">
        <ele>1379.2</ele>
        <time>2021-09-19T13:33:28Z</time>
      </trkpt>
      <trkpt lat="42.76364" lon="1.52841">
        <ele>1379.2</ele>
        <time>2021-09-19T13:33:31Z</time>
      </trkpt>
      <trkpt lat="42.76364" lon="1.52838">
        <ele>1378.8</ele>
        <time>2021-09-19T13:33:41Z</time>
      </trkpt>
      <trkpt lat="42.76363" lon="1.52837">
        <ele>1378.4</ele>
        <time>2021-09-19T13:33:45Z</time>
      </trkpt>
      <trkpt lat="42.76363" lon="1.52837">
        <ele>1378.2</ele>
        <time>2021-09-19T13:33:51Z</time>
      </trkpt>
      <trkpt lat="42.76362" lon="1.52839">
        <ele>1378.2</ele>
        <time>2021-09-19T13:33:55Z</time>
      </trkpt>
      <trkpt lat="42.76362" lon="1.52839">
        <ele>1378.2</ele>
        <time>2021-09-19T13:33:56Z</time>
      </trkpt>
      <trkpt lat="42.76361" lon="1.52837">
        <ele>1378.2</ele>
        <time>2021-09-19T13:34:00Z</time>
      </trkpt>
      <trkpt lat="42.76362" lon="1.52837">
        <ele>1378.4</ele>
        <time>2021-09-19T13:34:01Z</time>
      </trkpt>
      <trkpt lat="42.76364" lon="1.52833">
        <ele>1378.2</ele>
        <time>2021-09-19T13:34:06Z</time>
      </trkpt>
      <trkpt lat="42.76364" lon="1.52834">
        <ele>1377.8</ele>
        <time>2021-09-19T13:34:08Z</time>
      </trkpt>
      <trkpt lat="42.76364" lon="1.52836">
        <ele>1377.8</ele>
        <time>2021-09-19T13:34:14Z</time>
      </trkpt>
      <trkpt lat="42.76363" lon="1.52828">
        <ele>1377.2</ele>
        <time>2021-09-19T13:34:21Z</time>
      </trkpt>
      <trkpt lat="42.76363" lon="1.52827">
        <ele>1377</ele>
        <time>2021-09-19T13:34:22Z</time>
      </trkpt>
      <trkpt lat="42.76363" lon="1.52825">
        <ele>1376.8</ele>
        <time>2021-09-19T13:34:24Z</time>
      </trkpt>
      <trkpt lat="42.76366" lon="1.52819">
        <ele>1376</ele>
        <time>2021-09-19T13:34:29Z</time>
      </trkpt>
      <trkpt lat="42.76368" lon="1.52813">
        <ele>1375.2</ele>
        <time>2021-09-19T13:34:34Z</time>
      </trkpt>
      <trkpt lat="42.76369" lon="1.52811">
        <ele>1374.8</ele>
        <time>2021-09-19T13:34:36Z</time>
      </trkpt>
      <trkpt lat="42.76369" lon="1.5281">
        <ele>1374.8</ele>
        <time>2021-09-19T13:34:37Z</time>
      </trkpt>
      <trkpt lat="42.76371" lon="1.52808">
        <ele>1374.2</ele>
        <time>2021-09-19T13:34:40Z</time>
      </trkpt>
      <trkpt lat="42.76371" lon="1.52808">
        <ele>1374.2</ele>
        <time>2021-09-19T13:34:41Z</time>
      </trkpt>
      <trkpt lat="42.76372" lon="1.52807">
        <ele>1373.8</ele>
        <time>2021-09-19T13:34:43Z</time>
      </trkpt>
      <trkpt lat="42.76372" lon="1.52806">
        <ele>1373.6</ele>
        <time>2021-09-19T13:34:44Z</time>
      </trkpt>
      <trkpt lat="42.76375" lon="1.52801">
        <ele>1373</ele>
        <time>2021-09-19T13:34:49Z</time>
      </trkpt>
      <trkpt lat="42.76376" lon="1.528">
        <ele>1372.8</ele>
        <time>2021-09-19T13:34:50Z</time>
      </trkpt>
      <trkpt lat="42.76377" lon="1.52794">
        <ele>1371.4</ele>
        <time>2021-09-19T13:34:56Z</time>
      </trkpt>
      <trkpt lat="42.7638" lon="1.52789">
        <ele>1370.4</ele>
        <time>2021-09-19T13:35:00Z</time>
      </trkpt>
      <trkpt lat="42.76382" lon="1.52784">
        <ele>1369.4</ele>
        <time>2021-09-19T13:35:04Z</time>
      </trkpt>
      <trkpt lat="42.76382" lon="1.52783">
        <ele>1369.4</ele>
        <time>2021-09-19T13:35:05Z</time>
      </trkpt>
      <trkpt lat="42.76386" lon="1.52776">
        <ele>1368.2</ele>
        <time>2021-09-19T13:35:11Z</time>
      </trkpt>
      <trkpt lat="42.76386" lon="1.52774">
        <ele>1367.6</ele>
        <time>2021-09-19T13:35:13Z</time>
      </trkpt>
      <trkpt lat="42.76387" lon="1.52769">
        <ele>1367</ele>
        <time>2021-09-19T13:35:17Z</time>
      </trkpt>
      <trkpt lat="42.76388" lon="1.52765">
        <ele>1366</ele>
        <time>2021-09-19T13:35:20Z</time>
      </trkpt>
      <trkpt lat="42.76388" lon="1.52764">
        <ele>1365.8</ele>
        <time>2021-09-19T13:35:21Z</time>
      </trkpt>
      <trkpt lat="42.76389" lon="1.52761">
        <ele>1365</ele>
        <time>2021-09-19T13:35:24Z</time>
      </trkpt>
      <trkpt lat="42.76389" lon="1.5276">
        <ele>1364.6</ele>
        <time>2021-09-19T13:35:25Z</time>
      </trkpt>
      <trkpt lat="42.76391" lon="1.52759">
        <ele>1364.2</ele>
        <time>2021-09-19T13:35:27Z</time>
      </trkpt>
      <trkpt lat="42.76392" lon="1.52758">
        <ele>1364.2</ele>
        <time>2021-09-19T13:35:28Z</time>
      </trkpt>
      <trkpt lat="42.76393" lon="1.52754">
        <ele>1363.6</ele>
        <time>2021-09-19T13:35:31Z</time>
      </trkpt>
      <trkpt lat="42.76396" lon="1.52748">
        <ele>1362.4</ele>
        <time>2021-09-19T13:35:36Z</time>
      </trkpt>
      <trkpt lat="42.76396" lon="1.52747">
        <ele>1362.2</ele>
        <time>2021-09-19T13:35:37Z</time>
      </trkpt>
      <trkpt lat="42.764" lon="1.52743">
        <ele>1361.2</ele>
        <time>2021-09-19T13:35:41Z</time>
      </trkpt>
      <trkpt lat="42.764" lon="1.52739">
        <ele>1360.4</ele>
        <time>2021-09-19T13:35:44Z</time>
      </trkpt>
      <trkpt lat="42.76402" lon="1.52736">
        <ele>1359.8</ele>
        <time>2021-09-19T13:35:46Z</time>
      </trkpt>
      <trkpt lat="42.76404" lon="1.52732">
        <ele>1359.4</ele>
        <time>2021-09-19T13:35:48Z</time>
      </trkpt>
      <trkpt lat="42.76406" lon="1.52728">
        <ele>1359</ele>
        <time>2021-09-19T13:35:50Z</time>
      </trkpt>
      <trkpt lat="42.76407" lon="1.52727">
        <ele>1358.6</ele>
        <time>2021-09-19T13:35:51Z</time>
      </trkpt>
      <trkpt lat="42.76411" lon="1.52724">
        <ele>1357.8</ele>
        <time>2021-09-19T13:35:55Z</time>
      </trkpt>
      <trkpt lat="42.76411" lon="1.52724">
        <ele>1357.6</ele>
        <time>2021-09-19T13:35:56Z</time>
      </trkpt>
      <trkpt lat="42.76414" lon="1.52722">
        <ele>1357.2</ele>
        <time>2021-09-19T13:35:59Z</time>
      </trkpt>
      <trkpt lat="42.76416" lon="1.5272">
        <ele>1356.4</ele>
        <time>2021-09-19T13:36:02Z</time>
      </trkpt>
      <trkpt lat="42.76418" lon="1.52714">
        <ele>1355.2</ele>
        <time>2021-09-19T13:36:06Z</time>
      </trkpt>
      <trkpt lat="42.76422" lon="1.5271">
        <ele>1354.6</ele>
        <time>2021-09-19T13:36:10Z</time>
      </trkpt>
      <trkpt lat="42.76423" lon="1.52709">
        <ele>1354.2</ele>
        <time>2021-09-19T13:36:11Z</time>
      </trkpt>
      <trkpt lat="42.76426" lon="1.52708">
        <ele>1354</ele>
        <time>2021-09-19T13:36:14Z</time>
      </trkpt>
      <trkpt lat="42.7643" lon="1.52705">
        <ele>1353.2</ele>
        <time>2021-09-19T13:36:18Z</time>
      </trkpt>
      <trkpt lat="42.76434" lon="1.52704">
        <ele>1352.4</ele>
        <time>2021-09-19T13:36:23Z</time>
      </trkpt>
      <trkpt lat="42.76435" lon="1.52704">
        <ele>1352.2</ele>
        <time>2021-09-19T13:36:25Z</time>
      </trkpt>
      <trkpt lat="42.76436" lon="1.52703">
        <ele>1351.8</ele>
        <time>2021-09-19T13:36:26Z</time>
      </trkpt>
      <trkpt lat="42.76443" lon="1.52701">
        <ele>1350.6</ele>
        <time>2021-09-19T13:36:33Z</time>
      </trkpt>
      <trkpt lat="42.76448" lon="1.52701">
        <ele>1349.6</ele>
        <time>2021-09-19T13:36:38Z</time>
      </trkpt>
      <trkpt lat="42.76451" lon="1.52701">
        <ele>1349.2</ele>
        <time>2021-09-19T13:36:41Z</time>
      </trkpt>
      <trkpt lat="42.76455" lon="1.527">
        <ele>1348.4</ele>
        <time>2021-09-19T13:36:45Z</time>
      </trkpt>
      <trkpt lat="42.76456" lon="1.527">
        <ele>1348.2</ele>
        <time>2021-09-19T13:36:46Z</time>
      </trkpt>
      <trkpt lat="42.76458" lon="1.52702">
        <ele>1347.6</ele>
        <time>2021-09-19T13:36:49Z</time>
      </trkpt>
      <trkpt lat="42.76459" lon="1.52703">
        <ele>1347.4</ele>
        <time>2021-09-19T13:36:50Z</time>
      </trkpt>
      <trkpt lat="42.76463" lon="1.52707">
        <ele>1347</ele>
        <time>2021-09-19T13:36:55Z</time>
      </trkpt>
      <trkpt lat="42.76465" lon="1.52708">
        <ele>1346.6</ele>
        <time>2021-09-19T13:36:57Z</time>
      </trkpt>
      <trkpt lat="42.76468" lon="1.52707">
        <ele>1346.2</ele>
        <time>2021-09-19T13:37:00Z</time>
      </trkpt>
      <trkpt lat="42.76475" lon="1.52704">
        <ele>1345.2</ele>
        <time>2021-09-19T13:37:05Z</time>
      </trkpt>
      <trkpt lat="42.76476" lon="1.52704">
        <ele>1345</ele>
        <time>2021-09-19T13:37:06Z</time>
      </trkpt>
      <trkpt lat="42.76477" lon="1.52705">
        <ele>1344.8</ele>
        <time>2021-09-19T13:37:07Z</time>
      </trkpt>
      <trkpt lat="42.76478" lon="1.52706">
        <ele>1344.8</ele>
        <time>2021-09-19T13:37:08Z</time>
      </trkpt>
      <trkpt lat="42.76479" lon="1.52707">
        <ele>1344.6</ele>
        <time>2021-09-19T13:37:09Z</time>
      </trkpt>
      <trkpt lat="42.76481" lon="1.52709">
        <ele>1344</ele>
        <time>2021-09-19T13:37:11Z</time>
      </trkpt>
      <trkpt lat="42.76482" lon="1.5271">
        <ele>1343.2</ele>
        <time>2021-09-19T13:37:13Z</time>
      </trkpt>
      <trkpt lat="42.76483" lon="1.5271">
        <ele>1343.2</ele>
        <time>2021-09-19T13:37:14Z</time>
      </trkpt>
      <trkpt lat="42.76485" lon="1.5271">
        <ele>1343</ele>
        <time>2021-09-19T13:37:17Z</time>
      </trkpt>
      <trkpt lat="42.76486" lon="1.52709">
        <ele>1343</ele>
        <time>2021-09-19T13:37:18Z</time>
      </trkpt>
      <trkpt lat="42.76487" lon="1.52709">
        <ele>1342.6</ele>
        <time>2021-09-19T13:37:19Z</time>
      </trkpt>
      <trkpt lat="42.76491" lon="1.52711">
        <ele>1341.8</ele>
        <time>2021-09-19T13:37:24Z</time>
      </trkpt>
      <trkpt lat="42.76493" lon="1.52711">
        <ele>1341.6</ele>
        <time>2021-09-19T13:37:25Z</time>
      </trkpt>
      <trkpt lat="42.76495" lon="1.52714">
        <ele>1340.8</ele>
        <time>2021-09-19T13:37:28Z</time>
      </trkpt>
      <trkpt lat="42.76496" lon="1.52715">
        <ele>1340.6</ele>
        <time>2021-09-19T13:37:29Z</time>
      </trkpt>
      <trkpt lat="42.76499" lon="1.52717">
        <ele>1340</ele>
        <time>2021-09-19T13:37:32Z</time>
      </trkpt>
      <trkpt lat="42.765" lon="1.52718">
        <ele>1339.8</ele>
        <time>2021-09-19T13:37:34Z</time>
      </trkpt>
      <trkpt lat="42.76502" lon="1.52718">
        <ele>1339.6</ele>
        <time>2021-09-19T13:37:36Z</time>
      </trkpt>
      <trkpt lat="42.76508" lon="1.52721">
        <ele>1338.8</ele>
        <time>2021-09-19T13:37:41Z</time>
      </trkpt>
      <trkpt lat="42.7651" lon="1.52723">
        <ele>1338.4</ele>
        <time>2021-09-19T13:37:43Z</time>
      </trkpt>
      <trkpt lat="42.76517" lon="1.52729">
        <ele>1337.8</ele>
        <time>2021-09-19T13:37:51Z</time>
      </trkpt>
      <trkpt lat="42.76524" lon="1.52735">
        <ele>1336.4</ele>
        <time>2021-09-19T13:38:00Z</time>
      </trkpt>
      <trkpt lat="42.76525" lon="1.52736">
        <ele>1336.2</ele>
        <time>2021-09-19T13:38:01Z</time>
      </trkpt>
      <trkpt lat="42.76525" lon="1.52736">
        <ele>1336</ele>
        <time>2021-09-19T13:38:02Z</time>
      </trkpt>
      <trkpt lat="42.76529" lon="1.52737">
        <ele>1335.2</ele>
        <time>2021-09-19T13:38:06Z</time>
      </trkpt>
      <trkpt lat="42.76532" lon="1.52737">
        <ele>1334.8</ele>
        <time>2021-09-19T13:38:09Z</time>
      </trkpt>
      <trkpt lat="42.76536" lon="1.52739">
        <ele>1334.2</ele>
        <time>2021-09-19T13:38:13Z</time>
      </trkpt>
      <trkpt lat="42.76537" lon="1.5274">
        <ele>1334.2</ele>
        <time>2021-09-19T13:38:14Z</time>
      </trkpt>
      <trkpt lat="42.76538" lon="1.52741">
        <ele>1333.8</ele>
        <time>2021-09-19T13:38:15Z</time>
      </trkpt>
      <trkpt lat="42.76539" lon="1.52742">
        <ele>1333.8</ele>
        <time>2021-09-19T13:38:16Z</time>
      </trkpt>
      <trkpt lat="42.76542" lon="1.52742">
        <ele>1333.4</ele>
        <time>2021-09-19T13:38:18Z</time>
      </trkpt>
      <trkpt lat="42.76544" lon="1.52743">
        <ele>1333.2</ele>
        <time>2021-09-19T13:38:20Z</time>
      </trkpt>
      <trkpt lat="42.76547" lon="1.52745">
        <ele>1333</ele>
        <time>2021-09-19T13:38:23Z</time>
      </trkpt>
      <trkpt lat="42.76548" lon="1.52746">
        <ele>1333</ele>
        <time>2021-09-19T13:38:24Z</time>
      </trkpt>
      <trkpt lat="42.76553" lon="1.52752">
        <ele>1332.4</ele>
        <time>2021-09-19T13:38:29Z</time>
      </trkpt>
      <trkpt lat="42.76554" lon="1.52753">
        <ele>1332.2</ele>
        <time>2021-09-19T13:38:30Z</time>
      </trkpt>
      <trkpt lat="42.76555" lon="1.52754">
        <ele>1332</ele>
        <time>2021-09-19T13:38:31Z</time>
      </trkpt>
      <trkpt lat="42.76556" lon="1.52755">
        <ele>1331.8</ele>
        <time>2021-09-19T13:38:32Z</time>
      </trkpt>
      <trkpt lat="42.76562" lon="1.52761">
        <ele>1331</ele>
        <time>2021-09-19T13:38:38Z</time>
      </trkpt>
      <trkpt lat="42.76563" lon="1.52763">
        <ele>1331</ele>
        <time>2021-09-19T13:38:39Z</time>
      </trkpt>
      <trkpt lat="42.76564" lon="1.52764">
        <ele>1330.8</ele>
        <time>2021-09-19T13:38:40Z</time>
      </trkpt>
      <trkpt lat="42.76567" lon="1.52767">
        <ele>1330.2</ele>
        <time>2021-09-19T13:38:43Z</time>
      </trkpt>
      <trkpt lat="42.76569" lon="1.52769">
        <ele>1330</ele>
        <time>2021-09-19T13:38:45Z</time>
      </trkpt>
      <trkpt lat="42.76574" lon="1.52773">
        <ele>1329.4</ele>
        <time>2021-09-19T13:38:50Z</time>
      </trkpt>
      <trkpt lat="42.76576" lon="1.52775">
        <ele>1329</ele>
        <time>2021-09-19T13:38:52Z</time>
      </trkpt>
      <trkpt lat="42.76577" lon="1.52776">
        <ele>1328.8</ele>
        <time>2021-09-19T13:38:53Z</time>
      </trkpt>
      <trkpt lat="42.76583" lon="1.52781">
        <ele>1327.8</ele>
        <time>2021-09-19T13:38:58Z</time>
      </trkpt>
      <trkpt lat="42.76584" lon="1.52782">
        <ele>1327.6</ele>
        <time>2021-09-19T13:38:59Z</time>
      </trkpt>
      <trkpt lat="42.76588" lon="1.52787">
        <ele>1326.8</ele>
        <time>2021-09-19T13:39:03Z</time>
      </trkpt>
      <trkpt lat="42.76591" lon="1.52789">
        <ele>1326.4</ele>
        <time>2021-09-19T13:39:06Z</time>
      </trkpt>
      <trkpt lat="42.76596" lon="1.52797">
        <ele>1325.8</ele>
        <time>2021-09-19T13:39:13Z</time>
      </trkpt>
      <trkpt lat="42.76598" lon="1.528">
        <ele>1325.4</ele>
        <time>2021-09-19T13:39:15Z</time>
      </trkpt>
      <trkpt lat="42.76602" lon="1.52802">
        <ele>1324.6</ele>
        <time>2021-09-19T13:39:20Z</time>
      </trkpt>
      <trkpt lat="42.76603" lon="1.52804">
        <ele>1324.2</ele>
        <time>2021-09-19T13:39:22Z</time>
      </trkpt>
      <trkpt lat="42.76604" lon="1.52806">
        <ele>1324</ele>
        <time>2021-09-19T13:39:24Z</time>
      </trkpt>
      <trkpt lat="42.76606" lon="1.52808">
        <ele>1323.6</ele>
        <time>2021-09-19T13:39:27Z</time>
      </trkpt>
      <trkpt lat="42.76607" lon="1.52808">
        <ele>1323.6</ele>
        <time>2021-09-19T13:39:28Z</time>
      </trkpt>
      <trkpt lat="42.76614" lon="1.52816">
        <ele>1323.8</ele>
        <time>2021-09-19T13:39:35Z</time>
      </trkpt>
      <trkpt lat="42.76617" lon="1.52817">
        <ele>1323.2</ele>
        <time>2021-09-19T13:39:37Z</time>
      </trkpt>
      <trkpt lat="42.7662" lon="1.52819">
        <ele>1322.8</ele>
        <time>2021-09-19T13:39:40Z</time>
      </trkpt>
      <trkpt lat="42.76621" lon="1.52819">
        <ele>1322.8</ele>
        <time>2021-09-19T13:39:41Z</time>
      </trkpt>
      <trkpt lat="42.76622" lon="1.5282">
        <ele>1322.8</ele>
        <time>2021-09-19T13:39:42Z</time>
      </trkpt>
      <trkpt lat="42.76623" lon="1.5282">
        <ele>1322.8</ele>
        <time>2021-09-19T13:39:43Z</time>
      </trkpt>
      <trkpt lat="42.76626" lon="1.52822">
        <ele>1322.2</ele>
        <time>2021-09-19T13:39:47Z</time>
      </trkpt>
      <trkpt lat="42.76627" lon="1.52823">
        <ele>1321.4</ele>
        <time>2021-09-19T13:39:49Z</time>
      </trkpt>
      <trkpt lat="42.76628" lon="1.52824">
        <ele>1321.2</ele>
        <time>2021-09-19T13:39:50Z</time>
      </trkpt>
      <trkpt lat="42.76629" lon="1.52826">
        <ele>1321</ele>
        <time>2021-09-19T13:39:52Z</time>
      </trkpt>
      <trkpt lat="42.76631" lon="1.52828">
        <ele>1321</ele>
        <time>2021-09-19T13:39:54Z</time>
      </trkpt>
      <trkpt lat="42.76632" lon="1.52828">
        <ele>1321</ele>
        <time>2021-09-19T13:39:55Z</time>
      </trkpt>
      <trkpt lat="42.76638" lon="1.52831">
        <ele>1320.4</ele>
        <time>2021-09-19T13:40:01Z</time>
      </trkpt>
      <trkpt lat="42.76641" lon="1.52832">
        <ele>1320</ele>
        <time>2021-09-19T13:40:03Z</time>
      </trkpt>
      <trkpt lat="42.76643" lon="1.52833">
        <ele>1320</ele>
        <time>2021-09-19T13:40:05Z</time>
      </trkpt>
      <trkpt lat="42.76645" lon="1.52835">
        <ele>1320</ele>
        <time>2021-09-19T13:40:07Z</time>
      </trkpt>
      <trkpt lat="42.76649" lon="1.52836">
        <ele>1320.2</ele>
        <time>2021-09-19T13:40:10Z</time>
      </trkpt>
      <trkpt lat="42.76651" lon="1.52837">
        <ele>1320.2</ele>
        <time>2021-09-19T13:40:12Z</time>
      </trkpt>
      <trkpt lat="42.76652" lon="1.52838">
        <ele>1319.8</ele>
        <time>2021-09-19T13:40:13Z</time>
      </trkpt>
      <trkpt lat="42.76652" lon="1.52838">
        <ele>1319.6</ele>
        <time>2021-09-19T13:40:14Z</time>
      </trkpt>
      <trkpt lat="42.76655" lon="1.52839">
        <ele>1319.2</ele>
        <time>2021-09-19T13:40:17Z</time>
      </trkpt>
      <trkpt lat="42.76656" lon="1.5284">
        <ele>1319</ele>
        <time>2021-09-19T13:40:18Z</time>
      </trkpt>
      <trkpt lat="42.76658" lon="1.5284">
        <ele>1319</ele>
        <time>2021-09-19T13:40:19Z</time>
      </trkpt>
      <trkpt lat="42.7666" lon="1.52842">
        <ele>1318.8</ele>
        <time>2021-09-19T13:40:21Z</time>
      </trkpt>
      <trkpt lat="42.76667" lon="1.52844">
        <ele>1318.2</ele>
        <time>2021-09-19T13:40:24Z</time>
      </trkpt>
      <trkpt lat="42.7667" lon="1.52844">
        <ele>1317.8</ele>
        <time>2021-09-19T13:40:26Z</time>
      </trkpt>
      <trkpt lat="42.76674" lon="1.52844">
        <ele>1316.6</ele>
        <time>2021-09-19T13:40:30Z</time>
      </trkpt>
      <trkpt lat="42.76676" lon="1.52843">
        <ele>1316.2</ele>
        <time>2021-09-19T13:40:32Z</time>
      </trkpt>
      <trkpt lat="42.76677" lon="1.52843">
        <ele>1316</ele>
        <time>2021-09-19T13:40:33Z</time>
      </trkpt>
      <trkpt lat="42.76684" lon="1.52841">
        <ele>1315.8</ele>
        <time>2021-09-19T13:40:40Z</time>
      </trkpt>
      <trkpt lat="42.76685" lon="1.52841">
        <ele>1315.8</ele>
        <time>2021-09-19T13:40:41Z</time>
      </trkpt>
      <trkpt lat="42.76688" lon="1.52841">
        <ele>1315.8</ele>
        <time>2021-09-19T13:40:43Z</time>
      </trkpt>
      <trkpt lat="42.7669" lon="1.52841">
        <ele>1315.6</ele>
        <time>2021-09-19T13:40:45Z</time>
      </trkpt>
      <trkpt lat="42.76693" lon="1.52841">
        <ele>1315.2</ele>
        <time>2021-09-19T13:40:47Z</time>
      </trkpt>
      <trkpt lat="42.76695" lon="1.52841">
        <ele>1315</ele>
        <time>2021-09-19T13:40:49Z</time>
      </trkpt>
      <trkpt lat="42.76701" lon="1.52842">
        <ele>1314.8</ele>
        <time>2021-09-19T13:40:53Z</time>
      </trkpt>
      <trkpt lat="42.76705" lon="1.52842">
        <ele>1314.8</ele>
        <time>2021-09-19T13:40:55Z</time>
      </trkpt>
      <trkpt lat="42.76708" lon="1.52841">
        <ele>1314.8</ele>
        <time>2021-09-19T13:40:57Z</time>
      </trkpt>
      <trkpt lat="42.76711" lon="1.52841">
        <ele>1314.4</ele>
        <time>2021-09-19T13:40:59Z</time>
      </trkpt>
      <trkpt lat="42.76713" lon="1.52841">
        <ele>1313.2</ele>
        <time>2021-09-19T13:41:02Z</time>
      </trkpt>
      <trkpt lat="42.76714" lon="1.52841">
        <ele>1312.8</ele>
        <time>2021-09-19T13:41:03Z</time>
      </trkpt>
      <trkpt lat="42.76715" lon="1.52841">
        <ele>1312.6</ele>
        <time>2021-09-19T13:41:04Z</time>
      </trkpt>
      <trkpt lat="42.76717" lon="1.52841">
        <ele>1312.6</ele>
        <time>2021-09-19T13:41:05Z</time>
      </trkpt>
      <trkpt lat="42.76724" lon="1.52838">
        <ele>1312.2</ele>
        <time>2021-09-19T13:41:12Z</time>
      </trkpt>
      <trkpt lat="42.76727" lon="1.52837">
        <ele>1312</ele>
        <time>2021-09-19T13:41:15Z</time>
      </trkpt>
      <trkpt lat="42.76734" lon="1.52838">
        <ele>1311.4</ele>
        <time>2021-09-19T13:41:20Z</time>
      </trkpt>
      <trkpt lat="42.76741" lon="1.52837">
        <ele>1310.8</ele>
        <time>2021-09-19T13:41:24Z</time>
      </trkpt>
      <trkpt lat="42.76743" lon="1.52838">
        <ele>1310.8</ele>
        <time>2021-09-19T13:41:25Z</time>
      </trkpt>
      <trkpt lat="42.76744" lon="1.52839">
        <ele>1310.6</ele>
        <time>2021-09-19T13:41:26Z</time>
      </trkpt>
      <trkpt lat="42.76747" lon="1.52839">
        <ele>1309.8</ele>
        <time>2021-09-19T13:41:29Z</time>
      </trkpt>
      <trkpt lat="42.76752" lon="1.52841">
        <ele>1309.2</ele>
        <time>2021-09-19T13:41:32Z</time>
      </trkpt>
      <trkpt lat="42.76762" lon="1.52845">
        <ele>1308.8</ele>
        <time>2021-09-19T13:41:38Z</time>
      </trkpt>
      <trkpt lat="42.76765" lon="1.52849">
        <ele>1308.6</ele>
        <time>2021-09-19T13:41:41Z</time>
      </trkpt>
      <trkpt lat="42.76768" lon="1.52857">
        <ele>1308.4</ele>
        <time>2021-09-19T13:41:47Z</time>
      </trkpt>
      <trkpt lat="42.7677" lon="1.52863">
        <ele>1308.2</ele>
        <time>2021-09-19T13:41:53Z</time>
      </trkpt>
      <trkpt lat="42.76773" lon="1.52871">
        <ele>1307.8</ele>
        <time>2021-09-19T13:41:59Z</time>
      </trkpt>
      <trkpt lat="42.76775" lon="1.52873">
        <ele>1307.6</ele>
        <time>2021-09-19T13:42:01Z</time>
      </trkpt>
      <trkpt lat="42.76777" lon="1.52876">
        <ele>1307.6</ele>
        <time>2021-09-19T13:42:03Z</time>
      </trkpt>
      <trkpt lat="42.7678" lon="1.52879">
        <ele>1307.8</ele>
        <time>2021-09-19T13:42:06Z</time>
      </trkpt>
      <trkpt lat="42.76781" lon="1.5288">
        <ele>1308</ele>
        <time>2021-09-19T13:42:07Z</time>
      </trkpt>
      <trkpt lat="42.76782" lon="1.52881">
        <ele>1308</ele>
        <time>2021-09-19T13:42:08Z</time>
      </trkpt>
      <trkpt lat="42.76787" lon="1.52887">
        <ele>1307.8</ele>
        <time>2021-09-19T13:42:13Z</time>
      </trkpt>
      <trkpt lat="42.76789" lon="1.52889">
        <ele>1307.6</ele>
        <time>2021-09-19T13:42:16Z</time>
      </trkpt>
      <trkpt lat="42.7679" lon="1.52891">
        <ele>1307.6</ele>
        <time>2021-09-19T13:42:18Z</time>
      </trkpt>
      <trkpt lat="42.76793" lon="1.52897">
        <ele>1307.6</ele>
        <time>2021-09-19T13:42:23Z</time>
      </trkpt>
      <trkpt lat="42.76802" lon="1.52907">
        <ele>1307.2</ele>
        <time>2021-09-19T13:42:31Z</time>
      </trkpt>
      <trkpt lat="42.76803" lon="1.52907">
        <ele>1307.2</ele>
        <time>2021-09-19T13:42:32Z</time>
      </trkpt>
      <trkpt lat="42.76808" lon="1.52909">
        <ele>1307.8</ele>
        <time>2021-09-19T13:42:37Z</time>
      </trkpt>
      <trkpt lat="42.76811" lon="1.52913">
        <ele>1308</ele>
        <time>2021-09-19T13:42:41Z</time>
      </trkpt>
      <trkpt lat="42.76814" lon="1.52918">
        <ele>1308</ele>
        <time>2021-09-19T13:42:46Z</time>
      </trkpt>
      <trkpt lat="42.76825" lon="1.52925">
        <ele>1307.4</ele>
        <time>2021-09-19T13:42:56Z</time>
      </trkpt>
      <trkpt lat="42.76827" lon="1.52928">
        <ele>1307.4</ele>
        <time>2021-09-19T13:42:59Z</time>
      </trkpt>
      <trkpt lat="42.76829" lon="1.52929">
        <ele>1307.4</ele>
        <time>2021-09-19T13:43:01Z</time>
      </trkpt>
      <trkpt lat="42.7683" lon="1.5293">
        <ele>1307.2</ele>
        <time>2021-09-19T13:43:02Z</time>
      </trkpt>
      <trkpt lat="42.76835" lon="1.52936">
        <ele>1307.4</ele>
        <time>2021-09-19T13:43:08Z</time>
      </trkpt>
      <trkpt lat="42.76837" lon="1.52937">
        <ele>1307.6</ele>
        <time>2021-09-19T13:43:10Z</time>
      </trkpt>
      <trkpt lat="42.76846" lon="1.52944">
        <ele>1308</ele>
        <time>2021-09-19T13:43:18Z</time>
      </trkpt>
      <trkpt lat="42.76853" lon="1.52951">
        <ele>1308.6</ele>
        <time>2021-09-19T13:43:26Z</time>
      </trkpt>
      <trkpt lat="42.76859" lon="1.52954">
        <ele>1308.6</ele>
        <time>2021-09-19T13:43:32Z</time>
      </trkpt>
      <trkpt lat="42.7686" lon="1.52955">
        <ele>1308.8</ele>
        <time>2021-09-19T13:43:33Z</time>
      </trkpt>
      <trkpt lat="42.76865" lon="1.5296">
        <ele>1309.4</ele>
        <time>2021-09-19T13:43:38Z</time>
      </trkpt>
      <trkpt lat="42.76867" lon="1.52962">
        <ele>1309.6</ele>
        <time>2021-09-19T13:43:40Z</time>
      </trkpt>
      <trkpt lat="42.76869" lon="1.52964">
        <ele>1309.4</ele>
        <time>2021-09-19T13:43:43Z</time>
      </trkpt>
      <trkpt lat="42.76869" lon="1.52965">
        <ele>1309.4</ele>
        <time>2021-09-19T13:43:44Z</time>
      </trkpt>
      <trkpt lat="42.76871" lon="1.52966">
        <ele>1309.2</ele>
        <time>2021-09-19T13:43:47Z</time>
      </trkpt>
      <trkpt lat="42.76874" lon="1.52968">
        <ele>1309.4</ele>
        <time>2021-09-19T13:43:50Z</time>
      </trkpt>
      <trkpt lat="42.76877" lon="1.5297">
        <ele>1309.8</ele>
        <time>2021-09-19T13:43:52Z</time>
      </trkpt>
      <trkpt lat="42.76878" lon="1.5297">
        <ele>1309.8</ele>
        <time>2021-09-19T13:43:53Z</time>
      </trkpt>
      <trkpt lat="42.76883" lon="1.52974">
        <ele>1309.8</ele>
        <time>2021-09-19T13:43:56Z</time>
      </trkpt>
      <trkpt lat="42.76884" lon="1.52974">
        <ele>1309.8</ele>
        <time>2021-09-19T13:43:57Z</time>
      </trkpt>
      <trkpt lat="42.76887" lon="1.52976">
        <ele>1309.8</ele>
        <time>2021-09-19T13:44:00Z</time>
      </trkpt>
      <trkpt lat="42.76892" lon="1.5298">
        <ele>1309.6</ele>
        <time>2021-09-19T13:44:05Z</time>
      </trkpt>
      <trkpt lat="42.76906" lon="1.52989">
        <ele>1309.4</ele>
        <time>2021-09-19T13:44:15Z</time>
      </trkpt>
      <trkpt lat="42.76914" lon="1.53">
        <ele>1309</ele>
        <time>2021-09-19T13:44:23Z</time>
      </trkpt>
      <trkpt lat="42.76915" lon="1.53007">
        <ele>1308.6</ele>
        <time>2021-09-19T13:44:28Z</time>
      </trkpt>
      <trkpt lat="42.76914" lon="1.5301">
        <ele>1308.6</ele>
        <time>2021-09-19T13:44:30Z</time>
      </trkpt>
      <trkpt lat="42.76914" lon="1.53011">
        <ele>1308.4</ele>
        <time>2021-09-19T13:44:31Z</time>
      </trkpt>
      <trkpt lat="42.76911" lon="1.53021">
        <ele>1308.4</ele>
        <time>2021-09-19T13:44:37Z</time>
      </trkpt>
      <trkpt lat="42.76911" lon="1.53023">
        <ele>1308.2</ele>
        <time>2021-09-19T13:44:38Z</time>
      </trkpt>
      <trkpt lat="42.7691" lon="1.53033">
        <ele>1308</ele>
        <time>2021-09-19T13:44:43Z</time>
      </trkpt>
      <trkpt lat="42.7691" lon="1.53035">
        <ele>1307.8</ele>
        <time>2021-09-19T13:44:44Z</time>
      </trkpt>
      <trkpt lat="42.7691" lon="1.53038">
        <ele>1307.4</ele>
        <time>2021-09-19T13:44:46Z</time>
      </trkpt>
      <trkpt lat="42.76909" lon="1.53046">
        <ele>1307.2</ele>
        <time>2021-09-19T13:44:51Z</time>
      </trkpt>
      <trkpt lat="42.76907" lon="1.53059">
        <ele>1306.4</ele>
        <time>2021-09-19T13:44:59Z</time>
      </trkpt>
      <trkpt lat="42.76907" lon="1.53061">
        <ele>1306.4</ele>
        <time>2021-09-19T13:45:00Z</time>
      </trkpt>
      <trkpt lat="42.76907" lon="1.53062">
        <ele>1306.2</ele>
        <time>2021-09-19T13:45:01Z</time>
      </trkpt>
      <trkpt lat="42.76906" lon="1.53069">
        <ele>1306.2</ele>
        <time>2021-09-19T13:45:05Z</time>
      </trkpt>
      <trkpt lat="42.76906" lon="1.53071">
        <ele>1306.2</ele>
        <time>2021-09-19T13:45:06Z</time>
      </trkpt>
      <trkpt lat="42.76906" lon="1.53073">
        <ele>1306</ele>
        <time>2021-09-19T13:45:07Z</time>
      </trkpt>
      <trkpt lat="42.76906" lon="1.53077">
        <ele>1306</ele>
        <time>2021-09-19T13:45:09Z</time>
      </trkpt>
      <trkpt lat="42.76907" lon="1.53081">
        <ele>1305.6</ele>
        <time>2021-09-19T13:45:12Z</time>
      </trkpt>
      <trkpt lat="42.76907" lon="1.53083">
        <ele>1305.4</ele>
        <time>2021-09-19T13:45:13Z</time>
      </trkpt>
      <trkpt lat="42.76906" lon="1.53087">
        <ele>1305.2</ele>
        <time>2021-09-19T13:45:17Z</time>
      </trkpt>
      <trkpt lat="42.76906" lon="1.53089">
        <ele>1305.2</ele>
        <time>2021-09-19T13:45:18Z</time>
      </trkpt>
      <trkpt lat="42.76906" lon="1.5309">
        <ele>1305.2</ele>
        <time>2021-09-19T13:45:19Z</time>
      </trkpt>
      <trkpt lat="42.76905" lon="1.531">
        <ele>1305</ele>
        <time>2021-09-19T13:45:24Z</time>
      </trkpt>
      <trkpt lat="42.76905" lon="1.53105">
        <ele>1304.4</ele>
        <time>2021-09-19T13:45:27Z</time>
      </trkpt>
      <trkpt lat="42.76903" lon="1.53112">
        <ele>1304</ele>
        <time>2021-09-19T13:45:32Z</time>
      </trkpt>
      <trkpt lat="42.76906" lon="1.53127">
        <ele>1303.2</ele>
        <time>2021-09-19T13:45:40Z</time>
      </trkpt>
      <trkpt lat="42.76907" lon="1.53128">
        <ele>1303.2</ele>
        <time>2021-09-19T13:45:41Z</time>
      </trkpt>
      <trkpt lat="42.76902" lon="1.53129">
        <ele>1303</ele>
        <time>2021-09-19T13:45:43Z</time>
      </trkpt>
      <trkpt lat="42.76903" lon="1.53138">
        <ele>1303</ele>
        <time>2021-09-19T13:45:48Z</time>
      </trkpt>
      <trkpt lat="42.76909" lon="1.53151">
        <ele>1302.6</ele>
        <time>2021-09-19T13:45:55Z</time>
      </trkpt>
      <trkpt lat="42.76915" lon="1.53158">
        <ele>1302.4</ele>
        <time>2021-09-19T13:46:01Z</time>
      </trkpt>
      <trkpt lat="42.76915" lon="1.53159">
        <ele>1302.4</ele>
        <time>2021-09-19T13:46:02Z</time>
      </trkpt>
      <trkpt lat="42.76915" lon="1.5316">
        <ele>1302.4</ele>
        <time>2021-09-19T13:46:03Z</time>
      </trkpt>
      <trkpt lat="42.76916" lon="1.53167">
        <ele>1302.6</ele>
        <time>2021-09-19T13:46:08Z</time>
      </trkpt>
      <trkpt lat="42.76916" lon="1.5318">
        <ele>1302.6</ele>
        <time>2021-09-19T13:46:17Z</time>
      </trkpt>
      <trkpt lat="42.76916" lon="1.53189">
        <ele>1303</ele>
        <time>2021-09-19T13:46:22Z</time>
      </trkpt>
      <trkpt lat="42.76916" lon="1.53191">
        <ele>1303</ele>
        <time>2021-09-19T13:46:24Z</time>
      </trkpt>
      <trkpt lat="42.76916" lon="1.532">
        <ele>1303.4</ele>
        <time>2021-09-19T13:46:30Z</time>
      </trkpt>
      <trkpt lat="42.76917" lon="1.53206">
        <ele>1303.2</ele>
        <time>2021-09-19T13:46:34Z</time>
      </trkpt>
      <trkpt lat="42.76914" lon="1.53221">
        <ele>1303.2</ele>
        <time>2021-09-19T13:46:43Z</time>
      </trkpt>
      <trkpt lat="42.76913" lon="1.53226">
        <ele>1303</ele>
        <time>2021-09-19T13:46:46Z</time>
      </trkpt>
      <trkpt lat="42.76911" lon="1.53234">
        <ele>1303</ele>
        <time>2021-09-19T13:46:51Z</time>
      </trkpt>
      <trkpt lat="42.7691" lon="1.53245">
        <ele>1302.8</ele>
        <time>2021-09-19T13:46:58Z</time>
      </trkpt>
      <trkpt lat="42.76909" lon="1.53252">
        <ele>1303</ele>
        <time>2021-09-19T13:47:05Z</time>
      </trkpt>
      <trkpt lat="42.76908" lon="1.53261">
        <ele>1303.4</ele>
        <time>2021-09-19T13:47:11Z</time>
      </trkpt>
      <trkpt lat="42.76907" lon="1.53264">
        <ele>1303.8</ele>
        <time>2021-09-19T13:47:13Z</time>
      </trkpt>
      <trkpt lat="42.76904" lon="1.53277">
        <ele>1304.2</ele>
        <time>2021-09-19T13:47:21Z</time>
      </trkpt>
      <trkpt lat="42.76904" lon="1.53278">
        <ele>1304.2</ele>
        <time>2021-09-19T13:47:22Z</time>
      </trkpt>
      <trkpt lat="42.76902" lon="1.53285">
        <ele>1304</ele>
        <time>2021-09-19T13:47:28Z</time>
      </trkpt>
      <trkpt lat="42.76901" lon="1.53296">
        <ele>1304.8</ele>
        <time>2021-09-19T13:47:35Z</time>
      </trkpt>
      <trkpt lat="42.76901" lon="1.53311">
        <ele>1305</ele>
        <time>2021-09-19T13:47:44Z</time>
      </trkpt>
      <trkpt lat="42.76902" lon="1.5332">
        <ele>1305.2</ele>
        <time>2021-09-19T13:47:50Z</time>
      </trkpt>
      <trkpt lat="42.76901" lon="1.53322">
        <ele>1305.2</ele>
        <time>2021-09-19T13:47:51Z</time>
      </trkpt>
      <trkpt lat="42.76898" lon="1.53331">
        <ele>1305.2</ele>
        <time>2021-09-19T13:47:57Z</time>
      </trkpt>
      <trkpt lat="42.76898" lon="1.53332">
        <ele>1305.4</ele>
        <time>2021-09-19T13:47:58Z</time>
      </trkpt>
      <trkpt lat="42.76894" lon="1.53343">
        <ele>1305.8</ele>
        <time>2021-09-19T13:48:06Z</time>
      </trkpt>
      <trkpt lat="42.76894" lon="1.53348">
        <ele>1305.8</ele>
        <time>2021-09-19T13:48:09Z</time>
      </trkpt>
      <trkpt lat="42.76894" lon="1.53351">
        <ele>1305.8</ele>
        <time>2021-09-19T13:48:10Z</time>
      </trkpt>
      <trkpt lat="42.76894" lon="1.5336">
        <ele>1306.4</ele>
        <time>2021-09-19T13:48:15Z</time>
      </trkpt>
      <trkpt lat="42.76896" lon="1.53368">
        <ele>1306.4</ele>
        <time>2021-09-19T13:48:21Z</time>
      </trkpt>
      <trkpt lat="42.76896" lon="1.53372">
        <ele>1306.6</ele>
        <time>2021-09-19T13:48:23Z</time>
      </trkpt>
      <trkpt lat="42.76901" lon="1.53388">
        <ele>1307</ele>
        <time>2021-09-19T13:48:34Z</time>
      </trkpt>
      <trkpt lat="42.76902" lon="1.53389">
        <ele>1307</ele>
        <time>2021-09-19T13:48:35Z</time>
      </trkpt>
      <trkpt lat="42.76904" lon="1.53395">
        <ele>1307.4</ele>
        <time>2021-09-19T13:48:40Z</time>
      </trkpt>
      <trkpt lat="42.76905" lon="1.53397">
        <ele>1307.6</ele>
        <time>2021-09-19T13:48:42Z</time>
      </trkpt>
      <trkpt lat="42.76906" lon="1.534">
        <ele>1307.6</ele>
        <time>2021-09-19T13:48:44Z</time>
      </trkpt>
      <trkpt lat="42.76914" lon="1.53414">
        <ele>1307.8</ele>
        <time>2021-09-19T13:48:55Z</time>
      </trkpt>
      <trkpt lat="42.76917" lon="1.53417">
        <ele>1308.4</ele>
        <time>2021-09-19T13:48:58Z</time>
      </trkpt>
      <trkpt lat="42.76921" lon="1.53423">
        <ele>1308.6</ele>
        <time>2021-09-19T13:49:03Z</time>
      </trkpt>
      <trkpt lat="42.76922" lon="1.53424">
        <ele>1308.6</ele>
        <time>2021-09-19T13:49:04Z</time>
      </trkpt>
      <trkpt lat="42.76928" lon="1.53427">
        <ele>1309</ele>
        <time>2021-09-19T13:49:11Z</time>
      </trkpt>
      <trkpt lat="42.76932" lon="1.5343">
        <ele>1308.6</ele>
        <time>2021-09-19T13:49:14Z</time>
      </trkpt>
      <trkpt lat="42.76941" lon="1.53437">
        <ele>1309.4</ele>
        <time>2021-09-19T13:49:21Z</time>
      </trkpt>
      <trkpt lat="42.76946" lon="1.5344">
        <ele>1309.6</ele>
        <time>2021-09-19T13:49:28Z</time>
      </trkpt>
      <trkpt lat="42.76952" lon="1.53445">
        <ele>1310</ele>
        <time>2021-09-19T13:49:35Z</time>
      </trkpt>
      <trkpt lat="42.76954" lon="1.53449">
        <ele>1310.4</ele>
        <time>2021-09-19T13:49:38Z</time>
      </trkpt>
      <trkpt lat="42.76955" lon="1.53451">
        <ele>1310.8</ele>
        <time>2021-09-19T13:49:40Z</time>
      </trkpt>
      <trkpt lat="42.76958" lon="1.53454">
        <ele>1310.8</ele>
        <time>2021-09-19T13:49:43Z</time>
      </trkpt>
      <trkpt lat="42.76962" lon="1.53463">
        <ele>1311.2</ele>
        <time>2021-09-19T13:49:51Z</time>
      </trkpt>
      <trkpt lat="42.76966" lon="1.5347">
        <ele>1311.4</ele>
        <time>2021-09-19T13:49:58Z</time>
      </trkpt>
      <trkpt lat="42.76967" lon="1.53472">
        <ele>1311.4</ele>
        <time>2021-09-19T13:49:59Z</time>
      </trkpt>
      <trkpt lat="42.76967" lon="1.53474">
        <ele>1311.4</ele>
        <time>2021-09-19T13:50:00Z</time>
      </trkpt>
      <trkpt lat="42.76971" lon="1.5348">
        <ele>1312.2</ele>
        <time>2021-09-19T13:50:06Z</time>
      </trkpt>
      <trkpt lat="42.76973" lon="1.53482">
        <ele>1312.6</ele>
        <time>2021-09-19T13:50:08Z</time>
      </trkpt>
      <trkpt lat="42.76975" lon="1.53485">
        <ele>1312.8</ele>
        <time>2021-09-19T13:50:10Z</time>
      </trkpt>
      <trkpt lat="42.7698" lon="1.53492">
        <ele>1312.4</ele>
        <time>2021-09-19T13:50:15Z</time>
      </trkpt>
      <trkpt lat="42.76987" lon="1.535">
        <ele>1312.4</ele>
        <time>2021-09-19T13:50:23Z</time>
      </trkpt>
      <trkpt lat="42.76993" lon="1.53511">
        <ele>1313.6</ele>
        <time>2021-09-19T13:50:32Z</time>
      </trkpt>
      <trkpt lat="42.76994" lon="1.53512">
        <ele>1313.6</ele>
        <time>2021-09-19T13:50:33Z</time>
      </trkpt>
      <trkpt lat="42.76999" lon="1.53518">
        <ele>1314</ele>
        <time>2021-09-19T13:50:40Z</time>
      </trkpt>
      <trkpt lat="42.77001" lon="1.5352">
        <ele>1314</ele>
        <time>2021-09-19T13:50:42Z</time>
      </trkpt>
      <trkpt lat="42.77002" lon="1.53526">
        <ele>1314.4</ele>
        <time>2021-09-19T13:50:46Z</time>
      </trkpt>
      <trkpt lat="42.77005" lon="1.53531">
        <ele>1314.4</ele>
        <time>2021-09-19T13:50:50Z</time>
      </trkpt>
      <trkpt lat="42.77009" lon="1.53538">
        <ele>1314.8</ele>
        <time>2021-09-19T13:50:56Z</time>
      </trkpt>
      <trkpt lat="42.77011" lon="1.5354">
        <ele>1314.8</ele>
        <time>2021-09-19T13:50:58Z</time>
      </trkpt>
      <trkpt lat="42.77019" lon="1.53552">
        <ele>1314.8</ele>
        <time>2021-09-19T13:51:06Z</time>
      </trkpt>
      <trkpt lat="42.7702" lon="1.53562">
        <ele>1314.8</ele>
        <time>2021-09-19T13:51:12Z</time>
      </trkpt>
      <trkpt lat="42.7702" lon="1.5357">
        <ele>1314.6</ele>
        <time>2021-09-19T13:51:16Z</time>
      </trkpt>
      <trkpt lat="42.77021" lon="1.53576">
        <ele>1314.2</ele>
        <time>2021-09-19T13:51:20Z</time>
      </trkpt>
      <trkpt lat="42.77022" lon="1.53582">
        <ele>1313.8</ele>
        <time>2021-09-19T13:51:24Z</time>
      </trkpt>
      <trkpt lat="42.77023" lon="1.53587">
        <ele>1313.6</ele>
        <time>2021-09-19T13:51:27Z</time>
      </trkpt>
      <trkpt lat="42.77023" lon="1.53589">
        <ele>1313.6</ele>
        <time>2021-09-19T13:51:28Z</time>
      </trkpt>
      <trkpt lat="42.77024" lon="1.5359">
        <ele>1313.6</ele>
        <time>2021-09-19T13:51:29Z</time>
      </trkpt>
      <trkpt lat="42.77024" lon="1.53596">
        <ele>1313.6</ele>
        <time>2021-09-19T13:51:33Z</time>
      </trkpt>
      <trkpt lat="42.77024" lon="1.53597">
        <ele>1313.4</ele>
        <time>2021-09-19T13:51:34Z</time>
      </trkpt>
      <trkpt lat="42.77024" lon="1.536">
        <ele>1313.4</ele>
        <time>2021-09-19T13:51:36Z</time>
      </trkpt>
      <trkpt lat="42.77022" lon="1.5361">
        <ele>1313.6</ele>
        <time>2021-09-19T13:51:42Z</time>
      </trkpt>
      <trkpt lat="42.77025" lon="1.53619">
        <ele>1313.2</ele>
        <time>2021-09-19T13:51:49Z</time>
      </trkpt>
      <trkpt lat="42.77025" lon="1.53621">
        <ele>1313</ele>
        <time>2021-09-19T13:51:51Z</time>
      </trkpt>
      <trkpt lat="42.77027" lon="1.53632">
        <ele>1312.8</ele>
        <time>2021-09-19T13:51:56Z</time>
      </trkpt>
      <trkpt lat="42.77027" lon="1.53634">
        <ele>1312.8</ele>
        <time>2021-09-19T13:51:57Z</time>
      </trkpt>
      <trkpt lat="42.77027" lon="1.53636">
        <ele>1312.6</ele>
        <time>2021-09-19T13:51:59Z</time>
      </trkpt>
      <trkpt lat="42.77027" lon="1.53638">
        <ele>1312</ele>
        <time>2021-09-19T13:52:03Z</time>
      </trkpt>
      <trkpt lat="42.77031" lon="1.53641">
        <ele>1311.8</ele>
        <time>2021-09-19T13:52:07Z</time>
      </trkpt>
      <trkpt lat="42.77032" lon="1.53643">
        <ele>1311.8</ele>
        <time>2021-09-19T13:52:08Z</time>
      </trkpt>
      <trkpt lat="42.77035" lon="1.53648">
        <ele>1311.8</ele>
        <time>2021-09-19T13:52:13Z</time>
      </trkpt>
      <trkpt lat="42.77035" lon="1.53651">
        <ele>1311.4</ele>
        <time>2021-09-19T13:52:15Z</time>
      </trkpt>
      <trkpt lat="42.77036" lon="1.5366">
        <ele>1311.4</ele>
        <time>2021-09-19T13:52:22Z</time>
      </trkpt>
      <trkpt lat="42.77037" lon="1.53667">
        <ele>1310.8</ele>
        <time>2021-09-19T13:52:27Z</time>
      </trkpt>
      <trkpt lat="42.77038" lon="1.53669">
        <ele>1310.6</ele>
        <time>2021-09-19T13:52:29Z</time>
      </trkpt>
      <trkpt lat="42.77042" lon="1.53674">
        <ele>1310.2</ele>
        <time>2021-09-19T13:52:36Z</time>
      </trkpt>
      <trkpt lat="42.77042" lon="1.53674">
        <ele>1309.6</ele>
        <time>2021-09-19T13:52:42Z</time>
      </trkpt>
      <trkpt lat="42.77042" lon="1.53674">
        <ele>1309.4</ele>
        <time>2021-09-19T13:52:44Z</time>
      </trkpt>
      <trkpt lat="42.77043" lon="1.53693">
        <ele>1308.6</ele>
        <time>2021-09-19T13:53:01Z</time>
      </trkpt>
      <trkpt lat="42.77046" lon="1.53697">
        <ele>1309.2</ele>
        <time>2021-09-19T13:53:12Z</time>
      </trkpt>
      <trkpt lat="42.7705" lon="1.537">
        <ele>1309</ele>
        <time>2021-09-19T13:53:16Z</time>
      </trkpt>
      <trkpt lat="42.77052" lon="1.53701">
        <ele>1309</ele>
        <time>2021-09-19T13:53:17Z</time>
      </trkpt>
      <trkpt lat="42.77055" lon="1.53703">
        <ele>1308.6</ele>
        <time>2021-09-19T13:53:20Z</time>
      </trkpt>
      <trkpt lat="42.77056" lon="1.53704">
        <ele>1308.6</ele>
        <time>2021-09-19T13:53:21Z</time>
      </trkpt>
      <trkpt lat="42.77057" lon="1.53705">
        <ele>1308.6</ele>
        <time>2021-09-19T13:53:22Z</time>
      </trkpt>
      <trkpt lat="42.7706" lon="1.53708">
        <ele>1308.2</ele>
        <time>2021-09-19T13:53:25Z</time>
      </trkpt>
      <trkpt lat="42.77062" lon="1.5371">
        <ele>1308.2</ele>
        <time>2021-09-19T13:53:27Z</time>
      </trkpt>
      <trkpt lat="42.77061" lon="1.53715">
        <ele>1308.2</ele>
        <time>2021-09-19T13:53:33Z</time>
      </trkpt>
      <trkpt lat="42.7706" lon="1.53718">
        <ele>1308</ele>
        <time>2021-09-19T13:53:35Z</time>
      </trkpt>
      <trkpt lat="42.77058" lon="1.53721">
        <ele>1307.6</ele>
        <time>2021-09-19T13:53:38Z</time>
      </trkpt>
      <trkpt lat="42.77058" lon="1.53721">
        <ele>1307.6</ele>
        <time>2021-09-19T13:53:39Z</time>
      </trkpt>
      <trkpt lat="42.77059" lon="1.53722">
        <ele>1307.2</ele>
        <time>2021-09-19T13:53:41Z</time>
      </trkpt>
      <trkpt lat="42.77062" lon="1.53723">
        <ele>1306.4</ele>
        <time>2021-09-19T13:53:44Z</time>
      </trkpt>
      <trkpt lat="42.77065" lon="1.53726">
        <ele>1306.4</ele>
        <time>2021-09-19T13:53:47Z</time>
      </trkpt>
      <trkpt lat="42.77067" lon="1.53727">
        <ele>1306.6</ele>
        <time>2021-09-19T13:53:48Z</time>
      </trkpt>
      <trkpt lat="42.7707" lon="1.53729">
        <ele>1306.6</ele>
        <time>2021-09-19T13:53:50Z</time>
      </trkpt>
      <trkpt lat="42.77076" lon="1.53733">
        <ele>1306.4</ele>
        <time>2021-09-19T13:53:53Z</time>
      </trkpt>
      <trkpt lat="42.77077" lon="1.53734">
        <ele>1306.2</ele>
        <time>2021-09-19T13:53:54Z</time>
      </trkpt>
      <trkpt lat="42.77079" lon="1.53736">
        <ele>1306.2</ele>
        <time>2021-09-19T13:53:55Z</time>
      </trkpt>
      <trkpt lat="42.77084" lon="1.53742">
        <ele>1305.8</ele>
        <time>2021-09-19T13:53:59Z</time>
      </trkpt>
      <trkpt lat="42.77086" lon="1.53744">
        <ele>1305.4</ele>
        <time>2021-09-19T13:54:01Z</time>
      </trkpt>
      <trkpt lat="42.77087" lon="1.53745">
        <ele>1305.4</ele>
        <time>2021-09-19T13:54:02Z</time>
      </trkpt>
      <trkpt lat="42.77089" lon="1.53745">
        <ele>1305.2</ele>
        <time>2021-09-19T13:54:05Z</time>
      </trkpt>
      <trkpt lat="42.77089" lon="1.53748">
        <ele>1305.4</ele>
        <time>2021-09-19T13:54:09Z</time>
      </trkpt>
      <trkpt lat="42.77096" lon="1.53759">
        <ele>1305</ele>
        <time>2021-09-19T13:54:14Z</time>
      </trkpt>
      <trkpt lat="42.771" lon="1.53762">
        <ele>1304.2</ele>
        <time>2021-09-19T13:54:16Z</time>
      </trkpt>
      <trkpt lat="42.77101" lon="1.53763">
        <ele>1304</ele>
        <time>2021-09-19T13:54:17Z</time>
      </trkpt>
      <trkpt lat="42.77107" lon="1.53766">
        <ele>1304.6</ele>
        <time>2021-09-19T13:54:24Z</time>
      </trkpt>
      <trkpt lat="42.7711" lon="1.53769">
        <ele>1304.4</ele>
        <time>2021-09-19T13:54:26Z</time>
      </trkpt>
      <trkpt lat="42.77117" lon="1.53774">
        <ele>1303.8</ele>
        <time>2021-09-19T13:54:33Z</time>
      </trkpt>
      <trkpt lat="42.77123" lon="1.53782">
        <ele>1303.6</ele>
        <time>2021-09-19T13:54:38Z</time>
      </trkpt>
      <trkpt lat="42.77124" lon="1.53784">
        <ele>1303.6</ele>
        <time>2021-09-19T13:54:40Z</time>
      </trkpt>
      <trkpt lat="42.77128" lon="1.5379">
        <ele>1303.4</ele>
        <time>2021-09-19T13:54:45Z</time>
      </trkpt>
      <trkpt lat="42.77129" lon="1.53792">
        <ele>1303</ele>
        <time>2021-09-19T13:54:46Z</time>
      </trkpt>
      <trkpt lat="42.77135" lon="1.53799">
        <ele>1302.6</ele>
        <time>2021-09-19T13:54:52Z</time>
      </trkpt>
      <trkpt lat="42.77142" lon="1.53806">
        <ele>1302</ele>
        <time>2021-09-19T13:54:59Z</time>
      </trkpt>
      <trkpt lat="42.77143" lon="1.53809">
        <ele>1301.6</ele>
        <time>2021-09-19T13:55:01Z</time>
      </trkpt>
      <trkpt lat="42.77145" lon="1.53815">
        <ele>1301.6</ele>
        <time>2021-09-19T13:55:07Z</time>
      </trkpt>
      <trkpt lat="42.77145" lon="1.53819">
        <ele>1301.6</ele>
        <time>2021-09-19T13:55:10Z</time>
      </trkpt>
      <trkpt lat="42.77148" lon="1.53827">
        <ele>1301.4</ele>
        <time>2021-09-19T13:55:14Z</time>
      </trkpt>
      <trkpt lat="42.7715" lon="1.53831">
        <ele>1301.4</ele>
        <time>2021-09-19T13:55:17Z</time>
      </trkpt>
      <trkpt lat="42.77158" lon="1.53845">
        <ele>1301</ele>
        <time>2021-09-19T13:55:28Z</time>
      </trkpt>
      <trkpt lat="42.77161" lon="1.53852">
        <ele>1301</ele>
        <time>2021-09-19T13:55:33Z</time>
      </trkpt>
      <trkpt lat="42.77163" lon="1.53856">
        <ele>1300.6</ele>
        <time>2021-09-19T13:55:35Z</time>
      </trkpt>
      <trkpt lat="42.77169" lon="1.53867">
        <ele>1300</ele>
        <time>2021-09-19T13:55:42Z</time>
      </trkpt>
      <trkpt lat="42.77169" lon="1.5387">
        <ele>1300</ele>
        <time>2021-09-19T13:55:44Z</time>
      </trkpt>
      <trkpt lat="42.7717" lon="1.53873">
        <ele>1299.4</ele>
        <time>2021-09-19T13:55:47Z</time>
      </trkpt>
      <trkpt lat="42.77171" lon="1.53876">
        <ele>1299.2</ele>
        <time>2021-09-19T13:55:50Z</time>
      </trkpt>
      <trkpt lat="42.77171" lon="1.53879">
        <ele>1299.2</ele>
        <time>2021-09-19T13:55:52Z</time>
      </trkpt>
      <trkpt lat="42.77173" lon="1.53884">
        <ele>1299.4</ele>
        <time>2021-09-19T13:55:56Z</time>
      </trkpt>
      <trkpt lat="42.77176" lon="1.53899">
        <ele>1298.8</ele>
        <time>2021-09-19T13:56:03Z</time>
      </trkpt>
      <trkpt lat="42.77178" lon="1.53912">
        <ele>1298</ele>
        <time>2021-09-19T13:56:11Z</time>
      </trkpt>
      <trkpt lat="42.77179" lon="1.53914">
        <ele>1298.2</ele>
        <time>2021-09-19T13:56:12Z</time>
      </trkpt>
      <trkpt lat="42.77179" lon="1.5392">
        <ele>1297.8</ele>
        <time>2021-09-19T13:56:15Z</time>
      </trkpt>
      <trkpt lat="42.77178" lon="1.53927">
        <ele>1297.6</ele>
        <time>2021-09-19T13:56:19Z</time>
      </trkpt>
      <trkpt lat="42.77176" lon="1.5393">
        <ele>1297.4</ele>
        <time>2021-09-19T13:56:21Z</time>
      </trkpt>
      <trkpt lat="42.77172" lon="1.53934">
        <ele>1296.8</ele>
        <time>2021-09-19T13:56:24Z</time>
      </trkpt>
      <trkpt lat="42.77171" lon="1.53935">
        <ele>1296.8</ele>
        <time>2021-09-19T13:56:25Z</time>
      </trkpt>
      <trkpt lat="42.77168" lon="1.53939">
        <ele>1296.6</ele>
        <time>2021-09-19T13:56:28Z</time>
      </trkpt>
      <trkpt lat="42.77166" lon="1.53943">
        <ele>1297</ele>
        <time>2021-09-19T13:56:32Z</time>
      </trkpt>
      <trkpt lat="42.77166" lon="1.53947">
        <ele>1296.8</ele>
        <time>2021-09-19T13:56:36Z</time>
      </trkpt>
      <trkpt lat="42.77167" lon="1.53953">
        <ele>1296.4</ele>
        <time>2021-09-19T13:56:40Z</time>
      </trkpt>
      <trkpt lat="42.77167" lon="1.53954">
        <ele>1296.4</ele>
        <time>2021-09-19T13:56:41Z</time>
      </trkpt>
      <trkpt lat="42.77168" lon="1.53956">
        <ele>1296.2</ele>
        <time>2021-09-19T13:56:43Z</time>
      </trkpt>
      <trkpt lat="42.77169" lon="1.53958">
        <ele>1296</ele>
        <time>2021-09-19T13:56:48Z</time>
      </trkpt>
      <trkpt lat="42.77169" lon="1.53958">
        <ele>1296</ele>
        <time>2021-09-19T13:56:49Z</time>
      </trkpt>
      <trkpt lat="42.77169" lon="1.53958">
        <ele>1296</ele>
        <time>2021-09-19T13:56:51Z</time>
      </trkpt>
      <trkpt lat="42.7717" lon="1.53957">
        <ele>1296</ele>
        <time>2021-09-19T13:56:53Z</time>
      </trkpt>
      <trkpt lat="42.7717" lon="1.53956">
        <ele>1296</ele>
        <time>2021-09-19T13:56:54Z</time>
      </trkpt>
      <trkpt lat="42.77171" lon="1.53953">
        <ele>1296</ele>
        <time>2021-09-19T13:56:56Z</time>
      </trkpt>
      <trkpt lat="42.77171" lon="1.53951">
        <ele>1295.8</ele>
        <time>2021-09-19T13:56:59Z</time>
      </trkpt>
      <trkpt lat="42.77169" lon="1.53952">
        <ele>1295.8</ele>
        <time>2021-09-19T13:57:02Z</time>
      </trkpt>
      <trkpt lat="42.77168" lon="1.53954">
        <ele>1295.4</ele>
        <time>2021-09-19T13:57:05Z</time>
      </trkpt>
      <trkpt lat="42.77165" lon="1.53957">
        <ele>1295</ele>
        <time>2021-09-19T13:57:09Z</time>
      </trkpt>
      <trkpt lat="42.77165" lon="1.53958">
        <ele>1294.8</ele>
        <time>2021-09-19T13:57:11Z</time>
      </trkpt>
      <trkpt lat="42.77164" lon="1.53958">
        <ele>1294.8</ele>
        <time>2021-09-19T13:57:13Z</time>
      </trkpt>
      <trkpt lat="42.77164" lon="1.53959">
        <ele>1294.6</ele>
        <time>2021-09-19T13:57:14Z</time>
      </trkpt>
      <trkpt lat="42.77164" lon="1.53959">
        <ele>1294.6</ele>
        <time>2021-09-19T13:57:15Z</time>
      </trkpt>
      <trkpt lat="42.77164" lon="1.53959">
        <ele>1294.6</ele>
        <time>2021-09-19T13:57:16Z</time>
      </trkpt>
      <trkpt lat="42.77166" lon="1.5396">
        <ele>1294.4</ele>
        <time>2021-09-19T13:57:21Z</time>
      </trkpt>
      <trkpt lat="42.77166" lon="1.5396">
        <ele>1294.6</ele>
        <time>2021-09-19T13:57:23Z</time>
      </trkpt>
      <trkpt lat="42.77165" lon="1.53958">
        <ele>1294.6</ele>
        <time>2021-09-19T13:57:29Z</time>
      </trkpt>
      <trkpt lat="42.77166" lon="1.53959">
        <ele>1294.4</ele>
        <time>2021-09-19T13:57:38Z</time>
      </trkpt>
      <trkpt lat="42.77166" lon="1.53957">
        <ele>1294.4</ele>
        <time>2021-09-19T13:57:47Z</time>
      </trkpt>
      <trkpt lat="42.77166" lon="1.53955">
        <ele>1295.2</ele>
        <time>2021-09-19T13:57:54Z</time>
      </trkpt>
      <trkpt lat="42.77167" lon="1.53955">
        <ele>1294.4</ele>
        <time>2021-09-19T13:58:04Z</time>
      </trkpt>
      <trkpt lat="42.77167" lon="1.53956">
        <ele>1294.4</ele>
        <time>2021-09-19T13:58:12Z</time>
      </trkpt>
      <trkpt lat="42.77166" lon="1.53954">
        <ele>1294.6</ele>
        <time>2021-09-19T13:58:20Z</time>
      </trkpt>
      <trkpt lat="42.77165" lon="1.53955">
        <ele>1294.6</ele>
        <time>2021-09-19T13:58:25Z</time>
      </trkpt>
      <trkpt lat="42.77165" lon="1.53955">
        <ele>1294.6</ele>
        <time>2021-09-19T13:58:28Z</time>
      </trkpt>
      <trkpt lat="42.77165" lon="1.53956">
        <ele>1294.6</ele>
        <time>2021-09-19T13:58:29Z</time>
      </trkpt>
      <trkpt lat="42.77164" lon="1.53961">
        <ele>1294.6</ele>
        <time>2021-09-19T13:58:39Z</time>
      </trkpt>
      <trkpt lat="42.77167" lon="1.53962">
        <ele>1294</ele>
        <time>2021-09-19T13:58:46Z</time>
      </trkpt>
      <trkpt lat="42.77168" lon="1.53965">
        <ele>1293.4</ele>
        <time>2021-09-19T13:58:49Z</time>
      </trkpt>
      <trkpt lat="42.7717" lon="1.5397">
        <ele>1293.2</ele>
        <time>2021-09-19T13:58:54Z</time>
      </trkpt>
      <trkpt lat="42.77176" lon="1.5398">
        <ele>1293</ele>
        <time>2021-09-19T13:59:00Z</time>
      </trkpt>
      <trkpt lat="42.77176" lon="1.53981">
        <ele>1293</ele>
        <time>2021-09-19T13:59:01Z</time>
      </trkpt>
      <trkpt lat="42.7718" lon="1.53993">
        <ele>1292.6</ele>
        <time>2021-09-19T13:59:09Z</time>
      </trkpt>
      <trkpt lat="42.77181" lon="1.53999">
        <ele>1292.4</ele>
        <time>2021-09-19T13:59:13Z</time>
      </trkpt>
      <trkpt lat="42.77181" lon="1.54001">
        <ele>1292.2</ele>
        <time>2021-09-19T13:59:15Z</time>
      </trkpt>
      <trkpt lat="42.77181" lon="1.54003">
        <ele>1291.8</ele>
        <time>2021-09-19T13:59:17Z</time>
      </trkpt>
      <trkpt lat="42.77181" lon="1.54005">
        <ele>1291.6</ele>
        <time>2021-09-19T13:59:18Z</time>
      </trkpt>
      <trkpt lat="42.77181" lon="1.54006">
        <ele>1291.6</ele>
        <time>2021-09-19T13:59:19Z</time>
      </trkpt>
      <trkpt lat="42.77182" lon="1.54009">
        <ele>1291.4</ele>
        <time>2021-09-19T13:59:22Z</time>
      </trkpt>
      <trkpt lat="42.77182" lon="1.54011">
        <ele>1291.2</ele>
        <time>2021-09-19T13:59:23Z</time>
      </trkpt>
      <trkpt lat="42.77183" lon="1.54015">
        <ele>1291.4</ele>
        <time>2021-09-19T13:59:26Z</time>
      </trkpt>
      <trkpt lat="42.77183" lon="1.54023">
        <ele>1291</ele>
        <time>2021-09-19T13:59:31Z</time>
      </trkpt>
      <trkpt lat="42.77184" lon="1.54027">
        <ele>1290.8</ele>
        <time>2021-09-19T13:59:35Z</time>
      </trkpt>
      <trkpt lat="42.77185" lon="1.54033">
        <ele>1291</ele>
        <time>2021-09-19T13:59:39Z</time>
      </trkpt>
      <trkpt lat="42.77186" lon="1.5404">
        <ele>1290.4</ele>
        <time>2021-09-19T13:59:43Z</time>
      </trkpt>
      <trkpt lat="42.77187" lon="1.54041">
        <ele>1290.2</ele>
        <time>2021-09-19T13:59:44Z</time>
      </trkpt>
      <trkpt lat="42.7719" lon="1.54051">
        <ele>1289.6</ele>
        <time>2021-09-19T13:59:52Z</time>
      </trkpt>
      <trkpt lat="42.77191" lon="1.54052">
        <ele>1289.6</ele>
        <time>2021-09-19T13:59:53Z</time>
      </trkpt>
      <trkpt lat="42.77196" lon="1.5406">
        <ele>1289.2</ele>
        <time>2021-09-19T13:59:59Z</time>
      </trkpt>
      <trkpt lat="42.77196" lon="1.54061">
        <ele>1289</ele>
        <time>2021-09-19T14:00:00Z</time>
      </trkpt>
      <trkpt lat="42.77203" lon="1.54071">
        <ele>1288.4</ele>
        <time>2021-09-19T14:00:08Z</time>
      </trkpt>
      <trkpt lat="42.77204" lon="1.54073">
        <ele>1288.2</ele>
        <time>2021-09-19T14:00:10Z</time>
      </trkpt>
      <trkpt lat="42.77208" lon="1.54077">
        <ele>1287.6</ele>
        <time>2021-09-19T14:00:15Z</time>
      </trkpt>
      <trkpt lat="42.77209" lon="1.54079">
        <ele>1287.4</ele>
        <time>2021-09-19T14:00:17Z</time>
      </trkpt>
      <trkpt lat="42.7721" lon="1.5408">
        <ele>1287</ele>
        <time>2021-09-19T14:00:19Z</time>
      </trkpt>
      <trkpt lat="42.77213" lon="1.54083">
        <ele>1286.4</ele>
        <time>2021-09-19T14:00:23Z</time>
      </trkpt>
      <trkpt lat="42.77214" lon="1.54086">
        <ele>1286.4</ele>
        <time>2021-09-19T14:00:25Z</time>
      </trkpt>
      <trkpt lat="42.77215" lon="1.54088">
        <ele>1286.4</ele>
        <time>2021-09-19T14:00:27Z</time>
      </trkpt>
      <trkpt lat="42.77217" lon="1.5409">
        <ele>1286.2</ele>
        <time>2021-09-19T14:00:30Z</time>
      </trkpt>
      <trkpt lat="42.77218" lon="1.54091">
        <ele>1286</ele>
        <time>2021-09-19T14:00:31Z</time>
      </trkpt>
      <trkpt lat="42.77219" lon="1.54091">
        <ele>1285.8</ele>
        <time>2021-09-19T14:00:32Z</time>
      </trkpt>
      <trkpt lat="42.77224" lon="1.54092">
        <ele>1285</ele>
        <time>2021-09-19T14:00:36Z</time>
      </trkpt>
      <trkpt lat="42.77227" lon="1.54094">
        <ele>1284.8</ele>
        <time>2021-09-19T14:00:39Z</time>
      </trkpt>
      <trkpt lat="42.7723" lon="1.54096">
        <ele>1283.8</ele>
        <time>2021-09-19T14:00:43Z</time>
      </trkpt>
      <trkpt lat="42.77231" lon="1.54096">
        <ele>1283.6</ele>
        <time>2021-09-19T14:00:44Z</time>
      </trkpt>
      <trkpt lat="42.77231" lon="1.54096">
        <ele>1283.6</ele>
        <time>2021-09-19T14:00:45Z</time>
      </trkpt>
      <trkpt lat="42.77236" lon="1.54097">
        <ele>1283</ele>
        <time>2021-09-19T14:00:49Z</time>
      </trkpt>
      <trkpt lat="42.77237" lon="1.54098">
        <ele>1283</ele>
        <time>2021-09-19T14:00:50Z</time>
      </trkpt>
      <trkpt lat="42.77238" lon="1.54098">
        <ele>1282.8</ele>
        <time>2021-09-19T14:00:51Z</time>
      </trkpt>
      <trkpt lat="42.77239" lon="1.54099">
        <ele>1282.4</ele>
        <time>2021-09-19T14:00:52Z</time>
      </trkpt>
      <trkpt lat="42.7724" lon="1.541">
        <ele>1282.4</ele>
        <time>2021-09-19T14:00:53Z</time>
      </trkpt>
      <trkpt lat="42.77245" lon="1.54102">
        <ele>1282.2</ele>
        <time>2021-09-19T14:00:57Z</time>
      </trkpt>
      <trkpt lat="42.77249" lon="1.54104">
        <ele>1281.2</ele>
        <time>2021-09-19T14:01:03Z</time>
      </trkpt>
      <trkpt lat="42.77249" lon="1.54104">
        <ele>1281.2</ele>
        <time>2021-09-19T14:01:04Z</time>
      </trkpt>
      <trkpt lat="42.7725" lon="1.54104">
        <ele>1281</ele>
        <time>2021-09-19T14:01:05Z</time>
      </trkpt>
      <trkpt lat="42.77251" lon="1.54104">
        <ele>1280.8</ele>
        <time>2021-09-19T14:01:07Z</time>
      </trkpt>
      <trkpt lat="42.77251" lon="1.54103">
        <ele>1281.2</ele>
        <time>2021-09-19T14:01:10Z</time>
      </trkpt>
      <trkpt lat="42.77252" lon="1.54102">
        <ele>1281</ele>
        <time>2021-09-19T14:01:12Z</time>
      </trkpt>
      <trkpt lat="42.77251" lon="1.54102">
        <ele>1281.2</ele>
        <time>2021-09-19T14:01:16Z</time>
      </trkpt>
      <trkpt lat="42.77251" lon="1.54099">
        <ele>1281</ele>
        <time>2021-09-19T14:01:21Z</time>
      </trkpt>
      <trkpt lat="42.77251" lon="1.54098">
        <ele>1281</ele>
        <time>2021-09-19T14:01:22Z</time>
      </trkpt>
      <trkpt lat="42.77251" lon="1.54097">
        <ele>1281</ele>
        <time>2021-09-19T14:01:24Z</time>
      </trkpt>
      <trkpt lat="42.77251" lon="1.54096">
        <ele>1280.8</ele>
        <time>2021-09-19T14:01:25Z</time>
      </trkpt>
      <trkpt lat="42.77251" lon="1.54096">
        <ele>1280.8</ele>
        <time>2021-09-19T14:01:26Z</time>
      </trkpt>
      <trkpt lat="42.77251" lon="1.54095">
        <ele>1280.6</ele>
        <time>2021-09-19T14:01:28Z</time>
      </trkpt>
      <trkpt lat="42.77251" lon="1.54095">
        <ele>1280.6</ele>
        <time>2021-09-19T14:01:31Z</time>
      </trkpt>
      <trkpt lat="42.77252" lon="1.54095">
        <ele>1280.6</ele>
        <time>2021-09-19T14:01:33Z</time>
      </trkpt>
      <trkpt lat="42.77251" lon="1.54099">
        <ele>1280.4</ele>
        <time>2021-09-19T14:01:42Z</time>
      </trkpt>
      <trkpt lat="42.77252" lon="1.54101">
        <ele>1280.4</ele>
        <time>2021-09-19T14:01:47Z</time>
      </trkpt>
      <trkpt lat="42.77254" lon="1.54103">
        <ele>1280.4</ele>
        <time>2021-09-19T14:01:50Z</time>
      </trkpt>
      <trkpt lat="42.77255" lon="1.54104">
        <ele>1280.6</ele>
        <time>2021-09-19T14:01:51Z</time>
      </trkpt>
      <trkpt lat="42.77258" lon="1.5411">
        <ele>1280.2</ele>
        <time>2021-09-19T14:01:55Z</time>
      </trkpt>
      <trkpt lat="42.77259" lon="1.54111">
        <ele>1280.2</ele>
        <time>2021-09-19T14:01:56Z</time>
      </trkpt>
      <trkpt lat="42.7726" lon="1.54112">
        <ele>1280</ele>
        <time>2021-09-19T14:01:57Z</time>
      </trkpt>
      <trkpt lat="42.77262" lon="1.54113">
        <ele>1279.2</ele>
        <time>2021-09-19T14:01:59Z</time>
      </trkpt>
      <trkpt lat="42.77263" lon="1.54115">
        <ele>1279</ele>
        <time>2021-09-19T14:02:00Z</time>
      </trkpt>
      <trkpt lat="42.77265" lon="1.54115">
        <ele>1278.8</ele>
        <time>2021-09-19T14:02:01Z</time>
      </trkpt>
      <trkpt lat="42.7727" lon="1.5412">
        <ele>1277.8</ele>
        <time>2021-09-19T14:02:04Z</time>
      </trkpt>
      <trkpt lat="42.77273" lon="1.54123">
        <ele>1276.8</ele>
        <time>2021-09-19T14:02:06Z</time>
      </trkpt>
      <trkpt lat="42.77275" lon="1.54125">
        <ele>1276.2</ele>
        <time>2021-09-19T14:02:07Z</time>
      </trkpt>
      <trkpt lat="42.77276" lon="1.54126">
        <ele>1275.6</ele>
        <time>2021-09-19T14:02:08Z</time>
      </trkpt>
      <trkpt lat="42.77278" lon="1.54128">
        <ele>1275.2</ele>
        <time>2021-09-19T14:02:09Z</time>
      </trkpt>
      <trkpt lat="42.77281" lon="1.5413">
        <ele>1274.8</ele>
        <time>2021-09-19T14:02:10Z</time>
      </trkpt>
      <trkpt lat="42.77283" lon="1.54133">
        <ele>1274.4</ele>
        <time>2021-09-19T14:02:11Z</time>
      </trkpt>
      <trkpt lat="42.77285" lon="1.54136">
        <ele>1273.6</ele>
        <time>2021-09-19T14:02:12Z</time>
      </trkpt>
      <trkpt lat="42.77287" lon="1.54138">
        <ele>1273</ele>
        <time>2021-09-19T14:02:13Z</time>
      </trkpt>
      <trkpt lat="42.77291" lon="1.54141">
        <ele>1272.2</ele>
        <time>2021-09-19T14:02:15Z</time>
      </trkpt>
      <trkpt lat="42.77292" lon="1.54142">
        <ele>1271.8</ele>
        <time>2021-09-19T14:02:16Z</time>
      </trkpt>
      <trkpt lat="42.77293" lon="1.54143">
        <ele>1271.6</ele>
        <time>2021-09-19T14:02:17Z</time>
      </trkpt>
      <trkpt lat="42.77294" lon="1.54144">
        <ele>1271.6</ele>
        <time>2021-09-19T14:02:18Z</time>
      </trkpt>
      <trkpt lat="42.77295" lon="1.54151">
        <ele>1271.2</ele>
        <time>2021-09-19T14:02:22Z</time>
      </trkpt>
      <trkpt lat="42.77295" lon="1.54152">
        <ele>1271</ele>
        <time>2021-09-19T14:02:23Z</time>
      </trkpt>
      <trkpt lat="42.77295" lon="1.54153">
        <ele>1270.6</ele>
        <time>2021-09-19T14:02:24Z</time>
      </trkpt>
      <trkpt lat="42.77293" lon="1.54158">
        <ele>1270.2</ele>
        <time>2021-09-19T14:02:27Z</time>
      </trkpt>
      <trkpt lat="42.77291" lon="1.5416">
        <ele>1269.8</ele>
        <time>2021-09-19T14:02:30Z</time>
      </trkpt>
      <trkpt lat="42.77289" lon="1.54161">
        <ele>1269.6</ele>
        <time>2021-09-19T14:02:32Z</time>
      </trkpt>
      <trkpt lat="42.77287" lon="1.54163">
        <ele>1268.8</ele>
        <time>2021-09-19T14:02:35Z</time>
      </trkpt>
      <trkpt lat="42.77286" lon="1.54164">
        <ele>1268.6</ele>
        <time>2021-09-19T14:02:36Z</time>
      </trkpt>
      <trkpt lat="42.77285" lon="1.54165">
        <ele>1268.2</ele>
        <time>2021-09-19T14:02:37Z</time>
      </trkpt>
      <trkpt lat="42.77285" lon="1.54166">
        <ele>1267.6</ele>
        <time>2021-09-19T14:02:39Z</time>
      </trkpt>
      <trkpt lat="42.77284" lon="1.54168">
        <ele>1267</ele>
        <time>2021-09-19T14:02:41Z</time>
      </trkpt>
      <trkpt lat="42.77284" lon="1.54169">
        <ele>1266.6</ele>
        <time>2021-09-19T14:02:42Z</time>
      </trkpt>
      <trkpt lat="42.77284" lon="1.54171">
        <ele>1266.2</ele>
        <time>2021-09-19T14:02:44Z</time>
      </trkpt>
      <trkpt lat="42.77284" lon="1.54172">
        <ele>1265.8</ele>
        <time>2021-09-19T14:02:45Z</time>
      </trkpt>
      <trkpt lat="42.77283" lon="1.54172">
        <ele>1265.6</ele>
        <time>2021-09-19T14:02:50Z</time>
      </trkpt>
      <trkpt lat="42.7728" lon="1.54173">
        <ele>1265.6</ele>
        <time>2021-09-19T14:02:54Z</time>
      </trkpt>
      <trkpt lat="42.77276" lon="1.54174">
        <ele>1265.4</ele>
        <time>2021-09-19T14:02:57Z</time>
      </trkpt>
      <trkpt lat="42.77272" lon="1.54174">
        <ele>1265</ele>
        <time>2021-09-19T14:03:01Z</time>
      </trkpt>
      <trkpt lat="42.77271" lon="1.54174">
        <ele>1264.8</ele>
        <time>2021-09-19T14:03:02Z</time>
      </trkpt>
      <trkpt lat="42.77269" lon="1.54174">
        <ele>1264.4</ele>
        <time>2021-09-19T14:03:04Z</time>
      </trkpt>
      <trkpt lat="42.77267" lon="1.54174">
        <ele>1263.8</ele>
        <time>2021-09-19T14:03:10Z</time>
      </trkpt>
      <trkpt lat="42.77266" lon="1.54174">
        <ele>1263.6</ele>
        <time>2021-09-19T14:03:12Z</time>
      </trkpt>
      <trkpt lat="42.77265" lon="1.54174">
        <ele>1263.6</ele>
        <time>2021-09-19T14:03:13Z</time>
      </trkpt>
      <trkpt lat="42.77261" lon="1.54174">
        <ele>1263.4</ele>
        <time>2021-09-19T14:03:16Z</time>
      </trkpt>
      <trkpt lat="42.7726" lon="1.54175">
        <ele>1263</ele>
        <time>2021-09-19T14:03:18Z</time>
      </trkpt>
      <trkpt lat="42.77259" lon="1.54174">
        <ele>1262.8</ele>
        <time>2021-09-19T14:03:20Z</time>
      </trkpt>
      <trkpt lat="42.77257" lon="1.54175">
        <ele>1262.8</ele>
        <time>2021-09-19T14:03:22Z</time>
      </trkpt>
      <trkpt lat="42.77255" lon="1.54176">
        <ele>1262.8</ele>
        <time>2021-09-19T14:03:23Z</time>
      </trkpt>
      <trkpt lat="42.77254" lon="1.54177">
        <ele>1262.4</ele>
        <time>2021-09-19T14:03:25Z</time>
      </trkpt>
      <trkpt lat="42.77252" lon="1.54177">
        <ele>1261.6</ele>
        <time>2021-09-19T14:03:27Z</time>
      </trkpt>
      <trkpt lat="42.77252" lon="1.54177">
        <ele>1261.2</ele>
        <time>2021-09-19T14:03:28Z</time>
      </trkpt>
      <trkpt lat="42.7725" lon="1.54178">
        <ele>1260.6</ele>
        <time>2021-09-19T14:03:30Z</time>
      </trkpt>
      <trkpt lat="42.7725" lon="1.54178">
        <ele>1260.2</ele>
        <time>2021-09-19T14:03:31Z</time>
      </trkpt>
      <trkpt lat="42.77247" lon="1.54178">
        <ele>1259.8</ele>
        <time>2021-09-19T14:03:34Z</time>
      </trkpt>
      <trkpt lat="42.77245" lon="1.54178">
        <ele>1259.2</ele>
        <time>2021-09-19T14:03:38Z</time>
      </trkpt>
      <trkpt lat="42.77244" lon="1.54178">
        <ele>1259</ele>
        <time>2021-09-19T14:03:39Z</time>
      </trkpt>
      <trkpt lat="42.77242" lon="1.54179">
        <ele>1258.4</ele>
        <time>2021-09-19T14:03:41Z</time>
      </trkpt>
      <trkpt lat="42.77241" lon="1.54178">
        <ele>1258.4</ele>
        <time>2021-09-19T14:03:42Z</time>
      </trkpt>
      <trkpt lat="42.77237" lon="1.54178">
        <ele>1257.8</ele>
        <time>2021-09-19T14:03:46Z</time>
      </trkpt>
      <trkpt lat="42.77234" lon="1.54177">
        <ele>1257.2</ele>
        <time>2021-09-19T14:03:49Z</time>
      </trkpt>
      <trkpt lat="42.77231" lon="1.54176">
        <ele>1256.8</ele>
        <time>2021-09-19T14:03:51Z</time>
      </trkpt>
      <trkpt lat="42.77227" lon="1.54177">
        <ele>1256.2</ele>
        <time>2021-09-19T14:03:55Z</time>
      </trkpt>
      <trkpt lat="42.77226" lon="1.54177">
        <ele>1256.2</ele>
        <time>2021-09-19T14:03:56Z</time>
      </trkpt>
      <trkpt lat="42.77225" lon="1.54177">
        <ele>1256</ele>
        <time>2021-09-19T14:03:57Z</time>
      </trkpt>
      <trkpt lat="42.77221" lon="1.54177">
        <ele>1255.8</ele>
        <time>2021-09-19T14:04:00Z</time>
      </trkpt>
      <trkpt lat="42.77218" lon="1.54173">
        <ele>1255</ele>
        <time>2021-09-19T14:04:03Z</time>
      </trkpt>
      <trkpt lat="42.77217" lon="1.54173">
        <ele>1254.8</ele>
        <time>2021-09-19T14:04:04Z</time>
      </trkpt>
      <trkpt lat="42.77215" lon="1.54172">
        <ele>1254.6</ele>
        <time>2021-09-19T14:04:05Z</time>
      </trkpt>
      <trkpt lat="42.77212" lon="1.54169">
        <ele>1254</ele>
        <time>2021-09-19T14:04:09Z</time>
      </trkpt>
      <trkpt lat="42.7721" lon="1.54169">
        <ele>1253.8</ele>
        <time>2021-09-19T14:04:12Z</time>
      </trkpt>
      <trkpt lat="42.77209" lon="1.54169">
        <ele>1253.4</ele>
        <time>2021-09-19T14:04:13Z</time>
      </trkpt>
      <trkpt lat="42.77206" lon="1.54169">
        <ele>1252.8</ele>
        <time>2021-09-19T14:04:16Z</time>
      </trkpt>
      <trkpt lat="42.77204" lon="1.5417">
        <ele>1252.4</ele>
        <time>2021-09-19T14:04:18Z</time>
      </trkpt>
      <trkpt lat="42.77203" lon="1.5417">
        <ele>1252.2</ele>
        <time>2021-09-19T14:04:19Z</time>
      </trkpt>
      <trkpt lat="42.772" lon="1.54171">
        <ele>1251.8</ele>
        <time>2021-09-19T14:04:23Z</time>
      </trkpt>
      <trkpt lat="42.77196" lon="1.54171">
        <ele>1251.4</ele>
        <time>2021-09-19T14:04:27Z</time>
      </trkpt>
      <trkpt lat="42.77196" lon="1.54171">
        <ele>1251.2</ele>
        <time>2021-09-19T14:04:28Z</time>
      </trkpt>
      <trkpt lat="42.77194" lon="1.54171">
        <ele>1250.6</ele>
        <time>2021-09-19T14:04:30Z</time>
      </trkpt>
      <trkpt lat="42.77192" lon="1.54171">
        <ele>1250.2</ele>
        <time>2021-09-19T14:04:32Z</time>
      </trkpt>
      <trkpt lat="42.77188" lon="1.54171">
        <ele>1249.4</ele>
        <time>2021-09-19T14:04:36Z</time>
      </trkpt>
      <trkpt lat="42.77187" lon="1.54171">
        <ele>1249.2</ele>
        <time>2021-09-19T14:04:37Z</time>
      </trkpt>
      <trkpt lat="42.77181" lon="1.54172">
        <ele>1248.6</ele>
        <time>2021-09-19T14:04:43Z</time>
      </trkpt>
      <trkpt lat="42.77174" lon="1.54172">
        <ele>1248.2</ele>
        <time>2021-09-19T14:04:49Z</time>
      </trkpt>
      <trkpt lat="42.77174" lon="1.54172">
        <ele>1248</ele>
        <time>2021-09-19T14:04:50Z</time>
      </trkpt>
      <trkpt lat="42.77172" lon="1.54173">
        <ele>1247.4</ele>
        <time>2021-09-19T14:04:52Z</time>
      </trkpt>
      <trkpt lat="42.7717" lon="1.54174">
        <ele>1247</ele>
        <time>2021-09-19T14:04:54Z</time>
      </trkpt>
      <trkpt lat="42.77169" lon="1.54175">
        <ele>1247</ele>
        <time>2021-09-19T14:04:55Z</time>
      </trkpt>
      <trkpt lat="42.77167" lon="1.54175">
        <ele>1246.4</ele>
        <time>2021-09-19T14:04:57Z</time>
      </trkpt>
      <trkpt lat="42.77166" lon="1.54175">
        <ele>1246</ele>
        <time>2021-09-19T14:04:59Z</time>
      </trkpt>
      <trkpt lat="42.77165" lon="1.54175">
        <ele>1245.8</ele>
        <time>2021-09-19T14:05:00Z</time>
      </trkpt>
      <trkpt lat="42.7716" lon="1.54179">
        <ele>1245.2</ele>
        <time>2021-09-19T14:05:06Z</time>
      </trkpt>
      <trkpt lat="42.7716" lon="1.5418">
        <ele>1245</ele>
        <time>2021-09-19T14:05:07Z</time>
      </trkpt>
      <trkpt lat="42.77158" lon="1.5418">
        <ele>1244.6</ele>
        <time>2021-09-19T14:05:09Z</time>
      </trkpt>
      <trkpt lat="42.77153" lon="1.54182">
        <ele>1243.4</ele>
        <time>2021-09-19T14:05:14Z</time>
      </trkpt>
      <trkpt lat="42.7715" lon="1.54183">
        <ele>1242.6</ele>
        <time>2021-09-19T14:05:18Z</time>
      </trkpt>
      <trkpt lat="42.77149" lon="1.54183">
        <ele>1242.4</ele>
        <time>2021-09-19T14:05:19Z</time>
      </trkpt>
      <trkpt lat="42.77148" lon="1.54183">
        <ele>1242</ele>
        <time>2021-09-19T14:05:21Z</time>
      </trkpt>
      <trkpt lat="42.77146" lon="1.54183">
        <ele>1241.8</ele>
        <time>2021-09-19T14:05:23Z</time>
      </trkpt>
      <trkpt lat="42.77143" lon="1.54184">
        <ele>1241</ele>
        <time>2021-09-19T14:05:26Z</time>
      </trkpt>
      <trkpt lat="42.77141" lon="1.54185">
        <ele>1240.4</ele>
        <time>2021-09-19T14:05:29Z</time>
      </trkpt>
      <trkpt lat="42.77139" lon="1.54186">
        <ele>1239.8</ele>
        <time>2021-09-19T14:05:31Z</time>
      </trkpt>
      <trkpt lat="42.77137" lon="1.54186">
        <ele>1239.6</ele>
        <time>2021-09-19T14:05:33Z</time>
      </trkpt>
      <trkpt lat="42.77134" lon="1.54189">
        <ele>1239.2</ele>
        <time>2021-09-19T14:05:37Z</time>
      </trkpt>
      <trkpt lat="42.77133" lon="1.54189">
        <ele>1239</ele>
        <time>2021-09-19T14:05:38Z</time>
      </trkpt>
      <trkpt lat="42.77132" lon="1.54189">
        <ele>1238.8</ele>
        <time>2021-09-19T14:05:39Z</time>
      </trkpt>
      <trkpt lat="42.77132" lon="1.54189">
        <ele>1238.4</ele>
        <time>2021-09-19T14:05:40Z</time>
      </trkpt>
      <trkpt lat="42.77132" lon="1.5419">
        <ele>1238</ele>
        <time>2021-09-19T14:05:42Z</time>
      </trkpt>
      <trkpt lat="42.77131" lon="1.54191">
        <ele>1237.8</ele>
        <time>2021-09-19T14:05:43Z</time>
      </trkpt>
      <trkpt lat="42.77131" lon="1.54191">
        <ele>1237.6</ele>
        <time>2021-09-19T14:05:44Z</time>
      </trkpt>
      <trkpt lat="42.7713" lon="1.54193">
        <ele>1237.4</ele>
        <time>2021-09-19T14:05:45Z</time>
      </trkpt>
      <trkpt lat="42.77128" lon="1.54194">
        <ele>1236.6</ele>
        <time>2021-09-19T14:05:47Z</time>
      </trkpt>
      <trkpt lat="42.77126" lon="1.54195">
        <ele>1236.2</ele>
        <time>2021-09-19T14:05:49Z</time>
      </trkpt>
      <trkpt lat="42.77121" lon="1.54193">
        <ele>1235.4</ele>
        <time>2021-09-19T14:05:53Z</time>
      </trkpt>
      <trkpt lat="42.77118" lon="1.54191">
        <ele>1235</ele>
        <time>2021-09-19T14:05:56Z</time>
      </trkpt>
      <trkpt lat="42.77117" lon="1.54191">
        <ele>1234.8</ele>
        <time>2021-09-19T14:05:57Z</time>
      </trkpt>
      <trkpt lat="42.77113" lon="1.54189">
        <ele>1234.2</ele>
        <time>2021-09-19T14:06:01Z</time>
      </trkpt>
      <trkpt lat="42.77109" lon="1.54186">
        <ele>1234</ele>
        <time>2021-09-19T14:06:05Z</time>
      </trkpt>
      <trkpt lat="42.77106" lon="1.54186">
        <ele>1233.8</ele>
        <time>2021-09-19T14:06:08Z</time>
      </trkpt>
      <trkpt lat="42.77105" lon="1.54188">
        <ele>1233.6</ele>
        <time>2021-09-19T14:06:09Z</time>
      </trkpt>
      <trkpt lat="42.77104" lon="1.5419">
        <ele>1233.2</ele>
        <time>2021-09-19T14:06:12Z</time>
      </trkpt>
      <trkpt lat="42.77104" lon="1.54191">
        <ele>1233</ele>
        <time>2021-09-19T14:06:13Z</time>
      </trkpt>
      <trkpt lat="42.77103" lon="1.54193">
        <ele>1232.6</ele>
        <time>2021-09-19T14:06:15Z</time>
      </trkpt>
      <trkpt lat="42.77103" lon="1.54193">
        <ele>1232.6</ele>
        <time>2021-09-19T14:06:16Z</time>
      </trkpt>
      <trkpt lat="42.77099" lon="1.54192">
        <ele>1232</ele>
        <time>2021-09-19T14:06:21Z</time>
      </trkpt>
      <trkpt lat="42.77098" lon="1.54191">
        <ele>1231.8</ele>
        <time>2021-09-19T14:06:22Z</time>
      </trkpt>
      <trkpt lat="42.77094" lon="1.54191">
        <ele>1230.4</ele>
        <time>2021-09-19T14:06:28Z</time>
      </trkpt>
      <trkpt lat="42.77093" lon="1.54192">
        <ele>1230.2</ele>
        <time>2021-09-19T14:06:29Z</time>
      </trkpt>
      <trkpt lat="42.77091" lon="1.54192">
        <ele>1229.4</ele>
        <time>2021-09-19T14:06:31Z</time>
      </trkpt>
      <trkpt lat="42.77089" lon="1.54192">
        <ele>1228.2</ele>
        <time>2021-09-19T14:06:35Z</time>
      </trkpt>
      <trkpt lat="42.77087" lon="1.54191">
        <ele>1227.6</ele>
        <time>2021-09-19T14:06:37Z</time>
      </trkpt>
      <trkpt lat="42.77085" lon="1.54191">
        <ele>1226.8</ele>
        <time>2021-09-19T14:06:40Z</time>
      </trkpt>
      <trkpt lat="42.77084" lon="1.54192">
        <ele>1226.6</ele>
        <time>2021-09-19T14:06:42Z</time>
      </trkpt>
      <trkpt lat="42.77083" lon="1.54192">
        <ele>1226</ele>
        <time>2021-09-19T14:06:45Z</time>
      </trkpt>
      <trkpt lat="42.77082" lon="1.54193">
        <ele>1225.8</ele>
        <time>2021-09-19T14:06:46Z</time>
      </trkpt>
      <trkpt lat="42.77081" lon="1.54198">
        <ele>1224.8</ele>
        <time>2021-09-19T14:06:51Z</time>
      </trkpt>
      <trkpt lat="42.77081" lon="1.54199">
        <ele>1224.4</ele>
        <time>2021-09-19T14:06:52Z</time>
      </trkpt>
      <trkpt lat="42.77079" lon="1.542">
        <ele>1223.6</ele>
        <time>2021-09-19T14:06:56Z</time>
      </trkpt>
      <trkpt lat="42.77078" lon="1.542">
        <ele>1222.8</ele>
        <time>2021-09-19T14:06:58Z</time>
      </trkpt>
      <trkpt lat="42.77077" lon="1.54201">
        <ele>1222.6</ele>
        <time>2021-09-19T14:07:00Z</time>
      </trkpt>
      <trkpt lat="42.77077" lon="1.54201">
        <ele>1222.4</ele>
        <time>2021-09-19T14:07:01Z</time>
      </trkpt>
      <trkpt lat="42.77073" lon="1.54203">
        <ele>1221.2</ele>
        <time>2021-09-19T14:07:06Z</time>
      </trkpt>
      <trkpt lat="42.77071" lon="1.54203">
        <ele>1220.8</ele>
        <time>2021-09-19T14:07:08Z</time>
      </trkpt>
      <trkpt lat="42.77062" lon="1.54208">
        <ele>1220.2</ele>
        <time>2021-09-19T14:07:15Z</time>
      </trkpt>
      <trkpt lat="42.77061" lon="1.54208">
        <ele>1220</ele>
        <time>2021-09-19T14:07:16Z</time>
      </trkpt>
      <trkpt lat="42.77059" lon="1.54209">
        <ele>1219.6</ele>
        <time>2021-09-19T14:07:18Z</time>
      </trkpt>
      <trkpt lat="42.77056" lon="1.54209">
        <ele>1219</ele>
        <time>2021-09-19T14:07:20Z</time>
      </trkpt>
      <trkpt lat="42.77053" lon="1.5421">
        <ele>1218.2</ele>
        <time>2021-09-19T14:07:23Z</time>
      </trkpt>
      <trkpt lat="42.77052" lon="1.54211">
        <ele>1217.8</ele>
        <time>2021-09-19T14:07:25Z</time>
      </trkpt>
      <trkpt lat="42.77047" lon="1.54213">
        <ele>1216.8</ele>
        <time>2021-09-19T14:07:31Z</time>
      </trkpt>
      <trkpt lat="42.77047" lon="1.54213">
        <ele>1216.6</ele>
        <time>2021-09-19T14:07:32Z</time>
      </trkpt>
      <trkpt lat="42.77045" lon="1.54214">
        <ele>1216.2</ele>
        <time>2021-09-19T14:07:35Z</time>
      </trkpt>
      <trkpt lat="42.77043" lon="1.54215">
        <ele>1215.6</ele>
        <time>2021-09-19T14:07:37Z</time>
      </trkpt>
      <trkpt lat="42.77041" lon="1.54216">
        <ele>1215.4</ele>
        <time>2021-09-19T14:07:39Z</time>
      </trkpt>
      <trkpt lat="42.77041" lon="1.54217">
        <ele>1215.4</ele>
        <time>2021-09-19T14:07:40Z</time>
      </trkpt>
      <trkpt lat="42.7704" lon="1.54218">
        <ele>1215.4</ele>
        <time>2021-09-19T14:07:41Z</time>
      </trkpt>
      <trkpt lat="42.77036" lon="1.54221">
        <ele>1214.8</ele>
        <time>2021-09-19T14:07:46Z</time>
      </trkpt>
      <trkpt lat="42.77035" lon="1.54222">
        <ele>1214.6</ele>
        <time>2021-09-19T14:07:47Z</time>
      </trkpt>
      <trkpt lat="42.77035" lon="1.54222">
        <ele>1214.4</ele>
        <time>2021-09-19T14:07:48Z</time>
      </trkpt>
      <trkpt lat="42.77032" lon="1.54225">
        <ele>1213.2</ele>
        <time>2021-09-19T14:07:51Z</time>
      </trkpt>
      <trkpt lat="42.77031" lon="1.54226">
        <ele>1213</ele>
        <time>2021-09-19T14:07:52Z</time>
      </trkpt>
      <trkpt lat="42.77029" lon="1.5423">
        <ele>1212.8</ele>
        <time>2021-09-19T14:07:55Z</time>
      </trkpt>
      <trkpt lat="42.77029" lon="1.54231">
        <ele>1212.6</ele>
        <time>2021-09-19T14:07:56Z</time>
      </trkpt>
      <trkpt lat="42.77027" lon="1.54233">
        <ele>1212.2</ele>
        <time>2021-09-19T14:07:58Z</time>
      </trkpt>
      <trkpt lat="42.77027" lon="1.54234">
        <ele>1212.2</ele>
        <time>2021-09-19T14:07:59Z</time>
      </trkpt>
      <trkpt lat="42.77024" lon="1.54239">
        <ele>1211.4</ele>
        <time>2021-09-19T14:08:03Z</time>
      </trkpt>
      <trkpt lat="42.77022" lon="1.54241">
        <ele>1211</ele>
        <time>2021-09-19T14:08:05Z</time>
      </trkpt>
      <trkpt lat="42.7702" lon="1.54244">
        <ele>1209.6</ele>
        <time>2021-09-19T14:08:08Z</time>
      </trkpt>
      <trkpt lat="42.77019" lon="1.54244">
        <ele>1209.4</ele>
        <time>2021-09-19T14:08:09Z</time>
      </trkpt>
      <trkpt lat="42.77017" lon="1.54247">
        <ele>1208.8</ele>
        <time>2021-09-19T14:08:13Z</time>
      </trkpt>
      <trkpt lat="42.77016" lon="1.54248">
        <ele>1208.4</ele>
        <time>2021-09-19T14:08:15Z</time>
      </trkpt>
      <trkpt lat="42.77016" lon="1.54248">
        <ele>1208</ele>
        <time>2021-09-19T14:08:16Z</time>
      </trkpt>
      <trkpt lat="42.77015" lon="1.54252">
        <ele>1207.4</ele>
        <time>2021-09-19T14:08:19Z</time>
      </trkpt>
      <trkpt lat="42.77014" lon="1.54256">
        <ele>1206</ele>
        <time>2021-09-19T14:08:22Z</time>
      </trkpt>
      <trkpt lat="42.77013" lon="1.54258">
        <ele>1205</ele>
        <time>2021-09-19T14:08:24Z</time>
      </trkpt>
      <trkpt lat="42.77012" lon="1.54259">
        <ele>1204.4</ele>
        <time>2021-09-19T14:08:25Z</time>
      </trkpt>
      <trkpt lat="42.7701" lon="1.5426">
        <ele>1203.8</ele>
        <time>2021-09-19T14:08:27Z</time>
      </trkpt>
      <trkpt lat="42.77007" lon="1.54266">
        <ele>1203</ele>
        <time>2021-09-19T14:08:32Z</time>
      </trkpt>
      <trkpt lat="42.77007" lon="1.54266">
        <ele>1202.4</ele>
        <time>2021-09-19T14:08:33Z</time>
      </trkpt>
      <trkpt lat="42.77005" lon="1.5427">
        <ele>1201.4</ele>
        <time>2021-09-19T14:08:37Z</time>
      </trkpt>
      <trkpt lat="42.77003" lon="1.54273">
        <ele>1200.6</ele>
        <time>2021-09-19T14:08:39Z</time>
      </trkpt>
      <trkpt lat="42.77003" lon="1.54274">
        <ele>1200.2</ele>
        <time>2021-09-19T14:08:40Z</time>
      </trkpt>
      <trkpt lat="42.77001" lon="1.54279">
        <ele>1199.2</ele>
        <time>2021-09-19T14:08:45Z</time>
      </trkpt>
      <trkpt lat="42.76996" lon="1.54286">
        <ele>1198</ele>
        <time>2021-09-19T14:08:49Z</time>
      </trkpt>
      <trkpt lat="42.76994" lon="1.54289">
        <ele>1197.4</ele>
        <time>2021-09-19T14:08:52Z</time>
      </trkpt>
      <trkpt lat="42.76993" lon="1.54289">
        <ele>1196.8</ele>
        <time>2021-09-19T14:08:55Z</time>
      </trkpt>
      <trkpt lat="42.76993" lon="1.5429">
        <ele>1196.6</ele>
        <time>2021-09-19T14:08:56Z</time>
      </trkpt>
      <trkpt lat="42.76993" lon="1.54293">
        <ele>1196.2</ele>
        <time>2021-09-19T14:08:59Z</time>
      </trkpt>
      <trkpt lat="42.76994" lon="1.54298">
        <ele>1195.8</ele>
        <time>2021-09-19T14:09:02Z</time>
      </trkpt>
      <trkpt lat="42.76995" lon="1.54299">
        <ele>1195.8</ele>
        <time>2021-09-19T14:09:03Z</time>
      </trkpt>
      <trkpt lat="42.76997" lon="1.54302">
        <ele>1195.2</ele>
        <time>2021-09-19T14:09:05Z</time>
      </trkpt>
      <trkpt lat="42.76998" lon="1.54303">
        <ele>1194.6</ele>
        <time>2021-09-19T14:09:07Z</time>
      </trkpt>
      <trkpt lat="42.76999" lon="1.54305">
        <ele>1194</ele>
        <time>2021-09-19T14:09:09Z</time>
      </trkpt>
      <trkpt lat="42.77001" lon="1.54307">
        <ele>1193.6</ele>
        <time>2021-09-19T14:09:12Z</time>
      </trkpt>
      <trkpt lat="42.77003" lon="1.54311">
        <ele>1192.8</ele>
        <time>2021-09-19T14:09:15Z</time>
      </trkpt>
      <trkpt lat="42.77003" lon="1.54312">
        <ele>1192.6</ele>
        <time>2021-09-19T14:09:16Z</time>
      </trkpt>
      <trkpt lat="42.77005" lon="1.54313">
        <ele>1192.4</ele>
        <time>2021-09-19T14:09:18Z</time>
      </trkpt>
      <trkpt lat="42.77007" lon="1.54316">
        <ele>1191.8</ele>
        <time>2021-09-19T14:09:22Z</time>
      </trkpt>
      <trkpt lat="42.77009" lon="1.54317">
        <ele>1191.4</ele>
        <time>2021-09-19T14:09:24Z</time>
      </trkpt>
      <trkpt lat="42.77009" lon="1.54318">
        <ele>1191</ele>
        <time>2021-09-19T14:09:25Z</time>
      </trkpt>
      <trkpt lat="42.77012" lon="1.5432">
        <ele>1190.6</ele>
        <time>2021-09-19T14:09:28Z</time>
      </trkpt>
      <trkpt lat="42.77014" lon="1.54321">
        <ele>1190</ele>
        <time>2021-09-19T14:09:32Z</time>
      </trkpt>
      <trkpt lat="42.77021" lon="1.54324">
        <ele>1188.8</ele>
        <time>2021-09-19T14:09:39Z</time>
      </trkpt>
      <trkpt lat="42.77022" lon="1.54325">
        <ele>1188.6</ele>
        <time>2021-09-19T14:09:40Z</time>
      </trkpt>
      <trkpt lat="42.77025" lon="1.54326">
        <ele>1187.8</ele>
        <time>2021-09-19T14:09:43Z</time>
      </trkpt>
      <trkpt lat="42.77025" lon="1.54326">
        <ele>1187.6</ele>
        <time>2021-09-19T14:09:44Z</time>
      </trkpt>
      <trkpt lat="42.77029" lon="1.54327">
        <ele>1186.6</ele>
        <time>2021-09-19T14:09:48Z</time>
      </trkpt>
      <trkpt lat="42.7703" lon="1.54327">
        <ele>1186.4</ele>
        <time>2021-09-19T14:09:49Z</time>
      </trkpt>
      <trkpt lat="42.77032" lon="1.54327">
        <ele>1186.2</ele>
        <time>2021-09-19T14:09:50Z</time>
      </trkpt>
      <trkpt lat="42.77037" lon="1.54326">
        <ele>1185.6</ele>
        <time>2021-09-19T14:09:54Z</time>
      </trkpt>
      <trkpt lat="42.77038" lon="1.54325">
        <ele>1185.2</ele>
        <time>2021-09-19T14:09:55Z</time>
      </trkpt>
      <trkpt lat="42.77043" lon="1.54324">
        <ele>1184.4</ele>
        <time>2021-09-19T14:09:59Z</time>
      </trkpt>
      <trkpt lat="42.77045" lon="1.54325">
        <ele>1184.2</ele>
        <time>2021-09-19T14:10:01Z</time>
      </trkpt>
      <trkpt lat="42.7705" lon="1.54324">
        <ele>1183.6</ele>
        <time>2021-09-19T14:10:06Z</time>
      </trkpt>
      <trkpt lat="42.77051" lon="1.54324">
        <ele>1183.4</ele>
        <time>2021-09-19T14:10:07Z</time>
      </trkpt>
      <trkpt lat="42.77053" lon="1.54324">
        <ele>1183</ele>
        <time>2021-09-19T14:10:09Z</time>
      </trkpt>
      <trkpt lat="42.77054" lon="1.54323">
        <ele>1182.8</ele>
        <time>2021-09-19T14:10:10Z</time>
      </trkpt>
      <trkpt lat="42.77057" lon="1.54324">
        <ele>1182.8</ele>
        <time>2021-09-19T14:10:12Z</time>
      </trkpt>
      <trkpt lat="42.77064" lon="1.54325">
        <ele>1182.4</ele>
        <time>2021-09-19T14:10:16Z</time>
      </trkpt>
      <trkpt lat="42.77066" lon="1.54326">
        <ele>1182.2</ele>
        <time>2021-09-19T14:10:17Z</time>
      </trkpt>
      <trkpt lat="42.77072" lon="1.54329">
        <ele>1181.2</ele>
        <time>2021-09-19T14:10:21Z</time>
      </trkpt>
      <trkpt lat="42.77074" lon="1.54331">
        <ele>1180.6</ele>
        <time>2021-09-19T14:10:24Z</time>
      </trkpt>
      <trkpt lat="42.77076" lon="1.54332">
        <ele>1180.2</ele>
        <time>2021-09-19T14:10:26Z</time>
      </trkpt>
      <trkpt lat="42.77077" lon="1.54333">
        <ele>1179.8</ele>
        <time>2021-09-19T14:10:28Z</time>
      </trkpt>
      <trkpt lat="42.77078" lon="1.54334">
        <ele>1179.2</ele>
        <time>2021-09-19T14:10:30Z</time>
      </trkpt>
      <trkpt lat="42.77079" lon="1.54335">
        <ele>1179</ele>
        <time>2021-09-19T14:10:32Z</time>
      </trkpt>
      <trkpt lat="42.7708" lon="1.54335">
        <ele>1178.8</ele>
        <time>2021-09-19T14:10:33Z</time>
      </trkpt>
      <trkpt lat="42.77081" lon="1.54336">
        <ele>1178.6</ele>
        <time>2021-09-19T14:10:34Z</time>
      </trkpt>
      <trkpt lat="42.77084" lon="1.5434">
        <ele>1177.6</ele>
        <time>2021-09-19T14:10:37Z</time>
      </trkpt>
      <trkpt lat="42.77087" lon="1.54346">
        <ele>1177</ele>
        <time>2021-09-19T14:10:41Z</time>
      </trkpt>
      <trkpt lat="42.77087" lon="1.54348">
        <ele>1176.8</ele>
        <time>2021-09-19T14:10:42Z</time>
      </trkpt>
      <trkpt lat="42.77087" lon="1.54349">
        <ele>1176.6</ele>
        <time>2021-09-19T14:10:43Z</time>
      </trkpt>
      <trkpt lat="42.77089" lon="1.54354">
        <ele>1175.4</ele>
        <time>2021-09-19T14:10:47Z</time>
      </trkpt>
      <trkpt lat="42.77089" lon="1.54355">
        <ele>1175.2</ele>
        <time>2021-09-19T14:10:48Z</time>
      </trkpt>
      <trkpt lat="42.77089" lon="1.54357">
        <ele>1174.8</ele>
        <time>2021-09-19T14:10:49Z</time>
      </trkpt>
      <trkpt lat="42.77089" lon="1.54359">
        <ele>1174.2</ele>
        <time>2021-09-19T14:10:51Z</time>
      </trkpt>
      <trkpt lat="42.7709" lon="1.54366">
        <ele>1173.2</ele>
        <time>2021-09-19T14:10:56Z</time>
      </trkpt>
      <trkpt lat="42.77092" lon="1.54374">
        <ele>1172</ele>
        <time>2021-09-19T14:11:01Z</time>
      </trkpt>
      <trkpt lat="42.77093" lon="1.54378">
        <ele>1171.8</ele>
        <time>2021-09-19T14:11:04Z</time>
      </trkpt>
      <trkpt lat="42.77094" lon="1.54382">
        <ele>1171</ele>
        <time>2021-09-19T14:11:08Z</time>
      </trkpt>
      <trkpt lat="42.77095" lon="1.54384">
        <ele>1170.8</ele>
        <time>2021-09-19T14:11:10Z</time>
      </trkpt>
      <trkpt lat="42.77096" lon="1.54387">
        <ele>1170.4</ele>
        <time>2021-09-19T14:11:12Z</time>
      </trkpt>
      <trkpt lat="42.77097" lon="1.54389">
        <ele>1169.8</ele>
        <time>2021-09-19T14:11:14Z</time>
      </trkpt>
      <trkpt lat="42.77099" lon="1.54397">
        <ele>1169.6</ele>
        <time>2021-09-19T14:11:19Z</time>
      </trkpt>
      <trkpt lat="42.771" lon="1.54402">
        <ele>1169</ele>
        <time>2021-09-19T14:11:22Z</time>
      </trkpt>
      <trkpt lat="42.77102" lon="1.54406">
        <ele>1168.8</ele>
        <time>2021-09-19T14:11:25Z</time>
      </trkpt>
      <trkpt lat="42.77105" lon="1.54412">
        <ele>1167.6</ele>
        <time>2021-09-19T14:11:30Z</time>
      </trkpt>
      <trkpt lat="42.77105" lon="1.54413">
        <ele>1167.4</ele>
        <time>2021-09-19T14:11:31Z</time>
      </trkpt>
      <trkpt lat="42.77106" lon="1.54414">
        <ele>1167.2</ele>
        <time>2021-09-19T14:11:32Z</time>
      </trkpt>
      <trkpt lat="42.77106" lon="1.54415">
        <ele>1167.2</ele>
        <time>2021-09-19T14:11:33Z</time>
      </trkpt>
      <trkpt lat="42.77107" lon="1.5442">
        <ele>1166.8</ele>
        <time>2021-09-19T14:11:37Z</time>
      </trkpt>
      <trkpt lat="42.77107" lon="1.5442">
        <ele>1166.4</ele>
        <time>2021-09-19T14:11:38Z</time>
      </trkpt>
      <trkpt lat="42.77107" lon="1.54424">
        <ele>1165.6</ele>
        <time>2021-09-19T14:11:41Z</time>
      </trkpt>
      <trkpt lat="42.77104" lon="1.5443">
        <ele>1164.8</ele>
        <time>2021-09-19T14:11:44Z</time>
      </trkpt>
      <trkpt lat="42.77102" lon="1.54436">
        <ele>1163.4</ele>
        <time>2021-09-19T14:11:47Z</time>
      </trkpt>
      <trkpt lat="42.77101" lon="1.54439">
        <ele>1163</ele>
        <time>2021-09-19T14:11:49Z</time>
      </trkpt>
      <trkpt lat="42.771" lon="1.54441">
        <ele>1162.8</ele>
        <time>2021-09-19T14:11:50Z</time>
      </trkpt>
      <trkpt lat="42.77099" lon="1.54444">
        <ele>1162.2</ele>
        <time>2021-09-19T14:11:53Z</time>
      </trkpt>
      <trkpt lat="42.77099" lon="1.54446">
        <ele>1161.2</ele>
        <time>2021-09-19T14:11:55Z</time>
      </trkpt>
      <trkpt lat="42.77098" lon="1.54447">
        <ele>1160.8</ele>
        <time>2021-09-19T14:11:56Z</time>
      </trkpt>
      <trkpt lat="42.77097" lon="1.54448">
        <ele>1160.4</ele>
        <time>2021-09-19T14:11:57Z</time>
      </trkpt>
      <trkpt lat="42.77097" lon="1.54449">
        <ele>1160</ele>
        <time>2021-09-19T14:11:58Z</time>
      </trkpt>
      <trkpt lat="42.77096" lon="1.5445">
        <ele>1159.6</ele>
        <time>2021-09-19T14:12:00Z</time>
      </trkpt>
      <trkpt lat="42.77091" lon="1.54455">
        <ele>1159.2</ele>
        <time>2021-09-19T14:12:05Z</time>
      </trkpt>
      <trkpt lat="42.77091" lon="1.54457">
        <ele>1159</ele>
        <time>2021-09-19T14:12:06Z</time>
      </trkpt>
      <trkpt lat="42.7709" lon="1.54459">
        <ele>1158.4</ele>
        <time>2021-09-19T14:12:07Z</time>
      </trkpt>
      <trkpt lat="42.7709" lon="1.5446">
        <ele>1158</ele>
        <time>2021-09-19T14:12:08Z</time>
      </trkpt>
      <trkpt lat="42.77089" lon="1.54463">
        <ele>1157.2</ele>
        <time>2021-09-19T14:12:10Z</time>
      </trkpt>
      <trkpt lat="42.77088" lon="1.54465">
        <ele>1157</ele>
        <time>2021-09-19T14:12:11Z</time>
      </trkpt>
      <trkpt lat="42.77088" lon="1.54468">
        <ele>1156.8</ele>
        <time>2021-09-19T14:12:13Z</time>
      </trkpt>
      <trkpt lat="42.77087" lon="1.54474">
        <ele>1156.2</ele>
        <time>2021-09-19T14:12:16Z</time>
      </trkpt>
      <trkpt lat="42.77086" lon="1.54478">
        <ele>1155</ele>
        <time>2021-09-19T14:12:19Z</time>
      </trkpt>
      <trkpt lat="42.77085" lon="1.54483">
        <ele>1154.4</ele>
        <time>2021-09-19T14:12:22Z</time>
      </trkpt>
      <trkpt lat="42.77085" lon="1.54484">
        <ele>1154.2</ele>
        <time>2021-09-19T14:12:23Z</time>
      </trkpt>
      <trkpt lat="42.77084" lon="1.54485">
        <ele>1154</ele>
        <time>2021-09-19T14:12:24Z</time>
      </trkpt>
      <trkpt lat="42.77082" lon="1.54491">
        <ele>1152.8</ele>
        <time>2021-09-19T14:12:28Z</time>
      </trkpt>
      <trkpt lat="42.77083" lon="1.54493">
        <ele>1152.8</ele>
        <time>2021-09-19T14:12:29Z</time>
      </trkpt>
      <trkpt lat="42.77083" lon="1.54497">
        <ele>1152.4</ele>
        <time>2021-09-19T14:12:31Z</time>
      </trkpt>
      <trkpt lat="42.77082" lon="1.54499">
        <ele>1151.8</ele>
        <time>2021-09-19T14:12:33Z</time>
      </trkpt>
      <trkpt lat="42.77081" lon="1.54502">
        <ele>1151.4</ele>
        <time>2021-09-19T14:12:35Z</time>
      </trkpt>
      <trkpt lat="42.77079" lon="1.54503">
        <ele>1151</ele>
        <time>2021-09-19T14:12:37Z</time>
      </trkpt>
      <trkpt lat="42.77078" lon="1.54503">
        <ele>1150.8</ele>
        <time>2021-09-19T14:12:38Z</time>
      </trkpt>
      <trkpt lat="42.77075" lon="1.54503">
        <ele>1150.4</ele>
        <time>2021-09-19T14:12:41Z</time>
      </trkpt>
      <trkpt lat="42.77073" lon="1.54502">
        <ele>1150</ele>
        <time>2021-09-19T14:12:43Z</time>
      </trkpt>
      <trkpt lat="42.77072" lon="1.54502">
        <ele>1149.8</ele>
        <time>2021-09-19T14:12:44Z</time>
      </trkpt>
      <trkpt lat="42.77071" lon="1.54502">
        <ele>1149.6</ele>
        <time>2021-09-19T14:12:45Z</time>
      </trkpt>
      <trkpt lat="42.77071" lon="1.54501">
        <ele>1149</ele>
        <time>2021-09-19T14:12:46Z</time>
      </trkpt>
      <trkpt lat="42.7707" lon="1.54501">
        <ele>1148.6</ele>
        <time>2021-09-19T14:12:47Z</time>
      </trkpt>
      <trkpt lat="42.77068" lon="1.54499">
        <ele>1148</ele>
        <time>2021-09-19T14:12:49Z</time>
      </trkpt>
      <trkpt lat="42.77066" lon="1.54497">
        <ele>1147.4</ele>
        <time>2021-09-19T14:12:51Z</time>
      </trkpt>
      <trkpt lat="42.7706" lon="1.5449">
        <ele>1146.2</ele>
        <time>2021-09-19T14:12:57Z</time>
      </trkpt>
      <trkpt lat="42.7706" lon="1.54489">
        <ele>1146</ele>
        <time>2021-09-19T14:12:58Z</time>
      </trkpt>
      <trkpt lat="42.77056" lon="1.54484">
        <ele>1145.2</ele>
        <time>2021-09-19T14:13:02Z</time>
      </trkpt>
      <trkpt lat="42.77055" lon="1.54483">
        <ele>1145.2</ele>
        <time>2021-09-19T14:13:03Z</time>
      </trkpt>
      <trkpt lat="42.77051" lon="1.54481">
        <ele>1144.8</ele>
        <time>2021-09-19T14:13:06Z</time>
      </trkpt>
      <trkpt lat="42.77049" lon="1.54481">
        <ele>1144.2</ele>
        <time>2021-09-19T14:13:09Z</time>
      </trkpt>
      <trkpt lat="42.77044" lon="1.54483">
        <ele>1143.4</ele>
        <time>2021-09-19T14:13:13Z</time>
      </trkpt>
      <trkpt lat="42.77043" lon="1.54483">
        <ele>1142.8</ele>
        <time>2021-09-19T14:13:14Z</time>
      </trkpt>
      <trkpt lat="42.77042" lon="1.54484">
        <ele>1142.4</ele>
        <time>2021-09-19T14:13:15Z</time>
      </trkpt>
      <trkpt lat="42.77039" lon="1.54485">
        <ele>1141.6</ele>
        <time>2021-09-19T14:13:17Z</time>
      </trkpt>
      <trkpt lat="42.77036" lon="1.54484">
        <ele>1141.2</ele>
        <time>2021-09-19T14:13:20Z</time>
      </trkpt>
      <trkpt lat="42.77035" lon="1.54483">
        <ele>1141</ele>
        <time>2021-09-19T14:13:22Z</time>
      </trkpt>
      <trkpt lat="42.77035" lon="1.54483">
        <ele>1140.8</ele>
        <time>2021-09-19T14:13:23Z</time>
      </trkpt>
      <trkpt lat="42.77035" lon="1.54483">
        <ele>1140.6</ele>
        <time>2021-09-19T14:13:24Z</time>
      </trkpt>
      <trkpt lat="42.77033" lon="1.54483">
        <ele>1140</ele>
        <time>2021-09-19T14:13:28Z</time>
      </trkpt>
      <trkpt lat="42.77033" lon="1.54484">
        <ele>1139.6</ele>
        <time>2021-09-19T14:13:31Z</time>
      </trkpt>
      <trkpt lat="42.77033" lon="1.54484">
        <ele>1139.6</ele>
        <time>2021-09-19T14:13:32Z</time>
      </trkpt>
      <trkpt lat="42.77034" lon="1.54484">
        <ele>1139.6</ele>
        <time>2021-09-19T14:13:35Z</time>
      </trkpt>
      <trkpt lat="42.77034" lon="1.54485">
        <ele>1139.4</ele>
        <time>2021-09-19T14:13:36Z</time>
      </trkpt>
      <trkpt lat="42.77034" lon="1.54484">
        <ele>1139.6</ele>
        <time>2021-09-19T14:13:41Z</time>
      </trkpt>
      <trkpt lat="42.77034" lon="1.54483">
        <ele>1139.6</ele>
        <time>2021-09-19T14:13:42Z</time>
      </trkpt>
      <trkpt lat="42.77034" lon="1.54483">
        <ele>1139.6</ele>
        <time>2021-09-19T14:13:43Z</time>
      </trkpt>
      <trkpt lat="42.77036" lon="1.5448">
        <ele>1139</ele>
        <time>2021-09-19T14:13:51Z</time>
      </trkpt>
      <trkpt lat="42.77037" lon="1.54478">
        <ele>1138.8</ele>
        <time>2021-09-19T14:13:58Z</time>
      </trkpt>
      <trkpt lat="42.77036" lon="1.54479">
        <ele>1138.8</ele>
        <time>2021-09-19T14:14:00Z</time>
      </trkpt>
      <trkpt lat="42.77036" lon="1.5448">
        <ele>1138.6</ele>
        <time>2021-09-19T14:14:01Z</time>
      </trkpt>
      <trkpt lat="42.77035" lon="1.54482">
        <ele>1138.8</ele>
        <time>2021-09-19T14:14:05Z</time>
      </trkpt>
      <trkpt lat="42.77034" lon="1.54482">
        <ele>1138.8</ele>
        <time>2021-09-19T14:14:08Z</time>
      </trkpt>
      <trkpt lat="42.77033" lon="1.54483">
        <ele>1138.8</ele>
        <time>2021-09-19T14:14:13Z</time>
      </trkpt>
      <trkpt lat="42.77031" lon="1.54483">
        <ele>1138.8</ele>
        <time>2021-09-19T14:14:16Z</time>
      </trkpt>
      <trkpt lat="42.77031" lon="1.54482">
        <ele>1138.8</ele>
        <time>2021-09-19T14:14:17Z</time>
      </trkpt>
      <trkpt lat="42.77029" lon="1.54478">
        <ele>1139.2</ele>
        <time>2021-09-19T14:14:23Z</time>
      </trkpt>
      <trkpt lat="42.7703" lon="1.54476">
        <ele>1139.2</ele>
        <time>2021-09-19T14:14:24Z</time>
      </trkpt>
      <trkpt lat="42.77031" lon="1.54473">
        <ele>1139</ele>
        <time>2021-09-19T14:14:26Z</time>
      </trkpt>
      <trkpt lat="42.77032" lon="1.54471">
        <ele>1138.6</ele>
        <time>2021-09-19T14:14:30Z</time>
      </trkpt>
      <trkpt lat="42.77034" lon="1.54472">
        <ele>1138.6</ele>
        <time>2021-09-19T14:14:32Z</time>
      </trkpt>
      <trkpt lat="42.77035" lon="1.54474">
        <ele>1138.6</ele>
        <time>2021-09-19T14:14:34Z</time>
      </trkpt>
      <trkpt lat="42.77036" lon="1.54474">
        <ele>1138.4</ele>
        <time>2021-09-19T14:14:35Z</time>
      </trkpt>
      <trkpt lat="42.77037" lon="1.54475">
        <ele>1138.4</ele>
        <time>2021-09-19T14:14:36Z</time>
      </trkpt>
      <trkpt lat="42.77039" lon="1.54476">
        <ele>1138.2</ele>
        <time>2021-09-19T14:14:40Z</time>
      </trkpt>
      <trkpt lat="42.77039" lon="1.54477">
        <ele>1138.4</ele>
        <time>2021-09-19T14:14:41Z</time>
      </trkpt>
      <trkpt lat="42.77038" lon="1.54479">
        <ele>1138.2</ele>
        <time>2021-09-19T14:14:49Z</time>
      </trkpt>
      <trkpt lat="42.77037" lon="1.54479">
        <ele>1138.2</ele>
        <time>2021-09-19T14:14:51Z</time>
      </trkpt>
      <trkpt lat="42.77037" lon="1.54479">
        <ele>1138.2</ele>
        <time>2021-09-19T14:14:52Z</time>
      </trkpt>
      <trkpt lat="42.77037" lon="1.54481">
        <ele>1138.2</ele>
        <time>2021-09-19T14:14:55Z</time>
      </trkpt>
      <trkpt lat="42.77038" lon="1.54481">
        <ele>1138.2</ele>
        <time>2021-09-19T14:14:56Z</time>
      </trkpt>
      <trkpt lat="42.77036" lon="1.54478">
        <ele>1137.4</ele>
        <time>2021-09-19T14:15:04Z</time>
      </trkpt>
      <trkpt lat="42.77036" lon="1.54477">
        <ele>1137.2</ele>
        <time>2021-09-19T14:15:05Z</time>
      </trkpt>
      <trkpt lat="42.77035" lon="1.54476">
        <ele>1137</ele>
        <time>2021-09-19T14:15:12Z</time>
      </trkpt>
      <trkpt lat="42.77036" lon="1.54476">
        <ele>1137</ele>
        <time>2021-09-19T14:15:13Z</time>
      </trkpt>
      <trkpt lat="42.77034" lon="1.5448">
        <ele>1137.2</ele>
        <time>2021-09-19T14:15:19Z</time>
      </trkpt>
      <trkpt lat="42.77033" lon="1.5448">
        <ele>1137.4</ele>
        <time>2021-09-19T14:15:23Z</time>
      </trkpt>
      <trkpt lat="42.77033" lon="1.54479">
        <ele>1137.2</ele>
        <time>2021-09-19T14:15:28Z</time>
      </trkpt>
      <trkpt lat="42.77034" lon="1.54481">
        <ele>1137.2</ele>
        <time>2021-09-19T14:15:31Z</time>
      </trkpt>
      <trkpt lat="42.77034" lon="1.54482">
        <ele>1137</ele>
        <time>2021-09-19T14:15:33Z</time>
      </trkpt>
      <trkpt lat="42.77034" lon="1.54481">
        <ele>1136.6</ele>
        <time>2021-09-19T14:15:36Z</time>
      </trkpt>
      <trkpt lat="42.77035" lon="1.54482">
        <ele>1136.4</ele>
        <time>2021-09-19T14:15:41Z</time>
      </trkpt>
      <trkpt lat="42.77036" lon="1.54482">
        <ele>1136.4</ele>
        <time>2021-09-19T14:15:43Z</time>
      </trkpt>
      <trkpt lat="42.77036" lon="1.54482">
        <ele>1136.4</ele>
        <time>2021-09-19T14:15:44Z</time>
      </trkpt>
      <trkpt lat="42.77036" lon="1.54481">
        <ele>1136.4</ele>
        <time>2021-09-19T14:15:45Z</time>
      </trkpt>
      <trkpt lat="42.77036" lon="1.54481">
        <ele>1136</ele>
        <time>2021-09-19T14:15:51Z</time>
      </trkpt>
      <trkpt lat="42.77036" lon="1.54482">
        <ele>1136</ele>
        <time>2021-09-19T14:15:54Z</time>
      </trkpt>
      <trkpt lat="42.77036" lon="1.54483">
        <ele>1136.8</ele>
        <time>2021-09-19T14:16:06Z</time>
      </trkpt>
      <trkpt lat="42.77037" lon="1.54483">
        <ele>1136.6</ele>
        <time>2021-09-19T14:16:12Z</time>
      </trkpt>
      <trkpt lat="42.77037" lon="1.54483">
        <ele>1136.4</ele>
        <time>2021-09-19T14:16:13Z</time>
      </trkpt>
      <trkpt lat="42.77037" lon="1.54483">
        <ele>1136</ele>
        <time>2021-09-19T14:16:19Z</time>
      </trkpt>
      <trkpt lat="42.77036" lon="1.54483">
        <ele>1135.8</ele>
        <time>2021-09-19T14:16:24Z</time>
      </trkpt>
      <trkpt lat="42.77036" lon="1.54482">
        <ele>1135.8</ele>
        <time>2021-09-19T14:16:26Z</time>
      </trkpt>
      <trkpt lat="42.77036" lon="1.5448">
        <ele>1135.4</ele>
        <time>2021-09-19T14:16:31Z</time>
      </trkpt>
      <trkpt lat="42.77036" lon="1.54481">
        <ele>1135.2</ele>
        <time>2021-09-19T14:16:32Z</time>
      </trkpt>
      <trkpt lat="42.77035" lon="1.54482">
        <ele>1135.2</ele>
        <time>2021-09-19T14:16:36Z</time>
      </trkpt>
      <trkpt lat="42.77035" lon="1.54483">
        <ele>1135.8</ele>
        <time>2021-09-19T14:16:39Z</time>
      </trkpt>
      <trkpt lat="42.77035" lon="1.54484">
        <ele>1135.6</ele>
        <time>2021-09-19T14:16:43Z</time>
      </trkpt>
      <trkpt lat="42.77036" lon="1.54483">
        <ele>1135.4</ele>
        <time>2021-09-19T14:16:49Z</time>
      </trkpt>
      <trkpt lat="42.77036" lon="1.5448">
        <ele>1135</ele>
        <time>2021-09-19T14:16:54Z</time>
      </trkpt>
      <trkpt lat="42.77036" lon="1.5448">
        <ele>1135</ele>
        <time>2021-09-19T14:16:57Z</time>
      </trkpt>
      <trkpt lat="42.77036" lon="1.5448">
        <ele>1135</ele>
        <time>2021-09-19T14:16:58Z</time>
      </trkpt>
      <trkpt lat="42.77034" lon="1.54479">
        <ele>1135.4</ele>
        <time>2021-09-19T14:17:10Z</time>
      </trkpt>
      <trkpt lat="42.77035" lon="1.5448">
        <ele>1135.4</ele>
        <time>2021-09-19T14:17:12Z</time>
      </trkpt>
      <trkpt lat="42.77035" lon="1.54481">
        <ele>1136.6</ele>
        <time>2021-09-19T14:17:14Z</time>
      </trkpt>
      <trkpt lat="42.77035" lon="1.54481">
        <ele>1137.8</ele>
        <time>2021-09-19T14:17:16Z</time>
      </trkpt>
      <trkpt lat="42.77036" lon="1.5448">
        <ele>1136.8</ele>
        <time>2021-09-19T14:17:19Z</time>
      </trkpt>
      <trkpt lat="42.77037" lon="1.54479">
        <ele>1136</ele>
        <time>2021-09-19T14:17:20Z</time>
      </trkpt>
      <trkpt lat="42.77038" lon="1.5448">
        <ele>1135</ele>
        <time>2021-09-19T14:17:25Z</time>
      </trkpt>
      <trkpt lat="42.77038" lon="1.54478">
        <ele>1134.4</ele>
        <time>2021-09-19T14:17:29Z</time>
      </trkpt>
      <trkpt lat="42.77038" lon="1.54477">
        <ele>1134.4</ele>
        <time>2021-09-19T14:17:30Z</time>
      </trkpt>
      <trkpt lat="42.77039" lon="1.54477">
        <ele>1134.4</ele>
        <time>2021-09-19T14:17:31Z</time>
      </trkpt>
      <trkpt lat="42.77038" lon="1.54477">
        <ele>1134.4</ele>
        <time>2021-09-19T14:17:32Z</time>
      </trkpt>
      <trkpt lat="42.77039" lon="1.54479">
        <ele>1134.8</ele>
        <time>2021-09-19T14:17:41Z</time>
      </trkpt>
      <trkpt lat="42.77039" lon="1.54481">
        <ele>1134.6</ele>
        <time>2021-09-19T14:17:46Z</time>
      </trkpt>
      <trkpt lat="42.77036" lon="1.54481">
        <ele>1135.2</ele>
        <time>2021-09-19T14:17:53Z</time>
      </trkpt>
      <trkpt lat="42.77035" lon="1.5448">
        <ele>1134.8</ele>
        <time>2021-09-19T14:17:59Z</time>
      </trkpt>
      <trkpt lat="42.77035" lon="1.5448">
        <ele>1134.6</ele>
        <time>2021-09-19T14:18:09Z</time>
      </trkpt>
      <trkpt lat="42.77035" lon="1.54481">
        <ele>1134.8</ele>
        <time>2021-09-19T14:18:14Z</time>
      </trkpt>
      <trkpt lat="42.77036" lon="1.54483">
        <ele>1134.6</ele>
        <time>2021-09-19T14:18:18Z</time>
      </trkpt>
      <trkpt lat="42.77036" lon="1.54481">
        <ele>1134.6</ele>
        <time>2021-09-19T14:18:31Z</time>
      </trkpt>
      <trkpt lat="42.77035" lon="1.54482">
        <ele>1128.2</ele>
        <time>2021-09-19T14:18:34Z</time>
      </trkpt>
      <trkpt lat="42.77035" lon="1.54482">
        <ele>1128.2</ele>
        <time>2021-09-19T14:18:37Z</time>
      </trkpt>
      <trkpt lat="42.77034" lon="1.54482">
        <ele>1131.6</ele>
        <time>2021-09-19T14:18:38Z</time>
      </trkpt>
      <trkpt lat="42.77034" lon="1.54482">
        <ele>1133.2</ele>
        <time>2021-09-19T14:18:39Z</time>
      </trkpt>
      <trkpt lat="42.77035" lon="1.54482">
        <ele>1134.4</ele>
        <time>2021-09-19T14:18:41Z</time>
      </trkpt>
      <trkpt lat="42.77033" lon="1.5448">
        <ele>1134.8</ele>
        <time>2021-09-19T14:18:46Z</time>
      </trkpt>
      <trkpt lat="42.77034" lon="1.54479">
        <ele>1134.8</ele>
        <time>2021-09-19T14:18:49Z</time>
      </trkpt>
      <trkpt lat="42.77035" lon="1.54476">
        <ele>1134.8</ele>
        <time>2021-09-19T14:18:56Z</time>
      </trkpt>
      <trkpt lat="42.77035" lon="1.54479">
        <ele>1134.8</ele>
        <time>2021-09-19T14:19:07Z</time>
      </trkpt>
      <trkpt lat="42.77037" lon="1.54482">
        <ele>1134.8</ele>
        <time>2021-09-19T14:19:14Z</time>
      </trkpt>
      <trkpt lat="42.77035" lon="1.54482">
        <ele>1134.8</ele>
        <time>2021-09-19T14:19:19Z</time>
      </trkpt>
      <trkpt lat="42.77035" lon="1.54482">
        <ele>1134.8</ele>
        <time>2021-09-19T14:19:23Z</time>
      </trkpt>
      <trkpt lat="42.77034" lon="1.54485">
        <ele>1134.8</ele>
        <time>2021-09-19T14:19:30Z</time>
      </trkpt>
      <trkpt lat="42.77037" lon="1.54488">
        <ele>1134.8</ele>
        <time>2021-09-19T14:19:37Z</time>
      </trkpt>
      <trkpt lat="42.77038" lon="1.5449">
        <ele>1134.8</ele>
        <time>2021-09-19T14:19:46Z</time>
      </trkpt>
      <trkpt lat="42.77036" lon="1.54491">
        <ele>1134.8</ele>
        <time>2021-09-19T14:20:01Z</time>
      </trkpt>
      <trkpt lat="42.77038" lon="1.54491">
        <ele>1134.8</ele>
        <time>2021-09-19T14:20:07Z</time>
      </trkpt>
      <trkpt lat="42.77038" lon="1.54492">
        <ele>1134.8</ele>
        <time>2021-09-19T14:20:08Z</time>
      </trkpt>
      <trkpt lat="42.7704" lon="1.54495">
        <ele>1134.8</ele>
        <time>2021-09-19T14:20:12Z</time>
      </trkpt>
      <trkpt lat="42.77039" lon="1.54499">
        <ele>1134.8</ele>
        <time>2021-09-19T14:20:17Z</time>
      </trkpt>
      <trkpt lat="42.77038" lon="1.54499">
        <ele>1134.8</ele>
        <time>2021-09-19T14:20:18Z</time>
      </trkpt>
      <trkpt lat="42.77035" lon="1.54502">
        <ele>1134.8</ele>
        <time>2021-09-19T14:20:22Z</time>
      </trkpt>
      <trkpt lat="42.77034" lon="1.54502">
        <ele>1134.8</ele>
        <time>2021-09-19T14:20:29Z</time>
      </trkpt>
      <trkpt lat="42.77035" lon="1.54503">
        <ele>1134.8</ele>
        <time>2021-09-19T14:20:33Z</time>
      </trkpt>
      <trkpt lat="42.77034" lon="1.54503">
        <ele>1134.8</ele>
        <time>2021-09-19T14:20:36Z</time>
      </trkpt>
      <trkpt lat="42.77032" lon="1.54497">
        <ele>1134.8</ele>
        <time>2021-09-19T14:20:46Z</time>
      </trkpt>
      <trkpt lat="42.77035" lon="1.54498">
        <ele>1134.8</ele>
        <time>2021-09-19T14:20:52Z</time>
      </trkpt>
      <trkpt lat="42.77036" lon="1.54499">
        <ele>1134.8</ele>
        <time>2021-09-19T14:20:53Z</time>
      </trkpt>
      <trkpt lat="42.77041" lon="1.54498">
        <ele>1134.8</ele>
        <time>2021-09-19T14:21:00Z</time>
      </trkpt>
      <trkpt lat="42.77046" lon="1.54503">
        <ele>1134.8</ele>
        <time>2021-09-19T14:21:07Z</time>
      </trkpt>
      <trkpt lat="42.77046" lon="1.54504">
        <ele>1134.8</ele>
        <time>2021-09-19T14:21:08Z</time>
      </trkpt>
      <trkpt lat="42.77047" lon="1.54505">
        <ele>1135</ele>
        <time>2021-09-19T14:21:10Z</time>
      </trkpt>
      <trkpt lat="42.7705" lon="1.54507">
        <ele>1135</ele>
        <time>2021-09-19T14:21:15Z</time>
      </trkpt>
      <trkpt lat="42.77051" lon="1.5451">
        <ele>1135</ele>
        <time>2021-09-19T14:21:18Z</time>
      </trkpt>
      <trkpt lat="42.77054" lon="1.54513">
        <ele>1134.6</ele>
        <time>2021-09-19T14:21:22Z</time>
      </trkpt>
      <trkpt lat="42.77058" lon="1.54519">
        <ele>1134.4</ele>
        <time>2021-09-19T14:21:27Z</time>
      </trkpt>
      <trkpt lat="42.7706" lon="1.54525">
        <ele>1133.8</ele>
        <time>2021-09-19T14:21:32Z</time>
      </trkpt>
      <trkpt lat="42.77061" lon="1.54529">
        <ele>1133.4</ele>
        <time>2021-09-19T14:21:35Z</time>
      </trkpt>
      <trkpt lat="42.77062" lon="1.54533">
        <ele>1133.2</ele>
        <time>2021-09-19T14:21:39Z</time>
      </trkpt>
      <trkpt lat="42.77063" lon="1.54534">
        <ele>1133</ele>
        <time>2021-09-19T14:21:40Z</time>
      </trkpt>
      <trkpt lat="42.77067" lon="1.54543">
        <ele>1132.2</ele>
        <time>2021-09-19T14:21:48Z</time>
      </trkpt>
      <trkpt lat="42.77068" lon="1.54545">
        <ele>1132.2</ele>
        <time>2021-09-19T14:21:50Z</time>
      </trkpt>
      <trkpt lat="42.77074" lon="1.54554">
        <ele>1132</ele>
        <time>2021-09-19T14:21:59Z</time>
      </trkpt>
      <trkpt lat="42.77076" lon="1.5456">
        <ele>1131.4</ele>
        <time>2021-09-19T14:22:04Z</time>
      </trkpt>
      <trkpt lat="42.77077" lon="1.54562">
        <ele>1131.4</ele>
        <time>2021-09-19T14:22:06Z</time>
      </trkpt>
      <trkpt lat="42.77077" lon="1.54563">
        <ele>1131.4</ele>
        <time>2021-09-19T14:22:07Z</time>
      </trkpt>
      <trkpt lat="42.77077" lon="1.54565">
        <ele>1131.2</ele>
        <time>2021-09-19T14:22:08Z</time>
      </trkpt>
      <trkpt lat="42.77078" lon="1.54569">
        <ele>1131</ele>
        <time>2021-09-19T14:22:11Z</time>
      </trkpt>
      <trkpt lat="42.77076" lon="1.54574">
        <ele>1130.8</ele>
        <time>2021-09-19T14:22:15Z</time>
      </trkpt>
      <trkpt lat="42.77073" lon="1.54576">
        <ele>1130.2</ele>
        <time>2021-09-19T14:22:18Z</time>
      </trkpt>
      <trkpt lat="42.77071" lon="1.54577">
        <ele>1130.2</ele>
        <time>2021-09-19T14:22:21Z</time>
      </trkpt>
      <trkpt lat="42.77073" lon="1.54576">
        <ele>1130.6</ele>
        <time>2021-09-19T14:22:27Z</time>
      </trkpt>
      <trkpt lat="42.77077" lon="1.54576">
        <ele>1130.4</ele>
        <time>2021-09-19T14:22:33Z</time>
      </trkpt>
      <trkpt lat="42.7708" lon="1.54577">
        <ele>1130.2</ele>
        <time>2021-09-19T14:22:36Z</time>
      </trkpt>
      <trkpt lat="42.77081" lon="1.54578">
        <ele>1130</ele>
        <time>2021-09-19T14:22:38Z</time>
      </trkpt>
      <trkpt lat="42.77084" lon="1.54582">
        <ele>1129.4</ele>
        <time>2021-09-19T14:22:43Z</time>
      </trkpt>
      <trkpt lat="42.77086" lon="1.54587">
        <ele>1129.2</ele>
        <time>2021-09-19T14:22:47Z</time>
      </trkpt>
      <trkpt lat="42.77087" lon="1.54588">
        <ele>1129.2</ele>
        <time>2021-09-19T14:22:48Z</time>
      </trkpt>
      <trkpt lat="42.77089" lon="1.54595">
        <ele>1128.6</ele>
        <time>2021-09-19T14:22:53Z</time>
      </trkpt>
      <trkpt lat="42.7709" lon="1.546">
        <ele>1128.2</ele>
        <time>2021-09-19T14:22:57Z</time>
      </trkpt>
      <trkpt lat="42.77091" lon="1.54606">
        <ele>1128</ele>
        <time>2021-09-19T14:23:01Z</time>
      </trkpt>
      <trkpt lat="42.77092" lon="1.54616">
        <ele>1127.2</ele>
        <time>2021-09-19T14:23:08Z</time>
      </trkpt>
      <trkpt lat="42.77092" lon="1.54617">
        <ele>1127.2</ele>
        <time>2021-09-19T14:23:09Z</time>
      </trkpt>
      <trkpt lat="42.77092" lon="1.54619">
        <ele>1127</ele>
        <time>2021-09-19T14:23:11Z</time>
      </trkpt>
      <trkpt lat="42.77092" lon="1.54627">
        <ele>1126.2</ele>
        <time>2021-09-19T14:23:17Z</time>
      </trkpt>
      <trkpt lat="42.77092" lon="1.5463">
        <ele>1126</ele>
        <time>2021-09-19T14:23:19Z</time>
      </trkpt>
      <trkpt lat="42.77093" lon="1.54639">
        <ele>1125.6</ele>
        <time>2021-09-19T14:23:24Z</time>
      </trkpt>
      <trkpt lat="42.77093" lon="1.54647">
        <ele>1124.8</ele>
        <time>2021-09-19T14:23:31Z</time>
      </trkpt>
      <trkpt lat="42.77094" lon="1.54651">
        <ele>1124.6</ele>
        <time>2021-09-19T14:23:34Z</time>
      </trkpt>
      <trkpt lat="42.77094" lon="1.54655">
        <ele>1124.2</ele>
        <time>2021-09-19T14:23:38Z</time>
      </trkpt>
      <trkpt lat="42.77094" lon="1.54657">
        <ele>1124.2</ele>
        <time>2021-09-19T14:23:40Z</time>
      </trkpt>
      <trkpt lat="42.77094" lon="1.54658">
        <ele>1124.2</ele>
        <time>2021-09-19T14:23:41Z</time>
      </trkpt>
      <trkpt lat="42.77094" lon="1.5466">
        <ele>1124</ele>
        <time>2021-09-19T14:23:43Z</time>
      </trkpt>
      <trkpt lat="42.77094" lon="1.54662">
        <ele>1123.8</ele>
        <time>2021-09-19T14:23:45Z</time>
      </trkpt>
      <trkpt lat="42.77093" lon="1.54663">
        <ele>1123.6</ele>
        <time>2021-09-19T14:23:48Z</time>
      </trkpt>
      <trkpt lat="42.77092" lon="1.54663">
        <ele>1123.4</ele>
        <time>2021-09-19T14:23:49Z</time>
      </trkpt>
      <trkpt lat="42.77091" lon="1.54662">
        <ele>1123.4</ele>
        <time>2021-09-19T14:23:51Z</time>
      </trkpt>
      <trkpt lat="42.77091" lon="1.54661">
        <ele>1123.4</ele>
        <time>2021-09-19T14:23:53Z</time>
      </trkpt>
      <trkpt lat="42.77091" lon="1.54661">
        <ele>1123.2</ele>
        <time>2021-09-19T14:23:54Z</time>
      </trkpt>
      <trkpt lat="42.77091" lon="1.5466">
        <ele>1123</ele>
        <time>2021-09-19T14:23:55Z</time>
      </trkpt>
      <trkpt lat="42.77088" lon="1.54657">
        <ele>1123.4</ele>
        <time>2021-09-19T14:24:01Z</time>
      </trkpt>
      <trkpt lat="42.77087" lon="1.54656">
        <ele>1123.8</ele>
        <time>2021-09-19T14:24:03Z</time>
      </trkpt>
      <trkpt lat="42.77086" lon="1.5465">
        <ele>1123.4</ele>
        <time>2021-09-19T14:24:08Z</time>
      </trkpt>
      <trkpt lat="42.77085" lon="1.54648">
        <ele>1123.4</ele>
        <time>2021-09-19T14:24:10Z</time>
      </trkpt>
      <trkpt lat="42.77083" lon="1.54639">
        <ele>1123.4</ele>
        <time>2021-09-19T14:24:16Z</time>
      </trkpt>
      <trkpt lat="42.77078" lon="1.54634">
        <ele>1123</ele>
        <time>2021-09-19T14:24:22Z</time>
      </trkpt>
      <trkpt lat="42.77075" lon="1.54626">
        <ele>1123</ele>
        <time>2021-09-19T14:24:28Z</time>
      </trkpt>
      <trkpt lat="42.77074" lon="1.54624">
        <ele>1123</ele>
        <time>2021-09-19T14:24:29Z</time>
      </trkpt>
      <trkpt lat="42.77072" lon="1.54622">
        <ele>1123</ele>
        <time>2021-09-19T14:24:31Z</time>
      </trkpt>
      <trkpt lat="42.77065" lon="1.54619">
        <ele>1122.8</ele>
        <time>2021-09-19T14:24:39Z</time>
      </trkpt>
      <trkpt lat="42.77064" lon="1.54618">
        <ele>1122.6</ele>
        <time>2021-09-19T14:24:40Z</time>
      </trkpt>
      <trkpt lat="42.7706" lon="1.54615">
        <ele>1121.6</ele>
        <time>2021-09-19T14:24:46Z</time>
      </trkpt>
      <trkpt lat="42.77057" lon="1.54614">
        <ele>1121</ele>
        <time>2021-09-19T14:24:49Z</time>
      </trkpt>
      <trkpt lat="42.77057" lon="1.54614">
        <ele>1120.4</ele>
        <time>2021-09-19T14:24:53Z</time>
      </trkpt>
      <trkpt lat="42.77059" lon="1.54615">
        <ele>1119.6</ele>
        <time>2021-09-19T14:24:59Z</time>
      </trkpt>
      <trkpt lat="42.77059" lon="1.54616">
        <ele>1119</ele>
        <time>2021-09-19T14:25:00Z</time>
      </trkpt>
      <trkpt lat="42.77059" lon="1.54617">
        <ele>1118</ele>
        <time>2021-09-19T14:25:04Z</time>
      </trkpt>
      <trkpt lat="42.77058" lon="1.54619">
        <ele>1117.6</ele>
        <time>2021-09-19T14:25:07Z</time>
      </trkpt>
      <trkpt lat="42.77053" lon="1.5462">
        <ele>1117.4</ele>
        <time>2021-09-19T14:25:13Z</time>
      </trkpt>
      <trkpt lat="42.77049" lon="1.5462">
        <ele>1117</ele>
        <time>2021-09-19T14:25:17Z</time>
      </trkpt>
      <trkpt lat="42.77048" lon="1.5462">
        <ele>1116.8</ele>
        <time>2021-09-19T14:25:18Z</time>
      </trkpt>
      <trkpt lat="42.77047" lon="1.54623">
        <ele>1115.8</ele>
        <time>2021-09-19T14:25:25Z</time>
      </trkpt>
      <trkpt lat="42.77048" lon="1.54627">
        <ele>1114.6</ele>
        <time>2021-09-19T14:25:29Z</time>
      </trkpt>
      <trkpt lat="42.77049" lon="1.54628">
        <ele>1114</ele>
        <time>2021-09-19T14:25:31Z</time>
      </trkpt>
      <trkpt lat="42.7705" lon="1.54628">
        <ele>1113.6</ele>
        <time>2021-09-19T14:25:33Z</time>
      </trkpt>
      <trkpt lat="42.77051" lon="1.5463">
        <ele>1113.4</ele>
        <time>2021-09-19T14:25:35Z</time>
      </trkpt>
      <trkpt lat="42.77052" lon="1.54632">
        <ele>1113.4</ele>
        <time>2021-09-19T14:25:36Z</time>
      </trkpt>
      <trkpt lat="42.77053" lon="1.54634">
        <ele>1113.6</ele>
        <time>2021-09-19T14:25:38Z</time>
      </trkpt>
      <trkpt lat="42.77054" lon="1.54639">
        <ele>1113.6</ele>
        <time>2021-09-19T14:25:43Z</time>
      </trkpt>
      <trkpt lat="42.77055" lon="1.54641">
        <ele>1113.6</ele>
        <time>2021-09-19T14:25:45Z</time>
      </trkpt>
      <trkpt lat="42.77059" lon="1.54643">
        <ele>1113.6</ele>
        <time>2021-09-19T14:25:51Z</time>
      </trkpt>
      <trkpt lat="42.77059" lon="1.54644">
        <ele>1113.6</ele>
        <time>2021-09-19T14:25:52Z</time>
      </trkpt>
      <trkpt lat="42.77063" lon="1.54653">
        <ele>1113.8</ele>
        <time>2021-09-19T14:25:59Z</time>
      </trkpt>
      <trkpt lat="42.77064" lon="1.54653">
        <ele>1113.4</ele>
        <time>2021-09-19T14:26:03Z</time>
      </trkpt>
      <trkpt lat="42.77064" lon="1.54653">
        <ele>1113.4</ele>
        <time>2021-09-19T14:26:05Z</time>
      </trkpt>
      <trkpt lat="42.77064" lon="1.54653">
        <ele>1113.4</ele>
        <time>2021-09-19T14:26:06Z</time>
      </trkpt>
      <trkpt lat="42.77064" lon="1.54652">
        <ele>1113.2</ele>
        <time>2021-09-19T14:26:12Z</time>
      </trkpt>
      <trkpt lat="42.77066" lon="1.54652">
        <ele>1113.2</ele>
        <time>2021-09-19T14:26:20Z</time>
      </trkpt>
      <trkpt lat="42.77066" lon="1.54653">
        <ele>1113.2</ele>
        <time>2021-09-19T14:26:22Z</time>
      </trkpt>
      <trkpt lat="42.77066" lon="1.54652">
        <ele>1113.2</ele>
        <time>2021-09-19T14:26:29Z</time>
      </trkpt>
      <trkpt lat="42.77066" lon="1.5465">
        <ele>1113.2</ele>
        <time>2021-09-19T14:26:32Z</time>
      </trkpt>
      <trkpt lat="42.77067" lon="1.54648">
        <ele>1113.2</ele>
        <time>2021-09-19T14:26:40Z</time>
      </trkpt>
      <trkpt lat="42.77066" lon="1.54647">
        <ele>1112.6</ele>
        <time>2021-09-19T14:26:45Z</time>
      </trkpt>
      <trkpt lat="42.77067" lon="1.5465">
        <ele>1113</ele>
        <time>2021-09-19T14:26:51Z</time>
      </trkpt>
      <trkpt lat="42.77067" lon="1.54653">
        <ele>1113.2</ele>
        <time>2021-09-19T14:26:58Z</time>
      </trkpt>
      <trkpt lat="42.77068" lon="1.54654">
        <ele>1113</ele>
        <time>2021-09-19T14:27:05Z</time>
      </trkpt>
      <trkpt lat="42.77066" lon="1.54652">
        <ele>1112.8</ele>
        <time>2021-09-19T14:27:08Z</time>
      </trkpt>
      <trkpt lat="42.77066" lon="1.54652">
        <ele>1112.8</ele>
        <time>2021-09-19T14:27:09Z</time>
      </trkpt>
      <trkpt lat="42.77065" lon="1.54653">
        <ele>1112.4</ele>
        <time>2021-09-19T14:27:13Z</time>
      </trkpt>
      <trkpt lat="42.77064" lon="1.54653">
        <ele>1112.2</ele>
        <time>2021-09-19T14:27:14Z</time>
      </trkpt>
      <trkpt lat="42.77064" lon="1.54654">
        <ele>1112.2</ele>
        <time>2021-09-19T14:27:16Z</time>
      </trkpt>
      <trkpt lat="42.77063" lon="1.54654">
        <ele>1112.2</ele>
        <time>2021-09-19T14:27:22Z</time>
      </trkpt>
      <trkpt lat="42.77062" lon="1.54654">
        <ele>1112.2</ele>
        <time>2021-09-19T14:27:25Z</time>
      </trkpt>
      <trkpt lat="42.77062" lon="1.54654">
        <ele>1112</ele>
        <time>2021-09-19T14:27:27Z</time>
      </trkpt>
      <trkpt lat="42.77062" lon="1.54654">
        <ele>1112</ele>
        <time>2021-09-19T14:27:28Z</time>
      </trkpt>
      <trkpt lat="42.77062" lon="1.54653">
        <ele>1111.8</ele>
        <time>2021-09-19T14:27:31Z</time>
      </trkpt>
      <trkpt lat="42.77062" lon="1.54652">
        <ele>1111.8</ele>
        <time>2021-09-19T14:27:32Z</time>
      </trkpt>
      <trkpt lat="42.77062" lon="1.54651">
        <ele>1111.8</ele>
        <time>2021-09-19T14:27:33Z</time>
      </trkpt>
      <trkpt lat="42.77061" lon="1.54649">
        <ele>1112</ele>
        <time>2021-09-19T14:27:37Z</time>
      </trkpt>
      <trkpt lat="42.77061" lon="1.54647">
        <ele>1112</ele>
        <time>2021-09-19T14:27:42Z</time>
      </trkpt>
      <trkpt lat="42.77061" lon="1.5465">
        <ele>1111.6</ele>
        <time>2021-09-19T14:27:46Z</time>
      </trkpt>
      <trkpt lat="42.77061" lon="1.5465">
        <ele>1111.6</ele>
        <time>2021-09-19T14:27:47Z</time>
      </trkpt>
    </trkseg>
  </trk>
</gpx>